<?xml version="1.0" encoding="UTF-8" standalone="no" ?>
<gpx xmlns="http://www.topografix.com/GPX/1/1" xmlns:xsi="http://www.w3.org/2001/XMLSchema-instance" xsi:schemaLocation="http://www.topografix.com/GPX/1/1 http://www.topografix.com/GPX/1/1/gpx.xsd" version="1.1" creator="VisuGPX - https://www.visugpx.com">
  <metadata>
    <name>2019 - Etape 8 - L'isle-Verdun sur le doubs</name>
  </metadata>
  <trk>
    <name><![CDATA[2019 - Etape 8 - L'isle-Verdun sur le doubs]]></name>
    <trkseg>
      <trkpt lat="47.45268" lon="6.58324">
        <ele>289.5</ele>
        <time>2019-08-17T08:27:25Z</time>
      </trkpt>
      <trkpt lat="47.45263" lon="6.5832">
        <ele>289.4</ele>
        <time>2019-08-17T08:28:22Z</time>
      </trkpt>
      <trkpt lat="47.45259" lon="6.58321">
        <ele>289.3</ele>
        <time>2019-08-17T08:28:24Z</time>
      </trkpt>
      <trkpt lat="47.45255" lon="6.5832">
        <ele>289.3</ele>
        <time>2019-08-17T08:28:26Z</time>
      </trkpt>
      <trkpt lat="47.45252" lon="6.58317">
        <ele>289.3</ele>
        <time>2019-08-17T08:28:28Z</time>
      </trkpt>
      <trkpt lat="47.45246" lon="6.58316">
        <ele>289.2</ele>
        <time>2019-08-17T08:28:30Z</time>
      </trkpt>
      <trkpt lat="47.45242" lon="6.58312">
        <ele>289.1</ele>
        <time>2019-08-17T08:28:32Z</time>
      </trkpt>
      <trkpt lat="47.45238" lon="6.58308">
        <ele>289</ele>
        <time>2019-08-17T08:28:34Z</time>
      </trkpt>
      <trkpt lat="47.45236" lon="6.58306">
        <ele>289</ele>
        <time>2019-08-17T08:28:35Z</time>
      </trkpt>
      <trkpt lat="47.45234" lon="6.58303">
        <ele>288.9</ele>
        <time>2019-08-17T08:28:36Z</time>
      </trkpt>
      <trkpt lat="47.45231" lon="6.58301">
        <ele>288.9</ele>
        <time>2019-08-17T08:28:37Z</time>
      </trkpt>
      <trkpt lat="47.45227" lon="6.58297">
        <ele>288.8</ele>
        <time>2019-08-17T08:28:39Z</time>
      </trkpt>
      <trkpt lat="47.45225" lon="6.58295">
        <ele>288.8</ele>
        <time>2019-08-17T08:28:41Z</time>
      </trkpt>
      <trkpt lat="47.45221" lon="6.58293">
        <ele>288.7</ele>
        <time>2019-08-17T08:28:43Z</time>
      </trkpt>
      <trkpt lat="47.45218" lon="6.5829">
        <ele>288.6</ele>
        <time>2019-08-17T08:28:46Z</time>
      </trkpt>
      <trkpt lat="47.45216" lon="6.58287">
        <ele>288.6</ele>
        <time>2019-08-17T08:28:48Z</time>
      </trkpt>
      <trkpt lat="47.45214" lon="6.58284">
        <ele>288.5</ele>
        <time>2019-08-17T08:28:50Z</time>
      </trkpt>
      <trkpt lat="47.45211" lon="6.58282">
        <ele>288.4</ele>
        <time>2019-08-17T08:28:52Z</time>
      </trkpt>
      <trkpt lat="47.45208" lon="6.5828">
        <ele>288.4</ele>
        <time>2019-08-17T08:28:54Z</time>
      </trkpt>
      <trkpt lat="47.45204" lon="6.58277">
        <ele>288.3</ele>
        <time>2019-08-17T08:28:57Z</time>
      </trkpt>
      <trkpt lat="47.45202" lon="6.58273">
        <ele>288.2</ele>
        <time>2019-08-17T08:28:59Z</time>
      </trkpt>
      <trkpt lat="47.452" lon="6.58268">
        <ele>288.1</ele>
        <time>2019-08-17T08:29:01Z</time>
      </trkpt>
      <trkpt lat="47.45198" lon="6.58265">
        <ele>288</ele>
        <time>2019-08-17T08:29:04Z</time>
      </trkpt>
      <trkpt lat="47.45195" lon="6.58262">
        <ele>288</ele>
        <time>2019-08-17T08:29:06Z</time>
      </trkpt>
      <trkpt lat="47.45191" lon="6.58258">
        <ele>287.9</ele>
        <time>2019-08-17T08:29:08Z</time>
      </trkpt>
      <trkpt lat="47.45189" lon="6.58256">
        <ele>287.9</ele>
        <time>2019-08-17T08:29:09Z</time>
      </trkpt>
      <trkpt lat="47.45186" lon="6.58254">
        <ele>287.8</ele>
        <time>2019-08-17T08:29:10Z</time>
      </trkpt>
      <trkpt lat="47.45183" lon="6.58252">
        <ele>287.8</ele>
        <time>2019-08-17T08:29:11Z</time>
      </trkpt>
      <trkpt lat="47.45179" lon="6.58248">
        <ele>287.8</ele>
        <time>2019-08-17T08:29:13Z</time>
      </trkpt>
      <trkpt lat="47.45175" lon="6.58243">
        <ele>287.8</ele>
        <time>2019-08-17T08:29:15Z</time>
      </trkpt>
      <trkpt lat="47.45171" lon="6.58238">
        <ele>287.8</ele>
        <time>2019-08-17T08:29:17Z</time>
      </trkpt>
      <trkpt lat="47.45167" lon="6.58234">
        <ele>287.7</ele>
        <time>2019-08-17T08:29:19Z</time>
      </trkpt>
      <trkpt lat="47.45163" lon="6.5823">
        <ele>287.7</ele>
        <time>2019-08-17T08:29:21Z</time>
      </trkpt>
      <trkpt lat="47.4516" lon="6.58228">
        <ele>287.7</ele>
        <time>2019-08-17T08:29:22Z</time>
      </trkpt>
      <trkpt lat="47.45157" lon="6.58225">
        <ele>287.7</ele>
        <time>2019-08-17T08:29:23Z</time>
      </trkpt>
      <trkpt lat="47.45155" lon="6.58222">
        <ele>287.7</ele>
        <time>2019-08-17T08:29:24Z</time>
      </trkpt>
      <trkpt lat="47.45152" lon="6.58219">
        <ele>287.7</ele>
        <time>2019-08-17T08:29:25Z</time>
      </trkpt>
      <trkpt lat="47.4515" lon="6.58215">
        <ele>287.7</ele>
        <time>2019-08-17T08:29:26Z</time>
      </trkpt>
      <trkpt lat="47.45147" lon="6.58212">
        <ele>287.7</ele>
        <time>2019-08-17T08:29:27Z</time>
      </trkpt>
      <trkpt lat="47.45144" lon="6.58209">
        <ele>287.7</ele>
        <time>2019-08-17T08:29:28Z</time>
      </trkpt>
      <trkpt lat="47.45142" lon="6.58207">
        <ele>287.6</ele>
        <time>2019-08-17T08:29:29Z</time>
      </trkpt>
      <trkpt lat="47.45139" lon="6.58207">
        <ele>287.6</ele>
        <time>2019-08-17T08:29:30Z</time>
      </trkpt>
      <trkpt lat="47.45136" lon="6.58204">
        <ele>287.6</ele>
        <time>2019-08-17T08:29:31Z</time>
      </trkpt>
      <trkpt lat="47.45133" lon="6.58201">
        <ele>287.6</ele>
        <time>2019-08-17T08:29:32Z</time>
      </trkpt>
      <trkpt lat="47.45131" lon="6.58199">
        <ele>287.6</ele>
        <time>2019-08-17T08:29:33Z</time>
      </trkpt>
      <trkpt lat="47.45129" lon="6.58196">
        <ele>287.6</ele>
        <time>2019-08-17T08:29:34Z</time>
      </trkpt>
      <trkpt lat="47.45124" lon="6.58192">
        <ele>287.6</ele>
        <time>2019-08-17T08:29:36Z</time>
      </trkpt>
      <trkpt lat="47.45121" lon="6.58189">
        <ele>287.6</ele>
        <time>2019-08-17T08:29:37Z</time>
      </trkpt>
      <trkpt lat="47.45118" lon="6.58184">
        <ele>287.6</ele>
        <time>2019-08-17T08:29:39Z</time>
      </trkpt>
      <trkpt lat="47.45116" lon="6.58181">
        <ele>287.6</ele>
        <time>2019-08-17T08:29:40Z</time>
      </trkpt>
      <trkpt lat="47.45114" lon="6.58177">
        <ele>287.7</ele>
        <time>2019-08-17T08:29:41Z</time>
      </trkpt>
      <trkpt lat="47.45113" lon="6.58174">
        <ele>287.7</ele>
        <time>2019-08-17T08:29:42Z</time>
      </trkpt>
      <trkpt lat="47.45108" lon="6.58168">
        <ele>287.8</ele>
        <time>2019-08-17T08:29:44Z</time>
      </trkpt>
      <trkpt lat="47.45106" lon="6.58165">
        <ele>287.8</ele>
        <time>2019-08-17T08:29:45Z</time>
      </trkpt>
      <trkpt lat="47.45103" lon="6.58163">
        <ele>287.9</ele>
        <time>2019-08-17T08:29:46Z</time>
      </trkpt>
      <trkpt lat="47.45101" lon="6.58159">
        <ele>288</ele>
        <time>2019-08-17T08:29:47Z</time>
      </trkpt>
      <trkpt lat="47.45098" lon="6.58154">
        <ele>288.1</ele>
        <time>2019-08-17T08:29:48Z</time>
      </trkpt>
      <trkpt lat="47.45095" lon="6.58151">
        <ele>288.2</ele>
        <time>2019-08-17T08:29:49Z</time>
      </trkpt>
      <trkpt lat="47.45091" lon="6.58147">
        <ele>288.3</ele>
        <time>2019-08-17T08:29:50Z</time>
      </trkpt>
      <trkpt lat="47.45088" lon="6.58142">
        <ele>288.4</ele>
        <time>2019-08-17T08:29:51Z</time>
      </trkpt>
      <trkpt lat="47.45084" lon="6.58136">
        <ele>288.5</ele>
        <time>2019-08-17T08:29:52Z</time>
      </trkpt>
      <trkpt lat="47.45081" lon="6.58132">
        <ele>288.5</ele>
        <time>2019-08-17T08:29:53Z</time>
      </trkpt>
      <trkpt lat="47.45079" lon="6.58128">
        <ele>288.5</ele>
        <time>2019-08-17T08:29:54Z</time>
      </trkpt>
      <trkpt lat="47.45077" lon="6.58125">
        <ele>288.6</ele>
        <time>2019-08-17T08:29:55Z</time>
      </trkpt>
      <trkpt lat="47.45074" lon="6.58121">
        <ele>288.6</ele>
        <time>2019-08-17T08:29:56Z</time>
      </trkpt>
      <trkpt lat="47.45071" lon="6.58118">
        <ele>288.6</ele>
        <time>2019-08-17T08:29:57Z</time>
      </trkpt>
      <trkpt lat="47.45068" lon="6.58114">
        <ele>288.6</ele>
        <time>2019-08-17T08:29:58Z</time>
      </trkpt>
      <trkpt lat="47.45065" lon="6.5811">
        <ele>288.6</ele>
        <time>2019-08-17T08:29:59Z</time>
      </trkpt>
      <trkpt lat="47.45063" lon="6.58107">
        <ele>288.6</ele>
        <time>2019-08-17T08:30:00Z</time>
      </trkpt>
      <trkpt lat="47.4506" lon="6.58103">
        <ele>288.6</ele>
        <time>2019-08-17T08:30:01Z</time>
      </trkpt>
      <trkpt lat="47.45057" lon="6.58098">
        <ele>288.6</ele>
        <time>2019-08-17T08:30:02Z</time>
      </trkpt>
      <trkpt lat="47.45054" lon="6.58092">
        <ele>288.6</ele>
        <time>2019-08-17T08:30:03Z</time>
      </trkpt>
      <trkpt lat="47.45051" lon="6.58087">
        <ele>288.6</ele>
        <time>2019-08-17T08:30:04Z</time>
      </trkpt>
      <trkpt lat="47.45048" lon="6.58084">
        <ele>288.6</ele>
        <time>2019-08-17T08:30:05Z</time>
      </trkpt>
      <trkpt lat="47.45046" lon="6.58079">
        <ele>288.6</ele>
        <time>2019-08-17T08:30:06Z</time>
      </trkpt>
      <trkpt lat="47.45043" lon="6.58073">
        <ele>288.6</ele>
        <time>2019-08-17T08:30:07Z</time>
      </trkpt>
      <trkpt lat="47.4504" lon="6.58068">
        <ele>288.6</ele>
        <time>2019-08-17T08:30:08Z</time>
      </trkpt>
      <trkpt lat="47.45039" lon="6.58064">
        <ele>288.6</ele>
        <time>2019-08-17T08:30:09Z</time>
      </trkpt>
      <trkpt lat="47.45037" lon="6.5806">
        <ele>288.7</ele>
        <time>2019-08-17T08:30:10Z</time>
      </trkpt>
      <trkpt lat="47.45035" lon="6.58057">
        <ele>288.7</ele>
        <time>2019-08-17T08:30:11Z</time>
      </trkpt>
      <trkpt lat="47.45033" lon="6.58051">
        <ele>288.7</ele>
        <time>2019-08-17T08:30:13Z</time>
      </trkpt>
      <trkpt lat="47.45032" lon="6.58046">
        <ele>288.7</ele>
        <time>2019-08-17T08:30:15Z</time>
      </trkpt>
      <trkpt lat="47.45031" lon="6.58042">
        <ele>287.8</ele>
        <time>2019-08-17T08:30:18Z</time>
      </trkpt>
      <trkpt lat="47.4503" lon="6.58037">
        <ele>287.3</ele>
        <time>2019-08-17T08:30:20Z</time>
      </trkpt>
      <trkpt lat="47.45033" lon="6.58033">
        <ele>286.7</ele>
        <time>2019-08-17T08:30:22Z</time>
      </trkpt>
      <trkpt lat="47.45035" lon="6.58028">
        <ele>286</ele>
        <time>2019-08-17T08:30:24Z</time>
      </trkpt>
      <trkpt lat="47.45038" lon="6.58021">
        <ele>285.2</ele>
        <time>2019-08-17T08:30:26Z</time>
      </trkpt>
      <trkpt lat="47.4504" lon="6.58017">
        <ele>284.6</ele>
        <time>2019-08-17T08:30:27Z</time>
      </trkpt>
      <trkpt lat="47.45043" lon="6.58014">
        <ele>284.6</ele>
        <time>2019-08-17T08:30:28Z</time>
      </trkpt>
      <trkpt lat="47.45045" lon="6.58009">
        <ele>284.6</ele>
        <time>2019-08-17T08:30:29Z</time>
      </trkpt>
      <trkpt lat="47.45048" lon="6.58005">
        <ele>284.6</ele>
        <time>2019-08-17T08:30:30Z</time>
      </trkpt>
      <trkpt lat="47.4505" lon="6.58001">
        <ele>284.6</ele>
        <time>2019-08-17T08:30:31Z</time>
      </trkpt>
      <trkpt lat="47.45052" lon="6.57997">
        <ele>284.6</ele>
        <time>2019-08-17T08:30:32Z</time>
      </trkpt>
      <trkpt lat="47.45054" lon="6.57993">
        <ele>284.6</ele>
        <time>2019-08-17T08:30:33Z</time>
      </trkpt>
      <trkpt lat="47.45056" lon="6.57989">
        <ele>284.5</ele>
        <time>2019-08-17T08:30:34Z</time>
      </trkpt>
      <trkpt lat="47.45058" lon="6.57984">
        <ele>284.5</ele>
        <time>2019-08-17T08:30:35Z</time>
      </trkpt>
      <trkpt lat="47.4506" lon="6.5798">
        <ele>284.6</ele>
        <time>2019-08-17T08:30:36Z</time>
      </trkpt>
      <trkpt lat="47.45062" lon="6.57975">
        <ele>284.7</ele>
        <time>2019-08-17T08:30:37Z</time>
      </trkpt>
      <trkpt lat="47.45064" lon="6.57971">
        <ele>284.8</ele>
        <time>2019-08-17T08:30:38Z</time>
      </trkpt>
      <trkpt lat="47.45066" lon="6.57966">
        <ele>285</ele>
        <time>2019-08-17T08:30:39Z</time>
      </trkpt>
      <trkpt lat="47.45069" lon="6.57961">
        <ele>285.2</ele>
        <time>2019-08-17T08:30:40Z</time>
      </trkpt>
      <trkpt lat="47.45071" lon="6.57956">
        <ele>285.6</ele>
        <time>2019-08-17T08:30:41Z</time>
      </trkpt>
      <trkpt lat="47.45074" lon="6.57951">
        <ele>285.9</ele>
        <time>2019-08-17T08:30:42Z</time>
      </trkpt>
      <trkpt lat="47.45077" lon="6.57945">
        <ele>286.4</ele>
        <time>2019-08-17T08:30:43Z</time>
      </trkpt>
      <trkpt lat="47.4508" lon="6.5794">
        <ele>286.9</ele>
        <time>2019-08-17T08:30:44Z</time>
      </trkpt>
      <trkpt lat="47.45082" lon="6.57935">
        <ele>287.4</ele>
        <time>2019-08-17T08:30:45Z</time>
      </trkpt>
      <trkpt lat="47.45085" lon="6.5793">
        <ele>287.8</ele>
        <time>2019-08-17T08:30:46Z</time>
      </trkpt>
      <trkpt lat="47.45087" lon="6.57926">
        <ele>288.3</ele>
        <time>2019-08-17T08:30:47Z</time>
      </trkpt>
      <trkpt lat="47.45089" lon="6.57922">
        <ele>288.6</ele>
        <time>2019-08-17T08:30:48Z</time>
      </trkpt>
      <trkpt lat="47.45091" lon="6.57919">
        <ele>289</ele>
        <time>2019-08-17T08:30:49Z</time>
      </trkpt>
      <trkpt lat="47.45093" lon="6.57913">
        <ele>289.4</ele>
        <time>2019-08-17T08:30:51Z</time>
      </trkpt>
      <trkpt lat="47.45096" lon="6.57908">
        <ele>289.7</ele>
        <time>2019-08-17T08:30:53Z</time>
      </trkpt>
      <trkpt lat="47.45099" lon="6.57905">
        <ele>289.9</ele>
        <time>2019-08-17T08:30:54Z</time>
      </trkpt>
      <trkpt lat="47.45101" lon="6.57901">
        <ele>290.1</ele>
        <time>2019-08-17T08:30:55Z</time>
      </trkpt>
      <trkpt lat="47.45103" lon="6.57898">
        <ele>290.3</ele>
        <time>2019-08-17T08:30:56Z</time>
      </trkpt>
      <trkpt lat="47.45106" lon="6.57896">
        <ele>290.5</ele>
        <time>2019-08-17T08:30:57Z</time>
      </trkpt>
      <trkpt lat="47.4511" lon="6.57891">
        <ele>291</ele>
        <time>2019-08-17T08:30:59Z</time>
      </trkpt>
      <trkpt lat="47.45112" lon="6.57884">
        <ele>292.5</ele>
        <time>2019-08-17T08:31:01Z</time>
      </trkpt>
      <trkpt lat="47.45113" lon="6.57881">
        <ele>293.4</ele>
        <time>2019-08-17T08:31:02Z</time>
      </trkpt>
      <trkpt lat="47.45116" lon="6.57877">
        <ele>294.4</ele>
        <time>2019-08-17T08:31:03Z</time>
      </trkpt>
      <trkpt lat="47.45118" lon="6.57873">
        <ele>295.6</ele>
        <time>2019-08-17T08:31:04Z</time>
      </trkpt>
      <trkpt lat="47.45122" lon="6.57869">
        <ele>296.9</ele>
        <time>2019-08-17T08:31:05Z</time>
      </trkpt>
      <trkpt lat="47.45125" lon="6.57865">
        <ele>298.4</ele>
        <time>2019-08-17T08:31:06Z</time>
      </trkpt>
      <trkpt lat="47.45128" lon="6.57861">
        <ele>299.6</ele>
        <time>2019-08-17T08:31:07Z</time>
      </trkpt>
      <trkpt lat="47.45131" lon="6.57856">
        <ele>300.9</ele>
        <time>2019-08-17T08:31:08Z</time>
      </trkpt>
      <trkpt lat="47.45133" lon="6.57851">
        <ele>301.7</ele>
        <time>2019-08-17T08:31:09Z</time>
      </trkpt>
      <trkpt lat="47.45136" lon="6.57846">
        <ele>302.6</ele>
        <time>2019-08-17T08:31:10Z</time>
      </trkpt>
      <trkpt lat="47.45139" lon="6.57841">
        <ele>303.6</ele>
        <time>2019-08-17T08:31:11Z</time>
      </trkpt>
      <trkpt lat="47.45141" lon="6.57832">
        <ele>305</ele>
        <time>2019-08-17T08:31:12Z</time>
      </trkpt>
      <trkpt lat="47.45144" lon="6.57826">
        <ele>306.1</ele>
        <time>2019-08-17T08:31:13Z</time>
      </trkpt>
      <trkpt lat="47.45148" lon="6.57819">
        <ele>307.1</ele>
        <time>2019-08-17T08:31:14Z</time>
      </trkpt>
      <trkpt lat="47.45151" lon="6.57813">
        <ele>307.4</ele>
        <time>2019-08-17T08:31:15Z</time>
      </trkpt>
      <trkpt lat="47.45154" lon="6.57808">
        <ele>307.7</ele>
        <time>2019-08-17T08:31:16Z</time>
      </trkpt>
      <trkpt lat="47.45156" lon="6.57802">
        <ele>308</ele>
        <time>2019-08-17T08:31:17Z</time>
      </trkpt>
      <trkpt lat="47.45158" lon="6.57798">
        <ele>308.2</ele>
        <time>2019-08-17T08:31:18Z</time>
      </trkpt>
      <trkpt lat="47.4516" lon="6.57794">
        <ele>308.4</ele>
        <time>2019-08-17T08:31:20Z</time>
      </trkpt>
      <trkpt lat="47.45158" lon="6.57797">
        <ele>308.6</ele>
        <time>2019-08-17T08:31:23Z</time>
      </trkpt>
      <trkpt lat="47.45156" lon="6.57791">
        <ele>308.9</ele>
        <time>2019-08-17T08:31:30Z</time>
      </trkpt>
      <trkpt lat="47.45155" lon="6.57787">
        <ele>308.8</ele>
        <time>2019-08-17T08:31:32Z</time>
      </trkpt>
      <trkpt lat="47.45151" lon="6.57782">
        <ele>308.8</ele>
        <time>2019-08-17T08:31:34Z</time>
      </trkpt>
      <trkpt lat="47.45149" lon="6.57781">
        <ele>308.8</ele>
        <time>2019-08-17T08:31:35Z</time>
      </trkpt>
      <trkpt lat="47.45145" lon="6.5778">
        <ele>308.7</ele>
        <time>2019-08-17T08:31:36Z</time>
      </trkpt>
      <trkpt lat="47.45142" lon="6.57778">
        <ele>308.7</ele>
        <time>2019-08-17T08:31:37Z</time>
      </trkpt>
      <trkpt lat="47.45138" lon="6.57775">
        <ele>308.7</ele>
        <time>2019-08-17T08:31:38Z</time>
      </trkpt>
      <trkpt lat="47.45134" lon="6.57772">
        <ele>308.6</ele>
        <time>2019-08-17T08:31:39Z</time>
      </trkpt>
      <trkpt lat="47.4513" lon="6.5777">
        <ele>308.6</ele>
        <time>2019-08-17T08:31:40Z</time>
      </trkpt>
      <trkpt lat="47.45127" lon="6.57766">
        <ele>308.6</ele>
        <time>2019-08-17T08:31:41Z</time>
      </trkpt>
      <trkpt lat="47.45122" lon="6.57763">
        <ele>308.6</ele>
        <time>2019-08-17T08:31:42Z</time>
      </trkpt>
      <trkpt lat="47.45117" lon="6.57759">
        <ele>308.5</ele>
        <time>2019-08-17T08:31:43Z</time>
      </trkpt>
      <trkpt lat="47.45113" lon="6.57755">
        <ele>308.5</ele>
        <time>2019-08-17T08:31:44Z</time>
      </trkpt>
      <trkpt lat="47.45108" lon="6.57751">
        <ele>308.5</ele>
        <time>2019-08-17T08:31:45Z</time>
      </trkpt>
      <trkpt lat="47.45103" lon="6.57747">
        <ele>308.5</ele>
        <time>2019-08-17T08:31:46Z</time>
      </trkpt>
      <trkpt lat="47.45099" lon="6.57742">
        <ele>308.5</ele>
        <time>2019-08-17T08:31:47Z</time>
      </trkpt>
      <trkpt lat="47.45094" lon="6.57737">
        <ele>308.5</ele>
        <time>2019-08-17T08:31:48Z</time>
      </trkpt>
      <trkpt lat="47.4509" lon="6.57732">
        <ele>308.5</ele>
        <time>2019-08-17T08:31:49Z</time>
      </trkpt>
      <trkpt lat="47.45087" lon="6.57727">
        <ele>308.4</ele>
        <time>2019-08-17T08:31:50Z</time>
      </trkpt>
      <trkpt lat="47.45084" lon="6.57723">
        <ele>308.4</ele>
        <time>2019-08-17T08:31:51Z</time>
      </trkpt>
      <trkpt lat="47.4508" lon="6.57719">
        <ele>308.4</ele>
        <time>2019-08-17T08:31:52Z</time>
      </trkpt>
      <trkpt lat="47.45077" lon="6.57715">
        <ele>308.4</ele>
        <time>2019-08-17T08:31:53Z</time>
      </trkpt>
      <trkpt lat="47.45072" lon="6.57711">
        <ele>308.4</ele>
        <time>2019-08-17T08:31:54Z</time>
      </trkpt>
      <trkpt lat="47.45069" lon="6.57708">
        <ele>308.4</ele>
        <time>2019-08-17T08:31:55Z</time>
      </trkpt>
      <trkpt lat="47.45065" lon="6.57705">
        <ele>308.3</ele>
        <time>2019-08-17T08:31:56Z</time>
      </trkpt>
      <trkpt lat="47.4506" lon="6.57702">
        <ele>308.3</ele>
        <time>2019-08-17T08:31:57Z</time>
      </trkpt>
      <trkpt lat="47.45056" lon="6.577">
        <ele>308.3</ele>
        <time>2019-08-17T08:31:58Z</time>
      </trkpt>
      <trkpt lat="47.45052" lon="6.57698">
        <ele>308.3</ele>
        <time>2019-08-17T08:31:59Z</time>
      </trkpt>
      <trkpt lat="47.45045" lon="6.57698">
        <ele>308.2</ele>
        <time>2019-08-17T08:32:00Z</time>
      </trkpt>
      <trkpt lat="47.4504" lon="6.57697">
        <ele>308.2</ele>
        <time>2019-08-17T08:32:01Z</time>
      </trkpt>
      <trkpt lat="47.45037" lon="6.57695">
        <ele>308.2</ele>
        <time>2019-08-17T08:32:02Z</time>
      </trkpt>
      <trkpt lat="47.45033" lon="6.57693">
        <ele>308.2</ele>
        <time>2019-08-17T08:32:03Z</time>
      </trkpt>
      <trkpt lat="47.45028" lon="6.5769">
        <ele>308.2</ele>
        <time>2019-08-17T08:32:04Z</time>
      </trkpt>
      <trkpt lat="47.45024" lon="6.57688">
        <ele>308.1</ele>
        <time>2019-08-17T08:32:05Z</time>
      </trkpt>
      <trkpt lat="47.4502" lon="6.57686">
        <ele>308.1</ele>
        <time>2019-08-17T08:32:06Z</time>
      </trkpt>
      <trkpt lat="47.45015" lon="6.57685">
        <ele>308.1</ele>
        <time>2019-08-17T08:32:07Z</time>
      </trkpt>
      <trkpt lat="47.4501" lon="6.57683">
        <ele>308</ele>
        <time>2019-08-17T08:32:08Z</time>
      </trkpt>
      <trkpt lat="47.45005" lon="6.57681">
        <ele>308</ele>
        <time>2019-08-17T08:32:09Z</time>
      </trkpt>
      <trkpt lat="47.45" lon="6.5768">
        <ele>308</ele>
        <time>2019-08-17T08:32:10Z</time>
      </trkpt>
      <trkpt lat="47.44994" lon="6.57678">
        <ele>307.9</ele>
        <time>2019-08-17T08:32:11Z</time>
      </trkpt>
      <trkpt lat="47.44988" lon="6.57676">
        <ele>307.9</ele>
        <time>2019-08-17T08:32:12Z</time>
      </trkpt>
      <trkpt lat="47.44983" lon="6.57675">
        <ele>307.9</ele>
        <time>2019-08-17T08:32:13Z</time>
      </trkpt>
      <trkpt lat="47.44978" lon="6.57673">
        <ele>307.8</ele>
        <time>2019-08-17T08:32:14Z</time>
      </trkpt>
      <trkpt lat="47.44973" lon="6.57671">
        <ele>307.8</ele>
        <time>2019-08-17T08:32:15Z</time>
      </trkpt>
      <trkpt lat="47.44967" lon="6.57669">
        <ele>307.8</ele>
        <time>2019-08-17T08:32:16Z</time>
      </trkpt>
      <trkpt lat="47.44962" lon="6.57666">
        <ele>307.7</ele>
        <time>2019-08-17T08:32:17Z</time>
      </trkpt>
      <trkpt lat="47.44956" lon="6.57662">
        <ele>307.7</ele>
        <time>2019-08-17T08:32:18Z</time>
      </trkpt>
      <trkpt lat="47.4495" lon="6.57659">
        <ele>307.6</ele>
        <time>2019-08-17T08:32:19Z</time>
      </trkpt>
      <trkpt lat="47.44945" lon="6.57655">
        <ele>307.6</ele>
        <time>2019-08-17T08:32:20Z</time>
      </trkpt>
      <trkpt lat="47.44939" lon="6.57652">
        <ele>307.5</ele>
        <time>2019-08-17T08:32:21Z</time>
      </trkpt>
      <trkpt lat="47.44934" lon="6.5765">
        <ele>307.5</ele>
        <time>2019-08-17T08:32:22Z</time>
      </trkpt>
      <trkpt lat="47.44929" lon="6.57649">
        <ele>307.4</ele>
        <time>2019-08-17T08:32:23Z</time>
      </trkpt>
      <trkpt lat="47.44925" lon="6.57649">
        <ele>307.4</ele>
        <time>2019-08-17T08:32:24Z</time>
      </trkpt>
      <trkpt lat="47.4492" lon="6.57648">
        <ele>307.4</ele>
        <time>2019-08-17T08:32:25Z</time>
      </trkpt>
      <trkpt lat="47.44915" lon="6.57647">
        <ele>307.3</ele>
        <time>2019-08-17T08:32:26Z</time>
      </trkpt>
      <trkpt lat="47.4491" lon="6.57646">
        <ele>307.3</ele>
        <time>2019-08-17T08:32:27Z</time>
      </trkpt>
      <trkpt lat="47.44904" lon="6.57643">
        <ele>307.2</ele>
        <time>2019-08-17T08:32:28Z</time>
      </trkpt>
      <trkpt lat="47.44898" lon="6.57641">
        <ele>307.2</ele>
        <time>2019-08-17T08:32:29Z</time>
      </trkpt>
      <trkpt lat="47.44894" lon="6.57639">
        <ele>307.1</ele>
        <time>2019-08-17T08:32:30Z</time>
      </trkpt>
      <trkpt lat="47.44888" lon="6.57637">
        <ele>307.1</ele>
        <time>2019-08-17T08:32:31Z</time>
      </trkpt>
      <trkpt lat="47.44884" lon="6.57635">
        <ele>307.1</ele>
        <time>2019-08-17T08:32:32Z</time>
      </trkpt>
      <trkpt lat="47.44879" lon="6.57633">
        <ele>307</ele>
        <time>2019-08-17T08:32:33Z</time>
      </trkpt>
      <trkpt lat="47.44874" lon="6.57633">
        <ele>307</ele>
        <time>2019-08-17T08:32:34Z</time>
      </trkpt>
      <trkpt lat="47.44869" lon="6.57632">
        <ele>306.9</ele>
        <time>2019-08-17T08:32:35Z</time>
      </trkpt>
      <trkpt lat="47.44865" lon="6.57636">
        <ele>306.9</ele>
        <time>2019-08-17T08:32:36Z</time>
      </trkpt>
      <trkpt lat="47.44861" lon="6.57635">
        <ele>306.9</ele>
        <time>2019-08-17T08:32:37Z</time>
      </trkpt>
      <trkpt lat="47.44858" lon="6.57635">
        <ele>306.9</ele>
        <time>2019-08-17T08:32:38Z</time>
      </trkpt>
      <trkpt lat="47.44854" lon="6.57635">
        <ele>306.8</ele>
        <time>2019-08-17T08:32:39Z</time>
      </trkpt>
      <trkpt lat="47.4485" lon="6.57633">
        <ele>306.8</ele>
        <time>2019-08-17T08:32:40Z</time>
      </trkpt>
      <trkpt lat="47.44845" lon="6.57632">
        <ele>306.8</ele>
        <time>2019-08-17T08:32:41Z</time>
      </trkpt>
      <trkpt lat="47.4484" lon="6.57631">
        <ele>306.7</ele>
        <time>2019-08-17T08:32:42Z</time>
      </trkpt>
      <trkpt lat="47.44835" lon="6.57631">
        <ele>306.7</ele>
        <time>2019-08-17T08:32:43Z</time>
      </trkpt>
      <trkpt lat="47.4483" lon="6.5763">
        <ele>306.6</ele>
        <time>2019-08-17T08:32:44Z</time>
      </trkpt>
      <trkpt lat="47.44826" lon="6.57628">
        <ele>306.6</ele>
        <time>2019-08-17T08:32:45Z</time>
      </trkpt>
      <trkpt lat="47.44821" lon="6.57627">
        <ele>306.6</ele>
        <time>2019-08-17T08:32:46Z</time>
      </trkpt>
      <trkpt lat="47.44816" lon="6.57627">
        <ele>306.5</ele>
        <time>2019-08-17T08:32:47Z</time>
      </trkpt>
      <trkpt lat="47.44811" lon="6.57626">
        <ele>306.5</ele>
        <time>2019-08-17T08:32:48Z</time>
      </trkpt>
      <trkpt lat="47.44806" lon="6.57624">
        <ele>306.5</ele>
        <time>2019-08-17T08:32:49Z</time>
      </trkpt>
      <trkpt lat="47.44801" lon="6.57623">
        <ele>306.4</ele>
        <time>2019-08-17T08:32:50Z</time>
      </trkpt>
      <trkpt lat="47.44794" lon="6.57622">
        <ele>306.4</ele>
        <time>2019-08-17T08:32:51Z</time>
      </trkpt>
      <trkpt lat="47.44788" lon="6.57621">
        <ele>306.3</ele>
        <time>2019-08-17T08:32:52Z</time>
      </trkpt>
      <trkpt lat="47.44782" lon="6.57621">
        <ele>306.3</ele>
        <time>2019-08-17T08:32:53Z</time>
      </trkpt>
      <trkpt lat="47.44778" lon="6.5762">
        <ele>306.3</ele>
        <time>2019-08-17T08:32:54Z</time>
      </trkpt>
      <trkpt lat="47.44773" lon="6.57621">
        <ele>306.2</ele>
        <time>2019-08-17T08:32:55Z</time>
      </trkpt>
      <trkpt lat="47.44767" lon="6.5762">
        <ele>306.2</ele>
        <time>2019-08-17T08:32:56Z</time>
      </trkpt>
      <trkpt lat="47.44762" lon="6.5762">
        <ele>306.2</ele>
        <time>2019-08-17T08:32:57Z</time>
      </trkpt>
      <trkpt lat="47.44756" lon="6.57619">
        <ele>306.1</ele>
        <time>2019-08-17T08:32:58Z</time>
      </trkpt>
      <trkpt lat="47.44751" lon="6.57618">
        <ele>306.1</ele>
        <time>2019-08-17T08:32:59Z</time>
      </trkpt>
      <trkpt lat="47.44746" lon="6.57619">
        <ele>306</ele>
        <time>2019-08-17T08:33:00Z</time>
      </trkpt>
      <trkpt lat="47.44739" lon="6.57617">
        <ele>306</ele>
        <time>2019-08-17T08:33:01Z</time>
      </trkpt>
      <trkpt lat="47.44734" lon="6.57616">
        <ele>305.9</ele>
        <time>2019-08-17T08:33:02Z</time>
      </trkpt>
      <trkpt lat="47.44728" lon="6.57615">
        <ele>305.9</ele>
        <time>2019-08-17T08:33:03Z</time>
      </trkpt>
      <trkpt lat="47.44724" lon="6.57613">
        <ele>305.8</ele>
        <time>2019-08-17T08:33:04Z</time>
      </trkpt>
      <trkpt lat="47.44719" lon="6.57611">
        <ele>305.8</ele>
        <time>2019-08-17T08:33:05Z</time>
      </trkpt>
      <trkpt lat="47.44715" lon="6.5761">
        <ele>305.7</ele>
        <time>2019-08-17T08:33:06Z</time>
      </trkpt>
      <trkpt lat="47.4471" lon="6.57608">
        <ele>305.6</ele>
        <time>2019-08-17T08:33:07Z</time>
      </trkpt>
      <trkpt lat="47.44706" lon="6.57606">
        <ele>305.6</ele>
        <time>2019-08-17T08:33:08Z</time>
      </trkpt>
      <trkpt lat="47.44701" lon="6.57604">
        <ele>305.5</ele>
        <time>2019-08-17T08:33:09Z</time>
      </trkpt>
      <trkpt lat="47.44696" lon="6.57601">
        <ele>305.4</ele>
        <time>2019-08-17T08:33:10Z</time>
      </trkpt>
      <trkpt lat="47.44692" lon="6.57598">
        <ele>305.4</ele>
        <time>2019-08-17T08:33:11Z</time>
      </trkpt>
      <trkpt lat="47.44688" lon="6.57594">
        <ele>305.3</ele>
        <time>2019-08-17T08:33:12Z</time>
      </trkpt>
      <trkpt lat="47.44683" lon="6.57592">
        <ele>305.2</ele>
        <time>2019-08-17T08:33:13Z</time>
      </trkpt>
      <trkpt lat="47.44678" lon="6.57589">
        <ele>305.1</ele>
        <time>2019-08-17T08:33:14Z</time>
      </trkpt>
      <trkpt lat="47.44674" lon="6.57585">
        <ele>305</ele>
        <time>2019-08-17T08:33:15Z</time>
      </trkpt>
      <trkpt lat="47.4467" lon="6.57582">
        <ele>304.9</ele>
        <time>2019-08-17T08:33:16Z</time>
      </trkpt>
      <trkpt lat="47.44665" lon="6.57576">
        <ele>304.8</ele>
        <time>2019-08-17T08:33:17Z</time>
      </trkpt>
      <trkpt lat="47.44661" lon="6.57572">
        <ele>304.7</ele>
        <time>2019-08-17T08:33:18Z</time>
      </trkpt>
      <trkpt lat="47.44658" lon="6.57568">
        <ele>304.6</ele>
        <time>2019-08-17T08:33:19Z</time>
      </trkpt>
      <trkpt lat="47.44654" lon="6.57563">
        <ele>304.4</ele>
        <time>2019-08-17T08:33:20Z</time>
      </trkpt>
      <trkpt lat="47.4465" lon="6.57559">
        <ele>303.8</ele>
        <time>2019-08-17T08:33:21Z</time>
      </trkpt>
      <trkpt lat="47.44646" lon="6.57555">
        <ele>303.4</ele>
        <time>2019-08-17T08:33:22Z</time>
      </trkpt>
      <trkpt lat="47.44642" lon="6.57551">
        <ele>303</ele>
        <time>2019-08-17T08:33:23Z</time>
      </trkpt>
      <trkpt lat="47.44637" lon="6.57547">
        <ele>302.7</ele>
        <time>2019-08-17T08:33:24Z</time>
      </trkpt>
      <trkpt lat="47.44632" lon="6.57541">
        <ele>302.3</ele>
        <time>2019-08-17T08:33:25Z</time>
      </trkpt>
      <trkpt lat="47.44627" lon="6.57536">
        <ele>302</ele>
        <time>2019-08-17T08:33:26Z</time>
      </trkpt>
      <trkpt lat="47.44623" lon="6.57532">
        <ele>301.8</ele>
        <time>2019-08-17T08:33:27Z</time>
      </trkpt>
      <trkpt lat="47.44619" lon="6.57528">
        <ele>301.7</ele>
        <time>2019-08-17T08:33:28Z</time>
      </trkpt>
      <trkpt lat="47.44615" lon="6.57524">
        <ele>301.5</ele>
        <time>2019-08-17T08:33:29Z</time>
      </trkpt>
      <trkpt lat="47.4461" lon="6.57518">
        <ele>301.2</ele>
        <time>2019-08-17T08:33:30Z</time>
      </trkpt>
      <trkpt lat="47.44607" lon="6.57512">
        <ele>301</ele>
        <time>2019-08-17T08:33:31Z</time>
      </trkpt>
      <trkpt lat="47.44603" lon="6.57505">
        <ele>301</ele>
        <time>2019-08-17T08:33:32Z</time>
      </trkpt>
      <trkpt lat="47.446" lon="6.57499">
        <ele>300.9</ele>
        <time>2019-08-17T08:33:33Z</time>
      </trkpt>
      <trkpt lat="47.44596" lon="6.57493">
        <ele>300.8</ele>
        <time>2019-08-17T08:33:34Z</time>
      </trkpt>
      <trkpt lat="47.44593" lon="6.57487">
        <ele>300.7</ele>
        <time>2019-08-17T08:33:35Z</time>
      </trkpt>
      <trkpt lat="47.4459" lon="6.57482">
        <ele>300.7</ele>
        <time>2019-08-17T08:33:36Z</time>
      </trkpt>
      <trkpt lat="47.44588" lon="6.57477">
        <ele>300.7</ele>
        <time>2019-08-17T08:33:37Z</time>
      </trkpt>
      <trkpt lat="47.44585" lon="6.57471">
        <ele>300.6</ele>
        <time>2019-08-17T08:33:38Z</time>
      </trkpt>
      <trkpt lat="47.44581" lon="6.57463">
        <ele>300.6</ele>
        <time>2019-08-17T08:33:39Z</time>
      </trkpt>
      <trkpt lat="47.44578" lon="6.57456">
        <ele>300.5</ele>
        <time>2019-08-17T08:33:40Z</time>
      </trkpt>
      <trkpt lat="47.44575" lon="6.57449">
        <ele>300.5</ele>
        <time>2019-08-17T08:33:41Z</time>
      </trkpt>
      <trkpt lat="47.44572" lon="6.57442">
        <ele>300.4</ele>
        <time>2019-08-17T08:33:42Z</time>
      </trkpt>
      <trkpt lat="47.44569" lon="6.57434">
        <ele>300.4</ele>
        <time>2019-08-17T08:33:43Z</time>
      </trkpt>
      <trkpt lat="47.44565" lon="6.57428">
        <ele>300.4</ele>
        <time>2019-08-17T08:33:44Z</time>
      </trkpt>
      <trkpt lat="47.44562" lon="6.5742">
        <ele>300.3</ele>
        <time>2019-08-17T08:33:45Z</time>
      </trkpt>
      <trkpt lat="47.4456" lon="6.57413">
        <ele>300.3</ele>
        <time>2019-08-17T08:33:46Z</time>
      </trkpt>
      <trkpt lat="47.44557" lon="6.57406">
        <ele>300.2</ele>
        <time>2019-08-17T08:33:47Z</time>
      </trkpt>
      <trkpt lat="47.44554" lon="6.574">
        <ele>300.2</ele>
        <time>2019-08-17T08:33:48Z</time>
      </trkpt>
      <trkpt lat="47.44551" lon="6.57394">
        <ele>300.1</ele>
        <time>2019-08-17T08:33:49Z</time>
      </trkpt>
      <trkpt lat="47.44548" lon="6.57388">
        <ele>300.1</ele>
        <time>2019-08-17T08:33:50Z</time>
      </trkpt>
      <trkpt lat="47.44546" lon="6.57381">
        <ele>300</ele>
        <time>2019-08-17T08:33:51Z</time>
      </trkpt>
      <trkpt lat="47.44545" lon="6.57374">
        <ele>300</ele>
        <time>2019-08-17T08:33:52Z</time>
      </trkpt>
      <trkpt lat="47.44543" lon="6.57368">
        <ele>299.9</ele>
        <time>2019-08-17T08:33:53Z</time>
      </trkpt>
      <trkpt lat="47.4454" lon="6.57361">
        <ele>299.8</ele>
        <time>2019-08-17T08:33:54Z</time>
      </trkpt>
      <trkpt lat="47.44538" lon="6.57355">
        <ele>299.8</ele>
        <time>2019-08-17T08:33:55Z</time>
      </trkpt>
      <trkpt lat="47.44535" lon="6.57349">
        <ele>299.7</ele>
        <time>2019-08-17T08:33:56Z</time>
      </trkpt>
      <trkpt lat="47.44532" lon="6.57343">
        <ele>299.6</ele>
        <time>2019-08-17T08:33:57Z</time>
      </trkpt>
      <trkpt lat="47.4453" lon="6.57337">
        <ele>299.5</ele>
        <time>2019-08-17T08:33:58Z</time>
      </trkpt>
      <trkpt lat="47.44527" lon="6.5733">
        <ele>299.4</ele>
        <time>2019-08-17T08:33:59Z</time>
      </trkpt>
      <trkpt lat="47.44524" lon="6.57325">
        <ele>299.4</ele>
        <time>2019-08-17T08:34:00Z</time>
      </trkpt>
      <trkpt lat="47.44521" lon="6.57319">
        <ele>299.3</ele>
        <time>2019-08-17T08:34:01Z</time>
      </trkpt>
      <trkpt lat="47.44518" lon="6.57311">
        <ele>299.2</ele>
        <time>2019-08-17T08:34:02Z</time>
      </trkpt>
      <trkpt lat="47.44514" lon="6.57305">
        <ele>299.1</ele>
        <time>2019-08-17T08:34:03Z</time>
      </trkpt>
      <trkpt lat="47.44511" lon="6.57298">
        <ele>299</ele>
        <time>2019-08-17T08:34:04Z</time>
      </trkpt>
      <trkpt lat="47.44508" lon="6.57293">
        <ele>298.9</ele>
        <time>2019-08-17T08:34:05Z</time>
      </trkpt>
      <trkpt lat="47.44505" lon="6.57287">
        <ele>298.8</ele>
        <time>2019-08-17T08:34:06Z</time>
      </trkpt>
      <trkpt lat="47.44502" lon="6.5728">
        <ele>298.7</ele>
        <time>2019-08-17T08:34:07Z</time>
      </trkpt>
      <trkpt lat="47.44499" lon="6.57274">
        <ele>298.6</ele>
        <time>2019-08-17T08:34:08Z</time>
      </trkpt>
      <trkpt lat="47.44497" lon="6.57267">
        <ele>298.5</ele>
        <time>2019-08-17T08:34:09Z</time>
      </trkpt>
      <trkpt lat="47.44495" lon="6.5726">
        <ele>298.4</ele>
        <time>2019-08-17T08:34:10Z</time>
      </trkpt>
      <trkpt lat="47.44492" lon="6.57254">
        <ele>298.3</ele>
        <time>2019-08-17T08:34:11Z</time>
      </trkpt>
      <trkpt lat="47.4449" lon="6.57249">
        <ele>298.2</ele>
        <time>2019-08-17T08:34:12Z</time>
      </trkpt>
      <trkpt lat="47.44488" lon="6.57244">
        <ele>298.1</ele>
        <time>2019-08-17T08:34:13Z</time>
      </trkpt>
      <trkpt lat="47.44485" lon="6.5724">
        <ele>298</ele>
        <time>2019-08-17T08:34:14Z</time>
      </trkpt>
      <trkpt lat="47.44483" lon="6.57235">
        <ele>297.9</ele>
        <time>2019-08-17T08:34:15Z</time>
      </trkpt>
      <trkpt lat="47.4448" lon="6.5723">
        <ele>297.8</ele>
        <time>2019-08-17T08:34:16Z</time>
      </trkpt>
      <trkpt lat="47.44478" lon="6.57225">
        <ele>297.7</ele>
        <time>2019-08-17T08:34:17Z</time>
      </trkpt>
      <trkpt lat="47.44475" lon="6.5722">
        <ele>297.6</ele>
        <time>2019-08-17T08:34:18Z</time>
      </trkpt>
      <trkpt lat="47.44472" lon="6.57215">
        <ele>297.6</ele>
        <time>2019-08-17T08:34:19Z</time>
      </trkpt>
      <trkpt lat="47.44469" lon="6.57212">
        <ele>297.5</ele>
        <time>2019-08-17T08:34:20Z</time>
      </trkpt>
      <trkpt lat="47.44464" lon="6.57208">
        <ele>297.4</ele>
        <time>2019-08-17T08:34:21Z</time>
      </trkpt>
      <trkpt lat="47.44459" lon="6.57205">
        <ele>297.3</ele>
        <time>2019-08-17T08:34:22Z</time>
      </trkpt>
      <trkpt lat="47.44454" lon="6.57202">
        <ele>297.3</ele>
        <time>2019-08-17T08:34:23Z</time>
      </trkpt>
      <trkpt lat="47.4445" lon="6.57199">
        <ele>297.2</ele>
        <time>2019-08-17T08:34:24Z</time>
      </trkpt>
      <trkpt lat="47.44445" lon="6.57195">
        <ele>297.1</ele>
        <time>2019-08-17T08:34:25Z</time>
      </trkpt>
      <trkpt lat="47.44441" lon="6.57192">
        <ele>297</ele>
        <time>2019-08-17T08:34:26Z</time>
      </trkpt>
      <trkpt lat="47.44437" lon="6.57188">
        <ele>296.9</ele>
        <time>2019-08-17T08:34:27Z</time>
      </trkpt>
      <trkpt lat="47.44432" lon="6.57185">
        <ele>296.9</ele>
        <time>2019-08-17T08:34:28Z</time>
      </trkpt>
      <trkpt lat="47.44427" lon="6.57181">
        <ele>296.8</ele>
        <time>2019-08-17T08:34:29Z</time>
      </trkpt>
      <trkpt lat="47.44423" lon="6.57177">
        <ele>296.7</ele>
        <time>2019-08-17T08:34:30Z</time>
      </trkpt>
      <trkpt lat="47.44418" lon="6.57174">
        <ele>296.6</ele>
        <time>2019-08-17T08:34:31Z</time>
      </trkpt>
      <trkpt lat="47.44414" lon="6.5717">
        <ele>296.5</ele>
        <time>2019-08-17T08:34:32Z</time>
      </trkpt>
      <trkpt lat="47.44409" lon="6.57166">
        <ele>296.4</ele>
        <time>2019-08-17T08:34:33Z</time>
      </trkpt>
      <trkpt lat="47.44404" lon="6.57162">
        <ele>296.3</ele>
        <time>2019-08-17T08:34:34Z</time>
      </trkpt>
      <trkpt lat="47.44399" lon="6.57158">
        <ele>296.1</ele>
        <time>2019-08-17T08:34:35Z</time>
      </trkpt>
      <trkpt lat="47.44395" lon="6.57154">
        <ele>296</ele>
        <time>2019-08-17T08:34:36Z</time>
      </trkpt>
      <trkpt lat="47.44391" lon="6.5715">
        <ele>295.9</ele>
        <time>2019-08-17T08:34:37Z</time>
      </trkpt>
      <trkpt lat="47.44387" lon="6.57145">
        <ele>295.8</ele>
        <time>2019-08-17T08:34:38Z</time>
      </trkpt>
      <trkpt lat="47.44383" lon="6.5714">
        <ele>295.7</ele>
        <time>2019-08-17T08:34:39Z</time>
      </trkpt>
      <trkpt lat="47.4438" lon="6.57134">
        <ele>295.6</ele>
        <time>2019-08-17T08:34:40Z</time>
      </trkpt>
      <trkpt lat="47.44376" lon="6.57129">
        <ele>295.5</ele>
        <time>2019-08-17T08:34:41Z</time>
      </trkpt>
      <trkpt lat="47.44372" lon="6.57125">
        <ele>295.4</ele>
        <time>2019-08-17T08:34:42Z</time>
      </trkpt>
      <trkpt lat="47.44369" lon="6.5712">
        <ele>295.4</ele>
        <time>2019-08-17T08:34:43Z</time>
      </trkpt>
      <trkpt lat="47.44366" lon="6.57115">
        <ele>295.3</ele>
        <time>2019-08-17T08:34:44Z</time>
      </trkpt>
      <trkpt lat="47.44362" lon="6.57109">
        <ele>295.3</ele>
        <time>2019-08-17T08:34:45Z</time>
      </trkpt>
      <trkpt lat="47.44358" lon="6.57104">
        <ele>295.2</ele>
        <time>2019-08-17T08:34:46Z</time>
      </trkpt>
      <trkpt lat="47.44354" lon="6.57097">
        <ele>295.2</ele>
        <time>2019-08-17T08:34:47Z</time>
      </trkpt>
      <trkpt lat="47.4435" lon="6.5709">
        <ele>295.1</ele>
        <time>2019-08-17T08:34:48Z</time>
      </trkpt>
      <trkpt lat="47.44346" lon="6.57084">
        <ele>295</ele>
        <time>2019-08-17T08:34:49Z</time>
      </trkpt>
      <trkpt lat="47.44342" lon="6.57078">
        <ele>294.9</ele>
        <time>2019-08-17T08:34:50Z</time>
      </trkpt>
      <trkpt lat="47.44338" lon="6.57073">
        <ele>294.9</ele>
        <time>2019-08-17T08:34:51Z</time>
      </trkpt>
      <trkpt lat="47.44334" lon="6.57068">
        <ele>294.8</ele>
        <time>2019-08-17T08:34:52Z</time>
      </trkpt>
      <trkpt lat="47.44331" lon="6.57063">
        <ele>294.8</ele>
        <time>2019-08-17T08:34:53Z</time>
      </trkpt>
      <trkpt lat="47.44327" lon="6.57058">
        <ele>294.8</ele>
        <time>2019-08-17T08:34:54Z</time>
      </trkpt>
      <trkpt lat="47.44324" lon="6.57053">
        <ele>294.7</ele>
        <time>2019-08-17T08:34:55Z</time>
      </trkpt>
      <trkpt lat="47.44321" lon="6.57048">
        <ele>294.7</ele>
        <time>2019-08-17T08:34:56Z</time>
      </trkpt>
      <trkpt lat="47.44318" lon="6.57043">
        <ele>294.7</ele>
        <time>2019-08-17T08:34:57Z</time>
      </trkpt>
      <trkpt lat="47.44316" lon="6.57038">
        <ele>294.7</ele>
        <time>2019-08-17T08:34:58Z</time>
      </trkpt>
      <trkpt lat="47.44313" lon="6.57032">
        <ele>294.7</ele>
        <time>2019-08-17T08:34:59Z</time>
      </trkpt>
      <trkpt lat="47.4431" lon="6.57027">
        <ele>294.7</ele>
        <time>2019-08-17T08:35:00Z</time>
      </trkpt>
      <trkpt lat="47.44308" lon="6.57021">
        <ele>294.7</ele>
        <time>2019-08-17T08:35:01Z</time>
      </trkpt>
      <trkpt lat="47.44304" lon="6.57014">
        <ele>294.7</ele>
        <time>2019-08-17T08:35:02Z</time>
      </trkpt>
      <trkpt lat="47.443" lon="6.57009">
        <ele>294.7</ele>
        <time>2019-08-17T08:35:03Z</time>
      </trkpt>
      <trkpt lat="47.44297" lon="6.57005">
        <ele>294.8</ele>
        <time>2019-08-17T08:35:04Z</time>
      </trkpt>
      <trkpt lat="47.44294" lon="6.57">
        <ele>294.8</ele>
        <time>2019-08-17T08:35:05Z</time>
      </trkpt>
      <trkpt lat="47.44291" lon="6.56995">
        <ele>294.8</ele>
        <time>2019-08-17T08:35:06Z</time>
      </trkpt>
      <trkpt lat="47.44288" lon="6.56991">
        <ele>294.8</ele>
        <time>2019-08-17T08:35:07Z</time>
      </trkpt>
      <trkpt lat="47.44285" lon="6.56986">
        <ele>294.8</ele>
        <time>2019-08-17T08:35:08Z</time>
      </trkpt>
      <trkpt lat="47.44283" lon="6.56981">
        <ele>294.7</ele>
        <time>2019-08-17T08:35:09Z</time>
      </trkpt>
      <trkpt lat="47.44281" lon="6.56976">
        <ele>294.6</ele>
        <time>2019-08-17T08:35:10Z</time>
      </trkpt>
      <trkpt lat="47.44279" lon="6.56971">
        <ele>294.5</ele>
        <time>2019-08-17T08:35:11Z</time>
      </trkpt>
      <trkpt lat="47.44277" lon="6.56966">
        <ele>294.4</ele>
        <time>2019-08-17T08:35:12Z</time>
      </trkpt>
      <trkpt lat="47.44275" lon="6.56961">
        <ele>294.2</ele>
        <time>2019-08-17T08:35:13Z</time>
      </trkpt>
      <trkpt lat="47.44272" lon="6.56955">
        <ele>294</ele>
        <time>2019-08-17T08:35:14Z</time>
      </trkpt>
      <trkpt lat="47.4427" lon="6.5695">
        <ele>293.8</ele>
        <time>2019-08-17T08:35:15Z</time>
      </trkpt>
      <trkpt lat="47.44267" lon="6.56945">
        <ele>293.6</ele>
        <time>2019-08-17T08:35:16Z</time>
      </trkpt>
      <trkpt lat="47.44265" lon="6.5694">
        <ele>293.5</ele>
        <time>2019-08-17T08:35:17Z</time>
      </trkpt>
      <trkpt lat="47.44262" lon="6.56935">
        <ele>293.4</ele>
        <time>2019-08-17T08:35:18Z</time>
      </trkpt>
      <trkpt lat="47.44259" lon="6.5693">
        <ele>293.2</ele>
        <time>2019-08-17T08:35:19Z</time>
      </trkpt>
      <trkpt lat="47.44256" lon="6.56922">
        <ele>293.1</ele>
        <time>2019-08-17T08:35:20Z</time>
      </trkpt>
      <trkpt lat="47.44253" lon="6.56916">
        <ele>293</ele>
        <time>2019-08-17T08:35:21Z</time>
      </trkpt>
      <trkpt lat="47.4425" lon="6.56909">
        <ele>292.9</ele>
        <time>2019-08-17T08:35:22Z</time>
      </trkpt>
      <trkpt lat="47.44248" lon="6.56903">
        <ele>292.8</ele>
        <time>2019-08-17T08:35:23Z</time>
      </trkpt>
      <trkpt lat="47.44245" lon="6.56895">
        <ele>292.7</ele>
        <time>2019-08-17T08:35:24Z</time>
      </trkpt>
      <trkpt lat="47.44242" lon="6.56889">
        <ele>292.5</ele>
        <time>2019-08-17T08:35:25Z</time>
      </trkpt>
      <trkpt lat="47.4424" lon="6.56882">
        <ele>292.4</ele>
        <time>2019-08-17T08:35:26Z</time>
      </trkpt>
      <trkpt lat="47.44237" lon="6.56874">
        <ele>292.3</ele>
        <time>2019-08-17T08:35:27Z</time>
      </trkpt>
      <trkpt lat="47.44235" lon="6.56866">
        <ele>292.1</ele>
        <time>2019-08-17T08:35:28Z</time>
      </trkpt>
      <trkpt lat="47.44233" lon="6.56858">
        <ele>291.9</ele>
        <time>2019-08-17T08:35:29Z</time>
      </trkpt>
      <trkpt lat="47.44231" lon="6.56851">
        <ele>291.7</ele>
        <time>2019-08-17T08:35:30Z</time>
      </trkpt>
      <trkpt lat="47.44229" lon="6.56845">
        <ele>291.4</ele>
        <time>2019-08-17T08:35:31Z</time>
      </trkpt>
      <trkpt lat="47.44227" lon="6.56838">
        <ele>291.1</ele>
        <time>2019-08-17T08:35:32Z</time>
      </trkpt>
      <trkpt lat="47.44225" lon="6.5683">
        <ele>290.7</ele>
        <time>2019-08-17T08:35:33Z</time>
      </trkpt>
      <trkpt lat="47.44224" lon="6.56823">
        <ele>290.3</ele>
        <time>2019-08-17T08:35:34Z</time>
      </trkpt>
      <trkpt lat="47.44224" lon="6.56817">
        <ele>290</ele>
        <time>2019-08-17T08:35:35Z</time>
      </trkpt>
      <trkpt lat="47.44225" lon="6.56811">
        <ele>289.7</ele>
        <time>2019-08-17T08:35:36Z</time>
      </trkpt>
      <trkpt lat="47.44225" lon="6.56805">
        <ele>289.4</ele>
        <time>2019-08-17T08:35:37Z</time>
      </trkpt>
      <trkpt lat="47.44224" lon="6.56799">
        <ele>289.1</ele>
        <time>2019-08-17T08:35:38Z</time>
      </trkpt>
      <trkpt lat="47.44224" lon="6.56792">
        <ele>288.8</ele>
        <time>2019-08-17T08:35:39Z</time>
      </trkpt>
      <trkpt lat="47.44223" lon="6.56783">
        <ele>288.5</ele>
        <time>2019-08-17T08:35:40Z</time>
      </trkpt>
      <trkpt lat="47.44223" lon="6.56776">
        <ele>288.3</ele>
        <time>2019-08-17T08:35:41Z</time>
      </trkpt>
      <trkpt lat="47.44222" lon="6.56768">
        <ele>288.2</ele>
        <time>2019-08-17T08:35:42Z</time>
      </trkpt>
      <trkpt lat="47.44221" lon="6.56761">
        <ele>288.1</ele>
        <time>2019-08-17T08:35:43Z</time>
      </trkpt>
      <trkpt lat="47.44221" lon="6.56754">
        <ele>288</ele>
        <time>2019-08-17T08:35:44Z</time>
      </trkpt>
      <trkpt lat="47.44222" lon="6.56748">
        <ele>288</ele>
        <time>2019-08-17T08:35:45Z</time>
      </trkpt>
      <trkpt lat="47.44222" lon="6.56743">
        <ele>287.9</ele>
        <time>2019-08-17T08:35:46Z</time>
      </trkpt>
      <trkpt lat="47.44223" lon="6.56738">
        <ele>287.9</ele>
        <time>2019-08-17T08:35:47Z</time>
      </trkpt>
      <trkpt lat="47.44222" lon="6.56732">
        <ele>287.9</ele>
        <time>2019-08-17T08:35:48Z</time>
      </trkpt>
      <trkpt lat="47.44221" lon="6.56725">
        <ele>287.8</ele>
        <time>2019-08-17T08:35:49Z</time>
      </trkpt>
      <trkpt lat="47.4422" lon="6.56718">
        <ele>287.8</ele>
        <time>2019-08-17T08:35:50Z</time>
      </trkpt>
      <trkpt lat="47.4422" lon="6.5671">
        <ele>287.8</ele>
        <time>2019-08-17T08:35:51Z</time>
      </trkpt>
      <trkpt lat="47.44219" lon="6.56702">
        <ele>287.8</ele>
        <time>2019-08-17T08:35:52Z</time>
      </trkpt>
      <trkpt lat="47.44219" lon="6.56695">
        <ele>287.8</ele>
        <time>2019-08-17T08:35:53Z</time>
      </trkpt>
      <trkpt lat="47.4422" lon="6.56687">
        <ele>287.8</ele>
        <time>2019-08-17T08:35:54Z</time>
      </trkpt>
      <trkpt lat="47.44221" lon="6.56681">
        <ele>287.8</ele>
        <time>2019-08-17T08:35:55Z</time>
      </trkpt>
      <trkpt lat="47.44222" lon="6.56675">
        <ele>287.8</ele>
        <time>2019-08-17T08:35:56Z</time>
      </trkpt>
      <trkpt lat="47.44222" lon="6.56667">
        <ele>287.9</ele>
        <time>2019-08-17T08:35:57Z</time>
      </trkpt>
      <trkpt lat="47.44223" lon="6.5666">
        <ele>287.9</ele>
        <time>2019-08-17T08:35:58Z</time>
      </trkpt>
      <trkpt lat="47.44223" lon="6.56652">
        <ele>288</ele>
        <time>2019-08-17T08:35:59Z</time>
      </trkpt>
      <trkpt lat="47.44224" lon="6.56644">
        <ele>288.1</ele>
        <time>2019-08-17T08:36:00Z</time>
      </trkpt>
      <trkpt lat="47.44224" lon="6.56634">
        <ele>288.3</ele>
        <time>2019-08-17T08:36:01Z</time>
      </trkpt>
      <trkpt lat="47.44224" lon="6.56626">
        <ele>288.4</ele>
        <time>2019-08-17T08:36:02Z</time>
      </trkpt>
      <trkpt lat="47.44225" lon="6.56618">
        <ele>288.5</ele>
        <time>2019-08-17T08:36:03Z</time>
      </trkpt>
      <trkpt lat="47.44225" lon="6.5661">
        <ele>288.6</ele>
        <time>2019-08-17T08:36:04Z</time>
      </trkpt>
      <trkpt lat="47.44225" lon="6.56603">
        <ele>288.7</ele>
        <time>2019-08-17T08:36:05Z</time>
      </trkpt>
      <trkpt lat="47.44225" lon="6.56596">
        <ele>288.7</ele>
        <time>2019-08-17T08:36:06Z</time>
      </trkpt>
      <trkpt lat="47.44226" lon="6.5659">
        <ele>288.8</ele>
        <time>2019-08-17T08:36:07Z</time>
      </trkpt>
      <trkpt lat="47.44225" lon="6.56583">
        <ele>288.8</ele>
        <time>2019-08-17T08:36:08Z</time>
      </trkpt>
      <trkpt lat="47.44226" lon="6.56577">
        <ele>288.7</ele>
        <time>2019-08-17T08:36:09Z</time>
      </trkpt>
      <trkpt lat="47.44226" lon="6.56571">
        <ele>288.7</ele>
        <time>2019-08-17T08:36:10Z</time>
      </trkpt>
      <trkpt lat="47.44226" lon="6.56565">
        <ele>288.7</ele>
        <time>2019-08-17T08:36:11Z</time>
      </trkpt>
      <trkpt lat="47.44226" lon="6.56559">
        <ele>288.7</ele>
        <time>2019-08-17T08:36:12Z</time>
      </trkpt>
      <trkpt lat="47.44225" lon="6.56553">
        <ele>288.7</ele>
        <time>2019-08-17T08:36:13Z</time>
      </trkpt>
      <trkpt lat="47.44225" lon="6.56547">
        <ele>288.7</ele>
        <time>2019-08-17T08:36:14Z</time>
      </trkpt>
      <trkpt lat="47.44225" lon="6.56541">
        <ele>288.7</ele>
        <time>2019-08-17T08:36:15Z</time>
      </trkpt>
      <trkpt lat="47.44224" lon="6.56535">
        <ele>288.6</ele>
        <time>2019-08-17T08:36:16Z</time>
      </trkpt>
      <trkpt lat="47.44224" lon="6.56528">
        <ele>288.6</ele>
        <time>2019-08-17T08:36:17Z</time>
      </trkpt>
      <trkpt lat="47.44223" lon="6.56521">
        <ele>288.6</ele>
        <time>2019-08-17T08:36:18Z</time>
      </trkpt>
      <trkpt lat="47.44222" lon="6.56514">
        <ele>288.6</ele>
        <time>2019-08-17T08:36:19Z</time>
      </trkpt>
      <trkpt lat="47.44221" lon="6.56506">
        <ele>288.5</ele>
        <time>2019-08-17T08:36:20Z</time>
      </trkpt>
      <trkpt lat="47.4422" lon="6.56499">
        <ele>288.5</ele>
        <time>2019-08-17T08:36:21Z</time>
      </trkpt>
      <trkpt lat="47.44219" lon="6.56491">
        <ele>288.5</ele>
        <time>2019-08-17T08:36:22Z</time>
      </trkpt>
      <trkpt lat="47.44219" lon="6.56485">
        <ele>288.4</ele>
        <time>2019-08-17T08:36:23Z</time>
      </trkpt>
      <trkpt lat="47.44219" lon="6.56478">
        <ele>288.4</ele>
        <time>2019-08-17T08:36:24Z</time>
      </trkpt>
      <trkpt lat="47.44219" lon="6.56471">
        <ele>288.4</ele>
        <time>2019-08-17T08:36:25Z</time>
      </trkpt>
      <trkpt lat="47.44219" lon="6.56464">
        <ele>288.3</ele>
        <time>2019-08-17T08:36:26Z</time>
      </trkpt>
      <trkpt lat="47.44219" lon="6.56456">
        <ele>288.3</ele>
        <time>2019-08-17T08:36:27Z</time>
      </trkpt>
      <trkpt lat="47.44219" lon="6.56448">
        <ele>288.3</ele>
        <time>2019-08-17T08:36:28Z</time>
      </trkpt>
      <trkpt lat="47.4422" lon="6.56441">
        <ele>288.2</ele>
        <time>2019-08-17T08:36:29Z</time>
      </trkpt>
      <trkpt lat="47.4422" lon="6.56433">
        <ele>288.2</ele>
        <time>2019-08-17T08:36:30Z</time>
      </trkpt>
      <trkpt lat="47.4422" lon="6.56425">
        <ele>288.2</ele>
        <time>2019-08-17T08:36:31Z</time>
      </trkpt>
      <trkpt lat="47.44219" lon="6.56417">
        <ele>288.1</ele>
        <time>2019-08-17T08:36:32Z</time>
      </trkpt>
      <trkpt lat="47.44219" lon="6.5641">
        <ele>288.1</ele>
        <time>2019-08-17T08:36:33Z</time>
      </trkpt>
      <trkpt lat="47.44219" lon="6.56403">
        <ele>288.1</ele>
        <time>2019-08-17T08:36:34Z</time>
      </trkpt>
      <trkpt lat="47.44219" lon="6.56397">
        <ele>288.1</ele>
        <time>2019-08-17T08:36:35Z</time>
      </trkpt>
      <trkpt lat="47.4422" lon="6.56389">
        <ele>288.1</ele>
        <time>2019-08-17T08:36:36Z</time>
      </trkpt>
      <trkpt lat="47.4422" lon="6.56383">
        <ele>288.1</ele>
        <time>2019-08-17T08:36:37Z</time>
      </trkpt>
      <trkpt lat="47.44221" lon="6.56377">
        <ele>288.1</ele>
        <time>2019-08-17T08:36:38Z</time>
      </trkpt>
      <trkpt lat="47.44221" lon="6.56371">
        <ele>288.1</ele>
        <time>2019-08-17T08:36:39Z</time>
      </trkpt>
      <trkpt lat="47.44221" lon="6.56366">
        <ele>288.1</ele>
        <time>2019-08-17T08:36:40Z</time>
      </trkpt>
      <trkpt lat="47.44221" lon="6.56359">
        <ele>288.1</ele>
        <time>2019-08-17T08:36:41Z</time>
      </trkpt>
      <trkpt lat="47.44221" lon="6.56352">
        <ele>288.1</ele>
        <time>2019-08-17T08:36:42Z</time>
      </trkpt>
      <trkpt lat="47.44221" lon="6.56346">
        <ele>288.1</ele>
        <time>2019-08-17T08:36:43Z</time>
      </trkpt>
      <trkpt lat="47.44221" lon="6.56339">
        <ele>288.1</ele>
        <time>2019-08-17T08:36:44Z</time>
      </trkpt>
      <trkpt lat="47.44222" lon="6.56332">
        <ele>288.1</ele>
        <time>2019-08-17T08:36:45Z</time>
      </trkpt>
      <trkpt lat="47.44222" lon="6.56325">
        <ele>288.1</ele>
        <time>2019-08-17T08:36:46Z</time>
      </trkpt>
      <trkpt lat="47.44222" lon="6.56317">
        <ele>288.1</ele>
        <time>2019-08-17T08:36:47Z</time>
      </trkpt>
      <trkpt lat="47.44223" lon="6.56311">
        <ele>288.1</ele>
        <time>2019-08-17T08:36:48Z</time>
      </trkpt>
      <trkpt lat="47.44225" lon="6.56305">
        <ele>288.1</ele>
        <time>2019-08-17T08:36:49Z</time>
      </trkpt>
      <trkpt lat="47.44228" lon="6.56302">
        <ele>288.1</ele>
        <time>2019-08-17T08:36:50Z</time>
      </trkpt>
      <trkpt lat="47.44233" lon="6.56302">
        <ele>288</ele>
        <time>2019-08-17T08:36:51Z</time>
      </trkpt>
      <trkpt lat="47.44239" lon="6.56301">
        <ele>288.1</ele>
        <time>2019-08-17T08:36:52Z</time>
      </trkpt>
      <trkpt lat="47.44244" lon="6.56301">
        <ele>288.2</ele>
        <time>2019-08-17T08:36:53Z</time>
      </trkpt>
      <trkpt lat="47.4425" lon="6.56302">
        <ele>288.2</ele>
        <time>2019-08-17T08:36:54Z</time>
      </trkpt>
      <trkpt lat="47.44255" lon="6.56304">
        <ele>288.3</ele>
        <time>2019-08-17T08:36:55Z</time>
      </trkpt>
      <trkpt lat="47.44262" lon="6.56306">
        <ele>288.4</ele>
        <time>2019-08-17T08:36:56Z</time>
      </trkpt>
      <trkpt lat="47.44267" lon="6.56309">
        <ele>288.6</ele>
        <time>2019-08-17T08:36:57Z</time>
      </trkpt>
      <trkpt lat="47.44273" lon="6.5631">
        <ele>288.7</ele>
        <time>2019-08-17T08:36:58Z</time>
      </trkpt>
      <trkpt lat="47.44278" lon="6.56313">
        <ele>288.9</ele>
        <time>2019-08-17T08:36:59Z</time>
      </trkpt>
      <trkpt lat="47.44283" lon="6.56313">
        <ele>289</ele>
        <time>2019-08-17T08:37:00Z</time>
      </trkpt>
      <trkpt lat="47.44288" lon="6.56314">
        <ele>289.3</ele>
        <time>2019-08-17T08:37:01Z</time>
      </trkpt>
      <trkpt lat="47.44294" lon="6.56315">
        <ele>289.5</ele>
        <time>2019-08-17T08:37:02Z</time>
      </trkpt>
      <trkpt lat="47.44299" lon="6.56315">
        <ele>289.8</ele>
        <time>2019-08-17T08:37:03Z</time>
      </trkpt>
      <trkpt lat="47.44303" lon="6.56315">
        <ele>290</ele>
        <time>2019-08-17T08:37:04Z</time>
      </trkpt>
      <trkpt lat="47.44308" lon="6.56315">
        <ele>290.2</ele>
        <time>2019-08-17T08:37:05Z</time>
      </trkpt>
      <trkpt lat="47.44313" lon="6.56314">
        <ele>290.4</ele>
        <time>2019-08-17T08:37:06Z</time>
      </trkpt>
      <trkpt lat="47.44318" lon="6.56313">
        <ele>290.6</ele>
        <time>2019-08-17T08:37:07Z</time>
      </trkpt>
      <trkpt lat="47.44323" lon="6.56312">
        <ele>290.8</ele>
        <time>2019-08-17T08:37:08Z</time>
      </trkpt>
      <trkpt lat="47.44326" lon="6.56311">
        <ele>290.9</ele>
        <time>2019-08-17T08:37:09Z</time>
      </trkpt>
      <trkpt lat="47.44331" lon="6.56308">
        <ele>291.1</ele>
        <time>2019-08-17T08:37:10Z</time>
      </trkpt>
      <trkpt lat="47.44336" lon="6.56306">
        <ele>291.2</ele>
        <time>2019-08-17T08:37:11Z</time>
      </trkpt>
      <trkpt lat="47.44341" lon="6.56304">
        <ele>291.3</ele>
        <time>2019-08-17T08:37:12Z</time>
      </trkpt>
      <trkpt lat="47.44346" lon="6.56301">
        <ele>291.4</ele>
        <time>2019-08-17T08:37:13Z</time>
      </trkpt>
      <trkpt lat="47.44351" lon="6.56298">
        <ele>291.6</ele>
        <time>2019-08-17T08:37:14Z</time>
      </trkpt>
      <trkpt lat="47.44356" lon="6.56296">
        <ele>291.7</ele>
        <time>2019-08-17T08:37:15Z</time>
      </trkpt>
      <trkpt lat="47.44361" lon="6.56292">
        <ele>291.9</ele>
        <time>2019-08-17T08:37:16Z</time>
      </trkpt>
      <trkpt lat="47.44365" lon="6.56286">
        <ele>292.2</ele>
        <time>2019-08-17T08:37:17Z</time>
      </trkpt>
      <trkpt lat="47.44367" lon="6.56278">
        <ele>292.4</ele>
        <time>2019-08-17T08:37:18Z</time>
      </trkpt>
      <trkpt lat="47.4437" lon="6.5627">
        <ele>292.7</ele>
        <time>2019-08-17T08:37:19Z</time>
      </trkpt>
      <trkpt lat="47.44372" lon="6.56264">
        <ele>292.9</ele>
        <time>2019-08-17T08:37:20Z</time>
      </trkpt>
      <trkpt lat="47.44373" lon="6.56258">
        <ele>293.1</ele>
        <time>2019-08-17T08:37:21Z</time>
      </trkpt>
      <trkpt lat="47.44374" lon="6.56251">
        <ele>293.4</ele>
        <time>2019-08-17T08:37:22Z</time>
      </trkpt>
      <trkpt lat="47.44374" lon="6.56242">
        <ele>293.7</ele>
        <time>2019-08-17T08:37:23Z</time>
      </trkpt>
      <trkpt lat="47.44375" lon="6.56235">
        <ele>293.9</ele>
        <time>2019-08-17T08:37:24Z</time>
      </trkpt>
      <trkpt lat="47.44375" lon="6.56229">
        <ele>294.1</ele>
        <time>2019-08-17T08:37:25Z</time>
      </trkpt>
      <trkpt lat="47.44376" lon="6.56222">
        <ele>294.2</ele>
        <time>2019-08-17T08:37:26Z</time>
      </trkpt>
      <trkpt lat="47.44376" lon="6.56216">
        <ele>294.4</ele>
        <time>2019-08-17T08:37:27Z</time>
      </trkpt>
      <trkpt lat="47.44376" lon="6.5621">
        <ele>294.6</ele>
        <time>2019-08-17T08:37:28Z</time>
      </trkpt>
      <trkpt lat="47.44377" lon="6.56203">
        <ele>294.7</ele>
        <time>2019-08-17T08:37:29Z</time>
      </trkpt>
      <trkpt lat="47.44378" lon="6.56195">
        <ele>294.9</ele>
        <time>2019-08-17T08:37:30Z</time>
      </trkpt>
      <trkpt lat="47.44378" lon="6.56187">
        <ele>295</ele>
        <time>2019-08-17T08:37:31Z</time>
      </trkpt>
      <trkpt lat="47.44378" lon="6.56179">
        <ele>295.1</ele>
        <time>2019-08-17T08:37:32Z</time>
      </trkpt>
      <trkpt lat="47.44377" lon="6.56171">
        <ele>295.2</ele>
        <time>2019-08-17T08:37:33Z</time>
      </trkpt>
      <trkpt lat="47.44377" lon="6.56164">
        <ele>295.3</ele>
        <time>2019-08-17T08:37:34Z</time>
      </trkpt>
      <trkpt lat="47.44377" lon="6.56157">
        <ele>295.3</ele>
        <time>2019-08-17T08:37:35Z</time>
      </trkpt>
      <trkpt lat="47.44377" lon="6.5615">
        <ele>295.4</ele>
        <time>2019-08-17T08:37:36Z</time>
      </trkpt>
      <trkpt lat="47.44377" lon="6.56143">
        <ele>295.4</ele>
        <time>2019-08-17T08:37:37Z</time>
      </trkpt>
      <trkpt lat="47.44376" lon="6.56136">
        <ele>295.5</ele>
        <time>2019-08-17T08:37:38Z</time>
      </trkpt>
      <trkpt lat="47.44376" lon="6.56129">
        <ele>295.5</ele>
        <time>2019-08-17T08:37:39Z</time>
      </trkpt>
      <trkpt lat="47.44377" lon="6.56122">
        <ele>295.1</ele>
        <time>2019-08-17T08:37:40Z</time>
      </trkpt>
      <trkpt lat="47.44376" lon="6.56115">
        <ele>294.8</ele>
        <time>2019-08-17T08:37:41Z</time>
      </trkpt>
      <trkpt lat="47.44376" lon="6.56107">
        <ele>294.5</ele>
        <time>2019-08-17T08:37:42Z</time>
      </trkpt>
      <trkpt lat="47.44374" lon="6.561">
        <ele>294.2</ele>
        <time>2019-08-17T08:37:43Z</time>
      </trkpt>
      <trkpt lat="47.44373" lon="6.56093">
        <ele>294</ele>
        <time>2019-08-17T08:37:44Z</time>
      </trkpt>
      <trkpt lat="47.44372" lon="6.56086">
        <ele>293.7</ele>
        <time>2019-08-17T08:37:45Z</time>
      </trkpt>
      <trkpt lat="47.44371" lon="6.56079">
        <ele>293.5</ele>
        <time>2019-08-17T08:37:46Z</time>
      </trkpt>
      <trkpt lat="47.44371" lon="6.56073">
        <ele>293.3</ele>
        <time>2019-08-17T08:37:47Z</time>
      </trkpt>
      <trkpt lat="47.4437" lon="6.56067">
        <ele>293.2</ele>
        <time>2019-08-17T08:37:48Z</time>
      </trkpt>
      <trkpt lat="47.44369" lon="6.5606">
        <ele>293</ele>
        <time>2019-08-17T08:37:49Z</time>
      </trkpt>
      <trkpt lat="47.44369" lon="6.56054">
        <ele>292.8</ele>
        <time>2019-08-17T08:37:50Z</time>
      </trkpt>
      <trkpt lat="47.44368" lon="6.56047">
        <ele>292.6</ele>
        <time>2019-08-17T08:37:51Z</time>
      </trkpt>
      <trkpt lat="47.44367" lon="6.56039">
        <ele>292.4</ele>
        <time>2019-08-17T08:37:52Z</time>
      </trkpt>
      <trkpt lat="47.44367" lon="6.56031">
        <ele>292.1</ele>
        <time>2019-08-17T08:37:53Z</time>
      </trkpt>
      <trkpt lat="47.44366" lon="6.56026">
        <ele>292</ele>
        <time>2019-08-17T08:37:54Z</time>
      </trkpt>
      <trkpt lat="47.44366" lon="6.5602">
        <ele>291.8</ele>
        <time>2019-08-17T08:37:55Z</time>
      </trkpt>
      <trkpt lat="47.44365" lon="6.56016">
        <ele>291.6</ele>
        <time>2019-08-17T08:37:56Z</time>
      </trkpt>
      <trkpt lat="47.44363" lon="6.5601">
        <ele>291.3</ele>
        <time>2019-08-17T08:37:58Z</time>
      </trkpt>
      <trkpt lat="47.44362" lon="6.56004">
        <ele>291.2</ele>
        <time>2019-08-17T08:38:00Z</time>
      </trkpt>
      <trkpt lat="47.44361" lon="6.55998">
        <ele>291</ele>
        <time>2019-08-17T08:38:02Z</time>
      </trkpt>
      <trkpt lat="47.44359" lon="6.56">
        <ele>290.9</ele>
        <time>2019-08-17T08:38:08Z</time>
      </trkpt>
      <trkpt lat="47.44355" lon="6.55998">
        <ele>290.7</ele>
        <time>2019-08-17T08:38:18Z</time>
      </trkpt>
      <trkpt lat="47.44353" lon="6.56001">
        <ele>290.5</ele>
        <time>2019-08-17T08:38:21Z</time>
      </trkpt>
      <trkpt lat="47.44352" lon="6.56008">
        <ele>290.4</ele>
        <time>2019-08-17T08:38:23Z</time>
      </trkpt>
      <trkpt lat="47.4435" lon="6.56015">
        <ele>290.2</ele>
        <time>2019-08-17T08:38:25Z</time>
      </trkpt>
      <trkpt lat="47.44347" lon="6.56018">
        <ele>290.1</ele>
        <time>2019-08-17T08:38:27Z</time>
      </trkpt>
      <trkpt lat="47.44344" lon="6.56017">
        <ele>290.1</ele>
        <time>2019-08-17T08:38:29Z</time>
      </trkpt>
      <trkpt lat="47.44342" lon="6.56012">
        <ele>290</ele>
        <time>2019-08-17T08:38:31Z</time>
      </trkpt>
      <trkpt lat="47.44339" lon="6.56005">
        <ele>289.9</ele>
        <time>2019-08-17T08:38:33Z</time>
      </trkpt>
      <trkpt lat="47.44336" lon="6.55999">
        <ele>289.8</ele>
        <time>2019-08-17T08:38:35Z</time>
      </trkpt>
      <trkpt lat="47.44334" lon="6.55995">
        <ele>289.8</ele>
        <time>2019-08-17T08:38:36Z</time>
      </trkpt>
      <trkpt lat="47.44331" lon="6.55991">
        <ele>289.7</ele>
        <time>2019-08-17T08:38:37Z</time>
      </trkpt>
      <trkpt lat="47.44329" lon="6.55987">
        <ele>289.7</ele>
        <time>2019-08-17T08:38:38Z</time>
      </trkpt>
      <trkpt lat="47.44326" lon="6.55982">
        <ele>289.6</ele>
        <time>2019-08-17T08:38:39Z</time>
      </trkpt>
      <trkpt lat="47.44324" lon="6.55977">
        <ele>289.6</ele>
        <time>2019-08-17T08:38:40Z</time>
      </trkpt>
      <trkpt lat="47.44322" lon="6.55973">
        <ele>289.6</ele>
        <time>2019-08-17T08:38:41Z</time>
      </trkpt>
      <trkpt lat="47.44319" lon="6.55968">
        <ele>289.5</ele>
        <time>2019-08-17T08:38:42Z</time>
      </trkpt>
      <trkpt lat="47.44317" lon="6.55963">
        <ele>289.5</ele>
        <time>2019-08-17T08:38:43Z</time>
      </trkpt>
      <trkpt lat="47.44314" lon="6.5596">
        <ele>289.4</ele>
        <time>2019-08-17T08:38:44Z</time>
      </trkpt>
      <trkpt lat="47.44311" lon="6.55956">
        <ele>289.4</ele>
        <time>2019-08-17T08:38:45Z</time>
      </trkpt>
      <trkpt lat="47.44308" lon="6.55951">
        <ele>289.3</ele>
        <time>2019-08-17T08:38:46Z</time>
      </trkpt>
      <trkpt lat="47.44305" lon="6.55946">
        <ele>289.2</ele>
        <time>2019-08-17T08:38:47Z</time>
      </trkpt>
      <trkpt lat="47.44302" lon="6.5594">
        <ele>289.1</ele>
        <time>2019-08-17T08:38:48Z</time>
      </trkpt>
      <trkpt lat="47.44299" lon="6.55935">
        <ele>288.9</ele>
        <time>2019-08-17T08:38:49Z</time>
      </trkpt>
      <trkpt lat="47.44296" lon="6.55929">
        <ele>288.7</ele>
        <time>2019-08-17T08:38:50Z</time>
      </trkpt>
      <trkpt lat="47.44294" lon="6.55924">
        <ele>288.4</ele>
        <time>2019-08-17T08:38:51Z</time>
      </trkpt>
      <trkpt lat="47.44291" lon="6.55919">
        <ele>288.1</ele>
        <time>2019-08-17T08:38:52Z</time>
      </trkpt>
      <trkpt lat="47.44288" lon="6.55913">
        <ele>287.8</ele>
        <time>2019-08-17T08:38:53Z</time>
      </trkpt>
      <trkpt lat="47.44286" lon="6.55908">
        <ele>287.5</ele>
        <time>2019-08-17T08:38:54Z</time>
      </trkpt>
      <trkpt lat="47.44283" lon="6.55902">
        <ele>286.9</ele>
        <time>2019-08-17T08:38:55Z</time>
      </trkpt>
      <trkpt lat="47.44281" lon="6.55896">
        <ele>286.9</ele>
        <time>2019-08-17T08:38:56Z</time>
      </trkpt>
      <trkpt lat="47.44278" lon="6.5589">
        <ele>286.8</ele>
        <time>2019-08-17T08:38:57Z</time>
      </trkpt>
      <trkpt lat="47.44276" lon="6.55885">
        <ele>286.8</ele>
        <time>2019-08-17T08:38:58Z</time>
      </trkpt>
      <trkpt lat="47.44273" lon="6.55879">
        <ele>286.7</ele>
        <time>2019-08-17T08:38:59Z</time>
      </trkpt>
      <trkpt lat="47.4427" lon="6.55873">
        <ele>286.7</ele>
        <time>2019-08-17T08:39:00Z</time>
      </trkpt>
      <trkpt lat="47.44267" lon="6.55868">
        <ele>286.6</ele>
        <time>2019-08-17T08:39:01Z</time>
      </trkpt>
      <trkpt lat="47.44264" lon="6.55863">
        <ele>286.6</ele>
        <time>2019-08-17T08:39:02Z</time>
      </trkpt>
      <trkpt lat="47.44261" lon="6.55855">
        <ele>286.5</ele>
        <time>2019-08-17T08:39:03Z</time>
      </trkpt>
      <trkpt lat="47.44258" lon="6.55849">
        <ele>286.5</ele>
        <time>2019-08-17T08:39:04Z</time>
      </trkpt>
      <trkpt lat="47.44256" lon="6.55844">
        <ele>286.4</ele>
        <time>2019-08-17T08:39:05Z</time>
      </trkpt>
      <trkpt lat="47.44254" lon="6.5584">
        <ele>286.4</ele>
        <time>2019-08-17T08:39:06Z</time>
      </trkpt>
      <trkpt lat="47.44252" lon="6.55835">
        <ele>286.4</ele>
        <time>2019-08-17T08:39:07Z</time>
      </trkpt>
      <trkpt lat="47.44249" lon="6.5583">
        <ele>286.3</ele>
        <time>2019-08-17T08:39:08Z</time>
      </trkpt>
      <trkpt lat="47.44247" lon="6.55824">
        <ele>286.3</ele>
        <time>2019-08-17T08:39:09Z</time>
      </trkpt>
      <trkpt lat="47.44244" lon="6.55819">
        <ele>286.3</ele>
        <time>2019-08-17T08:39:10Z</time>
      </trkpt>
      <trkpt lat="47.44242" lon="6.55813">
        <ele>286.2</ele>
        <time>2019-08-17T08:39:11Z</time>
      </trkpt>
      <trkpt lat="47.4424" lon="6.55808">
        <ele>286.2</ele>
        <time>2019-08-17T08:39:12Z</time>
      </trkpt>
      <trkpt lat="47.44238" lon="6.55802">
        <ele>286.1</ele>
        <time>2019-08-17T08:39:13Z</time>
      </trkpt>
      <trkpt lat="47.44236" lon="6.55797">
        <ele>286.1</ele>
        <time>2019-08-17T08:39:14Z</time>
      </trkpt>
      <trkpt lat="47.44234" lon="6.55791">
        <ele>286</ele>
        <time>2019-08-17T08:39:15Z</time>
      </trkpt>
      <trkpt lat="47.44232" lon="6.55785">
        <ele>286</ele>
        <time>2019-08-17T08:39:16Z</time>
      </trkpt>
      <trkpt lat="47.44231" lon="6.55778">
        <ele>286</ele>
        <time>2019-08-17T08:39:17Z</time>
      </trkpt>
      <trkpt lat="47.44231" lon="6.55771">
        <ele>285.9</ele>
        <time>2019-08-17T08:39:18Z</time>
      </trkpt>
      <trkpt lat="47.4423" lon="6.55764">
        <ele>285.9</ele>
        <time>2019-08-17T08:39:19Z</time>
      </trkpt>
      <trkpt lat="47.44229" lon="6.55756">
        <ele>285.8</ele>
        <time>2019-08-17T08:39:20Z</time>
      </trkpt>
      <trkpt lat="47.44227" lon="6.55747">
        <ele>285.8</ele>
        <time>2019-08-17T08:39:21Z</time>
      </trkpt>
      <trkpt lat="47.44226" lon="6.55739">
        <ele>285.7</ele>
        <time>2019-08-17T08:39:22Z</time>
      </trkpt>
      <trkpt lat="47.44226" lon="6.55732">
        <ele>285.7</ele>
        <time>2019-08-17T08:39:23Z</time>
      </trkpt>
      <trkpt lat="47.44225" lon="6.55724">
        <ele>285.6</ele>
        <time>2019-08-17T08:39:24Z</time>
      </trkpt>
      <trkpt lat="47.44224" lon="6.55716">
        <ele>285.6</ele>
        <time>2019-08-17T08:39:25Z</time>
      </trkpt>
      <trkpt lat="47.44224" lon="6.55709">
        <ele>285.5</ele>
        <time>2019-08-17T08:39:26Z</time>
      </trkpt>
      <trkpt lat="47.44223" lon="6.55703">
        <ele>285.5</ele>
        <time>2019-08-17T08:39:27Z</time>
      </trkpt>
      <trkpt lat="47.44222" lon="6.55697">
        <ele>285.4</ele>
        <time>2019-08-17T08:39:28Z</time>
      </trkpt>
      <trkpt lat="47.44221" lon="6.5569">
        <ele>285.4</ele>
        <time>2019-08-17T08:39:29Z</time>
      </trkpt>
      <trkpt lat="47.4422" lon="6.55684">
        <ele>285.3</ele>
        <time>2019-08-17T08:39:30Z</time>
      </trkpt>
      <trkpt lat="47.44219" lon="6.55677">
        <ele>285.2</ele>
        <time>2019-08-17T08:39:31Z</time>
      </trkpt>
      <trkpt lat="47.44218" lon="6.5567">
        <ele>285.1</ele>
        <time>2019-08-17T08:39:32Z</time>
      </trkpt>
      <trkpt lat="47.44217" lon="6.55662">
        <ele>284.9</ele>
        <time>2019-08-17T08:39:33Z</time>
      </trkpt>
      <trkpt lat="47.44215" lon="6.55655">
        <ele>284.8</ele>
        <time>2019-08-17T08:39:34Z</time>
      </trkpt>
      <trkpt lat="47.44213" lon="6.55647">
        <ele>284.6</ele>
        <time>2019-08-17T08:39:35Z</time>
      </trkpt>
      <trkpt lat="47.44212" lon="6.5564">
        <ele>284.3</ele>
        <time>2019-08-17T08:39:36Z</time>
      </trkpt>
      <trkpt lat="47.44211" lon="6.55631">
        <ele>284</ele>
        <time>2019-08-17T08:39:37Z</time>
      </trkpt>
      <trkpt lat="47.44211" lon="6.55623">
        <ele>283.7</ele>
        <time>2019-08-17T08:39:38Z</time>
      </trkpt>
      <trkpt lat="47.4421" lon="6.55615">
        <ele>283.5</ele>
        <time>2019-08-17T08:39:39Z</time>
      </trkpt>
      <trkpt lat="47.44209" lon="6.55607">
        <ele>283.2</ele>
        <time>2019-08-17T08:39:40Z</time>
      </trkpt>
      <trkpt lat="47.44208" lon="6.556">
        <ele>283</ele>
        <time>2019-08-17T08:39:41Z</time>
      </trkpt>
      <trkpt lat="47.44206" lon="6.55592">
        <ele>282.8</ele>
        <time>2019-08-17T08:39:42Z</time>
      </trkpt>
      <trkpt lat="47.44204" lon="6.55585">
        <ele>282.7</ele>
        <time>2019-08-17T08:39:43Z</time>
      </trkpt>
      <trkpt lat="47.44203" lon="6.55577">
        <ele>282.6</ele>
        <time>2019-08-17T08:39:44Z</time>
      </trkpt>
      <trkpt lat="47.44203" lon="6.5557">
        <ele>282.5</ele>
        <time>2019-08-17T08:39:45Z</time>
      </trkpt>
      <trkpt lat="47.44203" lon="6.55562">
        <ele>282.4</ele>
        <time>2019-08-17T08:39:46Z</time>
      </trkpt>
      <trkpt lat="47.44202" lon="6.55555">
        <ele>282.3</ele>
        <time>2019-08-17T08:39:47Z</time>
      </trkpt>
      <trkpt lat="47.44202" lon="6.55548">
        <ele>282.3</ele>
        <time>2019-08-17T08:39:48Z</time>
      </trkpt>
      <trkpt lat="47.44201" lon="6.55541">
        <ele>282.2</ele>
        <time>2019-08-17T08:39:49Z</time>
      </trkpt>
      <trkpt lat="47.442" lon="6.55534">
        <ele>282.2</ele>
        <time>2019-08-17T08:39:50Z</time>
      </trkpt>
      <trkpt lat="47.442" lon="6.55527">
        <ele>282.1</ele>
        <time>2019-08-17T08:39:51Z</time>
      </trkpt>
      <trkpt lat="47.44199" lon="6.5552">
        <ele>282.1</ele>
        <time>2019-08-17T08:39:52Z</time>
      </trkpt>
      <trkpt lat="47.44198" lon="6.55513">
        <ele>282</ele>
        <time>2019-08-17T08:39:53Z</time>
      </trkpt>
      <trkpt lat="47.44197" lon="6.55507">
        <ele>282</ele>
        <time>2019-08-17T08:39:54Z</time>
      </trkpt>
      <trkpt lat="47.44196" lon="6.55501">
        <ele>282</ele>
        <time>2019-08-17T08:39:55Z</time>
      </trkpt>
      <trkpt lat="47.44194" lon="6.55495">
        <ele>281.9</ele>
        <time>2019-08-17T08:39:56Z</time>
      </trkpt>
      <trkpt lat="47.44193" lon="6.55489">
        <ele>281.9</ele>
        <time>2019-08-17T08:39:57Z</time>
      </trkpt>
      <trkpt lat="47.44192" lon="6.55482">
        <ele>281.8</ele>
        <time>2019-08-17T08:39:58Z</time>
      </trkpt>
      <trkpt lat="47.4419" lon="6.55476">
        <ele>281.8</ele>
        <time>2019-08-17T08:39:59Z</time>
      </trkpt>
      <trkpt lat="47.44189" lon="6.55469">
        <ele>281.8</ele>
        <time>2019-08-17T08:40:00Z</time>
      </trkpt>
      <trkpt lat="47.44188" lon="6.55463">
        <ele>281.8</ele>
        <time>2019-08-17T08:40:01Z</time>
      </trkpt>
      <trkpt lat="47.44187" lon="6.55457">
        <ele>281.8</ele>
        <time>2019-08-17T08:40:02Z</time>
      </trkpt>
      <trkpt lat="47.44187" lon="6.55452">
        <ele>281.8</ele>
        <time>2019-08-17T08:40:03Z</time>
      </trkpt>
      <trkpt lat="47.44186" lon="6.55447">
        <ele>281.8</ele>
        <time>2019-08-17T08:40:04Z</time>
      </trkpt>
      <trkpt lat="47.44186" lon="6.55441">
        <ele>281.8</ele>
        <time>2019-08-17T08:40:05Z</time>
      </trkpt>
      <trkpt lat="47.44187" lon="6.55435">
        <ele>281.6</ele>
        <time>2019-08-17T08:40:06Z</time>
      </trkpt>
      <trkpt lat="47.44188" lon="6.55428">
        <ele>281.7</ele>
        <time>2019-08-17T08:40:07Z</time>
      </trkpt>
      <trkpt lat="47.44189" lon="6.55422">
        <ele>281.6</ele>
        <time>2019-08-17T08:40:08Z</time>
      </trkpt>
      <trkpt lat="47.4419" lon="6.55417">
        <ele>281.5</ele>
        <time>2019-08-17T08:40:09Z</time>
      </trkpt>
      <trkpt lat="47.44192" lon="6.55413">
        <ele>281.6</ele>
        <time>2019-08-17T08:40:10Z</time>
      </trkpt>
      <trkpt lat="47.44193" lon="6.55408">
        <ele>281.5</ele>
        <time>2019-08-17T08:40:11Z</time>
      </trkpt>
      <trkpt lat="47.44194" lon="6.55403">
        <ele>281.7</ele>
        <time>2019-08-17T08:40:12Z</time>
      </trkpt>
      <trkpt lat="47.44195" lon="6.55397">
        <ele>281.6</ele>
        <time>2019-08-17T08:40:13Z</time>
      </trkpt>
      <trkpt lat="47.44195" lon="6.55391">
        <ele>281.5</ele>
        <time>2019-08-17T08:40:14Z</time>
      </trkpt>
      <trkpt lat="47.44196" lon="6.55385">
        <ele>281.4</ele>
        <time>2019-08-17T08:40:15Z</time>
      </trkpt>
      <trkpt lat="47.44197" lon="6.55378">
        <ele>281.6</ele>
        <time>2019-08-17T08:40:16Z</time>
      </trkpt>
      <trkpt lat="47.44197" lon="6.55371">
        <ele>281.5</ele>
        <time>2019-08-17T08:40:17Z</time>
      </trkpt>
      <trkpt lat="47.44198" lon="6.55364">
        <ele>281.5</ele>
        <time>2019-08-17T08:40:18Z</time>
      </trkpt>
      <trkpt lat="47.44199" lon="6.55357">
        <ele>281.5</ele>
        <time>2019-08-17T08:40:19Z</time>
      </trkpt>
      <trkpt lat="47.44201" lon="6.5535">
        <ele>281.5</ele>
        <time>2019-08-17T08:40:20Z</time>
      </trkpt>
      <trkpt lat="47.44202" lon="6.55344">
        <ele>281.5</ele>
        <time>2019-08-17T08:40:21Z</time>
      </trkpt>
      <trkpt lat="47.44203" lon="6.55337">
        <ele>281.5</ele>
        <time>2019-08-17T08:40:22Z</time>
      </trkpt>
      <trkpt lat="47.44203" lon="6.5533">
        <ele>281.4</ele>
        <time>2019-08-17T08:40:23Z</time>
      </trkpt>
      <trkpt lat="47.44204" lon="6.55322">
        <ele>281.4</ele>
        <time>2019-08-17T08:40:24Z</time>
      </trkpt>
      <trkpt lat="47.44205" lon="6.55315">
        <ele>281.4</ele>
        <time>2019-08-17T08:40:25Z</time>
      </trkpt>
      <trkpt lat="47.44206" lon="6.55308">
        <ele>281.4</ele>
        <time>2019-08-17T08:40:26Z</time>
      </trkpt>
      <trkpt lat="47.44207" lon="6.553">
        <ele>281.3</ele>
        <time>2019-08-17T08:40:27Z</time>
      </trkpt>
      <trkpt lat="47.44207" lon="6.55293">
        <ele>281.3</ele>
        <time>2019-08-17T08:40:28Z</time>
      </trkpt>
      <trkpt lat="47.44208" lon="6.55285">
        <ele>281.3</ele>
        <time>2019-08-17T08:40:29Z</time>
      </trkpt>
      <trkpt lat="47.44209" lon="6.55277">
        <ele>281.3</ele>
        <time>2019-08-17T08:40:30Z</time>
      </trkpt>
      <trkpt lat="47.44209" lon="6.5527">
        <ele>281.2</ele>
        <time>2019-08-17T08:40:31Z</time>
      </trkpt>
      <trkpt lat="47.44209" lon="6.55263">
        <ele>281.2</ele>
        <time>2019-08-17T08:40:32Z</time>
      </trkpt>
      <trkpt lat="47.44209" lon="6.55256">
        <ele>281.2</ele>
        <time>2019-08-17T08:40:33Z</time>
      </trkpt>
      <trkpt lat="47.44209" lon="6.55249">
        <ele>281.2</ele>
        <time>2019-08-17T08:40:34Z</time>
      </trkpt>
      <trkpt lat="47.44208" lon="6.55241">
        <ele>281.2</ele>
        <time>2019-08-17T08:40:35Z</time>
      </trkpt>
      <trkpt lat="47.44208" lon="6.55234">
        <ele>281.2</ele>
        <time>2019-08-17T08:40:36Z</time>
      </trkpt>
      <trkpt lat="47.44208" lon="6.55227">
        <ele>281.1</ele>
        <time>2019-08-17T08:40:37Z</time>
      </trkpt>
      <trkpt lat="47.44209" lon="6.5522">
        <ele>281.1</ele>
        <time>2019-08-17T08:40:38Z</time>
      </trkpt>
      <trkpt lat="47.44209" lon="6.55214">
        <ele>281.1</ele>
        <time>2019-08-17T08:40:39Z</time>
      </trkpt>
      <trkpt lat="47.44209" lon="6.55207">
        <ele>281.1</ele>
        <time>2019-08-17T08:40:40Z</time>
      </trkpt>
      <trkpt lat="47.44209" lon="6.55199">
        <ele>281.1</ele>
        <time>2019-08-17T08:40:41Z</time>
      </trkpt>
      <trkpt lat="47.44209" lon="6.55191">
        <ele>281.1</ele>
        <time>2019-08-17T08:40:42Z</time>
      </trkpt>
      <trkpt lat="47.44209" lon="6.55184">
        <ele>281.1</ele>
        <time>2019-08-17T08:40:43Z</time>
      </trkpt>
      <trkpt lat="47.44209" lon="6.55178">
        <ele>281.1</ele>
        <time>2019-08-17T08:40:44Z</time>
      </trkpt>
      <trkpt lat="47.44209" lon="6.55171">
        <ele>281.1</ele>
        <time>2019-08-17T08:40:45Z</time>
      </trkpt>
      <trkpt lat="47.4421" lon="6.55164">
        <ele>281.1</ele>
        <time>2019-08-17T08:40:46Z</time>
      </trkpt>
      <trkpt lat="47.44211" lon="6.55158">
        <ele>281.1</ele>
        <time>2019-08-17T08:40:47Z</time>
      </trkpt>
      <trkpt lat="47.44212" lon="6.55152">
        <ele>281.2</ele>
        <time>2019-08-17T08:40:48Z</time>
      </trkpt>
      <trkpt lat="47.44213" lon="6.55146">
        <ele>281.2</ele>
        <time>2019-08-17T08:40:49Z</time>
      </trkpt>
      <trkpt lat="47.44213" lon="6.5514">
        <ele>281.2</ele>
        <time>2019-08-17T08:40:50Z</time>
      </trkpt>
      <trkpt lat="47.44214" lon="6.55133">
        <ele>281.2</ele>
        <time>2019-08-17T08:40:51Z</time>
      </trkpt>
      <trkpt lat="47.44214" lon="6.55126">
        <ele>281.2</ele>
        <time>2019-08-17T08:40:52Z</time>
      </trkpt>
      <trkpt lat="47.44214" lon="6.55118">
        <ele>281.2</ele>
        <time>2019-08-17T08:40:53Z</time>
      </trkpt>
      <trkpt lat="47.44214" lon="6.55111">
        <ele>281.3</ele>
        <time>2019-08-17T08:40:54Z</time>
      </trkpt>
      <trkpt lat="47.44213" lon="6.55105">
        <ele>281.3</ele>
        <time>2019-08-17T08:40:55Z</time>
      </trkpt>
      <trkpt lat="47.44213" lon="6.55098">
        <ele>281.3</ele>
        <time>2019-08-17T08:40:56Z</time>
      </trkpt>
      <trkpt lat="47.44213" lon="6.55091">
        <ele>281.3</ele>
        <time>2019-08-17T08:40:57Z</time>
      </trkpt>
      <trkpt lat="47.44211" lon="6.55084">
        <ele>281.3</ele>
        <time>2019-08-17T08:40:58Z</time>
      </trkpt>
      <trkpt lat="47.4421" lon="6.55078">
        <ele>281.3</ele>
        <time>2019-08-17T08:40:59Z</time>
      </trkpt>
      <trkpt lat="47.44209" lon="6.55071">
        <ele>281.3</ele>
        <time>2019-08-17T08:41:00Z</time>
      </trkpt>
      <trkpt lat="47.44208" lon="6.55065">
        <ele>281.3</ele>
        <time>2019-08-17T08:41:01Z</time>
      </trkpt>
      <trkpt lat="47.44207" lon="6.55058">
        <ele>281.3</ele>
        <time>2019-08-17T08:41:02Z</time>
      </trkpt>
      <trkpt lat="47.44207" lon="6.55051">
        <ele>281.3</ele>
        <time>2019-08-17T08:41:03Z</time>
      </trkpt>
      <trkpt lat="47.44206" lon="6.55043">
        <ele>281.3</ele>
        <time>2019-08-17T08:41:04Z</time>
      </trkpt>
      <trkpt lat="47.44206" lon="6.55036">
        <ele>281.3</ele>
        <time>2019-08-17T08:41:05Z</time>
      </trkpt>
      <trkpt lat="47.44205" lon="6.55029">
        <ele>281.3</ele>
        <time>2019-08-17T08:41:06Z</time>
      </trkpt>
      <trkpt lat="47.44205" lon="6.55021">
        <ele>281.3</ele>
        <time>2019-08-17T08:41:07Z</time>
      </trkpt>
      <trkpt lat="47.44204" lon="6.55013">
        <ele>281.3</ele>
        <time>2019-08-17T08:41:08Z</time>
      </trkpt>
      <trkpt lat="47.44203" lon="6.55006">
        <ele>281.2</ele>
        <time>2019-08-17T08:41:09Z</time>
      </trkpt>
      <trkpt lat="47.44202" lon="6.54999">
        <ele>281.2</ele>
        <time>2019-08-17T08:41:10Z</time>
      </trkpt>
      <trkpt lat="47.44201" lon="6.54992">
        <ele>281.2</ele>
        <time>2019-08-17T08:41:11Z</time>
      </trkpt>
      <trkpt lat="47.442" lon="6.54985">
        <ele>281.2</ele>
        <time>2019-08-17T08:41:12Z</time>
      </trkpt>
      <trkpt lat="47.44199" lon="6.54977">
        <ele>281.2</ele>
        <time>2019-08-17T08:41:13Z</time>
      </trkpt>
      <trkpt lat="47.44198" lon="6.5497">
        <ele>281.2</ele>
        <time>2019-08-17T08:41:14Z</time>
      </trkpt>
      <trkpt lat="47.44197" lon="6.54963">
        <ele>281.1</ele>
        <time>2019-08-17T08:41:15Z</time>
      </trkpt>
      <trkpt lat="47.44196" lon="6.54955">
        <ele>281.1</ele>
        <time>2019-08-17T08:41:16Z</time>
      </trkpt>
      <trkpt lat="47.44195" lon="6.54949">
        <ele>281.1</ele>
        <time>2019-08-17T08:41:17Z</time>
      </trkpt>
      <trkpt lat="47.44195" lon="6.54942">
        <ele>281.1</ele>
        <time>2019-08-17T08:41:18Z</time>
      </trkpt>
      <trkpt lat="47.44194" lon="6.54935">
        <ele>281.1</ele>
        <time>2019-08-17T08:41:19Z</time>
      </trkpt>
      <trkpt lat="47.44193" lon="6.54929">
        <ele>281.1</ele>
        <time>2019-08-17T08:41:20Z</time>
      </trkpt>
      <trkpt lat="47.44191" lon="6.54922">
        <ele>281.1</ele>
        <time>2019-08-17T08:41:21Z</time>
      </trkpt>
      <trkpt lat="47.4419" lon="6.54916">
        <ele>281.1</ele>
        <time>2019-08-17T08:41:22Z</time>
      </trkpt>
      <trkpt lat="47.44189" lon="6.54911">
        <ele>281.1</ele>
        <time>2019-08-17T08:41:23Z</time>
      </trkpt>
      <trkpt lat="47.44187" lon="6.54905">
        <ele>281.1</ele>
        <time>2019-08-17T08:41:24Z</time>
      </trkpt>
      <trkpt lat="47.44185" lon="6.54899">
        <ele>281.1</ele>
        <time>2019-08-17T08:41:25Z</time>
      </trkpt>
      <trkpt lat="47.44183" lon="6.54891">
        <ele>281.1</ele>
        <time>2019-08-17T08:41:26Z</time>
      </trkpt>
      <trkpt lat="47.44182" lon="6.54884">
        <ele>281.1</ele>
        <time>2019-08-17T08:41:27Z</time>
      </trkpt>
      <trkpt lat="47.44181" lon="6.54877">
        <ele>281.1</ele>
        <time>2019-08-17T08:41:28Z</time>
      </trkpt>
      <trkpt lat="47.4418" lon="6.5487">
        <ele>281.1</ele>
        <time>2019-08-17T08:41:29Z</time>
      </trkpt>
      <trkpt lat="47.44179" lon="6.54862">
        <ele>281.1</ele>
        <time>2019-08-17T08:41:30Z</time>
      </trkpt>
      <trkpt lat="47.44178" lon="6.54856">
        <ele>281.1</ele>
        <time>2019-08-17T08:41:31Z</time>
      </trkpt>
      <trkpt lat="47.44176" lon="6.54849">
        <ele>281.1</ele>
        <time>2019-08-17T08:41:32Z</time>
      </trkpt>
      <trkpt lat="47.44174" lon="6.54842">
        <ele>281.1</ele>
        <time>2019-08-17T08:41:33Z</time>
      </trkpt>
      <trkpt lat="47.44173" lon="6.54834">
        <ele>281.1</ele>
        <time>2019-08-17T08:41:34Z</time>
      </trkpt>
      <trkpt lat="47.44172" lon="6.54826">
        <ele>281.1</ele>
        <time>2019-08-17T08:41:35Z</time>
      </trkpt>
      <trkpt lat="47.4417" lon="6.54818">
        <ele>281.1</ele>
        <time>2019-08-17T08:41:36Z</time>
      </trkpt>
      <trkpt lat="47.44169" lon="6.54811">
        <ele>281.1</ele>
        <time>2019-08-17T08:41:37Z</time>
      </trkpt>
      <trkpt lat="47.44168" lon="6.54804">
        <ele>281.1</ele>
        <time>2019-08-17T08:41:38Z</time>
      </trkpt>
      <trkpt lat="47.44166" lon="6.54797">
        <ele>281.1</ele>
        <time>2019-08-17T08:41:39Z</time>
      </trkpt>
      <trkpt lat="47.44165" lon="6.5479">
        <ele>281.1</ele>
        <time>2019-08-17T08:41:40Z</time>
      </trkpt>
      <trkpt lat="47.44164" lon="6.54783">
        <ele>281.1</ele>
        <time>2019-08-17T08:41:41Z</time>
      </trkpt>
      <trkpt lat="47.44162" lon="6.54776">
        <ele>281.1</ele>
        <time>2019-08-17T08:41:42Z</time>
      </trkpt>
      <trkpt lat="47.44161" lon="6.54769">
        <ele>281.1</ele>
        <time>2019-08-17T08:41:43Z</time>
      </trkpt>
      <trkpt lat="47.4416" lon="6.54763">
        <ele>281.1</ele>
        <time>2019-08-17T08:41:44Z</time>
      </trkpt>
      <trkpt lat="47.44159" lon="6.54756">
        <ele>281.1</ele>
        <time>2019-08-17T08:41:45Z</time>
      </trkpt>
      <trkpt lat="47.44158" lon="6.54749">
        <ele>281.1</ele>
        <time>2019-08-17T08:41:46Z</time>
      </trkpt>
      <trkpt lat="47.44156" lon="6.54742">
        <ele>281.1</ele>
        <time>2019-08-17T08:41:47Z</time>
      </trkpt>
      <trkpt lat="47.44155" lon="6.54735">
        <ele>281.1</ele>
        <time>2019-08-17T08:41:48Z</time>
      </trkpt>
      <trkpt lat="47.44154" lon="6.54727">
        <ele>281.1</ele>
        <time>2019-08-17T08:41:49Z</time>
      </trkpt>
      <trkpt lat="47.44152" lon="6.5472">
        <ele>281.1</ele>
        <time>2019-08-17T08:41:50Z</time>
      </trkpt>
      <trkpt lat="47.44151" lon="6.54713">
        <ele>281.1</ele>
        <time>2019-08-17T08:41:51Z</time>
      </trkpt>
      <trkpt lat="47.44149" lon="6.54706">
        <ele>281.1</ele>
        <time>2019-08-17T08:41:52Z</time>
      </trkpt>
      <trkpt lat="47.44147" lon="6.547">
        <ele>281.1</ele>
        <time>2019-08-17T08:41:53Z</time>
      </trkpt>
      <trkpt lat="47.44146" lon="6.54694">
        <ele>281.1</ele>
        <time>2019-08-17T08:41:54Z</time>
      </trkpt>
      <trkpt lat="47.44144" lon="6.54688">
        <ele>281.1</ele>
        <time>2019-08-17T08:41:55Z</time>
      </trkpt>
      <trkpt lat="47.44143" lon="6.54681">
        <ele>281.1</ele>
        <time>2019-08-17T08:41:56Z</time>
      </trkpt>
      <trkpt lat="47.44141" lon="6.54674">
        <ele>281.1</ele>
        <time>2019-08-17T08:41:57Z</time>
      </trkpt>
      <trkpt lat="47.4414" lon="6.54667">
        <ele>281.1</ele>
        <time>2019-08-17T08:41:58Z</time>
      </trkpt>
      <trkpt lat="47.44138" lon="6.54659">
        <ele>281.1</ele>
        <time>2019-08-17T08:41:59Z</time>
      </trkpt>
      <trkpt lat="47.44137" lon="6.54651">
        <ele>281.1</ele>
        <time>2019-08-17T08:42:00Z</time>
      </trkpt>
      <trkpt lat="47.44136" lon="6.54643">
        <ele>281.1</ele>
        <time>2019-08-17T08:42:01Z</time>
      </trkpt>
      <trkpt lat="47.44134" lon="6.54635">
        <ele>281.1</ele>
        <time>2019-08-17T08:42:02Z</time>
      </trkpt>
      <trkpt lat="47.44132" lon="6.54628">
        <ele>281.1</ele>
        <time>2019-08-17T08:42:03Z</time>
      </trkpt>
      <trkpt lat="47.4413" lon="6.5462">
        <ele>281.1</ele>
        <time>2019-08-17T08:42:04Z</time>
      </trkpt>
      <trkpt lat="47.44129" lon="6.54613">
        <ele>281.1</ele>
        <time>2019-08-17T08:42:05Z</time>
      </trkpt>
      <trkpt lat="47.44127" lon="6.54605">
        <ele>281.1</ele>
        <time>2019-08-17T08:42:06Z</time>
      </trkpt>
      <trkpt lat="47.44125" lon="6.54598">
        <ele>281.1</ele>
        <time>2019-08-17T08:42:07Z</time>
      </trkpt>
      <trkpt lat="47.44124" lon="6.54591">
        <ele>281.1</ele>
        <time>2019-08-17T08:42:08Z</time>
      </trkpt>
      <trkpt lat="47.44123" lon="6.54584">
        <ele>281.1</ele>
        <time>2019-08-17T08:42:09Z</time>
      </trkpt>
      <trkpt lat="47.44121" lon="6.54578">
        <ele>281.1</ele>
        <time>2019-08-17T08:42:10Z</time>
      </trkpt>
      <trkpt lat="47.4412" lon="6.54571">
        <ele>281.1</ele>
        <time>2019-08-17T08:42:11Z</time>
      </trkpt>
      <trkpt lat="47.44119" lon="6.54565">
        <ele>281.1</ele>
        <time>2019-08-17T08:42:12Z</time>
      </trkpt>
      <trkpt lat="47.44118" lon="6.54558">
        <ele>281.1</ele>
        <time>2019-08-17T08:42:13Z</time>
      </trkpt>
      <trkpt lat="47.44117" lon="6.54552">
        <ele>281.1</ele>
        <time>2019-08-17T08:42:14Z</time>
      </trkpt>
      <trkpt lat="47.44116" lon="6.54545">
        <ele>281.1</ele>
        <time>2019-08-17T08:42:15Z</time>
      </trkpt>
      <trkpt lat="47.44116" lon="6.54538">
        <ele>281.1</ele>
        <time>2019-08-17T08:42:16Z</time>
      </trkpt>
      <trkpt lat="47.44115" lon="6.54531">
        <ele>281.1</ele>
        <time>2019-08-17T08:42:17Z</time>
      </trkpt>
      <trkpt lat="47.44114" lon="6.54524">
        <ele>281.1</ele>
        <time>2019-08-17T08:42:18Z</time>
      </trkpt>
      <trkpt lat="47.44113" lon="6.54517">
        <ele>281.1</ele>
        <time>2019-08-17T08:42:19Z</time>
      </trkpt>
      <trkpt lat="47.44113" lon="6.5451">
        <ele>281</ele>
        <time>2019-08-17T08:42:20Z</time>
      </trkpt>
      <trkpt lat="47.44112" lon="6.54503">
        <ele>281</ele>
        <time>2019-08-17T08:42:21Z</time>
      </trkpt>
      <trkpt lat="47.44111" lon="6.54496">
        <ele>280.9</ele>
        <time>2019-08-17T08:42:22Z</time>
      </trkpt>
      <trkpt lat="47.4411" lon="6.5449">
        <ele>280.8</ele>
        <time>2019-08-17T08:42:23Z</time>
      </trkpt>
      <trkpt lat="47.44109" lon="6.54483">
        <ele>280.8</ele>
        <time>2019-08-17T08:42:24Z</time>
      </trkpt>
      <trkpt lat="47.44108" lon="6.54476">
        <ele>280.7</ele>
        <time>2019-08-17T08:42:25Z</time>
      </trkpt>
      <trkpt lat="47.44107" lon="6.54468">
        <ele>280.7</ele>
        <time>2019-08-17T08:42:26Z</time>
      </trkpt>
      <trkpt lat="47.44105" lon="6.5446">
        <ele>280.6</ele>
        <time>2019-08-17T08:42:27Z</time>
      </trkpt>
      <trkpt lat="47.44104" lon="6.54453">
        <ele>280.6</ele>
        <time>2019-08-17T08:42:28Z</time>
      </trkpt>
      <trkpt lat="47.44103" lon="6.54446">
        <ele>280.6</ele>
        <time>2019-08-17T08:42:29Z</time>
      </trkpt>
      <trkpt lat="47.44101" lon="6.54439">
        <ele>280.6</ele>
        <time>2019-08-17T08:42:30Z</time>
      </trkpt>
      <trkpt lat="47.441" lon="6.54432">
        <ele>280.6</ele>
        <time>2019-08-17T08:42:31Z</time>
      </trkpt>
      <trkpt lat="47.441" lon="6.54425">
        <ele>280.6</ele>
        <time>2019-08-17T08:42:32Z</time>
      </trkpt>
      <trkpt lat="47.44099" lon="6.54417">
        <ele>280.6</ele>
        <time>2019-08-17T08:42:33Z</time>
      </trkpt>
      <trkpt lat="47.44098" lon="6.54408">
        <ele>280.7</ele>
        <time>2019-08-17T08:42:34Z</time>
      </trkpt>
      <trkpt lat="47.44098" lon="6.544">
        <ele>280.7</ele>
        <time>2019-08-17T08:42:35Z</time>
      </trkpt>
      <trkpt lat="47.44097" lon="6.54393">
        <ele>280.8</ele>
        <time>2019-08-17T08:42:36Z</time>
      </trkpt>
      <trkpt lat="47.44097" lon="6.54385">
        <ele>280.8</ele>
        <time>2019-08-17T08:42:37Z</time>
      </trkpt>
      <trkpt lat="47.44097" lon="6.54377">
        <ele>280.9</ele>
        <time>2019-08-17T08:42:38Z</time>
      </trkpt>
      <trkpt lat="47.44097" lon="6.54369">
        <ele>281</ele>
        <time>2019-08-17T08:42:39Z</time>
      </trkpt>
      <trkpt lat="47.44097" lon="6.54361">
        <ele>281</ele>
        <time>2019-08-17T08:42:40Z</time>
      </trkpt>
      <trkpt lat="47.44098" lon="6.54354">
        <ele>281.1</ele>
        <time>2019-08-17T08:42:41Z</time>
      </trkpt>
      <trkpt lat="47.44099" lon="6.54346">
        <ele>281.1</ele>
        <time>2019-08-17T08:42:42Z</time>
      </trkpt>
      <trkpt lat="47.44099" lon="6.5434">
        <ele>281.1</ele>
        <time>2019-08-17T08:42:43Z</time>
      </trkpt>
      <trkpt lat="47.44099" lon="6.54332">
        <ele>281.2</ele>
        <time>2019-08-17T08:42:44Z</time>
      </trkpt>
      <trkpt lat="47.44099" lon="6.54325">
        <ele>281.2</ele>
        <time>2019-08-17T08:42:45Z</time>
      </trkpt>
      <trkpt lat="47.44099" lon="6.54317">
        <ele>281.2</ele>
        <time>2019-08-17T08:42:46Z</time>
      </trkpt>
      <trkpt lat="47.44099" lon="6.5431">
        <ele>281.2</ele>
        <time>2019-08-17T08:42:47Z</time>
      </trkpt>
      <trkpt lat="47.441" lon="6.54302">
        <ele>281.2</ele>
        <time>2019-08-17T08:42:48Z</time>
      </trkpt>
      <trkpt lat="47.441" lon="6.54294">
        <ele>281.2</ele>
        <time>2019-08-17T08:42:49Z</time>
      </trkpt>
      <trkpt lat="47.44101" lon="6.54287">
        <ele>281.2</ele>
        <time>2019-08-17T08:42:50Z</time>
      </trkpt>
      <trkpt lat="47.44102" lon="6.54281">
        <ele>281.2</ele>
        <time>2019-08-17T08:42:51Z</time>
      </trkpt>
      <trkpt lat="47.44102" lon="6.54273">
        <ele>281.2</ele>
        <time>2019-08-17T08:42:52Z</time>
      </trkpt>
      <trkpt lat="47.44103" lon="6.54266">
        <ele>281.2</ele>
        <time>2019-08-17T08:42:53Z</time>
      </trkpt>
      <trkpt lat="47.44103" lon="6.54258">
        <ele>281.2</ele>
        <time>2019-08-17T08:42:54Z</time>
      </trkpt>
      <trkpt lat="47.44103" lon="6.54251">
        <ele>281.2</ele>
        <time>2019-08-17T08:42:55Z</time>
      </trkpt>
      <trkpt lat="47.44103" lon="6.54243">
        <ele>281.2</ele>
        <time>2019-08-17T08:42:56Z</time>
      </trkpt>
      <trkpt lat="47.44103" lon="6.54236">
        <ele>281.2</ele>
        <time>2019-08-17T08:42:57Z</time>
      </trkpt>
      <trkpt lat="47.44103" lon="6.54229">
        <ele>281.2</ele>
        <time>2019-08-17T08:42:58Z</time>
      </trkpt>
      <trkpt lat="47.44103" lon="6.54221">
        <ele>281.2</ele>
        <time>2019-08-17T08:42:59Z</time>
      </trkpt>
      <trkpt lat="47.44103" lon="6.54214">
        <ele>281.2</ele>
        <time>2019-08-17T08:43:00Z</time>
      </trkpt>
      <trkpt lat="47.44103" lon="6.54206">
        <ele>281.2</ele>
        <time>2019-08-17T08:43:01Z</time>
      </trkpt>
      <trkpt lat="47.44103" lon="6.54198">
        <ele>281.2</ele>
        <time>2019-08-17T08:43:02Z</time>
      </trkpt>
      <trkpt lat="47.44104" lon="6.54191">
        <ele>281.2</ele>
        <time>2019-08-17T08:43:03Z</time>
      </trkpt>
      <trkpt lat="47.44104" lon="6.54184">
        <ele>281.2</ele>
        <time>2019-08-17T08:43:04Z</time>
      </trkpt>
      <trkpt lat="47.44104" lon="6.54177">
        <ele>281.2</ele>
        <time>2019-08-17T08:43:05Z</time>
      </trkpt>
      <trkpt lat="47.44104" lon="6.5417">
        <ele>281.2</ele>
        <time>2019-08-17T08:43:06Z</time>
      </trkpt>
      <trkpt lat="47.44104" lon="6.54162">
        <ele>281.2</ele>
        <time>2019-08-17T08:43:07Z</time>
      </trkpt>
      <trkpt lat="47.44105" lon="6.54155">
        <ele>281.2</ele>
        <time>2019-08-17T08:43:08Z</time>
      </trkpt>
      <trkpt lat="47.44106" lon="6.54147">
        <ele>281.2</ele>
        <time>2019-08-17T08:43:09Z</time>
      </trkpt>
      <trkpt lat="47.44107" lon="6.5414">
        <ele>281.2</ele>
        <time>2019-08-17T08:43:10Z</time>
      </trkpt>
      <trkpt lat="47.44108" lon="6.54132">
        <ele>281.3</ele>
        <time>2019-08-17T08:43:11Z</time>
      </trkpt>
      <trkpt lat="47.44109" lon="6.54125">
        <ele>281.3</ele>
        <time>2019-08-17T08:43:12Z</time>
      </trkpt>
      <trkpt lat="47.4411" lon="6.54118">
        <ele>281.3</ele>
        <time>2019-08-17T08:43:13Z</time>
      </trkpt>
      <trkpt lat="47.44111" lon="6.5411">
        <ele>281.3</ele>
        <time>2019-08-17T08:43:14Z</time>
      </trkpt>
      <trkpt lat="47.44112" lon="6.54103">
        <ele>281.3</ele>
        <time>2019-08-17T08:43:15Z</time>
      </trkpt>
      <trkpt lat="47.44112" lon="6.54094">
        <ele>281.3</ele>
        <time>2019-08-17T08:43:16Z</time>
      </trkpt>
      <trkpt lat="47.44113" lon="6.54087">
        <ele>281.4</ele>
        <time>2019-08-17T08:43:17Z</time>
      </trkpt>
      <trkpt lat="47.44114" lon="6.54078">
        <ele>281.4</ele>
        <time>2019-08-17T08:43:18Z</time>
      </trkpt>
      <trkpt lat="47.44114" lon="6.5407">
        <ele>281.4</ele>
        <time>2019-08-17T08:43:19Z</time>
      </trkpt>
      <trkpt lat="47.44114" lon="6.54062">
        <ele>281.5</ele>
        <time>2019-08-17T08:43:20Z</time>
      </trkpt>
      <trkpt lat="47.44115" lon="6.54055">
        <ele>281.5</ele>
        <time>2019-08-17T08:43:21Z</time>
      </trkpt>
      <trkpt lat="47.44116" lon="6.54047">
        <ele>281.5</ele>
        <time>2019-08-17T08:43:22Z</time>
      </trkpt>
      <trkpt lat="47.44116" lon="6.54039">
        <ele>281.6</ele>
        <time>2019-08-17T08:43:23Z</time>
      </trkpt>
      <trkpt lat="47.44117" lon="6.54032">
        <ele>281.6</ele>
        <time>2019-08-17T08:43:24Z</time>
      </trkpt>
      <trkpt lat="47.44118" lon="6.54025">
        <ele>281.6</ele>
        <time>2019-08-17T08:43:25Z</time>
      </trkpt>
      <trkpt lat="47.44119" lon="6.54018">
        <ele>281.6</ele>
        <time>2019-08-17T08:43:26Z</time>
      </trkpt>
      <trkpt lat="47.4412" lon="6.54011">
        <ele>281.6</ele>
        <time>2019-08-17T08:43:27Z</time>
      </trkpt>
      <trkpt lat="47.44121" lon="6.54004">
        <ele>281.6</ele>
        <time>2019-08-17T08:43:28Z</time>
      </trkpt>
      <trkpt lat="47.44122" lon="6.53995">
        <ele>281.6</ele>
        <time>2019-08-17T08:43:29Z</time>
      </trkpt>
      <trkpt lat="47.44123" lon="6.53987">
        <ele>281.6</ele>
        <time>2019-08-17T08:43:30Z</time>
      </trkpt>
      <trkpt lat="47.44124" lon="6.53979">
        <ele>281.5</ele>
        <time>2019-08-17T08:43:31Z</time>
      </trkpt>
      <trkpt lat="47.44125" lon="6.53971">
        <ele>281.5</ele>
        <time>2019-08-17T08:43:32Z</time>
      </trkpt>
      <trkpt lat="47.44125" lon="6.53963">
        <ele>281.4</ele>
        <time>2019-08-17T08:43:33Z</time>
      </trkpt>
      <trkpt lat="47.44126" lon="6.53956">
        <ele>281.4</ele>
        <time>2019-08-17T08:43:34Z</time>
      </trkpt>
      <trkpt lat="47.44126" lon="6.53948">
        <ele>281.3</ele>
        <time>2019-08-17T08:43:35Z</time>
      </trkpt>
      <trkpt lat="47.44127" lon="6.5394">
        <ele>281.3</ele>
        <time>2019-08-17T08:43:36Z</time>
      </trkpt>
      <trkpt lat="47.44127" lon="6.53932">
        <ele>281.2</ele>
        <time>2019-08-17T08:43:37Z</time>
      </trkpt>
      <trkpt lat="47.44128" lon="6.53924">
        <ele>281.2</ele>
        <time>2019-08-17T08:43:38Z</time>
      </trkpt>
      <trkpt lat="47.44128" lon="6.53916">
        <ele>281.1</ele>
        <time>2019-08-17T08:43:39Z</time>
      </trkpt>
      <trkpt lat="47.44128" lon="6.53908">
        <ele>281.1</ele>
        <time>2019-08-17T08:43:40Z</time>
      </trkpt>
      <trkpt lat="47.44129" lon="6.539">
        <ele>281</ele>
        <time>2019-08-17T08:43:41Z</time>
      </trkpt>
      <trkpt lat="47.4413" lon="6.53893">
        <ele>281</ele>
        <time>2019-08-17T08:43:42Z</time>
      </trkpt>
      <trkpt lat="47.4413" lon="6.53885">
        <ele>280.9</ele>
        <time>2019-08-17T08:43:43Z</time>
      </trkpt>
      <trkpt lat="47.44131" lon="6.53877">
        <ele>280.9</ele>
        <time>2019-08-17T08:43:44Z</time>
      </trkpt>
      <trkpt lat="47.44131" lon="6.5387">
        <ele>280.9</ele>
        <time>2019-08-17T08:43:45Z</time>
      </trkpt>
      <trkpt lat="47.44132" lon="6.53862">
        <ele>280.9</ele>
        <time>2019-08-17T08:43:46Z</time>
      </trkpt>
      <trkpt lat="47.44133" lon="6.53854">
        <ele>280.8</ele>
        <time>2019-08-17T08:43:47Z</time>
      </trkpt>
      <trkpt lat="47.44134" lon="6.53847">
        <ele>280.8</ele>
        <time>2019-08-17T08:43:48Z</time>
      </trkpt>
      <trkpt lat="47.44134" lon="6.5384">
        <ele>280.9</ele>
        <time>2019-08-17T08:43:49Z</time>
      </trkpt>
      <trkpt lat="47.44134" lon="6.53832">
        <ele>280.9</ele>
        <time>2019-08-17T08:43:50Z</time>
      </trkpt>
      <trkpt lat="47.44135" lon="6.53825">
        <ele>280.9</ele>
        <time>2019-08-17T08:43:51Z</time>
      </trkpt>
      <trkpt lat="47.44136" lon="6.53818">
        <ele>280.9</ele>
        <time>2019-08-17T08:43:52Z</time>
      </trkpt>
      <trkpt lat="47.44136" lon="6.53811">
        <ele>280.9</ele>
        <time>2019-08-17T08:43:53Z</time>
      </trkpt>
      <trkpt lat="47.44137" lon="6.53803">
        <ele>280.9</ele>
        <time>2019-08-17T08:43:54Z</time>
      </trkpt>
      <trkpt lat="47.44138" lon="6.53795">
        <ele>280.9</ele>
        <time>2019-08-17T08:43:55Z</time>
      </trkpt>
      <trkpt lat="47.44139" lon="6.53787">
        <ele>280.9</ele>
        <time>2019-08-17T08:43:56Z</time>
      </trkpt>
      <trkpt lat="47.4414" lon="6.5378">
        <ele>280.9</ele>
        <time>2019-08-17T08:43:57Z</time>
      </trkpt>
      <trkpt lat="47.44141" lon="6.53773">
        <ele>281</ele>
        <time>2019-08-17T08:43:58Z</time>
      </trkpt>
      <trkpt lat="47.44142" lon="6.53766">
        <ele>281</ele>
        <time>2019-08-17T08:43:59Z</time>
      </trkpt>
      <trkpt lat="47.44143" lon="6.53759">
        <ele>281</ele>
        <time>2019-08-17T08:44:00Z</time>
      </trkpt>
      <trkpt lat="47.44144" lon="6.53752">
        <ele>281</ele>
        <time>2019-08-17T08:44:01Z</time>
      </trkpt>
      <trkpt lat="47.44145" lon="6.53743">
        <ele>281</ele>
        <time>2019-08-17T08:44:02Z</time>
      </trkpt>
      <trkpt lat="47.44146" lon="6.53736">
        <ele>280.9</ele>
        <time>2019-08-17T08:44:03Z</time>
      </trkpt>
      <trkpt lat="47.44147" lon="6.53729">
        <ele>280.9</ele>
        <time>2019-08-17T08:44:04Z</time>
      </trkpt>
      <trkpt lat="47.44147" lon="6.53722">
        <ele>280.9</ele>
        <time>2019-08-17T08:44:05Z</time>
      </trkpt>
      <trkpt lat="47.44148" lon="6.53715">
        <ele>280.9</ele>
        <time>2019-08-17T08:44:06Z</time>
      </trkpt>
      <trkpt lat="47.44148" lon="6.53708">
        <ele>280.8</ele>
        <time>2019-08-17T08:44:07Z</time>
      </trkpt>
      <trkpt lat="47.44148" lon="6.53701">
        <ele>280.8</ele>
        <time>2019-08-17T08:44:08Z</time>
      </trkpt>
      <trkpt lat="47.44148" lon="6.53693">
        <ele>280.8</ele>
        <time>2019-08-17T08:44:09Z</time>
      </trkpt>
      <trkpt lat="47.44149" lon="6.53685">
        <ele>280.8</ele>
        <time>2019-08-17T08:44:10Z</time>
      </trkpt>
      <trkpt lat="47.4415" lon="6.53677">
        <ele>280.7</ele>
        <time>2019-08-17T08:44:11Z</time>
      </trkpt>
      <trkpt lat="47.4415" lon="6.5367">
        <ele>280.7</ele>
        <time>2019-08-17T08:44:12Z</time>
      </trkpt>
      <trkpt lat="47.44151" lon="6.53663">
        <ele>280.7</ele>
        <time>2019-08-17T08:44:13Z</time>
      </trkpt>
      <trkpt lat="47.44152" lon="6.53655">
        <ele>280.7</ele>
        <time>2019-08-17T08:44:14Z</time>
      </trkpt>
      <trkpt lat="47.44153" lon="6.53647">
        <ele>280.7</ele>
        <time>2019-08-17T08:44:15Z</time>
      </trkpt>
      <trkpt lat="47.44154" lon="6.53639">
        <ele>280.7</ele>
        <time>2019-08-17T08:44:16Z</time>
      </trkpt>
      <trkpt lat="47.44155" lon="6.5363">
        <ele>280.7</ele>
        <time>2019-08-17T08:44:17Z</time>
      </trkpt>
      <trkpt lat="47.44155" lon="6.53622">
        <ele>280.7</ele>
        <time>2019-08-17T08:44:18Z</time>
      </trkpt>
      <trkpt lat="47.44156" lon="6.53614">
        <ele>280.7</ele>
        <time>2019-08-17T08:44:19Z</time>
      </trkpt>
      <trkpt lat="47.44157" lon="6.53607">
        <ele>280.7</ele>
        <time>2019-08-17T08:44:20Z</time>
      </trkpt>
      <trkpt lat="47.44158" lon="6.53599">
        <ele>280.7</ele>
        <time>2019-08-17T08:44:21Z</time>
      </trkpt>
      <trkpt lat="47.4416" lon="6.53591">
        <ele>280.7</ele>
        <time>2019-08-17T08:44:22Z</time>
      </trkpt>
      <trkpt lat="47.44161" lon="6.53584">
        <ele>280.7</ele>
        <time>2019-08-17T08:44:23Z</time>
      </trkpt>
      <trkpt lat="47.44161" lon="6.53576">
        <ele>280.7</ele>
        <time>2019-08-17T08:44:24Z</time>
      </trkpt>
      <trkpt lat="47.44162" lon="6.53569">
        <ele>280.7</ele>
        <time>2019-08-17T08:44:25Z</time>
      </trkpt>
      <trkpt lat="47.44163" lon="6.53562">
        <ele>280.8</ele>
        <time>2019-08-17T08:44:26Z</time>
      </trkpt>
      <trkpt lat="47.44164" lon="6.53555">
        <ele>280.8</ele>
        <time>2019-08-17T08:44:27Z</time>
      </trkpt>
      <trkpt lat="47.44164" lon="6.53547">
        <ele>280.8</ele>
        <time>2019-08-17T08:44:28Z</time>
      </trkpt>
      <trkpt lat="47.44165" lon="6.53539">
        <ele>280.8</ele>
        <time>2019-08-17T08:44:29Z</time>
      </trkpt>
      <trkpt lat="47.44165" lon="6.53531">
        <ele>280.8</ele>
        <time>2019-08-17T08:44:30Z</time>
      </trkpt>
      <trkpt lat="47.44165" lon="6.53521">
        <ele>280.8</ele>
        <time>2019-08-17T08:44:31Z</time>
      </trkpt>
      <trkpt lat="47.44166" lon="6.53513">
        <ele>280.8</ele>
        <time>2019-08-17T08:44:32Z</time>
      </trkpt>
      <trkpt lat="47.44166" lon="6.53504">
        <ele>280.8</ele>
        <time>2019-08-17T08:44:33Z</time>
      </trkpt>
      <trkpt lat="47.44167" lon="6.53497">
        <ele>280.8</ele>
        <time>2019-08-17T08:44:34Z</time>
      </trkpt>
      <trkpt lat="47.44167" lon="6.5349">
        <ele>280.8</ele>
        <time>2019-08-17T08:44:35Z</time>
      </trkpt>
      <trkpt lat="47.44167" lon="6.53483">
        <ele>280.8</ele>
        <time>2019-08-17T08:44:36Z</time>
      </trkpt>
      <trkpt lat="47.44168" lon="6.53476">
        <ele>280.8</ele>
        <time>2019-08-17T08:44:37Z</time>
      </trkpt>
      <trkpt lat="47.44168" lon="6.53469">
        <ele>280.8</ele>
        <time>2019-08-17T08:44:38Z</time>
      </trkpt>
      <trkpt lat="47.44169" lon="6.53462">
        <ele>280.8</ele>
        <time>2019-08-17T08:44:39Z</time>
      </trkpt>
      <trkpt lat="47.4417" lon="6.53455">
        <ele>280.8</ele>
        <time>2019-08-17T08:44:40Z</time>
      </trkpt>
      <trkpt lat="47.4417" lon="6.53448">
        <ele>280.8</ele>
        <time>2019-08-17T08:44:41Z</time>
      </trkpt>
      <trkpt lat="47.44172" lon="6.53441">
        <ele>280.8</ele>
        <time>2019-08-17T08:44:42Z</time>
      </trkpt>
      <trkpt lat="47.44173" lon="6.53433">
        <ele>280.8</ele>
        <time>2019-08-17T08:44:43Z</time>
      </trkpt>
      <trkpt lat="47.44173" lon="6.53425">
        <ele>280.8</ele>
        <time>2019-08-17T08:44:44Z</time>
      </trkpt>
      <trkpt lat="47.44174" lon="6.53417">
        <ele>280.7</ele>
        <time>2019-08-17T08:44:45Z</time>
      </trkpt>
      <trkpt lat="47.44175" lon="6.5341">
        <ele>280.7</ele>
        <time>2019-08-17T08:44:46Z</time>
      </trkpt>
      <trkpt lat="47.44175" lon="6.53402">
        <ele>280.7</ele>
        <time>2019-08-17T08:44:47Z</time>
      </trkpt>
      <trkpt lat="47.44176" lon="6.53394">
        <ele>280.7</ele>
        <time>2019-08-17T08:44:48Z</time>
      </trkpt>
      <trkpt lat="47.44176" lon="6.53386">
        <ele>280.7</ele>
        <time>2019-08-17T08:44:49Z</time>
      </trkpt>
      <trkpt lat="47.44177" lon="6.53379">
        <ele>280.7</ele>
        <time>2019-08-17T08:44:50Z</time>
      </trkpt>
      <trkpt lat="47.44177" lon="6.53373">
        <ele>280.7</ele>
        <time>2019-08-17T08:44:51Z</time>
      </trkpt>
      <trkpt lat="47.44178" lon="6.53366">
        <ele>280.7</ele>
        <time>2019-08-17T08:44:52Z</time>
      </trkpt>
      <trkpt lat="47.44178" lon="6.53359">
        <ele>280.7</ele>
        <time>2019-08-17T08:44:53Z</time>
      </trkpt>
      <trkpt lat="47.44178" lon="6.53352">
        <ele>280.7</ele>
        <time>2019-08-17T08:44:54Z</time>
      </trkpt>
      <trkpt lat="47.44178" lon="6.53345">
        <ele>280.7</ele>
        <time>2019-08-17T08:44:55Z</time>
      </trkpt>
      <trkpt lat="47.44177" lon="6.53337">
        <ele>280.7</ele>
        <time>2019-08-17T08:44:56Z</time>
      </trkpt>
      <trkpt lat="47.44177" lon="6.53329">
        <ele>280.7</ele>
        <time>2019-08-17T08:44:57Z</time>
      </trkpt>
      <trkpt lat="47.44176" lon="6.53322">
        <ele>280.7</ele>
        <time>2019-08-17T08:44:58Z</time>
      </trkpt>
      <trkpt lat="47.44175" lon="6.53313">
        <ele>280.7</ele>
        <time>2019-08-17T08:44:59Z</time>
      </trkpt>
      <trkpt lat="47.44173" lon="6.53306">
        <ele>280.7</ele>
        <time>2019-08-17T08:45:00Z</time>
      </trkpt>
      <trkpt lat="47.44172" lon="6.53298">
        <ele>280.7</ele>
        <time>2019-08-17T08:45:01Z</time>
      </trkpt>
      <trkpt lat="47.4417" lon="6.53292">
        <ele>280.7</ele>
        <time>2019-08-17T08:45:02Z</time>
      </trkpt>
      <trkpt lat="47.44169" lon="6.53285">
        <ele>280.7</ele>
        <time>2019-08-17T08:45:03Z</time>
      </trkpt>
      <trkpt lat="47.44167" lon="6.5328">
        <ele>280.7</ele>
        <time>2019-08-17T08:45:04Z</time>
      </trkpt>
      <trkpt lat="47.44165" lon="6.53276">
        <ele>280.7</ele>
        <time>2019-08-17T08:45:05Z</time>
      </trkpt>
      <trkpt lat="47.44162" lon="6.53273">
        <ele>280.6</ele>
        <time>2019-08-17T08:45:06Z</time>
      </trkpt>
      <trkpt lat="47.44159" lon="6.53269">
        <ele>280.6</ele>
        <time>2019-08-17T08:45:07Z</time>
      </trkpt>
      <trkpt lat="47.44157" lon="6.53265">
        <ele>280.6</ele>
        <time>2019-08-17T08:45:08Z</time>
      </trkpt>
      <trkpt lat="47.44154" lon="6.53262">
        <ele>280.6</ele>
        <time>2019-08-17T08:45:09Z</time>
      </trkpt>
      <trkpt lat="47.44151" lon="6.53258">
        <ele>280.6</ele>
        <time>2019-08-17T08:45:10Z</time>
      </trkpt>
      <trkpt lat="47.44148" lon="6.53255">
        <ele>280.6</ele>
        <time>2019-08-17T08:45:11Z</time>
      </trkpt>
      <trkpt lat="47.44144" lon="6.53251">
        <ele>280.6</ele>
        <time>2019-08-17T08:45:12Z</time>
      </trkpt>
      <trkpt lat="47.4414" lon="6.53249">
        <ele>280.6</ele>
        <time>2019-08-17T08:45:13Z</time>
      </trkpt>
      <trkpt lat="47.44136" lon="6.53246">
        <ele>280.6</ele>
        <time>2019-08-17T08:45:14Z</time>
      </trkpt>
      <trkpt lat="47.44133" lon="6.53243">
        <ele>280.6</ele>
        <time>2019-08-17T08:45:15Z</time>
      </trkpt>
      <trkpt lat="47.44129" lon="6.5324">
        <ele>280.6</ele>
        <time>2019-08-17T08:45:16Z</time>
      </trkpt>
      <trkpt lat="47.44126" lon="6.53238">
        <ele>280.6</ele>
        <time>2019-08-17T08:45:17Z</time>
      </trkpt>
      <trkpt lat="47.44123" lon="6.53235">
        <ele>280.5</ele>
        <time>2019-08-17T08:45:18Z</time>
      </trkpt>
      <trkpt lat="47.44119" lon="6.53233">
        <ele>280.5</ele>
        <time>2019-08-17T08:45:19Z</time>
      </trkpt>
      <trkpt lat="47.44116" lon="6.53231">
        <ele>280.5</ele>
        <time>2019-08-17T08:45:20Z</time>
      </trkpt>
      <trkpt lat="47.44112" lon="6.53228">
        <ele>280.5</ele>
        <time>2019-08-17T08:45:21Z</time>
      </trkpt>
      <trkpt lat="47.44108" lon="6.53225">
        <ele>280.5</ele>
        <time>2019-08-17T08:45:22Z</time>
      </trkpt>
      <trkpt lat="47.44104" lon="6.53221">
        <ele>280.5</ele>
        <time>2019-08-17T08:45:23Z</time>
      </trkpt>
      <trkpt lat="47.44101" lon="6.53218">
        <ele>280.5</ele>
        <time>2019-08-17T08:45:24Z</time>
      </trkpt>
      <trkpt lat="47.44097" lon="6.53214">
        <ele>280.5</ele>
        <time>2019-08-17T08:45:25Z</time>
      </trkpt>
      <trkpt lat="47.44094" lon="6.53211">
        <ele>280.5</ele>
        <time>2019-08-17T08:45:26Z</time>
      </trkpt>
      <trkpt lat="47.4409" lon="6.53207">
        <ele>280.5</ele>
        <time>2019-08-17T08:45:27Z</time>
      </trkpt>
      <trkpt lat="47.44086" lon="6.53203">
        <ele>280.5</ele>
        <time>2019-08-17T08:45:28Z</time>
      </trkpt>
      <trkpt lat="47.44083" lon="6.53199">
        <ele>280.5</ele>
        <time>2019-08-17T08:45:29Z</time>
      </trkpt>
      <trkpt lat="47.44079" lon="6.53194">
        <ele>280.5</ele>
        <time>2019-08-17T08:45:30Z</time>
      </trkpt>
      <trkpt lat="47.44074" lon="6.53189">
        <ele>280.5</ele>
        <time>2019-08-17T08:45:31Z</time>
      </trkpt>
      <trkpt lat="47.44069" lon="6.53184">
        <ele>280.5</ele>
        <time>2019-08-17T08:45:32Z</time>
      </trkpt>
      <trkpt lat="47.44064" lon="6.53179">
        <ele>280.4</ele>
        <time>2019-08-17T08:45:33Z</time>
      </trkpt>
      <trkpt lat="47.44058" lon="6.53174">
        <ele>280.4</ele>
        <time>2019-08-17T08:45:34Z</time>
      </trkpt>
      <trkpt lat="47.44053" lon="6.5317">
        <ele>280.4</ele>
        <time>2019-08-17T08:45:35Z</time>
      </trkpt>
      <trkpt lat="47.44047" lon="6.53168">
        <ele>280.4</ele>
        <time>2019-08-17T08:45:36Z</time>
      </trkpt>
      <trkpt lat="47.44041" lon="6.53165">
        <ele>280.4</ele>
        <time>2019-08-17T08:45:37Z</time>
      </trkpt>
      <trkpt lat="47.44036" lon="6.53163">
        <ele>280.5</ele>
        <time>2019-08-17T08:45:38Z</time>
      </trkpt>
      <trkpt lat="47.4403" lon="6.53163">
        <ele>280.5</ele>
        <time>2019-08-17T08:45:39Z</time>
      </trkpt>
      <trkpt lat="47.44024" lon="6.53162">
        <ele>280.5</ele>
        <time>2019-08-17T08:45:40Z</time>
      </trkpt>
      <trkpt lat="47.44018" lon="6.5316">
        <ele>280.5</ele>
        <time>2019-08-17T08:45:41Z</time>
      </trkpt>
      <trkpt lat="47.44012" lon="6.53159">
        <ele>280.5</ele>
        <time>2019-08-17T08:45:42Z</time>
      </trkpt>
      <trkpt lat="47.44006" lon="6.5316">
        <ele>280.6</ele>
        <time>2019-08-17T08:45:43Z</time>
      </trkpt>
      <trkpt lat="47.44" lon="6.53159">
        <ele>280.6</ele>
        <time>2019-08-17T08:45:44Z</time>
      </trkpt>
      <trkpt lat="47.43995" lon="6.53158">
        <ele>280.6</ele>
        <time>2019-08-17T08:45:45Z</time>
      </trkpt>
      <trkpt lat="47.43991" lon="6.53157">
        <ele>280.6</ele>
        <time>2019-08-17T08:45:46Z</time>
      </trkpt>
      <trkpt lat="47.43987" lon="6.53156">
        <ele>280.6</ele>
        <time>2019-08-17T08:45:47Z</time>
      </trkpt>
      <trkpt lat="47.43982" lon="6.53156">
        <ele>280.7</ele>
        <time>2019-08-17T08:45:48Z</time>
      </trkpt>
      <trkpt lat="47.43978" lon="6.53155">
        <ele>280.7</ele>
        <time>2019-08-17T08:45:49Z</time>
      </trkpt>
      <trkpt lat="47.43974" lon="6.53155">
        <ele>280.7</ele>
        <time>2019-08-17T08:45:50Z</time>
      </trkpt>
      <trkpt lat="47.4397" lon="6.53155">
        <ele>280.7</ele>
        <time>2019-08-17T08:45:51Z</time>
      </trkpt>
      <trkpt lat="47.43965" lon="6.53154">
        <ele>280.7</ele>
        <time>2019-08-17T08:45:52Z</time>
      </trkpt>
      <trkpt lat="47.43961" lon="6.53153">
        <ele>280.8</ele>
        <time>2019-08-17T08:45:53Z</time>
      </trkpt>
      <trkpt lat="47.43956" lon="6.53153">
        <ele>280.8</ele>
        <time>2019-08-17T08:45:54Z</time>
      </trkpt>
      <trkpt lat="47.43951" lon="6.53154">
        <ele>280.8</ele>
        <time>2019-08-17T08:45:55Z</time>
      </trkpt>
      <trkpt lat="47.43947" lon="6.53155">
        <ele>280.8</ele>
        <time>2019-08-17T08:45:56Z</time>
      </trkpt>
      <trkpt lat="47.43943" lon="6.53154">
        <ele>280.8</ele>
        <time>2019-08-17T08:45:57Z</time>
      </trkpt>
      <trkpt lat="47.43938" lon="6.53154">
        <ele>280.8</ele>
        <time>2019-08-17T08:45:58Z</time>
      </trkpt>
      <trkpt lat="47.43933" lon="6.53154">
        <ele>280.8</ele>
        <time>2019-08-17T08:45:59Z</time>
      </trkpt>
      <trkpt lat="47.43928" lon="6.53153">
        <ele>280.8</ele>
        <time>2019-08-17T08:46:00Z</time>
      </trkpt>
      <trkpt lat="47.43925" lon="6.53152">
        <ele>280.8</ele>
        <time>2019-08-17T08:46:01Z</time>
      </trkpt>
      <trkpt lat="47.4392" lon="6.53151">
        <ele>280.8</ele>
        <time>2019-08-17T08:46:02Z</time>
      </trkpt>
      <trkpt lat="47.43915" lon="6.5315">
        <ele>280.8</ele>
        <time>2019-08-17T08:46:03Z</time>
      </trkpt>
      <trkpt lat="47.4391" lon="6.53148">
        <ele>280.8</ele>
        <time>2019-08-17T08:46:04Z</time>
      </trkpt>
      <trkpt lat="47.43906" lon="6.53146">
        <ele>280.8</ele>
        <time>2019-08-17T08:46:05Z</time>
      </trkpt>
      <trkpt lat="47.43902" lon="6.53145">
        <ele>280.8</ele>
        <time>2019-08-17T08:46:06Z</time>
      </trkpt>
      <trkpt lat="47.43897" lon="6.53144">
        <ele>280.7</ele>
        <time>2019-08-17T08:46:07Z</time>
      </trkpt>
      <trkpt lat="47.43893" lon="6.53144">
        <ele>280.7</ele>
        <time>2019-08-17T08:46:08Z</time>
      </trkpt>
      <trkpt lat="47.43888" lon="6.53144">
        <ele>280.7</ele>
        <time>2019-08-17T08:46:09Z</time>
      </trkpt>
      <trkpt lat="47.43883" lon="6.53143">
        <ele>280.7</ele>
        <time>2019-08-17T08:46:10Z</time>
      </trkpt>
      <trkpt lat="47.43878" lon="6.53143">
        <ele>280.7</ele>
        <time>2019-08-17T08:46:11Z</time>
      </trkpt>
      <trkpt lat="47.43872" lon="6.53142">
        <ele>280.7</ele>
        <time>2019-08-17T08:46:12Z</time>
      </trkpt>
      <trkpt lat="47.43865" lon="6.53143">
        <ele>280.6</ele>
        <time>2019-08-17T08:46:13Z</time>
      </trkpt>
      <trkpt lat="47.43858" lon="6.53144">
        <ele>280.6</ele>
        <time>2019-08-17T08:46:14Z</time>
      </trkpt>
      <trkpt lat="47.43849" lon="6.53143">
        <ele>280.6</ele>
        <time>2019-08-17T08:46:15Z</time>
      </trkpt>
      <trkpt lat="47.43841" lon="6.53143">
        <ele>280.6</ele>
        <time>2019-08-17T08:46:16Z</time>
      </trkpt>
      <trkpt lat="47.43834" lon="6.53143">
        <ele>280.6</ele>
        <time>2019-08-17T08:46:17Z</time>
      </trkpt>
      <trkpt lat="47.43826" lon="6.53144">
        <ele>280.6</ele>
        <time>2019-08-17T08:46:18Z</time>
      </trkpt>
      <trkpt lat="47.43818" lon="6.53145">
        <ele>280.7</ele>
        <time>2019-08-17T08:46:19Z</time>
      </trkpt>
      <trkpt lat="47.43811" lon="6.53145">
        <ele>280.7</ele>
        <time>2019-08-17T08:46:20Z</time>
      </trkpt>
      <trkpt lat="47.43806" lon="6.53145">
        <ele>280.7</ele>
        <time>2019-08-17T08:46:21Z</time>
      </trkpt>
      <trkpt lat="47.43801" lon="6.53144">
        <ele>280.7</ele>
        <time>2019-08-17T08:46:22Z</time>
      </trkpt>
      <trkpt lat="47.43795" lon="6.53145">
        <ele>280.7</ele>
        <time>2019-08-17T08:46:23Z</time>
      </trkpt>
      <trkpt lat="47.4379" lon="6.53145">
        <ele>280.7</ele>
        <time>2019-08-17T08:46:24Z</time>
      </trkpt>
      <trkpt lat="47.43785" lon="6.53143">
        <ele>280.7</ele>
        <time>2019-08-17T08:46:25Z</time>
      </trkpt>
      <trkpt lat="47.4378" lon="6.53142">
        <ele>280.7</ele>
        <time>2019-08-17T08:46:26Z</time>
      </trkpt>
      <trkpt lat="47.43773" lon="6.53142">
        <ele>280.7</ele>
        <time>2019-08-17T08:46:27Z</time>
      </trkpt>
      <trkpt lat="47.43767" lon="6.53141">
        <ele>280.7</ele>
        <time>2019-08-17T08:46:28Z</time>
      </trkpt>
      <trkpt lat="47.43761" lon="6.53141">
        <ele>280.7</ele>
        <time>2019-08-17T08:46:29Z</time>
      </trkpt>
      <trkpt lat="47.43755" lon="6.5314">
        <ele>280.6</ele>
        <time>2019-08-17T08:46:30Z</time>
      </trkpt>
      <trkpt lat="47.4375" lon="6.53139">
        <ele>280.6</ele>
        <time>2019-08-17T08:46:31Z</time>
      </trkpt>
      <trkpt lat="47.43746" lon="6.53138">
        <ele>280.6</ele>
        <time>2019-08-17T08:46:32Z</time>
      </trkpt>
      <trkpt lat="47.43741" lon="6.53138">
        <ele>280.5</ele>
        <time>2019-08-17T08:46:33Z</time>
      </trkpt>
      <trkpt lat="47.43735" lon="6.53139">
        <ele>280.5</ele>
        <time>2019-08-17T08:46:34Z</time>
      </trkpt>
      <trkpt lat="47.43729" lon="6.53141">
        <ele>280.4</ele>
        <time>2019-08-17T08:46:35Z</time>
      </trkpt>
      <trkpt lat="47.43723" lon="6.53142">
        <ele>280.4</ele>
        <time>2019-08-17T08:46:36Z</time>
      </trkpt>
      <trkpt lat="47.43717" lon="6.53144">
        <ele>280.3</ele>
        <time>2019-08-17T08:46:37Z</time>
      </trkpt>
      <trkpt lat="47.43712" lon="6.53146">
        <ele>280.3</ele>
        <time>2019-08-17T08:46:38Z</time>
      </trkpt>
      <trkpt lat="47.43707" lon="6.53147">
        <ele>280.2</ele>
        <time>2019-08-17T08:46:39Z</time>
      </trkpt>
      <trkpt lat="47.43701" lon="6.53148">
        <ele>280.2</ele>
        <time>2019-08-17T08:46:40Z</time>
      </trkpt>
      <trkpt lat="47.43696" lon="6.53149">
        <ele>280.1</ele>
        <time>2019-08-17T08:46:41Z</time>
      </trkpt>
      <trkpt lat="47.43689" lon="6.5315">
        <ele>280.1</ele>
        <time>2019-08-17T08:46:42Z</time>
      </trkpt>
      <trkpt lat="47.43683" lon="6.53151">
        <ele>280.1</ele>
        <time>2019-08-17T08:46:43Z</time>
      </trkpt>
      <trkpt lat="47.43676" lon="6.53152">
        <ele>280.1</ele>
        <time>2019-08-17T08:46:44Z</time>
      </trkpt>
      <trkpt lat="47.4367" lon="6.53153">
        <ele>280.2</ele>
        <time>2019-08-17T08:46:45Z</time>
      </trkpt>
      <trkpt lat="47.43665" lon="6.53155">
        <ele>280.2</ele>
        <time>2019-08-17T08:46:46Z</time>
      </trkpt>
      <trkpt lat="47.4366" lon="6.53155">
        <ele>280.2</ele>
        <time>2019-08-17T08:46:47Z</time>
      </trkpt>
      <trkpt lat="47.43655" lon="6.53156">
        <ele>280.2</ele>
        <time>2019-08-17T08:46:48Z</time>
      </trkpt>
      <trkpt lat="47.43649" lon="6.53156">
        <ele>280.3</ele>
        <time>2019-08-17T08:46:49Z</time>
      </trkpt>
      <trkpt lat="47.43643" lon="6.53157">
        <ele>280.3</ele>
        <time>2019-08-17T08:46:50Z</time>
      </trkpt>
      <trkpt lat="47.43638" lon="6.53158">
        <ele>280.4</ele>
        <time>2019-08-17T08:46:51Z</time>
      </trkpt>
      <trkpt lat="47.43634" lon="6.53158">
        <ele>280.4</ele>
        <time>2019-08-17T08:46:52Z</time>
      </trkpt>
      <trkpt lat="47.43629" lon="6.53156">
        <ele>280.4</ele>
        <time>2019-08-17T08:46:53Z</time>
      </trkpt>
      <trkpt lat="47.43625" lon="6.53154">
        <ele>280.5</ele>
        <time>2019-08-17T08:46:54Z</time>
      </trkpt>
      <trkpt lat="47.43621" lon="6.53152">
        <ele>280.5</ele>
        <time>2019-08-17T08:46:55Z</time>
      </trkpt>
      <trkpt lat="47.43616" lon="6.5315">
        <ele>280.6</ele>
        <time>2019-08-17T08:46:56Z</time>
      </trkpt>
      <trkpt lat="47.43612" lon="6.53148">
        <ele>280.6</ele>
        <time>2019-08-17T08:46:57Z</time>
      </trkpt>
      <trkpt lat="47.43607" lon="6.53146">
        <ele>280.6</ele>
        <time>2019-08-17T08:46:58Z</time>
      </trkpt>
      <trkpt lat="47.43604" lon="6.53145">
        <ele>280.6</ele>
        <time>2019-08-17T08:46:59Z</time>
      </trkpt>
      <trkpt lat="47.436" lon="6.53145">
        <ele>280.6</ele>
        <time>2019-08-17T08:47:00Z</time>
      </trkpt>
      <trkpt lat="47.43595" lon="6.53147">
        <ele>280.6</ele>
        <time>2019-08-17T08:47:01Z</time>
      </trkpt>
      <trkpt lat="47.4359" lon="6.53148">
        <ele>280.7</ele>
        <time>2019-08-17T08:47:02Z</time>
      </trkpt>
      <trkpt lat="47.43585" lon="6.53149">
        <ele>280.7</ele>
        <time>2019-08-17T08:47:03Z</time>
      </trkpt>
      <trkpt lat="47.43575" lon="6.53151">
        <ele>280.6</ele>
        <time>2019-08-17T08:47:04Z</time>
      </trkpt>
      <trkpt lat="47.43568" lon="6.53153">
        <ele>280.6</ele>
        <time>2019-08-17T08:47:05Z</time>
      </trkpt>
      <trkpt lat="47.4356" lon="6.53157">
        <ele>280.4</ele>
        <time>2019-08-17T08:47:06Z</time>
      </trkpt>
      <trkpt lat="47.43553" lon="6.53165">
        <ele>280.3</ele>
        <time>2019-08-17T08:47:07Z</time>
      </trkpt>
      <trkpt lat="47.43547" lon="6.53169">
        <ele>280.2</ele>
        <time>2019-08-17T08:47:08Z</time>
      </trkpt>
      <trkpt lat="47.4354" lon="6.53172">
        <ele>280.1</ele>
        <time>2019-08-17T08:47:09Z</time>
      </trkpt>
      <trkpt lat="47.43534" lon="6.53175">
        <ele>280</ele>
        <time>2019-08-17T08:47:10Z</time>
      </trkpt>
      <trkpt lat="47.43529" lon="6.53178">
        <ele>279.9</ele>
        <time>2019-08-17T08:47:11Z</time>
      </trkpt>
      <trkpt lat="47.43524" lon="6.5318">
        <ele>279.8</ele>
        <time>2019-08-17T08:47:12Z</time>
      </trkpt>
      <trkpt lat="47.43518" lon="6.53181">
        <ele>279.7</ele>
        <time>2019-08-17T08:47:13Z</time>
      </trkpt>
      <trkpt lat="47.43513" lon="6.53183">
        <ele>279.7</ele>
        <time>2019-08-17T08:47:14Z</time>
      </trkpt>
      <trkpt lat="47.43507" lon="6.53183">
        <ele>279.6</ele>
        <time>2019-08-17T08:47:15Z</time>
      </trkpt>
      <trkpt lat="47.43501" lon="6.53184">
        <ele>279.5</ele>
        <time>2019-08-17T08:47:16Z</time>
      </trkpt>
      <trkpt lat="47.43496" lon="6.53183">
        <ele>279.5</ele>
        <time>2019-08-17T08:47:17Z</time>
      </trkpt>
      <trkpt lat="47.4349" lon="6.53183">
        <ele>279.4</ele>
        <time>2019-08-17T08:47:18Z</time>
      </trkpt>
      <trkpt lat="47.43484" lon="6.53183">
        <ele>279.4</ele>
        <time>2019-08-17T08:47:19Z</time>
      </trkpt>
      <trkpt lat="47.43478" lon="6.53183">
        <ele>279.3</ele>
        <time>2019-08-17T08:47:20Z</time>
      </trkpt>
      <trkpt lat="47.43473" lon="6.53184">
        <ele>279.3</ele>
        <time>2019-08-17T08:47:21Z</time>
      </trkpt>
      <trkpt lat="47.43468" lon="6.53184">
        <ele>279.3</ele>
        <time>2019-08-17T08:47:22Z</time>
      </trkpt>
      <trkpt lat="47.43464" lon="6.53185">
        <ele>279.3</ele>
        <time>2019-08-17T08:47:23Z</time>
      </trkpt>
      <trkpt lat="47.4346" lon="6.53185">
        <ele>279.2</ele>
        <time>2019-08-17T08:47:24Z</time>
      </trkpt>
      <trkpt lat="47.43455" lon="6.53186">
        <ele>279.2</ele>
        <time>2019-08-17T08:47:25Z</time>
      </trkpt>
      <trkpt lat="47.43451" lon="6.53188">
        <ele>279.2</ele>
        <time>2019-08-17T08:47:26Z</time>
      </trkpt>
      <trkpt lat="47.43447" lon="6.53189">
        <ele>279.2</ele>
        <time>2019-08-17T08:47:27Z</time>
      </trkpt>
      <trkpt lat="47.43443" lon="6.53191">
        <ele>279.2</ele>
        <time>2019-08-17T08:47:28Z</time>
      </trkpt>
      <trkpt lat="47.43439" lon="6.53194">
        <ele>279.2</ele>
        <time>2019-08-17T08:47:29Z</time>
      </trkpt>
      <trkpt lat="47.43433" lon="6.53196">
        <ele>279.2</ele>
        <time>2019-08-17T08:47:30Z</time>
      </trkpt>
      <trkpt lat="47.43427" lon="6.53198">
        <ele>279.2</ele>
        <time>2019-08-17T08:47:31Z</time>
      </trkpt>
      <trkpt lat="47.43422" lon="6.532">
        <ele>279.2</ele>
        <time>2019-08-17T08:47:32Z</time>
      </trkpt>
      <trkpt lat="47.43417" lon="6.53203">
        <ele>279.1</ele>
        <time>2019-08-17T08:47:33Z</time>
      </trkpt>
      <trkpt lat="47.43413" lon="6.53206">
        <ele>279.1</ele>
        <time>2019-08-17T08:47:34Z</time>
      </trkpt>
      <trkpt lat="47.43408" lon="6.53209">
        <ele>279.1</ele>
        <time>2019-08-17T08:47:35Z</time>
      </trkpt>
      <trkpt lat="47.43401" lon="6.53213">
        <ele>279.1</ele>
        <time>2019-08-17T08:47:36Z</time>
      </trkpt>
      <trkpt lat="47.43396" lon="6.53217">
        <ele>279.1</ele>
        <time>2019-08-17T08:47:37Z</time>
      </trkpt>
      <trkpt lat="47.43387" lon="6.53219">
        <ele>279.1</ele>
        <time>2019-08-17T08:47:38Z</time>
      </trkpt>
      <trkpt lat="47.43378" lon="6.53222">
        <ele>279.1</ele>
        <time>2019-08-17T08:47:39Z</time>
      </trkpt>
      <trkpt lat="47.43369" lon="6.53226">
        <ele>279</ele>
        <time>2019-08-17T08:47:40Z</time>
      </trkpt>
      <trkpt lat="47.43361" lon="6.5323">
        <ele>279</ele>
        <time>2019-08-17T08:47:41Z</time>
      </trkpt>
      <trkpt lat="47.43353" lon="6.53235">
        <ele>279</ele>
        <time>2019-08-17T08:47:42Z</time>
      </trkpt>
      <trkpt lat="47.43347" lon="6.53239">
        <ele>279</ele>
        <time>2019-08-17T08:47:43Z</time>
      </trkpt>
      <trkpt lat="47.4334" lon="6.53245">
        <ele>278.9</ele>
        <time>2019-08-17T08:47:44Z</time>
      </trkpt>
      <trkpt lat="47.43335" lon="6.5325">
        <ele>278.9</ele>
        <time>2019-08-17T08:47:45Z</time>
      </trkpt>
      <trkpt lat="47.43329" lon="6.53255">
        <ele>278.9</ele>
        <time>2019-08-17T08:47:46Z</time>
      </trkpt>
      <trkpt lat="47.43323" lon="6.5326">
        <ele>279</ele>
        <time>2019-08-17T08:47:47Z</time>
      </trkpt>
      <trkpt lat="47.43317" lon="6.53265">
        <ele>279</ele>
        <time>2019-08-17T08:47:48Z</time>
      </trkpt>
      <trkpt lat="47.43312" lon="6.53269">
        <ele>279</ele>
        <time>2019-08-17T08:47:49Z</time>
      </trkpt>
      <trkpt lat="47.43307" lon="6.53272">
        <ele>279</ele>
        <time>2019-08-17T08:47:50Z</time>
      </trkpt>
      <trkpt lat="47.43302" lon="6.53277">
        <ele>279</ele>
        <time>2019-08-17T08:47:51Z</time>
      </trkpt>
      <trkpt lat="47.43298" lon="6.5328">
        <ele>279</ele>
        <time>2019-08-17T08:47:52Z</time>
      </trkpt>
      <trkpt lat="47.43292" lon="6.53284">
        <ele>279</ele>
        <time>2019-08-17T08:47:53Z</time>
      </trkpt>
      <trkpt lat="47.43286" lon="6.53289">
        <ele>279</ele>
        <time>2019-08-17T08:47:54Z</time>
      </trkpt>
      <trkpt lat="47.43281" lon="6.53292">
        <ele>279</ele>
        <time>2019-08-17T08:47:55Z</time>
      </trkpt>
      <trkpt lat="47.43275" lon="6.53297">
        <ele>279.1</ele>
        <time>2019-08-17T08:47:56Z</time>
      </trkpt>
      <trkpt lat="47.43269" lon="6.53302">
        <ele>279.1</ele>
        <time>2019-08-17T08:47:57Z</time>
      </trkpt>
      <trkpt lat="47.43264" lon="6.53307">
        <ele>279.1</ele>
        <time>2019-08-17T08:47:58Z</time>
      </trkpt>
      <trkpt lat="47.43258" lon="6.53311">
        <ele>279.1</ele>
        <time>2019-08-17T08:47:59Z</time>
      </trkpt>
      <trkpt lat="47.43254" lon="6.53315">
        <ele>279.1</ele>
        <time>2019-08-17T08:48:00Z</time>
      </trkpt>
      <trkpt lat="47.43249" lon="6.53318">
        <ele>279.1</ele>
        <time>2019-08-17T08:48:01Z</time>
      </trkpt>
      <trkpt lat="47.43244" lon="6.53322">
        <ele>279.1</ele>
        <time>2019-08-17T08:48:02Z</time>
      </trkpt>
      <trkpt lat="47.4324" lon="6.53326">
        <ele>279.1</ele>
        <time>2019-08-17T08:48:03Z</time>
      </trkpt>
      <trkpt lat="47.43236" lon="6.53329">
        <ele>279.1</ele>
        <time>2019-08-17T08:48:04Z</time>
      </trkpt>
      <trkpt lat="47.43232" lon="6.53333">
        <ele>279.1</ele>
        <time>2019-08-17T08:48:05Z</time>
      </trkpt>
      <trkpt lat="47.43229" lon="6.53337">
        <ele>279.1</ele>
        <time>2019-08-17T08:48:06Z</time>
      </trkpt>
      <trkpt lat="47.43225" lon="6.53342">
        <ele>279.1</ele>
        <time>2019-08-17T08:48:07Z</time>
      </trkpt>
      <trkpt lat="47.43221" lon="6.53347">
        <ele>279.1</ele>
        <time>2019-08-17T08:48:08Z</time>
      </trkpt>
      <trkpt lat="47.43217" lon="6.53353">
        <ele>279.2</ele>
        <time>2019-08-17T08:48:09Z</time>
      </trkpt>
      <trkpt lat="47.43214" lon="6.53357">
        <ele>279.2</ele>
        <time>2019-08-17T08:48:10Z</time>
      </trkpt>
      <trkpt lat="47.43211" lon="6.53363">
        <ele>279.2</ele>
        <time>2019-08-17T08:48:11Z</time>
      </trkpt>
      <trkpt lat="47.43208" lon="6.53367">
        <ele>279.2</ele>
        <time>2019-08-17T08:48:12Z</time>
      </trkpt>
      <trkpt lat="47.43204" lon="6.53372">
        <ele>279.2</ele>
        <time>2019-08-17T08:48:13Z</time>
      </trkpt>
      <trkpt lat="47.432" lon="6.53377">
        <ele>279.2</ele>
        <time>2019-08-17T08:48:14Z</time>
      </trkpt>
      <trkpt lat="47.43197" lon="6.53384">
        <ele>279.2</ele>
        <time>2019-08-17T08:48:15Z</time>
      </trkpt>
      <trkpt lat="47.43193" lon="6.53389">
        <ele>279.2</ele>
        <time>2019-08-17T08:48:16Z</time>
      </trkpt>
      <trkpt lat="47.4319" lon="6.53394">
        <ele>279.3</ele>
        <time>2019-08-17T08:48:17Z</time>
      </trkpt>
      <trkpt lat="47.43187" lon="6.534">
        <ele>279.3</ele>
        <time>2019-08-17T08:48:18Z</time>
      </trkpt>
      <trkpt lat="47.43185" lon="6.53406">
        <ele>279.3</ele>
        <time>2019-08-17T08:48:19Z</time>
      </trkpt>
      <trkpt lat="47.43182" lon="6.53413">
        <ele>279.3</ele>
        <time>2019-08-17T08:48:20Z</time>
      </trkpt>
      <trkpt lat="47.43179" lon="6.53418">
        <ele>279.4</ele>
        <time>2019-08-17T08:48:21Z</time>
      </trkpt>
      <trkpt lat="47.43175" lon="6.53424">
        <ele>279.4</ele>
        <time>2019-08-17T08:48:22Z</time>
      </trkpt>
      <trkpt lat="47.43172" lon="6.5343">
        <ele>279.4</ele>
        <time>2019-08-17T08:48:23Z</time>
      </trkpt>
      <trkpt lat="47.43168" lon="6.53436">
        <ele>279.5</ele>
        <time>2019-08-17T08:48:24Z</time>
      </trkpt>
      <trkpt lat="47.43163" lon="6.53442">
        <ele>279.5</ele>
        <time>2019-08-17T08:48:25Z</time>
      </trkpt>
      <trkpt lat="47.43159" lon="6.53449">
        <ele>279.6</ele>
        <time>2019-08-17T08:48:26Z</time>
      </trkpt>
      <trkpt lat="47.43155" lon="6.53455">
        <ele>279.6</ele>
        <time>2019-08-17T08:48:27Z</time>
      </trkpt>
      <trkpt lat="47.43151" lon="6.53462">
        <ele>279.7</ele>
        <time>2019-08-17T08:48:28Z</time>
      </trkpt>
      <trkpt lat="47.43147" lon="6.53468">
        <ele>279.7</ele>
        <time>2019-08-17T08:48:29Z</time>
      </trkpt>
      <trkpt lat="47.43143" lon="6.53474">
        <ele>279.7</ele>
        <time>2019-08-17T08:48:30Z</time>
      </trkpt>
      <trkpt lat="47.4314" lon="6.5348">
        <ele>279.7</ele>
        <time>2019-08-17T08:48:31Z</time>
      </trkpt>
      <trkpt lat="47.43137" lon="6.53487">
        <ele>279.7</ele>
        <time>2019-08-17T08:48:32Z</time>
      </trkpt>
      <trkpt lat="47.43134" lon="6.53493">
        <ele>279.7</ele>
        <time>2019-08-17T08:48:33Z</time>
      </trkpt>
      <trkpt lat="47.4313" lon="6.53498">
        <ele>279.7</ele>
        <time>2019-08-17T08:48:34Z</time>
      </trkpt>
      <trkpt lat="47.43127" lon="6.53504">
        <ele>279.7</ele>
        <time>2019-08-17T08:48:35Z</time>
      </trkpt>
      <trkpt lat="47.43122" lon="6.53509">
        <ele>279.7</ele>
        <time>2019-08-17T08:48:36Z</time>
      </trkpt>
      <trkpt lat="47.43117" lon="6.53512">
        <ele>279.7</ele>
        <time>2019-08-17T08:48:37Z</time>
      </trkpt>
      <trkpt lat="47.43112" lon="6.53516">
        <ele>279.7</ele>
        <time>2019-08-17T08:48:38Z</time>
      </trkpt>
      <trkpt lat="47.43108" lon="6.53521">
        <ele>279.7</ele>
        <time>2019-08-17T08:48:39Z</time>
      </trkpt>
      <trkpt lat="47.43103" lon="6.53526">
        <ele>279.7</ele>
        <time>2019-08-17T08:48:40Z</time>
      </trkpt>
      <trkpt lat="47.43098" lon="6.5353">
        <ele>279.7</ele>
        <time>2019-08-17T08:48:41Z</time>
      </trkpt>
      <trkpt lat="47.43093" lon="6.53534">
        <ele>279.7</ele>
        <time>2019-08-17T08:48:42Z</time>
      </trkpt>
      <trkpt lat="47.4309" lon="6.5354">
        <ele>279.7</ele>
        <time>2019-08-17T08:48:43Z</time>
      </trkpt>
      <trkpt lat="47.43086" lon="6.53545">
        <ele>279.7</ele>
        <time>2019-08-17T08:48:44Z</time>
      </trkpt>
      <trkpt lat="47.43082" lon="6.53551">
        <ele>279.7</ele>
        <time>2019-08-17T08:48:45Z</time>
      </trkpt>
      <trkpt lat="47.43079" lon="6.53557">
        <ele>279.7</ele>
        <time>2019-08-17T08:48:46Z</time>
      </trkpt>
      <trkpt lat="47.43076" lon="6.53563">
        <ele>279.7</ele>
        <time>2019-08-17T08:48:47Z</time>
      </trkpt>
      <trkpt lat="47.43074" lon="6.5357">
        <ele>279.6</ele>
        <time>2019-08-17T08:48:48Z</time>
      </trkpt>
      <trkpt lat="47.43071" lon="6.53577">
        <ele>279.6</ele>
        <time>2019-08-17T08:48:49Z</time>
      </trkpt>
      <trkpt lat="47.43068" lon="6.53583">
        <ele>279.6</ele>
        <time>2019-08-17T08:48:50Z</time>
      </trkpt>
      <trkpt lat="47.43065" lon="6.53589">
        <ele>279.6</ele>
        <time>2019-08-17T08:48:51Z</time>
      </trkpt>
      <trkpt lat="47.43061" lon="6.53595">
        <ele>279.5</ele>
        <time>2019-08-17T08:48:52Z</time>
      </trkpt>
      <trkpt lat="47.43058" lon="6.53601">
        <ele>279.5</ele>
        <time>2019-08-17T08:48:53Z</time>
      </trkpt>
      <trkpt lat="47.43054" lon="6.53606">
        <ele>279.4</ele>
        <time>2019-08-17T08:48:54Z</time>
      </trkpt>
      <trkpt lat="47.4305" lon="6.53612">
        <ele>279.4</ele>
        <time>2019-08-17T08:48:55Z</time>
      </trkpt>
      <trkpt lat="47.43046" lon="6.53618">
        <ele>279.3</ele>
        <time>2019-08-17T08:48:56Z</time>
      </trkpt>
      <trkpt lat="47.43042" lon="6.53624">
        <ele>279.3</ele>
        <time>2019-08-17T08:48:57Z</time>
      </trkpt>
      <trkpt lat="47.43038" lon="6.5363">
        <ele>279.2</ele>
        <time>2019-08-17T08:48:58Z</time>
      </trkpt>
      <trkpt lat="47.43034" lon="6.53636">
        <ele>279.2</ele>
        <time>2019-08-17T08:48:59Z</time>
      </trkpt>
      <trkpt lat="47.4303" lon="6.53644">
        <ele>279.1</ele>
        <time>2019-08-17T08:49:00Z</time>
      </trkpt>
      <trkpt lat="47.43027" lon="6.53652">
        <ele>279.1</ele>
        <time>2019-08-17T08:49:01Z</time>
      </trkpt>
      <trkpt lat="47.43023" lon="6.53659">
        <ele>279.1</ele>
        <time>2019-08-17T08:49:02Z</time>
      </trkpt>
      <trkpt lat="47.43017" lon="6.53667">
        <ele>279.1</ele>
        <time>2019-08-17T08:49:03Z</time>
      </trkpt>
      <trkpt lat="47.43012" lon="6.53674">
        <ele>279.1</ele>
        <time>2019-08-17T08:49:04Z</time>
      </trkpt>
      <trkpt lat="47.43008" lon="6.5368">
        <ele>279.1</ele>
        <time>2019-08-17T08:49:05Z</time>
      </trkpt>
      <trkpt lat="47.43003" lon="6.53688">
        <ele>279.2</ele>
        <time>2019-08-17T08:49:06Z</time>
      </trkpt>
      <trkpt lat="47.42999" lon="6.53696">
        <ele>279.2</ele>
        <time>2019-08-17T08:49:07Z</time>
      </trkpt>
      <trkpt lat="47.42995" lon="6.53702">
        <ele>279.3</ele>
        <time>2019-08-17T08:49:08Z</time>
      </trkpt>
      <trkpt lat="47.42991" lon="6.53708">
        <ele>279.3</ele>
        <time>2019-08-17T08:49:09Z</time>
      </trkpt>
      <trkpt lat="47.42987" lon="6.53714">
        <ele>279.4</ele>
        <time>2019-08-17T08:49:10Z</time>
      </trkpt>
      <trkpt lat="47.42985" lon="6.5372">
        <ele>279.5</ele>
        <time>2019-08-17T08:49:11Z</time>
      </trkpt>
      <trkpt lat="47.42981" lon="6.53726">
        <ele>279.5</ele>
        <time>2019-08-17T08:49:12Z</time>
      </trkpt>
      <trkpt lat="47.42978" lon="6.53733">
        <ele>279.6</ele>
        <time>2019-08-17T08:49:13Z</time>
      </trkpt>
      <trkpt lat="47.42975" lon="6.53739">
        <ele>279.7</ele>
        <time>2019-08-17T08:49:14Z</time>
      </trkpt>
      <trkpt lat="47.42972" lon="6.53746">
        <ele>279.7</ele>
        <time>2019-08-17T08:49:15Z</time>
      </trkpt>
      <trkpt lat="47.42968" lon="6.53752">
        <ele>279.7</ele>
        <time>2019-08-17T08:49:16Z</time>
      </trkpt>
      <trkpt lat="47.42966" lon="6.53758">
        <ele>279.8</ele>
        <time>2019-08-17T08:49:17Z</time>
      </trkpt>
      <trkpt lat="47.42963" lon="6.53765">
        <ele>279.8</ele>
        <time>2019-08-17T08:49:18Z</time>
      </trkpt>
      <trkpt lat="47.4296" lon="6.53771">
        <ele>279.8</ele>
        <time>2019-08-17T08:49:19Z</time>
      </trkpt>
      <trkpt lat="47.42957" lon="6.53778">
        <ele>279.8</ele>
        <time>2019-08-17T08:49:20Z</time>
      </trkpt>
      <trkpt lat="47.42954" lon="6.53785">
        <ele>279.8</ele>
        <time>2019-08-17T08:49:21Z</time>
      </trkpt>
      <trkpt lat="47.42952" lon="6.53794">
        <ele>279.8</ele>
        <time>2019-08-17T08:49:22Z</time>
      </trkpt>
      <trkpt lat="47.4295" lon="6.53802">
        <ele>279.8</ele>
        <time>2019-08-17T08:49:23Z</time>
      </trkpt>
      <trkpt lat="47.42948" lon="6.53809">
        <ele>279.8</ele>
        <time>2019-08-17T08:49:24Z</time>
      </trkpt>
      <trkpt lat="47.42946" lon="6.53817">
        <ele>279.7</ele>
        <time>2019-08-17T08:49:25Z</time>
      </trkpt>
      <trkpt lat="47.42943" lon="6.53824">
        <ele>279.7</ele>
        <time>2019-08-17T08:49:26Z</time>
      </trkpt>
      <trkpt lat="47.4294" lon="6.53831">
        <ele>279.6</ele>
        <time>2019-08-17T08:49:27Z</time>
      </trkpt>
      <trkpt lat="47.42937" lon="6.53838">
        <ele>279.6</ele>
        <time>2019-08-17T08:49:28Z</time>
      </trkpt>
      <trkpt lat="47.42934" lon="6.53844">
        <ele>279.6</ele>
        <time>2019-08-17T08:49:29Z</time>
      </trkpt>
      <trkpt lat="47.42931" lon="6.53851">
        <ele>279.5</ele>
        <time>2019-08-17T08:49:30Z</time>
      </trkpt>
      <trkpt lat="47.42928" lon="6.53859">
        <ele>279.5</ele>
        <time>2019-08-17T08:49:31Z</time>
      </trkpt>
      <trkpt lat="47.42924" lon="6.53866">
        <ele>279.4</ele>
        <time>2019-08-17T08:49:32Z</time>
      </trkpt>
      <trkpt lat="47.42921" lon="6.53873">
        <ele>279.4</ele>
        <time>2019-08-17T08:49:33Z</time>
      </trkpt>
      <trkpt lat="47.42918" lon="6.5388">
        <ele>279.4</ele>
        <time>2019-08-17T08:49:34Z</time>
      </trkpt>
      <trkpt lat="47.42915" lon="6.53888">
        <ele>279.4</ele>
        <time>2019-08-17T08:49:35Z</time>
      </trkpt>
      <trkpt lat="47.42913" lon="6.53895">
        <ele>279.4</ele>
        <time>2019-08-17T08:49:36Z</time>
      </trkpt>
      <trkpt lat="47.42911" lon="6.53902">
        <ele>279.4</ele>
        <time>2019-08-17T08:49:37Z</time>
      </trkpt>
      <trkpt lat="47.42909" lon="6.5391">
        <ele>279.4</ele>
        <time>2019-08-17T08:49:38Z</time>
      </trkpt>
      <trkpt lat="47.42907" lon="6.53918">
        <ele>279.4</ele>
        <time>2019-08-17T08:49:39Z</time>
      </trkpt>
      <trkpt lat="47.42905" lon="6.53925">
        <ele>279.4</ele>
        <time>2019-08-17T08:49:40Z</time>
      </trkpt>
      <trkpt lat="47.42903" lon="6.53932">
        <ele>279.4</ele>
        <time>2019-08-17T08:49:41Z</time>
      </trkpt>
      <trkpt lat="47.429" lon="6.53939">
        <ele>279.4</ele>
        <time>2019-08-17T08:49:42Z</time>
      </trkpt>
      <trkpt lat="47.42897" lon="6.53947">
        <ele>279.4</ele>
        <time>2019-08-17T08:49:43Z</time>
      </trkpt>
      <trkpt lat="47.42895" lon="6.53955">
        <ele>279.4</ele>
        <time>2019-08-17T08:49:44Z</time>
      </trkpt>
      <trkpt lat="47.42891" lon="6.53961">
        <ele>279.4</ele>
        <time>2019-08-17T08:49:45Z</time>
      </trkpt>
      <trkpt lat="47.42888" lon="6.53967">
        <ele>279.4</ele>
        <time>2019-08-17T08:49:46Z</time>
      </trkpt>
      <trkpt lat="47.42884" lon="6.53973">
        <ele>279.4</ele>
        <time>2019-08-17T08:49:47Z</time>
      </trkpt>
      <trkpt lat="47.4288" lon="6.53978">
        <ele>279.4</ele>
        <time>2019-08-17T08:49:48Z</time>
      </trkpt>
      <trkpt lat="47.42876" lon="6.53983">
        <ele>279.4</ele>
        <time>2019-08-17T08:49:49Z</time>
      </trkpt>
      <trkpt lat="47.42872" lon="6.53988">
        <ele>279.3</ele>
        <time>2019-08-17T08:49:50Z</time>
      </trkpt>
      <trkpt lat="47.42868" lon="6.53994">
        <ele>279.3</ele>
        <time>2019-08-17T08:49:51Z</time>
      </trkpt>
      <trkpt lat="47.42865" lon="6.54">
        <ele>279.3</ele>
        <time>2019-08-17T08:49:52Z</time>
      </trkpt>
      <trkpt lat="47.42862" lon="6.54006">
        <ele>279.2</ele>
        <time>2019-08-17T08:49:53Z</time>
      </trkpt>
      <trkpt lat="47.42859" lon="6.54013">
        <ele>279.2</ele>
        <time>2019-08-17T08:49:54Z</time>
      </trkpt>
      <trkpt lat="47.42856" lon="6.5402">
        <ele>279.2</ele>
        <time>2019-08-17T08:49:55Z</time>
      </trkpt>
      <trkpt lat="47.42853" lon="6.54028">
        <ele>279.1</ele>
        <time>2019-08-17T08:49:56Z</time>
      </trkpt>
      <trkpt lat="47.42849" lon="6.54036">
        <ele>279.1</ele>
        <time>2019-08-17T08:49:57Z</time>
      </trkpt>
      <trkpt lat="47.42846" lon="6.54044">
        <ele>279</ele>
        <time>2019-08-17T08:49:58Z</time>
      </trkpt>
      <trkpt lat="47.42843" lon="6.54051">
        <ele>279</ele>
        <time>2019-08-17T08:49:59Z</time>
      </trkpt>
      <trkpt lat="47.42841" lon="6.54059">
        <ele>278.9</ele>
        <time>2019-08-17T08:50:00Z</time>
      </trkpt>
      <trkpt lat="47.42839" lon="6.54065">
        <ele>278.9</ele>
        <time>2019-08-17T08:50:01Z</time>
      </trkpt>
      <trkpt lat="47.42837" lon="6.54071">
        <ele>278.9</ele>
        <time>2019-08-17T08:50:02Z</time>
      </trkpt>
      <trkpt lat="47.42834" lon="6.54077">
        <ele>278.9</ele>
        <time>2019-08-17T08:50:03Z</time>
      </trkpt>
      <trkpt lat="47.42832" lon="6.54083">
        <ele>278.9</ele>
        <time>2019-08-17T08:50:04Z</time>
      </trkpt>
      <trkpt lat="47.4283" lon="6.5409">
        <ele>278.9</ele>
        <time>2019-08-17T08:50:05Z</time>
      </trkpt>
      <trkpt lat="47.42827" lon="6.54097">
        <ele>278.9</ele>
        <time>2019-08-17T08:50:06Z</time>
      </trkpt>
      <trkpt lat="47.42825" lon="6.54104">
        <ele>278.9</ele>
        <time>2019-08-17T08:50:07Z</time>
      </trkpt>
      <trkpt lat="47.42822" lon="6.5411">
        <ele>278.9</ele>
        <time>2019-08-17T08:50:08Z</time>
      </trkpt>
      <trkpt lat="47.42819" lon="6.54116">
        <ele>278.9</ele>
        <time>2019-08-17T08:50:09Z</time>
      </trkpt>
      <trkpt lat="47.42815" lon="6.54123">
        <ele>279</ele>
        <time>2019-08-17T08:50:10Z</time>
      </trkpt>
      <trkpt lat="47.42811" lon="6.5413">
        <ele>279</ele>
        <time>2019-08-17T08:50:11Z</time>
      </trkpt>
      <trkpt lat="47.42808" lon="6.54139">
        <ele>279</ele>
        <time>2019-08-17T08:50:12Z</time>
      </trkpt>
      <trkpt lat="47.42806" lon="6.54147">
        <ele>279</ele>
        <time>2019-08-17T08:50:13Z</time>
      </trkpt>
      <trkpt lat="47.42803" lon="6.54158">
        <ele>279</ele>
        <time>2019-08-17T08:50:14Z</time>
      </trkpt>
      <trkpt lat="47.428" lon="6.54168">
        <ele>279</ele>
        <time>2019-08-17T08:50:15Z</time>
      </trkpt>
      <trkpt lat="47.42798" lon="6.54177">
        <ele>279</ele>
        <time>2019-08-17T08:50:16Z</time>
      </trkpt>
      <trkpt lat="47.42796" lon="6.54185">
        <ele>278.9</ele>
        <time>2019-08-17T08:50:17Z</time>
      </trkpt>
      <trkpt lat="47.42794" lon="6.54193">
        <ele>278.9</ele>
        <time>2019-08-17T08:50:18Z</time>
      </trkpt>
      <trkpt lat="47.42791" lon="6.542">
        <ele>278.9</ele>
        <time>2019-08-17T08:50:19Z</time>
      </trkpt>
      <trkpt lat="47.42788" lon="6.54208">
        <ele>278.9</ele>
        <time>2019-08-17T08:50:20Z</time>
      </trkpt>
      <trkpt lat="47.42786" lon="6.54215">
        <ele>278.9</ele>
        <time>2019-08-17T08:50:21Z</time>
      </trkpt>
      <trkpt lat="47.42784" lon="6.54222">
        <ele>278.8</ele>
        <time>2019-08-17T08:50:22Z</time>
      </trkpt>
      <trkpt lat="47.42782" lon="6.54229">
        <ele>278.8</ele>
        <time>2019-08-17T08:50:23Z</time>
      </trkpt>
      <trkpt lat="47.42781" lon="6.54236">
        <ele>278.8</ele>
        <time>2019-08-17T08:50:24Z</time>
      </trkpt>
      <trkpt lat="47.4278" lon="6.54243">
        <ele>278.9</ele>
        <time>2019-08-17T08:50:25Z</time>
      </trkpt>
      <trkpt lat="47.42778" lon="6.54249">
        <ele>278.9</ele>
        <time>2019-08-17T08:50:26Z</time>
      </trkpt>
      <trkpt lat="47.42776" lon="6.54257">
        <ele>278.9</ele>
        <time>2019-08-17T08:50:27Z</time>
      </trkpt>
      <trkpt lat="47.42774" lon="6.54264">
        <ele>278.9</ele>
        <time>2019-08-17T08:50:28Z</time>
      </trkpt>
      <trkpt lat="47.42771" lon="6.54272">
        <ele>278.9</ele>
        <time>2019-08-17T08:50:29Z</time>
      </trkpt>
      <trkpt lat="47.42768" lon="6.5428">
        <ele>279</ele>
        <time>2019-08-17T08:50:30Z</time>
      </trkpt>
      <trkpt lat="47.42762" lon="6.54288">
        <ele>279</ele>
        <time>2019-08-17T08:50:31Z</time>
      </trkpt>
      <trkpt lat="47.42758" lon="6.54295">
        <ele>279.1</ele>
        <time>2019-08-17T08:50:32Z</time>
      </trkpt>
      <trkpt lat="47.42754" lon="6.54302">
        <ele>279.1</ele>
        <time>2019-08-17T08:50:33Z</time>
      </trkpt>
      <trkpt lat="47.42751" lon="6.54308">
        <ele>279.2</ele>
        <time>2019-08-17T08:50:34Z</time>
      </trkpt>
      <trkpt lat="47.42748" lon="6.54315">
        <ele>279.2</ele>
        <time>2019-08-17T08:50:35Z</time>
      </trkpt>
      <trkpt lat="47.42745" lon="6.54322">
        <ele>279.2</ele>
        <time>2019-08-17T08:50:36Z</time>
      </trkpt>
      <trkpt lat="47.42743" lon="6.5433">
        <ele>279.3</ele>
        <time>2019-08-17T08:50:37Z</time>
      </trkpt>
      <trkpt lat="47.42741" lon="6.54338">
        <ele>279.3</ele>
        <time>2019-08-17T08:50:38Z</time>
      </trkpt>
      <trkpt lat="47.4274" lon="6.54346">
        <ele>279.4</ele>
        <time>2019-08-17T08:50:39Z</time>
      </trkpt>
      <trkpt lat="47.42739" lon="6.54354">
        <ele>279.4</ele>
        <time>2019-08-17T08:50:40Z</time>
      </trkpt>
      <trkpt lat="47.42739" lon="6.54361">
        <ele>279.5</ele>
        <time>2019-08-17T08:50:41Z</time>
      </trkpt>
      <trkpt lat="47.42739" lon="6.54368">
        <ele>279.5</ele>
        <time>2019-08-17T08:50:42Z</time>
      </trkpt>
      <trkpt lat="47.42738" lon="6.54374">
        <ele>279.6</ele>
        <time>2019-08-17T08:50:43Z</time>
      </trkpt>
      <trkpt lat="47.42738" lon="6.54381">
        <ele>279.6</ele>
        <time>2019-08-17T08:50:44Z</time>
      </trkpt>
      <trkpt lat="47.42738" lon="6.54388">
        <ele>279.6</ele>
        <time>2019-08-17T08:50:45Z</time>
      </trkpt>
      <trkpt lat="47.42737" lon="6.54395">
        <ele>279.7</ele>
        <time>2019-08-17T08:50:46Z</time>
      </trkpt>
      <trkpt lat="47.42734" lon="6.54402">
        <ele>279.8</ele>
        <time>2019-08-17T08:50:47Z</time>
      </trkpt>
      <trkpt lat="47.42733" lon="6.54409">
        <ele>279.8</ele>
        <time>2019-08-17T08:50:48Z</time>
      </trkpt>
      <trkpt lat="47.42733" lon="6.5442">
        <ele>279.8</ele>
        <time>2019-08-17T08:50:49Z</time>
      </trkpt>
      <trkpt lat="47.42732" lon="6.5443">
        <ele>279.9</ele>
        <time>2019-08-17T08:50:50Z</time>
      </trkpt>
      <trkpt lat="47.42732" lon="6.5444">
        <ele>279.9</ele>
        <time>2019-08-17T08:50:51Z</time>
      </trkpt>
      <trkpt lat="47.42731" lon="6.54449">
        <ele>280</ele>
        <time>2019-08-17T08:50:52Z</time>
      </trkpt>
      <trkpt lat="47.42731" lon="6.54458">
        <ele>279.9</ele>
        <time>2019-08-17T08:50:53Z</time>
      </trkpt>
      <trkpt lat="47.42729" lon="6.54469">
        <ele>279.9</ele>
        <time>2019-08-17T08:50:54Z</time>
      </trkpt>
      <trkpt lat="47.42727" lon="6.54478">
        <ele>279.9</ele>
        <time>2019-08-17T08:50:55Z</time>
      </trkpt>
      <trkpt lat="47.42726" lon="6.54487">
        <ele>279.9</ele>
        <time>2019-08-17T08:50:56Z</time>
      </trkpt>
      <trkpt lat="47.42726" lon="6.54495">
        <ele>279.9</ele>
        <time>2019-08-17T08:50:57Z</time>
      </trkpt>
      <trkpt lat="47.42725" lon="6.54503">
        <ele>279.8</ele>
        <time>2019-08-17T08:50:58Z</time>
      </trkpt>
      <trkpt lat="47.42725" lon="6.54512">
        <ele>279.8</ele>
        <time>2019-08-17T08:50:59Z</time>
      </trkpt>
      <trkpt lat="47.42725" lon="6.5452">
        <ele>279.8</ele>
        <time>2019-08-17T08:51:00Z</time>
      </trkpt>
      <trkpt lat="47.42723" lon="6.54529">
        <ele>279.7</ele>
        <time>2019-08-17T08:51:01Z</time>
      </trkpt>
      <trkpt lat="47.42721" lon="6.54536">
        <ele>279.7</ele>
        <time>2019-08-17T08:51:02Z</time>
      </trkpt>
      <trkpt lat="47.42718" lon="6.54543">
        <ele>279.7</ele>
        <time>2019-08-17T08:51:03Z</time>
      </trkpt>
      <trkpt lat="47.42716" lon="6.54549">
        <ele>279.7</ele>
        <time>2019-08-17T08:51:04Z</time>
      </trkpt>
      <trkpt lat="47.42715" lon="6.54556">
        <ele>279.6</ele>
        <time>2019-08-17T08:51:05Z</time>
      </trkpt>
      <trkpt lat="47.42714" lon="6.54565">
        <ele>279.6</ele>
        <time>2019-08-17T08:51:06Z</time>
      </trkpt>
      <trkpt lat="47.42713" lon="6.54574">
        <ele>279.6</ele>
        <time>2019-08-17T08:51:07Z</time>
      </trkpt>
      <trkpt lat="47.42711" lon="6.54582">
        <ele>279.6</ele>
        <time>2019-08-17T08:51:08Z</time>
      </trkpt>
      <trkpt lat="47.42708" lon="6.5459">
        <ele>279.6</ele>
        <time>2019-08-17T08:51:09Z</time>
      </trkpt>
      <trkpt lat="47.42705" lon="6.54601">
        <ele>279.6</ele>
        <time>2019-08-17T08:51:10Z</time>
      </trkpt>
      <trkpt lat="47.42702" lon="6.54611">
        <ele>279.6</ele>
        <time>2019-08-17T08:51:11Z</time>
      </trkpt>
      <trkpt lat="47.42694" lon="6.54628">
        <ele>279.6</ele>
        <time>2019-08-17T08:51:12Z</time>
      </trkpt>
      <trkpt lat="47.4269" lon="6.54638">
        <ele>279.6</ele>
        <time>2019-08-17T08:51:13Z</time>
      </trkpt>
      <trkpt lat="47.42687" lon="6.54649">
        <ele>279.6</ele>
        <time>2019-08-17T08:51:14Z</time>
      </trkpt>
      <trkpt lat="47.42685" lon="6.54659">
        <ele>279.5</ele>
        <time>2019-08-17T08:51:15Z</time>
      </trkpt>
      <trkpt lat="47.42682" lon="6.54667">
        <ele>279.5</ele>
        <time>2019-08-17T08:51:16Z</time>
      </trkpt>
      <trkpt lat="47.4268" lon="6.54675">
        <ele>279.5</ele>
        <time>2019-08-17T08:51:17Z</time>
      </trkpt>
      <trkpt lat="47.42678" lon="6.54683">
        <ele>279.5</ele>
        <time>2019-08-17T08:51:18Z</time>
      </trkpt>
      <trkpt lat="47.42675" lon="6.54691">
        <ele>279.4</ele>
        <time>2019-08-17T08:51:19Z</time>
      </trkpt>
      <trkpt lat="47.42672" lon="6.547">
        <ele>279.4</ele>
        <time>2019-08-17T08:51:20Z</time>
      </trkpt>
      <trkpt lat="47.4267" lon="6.54707">
        <ele>279.4</ele>
        <time>2019-08-17T08:51:21Z</time>
      </trkpt>
      <trkpt lat="47.42668" lon="6.54715">
        <ele>279.3</ele>
        <time>2019-08-17T08:51:22Z</time>
      </trkpt>
      <trkpt lat="47.42664" lon="6.54722">
        <ele>279.3</ele>
        <time>2019-08-17T08:51:23Z</time>
      </trkpt>
      <trkpt lat="47.42662" lon="6.54731">
        <ele>279.2</ele>
        <time>2019-08-17T08:51:24Z</time>
      </trkpt>
      <trkpt lat="47.42659" lon="6.54741">
        <ele>279.2</ele>
        <time>2019-08-17T08:51:25Z</time>
      </trkpt>
      <trkpt lat="47.42656" lon="6.54752">
        <ele>279.1</ele>
        <time>2019-08-17T08:51:26Z</time>
      </trkpt>
      <trkpt lat="47.42657" lon="6.54761">
        <ele>279.1</ele>
        <time>2019-08-17T08:51:27Z</time>
      </trkpt>
      <trkpt lat="47.42657" lon="6.5477">
        <ele>279.1</ele>
        <time>2019-08-17T08:51:28Z</time>
      </trkpt>
      <trkpt lat="47.42657" lon="6.54778">
        <ele>279.1</ele>
        <time>2019-08-17T08:51:29Z</time>
      </trkpt>
      <trkpt lat="47.42656" lon="6.54788">
        <ele>279.1</ele>
        <time>2019-08-17T08:51:30Z</time>
      </trkpt>
      <trkpt lat="47.42654" lon="6.54799">
        <ele>279.1</ele>
        <time>2019-08-17T08:51:31Z</time>
      </trkpt>
      <trkpt lat="47.42653" lon="6.54809">
        <ele>279.1</ele>
        <time>2019-08-17T08:51:32Z</time>
      </trkpt>
      <trkpt lat="47.42651" lon="6.54818">
        <ele>279.1</ele>
        <time>2019-08-17T08:51:33Z</time>
      </trkpt>
      <trkpt lat="47.4265" lon="6.54827">
        <ele>279.1</ele>
        <time>2019-08-17T08:51:34Z</time>
      </trkpt>
      <trkpt lat="47.42648" lon="6.54837">
        <ele>279.2</ele>
        <time>2019-08-17T08:51:35Z</time>
      </trkpt>
      <trkpt lat="47.42645" lon="6.54845">
        <ele>279.2</ele>
        <time>2019-08-17T08:51:36Z</time>
      </trkpt>
      <trkpt lat="47.42643" lon="6.54854">
        <ele>279.3</ele>
        <time>2019-08-17T08:51:37Z</time>
      </trkpt>
      <trkpt lat="47.42641" lon="6.54861">
        <ele>279.3</ele>
        <time>2019-08-17T08:51:38Z</time>
      </trkpt>
      <trkpt lat="47.42639" lon="6.54869">
        <ele>279.4</ele>
        <time>2019-08-17T08:51:39Z</time>
      </trkpt>
      <trkpt lat="47.42637" lon="6.54878">
        <ele>279.5</ele>
        <time>2019-08-17T08:51:40Z</time>
      </trkpt>
      <trkpt lat="47.42635" lon="6.54886">
        <ele>279.6</ele>
        <time>2019-08-17T08:51:41Z</time>
      </trkpt>
      <trkpt lat="47.42632" lon="6.54894">
        <ele>279.7</ele>
        <time>2019-08-17T08:51:42Z</time>
      </trkpt>
      <trkpt lat="47.42629" lon="6.54901">
        <ele>279.7</ele>
        <time>2019-08-17T08:51:43Z</time>
      </trkpt>
      <trkpt lat="47.42625" lon="6.54908">
        <ele>279.8</ele>
        <time>2019-08-17T08:51:44Z</time>
      </trkpt>
      <trkpt lat="47.42621" lon="6.54913">
        <ele>279.9</ele>
        <time>2019-08-17T08:51:45Z</time>
      </trkpt>
      <trkpt lat="47.42618" lon="6.54917">
        <ele>280</ele>
        <time>2019-08-17T08:51:46Z</time>
      </trkpt>
      <trkpt lat="47.42615" lon="6.54921">
        <ele>280</ele>
        <time>2019-08-17T08:51:47Z</time>
      </trkpt>
      <trkpt lat="47.42611" lon="6.54925">
        <ele>280.1</ele>
        <time>2019-08-17T08:51:48Z</time>
      </trkpt>
      <trkpt lat="47.42607" lon="6.54929">
        <ele>280.1</ele>
        <time>2019-08-17T08:51:49Z</time>
      </trkpt>
      <trkpt lat="47.42602" lon="6.54934">
        <ele>280.1</ele>
        <time>2019-08-17T08:51:50Z</time>
      </trkpt>
      <trkpt lat="47.42598" lon="6.54938">
        <ele>280.2</ele>
        <time>2019-08-17T08:51:51Z</time>
      </trkpt>
      <trkpt lat="47.42593" lon="6.54941">
        <ele>280.2</ele>
        <time>2019-08-17T08:51:52Z</time>
      </trkpt>
      <trkpt lat="47.4259" lon="6.54944">
        <ele>280.2</ele>
        <time>2019-08-17T08:51:53Z</time>
      </trkpt>
      <trkpt lat="47.42585" lon="6.54946">
        <ele>280.2</ele>
        <time>2019-08-17T08:51:54Z</time>
      </trkpt>
      <trkpt lat="47.42581" lon="6.54949">
        <ele>280.3</ele>
        <time>2019-08-17T08:51:55Z</time>
      </trkpt>
      <trkpt lat="47.42576" lon="6.54952">
        <ele>280.3</ele>
        <time>2019-08-17T08:51:56Z</time>
      </trkpt>
      <trkpt lat="47.42571" lon="6.54956">
        <ele>280.3</ele>
        <time>2019-08-17T08:51:57Z</time>
      </trkpt>
      <trkpt lat="47.42567" lon="6.54959">
        <ele>280.3</ele>
        <time>2019-08-17T08:51:58Z</time>
      </trkpt>
      <trkpt lat="47.42563" lon="6.54963">
        <ele>280.3</ele>
        <time>2019-08-17T08:51:59Z</time>
      </trkpt>
      <trkpt lat="47.42558" lon="6.54967">
        <ele>280.3</ele>
        <time>2019-08-17T08:52:00Z</time>
      </trkpt>
      <trkpt lat="47.42554" lon="6.54971">
        <ele>280.3</ele>
        <time>2019-08-17T08:52:01Z</time>
      </trkpt>
      <trkpt lat="47.42549" lon="6.54975">
        <ele>280.3</ele>
        <time>2019-08-17T08:52:02Z</time>
      </trkpt>
      <trkpt lat="47.42544" lon="6.5498">
        <ele>280.4</ele>
        <time>2019-08-17T08:52:03Z</time>
      </trkpt>
      <trkpt lat="47.4254" lon="6.54985">
        <ele>280.4</ele>
        <time>2019-08-17T08:52:04Z</time>
      </trkpt>
      <trkpt lat="47.42535" lon="6.5499">
        <ele>280.4</ele>
        <time>2019-08-17T08:52:05Z</time>
      </trkpt>
      <trkpt lat="47.42531" lon="6.54994">
        <ele>280.4</ele>
        <time>2019-08-17T08:52:06Z</time>
      </trkpt>
      <trkpt lat="47.42527" lon="6.54998">
        <ele>280.4</ele>
        <time>2019-08-17T08:52:07Z</time>
      </trkpt>
      <trkpt lat="47.42522" lon="6.55003">
        <ele>280.4</ele>
        <time>2019-08-17T08:52:08Z</time>
      </trkpt>
      <trkpt lat="47.42518" lon="6.55008">
        <ele>280.4</ele>
        <time>2019-08-17T08:52:09Z</time>
      </trkpt>
      <trkpt lat="47.42515" lon="6.55013">
        <ele>280.5</ele>
        <time>2019-08-17T08:52:10Z</time>
      </trkpt>
      <trkpt lat="47.42512" lon="6.55017">
        <ele>280.5</ele>
        <time>2019-08-17T08:52:11Z</time>
      </trkpt>
      <trkpt lat="47.42509" lon="6.55023">
        <ele>280.5</ele>
        <time>2019-08-17T08:52:12Z</time>
      </trkpt>
      <trkpt lat="47.42506" lon="6.55028">
        <ele>280.4</ele>
        <time>2019-08-17T08:52:13Z</time>
      </trkpt>
      <trkpt lat="47.42503" lon="6.55033">
        <ele>280.4</ele>
        <time>2019-08-17T08:52:14Z</time>
      </trkpt>
      <trkpt lat="47.42501" lon="6.55038">
        <ele>280.4</ele>
        <time>2019-08-17T08:52:15Z</time>
      </trkpt>
      <trkpt lat="47.42498" lon="6.55043">
        <ele>280.3</ele>
        <time>2019-08-17T08:52:16Z</time>
      </trkpt>
      <trkpt lat="47.42494" lon="6.5505">
        <ele>280.2</ele>
        <time>2019-08-17T08:52:17Z</time>
      </trkpt>
      <trkpt lat="47.42491" lon="6.55057">
        <ele>280.1</ele>
        <time>2019-08-17T08:52:18Z</time>
      </trkpt>
      <trkpt lat="47.42487" lon="6.55064">
        <ele>280</ele>
        <time>2019-08-17T08:52:19Z</time>
      </trkpt>
      <trkpt lat="47.42484" lon="6.55072">
        <ele>279.9</ele>
        <time>2019-08-17T08:52:20Z</time>
      </trkpt>
      <trkpt lat="47.42481" lon="6.55082">
        <ele>279.8</ele>
        <time>2019-08-17T08:52:21Z</time>
      </trkpt>
      <trkpt lat="47.42478" lon="6.55091">
        <ele>279.7</ele>
        <time>2019-08-17T08:52:22Z</time>
      </trkpt>
      <trkpt lat="47.42475" lon="6.55101">
        <ele>279.5</ele>
        <time>2019-08-17T08:52:23Z</time>
      </trkpt>
      <trkpt lat="47.42473" lon="6.55111">
        <ele>279.5</ele>
        <time>2019-08-17T08:52:24Z</time>
      </trkpt>
      <trkpt lat="47.4247" lon="6.55119">
        <ele>279.4</ele>
        <time>2019-08-17T08:52:25Z</time>
      </trkpt>
      <trkpt lat="47.42467" lon="6.55128">
        <ele>279.3</ele>
        <time>2019-08-17T08:52:26Z</time>
      </trkpt>
      <trkpt lat="47.42464" lon="6.55137">
        <ele>279.2</ele>
        <time>2019-08-17T08:52:27Z</time>
      </trkpt>
      <trkpt lat="47.42462" lon="6.55146">
        <ele>279.1</ele>
        <time>2019-08-17T08:52:28Z</time>
      </trkpt>
      <trkpt lat="47.4246" lon="6.55155">
        <ele>279.1</ele>
        <time>2019-08-17T08:52:29Z</time>
      </trkpt>
      <trkpt lat="47.42458" lon="6.55163">
        <ele>279</ele>
        <time>2019-08-17T08:52:30Z</time>
      </trkpt>
      <trkpt lat="47.42456" lon="6.55172">
        <ele>279</ele>
        <time>2019-08-17T08:52:31Z</time>
      </trkpt>
      <trkpt lat="47.42454" lon="6.5518">
        <ele>278.9</ele>
        <time>2019-08-17T08:52:32Z</time>
      </trkpt>
      <trkpt lat="47.42453" lon="6.55189">
        <ele>278.9</ele>
        <time>2019-08-17T08:52:33Z</time>
      </trkpt>
      <trkpt lat="47.42451" lon="6.55199">
        <ele>278.8</ele>
        <time>2019-08-17T08:52:34Z</time>
      </trkpt>
      <trkpt lat="47.42449" lon="6.55208">
        <ele>278.8</ele>
        <time>2019-08-17T08:52:35Z</time>
      </trkpt>
      <trkpt lat="47.42447" lon="6.55217">
        <ele>278.7</ele>
        <time>2019-08-17T08:52:36Z</time>
      </trkpt>
      <trkpt lat="47.42445" lon="6.55226">
        <ele>278.7</ele>
        <time>2019-08-17T08:52:37Z</time>
      </trkpt>
      <trkpt lat="47.42443" lon="6.55234">
        <ele>278.6</ele>
        <time>2019-08-17T08:52:38Z</time>
      </trkpt>
      <trkpt lat="47.42441" lon="6.55242">
        <ele>278.6</ele>
        <time>2019-08-17T08:52:39Z</time>
      </trkpt>
      <trkpt lat="47.42439" lon="6.55249">
        <ele>278.6</ele>
        <time>2019-08-17T08:52:40Z</time>
      </trkpt>
      <trkpt lat="47.42437" lon="6.55259">
        <ele>278.6</ele>
        <time>2019-08-17T08:52:41Z</time>
      </trkpt>
      <trkpt lat="47.42434" lon="6.55269">
        <ele>278.6</ele>
        <time>2019-08-17T08:52:42Z</time>
      </trkpt>
      <trkpt lat="47.42432" lon="6.55278">
        <ele>278.6</ele>
        <time>2019-08-17T08:52:43Z</time>
      </trkpt>
      <trkpt lat="47.42428" lon="6.55286">
        <ele>278.6</ele>
        <time>2019-08-17T08:52:44Z</time>
      </trkpt>
      <trkpt lat="47.42425" lon="6.55294">
        <ele>278.5</ele>
        <time>2019-08-17T08:52:45Z</time>
      </trkpt>
      <trkpt lat="47.4242" lon="6.55302">
        <ele>278.5</ele>
        <time>2019-08-17T08:52:46Z</time>
      </trkpt>
      <trkpt lat="47.42417" lon="6.5531">
        <ele>278.5</ele>
        <time>2019-08-17T08:52:47Z</time>
      </trkpt>
      <trkpt lat="47.42413" lon="6.55317">
        <ele>278.5</ele>
        <time>2019-08-17T08:52:48Z</time>
      </trkpt>
      <trkpt lat="47.42409" lon="6.55325">
        <ele>278.5</ele>
        <time>2019-08-17T08:52:49Z</time>
      </trkpt>
      <trkpt lat="47.42405" lon="6.55333">
        <ele>278.5</ele>
        <time>2019-08-17T08:52:50Z</time>
      </trkpt>
      <trkpt lat="47.42401" lon="6.55339">
        <ele>278.5</ele>
        <time>2019-08-17T08:52:51Z</time>
      </trkpt>
      <trkpt lat="47.42397" lon="6.55345">
        <ele>278.5</ele>
        <time>2019-08-17T08:52:52Z</time>
      </trkpt>
      <trkpt lat="47.42394" lon="6.55351">
        <ele>278.4</ele>
        <time>2019-08-17T08:52:53Z</time>
      </trkpt>
      <trkpt lat="47.4239" lon="6.55357">
        <ele>278.4</ele>
        <time>2019-08-17T08:52:54Z</time>
      </trkpt>
      <trkpt lat="47.42386" lon="6.55364">
        <ele>278.4</ele>
        <time>2019-08-17T08:52:55Z</time>
      </trkpt>
      <trkpt lat="47.42382" lon="6.5537">
        <ele>278.4</ele>
        <time>2019-08-17T08:52:56Z</time>
      </trkpt>
      <trkpt lat="47.42378" lon="6.55376">
        <ele>278.4</ele>
        <time>2019-08-17T08:52:57Z</time>
      </trkpt>
      <trkpt lat="47.42374" lon="6.55381">
        <ele>278.4</ele>
        <time>2019-08-17T08:52:58Z</time>
      </trkpt>
      <trkpt lat="47.4237" lon="6.55386">
        <ele>278.4</ele>
        <time>2019-08-17T08:52:59Z</time>
      </trkpt>
      <trkpt lat="47.42365" lon="6.55391">
        <ele>278.4</ele>
        <time>2019-08-17T08:53:00Z</time>
      </trkpt>
      <trkpt lat="47.42361" lon="6.55396">
        <ele>278.4</ele>
        <time>2019-08-17T08:53:01Z</time>
      </trkpt>
      <trkpt lat="47.42356" lon="6.55401">
        <ele>278.4</ele>
        <time>2019-08-17T08:53:02Z</time>
      </trkpt>
      <trkpt lat="47.42352" lon="6.55405">
        <ele>278.4</ele>
        <time>2019-08-17T08:53:03Z</time>
      </trkpt>
      <trkpt lat="47.42348" lon="6.55409">
        <ele>278.4</ele>
        <time>2019-08-17T08:53:04Z</time>
      </trkpt>
      <trkpt lat="47.42344" lon="6.55411">
        <ele>278.4</ele>
        <time>2019-08-17T08:53:05Z</time>
      </trkpt>
      <trkpt lat="47.42341" lon="6.55415">
        <ele>278.4</ele>
        <time>2019-08-17T08:53:06Z</time>
      </trkpt>
      <trkpt lat="47.42337" lon="6.55418">
        <ele>278.4</ele>
        <time>2019-08-17T08:53:07Z</time>
      </trkpt>
      <trkpt lat="47.42332" lon="6.55422">
        <ele>278.3</ele>
        <time>2019-08-17T08:53:08Z</time>
      </trkpt>
      <trkpt lat="47.42327" lon="6.55426">
        <ele>278.3</ele>
        <time>2019-08-17T08:53:09Z</time>
      </trkpt>
      <trkpt lat="47.42321" lon="6.55431">
        <ele>278.3</ele>
        <time>2019-08-17T08:53:10Z</time>
      </trkpt>
      <trkpt lat="47.42316" lon="6.55435">
        <ele>278.3</ele>
        <time>2019-08-17T08:53:11Z</time>
      </trkpt>
      <trkpt lat="47.4231" lon="6.55439">
        <ele>278.3</ele>
        <time>2019-08-17T08:53:12Z</time>
      </trkpt>
      <trkpt lat="47.42301" lon="6.55443">
        <ele>278.2</ele>
        <time>2019-08-17T08:53:13Z</time>
      </trkpt>
      <trkpt lat="47.42294" lon="6.55446">
        <ele>278.2</ele>
        <time>2019-08-17T08:53:14Z</time>
      </trkpt>
      <trkpt lat="47.42287" lon="6.55449">
        <ele>278.2</ele>
        <time>2019-08-17T08:53:15Z</time>
      </trkpt>
      <trkpt lat="47.4228" lon="6.5545">
        <ele>278.2</ele>
        <time>2019-08-17T08:53:16Z</time>
      </trkpt>
      <trkpt lat="47.42274" lon="6.55454">
        <ele>278.2</ele>
        <time>2019-08-17T08:53:17Z</time>
      </trkpt>
      <trkpt lat="47.4227" lon="6.55458">
        <ele>278.2</ele>
        <time>2019-08-17T08:53:18Z</time>
      </trkpt>
      <trkpt lat="47.42265" lon="6.55461">
        <ele>278.2</ele>
        <time>2019-08-17T08:53:19Z</time>
      </trkpt>
      <trkpt lat="47.4226" lon="6.55462">
        <ele>278.2</ele>
        <time>2019-08-17T08:53:20Z</time>
      </trkpt>
      <trkpt lat="47.42253" lon="6.55465">
        <ele>278.2</ele>
        <time>2019-08-17T08:53:21Z</time>
      </trkpt>
      <trkpt lat="47.42247" lon="6.55469">
        <ele>278.2</ele>
        <time>2019-08-17T08:53:22Z</time>
      </trkpt>
      <trkpt lat="47.42241" lon="6.55471">
        <ele>278.2</ele>
        <time>2019-08-17T08:53:23Z</time>
      </trkpt>
      <trkpt lat="47.42235" lon="6.55474">
        <ele>278.2</ele>
        <time>2019-08-17T08:53:24Z</time>
      </trkpt>
      <trkpt lat="47.4223" lon="6.55477">
        <ele>278.2</ele>
        <time>2019-08-17T08:53:25Z</time>
      </trkpt>
      <trkpt lat="47.42226" lon="6.55479">
        <ele>278.2</ele>
        <time>2019-08-17T08:53:26Z</time>
      </trkpt>
      <trkpt lat="47.42221" lon="6.55482">
        <ele>278.2</ele>
        <time>2019-08-17T08:53:27Z</time>
      </trkpt>
      <trkpt lat="47.42216" lon="6.55485">
        <ele>278.2</ele>
        <time>2019-08-17T08:53:28Z</time>
      </trkpt>
      <trkpt lat="47.42211" lon="6.55488">
        <ele>278.2</ele>
        <time>2019-08-17T08:53:29Z</time>
      </trkpt>
      <trkpt lat="47.42206" lon="6.55491">
        <ele>278.2</ele>
        <time>2019-08-17T08:53:30Z</time>
      </trkpt>
      <trkpt lat="47.42201" lon="6.55494">
        <ele>278.2</ele>
        <time>2019-08-17T08:53:31Z</time>
      </trkpt>
      <trkpt lat="47.42196" lon="6.55496">
        <ele>278.2</ele>
        <time>2019-08-17T08:53:32Z</time>
      </trkpt>
      <trkpt lat="47.42191" lon="6.55499">
        <ele>278.2</ele>
        <time>2019-08-17T08:53:33Z</time>
      </trkpt>
      <trkpt lat="47.42186" lon="6.55501">
        <ele>278.2</ele>
        <time>2019-08-17T08:53:34Z</time>
      </trkpt>
      <trkpt lat="47.42176" lon="6.55507">
        <ele>278.2</ele>
        <time>2019-08-17T08:53:36Z</time>
      </trkpt>
      <trkpt lat="47.42172" lon="6.55508">
        <ele>278.3</ele>
        <time>2019-08-17T08:53:37Z</time>
      </trkpt>
      <trkpt lat="47.42166" lon="6.55507">
        <ele>278.3</ele>
        <time>2019-08-17T08:53:38Z</time>
      </trkpt>
      <trkpt lat="47.42161" lon="6.55507">
        <ele>278.3</ele>
        <time>2019-08-17T08:53:39Z</time>
      </trkpt>
      <trkpt lat="47.42156" lon="6.55507">
        <ele>278.3</ele>
        <time>2019-08-17T08:53:40Z</time>
      </trkpt>
      <trkpt lat="47.42151" lon="6.55508">
        <ele>278.3</ele>
        <time>2019-08-17T08:53:41Z</time>
      </trkpt>
      <trkpt lat="47.42147" lon="6.55508">
        <ele>278.3</ele>
        <time>2019-08-17T08:53:42Z</time>
      </trkpt>
      <trkpt lat="47.42142" lon="6.55507">
        <ele>278.3</ele>
        <time>2019-08-17T08:53:43Z</time>
      </trkpt>
      <trkpt lat="47.42136" lon="6.55507">
        <ele>278.3</ele>
        <time>2019-08-17T08:53:44Z</time>
      </trkpt>
      <trkpt lat="47.42129" lon="6.55506">
        <ele>278.3</ele>
        <time>2019-08-17T08:53:45Z</time>
      </trkpt>
      <trkpt lat="47.42123" lon="6.55506">
        <ele>278.3</ele>
        <time>2019-08-17T08:53:46Z</time>
      </trkpt>
      <trkpt lat="47.42117" lon="6.55507">
        <ele>278.3</ele>
        <time>2019-08-17T08:53:47Z</time>
      </trkpt>
      <trkpt lat="47.42112" lon="6.55508">
        <ele>278.3</ele>
        <time>2019-08-17T08:53:48Z</time>
      </trkpt>
      <trkpt lat="47.42107" lon="6.55508">
        <ele>278.3</ele>
        <time>2019-08-17T08:53:49Z</time>
      </trkpt>
      <trkpt lat="47.421" lon="6.55508">
        <ele>278.3</ele>
        <time>2019-08-17T08:53:50Z</time>
      </trkpt>
      <trkpt lat="47.42094" lon="6.55508">
        <ele>278.3</ele>
        <time>2019-08-17T08:53:51Z</time>
      </trkpt>
      <trkpt lat="47.42088" lon="6.55508">
        <ele>278.3</ele>
        <time>2019-08-17T08:53:52Z</time>
      </trkpt>
      <trkpt lat="47.42081" lon="6.55508">
        <ele>278.3</ele>
        <time>2019-08-17T08:53:53Z</time>
      </trkpt>
      <trkpt lat="47.42075" lon="6.55509">
        <ele>278.3</ele>
        <time>2019-08-17T08:53:54Z</time>
      </trkpt>
      <trkpt lat="47.4207" lon="6.55509">
        <ele>278.3</ele>
        <time>2019-08-17T08:53:55Z</time>
      </trkpt>
      <trkpt lat="47.42065" lon="6.55509">
        <ele>278.3</ele>
        <time>2019-08-17T08:53:56Z</time>
      </trkpt>
      <trkpt lat="47.4206" lon="6.5551">
        <ele>278.3</ele>
        <time>2019-08-17T08:53:57Z</time>
      </trkpt>
      <trkpt lat="47.42054" lon="6.5551">
        <ele>278.3</ele>
        <time>2019-08-17T08:53:58Z</time>
      </trkpt>
      <trkpt lat="47.4205" lon="6.55512">
        <ele>278.3</ele>
        <time>2019-08-17T08:53:59Z</time>
      </trkpt>
      <trkpt lat="47.42045" lon="6.55512">
        <ele>278.3</ele>
        <time>2019-08-17T08:54:00Z</time>
      </trkpt>
      <trkpt lat="47.42039" lon="6.55513">
        <ele>278.3</ele>
        <time>2019-08-17T08:54:01Z</time>
      </trkpt>
      <trkpt lat="47.42034" lon="6.55513">
        <ele>278.2</ele>
        <time>2019-08-17T08:54:02Z</time>
      </trkpt>
      <trkpt lat="47.42029" lon="6.55513">
        <ele>278.2</ele>
        <time>2019-08-17T08:54:03Z</time>
      </trkpt>
      <trkpt lat="47.42024" lon="6.55513">
        <ele>278.2</ele>
        <time>2019-08-17T08:54:04Z</time>
      </trkpt>
      <trkpt lat="47.42018" lon="6.55513">
        <ele>278.2</ele>
        <time>2019-08-17T08:54:05Z</time>
      </trkpt>
      <trkpt lat="47.42013" lon="6.55513">
        <ele>278.2</ele>
        <time>2019-08-17T08:54:06Z</time>
      </trkpt>
      <trkpt lat="47.42008" lon="6.55514">
        <ele>278.2</ele>
        <time>2019-08-17T08:54:07Z</time>
      </trkpt>
      <trkpt lat="47.42003" lon="6.55514">
        <ele>278.2</ele>
        <time>2019-08-17T08:54:08Z</time>
      </trkpt>
      <trkpt lat="47.41998" lon="6.55514">
        <ele>278.2</ele>
        <time>2019-08-17T08:54:09Z</time>
      </trkpt>
      <trkpt lat="47.41993" lon="6.55514">
        <ele>278.2</ele>
        <time>2019-08-17T08:54:10Z</time>
      </trkpt>
      <trkpt lat="47.41989" lon="6.55515">
        <ele>278.2</ele>
        <time>2019-08-17T08:54:11Z</time>
      </trkpt>
      <trkpt lat="47.41984" lon="6.55515">
        <ele>278.2</ele>
        <time>2019-08-17T08:54:12Z</time>
      </trkpt>
      <trkpt lat="47.4198" lon="6.55515">
        <ele>278.2</ele>
        <time>2019-08-17T08:54:13Z</time>
      </trkpt>
      <trkpt lat="47.41975" lon="6.55514">
        <ele>278.2</ele>
        <time>2019-08-17T08:54:14Z</time>
      </trkpt>
      <trkpt lat="47.4197" lon="6.55514">
        <ele>278.2</ele>
        <time>2019-08-17T08:54:15Z</time>
      </trkpt>
      <trkpt lat="47.41964" lon="6.55513">
        <ele>278.3</ele>
        <time>2019-08-17T08:54:16Z</time>
      </trkpt>
      <trkpt lat="47.41958" lon="6.55512">
        <ele>278.3</ele>
        <time>2019-08-17T08:54:17Z</time>
      </trkpt>
      <trkpt lat="47.41952" lon="6.55511">
        <ele>278.3</ele>
        <time>2019-08-17T08:54:18Z</time>
      </trkpt>
      <trkpt lat="47.41947" lon="6.5551">
        <ele>278.3</ele>
        <time>2019-08-17T08:54:19Z</time>
      </trkpt>
      <trkpt lat="47.41941" lon="6.55509">
        <ele>278.4</ele>
        <time>2019-08-17T08:54:20Z</time>
      </trkpt>
      <trkpt lat="47.41935" lon="6.55508">
        <ele>278.4</ele>
        <time>2019-08-17T08:54:21Z</time>
      </trkpt>
      <trkpt lat="47.4193" lon="6.55507">
        <ele>278.4</ele>
        <time>2019-08-17T08:54:22Z</time>
      </trkpt>
      <trkpt lat="47.41924" lon="6.55507">
        <ele>278.4</ele>
        <time>2019-08-17T08:54:23Z</time>
      </trkpt>
      <trkpt lat="47.41918" lon="6.55507">
        <ele>278.4</ele>
        <time>2019-08-17T08:54:24Z</time>
      </trkpt>
      <trkpt lat="47.41913" lon="6.55507">
        <ele>278.5</ele>
        <time>2019-08-17T08:54:25Z</time>
      </trkpt>
      <trkpt lat="47.41909" lon="6.55506">
        <ele>278.5</ele>
        <time>2019-08-17T08:54:26Z</time>
      </trkpt>
      <trkpt lat="47.41905" lon="6.55506">
        <ele>278.5</ele>
        <time>2019-08-17T08:54:27Z</time>
      </trkpt>
      <trkpt lat="47.419" lon="6.55504">
        <ele>278.5</ele>
        <time>2019-08-17T08:54:28Z</time>
      </trkpt>
      <trkpt lat="47.41896" lon="6.55503">
        <ele>278.5</ele>
        <time>2019-08-17T08:54:29Z</time>
      </trkpt>
      <trkpt lat="47.41891" lon="6.55501">
        <ele>278.5</ele>
        <time>2019-08-17T08:54:30Z</time>
      </trkpt>
      <trkpt lat="47.41885" lon="6.55499">
        <ele>278.5</ele>
        <time>2019-08-17T08:54:31Z</time>
      </trkpt>
      <trkpt lat="47.41879" lon="6.55496">
        <ele>278.5</ele>
        <time>2019-08-17T08:54:32Z</time>
      </trkpt>
      <trkpt lat="47.41874" lon="6.55495">
        <ele>278.5</ele>
        <time>2019-08-17T08:54:33Z</time>
      </trkpt>
      <trkpt lat="47.41869" lon="6.55494">
        <ele>278.5</ele>
        <time>2019-08-17T08:54:34Z</time>
      </trkpt>
      <trkpt lat="47.41864" lon="6.55492">
        <ele>278.5</ele>
        <time>2019-08-17T08:54:35Z</time>
      </trkpt>
      <trkpt lat="47.41859" lon="6.55489">
        <ele>278.5</ele>
        <time>2019-08-17T08:54:36Z</time>
      </trkpt>
      <trkpt lat="47.41853" lon="6.55488">
        <ele>278.5</ele>
        <time>2019-08-17T08:54:37Z</time>
      </trkpt>
      <trkpt lat="47.41848" lon="6.55486">
        <ele>278.5</ele>
        <time>2019-08-17T08:54:38Z</time>
      </trkpt>
      <trkpt lat="47.41842" lon="6.55484">
        <ele>278.5</ele>
        <time>2019-08-17T08:54:39Z</time>
      </trkpt>
      <trkpt lat="47.41838" lon="6.5548">
        <ele>278.5</ele>
        <time>2019-08-17T08:54:40Z</time>
      </trkpt>
      <trkpt lat="47.41832" lon="6.55474">
        <ele>278.5</ele>
        <time>2019-08-17T08:54:41Z</time>
      </trkpt>
      <trkpt lat="47.41826" lon="6.5547">
        <ele>278.4</ele>
        <time>2019-08-17T08:54:42Z</time>
      </trkpt>
      <trkpt lat="47.41821" lon="6.55466">
        <ele>278.4</ele>
        <time>2019-08-17T08:54:43Z</time>
      </trkpt>
      <trkpt lat="47.41815" lon="6.55462">
        <ele>278.4</ele>
        <time>2019-08-17T08:54:44Z</time>
      </trkpt>
      <trkpt lat="47.41809" lon="6.55457">
        <ele>278.4</ele>
        <time>2019-08-17T08:54:45Z</time>
      </trkpt>
      <trkpt lat="47.41802" lon="6.55451">
        <ele>278.3</ele>
        <time>2019-08-17T08:54:46Z</time>
      </trkpt>
      <trkpt lat="47.41796" lon="6.55446">
        <ele>278.3</ele>
        <time>2019-08-17T08:54:47Z</time>
      </trkpt>
      <trkpt lat="47.4179" lon="6.55442">
        <ele>278.3</ele>
        <time>2019-08-17T08:54:48Z</time>
      </trkpt>
      <trkpt lat="47.41785" lon="6.55436">
        <ele>278.3</ele>
        <time>2019-08-17T08:54:49Z</time>
      </trkpt>
      <trkpt lat="47.41779" lon="6.55431">
        <ele>278.3</ele>
        <time>2019-08-17T08:54:50Z</time>
      </trkpt>
      <trkpt lat="47.41774" lon="6.55427">
        <ele>278.2</ele>
        <time>2019-08-17T08:54:51Z</time>
      </trkpt>
      <trkpt lat="47.41767" lon="6.55421">
        <ele>278.2</ele>
        <time>2019-08-17T08:54:52Z</time>
      </trkpt>
      <trkpt lat="47.41762" lon="6.55414">
        <ele>278.2</ele>
        <time>2019-08-17T08:54:53Z</time>
      </trkpt>
      <trkpt lat="47.41758" lon="6.55411">
        <ele>278.2</ele>
        <time>2019-08-17T08:54:54Z</time>
      </trkpt>
      <trkpt lat="47.41753" lon="6.55405">
        <ele>278.2</ele>
        <time>2019-08-17T08:54:55Z</time>
      </trkpt>
      <trkpt lat="47.41749" lon="6.55401">
        <ele>278.2</ele>
        <time>2019-08-17T08:54:56Z</time>
      </trkpt>
      <trkpt lat="47.41744" lon="6.55397">
        <ele>278.2</ele>
        <time>2019-08-17T08:54:57Z</time>
      </trkpt>
      <trkpt lat="47.41741" lon="6.55393">
        <ele>278.3</ele>
        <time>2019-08-17T08:54:58Z</time>
      </trkpt>
      <trkpt lat="47.41734" lon="6.55386">
        <ele>278.3</ele>
        <time>2019-08-17T08:55:00Z</time>
      </trkpt>
      <trkpt lat="47.4173" lon="6.55379">
        <ele>278.3</ele>
        <time>2019-08-17T08:55:01Z</time>
      </trkpt>
      <trkpt lat="47.41726" lon="6.55374">
        <ele>278.3</ele>
        <time>2019-08-17T08:55:02Z</time>
      </trkpt>
      <trkpt lat="47.41722" lon="6.55367">
        <ele>278.3</ele>
        <time>2019-08-17T08:55:03Z</time>
      </trkpt>
      <trkpt lat="47.41718" lon="6.55361">
        <ele>278.3</ele>
        <time>2019-08-17T08:55:04Z</time>
      </trkpt>
      <trkpt lat="47.41714" lon="6.55355">
        <ele>278.4</ele>
        <time>2019-08-17T08:55:05Z</time>
      </trkpt>
      <trkpt lat="47.41711" lon="6.55349">
        <ele>278.4</ele>
        <time>2019-08-17T08:55:06Z</time>
      </trkpt>
      <trkpt lat="47.41707" lon="6.55343">
        <ele>278.4</ele>
        <time>2019-08-17T08:55:07Z</time>
      </trkpt>
      <trkpt lat="47.41704" lon="6.55337">
        <ele>278.4</ele>
        <time>2019-08-17T08:55:08Z</time>
      </trkpt>
      <trkpt lat="47.417" lon="6.55331">
        <ele>278.4</ele>
        <time>2019-08-17T08:55:09Z</time>
      </trkpt>
      <trkpt lat="47.41698" lon="6.55325">
        <ele>278.4</ele>
        <time>2019-08-17T08:55:10Z</time>
      </trkpt>
      <trkpt lat="47.41695" lon="6.5532">
        <ele>278.4</ele>
        <time>2019-08-17T08:55:11Z</time>
      </trkpt>
      <trkpt lat="47.41692" lon="6.55315">
        <ele>278.4</ele>
        <time>2019-08-17T08:55:12Z</time>
      </trkpt>
      <trkpt lat="47.41689" lon="6.5531">
        <ele>278.4</ele>
        <time>2019-08-17T08:55:13Z</time>
      </trkpt>
      <trkpt lat="47.41687" lon="6.55305">
        <ele>278.5</ele>
        <time>2019-08-17T08:55:14Z</time>
      </trkpt>
      <trkpt lat="47.41684" lon="6.553">
        <ele>278.5</ele>
        <time>2019-08-17T08:55:15Z</time>
      </trkpt>
      <trkpt lat="47.41682" lon="6.55296">
        <ele>278.5</ele>
        <time>2019-08-17T08:55:16Z</time>
      </trkpt>
      <trkpt lat="47.41679" lon="6.55288">
        <ele>278.5</ele>
        <time>2019-08-17T08:55:17Z</time>
      </trkpt>
      <trkpt lat="47.41676" lon="6.55283">
        <ele>278.5</ele>
        <time>2019-08-17T08:55:18Z</time>
      </trkpt>
      <trkpt lat="47.41672" lon="6.55275">
        <ele>278.5</ele>
        <time>2019-08-17T08:55:19Z</time>
      </trkpt>
      <trkpt lat="47.41668" lon="6.55265">
        <ele>278.5</ele>
        <time>2019-08-17T08:55:20Z</time>
      </trkpt>
      <trkpt lat="47.41664" lon="6.55255">
        <ele>278.5</ele>
        <time>2019-08-17T08:55:21Z</time>
      </trkpt>
      <trkpt lat="47.41661" lon="6.55247">
        <ele>278.5</ele>
        <time>2019-08-17T08:55:22Z</time>
      </trkpt>
      <trkpt lat="47.41659" lon="6.55238">
        <ele>278.5</ele>
        <time>2019-08-17T08:55:23Z</time>
      </trkpt>
      <trkpt lat="47.41656" lon="6.55228">
        <ele>278.5</ele>
        <time>2019-08-17T08:55:24Z</time>
      </trkpt>
      <trkpt lat="47.41653" lon="6.55219">
        <ele>278.5</ele>
        <time>2019-08-17T08:55:25Z</time>
      </trkpt>
      <trkpt lat="47.41649" lon="6.55209">
        <ele>278.6</ele>
        <time>2019-08-17T08:55:26Z</time>
      </trkpt>
      <trkpt lat="47.41646" lon="6.55202">
        <ele>278.6</ele>
        <time>2019-08-17T08:55:27Z</time>
      </trkpt>
      <trkpt lat="47.41644" lon="6.55194">
        <ele>278.6</ele>
        <time>2019-08-17T08:55:28Z</time>
      </trkpt>
      <trkpt lat="47.41642" lon="6.55187">
        <ele>278.6</ele>
        <time>2019-08-17T08:55:29Z</time>
      </trkpt>
      <trkpt lat="47.4164" lon="6.55179">
        <ele>278.5</ele>
        <time>2019-08-17T08:55:30Z</time>
      </trkpt>
      <trkpt lat="47.41639" lon="6.55172">
        <ele>278.5</ele>
        <time>2019-08-17T08:55:31Z</time>
      </trkpt>
      <trkpt lat="47.41637" lon="6.55165">
        <ele>278.5</ele>
        <time>2019-08-17T08:55:32Z</time>
      </trkpt>
      <trkpt lat="47.41634" lon="6.55158">
        <ele>278.5</ele>
        <time>2019-08-17T08:55:33Z</time>
      </trkpt>
      <trkpt lat="47.4163" lon="6.5515">
        <ele>278.5</ele>
        <time>2019-08-17T08:55:34Z</time>
      </trkpt>
      <trkpt lat="47.41627" lon="6.5514">
        <ele>278.5</ele>
        <time>2019-08-17T08:55:35Z</time>
      </trkpt>
      <trkpt lat="47.41623" lon="6.55133">
        <ele>278.5</ele>
        <time>2019-08-17T08:55:36Z</time>
      </trkpt>
      <trkpt lat="47.4162" lon="6.55124">
        <ele>278.5</ele>
        <time>2019-08-17T08:55:37Z</time>
      </trkpt>
      <trkpt lat="47.41617" lon="6.55117">
        <ele>278.6</ele>
        <time>2019-08-17T08:55:38Z</time>
      </trkpt>
      <trkpt lat="47.41615" lon="6.55109">
        <ele>278.6</ele>
        <time>2019-08-17T08:55:39Z</time>
      </trkpt>
      <trkpt lat="47.41613" lon="6.55102">
        <ele>278.6</ele>
        <time>2019-08-17T08:55:40Z</time>
      </trkpt>
      <trkpt lat="47.4161" lon="6.55094">
        <ele>278.6</ele>
        <time>2019-08-17T08:55:41Z</time>
      </trkpt>
      <trkpt lat="47.41609" lon="6.55087">
        <ele>278.6</ele>
        <time>2019-08-17T08:55:42Z</time>
      </trkpt>
      <trkpt lat="47.41607" lon="6.55079">
        <ele>278.7</ele>
        <time>2019-08-17T08:55:43Z</time>
      </trkpt>
      <trkpt lat="47.41606" lon="6.55071">
        <ele>278.7</ele>
        <time>2019-08-17T08:55:44Z</time>
      </trkpt>
      <trkpt lat="47.41604" lon="6.55063">
        <ele>278.8</ele>
        <time>2019-08-17T08:55:45Z</time>
      </trkpt>
      <trkpt lat="47.41602" lon="6.55055">
        <ele>278.8</ele>
        <time>2019-08-17T08:55:46Z</time>
      </trkpt>
      <trkpt lat="47.41601" lon="6.55048">
        <ele>278.8</ele>
        <time>2019-08-17T08:55:47Z</time>
      </trkpt>
      <trkpt lat="47.416" lon="6.55042">
        <ele>278.8</ele>
        <time>2019-08-17T08:55:48Z</time>
      </trkpt>
      <trkpt lat="47.41599" lon="6.55035">
        <ele>278.9</ele>
        <time>2019-08-17T08:55:49Z</time>
      </trkpt>
      <trkpt lat="47.41597" lon="6.55028">
        <ele>278.9</ele>
        <time>2019-08-17T08:55:50Z</time>
      </trkpt>
      <trkpt lat="47.41596" lon="6.55021">
        <ele>278.9</ele>
        <time>2019-08-17T08:55:51Z</time>
      </trkpt>
      <trkpt lat="47.41595" lon="6.55012">
        <ele>278.9</ele>
        <time>2019-08-17T08:55:52Z</time>
      </trkpt>
      <trkpt lat="47.41595" lon="6.55003">
        <ele>278.9</ele>
        <time>2019-08-17T08:55:53Z</time>
      </trkpt>
      <trkpt lat="47.41594" lon="6.54995">
        <ele>278.9</ele>
        <time>2019-08-17T08:55:54Z</time>
      </trkpt>
      <trkpt lat="47.41593" lon="6.54987">
        <ele>278.8</ele>
        <time>2019-08-17T08:55:55Z</time>
      </trkpt>
      <trkpt lat="47.41592" lon="6.54979">
        <ele>278.8</ele>
        <time>2019-08-17T08:55:56Z</time>
      </trkpt>
      <trkpt lat="47.41592" lon="6.54971">
        <ele>278.7</ele>
        <time>2019-08-17T08:55:57Z</time>
      </trkpt>
      <trkpt lat="47.4159" lon="6.54964">
        <ele>278.7</ele>
        <time>2019-08-17T08:55:58Z</time>
      </trkpt>
      <trkpt lat="47.4159" lon="6.54956">
        <ele>278.7</ele>
        <time>2019-08-17T08:55:59Z</time>
      </trkpt>
      <trkpt lat="47.41588" lon="6.54948">
        <ele>278.6</ele>
        <time>2019-08-17T08:56:00Z</time>
      </trkpt>
      <trkpt lat="47.41587" lon="6.5494">
        <ele>278.6</ele>
        <time>2019-08-17T08:56:01Z</time>
      </trkpt>
      <trkpt lat="47.41587" lon="6.54933">
        <ele>278.5</ele>
        <time>2019-08-17T08:56:02Z</time>
      </trkpt>
      <trkpt lat="47.41587" lon="6.54926">
        <ele>278.5</ele>
        <time>2019-08-17T08:56:03Z</time>
      </trkpt>
      <trkpt lat="47.41586" lon="6.54919">
        <ele>278.5</ele>
        <time>2019-08-17T08:56:04Z</time>
      </trkpt>
      <trkpt lat="47.41586" lon="6.54912">
        <ele>278.4</ele>
        <time>2019-08-17T08:56:05Z</time>
      </trkpt>
      <trkpt lat="47.41585" lon="6.54904">
        <ele>278.4</ele>
        <time>2019-08-17T08:56:06Z</time>
      </trkpt>
      <trkpt lat="47.41585" lon="6.54896">
        <ele>278.4</ele>
        <time>2019-08-17T08:56:07Z</time>
      </trkpt>
      <trkpt lat="47.41584" lon="6.54888">
        <ele>278.4</ele>
        <time>2019-08-17T08:56:08Z</time>
      </trkpt>
      <trkpt lat="47.41583" lon="6.5488">
        <ele>278.4</ele>
        <time>2019-08-17T08:56:09Z</time>
      </trkpt>
      <trkpt lat="47.41583" lon="6.54872">
        <ele>278.4</ele>
        <time>2019-08-17T08:56:10Z</time>
      </trkpt>
      <trkpt lat="47.41583" lon="6.54864">
        <ele>278.3</ele>
        <time>2019-08-17T08:56:11Z</time>
      </trkpt>
      <trkpt lat="47.41583" lon="6.54856">
        <ele>278.3</ele>
        <time>2019-08-17T08:56:12Z</time>
      </trkpt>
      <trkpt lat="47.41583" lon="6.54847">
        <ele>278.3</ele>
        <time>2019-08-17T08:56:13Z</time>
      </trkpt>
      <trkpt lat="47.41583" lon="6.5484">
        <ele>278.3</ele>
        <time>2019-08-17T08:56:14Z</time>
      </trkpt>
      <trkpt lat="47.41584" lon="6.54831">
        <ele>278.3</ele>
        <time>2019-08-17T08:56:15Z</time>
      </trkpt>
      <trkpt lat="47.41584" lon="6.54824">
        <ele>278.3</ele>
        <time>2019-08-17T08:56:16Z</time>
      </trkpt>
      <trkpt lat="47.41585" lon="6.54816">
        <ele>278.3</ele>
        <time>2019-08-17T08:56:17Z</time>
      </trkpt>
      <trkpt lat="47.41586" lon="6.54808">
        <ele>278.2</ele>
        <time>2019-08-17T08:56:18Z</time>
      </trkpt>
      <trkpt lat="47.41586" lon="6.548">
        <ele>278.2</ele>
        <time>2019-08-17T08:56:19Z</time>
      </trkpt>
      <trkpt lat="47.41586" lon="6.54792">
        <ele>278.2</ele>
        <time>2019-08-17T08:56:20Z</time>
      </trkpt>
      <trkpt lat="47.41587" lon="6.54785">
        <ele>278.2</ele>
        <time>2019-08-17T08:56:21Z</time>
      </trkpt>
      <trkpt lat="47.41587" lon="6.54777">
        <ele>278.2</ele>
        <time>2019-08-17T08:56:22Z</time>
      </trkpt>
      <trkpt lat="47.41588" lon="6.54769">
        <ele>278.2</ele>
        <time>2019-08-17T08:56:23Z</time>
      </trkpt>
      <trkpt lat="47.4159" lon="6.54761">
        <ele>278.2</ele>
        <time>2019-08-17T08:56:24Z</time>
      </trkpt>
      <trkpt lat="47.4159" lon="6.54755">
        <ele>278.2</ele>
        <time>2019-08-17T08:56:25Z</time>
      </trkpt>
      <trkpt lat="47.41591" lon="6.54747">
        <ele>278.2</ele>
        <time>2019-08-17T08:56:26Z</time>
      </trkpt>
      <trkpt lat="47.41592" lon="6.5474">
        <ele>278.2</ele>
        <time>2019-08-17T08:56:27Z</time>
      </trkpt>
      <trkpt lat="47.41593" lon="6.54732">
        <ele>278.2</ele>
        <time>2019-08-17T08:56:28Z</time>
      </trkpt>
      <trkpt lat="47.41594" lon="6.54723">
        <ele>278.2</ele>
        <time>2019-08-17T08:56:29Z</time>
      </trkpt>
      <trkpt lat="47.41595" lon="6.54715">
        <ele>278.2</ele>
        <time>2019-08-17T08:56:30Z</time>
      </trkpt>
      <trkpt lat="47.41595" lon="6.54707">
        <ele>278.2</ele>
        <time>2019-08-17T08:56:31Z</time>
      </trkpt>
      <trkpt lat="47.41596" lon="6.54699">
        <ele>278.2</ele>
        <time>2019-08-17T08:56:32Z</time>
      </trkpt>
      <trkpt lat="47.41596" lon="6.54692">
        <ele>278.2</ele>
        <time>2019-08-17T08:56:33Z</time>
      </trkpt>
      <trkpt lat="47.41597" lon="6.54685">
        <ele>278.2</ele>
        <time>2019-08-17T08:56:34Z</time>
      </trkpt>
      <trkpt lat="47.41597" lon="6.54678">
        <ele>278.2</ele>
        <time>2019-08-17T08:56:35Z</time>
      </trkpt>
      <trkpt lat="47.41597" lon="6.54671">
        <ele>278.2</ele>
        <time>2019-08-17T08:56:36Z</time>
      </trkpt>
      <trkpt lat="47.41596" lon="6.54663">
        <ele>278.2</ele>
        <time>2019-08-17T08:56:37Z</time>
      </trkpt>
      <trkpt lat="47.41596" lon="6.54655">
        <ele>278.2</ele>
        <time>2019-08-17T08:56:38Z</time>
      </trkpt>
      <trkpt lat="47.41596" lon="6.54648">
        <ele>278.2</ele>
        <time>2019-08-17T08:56:39Z</time>
      </trkpt>
      <trkpt lat="47.41595" lon="6.5464">
        <ele>278.2</ele>
        <time>2019-08-17T08:56:40Z</time>
      </trkpt>
      <trkpt lat="47.41595" lon="6.54631">
        <ele>278.2</ele>
        <time>2019-08-17T08:56:41Z</time>
      </trkpt>
      <trkpt lat="47.41594" lon="6.54622">
        <ele>278.2</ele>
        <time>2019-08-17T08:56:42Z</time>
      </trkpt>
      <trkpt lat="47.41594" lon="6.54612">
        <ele>278.3</ele>
        <time>2019-08-17T08:56:43Z</time>
      </trkpt>
      <trkpt lat="47.41594" lon="6.54603">
        <ele>278.3</ele>
        <time>2019-08-17T08:56:44Z</time>
      </trkpt>
      <trkpt lat="47.41594" lon="6.54595">
        <ele>278.3</ele>
        <time>2019-08-17T08:56:45Z</time>
      </trkpt>
      <trkpt lat="47.41595" lon="6.54587">
        <ele>278.3</ele>
        <time>2019-08-17T08:56:46Z</time>
      </trkpt>
      <trkpt lat="47.41595" lon="6.54579">
        <ele>278.3</ele>
        <time>2019-08-17T08:56:47Z</time>
      </trkpt>
      <trkpt lat="47.41595" lon="6.54571">
        <ele>278.3</ele>
        <time>2019-08-17T08:56:48Z</time>
      </trkpt>
      <trkpt lat="47.41595" lon="6.54563">
        <ele>278.3</ele>
        <time>2019-08-17T08:56:49Z</time>
      </trkpt>
      <trkpt lat="47.41596" lon="6.54555">
        <ele>278.3</ele>
        <time>2019-08-17T08:56:50Z</time>
      </trkpt>
      <trkpt lat="47.41596" lon="6.54548">
        <ele>278.3</ele>
        <time>2019-08-17T08:56:51Z</time>
      </trkpt>
      <trkpt lat="47.41595" lon="6.54542">
        <ele>278.3</ele>
        <time>2019-08-17T08:56:52Z</time>
      </trkpt>
      <trkpt lat="47.41595" lon="6.54535">
        <ele>278.3</ele>
        <time>2019-08-17T08:56:53Z</time>
      </trkpt>
      <trkpt lat="47.41595" lon="6.54527">
        <ele>278.3</ele>
        <time>2019-08-17T08:56:54Z</time>
      </trkpt>
      <trkpt lat="47.41596" lon="6.54518">
        <ele>278.3</ele>
        <time>2019-08-17T08:56:55Z</time>
      </trkpt>
      <trkpt lat="47.41596" lon="6.5451">
        <ele>278.3</ele>
        <time>2019-08-17T08:56:56Z</time>
      </trkpt>
      <trkpt lat="47.41596" lon="6.54501">
        <ele>278.3</ele>
        <time>2019-08-17T08:56:57Z</time>
      </trkpt>
      <trkpt lat="47.41597" lon="6.54493">
        <ele>278.3</ele>
        <time>2019-08-17T08:56:58Z</time>
      </trkpt>
      <trkpt lat="47.41597" lon="6.54484">
        <ele>278.3</ele>
        <time>2019-08-17T08:56:59Z</time>
      </trkpt>
      <trkpt lat="47.41597" lon="6.54476">
        <ele>278.3</ele>
        <time>2019-08-17T08:57:00Z</time>
      </trkpt>
      <trkpt lat="47.41597" lon="6.54468">
        <ele>278.3</ele>
        <time>2019-08-17T08:57:01Z</time>
      </trkpt>
      <trkpt lat="47.41597" lon="6.5446">
        <ele>278.3</ele>
        <time>2019-08-17T08:57:02Z</time>
      </trkpt>
      <trkpt lat="47.41597" lon="6.54453">
        <ele>278.3</ele>
        <time>2019-08-17T08:57:03Z</time>
      </trkpt>
      <trkpt lat="47.41598" lon="6.54445">
        <ele>278.3</ele>
        <time>2019-08-17T08:57:04Z</time>
      </trkpt>
      <trkpt lat="47.41598" lon="6.54438">
        <ele>278.3</ele>
        <time>2019-08-17T08:57:05Z</time>
      </trkpt>
      <trkpt lat="47.41599" lon="6.5443">
        <ele>278.3</ele>
        <time>2019-08-17T08:57:06Z</time>
      </trkpt>
      <trkpt lat="47.41599" lon="6.54422">
        <ele>278.3</ele>
        <time>2019-08-17T08:57:07Z</time>
      </trkpt>
      <trkpt lat="47.41599" lon="6.54414">
        <ele>278.3</ele>
        <time>2019-08-17T08:57:08Z</time>
      </trkpt>
      <trkpt lat="47.41599" lon="6.54406">
        <ele>278.3</ele>
        <time>2019-08-17T08:57:09Z</time>
      </trkpt>
      <trkpt lat="47.416" lon="6.54398">
        <ele>278.3</ele>
        <time>2019-08-17T08:57:10Z</time>
      </trkpt>
      <trkpt lat="47.416" lon="6.5439">
        <ele>278.3</ele>
        <time>2019-08-17T08:57:11Z</time>
      </trkpt>
      <trkpt lat="47.41601" lon="6.54381">
        <ele>278.3</ele>
        <time>2019-08-17T08:57:12Z</time>
      </trkpt>
      <trkpt lat="47.41601" lon="6.54372">
        <ele>278.3</ele>
        <time>2019-08-17T08:57:13Z</time>
      </trkpt>
      <trkpt lat="47.41601" lon="6.54363">
        <ele>278.3</ele>
        <time>2019-08-17T08:57:14Z</time>
      </trkpt>
      <trkpt lat="47.41602" lon="6.54354">
        <ele>278.3</ele>
        <time>2019-08-17T08:57:15Z</time>
      </trkpt>
      <trkpt lat="47.41602" lon="6.54346">
        <ele>278.3</ele>
        <time>2019-08-17T08:57:16Z</time>
      </trkpt>
      <trkpt lat="47.41602" lon="6.54339">
        <ele>278.3</ele>
        <time>2019-08-17T08:57:17Z</time>
      </trkpt>
      <trkpt lat="47.41602" lon="6.54331">
        <ele>278.3</ele>
        <time>2019-08-17T08:57:18Z</time>
      </trkpt>
      <trkpt lat="47.41603" lon="6.54323">
        <ele>278.3</ele>
        <time>2019-08-17T08:57:19Z</time>
      </trkpt>
      <trkpt lat="47.41603" lon="6.54315">
        <ele>278.3</ele>
        <time>2019-08-17T08:57:20Z</time>
      </trkpt>
      <trkpt lat="47.41604" lon="6.54308">
        <ele>278.3</ele>
        <time>2019-08-17T08:57:21Z</time>
      </trkpt>
      <trkpt lat="47.41605" lon="6.54301">
        <ele>278.3</ele>
        <time>2019-08-17T08:57:22Z</time>
      </trkpt>
      <trkpt lat="47.41606" lon="6.54294">
        <ele>278.3</ele>
        <time>2019-08-17T08:57:23Z</time>
      </trkpt>
      <trkpt lat="47.41606" lon="6.54288">
        <ele>278.3</ele>
        <time>2019-08-17T08:57:24Z</time>
      </trkpt>
      <trkpt lat="47.41607" lon="6.54281">
        <ele>278.3</ele>
        <time>2019-08-17T08:57:25Z</time>
      </trkpt>
      <trkpt lat="47.41608" lon="6.54271">
        <ele>278.3</ele>
        <time>2019-08-17T08:57:26Z</time>
      </trkpt>
      <trkpt lat="47.41609" lon="6.54262">
        <ele>278.3</ele>
        <time>2019-08-17T08:57:27Z</time>
      </trkpt>
      <trkpt lat="47.41609" lon="6.54255">
        <ele>278.3</ele>
        <time>2019-08-17T08:57:28Z</time>
      </trkpt>
      <trkpt lat="47.4161" lon="6.54247">
        <ele>278.3</ele>
        <time>2019-08-17T08:57:29Z</time>
      </trkpt>
      <trkpt lat="47.4161" lon="6.54239">
        <ele>278.3</ele>
        <time>2019-08-17T08:57:30Z</time>
      </trkpt>
      <trkpt lat="47.41609" lon="6.54232">
        <ele>278.3</ele>
        <time>2019-08-17T08:57:31Z</time>
      </trkpt>
      <trkpt lat="47.41608" lon="6.54224">
        <ele>278.3</ele>
        <time>2019-08-17T08:57:32Z</time>
      </trkpt>
      <trkpt lat="47.41608" lon="6.54215">
        <ele>278.3</ele>
        <time>2019-08-17T08:57:33Z</time>
      </trkpt>
      <trkpt lat="47.41608" lon="6.54207">
        <ele>278.3</ele>
        <time>2019-08-17T08:57:34Z</time>
      </trkpt>
      <trkpt lat="47.41607" lon="6.54198">
        <ele>278.3</ele>
        <time>2019-08-17T08:57:35Z</time>
      </trkpt>
      <trkpt lat="47.41607" lon="6.5419">
        <ele>278.4</ele>
        <time>2019-08-17T08:57:36Z</time>
      </trkpt>
      <trkpt lat="47.41606" lon="6.54184">
        <ele>278.4</ele>
        <time>2019-08-17T08:57:37Z</time>
      </trkpt>
      <trkpt lat="47.41606" lon="6.54178">
        <ele>278.4</ele>
        <time>2019-08-17T08:57:38Z</time>
      </trkpt>
      <trkpt lat="47.41605" lon="6.54171">
        <ele>278.4</ele>
        <time>2019-08-17T08:57:39Z</time>
      </trkpt>
      <trkpt lat="47.41605" lon="6.54166">
        <ele>278.4</ele>
        <time>2019-08-17T08:57:40Z</time>
      </trkpt>
      <trkpt lat="47.41605" lon="6.54161">
        <ele>278.4</ele>
        <time>2019-08-17T08:57:41Z</time>
      </trkpt>
      <trkpt lat="47.41605" lon="6.54154">
        <ele>278.4</ele>
        <time>2019-08-17T08:57:43Z</time>
      </trkpt>
      <trkpt lat="47.41605" lon="6.5415">
        <ele>278.4</ele>
        <time>2019-08-17T08:57:44Z</time>
      </trkpt>
      <trkpt lat="47.41605" lon="6.54145">
        <ele>278.4</ele>
        <time>2019-08-17T08:57:45Z</time>
      </trkpt>
      <trkpt lat="47.41606" lon="6.5414">
        <ele>278.4</ele>
        <time>2019-08-17T08:57:46Z</time>
      </trkpt>
      <trkpt lat="47.41607" lon="6.54134">
        <ele>278.4</ele>
        <time>2019-08-17T08:57:47Z</time>
      </trkpt>
      <trkpt lat="47.41608" lon="6.54125">
        <ele>278.4</ele>
        <time>2019-08-17T08:57:48Z</time>
      </trkpt>
      <trkpt lat="47.41608" lon="6.54117">
        <ele>278.4</ele>
        <time>2019-08-17T08:57:49Z</time>
      </trkpt>
      <trkpt lat="47.41609" lon="6.54109">
        <ele>278.4</ele>
        <time>2019-08-17T08:57:50Z</time>
      </trkpt>
      <trkpt lat="47.4161" lon="6.541">
        <ele>278.4</ele>
        <time>2019-08-17T08:57:51Z</time>
      </trkpt>
      <trkpt lat="47.4161" lon="6.54093">
        <ele>278.4</ele>
        <time>2019-08-17T08:57:52Z</time>
      </trkpt>
      <trkpt lat="47.41611" lon="6.54086">
        <ele>278.4</ele>
        <time>2019-08-17T08:57:53Z</time>
      </trkpt>
      <trkpt lat="47.41611" lon="6.54078">
        <ele>278.4</ele>
        <time>2019-08-17T08:57:54Z</time>
      </trkpt>
      <trkpt lat="47.41611" lon="6.54071">
        <ele>278.4</ele>
        <time>2019-08-17T08:57:55Z</time>
      </trkpt>
      <trkpt lat="47.41611" lon="6.54064">
        <ele>278.4</ele>
        <time>2019-08-17T08:57:56Z</time>
      </trkpt>
      <trkpt lat="47.41612" lon="6.54057">
        <ele>278.4</ele>
        <time>2019-08-17T08:57:57Z</time>
      </trkpt>
      <trkpt lat="47.41612" lon="6.54049">
        <ele>278.4</ele>
        <time>2019-08-17T08:57:58Z</time>
      </trkpt>
      <trkpt lat="47.41612" lon="6.54042">
        <ele>278.4</ele>
        <time>2019-08-17T08:57:59Z</time>
      </trkpt>
      <trkpt lat="47.41613" lon="6.54035">
        <ele>278.4</ele>
        <time>2019-08-17T08:58:00Z</time>
      </trkpt>
      <trkpt lat="47.41613" lon="6.54027">
        <ele>278.4</ele>
        <time>2019-08-17T08:58:01Z</time>
      </trkpt>
      <trkpt lat="47.41613" lon="6.5402">
        <ele>278.4</ele>
        <time>2019-08-17T08:58:02Z</time>
      </trkpt>
      <trkpt lat="47.41614" lon="6.54014">
        <ele>278.4</ele>
        <time>2019-08-17T08:58:03Z</time>
      </trkpt>
      <trkpt lat="47.41614" lon="6.54007">
        <ele>278.4</ele>
        <time>2019-08-17T08:58:04Z</time>
      </trkpt>
      <trkpt lat="47.41614" lon="6.54002">
        <ele>278.4</ele>
        <time>2019-08-17T08:58:05Z</time>
      </trkpt>
      <trkpt lat="47.41614" lon="6.53995">
        <ele>278.4</ele>
        <time>2019-08-17T08:58:06Z</time>
      </trkpt>
      <trkpt lat="47.41614" lon="6.53989">
        <ele>278.4</ele>
        <time>2019-08-17T08:58:07Z</time>
      </trkpt>
      <trkpt lat="47.41614" lon="6.53983">
        <ele>278.4</ele>
        <time>2019-08-17T08:58:08Z</time>
      </trkpt>
      <trkpt lat="47.41614" lon="6.53975">
        <ele>278.4</ele>
        <time>2019-08-17T08:58:09Z</time>
      </trkpt>
      <trkpt lat="47.41614" lon="6.53967">
        <ele>278.4</ele>
        <time>2019-08-17T08:58:10Z</time>
      </trkpt>
      <trkpt lat="47.41614" lon="6.53961">
        <ele>278.4</ele>
        <time>2019-08-17T08:58:11Z</time>
      </trkpt>
      <trkpt lat="47.41613" lon="6.53953">
        <ele>278.4</ele>
        <time>2019-08-17T08:58:12Z</time>
      </trkpt>
      <trkpt lat="47.41613" lon="6.53947">
        <ele>278.4</ele>
        <time>2019-08-17T08:58:13Z</time>
      </trkpt>
      <trkpt lat="47.41612" lon="6.5394">
        <ele>278.4</ele>
        <time>2019-08-17T08:58:14Z</time>
      </trkpt>
      <trkpt lat="47.41612" lon="6.53932">
        <ele>278.4</ele>
        <time>2019-08-17T08:58:15Z</time>
      </trkpt>
      <trkpt lat="47.41611" lon="6.53924">
        <ele>278.4</ele>
        <time>2019-08-17T08:58:16Z</time>
      </trkpt>
      <trkpt lat="47.41611" lon="6.53916">
        <ele>278.4</ele>
        <time>2019-08-17T08:58:17Z</time>
      </trkpt>
      <trkpt lat="47.41611" lon="6.53908">
        <ele>278.4</ele>
        <time>2019-08-17T08:58:18Z</time>
      </trkpt>
      <trkpt lat="47.4161" lon="6.53901">
        <ele>278.4</ele>
        <time>2019-08-17T08:58:19Z</time>
      </trkpt>
      <trkpt lat="47.4161" lon="6.53894">
        <ele>278.4</ele>
        <time>2019-08-17T08:58:20Z</time>
      </trkpt>
      <trkpt lat="47.4161" lon="6.53885">
        <ele>278.4</ele>
        <time>2019-08-17T08:58:21Z</time>
      </trkpt>
      <trkpt lat="47.4161" lon="6.53877">
        <ele>278.4</ele>
        <time>2019-08-17T08:58:22Z</time>
      </trkpt>
      <trkpt lat="47.41611" lon="6.53869">
        <ele>278.4</ele>
        <time>2019-08-17T08:58:23Z</time>
      </trkpt>
      <trkpt lat="47.41611" lon="6.53862">
        <ele>278.4</ele>
        <time>2019-08-17T08:58:24Z</time>
      </trkpt>
      <trkpt lat="47.41611" lon="6.53857">
        <ele>278.4</ele>
        <time>2019-08-17T08:58:25Z</time>
      </trkpt>
      <trkpt lat="47.41611" lon="6.5385">
        <ele>278.4</ele>
        <time>2019-08-17T08:58:26Z</time>
      </trkpt>
      <trkpt lat="47.41611" lon="6.53844">
        <ele>278.4</ele>
        <time>2019-08-17T08:58:27Z</time>
      </trkpt>
      <trkpt lat="47.41611" lon="6.53837">
        <ele>278.4</ele>
        <time>2019-08-17T08:58:28Z</time>
      </trkpt>
      <trkpt lat="47.4161" lon="6.53829">
        <ele>278.4</ele>
        <time>2019-08-17T08:58:29Z</time>
      </trkpt>
      <trkpt lat="47.4161" lon="6.53821">
        <ele>278.4</ele>
        <time>2019-08-17T08:58:30Z</time>
      </trkpt>
      <trkpt lat="47.4161" lon="6.53813">
        <ele>278.4</ele>
        <time>2019-08-17T08:58:31Z</time>
      </trkpt>
      <trkpt lat="47.4161" lon="6.53805">
        <ele>278.4</ele>
        <time>2019-08-17T08:58:32Z</time>
      </trkpt>
      <trkpt lat="47.4161" lon="6.53798">
        <ele>278.4</ele>
        <time>2019-08-17T08:58:33Z</time>
      </trkpt>
      <trkpt lat="47.4161" lon="6.5379">
        <ele>278.4</ele>
        <time>2019-08-17T08:58:34Z</time>
      </trkpt>
      <trkpt lat="47.4161" lon="6.53782">
        <ele>278.4</ele>
        <time>2019-08-17T08:58:35Z</time>
      </trkpt>
      <trkpt lat="47.41609" lon="6.53775">
        <ele>278.4</ele>
        <time>2019-08-17T08:58:36Z</time>
      </trkpt>
      <trkpt lat="47.41609" lon="6.53768">
        <ele>278.4</ele>
        <time>2019-08-17T08:58:37Z</time>
      </trkpt>
      <trkpt lat="47.41609" lon="6.5376">
        <ele>278.4</ele>
        <time>2019-08-17T08:58:38Z</time>
      </trkpt>
      <trkpt lat="47.4161" lon="6.53754">
        <ele>278.4</ele>
        <time>2019-08-17T08:58:39Z</time>
      </trkpt>
      <trkpt lat="47.4161" lon="6.53747">
        <ele>278.4</ele>
        <time>2019-08-17T08:58:40Z</time>
      </trkpt>
      <trkpt lat="47.4161" lon="6.5374">
        <ele>278.4</ele>
        <time>2019-08-17T08:58:41Z</time>
      </trkpt>
      <trkpt lat="47.4161" lon="6.53732">
        <ele>278.4</ele>
        <time>2019-08-17T08:58:42Z</time>
      </trkpt>
      <trkpt lat="47.4161" lon="6.53724">
        <ele>278.4</ele>
        <time>2019-08-17T08:58:43Z</time>
      </trkpt>
      <trkpt lat="47.4161" lon="6.53716">
        <ele>278.4</ele>
        <time>2019-08-17T08:58:44Z</time>
      </trkpt>
      <trkpt lat="47.4161" lon="6.53708">
        <ele>278.4</ele>
        <time>2019-08-17T08:58:45Z</time>
      </trkpt>
      <trkpt lat="47.4161" lon="6.537">
        <ele>278.4</ele>
        <time>2019-08-17T08:58:46Z</time>
      </trkpt>
      <trkpt lat="47.4161" lon="6.53692">
        <ele>278.4</ele>
        <time>2019-08-17T08:58:47Z</time>
      </trkpt>
      <trkpt lat="47.4161" lon="6.53685">
        <ele>278.4</ele>
        <time>2019-08-17T08:58:48Z</time>
      </trkpt>
      <trkpt lat="47.4161" lon="6.53678">
        <ele>278.4</ele>
        <time>2019-08-17T08:58:49Z</time>
      </trkpt>
      <trkpt lat="47.41611" lon="6.5367">
        <ele>278.4</ele>
        <time>2019-08-17T08:58:50Z</time>
      </trkpt>
      <trkpt lat="47.41611" lon="6.53663">
        <ele>278.4</ele>
        <time>2019-08-17T08:58:51Z</time>
      </trkpt>
      <trkpt lat="47.41611" lon="6.53656">
        <ele>278.4</ele>
        <time>2019-08-17T08:58:52Z</time>
      </trkpt>
      <trkpt lat="47.41612" lon="6.53649">
        <ele>278.4</ele>
        <time>2019-08-17T08:58:53Z</time>
      </trkpt>
      <trkpt lat="47.41612" lon="6.53641">
        <ele>278.4</ele>
        <time>2019-08-17T08:58:54Z</time>
      </trkpt>
      <trkpt lat="47.41612" lon="6.53634">
        <ele>278.4</ele>
        <time>2019-08-17T08:58:55Z</time>
      </trkpt>
      <trkpt lat="47.41613" lon="6.53626">
        <ele>278.4</ele>
        <time>2019-08-17T08:58:56Z</time>
      </trkpt>
      <trkpt lat="47.41613" lon="6.53616">
        <ele>278.4</ele>
        <time>2019-08-17T08:58:57Z</time>
      </trkpt>
      <trkpt lat="47.41613" lon="6.53608">
        <ele>278.4</ele>
        <time>2019-08-17T08:58:58Z</time>
      </trkpt>
      <trkpt lat="47.41613" lon="6.536">
        <ele>278.4</ele>
        <time>2019-08-17T08:58:59Z</time>
      </trkpt>
      <trkpt lat="47.41613" lon="6.53592">
        <ele>278.4</ele>
        <time>2019-08-17T08:59:00Z</time>
      </trkpt>
      <trkpt lat="47.41613" lon="6.53583">
        <ele>278.4</ele>
        <time>2019-08-17T08:59:01Z</time>
      </trkpt>
      <trkpt lat="47.41613" lon="6.53575">
        <ele>278.4</ele>
        <time>2019-08-17T08:59:02Z</time>
      </trkpt>
      <trkpt lat="47.41613" lon="6.53567">
        <ele>278.4</ele>
        <time>2019-08-17T08:59:03Z</time>
      </trkpt>
      <trkpt lat="47.41613" lon="6.53559">
        <ele>278.4</ele>
        <time>2019-08-17T08:59:04Z</time>
      </trkpt>
      <trkpt lat="47.41614" lon="6.5355">
        <ele>278.4</ele>
        <time>2019-08-17T08:59:05Z</time>
      </trkpt>
      <trkpt lat="47.41614" lon="6.53542">
        <ele>278.4</ele>
        <time>2019-08-17T08:59:06Z</time>
      </trkpt>
      <trkpt lat="47.41615" lon="6.53533">
        <ele>278.4</ele>
        <time>2019-08-17T08:59:07Z</time>
      </trkpt>
      <trkpt lat="47.41615" lon="6.53525">
        <ele>278.4</ele>
        <time>2019-08-17T08:59:08Z</time>
      </trkpt>
      <trkpt lat="47.41616" lon="6.53517">
        <ele>278.4</ele>
        <time>2019-08-17T08:59:09Z</time>
      </trkpt>
      <trkpt lat="47.41616" lon="6.53509">
        <ele>278.4</ele>
        <time>2019-08-17T08:59:10Z</time>
      </trkpt>
      <trkpt lat="47.41616" lon="6.535">
        <ele>278.4</ele>
        <time>2019-08-17T08:59:11Z</time>
      </trkpt>
      <trkpt lat="47.41616" lon="6.53492">
        <ele>278.4</ele>
        <time>2019-08-17T08:59:12Z</time>
      </trkpt>
      <trkpt lat="47.41616" lon="6.53484">
        <ele>278.4</ele>
        <time>2019-08-17T08:59:13Z</time>
      </trkpt>
      <trkpt lat="47.41616" lon="6.53475">
        <ele>278.4</ele>
        <time>2019-08-17T08:59:14Z</time>
      </trkpt>
      <trkpt lat="47.41616" lon="6.53467">
        <ele>278.4</ele>
        <time>2019-08-17T08:59:15Z</time>
      </trkpt>
      <trkpt lat="47.41616" lon="6.53459">
        <ele>278.4</ele>
        <time>2019-08-17T08:59:16Z</time>
      </trkpt>
      <trkpt lat="47.41616" lon="6.53451">
        <ele>278.4</ele>
        <time>2019-08-17T08:59:17Z</time>
      </trkpt>
      <trkpt lat="47.41615" lon="6.53443">
        <ele>278.4</ele>
        <time>2019-08-17T08:59:18Z</time>
      </trkpt>
      <trkpt lat="47.41615" lon="6.53434">
        <ele>278.4</ele>
        <time>2019-08-17T08:59:19Z</time>
      </trkpt>
      <trkpt lat="47.41615" lon="6.53426">
        <ele>278.4</ele>
        <time>2019-08-17T08:59:20Z</time>
      </trkpt>
      <trkpt lat="47.41615" lon="6.53418">
        <ele>278.4</ele>
        <time>2019-08-17T08:59:21Z</time>
      </trkpt>
      <trkpt lat="47.41615" lon="6.53409">
        <ele>278.4</ele>
        <time>2019-08-17T08:59:22Z</time>
      </trkpt>
      <trkpt lat="47.41615" lon="6.534">
        <ele>278.4</ele>
        <time>2019-08-17T08:59:23Z</time>
      </trkpt>
      <trkpt lat="47.41616" lon="6.53392">
        <ele>278.4</ele>
        <time>2019-08-17T08:59:24Z</time>
      </trkpt>
      <trkpt lat="47.41617" lon="6.53383">
        <ele>278.4</ele>
        <time>2019-08-17T08:59:25Z</time>
      </trkpt>
      <trkpt lat="47.41617" lon="6.53374">
        <ele>278.4</ele>
        <time>2019-08-17T08:59:26Z</time>
      </trkpt>
      <trkpt lat="47.41618" lon="6.53365">
        <ele>278.4</ele>
        <time>2019-08-17T08:59:27Z</time>
      </trkpt>
      <trkpt lat="47.41619" lon="6.53356">
        <ele>278.4</ele>
        <time>2019-08-17T08:59:28Z</time>
      </trkpt>
      <trkpt lat="47.41619" lon="6.53348">
        <ele>278.4</ele>
        <time>2019-08-17T08:59:29Z</time>
      </trkpt>
      <trkpt lat="47.41619" lon="6.5334">
        <ele>278.5</ele>
        <time>2019-08-17T08:59:30Z</time>
      </trkpt>
      <trkpt lat="47.41618" lon="6.53333">
        <ele>278.5</ele>
        <time>2019-08-17T08:59:31Z</time>
      </trkpt>
      <trkpt lat="47.41618" lon="6.53325">
        <ele>278.6</ele>
        <time>2019-08-17T08:59:32Z</time>
      </trkpt>
      <trkpt lat="47.41617" lon="6.53317">
        <ele>278.7</ele>
        <time>2019-08-17T08:59:33Z</time>
      </trkpt>
      <trkpt lat="47.41617" lon="6.53308">
        <ele>278.8</ele>
        <time>2019-08-17T08:59:34Z</time>
      </trkpt>
      <trkpt lat="47.41617" lon="6.533">
        <ele>278.9</ele>
        <time>2019-08-17T08:59:35Z</time>
      </trkpt>
      <trkpt lat="47.41617" lon="6.53291">
        <ele>279</ele>
        <time>2019-08-17T08:59:36Z</time>
      </trkpt>
      <trkpt lat="47.41617" lon="6.53281">
        <ele>279.1</ele>
        <time>2019-08-17T08:59:37Z</time>
      </trkpt>
      <trkpt lat="47.41617" lon="6.53272">
        <ele>279.2</ele>
        <time>2019-08-17T08:59:38Z</time>
      </trkpt>
      <trkpt lat="47.41618" lon="6.53263">
        <ele>279.2</ele>
        <time>2019-08-17T08:59:39Z</time>
      </trkpt>
      <trkpt lat="47.41619" lon="6.53255">
        <ele>279.3</ele>
        <time>2019-08-17T08:59:40Z</time>
      </trkpt>
      <trkpt lat="47.4162" lon="6.53248">
        <ele>279.3</ele>
        <time>2019-08-17T08:59:41Z</time>
      </trkpt>
      <trkpt lat="47.4162" lon="6.5324">
        <ele>279.3</ele>
        <time>2019-08-17T08:59:42Z</time>
      </trkpt>
      <trkpt lat="47.4162" lon="6.53232">
        <ele>279.3</ele>
        <time>2019-08-17T08:59:43Z</time>
      </trkpt>
      <trkpt lat="47.4162" lon="6.53224">
        <ele>279.3</ele>
        <time>2019-08-17T08:59:44Z</time>
      </trkpt>
      <trkpt lat="47.4162" lon="6.53217">
        <ele>279.3</ele>
        <time>2019-08-17T08:59:45Z</time>
      </trkpt>
      <trkpt lat="47.4162" lon="6.5321">
        <ele>279.3</ele>
        <time>2019-08-17T08:59:46Z</time>
      </trkpt>
      <trkpt lat="47.4162" lon="6.53202">
        <ele>279.3</ele>
        <time>2019-08-17T08:59:47Z</time>
      </trkpt>
      <trkpt lat="47.41621" lon="6.53194">
        <ele>279.3</ele>
        <time>2019-08-17T08:59:48Z</time>
      </trkpt>
      <trkpt lat="47.4162" lon="6.53186">
        <ele>279.3</ele>
        <time>2019-08-17T08:59:49Z</time>
      </trkpt>
      <trkpt lat="47.4162" lon="6.53178">
        <ele>279.3</ele>
        <time>2019-08-17T08:59:50Z</time>
      </trkpt>
      <trkpt lat="47.4162" lon="6.5317">
        <ele>279.3</ele>
        <time>2019-08-17T08:59:51Z</time>
      </trkpt>
      <trkpt lat="47.4162" lon="6.53162">
        <ele>279.3</ele>
        <time>2019-08-17T08:59:52Z</time>
      </trkpt>
      <trkpt lat="47.41619" lon="6.53154">
        <ele>279.3</ele>
        <time>2019-08-17T08:59:53Z</time>
      </trkpt>
      <trkpt lat="47.41619" lon="6.53147">
        <ele>279.3</ele>
        <time>2019-08-17T08:59:54Z</time>
      </trkpt>
      <trkpt lat="47.41619" lon="6.5314">
        <ele>279.3</ele>
        <time>2019-08-17T08:59:55Z</time>
      </trkpt>
      <trkpt lat="47.41618" lon="6.53132">
        <ele>279.3</ele>
        <time>2019-08-17T08:59:56Z</time>
      </trkpt>
      <trkpt lat="47.41618" lon="6.53123">
        <ele>279.3</ele>
        <time>2019-08-17T08:59:57Z</time>
      </trkpt>
      <trkpt lat="47.41619" lon="6.53114">
        <ele>279.3</ele>
        <time>2019-08-17T08:59:58Z</time>
      </trkpt>
      <trkpt lat="47.41619" lon="6.53105">
        <ele>279.3</ele>
        <time>2019-08-17T08:59:59Z</time>
      </trkpt>
      <trkpt lat="47.41619" lon="6.53096">
        <ele>279.3</ele>
        <time>2019-08-17T09:00:00Z</time>
      </trkpt>
      <trkpt lat="47.41619" lon="6.53086">
        <ele>279.3</ele>
        <time>2019-08-17T09:00:01Z</time>
      </trkpt>
      <trkpt lat="47.41619" lon="6.53079">
        <ele>279.3</ele>
        <time>2019-08-17T09:00:02Z</time>
      </trkpt>
      <trkpt lat="47.41619" lon="6.53071">
        <ele>279.3</ele>
        <time>2019-08-17T09:00:03Z</time>
      </trkpt>
      <trkpt lat="47.41619" lon="6.53064">
        <ele>279.3</ele>
        <time>2019-08-17T09:00:04Z</time>
      </trkpt>
      <trkpt lat="47.4162" lon="6.53056">
        <ele>279.3</ele>
        <time>2019-08-17T09:00:05Z</time>
      </trkpt>
      <trkpt lat="47.4162" lon="6.53048">
        <ele>279.3</ele>
        <time>2019-08-17T09:00:06Z</time>
      </trkpt>
      <trkpt lat="47.4162" lon="6.5304">
        <ele>279.3</ele>
        <time>2019-08-17T09:00:07Z</time>
      </trkpt>
      <trkpt lat="47.4162" lon="6.53031">
        <ele>279.3</ele>
        <time>2019-08-17T09:00:08Z</time>
      </trkpt>
      <trkpt lat="47.4162" lon="6.53023">
        <ele>279.3</ele>
        <time>2019-08-17T09:00:09Z</time>
      </trkpt>
      <trkpt lat="47.41621" lon="6.53015">
        <ele>279.3</ele>
        <time>2019-08-17T09:00:10Z</time>
      </trkpt>
      <trkpt lat="47.4162" lon="6.53008">
        <ele>279.3</ele>
        <time>2019-08-17T09:00:11Z</time>
      </trkpt>
      <trkpt lat="47.41621" lon="6.53001">
        <ele>279.3</ele>
        <time>2019-08-17T09:00:12Z</time>
      </trkpt>
      <trkpt lat="47.41621" lon="6.52993">
        <ele>279.3</ele>
        <time>2019-08-17T09:00:13Z</time>
      </trkpt>
      <trkpt lat="47.41621" lon="6.52985">
        <ele>279.3</ele>
        <time>2019-08-17T09:00:14Z</time>
      </trkpt>
      <trkpt lat="47.41621" lon="6.52978">
        <ele>279.3</ele>
        <time>2019-08-17T09:00:15Z</time>
      </trkpt>
      <trkpt lat="47.4162" lon="6.52971">
        <ele>279.3</ele>
        <time>2019-08-17T09:00:16Z</time>
      </trkpt>
      <trkpt lat="47.41621" lon="6.52964">
        <ele>279.3</ele>
        <time>2019-08-17T09:00:17Z</time>
      </trkpt>
      <trkpt lat="47.4162" lon="6.52957">
        <ele>279.3</ele>
        <time>2019-08-17T09:00:18Z</time>
      </trkpt>
      <trkpt lat="47.41619" lon="6.5295">
        <ele>279.3</ele>
        <time>2019-08-17T09:00:19Z</time>
      </trkpt>
      <trkpt lat="47.41617" lon="6.52943">
        <ele>279.3</ele>
        <time>2019-08-17T09:00:20Z</time>
      </trkpt>
      <trkpt lat="47.41616" lon="6.52936">
        <ele>279.3</ele>
        <time>2019-08-17T09:00:21Z</time>
      </trkpt>
      <trkpt lat="47.41614" lon="6.52927">
        <ele>279.3</ele>
        <time>2019-08-17T09:00:22Z</time>
      </trkpt>
      <trkpt lat="47.41614" lon="6.52918">
        <ele>279.3</ele>
        <time>2019-08-17T09:00:23Z</time>
      </trkpt>
      <trkpt lat="47.41614" lon="6.52909">
        <ele>279.3</ele>
        <time>2019-08-17T09:00:24Z</time>
      </trkpt>
      <trkpt lat="47.41615" lon="6.52901">
        <ele>279.3</ele>
        <time>2019-08-17T09:00:25Z</time>
      </trkpt>
      <trkpt lat="47.41615" lon="6.52893">
        <ele>279.3</ele>
        <time>2019-08-17T09:00:26Z</time>
      </trkpt>
      <trkpt lat="47.41615" lon="6.52884">
        <ele>279.3</ele>
        <time>2019-08-17T09:00:27Z</time>
      </trkpt>
      <trkpt lat="47.41616" lon="6.52876">
        <ele>279.3</ele>
        <time>2019-08-17T09:00:28Z</time>
      </trkpt>
      <trkpt lat="47.41616" lon="6.52869">
        <ele>279.3</ele>
        <time>2019-08-17T09:00:29Z</time>
      </trkpt>
      <trkpt lat="47.41617" lon="6.52861">
        <ele>279.3</ele>
        <time>2019-08-17T09:00:30Z</time>
      </trkpt>
      <trkpt lat="47.41618" lon="6.52854">
        <ele>279.3</ele>
        <time>2019-08-17T09:00:31Z</time>
      </trkpt>
      <trkpt lat="47.41618" lon="6.52846">
        <ele>279.3</ele>
        <time>2019-08-17T09:00:32Z</time>
      </trkpt>
      <trkpt lat="47.41618" lon="6.52839">
        <ele>279.3</ele>
        <time>2019-08-17T09:00:33Z</time>
      </trkpt>
      <trkpt lat="47.41619" lon="6.52832">
        <ele>279.3</ele>
        <time>2019-08-17T09:00:34Z</time>
      </trkpt>
      <trkpt lat="47.41619" lon="6.52824">
        <ele>279.3</ele>
        <time>2019-08-17T09:00:35Z</time>
      </trkpt>
      <trkpt lat="47.4162" lon="6.52816">
        <ele>279.3</ele>
        <time>2019-08-17T09:00:36Z</time>
      </trkpt>
      <trkpt lat="47.4162" lon="6.52808">
        <ele>279.3</ele>
        <time>2019-08-17T09:00:37Z</time>
      </trkpt>
      <trkpt lat="47.4162" lon="6.528">
        <ele>279.3</ele>
        <time>2019-08-17T09:00:38Z</time>
      </trkpt>
      <trkpt lat="47.41621" lon="6.52792">
        <ele>279.3</ele>
        <time>2019-08-17T09:00:39Z</time>
      </trkpt>
      <trkpt lat="47.41621" lon="6.52785">
        <ele>279.3</ele>
        <time>2019-08-17T09:00:40Z</time>
      </trkpt>
      <trkpt lat="47.41622" lon="6.52777">
        <ele>279.3</ele>
        <time>2019-08-17T09:00:41Z</time>
      </trkpt>
      <trkpt lat="47.41622" lon="6.52769">
        <ele>279.3</ele>
        <time>2019-08-17T09:00:42Z</time>
      </trkpt>
      <trkpt lat="47.41622" lon="6.5276">
        <ele>279.3</ele>
        <time>2019-08-17T09:00:43Z</time>
      </trkpt>
      <trkpt lat="47.41622" lon="6.52751">
        <ele>279.3</ele>
        <time>2019-08-17T09:00:44Z</time>
      </trkpt>
      <trkpt lat="47.41622" lon="6.52742">
        <ele>279.3</ele>
        <time>2019-08-17T09:00:45Z</time>
      </trkpt>
      <trkpt lat="47.41621" lon="6.52734">
        <ele>279.3</ele>
        <time>2019-08-17T09:00:46Z</time>
      </trkpt>
      <trkpt lat="47.41621" lon="6.52727">
        <ele>279.3</ele>
        <time>2019-08-17T09:00:47Z</time>
      </trkpt>
      <trkpt lat="47.41621" lon="6.52717">
        <ele>279.3</ele>
        <time>2019-08-17T09:00:48Z</time>
      </trkpt>
      <trkpt lat="47.41621" lon="6.52709">
        <ele>279.3</ele>
        <time>2019-08-17T09:00:49Z</time>
      </trkpt>
      <trkpt lat="47.41621" lon="6.527">
        <ele>279.3</ele>
        <time>2019-08-17T09:00:50Z</time>
      </trkpt>
      <trkpt lat="47.41622" lon="6.52692">
        <ele>279.3</ele>
        <time>2019-08-17T09:00:51Z</time>
      </trkpt>
      <trkpt lat="47.41621" lon="6.52684">
        <ele>279.3</ele>
        <time>2019-08-17T09:00:52Z</time>
      </trkpt>
      <trkpt lat="47.41621" lon="6.52676">
        <ele>279.3</ele>
        <time>2019-08-17T09:00:53Z</time>
      </trkpt>
      <trkpt lat="47.41622" lon="6.52669">
        <ele>279.3</ele>
        <time>2019-08-17T09:00:54Z</time>
      </trkpt>
      <trkpt lat="47.41622" lon="6.52662">
        <ele>279.3</ele>
        <time>2019-08-17T09:00:55Z</time>
      </trkpt>
      <trkpt lat="47.41622" lon="6.52655">
        <ele>279.3</ele>
        <time>2019-08-17T09:00:56Z</time>
      </trkpt>
      <trkpt lat="47.41622" lon="6.52648">
        <ele>279.3</ele>
        <time>2019-08-17T09:00:57Z</time>
      </trkpt>
      <trkpt lat="47.41622" lon="6.5264">
        <ele>279.3</ele>
        <time>2019-08-17T09:00:58Z</time>
      </trkpt>
      <trkpt lat="47.41622" lon="6.52632">
        <ele>279.3</ele>
        <time>2019-08-17T09:00:59Z</time>
      </trkpt>
      <trkpt lat="47.41622" lon="6.52623">
        <ele>279.3</ele>
        <time>2019-08-17T09:01:00Z</time>
      </trkpt>
      <trkpt lat="47.41622" lon="6.52616">
        <ele>279.3</ele>
        <time>2019-08-17T09:01:01Z</time>
      </trkpt>
      <trkpt lat="47.41622" lon="6.52608">
        <ele>279.3</ele>
        <time>2019-08-17T09:01:02Z</time>
      </trkpt>
      <trkpt lat="47.41623" lon="6.52601">
        <ele>279.3</ele>
        <time>2019-08-17T09:01:03Z</time>
      </trkpt>
      <trkpt lat="47.41623" lon="6.52593">
        <ele>279.3</ele>
        <time>2019-08-17T09:01:04Z</time>
      </trkpt>
      <trkpt lat="47.41624" lon="6.52586">
        <ele>279.3</ele>
        <time>2019-08-17T09:01:05Z</time>
      </trkpt>
      <trkpt lat="47.41624" lon="6.52578">
        <ele>279.3</ele>
        <time>2019-08-17T09:01:06Z</time>
      </trkpt>
      <trkpt lat="47.41625" lon="6.5257">
        <ele>279.2</ele>
        <time>2019-08-17T09:01:07Z</time>
      </trkpt>
      <trkpt lat="47.41625" lon="6.52562">
        <ele>279.1</ele>
        <time>2019-08-17T09:01:08Z</time>
      </trkpt>
      <trkpt lat="47.41625" lon="6.52555">
        <ele>279</ele>
        <time>2019-08-17T09:01:09Z</time>
      </trkpt>
      <trkpt lat="47.41625" lon="6.52547">
        <ele>278.9</ele>
        <time>2019-08-17T09:01:10Z</time>
      </trkpt>
      <trkpt lat="47.41624" lon="6.52538">
        <ele>278.8</ele>
        <time>2019-08-17T09:01:11Z</time>
      </trkpt>
      <trkpt lat="47.41625" lon="6.5253">
        <ele>278.7</ele>
        <time>2019-08-17T09:01:12Z</time>
      </trkpt>
      <trkpt lat="47.41625" lon="6.52522">
        <ele>278.6</ele>
        <time>2019-08-17T09:01:13Z</time>
      </trkpt>
      <trkpt lat="47.41626" lon="6.52514">
        <ele>278.5</ele>
        <time>2019-08-17T09:01:14Z</time>
      </trkpt>
      <trkpt lat="47.41626" lon="6.52506">
        <ele>278.4</ele>
        <time>2019-08-17T09:01:15Z</time>
      </trkpt>
      <trkpt lat="47.41627" lon="6.52499">
        <ele>278.4</ele>
        <time>2019-08-17T09:01:16Z</time>
      </trkpt>
      <trkpt lat="47.41628" lon="6.52491">
        <ele>278.4</ele>
        <time>2019-08-17T09:01:17Z</time>
      </trkpt>
      <trkpt lat="47.41628" lon="6.52484">
        <ele>278.3</ele>
        <time>2019-08-17T09:01:18Z</time>
      </trkpt>
      <trkpt lat="47.41629" lon="6.52477">
        <ele>278.3</ele>
        <time>2019-08-17T09:01:19Z</time>
      </trkpt>
      <trkpt lat="47.41629" lon="6.52469">
        <ele>278.3</ele>
        <time>2019-08-17T09:01:20Z</time>
      </trkpt>
      <trkpt lat="47.41629" lon="6.52462">
        <ele>278.3</ele>
        <time>2019-08-17T09:01:21Z</time>
      </trkpt>
      <trkpt lat="47.41629" lon="6.52454">
        <ele>278.3</ele>
        <time>2019-08-17T09:01:22Z</time>
      </trkpt>
      <trkpt lat="47.4163" lon="6.52447">
        <ele>278.3</ele>
        <time>2019-08-17T09:01:23Z</time>
      </trkpt>
      <trkpt lat="47.4163" lon="6.5244">
        <ele>278.3</ele>
        <time>2019-08-17T09:01:24Z</time>
      </trkpt>
      <trkpt lat="47.4163" lon="6.52433">
        <ele>278.3</ele>
        <time>2019-08-17T09:01:25Z</time>
      </trkpt>
      <trkpt lat="47.4163" lon="6.52426">
        <ele>278.3</ele>
        <time>2019-08-17T09:01:26Z</time>
      </trkpt>
      <trkpt lat="47.41631" lon="6.52418">
        <ele>278.3</ele>
        <time>2019-08-17T09:01:27Z</time>
      </trkpt>
      <trkpt lat="47.41631" lon="6.52411">
        <ele>278.3</ele>
        <time>2019-08-17T09:01:28Z</time>
      </trkpt>
      <trkpt lat="47.41631" lon="6.52402">
        <ele>278.3</ele>
        <time>2019-08-17T09:01:29Z</time>
      </trkpt>
      <trkpt lat="47.41631" lon="6.52393">
        <ele>278.3</ele>
        <time>2019-08-17T09:01:30Z</time>
      </trkpt>
      <trkpt lat="47.41632" lon="6.52386">
        <ele>278.3</ele>
        <time>2019-08-17T09:01:31Z</time>
      </trkpt>
      <trkpt lat="47.41632" lon="6.52376">
        <ele>278.3</ele>
        <time>2019-08-17T09:01:32Z</time>
      </trkpt>
      <trkpt lat="47.41632" lon="6.52368">
        <ele>278.3</ele>
        <time>2019-08-17T09:01:33Z</time>
      </trkpt>
      <trkpt lat="47.41632" lon="6.5236">
        <ele>278.3</ele>
        <time>2019-08-17T09:01:34Z</time>
      </trkpt>
      <trkpt lat="47.41632" lon="6.52352">
        <ele>278.3</ele>
        <time>2019-08-17T09:01:35Z</time>
      </trkpt>
      <trkpt lat="47.41632" lon="6.52344">
        <ele>278.3</ele>
        <time>2019-08-17T09:01:36Z</time>
      </trkpt>
      <trkpt lat="47.41632" lon="6.52337">
        <ele>278.4</ele>
        <time>2019-08-17T09:01:37Z</time>
      </trkpt>
      <trkpt lat="47.41632" lon="6.52328">
        <ele>278.4</ele>
        <time>2019-08-17T09:01:38Z</time>
      </trkpt>
      <trkpt lat="47.41632" lon="6.52321">
        <ele>278.4</ele>
        <time>2019-08-17T09:01:39Z</time>
      </trkpt>
      <trkpt lat="47.41632" lon="6.52313">
        <ele>278.5</ele>
        <time>2019-08-17T09:01:40Z</time>
      </trkpt>
      <trkpt lat="47.41633" lon="6.52305">
        <ele>278.6</ele>
        <time>2019-08-17T09:01:41Z</time>
      </trkpt>
      <trkpt lat="47.41633" lon="6.52297">
        <ele>278.7</ele>
        <time>2019-08-17T09:01:42Z</time>
      </trkpt>
      <trkpt lat="47.41634" lon="6.52289">
        <ele>278.8</ele>
        <time>2019-08-17T09:01:43Z</time>
      </trkpt>
      <trkpt lat="47.41635" lon="6.52282">
        <ele>278.8</ele>
        <time>2019-08-17T09:01:44Z</time>
      </trkpt>
      <trkpt lat="47.41635" lon="6.52274">
        <ele>278.9</ele>
        <time>2019-08-17T09:01:45Z</time>
      </trkpt>
      <trkpt lat="47.41635" lon="6.52267">
        <ele>279</ele>
        <time>2019-08-17T09:01:46Z</time>
      </trkpt>
      <trkpt lat="47.41634" lon="6.52259">
        <ele>279.1</ele>
        <time>2019-08-17T09:01:47Z</time>
      </trkpt>
      <trkpt lat="47.41633" lon="6.52252">
        <ele>279.1</ele>
        <time>2019-08-17T09:01:48Z</time>
      </trkpt>
      <trkpt lat="47.41634" lon="6.52244">
        <ele>279.2</ele>
        <time>2019-08-17T09:01:49Z</time>
      </trkpt>
      <trkpt lat="47.41634" lon="6.52237">
        <ele>279.2</ele>
        <time>2019-08-17T09:01:50Z</time>
      </trkpt>
      <trkpt lat="47.41634" lon="6.5223">
        <ele>279.3</ele>
        <time>2019-08-17T09:01:51Z</time>
      </trkpt>
      <trkpt lat="47.41634" lon="6.52223">
        <ele>279.3</ele>
        <time>2019-08-17T09:01:52Z</time>
      </trkpt>
      <trkpt lat="47.41634" lon="6.52216">
        <ele>279.3</ele>
        <time>2019-08-17T09:01:53Z</time>
      </trkpt>
      <trkpt lat="47.41635" lon="6.52209">
        <ele>279.3</ele>
        <time>2019-08-17T09:01:54Z</time>
      </trkpt>
      <trkpt lat="47.41636" lon="6.52202">
        <ele>279.3</ele>
        <time>2019-08-17T09:01:55Z</time>
      </trkpt>
      <trkpt lat="47.41637" lon="6.52197">
        <ele>279.3</ele>
        <time>2019-08-17T09:01:56Z</time>
      </trkpt>
      <trkpt lat="47.41638" lon="6.5219">
        <ele>279.3</ele>
        <time>2019-08-17T09:01:57Z</time>
      </trkpt>
      <trkpt lat="47.41638" lon="6.52182">
        <ele>279.3</ele>
        <time>2019-08-17T09:01:58Z</time>
      </trkpt>
      <trkpt lat="47.41638" lon="6.52174">
        <ele>279.3</ele>
        <time>2019-08-17T09:01:59Z</time>
      </trkpt>
      <trkpt lat="47.41638" lon="6.52167">
        <ele>279.3</ele>
        <time>2019-08-17T09:02:00Z</time>
      </trkpt>
      <trkpt lat="47.41639" lon="6.5216">
        <ele>279.2</ele>
        <time>2019-08-17T09:02:01Z</time>
      </trkpt>
      <trkpt lat="47.41639" lon="6.52153">
        <ele>279.2</ele>
        <time>2019-08-17T09:02:02Z</time>
      </trkpt>
      <trkpt lat="47.41639" lon="6.52146">
        <ele>279.2</ele>
        <time>2019-08-17T09:02:03Z</time>
      </trkpt>
      <trkpt lat="47.41639" lon="6.5214">
        <ele>279.2</ele>
        <time>2019-08-17T09:02:04Z</time>
      </trkpt>
      <trkpt lat="47.41639" lon="6.52135">
        <ele>279.2</ele>
        <time>2019-08-17T09:02:05Z</time>
      </trkpt>
      <trkpt lat="47.41639" lon="6.52129">
        <ele>279.2</ele>
        <time>2019-08-17T09:02:06Z</time>
      </trkpt>
      <trkpt lat="47.41639" lon="6.52123">
        <ele>279.1</ele>
        <time>2019-08-17T09:02:07Z</time>
      </trkpt>
      <trkpt lat="47.41638" lon="6.52117">
        <ele>279</ele>
        <time>2019-08-17T09:02:08Z</time>
      </trkpt>
      <trkpt lat="47.41638" lon="6.52111">
        <ele>279</ele>
        <time>2019-08-17T09:02:09Z</time>
      </trkpt>
      <trkpt lat="47.41637" lon="6.52104">
        <ele>278.9</ele>
        <time>2019-08-17T09:02:10Z</time>
      </trkpt>
      <trkpt lat="47.41637" lon="6.52097">
        <ele>278.7</ele>
        <time>2019-08-17T09:02:11Z</time>
      </trkpt>
      <trkpt lat="47.41637" lon="6.52088">
        <ele>278.6</ele>
        <time>2019-08-17T09:02:12Z</time>
      </trkpt>
      <trkpt lat="47.41637" lon="6.52079">
        <ele>278.5</ele>
        <time>2019-08-17T09:02:13Z</time>
      </trkpt>
      <trkpt lat="47.41637" lon="6.52071">
        <ele>278.4</ele>
        <time>2019-08-17T09:02:14Z</time>
      </trkpt>
      <trkpt lat="47.41637" lon="6.52065">
        <ele>278.4</ele>
        <time>2019-08-17T09:02:15Z</time>
      </trkpt>
      <trkpt lat="47.41637" lon="6.5206">
        <ele>278.3</ele>
        <time>2019-08-17T09:02:16Z</time>
      </trkpt>
      <trkpt lat="47.41636" lon="6.52053">
        <ele>278.3</ele>
        <time>2019-08-17T09:02:18Z</time>
      </trkpt>
      <trkpt lat="47.41636" lon="6.52046">
        <ele>278.5</ele>
        <time>2019-08-17T09:02:21Z</time>
      </trkpt>
      <trkpt lat="47.41637" lon="6.52041">
        <ele>278.6</ele>
        <time>2019-08-17T09:02:22Z</time>
      </trkpt>
      <trkpt lat="47.41637" lon="6.52035">
        <ele>278.8</ele>
        <time>2019-08-17T09:02:23Z</time>
      </trkpt>
      <trkpt lat="47.41638" lon="6.52029">
        <ele>278.9</ele>
        <time>2019-08-17T09:02:24Z</time>
      </trkpt>
      <trkpt lat="47.41639" lon="6.52023">
        <ele>279.1</ele>
        <time>2019-08-17T09:02:25Z</time>
      </trkpt>
      <trkpt lat="47.41639" lon="6.52017">
        <ele>278.7</ele>
        <time>2019-08-17T09:02:26Z</time>
      </trkpt>
      <trkpt lat="47.4164" lon="6.52011">
        <ele>278.1</ele>
        <time>2019-08-17T09:02:27Z</time>
      </trkpt>
      <trkpt lat="47.4164" lon="6.52005">
        <ele>277.6</ele>
        <time>2019-08-17T09:02:28Z</time>
      </trkpt>
      <trkpt lat="47.41641" lon="6.51999">
        <ele>277.6</ele>
        <time>2019-08-17T09:02:29Z</time>
      </trkpt>
      <trkpt lat="47.41641" lon="6.51994">
        <ele>277.6</ele>
        <time>2019-08-17T09:02:30Z</time>
      </trkpt>
      <trkpt lat="47.41643" lon="6.51988">
        <ele>277.6</ele>
        <time>2019-08-17T09:02:31Z</time>
      </trkpt>
      <trkpt lat="47.41644" lon="6.51981">
        <ele>277.6</ele>
        <time>2019-08-17T09:02:32Z</time>
      </trkpt>
      <trkpt lat="47.41645" lon="6.51974">
        <ele>277.6</ele>
        <time>2019-08-17T09:02:33Z</time>
      </trkpt>
      <trkpt lat="47.41645" lon="6.51967">
        <ele>277.6</ele>
        <time>2019-08-17T09:02:34Z</time>
      </trkpt>
      <trkpt lat="47.41646" lon="6.51959">
        <ele>277.6</ele>
        <time>2019-08-17T09:02:35Z</time>
      </trkpt>
      <trkpt lat="47.41647" lon="6.51951">
        <ele>277.6</ele>
        <time>2019-08-17T09:02:36Z</time>
      </trkpt>
      <trkpt lat="47.41648" lon="6.51943">
        <ele>277.6</ele>
        <time>2019-08-17T09:02:37Z</time>
      </trkpt>
      <trkpt lat="47.41649" lon="6.51935">
        <ele>277.6</ele>
        <time>2019-08-17T09:02:38Z</time>
      </trkpt>
      <trkpt lat="47.4165" lon="6.51928">
        <ele>277.6</ele>
        <time>2019-08-17T09:02:39Z</time>
      </trkpt>
      <trkpt lat="47.41652" lon="6.51921">
        <ele>277.6</ele>
        <time>2019-08-17T09:02:40Z</time>
      </trkpt>
      <trkpt lat="47.41654" lon="6.51914">
        <ele>277.6</ele>
        <time>2019-08-17T09:02:41Z</time>
      </trkpt>
      <trkpt lat="47.41655" lon="6.51908">
        <ele>277.6</ele>
        <time>2019-08-17T09:02:42Z</time>
      </trkpt>
      <trkpt lat="47.41655" lon="6.51902">
        <ele>277.6</ele>
        <time>2019-08-17T09:02:43Z</time>
      </trkpt>
      <trkpt lat="47.41656" lon="6.51895">
        <ele>277.6</ele>
        <time>2019-08-17T09:02:44Z</time>
      </trkpt>
      <trkpt lat="47.41657" lon="6.51889">
        <ele>277.6</ele>
        <time>2019-08-17T09:02:45Z</time>
      </trkpt>
      <trkpt lat="47.41658" lon="6.51883">
        <ele>277.6</ele>
        <time>2019-08-17T09:02:46Z</time>
      </trkpt>
      <trkpt lat="47.41659" lon="6.51876">
        <ele>277.6</ele>
        <time>2019-08-17T09:02:47Z</time>
      </trkpt>
      <trkpt lat="47.4166" lon="6.5187">
        <ele>277.6</ele>
        <time>2019-08-17T09:02:48Z</time>
      </trkpt>
      <trkpt lat="47.41662" lon="6.51863">
        <ele>277.6</ele>
        <time>2019-08-17T09:02:49Z</time>
      </trkpt>
      <trkpt lat="47.41663" lon="6.51856">
        <ele>277.6</ele>
        <time>2019-08-17T09:02:50Z</time>
      </trkpt>
      <trkpt lat="47.41664" lon="6.51849">
        <ele>277.6</ele>
        <time>2019-08-17T09:02:51Z</time>
      </trkpt>
      <trkpt lat="47.41665" lon="6.51842">
        <ele>277.6</ele>
        <time>2019-08-17T09:02:52Z</time>
      </trkpt>
      <trkpt lat="47.41665" lon="6.51834">
        <ele>277.6</ele>
        <time>2019-08-17T09:02:53Z</time>
      </trkpt>
      <trkpt lat="47.41666" lon="6.51827">
        <ele>277.6</ele>
        <time>2019-08-17T09:02:54Z</time>
      </trkpt>
      <trkpt lat="47.41667" lon="6.51819">
        <ele>277.6</ele>
        <time>2019-08-17T09:02:55Z</time>
      </trkpt>
      <trkpt lat="47.41667" lon="6.51813">
        <ele>277.6</ele>
        <time>2019-08-17T09:02:56Z</time>
      </trkpt>
      <trkpt lat="47.41667" lon="6.51806">
        <ele>277.6</ele>
        <time>2019-08-17T09:02:57Z</time>
      </trkpt>
      <trkpt lat="47.41668" lon="6.518">
        <ele>277.6</ele>
        <time>2019-08-17T09:02:58Z</time>
      </trkpt>
      <trkpt lat="47.41668" lon="6.51793">
        <ele>277.6</ele>
        <time>2019-08-17T09:02:59Z</time>
      </trkpt>
      <trkpt lat="47.41668" lon="6.51786">
        <ele>277.6</ele>
        <time>2019-08-17T09:03:00Z</time>
      </trkpt>
      <trkpt lat="47.41668" lon="6.51779">
        <ele>277.6</ele>
        <time>2019-08-17T09:03:01Z</time>
      </trkpt>
      <trkpt lat="47.41668" lon="6.51772">
        <ele>277.6</ele>
        <time>2019-08-17T09:03:02Z</time>
      </trkpt>
      <trkpt lat="47.41668" lon="6.51765">
        <ele>277.6</ele>
        <time>2019-08-17T09:03:03Z</time>
      </trkpt>
      <trkpt lat="47.41667" lon="6.51759">
        <ele>277.6</ele>
        <time>2019-08-17T09:03:04Z</time>
      </trkpt>
      <trkpt lat="47.41667" lon="6.51752">
        <ele>277.6</ele>
        <time>2019-08-17T09:03:05Z</time>
      </trkpt>
      <trkpt lat="47.41668" lon="6.51745">
        <ele>277.6</ele>
        <time>2019-08-17T09:03:06Z</time>
      </trkpt>
      <trkpt lat="47.41669" lon="6.51737">
        <ele>277.6</ele>
        <time>2019-08-17T09:03:07Z</time>
      </trkpt>
      <trkpt lat="47.41669" lon="6.5173">
        <ele>277.6</ele>
        <time>2019-08-17T09:03:08Z</time>
      </trkpt>
      <trkpt lat="47.41669" lon="6.51722">
        <ele>277.6</ele>
        <time>2019-08-17T09:03:09Z</time>
      </trkpt>
      <trkpt lat="47.41669" lon="6.51714">
        <ele>277.6</ele>
        <time>2019-08-17T09:03:10Z</time>
      </trkpt>
      <trkpt lat="47.41668" lon="6.51706">
        <ele>277.6</ele>
        <time>2019-08-17T09:03:11Z</time>
      </trkpt>
      <trkpt lat="47.41668" lon="6.51699">
        <ele>277.6</ele>
        <time>2019-08-17T09:03:12Z</time>
      </trkpt>
      <trkpt lat="47.41667" lon="6.51691">
        <ele>277.6</ele>
        <time>2019-08-17T09:03:13Z</time>
      </trkpt>
      <trkpt lat="47.41666" lon="6.51684">
        <ele>277.6</ele>
        <time>2019-08-17T09:03:14Z</time>
      </trkpt>
      <trkpt lat="47.41665" lon="6.51677">
        <ele>277.6</ele>
        <time>2019-08-17T09:03:15Z</time>
      </trkpt>
      <trkpt lat="47.41663" lon="6.51668">
        <ele>277.6</ele>
        <time>2019-08-17T09:03:16Z</time>
      </trkpt>
      <trkpt lat="47.41662" lon="6.51661">
        <ele>277.6</ele>
        <time>2019-08-17T09:03:17Z</time>
      </trkpt>
      <trkpt lat="47.41661" lon="6.51654">
        <ele>277.6</ele>
        <time>2019-08-17T09:03:18Z</time>
      </trkpt>
      <trkpt lat="47.41659" lon="6.51646">
        <ele>277.6</ele>
        <time>2019-08-17T09:03:19Z</time>
      </trkpt>
      <trkpt lat="47.41658" lon="6.51639">
        <ele>277.6</ele>
        <time>2019-08-17T09:03:20Z</time>
      </trkpt>
      <trkpt lat="47.41656" lon="6.51633">
        <ele>277.6</ele>
        <time>2019-08-17T09:03:21Z</time>
      </trkpt>
      <trkpt lat="47.41654" lon="6.51626">
        <ele>277.6</ele>
        <time>2019-08-17T09:03:22Z</time>
      </trkpt>
      <trkpt lat="47.41651" lon="6.51618">
        <ele>277.6</ele>
        <time>2019-08-17T09:03:23Z</time>
      </trkpt>
      <trkpt lat="47.41648" lon="6.51612">
        <ele>277.6</ele>
        <time>2019-08-17T09:03:24Z</time>
      </trkpt>
      <trkpt lat="47.41646" lon="6.51605">
        <ele>277.6</ele>
        <time>2019-08-17T09:03:25Z</time>
      </trkpt>
      <trkpt lat="47.41645" lon="6.51599">
        <ele>277.6</ele>
        <time>2019-08-17T09:03:26Z</time>
      </trkpt>
      <trkpt lat="47.41643" lon="6.51592">
        <ele>277.6</ele>
        <time>2019-08-17T09:03:27Z</time>
      </trkpt>
      <trkpt lat="47.41641" lon="6.51585">
        <ele>277.6</ele>
        <time>2019-08-17T09:03:28Z</time>
      </trkpt>
      <trkpt lat="47.41638" lon="6.51577">
        <ele>277.6</ele>
        <time>2019-08-17T09:03:29Z</time>
      </trkpt>
      <trkpt lat="47.41635" lon="6.5157">
        <ele>277.6</ele>
        <time>2019-08-17T09:03:30Z</time>
      </trkpt>
      <trkpt lat="47.41632" lon="6.51564">
        <ele>277.6</ele>
        <time>2019-08-17T09:03:31Z</time>
      </trkpt>
      <trkpt lat="47.41628" lon="6.51557">
        <ele>277.6</ele>
        <time>2019-08-17T09:03:32Z</time>
      </trkpt>
      <trkpt lat="47.41624" lon="6.51551">
        <ele>277.6</ele>
        <time>2019-08-17T09:03:33Z</time>
      </trkpt>
      <trkpt lat="47.4162" lon="6.51545">
        <ele>277.6</ele>
        <time>2019-08-17T09:03:34Z</time>
      </trkpt>
      <trkpt lat="47.41615" lon="6.51539">
        <ele>277.6</ele>
        <time>2019-08-17T09:03:35Z</time>
      </trkpt>
      <trkpt lat="47.41611" lon="6.51533">
        <ele>277.6</ele>
        <time>2019-08-17T09:03:36Z</time>
      </trkpt>
      <trkpt lat="47.41608" lon="6.51528">
        <ele>277.6</ele>
        <time>2019-08-17T09:03:37Z</time>
      </trkpt>
      <trkpt lat="47.41605" lon="6.51522">
        <ele>277.6</ele>
        <time>2019-08-17T09:03:38Z</time>
      </trkpt>
      <trkpt lat="47.41602" lon="6.51517">
        <ele>277.6</ele>
        <time>2019-08-17T09:03:39Z</time>
      </trkpt>
      <trkpt lat="47.41599" lon="6.51512">
        <ele>277.6</ele>
        <time>2019-08-17T09:03:40Z</time>
      </trkpt>
      <trkpt lat="47.41597" lon="6.51506">
        <ele>277.6</ele>
        <time>2019-08-17T09:03:41Z</time>
      </trkpt>
      <trkpt lat="47.41594" lon="6.515">
        <ele>277.6</ele>
        <time>2019-08-17T09:03:42Z</time>
      </trkpt>
      <trkpt lat="47.41591" lon="6.51494">
        <ele>277.6</ele>
        <time>2019-08-17T09:03:43Z</time>
      </trkpt>
      <trkpt lat="47.41588" lon="6.51487">
        <ele>277.6</ele>
        <time>2019-08-17T09:03:44Z</time>
      </trkpt>
      <trkpt lat="47.41585" lon="6.5148">
        <ele>277.6</ele>
        <time>2019-08-17T09:03:45Z</time>
      </trkpt>
      <trkpt lat="47.41582" lon="6.51474">
        <ele>277.6</ele>
        <time>2019-08-17T09:03:46Z</time>
      </trkpt>
      <trkpt lat="47.41578" lon="6.51468">
        <ele>277.6</ele>
        <time>2019-08-17T09:03:47Z</time>
      </trkpt>
      <trkpt lat="47.41574" lon="6.51462">
        <ele>277.6</ele>
        <time>2019-08-17T09:03:48Z</time>
      </trkpt>
      <trkpt lat="47.4157" lon="6.51456">
        <ele>277.6</ele>
        <time>2019-08-17T09:03:49Z</time>
      </trkpt>
      <trkpt lat="47.41566" lon="6.5145">
        <ele>277.6</ele>
        <time>2019-08-17T09:03:50Z</time>
      </trkpt>
      <trkpt lat="47.41564" lon="6.51445">
        <ele>277.6</ele>
        <time>2019-08-17T09:03:51Z</time>
      </trkpt>
      <trkpt lat="47.41561" lon="6.51439">
        <ele>277.6</ele>
        <time>2019-08-17T09:03:52Z</time>
      </trkpt>
      <trkpt lat="47.41557" lon="6.51431">
        <ele>277.6</ele>
        <time>2019-08-17T09:03:53Z</time>
      </trkpt>
      <trkpt lat="47.41553" lon="6.51424">
        <ele>277.6</ele>
        <time>2019-08-17T09:03:54Z</time>
      </trkpt>
      <trkpt lat="47.4155" lon="6.51416">
        <ele>277.6</ele>
        <time>2019-08-17T09:03:55Z</time>
      </trkpt>
      <trkpt lat="47.41546" lon="6.51409">
        <ele>277.6</ele>
        <time>2019-08-17T09:03:56Z</time>
      </trkpt>
      <trkpt lat="47.41543" lon="6.51403">
        <ele>277.6</ele>
        <time>2019-08-17T09:03:57Z</time>
      </trkpt>
      <trkpt lat="47.41539" lon="6.51396">
        <ele>277.6</ele>
        <time>2019-08-17T09:03:58Z</time>
      </trkpt>
      <trkpt lat="47.41535" lon="6.5139">
        <ele>277.6</ele>
        <time>2019-08-17T09:03:59Z</time>
      </trkpt>
      <trkpt lat="47.41531" lon="6.51384">
        <ele>277.6</ele>
        <time>2019-08-17T09:04:00Z</time>
      </trkpt>
      <trkpt lat="47.41528" lon="6.51378">
        <ele>277.6</ele>
        <time>2019-08-17T09:04:01Z</time>
      </trkpt>
      <trkpt lat="47.41525" lon="6.51372">
        <ele>277.6</ele>
        <time>2019-08-17T09:04:02Z</time>
      </trkpt>
      <trkpt lat="47.41521" lon="6.51366">
        <ele>277.6</ele>
        <time>2019-08-17T09:04:03Z</time>
      </trkpt>
      <trkpt lat="47.41518" lon="6.5136">
        <ele>277.6</ele>
        <time>2019-08-17T09:04:04Z</time>
      </trkpt>
      <trkpt lat="47.41514" lon="6.51355">
        <ele>277.6</ele>
        <time>2019-08-17T09:04:05Z</time>
      </trkpt>
      <trkpt lat="47.41511" lon="6.51349">
        <ele>277.6</ele>
        <time>2019-08-17T09:04:06Z</time>
      </trkpt>
      <trkpt lat="47.41507" lon="6.51345">
        <ele>277.6</ele>
        <time>2019-08-17T09:04:07Z</time>
      </trkpt>
      <trkpt lat="47.41503" lon="6.51339">
        <ele>277.6</ele>
        <time>2019-08-17T09:04:08Z</time>
      </trkpt>
      <trkpt lat="47.41499" lon="6.51335">
        <ele>277.6</ele>
        <time>2019-08-17T09:04:09Z</time>
      </trkpt>
      <trkpt lat="47.41497" lon="6.51328">
        <ele>277.6</ele>
        <time>2019-08-17T09:04:10Z</time>
      </trkpt>
      <trkpt lat="47.41492" lon="6.51324">
        <ele>277.6</ele>
        <time>2019-08-17T09:04:11Z</time>
      </trkpt>
      <trkpt lat="47.41488" lon="6.51319">
        <ele>277.6</ele>
        <time>2019-08-17T09:04:12Z</time>
      </trkpt>
      <trkpt lat="47.41484" lon="6.51314">
        <ele>277.6</ele>
        <time>2019-08-17T09:04:13Z</time>
      </trkpt>
      <trkpt lat="47.41479" lon="6.51311">
        <ele>277.6</ele>
        <time>2019-08-17T09:04:14Z</time>
      </trkpt>
      <trkpt lat="47.41474" lon="6.51307">
        <ele>277.6</ele>
        <time>2019-08-17T09:04:15Z</time>
      </trkpt>
      <trkpt lat="47.41469" lon="6.51302">
        <ele>277.6</ele>
        <time>2019-08-17T09:04:16Z</time>
      </trkpt>
      <trkpt lat="47.41464" lon="6.51298">
        <ele>277.6</ele>
        <time>2019-08-17T09:04:17Z</time>
      </trkpt>
      <trkpt lat="47.41459" lon="6.51294">
        <ele>277.6</ele>
        <time>2019-08-17T09:04:18Z</time>
      </trkpt>
      <trkpt lat="47.41454" lon="6.5129">
        <ele>277.6</ele>
        <time>2019-08-17T09:04:19Z</time>
      </trkpt>
      <trkpt lat="47.4145" lon="6.51287">
        <ele>277.6</ele>
        <time>2019-08-17T09:04:20Z</time>
      </trkpt>
      <trkpt lat="47.41444" lon="6.51283">
        <ele>277.6</ele>
        <time>2019-08-17T09:04:21Z</time>
      </trkpt>
      <trkpt lat="47.4144" lon="6.5128">
        <ele>277.6</ele>
        <time>2019-08-17T09:04:22Z</time>
      </trkpt>
      <trkpt lat="47.41434" lon="6.51277">
        <ele>277.6</ele>
        <time>2019-08-17T09:04:23Z</time>
      </trkpt>
      <trkpt lat="47.4143" lon="6.51274">
        <ele>277.6</ele>
        <time>2019-08-17T09:04:24Z</time>
      </trkpt>
      <trkpt lat="47.41425" lon="6.51272">
        <ele>277.6</ele>
        <time>2019-08-17T09:04:25Z</time>
      </trkpt>
      <trkpt lat="47.41421" lon="6.5127">
        <ele>277.6</ele>
        <time>2019-08-17T09:04:26Z</time>
      </trkpt>
      <trkpt lat="47.41416" lon="6.51266">
        <ele>277.6</ele>
        <time>2019-08-17T09:04:27Z</time>
      </trkpt>
      <trkpt lat="47.4141" lon="6.51263">
        <ele>277.6</ele>
        <time>2019-08-17T09:04:28Z</time>
      </trkpt>
      <trkpt lat="47.41405" lon="6.5126">
        <ele>277.6</ele>
        <time>2019-08-17T09:04:29Z</time>
      </trkpt>
      <trkpt lat="47.414" lon="6.51258">
        <ele>277.6</ele>
        <time>2019-08-17T09:04:30Z</time>
      </trkpt>
      <trkpt lat="47.41394" lon="6.51255">
        <ele>277.6</ele>
        <time>2019-08-17T09:04:31Z</time>
      </trkpt>
      <trkpt lat="47.41389" lon="6.51252">
        <ele>277.6</ele>
        <time>2019-08-17T09:04:32Z</time>
      </trkpt>
      <trkpt lat="47.41383" lon="6.51249">
        <ele>277.6</ele>
        <time>2019-08-17T09:04:33Z</time>
      </trkpt>
      <trkpt lat="47.41376" lon="6.51246">
        <ele>277.6</ele>
        <time>2019-08-17T09:04:34Z</time>
      </trkpt>
      <trkpt lat="47.4137" lon="6.51243">
        <ele>277.6</ele>
        <time>2019-08-17T09:04:35Z</time>
      </trkpt>
      <trkpt lat="47.41363" lon="6.51239">
        <ele>277.6</ele>
        <time>2019-08-17T09:04:36Z</time>
      </trkpt>
      <trkpt lat="47.41357" lon="6.51237">
        <ele>277.6</ele>
        <time>2019-08-17T09:04:37Z</time>
      </trkpt>
      <trkpt lat="47.41351" lon="6.51235">
        <ele>277.6</ele>
        <time>2019-08-17T09:04:38Z</time>
      </trkpt>
      <trkpt lat="47.41346" lon="6.51232">
        <ele>277.6</ele>
        <time>2019-08-17T09:04:39Z</time>
      </trkpt>
      <trkpt lat="47.4134" lon="6.5123">
        <ele>277.6</ele>
        <time>2019-08-17T09:04:40Z</time>
      </trkpt>
      <trkpt lat="47.41335" lon="6.51228">
        <ele>277.6</ele>
        <time>2019-08-17T09:04:41Z</time>
      </trkpt>
      <trkpt lat="47.41331" lon="6.51226">
        <ele>277.6</ele>
        <time>2019-08-17T09:04:42Z</time>
      </trkpt>
      <trkpt lat="47.41326" lon="6.51223">
        <ele>277.6</ele>
        <time>2019-08-17T09:04:43Z</time>
      </trkpt>
      <trkpt lat="47.4132" lon="6.5122">
        <ele>277.6</ele>
        <time>2019-08-17T09:04:44Z</time>
      </trkpt>
      <trkpt lat="47.41315" lon="6.51217">
        <ele>277.6</ele>
        <time>2019-08-17T09:04:45Z</time>
      </trkpt>
      <trkpt lat="47.4131" lon="6.51215">
        <ele>277.6</ele>
        <time>2019-08-17T09:04:46Z</time>
      </trkpt>
      <trkpt lat="47.41305" lon="6.51213">
        <ele>277.6</ele>
        <time>2019-08-17T09:04:47Z</time>
      </trkpt>
      <trkpt lat="47.413" lon="6.51211">
        <ele>277.6</ele>
        <time>2019-08-17T09:04:48Z</time>
      </trkpt>
      <trkpt lat="47.41295" lon="6.51209">
        <ele>277.6</ele>
        <time>2019-08-17T09:04:49Z</time>
      </trkpt>
      <trkpt lat="47.4129" lon="6.51207">
        <ele>277.6</ele>
        <time>2019-08-17T09:04:50Z</time>
      </trkpt>
      <trkpt lat="47.41286" lon="6.51205">
        <ele>277.6</ele>
        <time>2019-08-17T09:04:51Z</time>
      </trkpt>
      <trkpt lat="47.41281" lon="6.51203">
        <ele>277.6</ele>
        <time>2019-08-17T09:04:52Z</time>
      </trkpt>
      <trkpt lat="47.41276" lon="6.51201">
        <ele>277.6</ele>
        <time>2019-08-17T09:04:53Z</time>
      </trkpt>
      <trkpt lat="47.41271" lon="6.51198">
        <ele>277.6</ele>
        <time>2019-08-17T09:04:54Z</time>
      </trkpt>
      <trkpt lat="47.41266" lon="6.51196">
        <ele>277.6</ele>
        <time>2019-08-17T09:04:55Z</time>
      </trkpt>
      <trkpt lat="47.4126" lon="6.51194">
        <ele>277.6</ele>
        <time>2019-08-17T09:04:56Z</time>
      </trkpt>
      <trkpt lat="47.41255" lon="6.51193">
        <ele>277.6</ele>
        <time>2019-08-17T09:04:57Z</time>
      </trkpt>
      <trkpt lat="47.41249" lon="6.51193">
        <ele>277.6</ele>
        <time>2019-08-17T09:04:58Z</time>
      </trkpt>
      <trkpt lat="47.41244" lon="6.51193">
        <ele>277.6</ele>
        <time>2019-08-17T09:04:59Z</time>
      </trkpt>
      <trkpt lat="47.41239" lon="6.51193">
        <ele>277.6</ele>
        <time>2019-08-17T09:05:00Z</time>
      </trkpt>
      <trkpt lat="47.41235" lon="6.51193">
        <ele>277.6</ele>
        <time>2019-08-17T09:05:01Z</time>
      </trkpt>
      <trkpt lat="47.41231" lon="6.51193">
        <ele>277.6</ele>
        <time>2019-08-17T09:05:02Z</time>
      </trkpt>
      <trkpt lat="47.41226" lon="6.51193">
        <ele>277.6</ele>
        <time>2019-08-17T09:05:03Z</time>
      </trkpt>
      <trkpt lat="47.41221" lon="6.51192">
        <ele>277.6</ele>
        <time>2019-08-17T09:05:04Z</time>
      </trkpt>
      <trkpt lat="47.41216" lon="6.51191">
        <ele>277.6</ele>
        <time>2019-08-17T09:05:05Z</time>
      </trkpt>
      <trkpt lat="47.4121" lon="6.51191">
        <ele>277.6</ele>
        <time>2019-08-17T09:05:06Z</time>
      </trkpt>
      <trkpt lat="47.41204" lon="6.5119">
        <ele>277.6</ele>
        <time>2019-08-17T09:05:07Z</time>
      </trkpt>
      <trkpt lat="47.41198" lon="6.51189">
        <ele>277.6</ele>
        <time>2019-08-17T09:05:08Z</time>
      </trkpt>
      <trkpt lat="47.41194" lon="6.51188">
        <ele>277.6</ele>
        <time>2019-08-17T09:05:09Z</time>
      </trkpt>
      <trkpt lat="47.41189" lon="6.51187">
        <ele>277.6</ele>
        <time>2019-08-17T09:05:10Z</time>
      </trkpt>
      <trkpt lat="47.41184" lon="6.51186">
        <ele>277.6</ele>
        <time>2019-08-17T09:05:11Z</time>
      </trkpt>
      <trkpt lat="47.41179" lon="6.51184">
        <ele>277.6</ele>
        <time>2019-08-17T09:05:12Z</time>
      </trkpt>
      <trkpt lat="47.41174" lon="6.51183">
        <ele>277.6</ele>
        <time>2019-08-17T09:05:13Z</time>
      </trkpt>
      <trkpt lat="47.41168" lon="6.51181">
        <ele>277.6</ele>
        <time>2019-08-17T09:05:14Z</time>
      </trkpt>
      <trkpt lat="47.41163" lon="6.5118">
        <ele>277.6</ele>
        <time>2019-08-17T09:05:15Z</time>
      </trkpt>
      <trkpt lat="47.41157" lon="6.51178">
        <ele>277.6</ele>
        <time>2019-08-17T09:05:16Z</time>
      </trkpt>
      <trkpt lat="47.41152" lon="6.51177">
        <ele>277.6</ele>
        <time>2019-08-17T09:05:17Z</time>
      </trkpt>
      <trkpt lat="47.41145" lon="6.51177">
        <ele>277.6</ele>
        <time>2019-08-17T09:05:18Z</time>
      </trkpt>
      <trkpt lat="47.41139" lon="6.51177">
        <ele>277.6</ele>
        <time>2019-08-17T09:05:19Z</time>
      </trkpt>
      <trkpt lat="47.41134" lon="6.51175">
        <ele>277.6</ele>
        <time>2019-08-17T09:05:20Z</time>
      </trkpt>
      <trkpt lat="47.41128" lon="6.51174">
        <ele>277.6</ele>
        <time>2019-08-17T09:05:21Z</time>
      </trkpt>
      <trkpt lat="47.41122" lon="6.51173">
        <ele>277.6</ele>
        <time>2019-08-17T09:05:22Z</time>
      </trkpt>
      <trkpt lat="47.41117" lon="6.51172">
        <ele>277.6</ele>
        <time>2019-08-17T09:05:23Z</time>
      </trkpt>
      <trkpt lat="47.4111" lon="6.51171">
        <ele>277.6</ele>
        <time>2019-08-17T09:05:24Z</time>
      </trkpt>
      <trkpt lat="47.41103" lon="6.51169">
        <ele>277.6</ele>
        <time>2019-08-17T09:05:25Z</time>
      </trkpt>
      <trkpt lat="47.41096" lon="6.51168">
        <ele>277.6</ele>
        <time>2019-08-17T09:05:26Z</time>
      </trkpt>
      <trkpt lat="47.4109" lon="6.51167">
        <ele>277.6</ele>
        <time>2019-08-17T09:05:27Z</time>
      </trkpt>
      <trkpt lat="47.41084" lon="6.51166">
        <ele>277.6</ele>
        <time>2019-08-17T09:05:28Z</time>
      </trkpt>
      <trkpt lat="47.41078" lon="6.51165">
        <ele>277.6</ele>
        <time>2019-08-17T09:05:29Z</time>
      </trkpt>
      <trkpt lat="47.41073" lon="6.51165">
        <ele>277.6</ele>
        <time>2019-08-17T09:05:30Z</time>
      </trkpt>
      <trkpt lat="47.41067" lon="6.51164">
        <ele>277.6</ele>
        <time>2019-08-17T09:05:31Z</time>
      </trkpt>
      <trkpt lat="47.41061" lon="6.51162">
        <ele>277.6</ele>
        <time>2019-08-17T09:05:32Z</time>
      </trkpt>
      <trkpt lat="47.41055" lon="6.5116">
        <ele>277.6</ele>
        <time>2019-08-17T09:05:33Z</time>
      </trkpt>
      <trkpt lat="47.41049" lon="6.51158">
        <ele>277.6</ele>
        <time>2019-08-17T09:05:34Z</time>
      </trkpt>
      <trkpt lat="47.41043" lon="6.51156">
        <ele>277.6</ele>
        <time>2019-08-17T09:05:35Z</time>
      </trkpt>
      <trkpt lat="47.41037" lon="6.51154">
        <ele>277.6</ele>
        <time>2019-08-17T09:05:36Z</time>
      </trkpt>
      <trkpt lat="47.4103" lon="6.51153">
        <ele>277.6</ele>
        <time>2019-08-17T09:05:37Z</time>
      </trkpt>
      <trkpt lat="47.41025" lon="6.51152">
        <ele>277.6</ele>
        <time>2019-08-17T09:05:38Z</time>
      </trkpt>
      <trkpt lat="47.41019" lon="6.51152">
        <ele>277.6</ele>
        <time>2019-08-17T09:05:39Z</time>
      </trkpt>
      <trkpt lat="47.41013" lon="6.51151">
        <ele>277.6</ele>
        <time>2019-08-17T09:05:40Z</time>
      </trkpt>
      <trkpt lat="47.41008" lon="6.5115">
        <ele>277.6</ele>
        <time>2019-08-17T09:05:41Z</time>
      </trkpt>
      <trkpt lat="47.41002" lon="6.51149">
        <ele>277.6</ele>
        <time>2019-08-17T09:05:42Z</time>
      </trkpt>
      <trkpt lat="47.40995" lon="6.51149">
        <ele>277.6</ele>
        <time>2019-08-17T09:05:43Z</time>
      </trkpt>
      <trkpt lat="47.40991" lon="6.51146">
        <ele>277.5</ele>
        <time>2019-08-17T09:05:44Z</time>
      </trkpt>
      <trkpt lat="47.40985" lon="6.51146">
        <ele>277.4</ele>
        <time>2019-08-17T09:05:45Z</time>
      </trkpt>
      <trkpt lat="47.4098" lon="6.51146">
        <ele>277.3</ele>
        <time>2019-08-17T09:05:46Z</time>
      </trkpt>
      <trkpt lat="47.40975" lon="6.51146">
        <ele>277.2</ele>
        <time>2019-08-17T09:05:47Z</time>
      </trkpt>
      <trkpt lat="47.4097" lon="6.51146">
        <ele>277.1</ele>
        <time>2019-08-17T09:05:48Z</time>
      </trkpt>
      <trkpt lat="47.40966" lon="6.51147">
        <ele>277</ele>
        <time>2019-08-17T09:05:49Z</time>
      </trkpt>
      <trkpt lat="47.40961" lon="6.51148">
        <ele>276.9</ele>
        <time>2019-08-17T09:05:50Z</time>
      </trkpt>
      <trkpt lat="47.40957" lon="6.51148">
        <ele>276.9</ele>
        <time>2019-08-17T09:05:51Z</time>
      </trkpt>
      <trkpt lat="47.40949" lon="6.51145">
        <ele>276.7</ele>
        <time>2019-08-17T09:05:52Z</time>
      </trkpt>
      <trkpt lat="47.40944" lon="6.51145">
        <ele>276.7</ele>
        <time>2019-08-17T09:05:53Z</time>
      </trkpt>
      <trkpt lat="47.40938" lon="6.51144">
        <ele>276.6</ele>
        <time>2019-08-17T09:05:54Z</time>
      </trkpt>
      <trkpt lat="47.40934" lon="6.51146">
        <ele>276.6</ele>
        <time>2019-08-17T09:05:55Z</time>
      </trkpt>
      <trkpt lat="47.40929" lon="6.51146">
        <ele>276.6</ele>
        <time>2019-08-17T09:05:56Z</time>
      </trkpt>
      <trkpt lat="47.40925" lon="6.51147">
        <ele>276.7</ele>
        <time>2019-08-17T09:05:57Z</time>
      </trkpt>
      <trkpt lat="47.4092" lon="6.51148">
        <ele>276.7</ele>
        <time>2019-08-17T09:05:58Z</time>
      </trkpt>
      <trkpt lat="47.40915" lon="6.51148">
        <ele>276.7</ele>
        <time>2019-08-17T09:05:59Z</time>
      </trkpt>
      <trkpt lat="47.40911" lon="6.51147">
        <ele>276.8</ele>
        <time>2019-08-17T09:06:00Z</time>
      </trkpt>
      <trkpt lat="47.40906" lon="6.51147">
        <ele>276.9</ele>
        <time>2019-08-17T09:06:01Z</time>
      </trkpt>
      <trkpt lat="47.40902" lon="6.51147">
        <ele>277</ele>
        <time>2019-08-17T09:06:02Z</time>
      </trkpt>
      <trkpt lat="47.40896" lon="6.51146">
        <ele>277.2</ele>
        <time>2019-08-17T09:06:03Z</time>
      </trkpt>
      <trkpt lat="47.4089" lon="6.51145">
        <ele>277.3</ele>
        <time>2019-08-17T09:06:04Z</time>
      </trkpt>
      <trkpt lat="47.40884" lon="6.51145">
        <ele>277.3</ele>
        <time>2019-08-17T09:06:05Z</time>
      </trkpt>
      <trkpt lat="47.40878" lon="6.51144">
        <ele>277.2</ele>
        <time>2019-08-17T09:06:06Z</time>
      </trkpt>
      <trkpt lat="47.40873" lon="6.51144">
        <ele>277.1</ele>
        <time>2019-08-17T09:06:07Z</time>
      </trkpt>
      <trkpt lat="47.40868" lon="6.51143">
        <ele>277</ele>
        <time>2019-08-17T09:06:08Z</time>
      </trkpt>
      <trkpt lat="47.40862" lon="6.51142">
        <ele>276.9</ele>
        <time>2019-08-17T09:06:09Z</time>
      </trkpt>
      <trkpt lat="47.40857" lon="6.51141">
        <ele>276.8</ele>
        <time>2019-08-17T09:06:10Z</time>
      </trkpt>
      <trkpt lat="47.40851" lon="6.5114">
        <ele>276.7</ele>
        <time>2019-08-17T09:06:11Z</time>
      </trkpt>
      <trkpt lat="47.40846" lon="6.51141">
        <ele>276.7</ele>
        <time>2019-08-17T09:06:12Z</time>
      </trkpt>
      <trkpt lat="47.4084" lon="6.5114">
        <ele>276.6</ele>
        <time>2019-08-17T09:06:13Z</time>
      </trkpt>
      <trkpt lat="47.40835" lon="6.5114">
        <ele>276.6</ele>
        <time>2019-08-17T09:06:14Z</time>
      </trkpt>
      <trkpt lat="47.40829" lon="6.5114">
        <ele>276.6</ele>
        <time>2019-08-17T09:06:15Z</time>
      </trkpt>
      <trkpt lat="47.40823" lon="6.5114">
        <ele>276.6</ele>
        <time>2019-08-17T09:06:16Z</time>
      </trkpt>
      <trkpt lat="47.40817" lon="6.5114">
        <ele>276.6</ele>
        <time>2019-08-17T09:06:17Z</time>
      </trkpt>
      <trkpt lat="47.40811" lon="6.5114">
        <ele>276.6</ele>
        <time>2019-08-17T09:06:18Z</time>
      </trkpt>
      <trkpt lat="47.40804" lon="6.51141">
        <ele>276.6</ele>
        <time>2019-08-17T09:06:19Z</time>
      </trkpt>
      <trkpt lat="47.40798" lon="6.51142">
        <ele>276.6</ele>
        <time>2019-08-17T09:06:20Z</time>
      </trkpt>
      <trkpt lat="47.40793" lon="6.51142">
        <ele>276.6</ele>
        <time>2019-08-17T09:06:21Z</time>
      </trkpt>
      <trkpt lat="47.40789" lon="6.51141">
        <ele>276.6</ele>
        <time>2019-08-17T09:06:22Z</time>
      </trkpt>
      <trkpt lat="47.40784" lon="6.51141">
        <ele>276.6</ele>
        <time>2019-08-17T09:06:23Z</time>
      </trkpt>
      <trkpt lat="47.40779" lon="6.5114">
        <ele>276.6</ele>
        <time>2019-08-17T09:06:24Z</time>
      </trkpt>
      <trkpt lat="47.40775" lon="6.5114">
        <ele>276.6</ele>
        <time>2019-08-17T09:06:25Z</time>
      </trkpt>
      <trkpt lat="47.4077" lon="6.51141">
        <ele>276.6</ele>
        <time>2019-08-17T09:06:26Z</time>
      </trkpt>
      <trkpt lat="47.40765" lon="6.51141">
        <ele>276.6</ele>
        <time>2019-08-17T09:06:27Z</time>
      </trkpt>
      <trkpt lat="47.4076" lon="6.5114">
        <ele>276.6</ele>
        <time>2019-08-17T09:06:28Z</time>
      </trkpt>
      <trkpt lat="47.40755" lon="6.5114">
        <ele>276.6</ele>
        <time>2019-08-17T09:06:29Z</time>
      </trkpt>
      <trkpt lat="47.40749" lon="6.5114">
        <ele>276.6</ele>
        <time>2019-08-17T09:06:30Z</time>
      </trkpt>
      <trkpt lat="47.40743" lon="6.5114">
        <ele>276.6</ele>
        <time>2019-08-17T09:06:31Z</time>
      </trkpt>
      <trkpt lat="47.40738" lon="6.5114">
        <ele>276.6</ele>
        <time>2019-08-17T09:06:32Z</time>
      </trkpt>
      <trkpt lat="47.40732" lon="6.51138">
        <ele>276.6</ele>
        <time>2019-08-17T09:06:33Z</time>
      </trkpt>
      <trkpt lat="47.40729" lon="6.51135">
        <ele>276.5</ele>
        <time>2019-08-17T09:06:34Z</time>
      </trkpt>
      <trkpt lat="47.40724" lon="6.51135">
        <ele>276.4</ele>
        <time>2019-08-17T09:06:35Z</time>
      </trkpt>
      <trkpt lat="47.4072" lon="6.51134">
        <ele>276.3</ele>
        <time>2019-08-17T09:06:36Z</time>
      </trkpt>
      <trkpt lat="47.40717" lon="6.51134">
        <ele>276.3</ele>
        <time>2019-08-17T09:06:37Z</time>
      </trkpt>
      <trkpt lat="47.40713" lon="6.51134">
        <ele>276.2</ele>
        <time>2019-08-17T09:06:38Z</time>
      </trkpt>
      <trkpt lat="47.40708" lon="6.51134">
        <ele>276</ele>
        <time>2019-08-17T09:06:39Z</time>
      </trkpt>
      <trkpt lat="47.40704" lon="6.51135">
        <ele>276</ele>
        <time>2019-08-17T09:06:40Z</time>
      </trkpt>
      <trkpt lat="47.40699" lon="6.51135">
        <ele>275.9</ele>
        <time>2019-08-17T09:06:41Z</time>
      </trkpt>
      <trkpt lat="47.40695" lon="6.51135">
        <ele>275.9</ele>
        <time>2019-08-17T09:06:42Z</time>
      </trkpt>
      <trkpt lat="47.4069" lon="6.51135">
        <ele>276</ele>
        <time>2019-08-17T09:06:43Z</time>
      </trkpt>
      <trkpt lat="47.40685" lon="6.51135">
        <ele>276.1</ele>
        <time>2019-08-17T09:06:44Z</time>
      </trkpt>
      <trkpt lat="47.4068" lon="6.51134">
        <ele>276.2</ele>
        <time>2019-08-17T09:06:45Z</time>
      </trkpt>
      <trkpt lat="47.40675" lon="6.51132">
        <ele>276.3</ele>
        <time>2019-08-17T09:06:46Z</time>
      </trkpt>
      <trkpt lat="47.40671" lon="6.51131">
        <ele>276.4</ele>
        <time>2019-08-17T09:06:47Z</time>
      </trkpt>
      <trkpt lat="47.40666" lon="6.5113">
        <ele>276.5</ele>
        <time>2019-08-17T09:06:48Z</time>
      </trkpt>
      <trkpt lat="47.40662" lon="6.51129">
        <ele>276.5</ele>
        <time>2019-08-17T09:06:49Z</time>
      </trkpt>
      <trkpt lat="47.40657" lon="6.51129">
        <ele>276.6</ele>
        <time>2019-08-17T09:06:50Z</time>
      </trkpt>
      <trkpt lat="47.40651" lon="6.51129">
        <ele>276.6</ele>
        <time>2019-08-17T09:06:51Z</time>
      </trkpt>
      <trkpt lat="47.40647" lon="6.51128">
        <ele>276.6</ele>
        <time>2019-08-17T09:06:52Z</time>
      </trkpt>
      <trkpt lat="47.40642" lon="6.51129">
        <ele>276.6</ele>
        <time>2019-08-17T09:06:53Z</time>
      </trkpt>
      <trkpt lat="47.40638" lon="6.51129">
        <ele>276.6</ele>
        <time>2019-08-17T09:06:54Z</time>
      </trkpt>
      <trkpt lat="47.40634" lon="6.5113">
        <ele>276.6</ele>
        <time>2019-08-17T09:06:55Z</time>
      </trkpt>
      <trkpt lat="47.4063" lon="6.5113">
        <ele>276.5</ele>
        <time>2019-08-17T09:06:56Z</time>
      </trkpt>
      <trkpt lat="47.40624" lon="6.51131">
        <ele>276.5</ele>
        <time>2019-08-17T09:06:57Z</time>
      </trkpt>
      <trkpt lat="47.40619" lon="6.51132">
        <ele>276.5</ele>
        <time>2019-08-17T09:06:58Z</time>
      </trkpt>
      <trkpt lat="47.40614" lon="6.51132">
        <ele>276.5</ele>
        <time>2019-08-17T09:06:59Z</time>
      </trkpt>
      <trkpt lat="47.40609" lon="6.51133">
        <ele>276.5</ele>
        <time>2019-08-17T09:07:00Z</time>
      </trkpt>
      <trkpt lat="47.40603" lon="6.51132">
        <ele>276.5</ele>
        <time>2019-08-17T09:07:01Z</time>
      </trkpt>
      <trkpt lat="47.40598" lon="6.51132">
        <ele>276.5</ele>
        <time>2019-08-17T09:07:02Z</time>
      </trkpt>
      <trkpt lat="47.40594" lon="6.51131">
        <ele>276.6</ele>
        <time>2019-08-17T09:07:03Z</time>
      </trkpt>
      <trkpt lat="47.4059" lon="6.51131">
        <ele>276.6</ele>
        <time>2019-08-17T09:07:04Z</time>
      </trkpt>
      <trkpt lat="47.40586" lon="6.51131">
        <ele>276.6</ele>
        <time>2019-08-17T09:07:05Z</time>
      </trkpt>
      <trkpt lat="47.40582" lon="6.5113">
        <ele>276.6</ele>
        <time>2019-08-17T09:07:06Z</time>
      </trkpt>
      <trkpt lat="47.40577" lon="6.51131">
        <ele>276.6</ele>
        <time>2019-08-17T09:07:07Z</time>
      </trkpt>
      <trkpt lat="47.40573" lon="6.51131">
        <ele>276.6</ele>
        <time>2019-08-17T09:07:08Z</time>
      </trkpt>
      <trkpt lat="47.40569" lon="6.51131">
        <ele>276.6</ele>
        <time>2019-08-17T09:07:09Z</time>
      </trkpt>
      <trkpt lat="47.40565" lon="6.51132">
        <ele>276.6</ele>
        <time>2019-08-17T09:07:10Z</time>
      </trkpt>
      <trkpt lat="47.4056" lon="6.51132">
        <ele>276.6</ele>
        <time>2019-08-17T09:07:11Z</time>
      </trkpt>
      <trkpt lat="47.40555" lon="6.51132">
        <ele>276.6</ele>
        <time>2019-08-17T09:07:12Z</time>
      </trkpt>
      <trkpt lat="47.4055" lon="6.51133">
        <ele>276.6</ele>
        <time>2019-08-17T09:07:13Z</time>
      </trkpt>
      <trkpt lat="47.40544" lon="6.51133">
        <ele>276.6</ele>
        <time>2019-08-17T09:07:14Z</time>
      </trkpt>
      <trkpt lat="47.4054" lon="6.51133">
        <ele>276.6</ele>
        <time>2019-08-17T09:07:15Z</time>
      </trkpt>
      <trkpt lat="47.40536" lon="6.51133">
        <ele>276.6</ele>
        <time>2019-08-17T09:07:16Z</time>
      </trkpt>
      <trkpt lat="47.40531" lon="6.51133">
        <ele>276.5</ele>
        <time>2019-08-17T09:07:17Z</time>
      </trkpt>
      <trkpt lat="47.40528" lon="6.51132">
        <ele>276.5</ele>
        <time>2019-08-17T09:07:18Z</time>
      </trkpt>
      <trkpt lat="47.40523" lon="6.51132">
        <ele>276.4</ele>
        <time>2019-08-17T09:07:19Z</time>
      </trkpt>
      <trkpt lat="47.40519" lon="6.51132">
        <ele>276.3</ele>
        <time>2019-08-17T09:07:20Z</time>
      </trkpt>
      <trkpt lat="47.40514" lon="6.51131">
        <ele>276.2</ele>
        <time>2019-08-17T09:07:21Z</time>
      </trkpt>
      <trkpt lat="47.40509" lon="6.5113">
        <ele>276</ele>
        <time>2019-08-17T09:07:22Z</time>
      </trkpt>
      <trkpt lat="47.40504" lon="6.5113">
        <ele>275.9</ele>
        <time>2019-08-17T09:07:23Z</time>
      </trkpt>
      <trkpt lat="47.40499" lon="6.5113">
        <ele>275.8</ele>
        <time>2019-08-17T09:07:24Z</time>
      </trkpt>
      <trkpt lat="47.40495" lon="6.5113">
        <ele>275.7</ele>
        <time>2019-08-17T09:07:25Z</time>
      </trkpt>
      <trkpt lat="47.4049" lon="6.51129">
        <ele>275.7</ele>
        <time>2019-08-17T09:07:26Z</time>
      </trkpt>
      <trkpt lat="47.40485" lon="6.51128">
        <ele>275.6</ele>
        <time>2019-08-17T09:07:27Z</time>
      </trkpt>
      <trkpt lat="47.40479" lon="6.51129">
        <ele>275.6</ele>
        <time>2019-08-17T09:07:28Z</time>
      </trkpt>
      <trkpt lat="47.40475" lon="6.51129">
        <ele>275.6</ele>
        <time>2019-08-17T09:07:29Z</time>
      </trkpt>
      <trkpt lat="47.4047" lon="6.51128">
        <ele>275.6</ele>
        <time>2019-08-17T09:07:30Z</time>
      </trkpt>
      <trkpt lat="47.40466" lon="6.51125">
        <ele>275.6</ele>
        <time>2019-08-17T09:07:31Z</time>
      </trkpt>
      <trkpt lat="47.40462" lon="6.51122">
        <ele>275.6</ele>
        <time>2019-08-17T09:07:32Z</time>
      </trkpt>
      <trkpt lat="47.40458" lon="6.51119">
        <ele>275.6</ele>
        <time>2019-08-17T09:07:33Z</time>
      </trkpt>
      <trkpt lat="47.40454" lon="6.51117">
        <ele>275.6</ele>
        <time>2019-08-17T09:07:34Z</time>
      </trkpt>
      <trkpt lat="47.40448" lon="6.51115">
        <ele>275.6</ele>
        <time>2019-08-17T09:07:35Z</time>
      </trkpt>
      <trkpt lat="47.40443" lon="6.51112">
        <ele>275.7</ele>
        <time>2019-08-17T09:07:36Z</time>
      </trkpt>
      <trkpt lat="47.40438" lon="6.5111">
        <ele>275.7</ele>
        <time>2019-08-17T09:07:37Z</time>
      </trkpt>
      <trkpt lat="47.40434" lon="6.51107">
        <ele>275.7</ele>
        <time>2019-08-17T09:07:38Z</time>
      </trkpt>
      <trkpt lat="47.40429" lon="6.51105">
        <ele>275.8</ele>
        <time>2019-08-17T09:07:39Z</time>
      </trkpt>
      <trkpt lat="47.40423" lon="6.51103">
        <ele>275.9</ele>
        <time>2019-08-17T09:07:40Z</time>
      </trkpt>
      <trkpt lat="47.40418" lon="6.51101">
        <ele>276.1</ele>
        <time>2019-08-17T09:07:41Z</time>
      </trkpt>
      <trkpt lat="47.40413" lon="6.51098">
        <ele>276.2</ele>
        <time>2019-08-17T09:07:42Z</time>
      </trkpt>
      <trkpt lat="47.40408" lon="6.51094">
        <ele>276.4</ele>
        <time>2019-08-17T09:07:43Z</time>
      </trkpt>
      <trkpt lat="47.40404" lon="6.51092">
        <ele>276.5</ele>
        <time>2019-08-17T09:07:44Z</time>
      </trkpt>
      <trkpt lat="47.40399" lon="6.51089">
        <ele>276.6</ele>
        <time>2019-08-17T09:07:45Z</time>
      </trkpt>
      <trkpt lat="47.40395" lon="6.51087">
        <ele>276.6</ele>
        <time>2019-08-17T09:07:46Z</time>
      </trkpt>
      <trkpt lat="47.40389" lon="6.51085">
        <ele>276.6</ele>
        <time>2019-08-17T09:07:47Z</time>
      </trkpt>
      <trkpt lat="47.40384" lon="6.51083">
        <ele>276.6</ele>
        <time>2019-08-17T09:07:48Z</time>
      </trkpt>
      <trkpt lat="47.40379" lon="6.5108">
        <ele>276.6</ele>
        <time>2019-08-17T09:07:49Z</time>
      </trkpt>
      <trkpt lat="47.40374" lon="6.51078">
        <ele>276.6</ele>
        <time>2019-08-17T09:07:50Z</time>
      </trkpt>
      <trkpt lat="47.4037" lon="6.51076">
        <ele>276.6</ele>
        <time>2019-08-17T09:07:51Z</time>
      </trkpt>
      <trkpt lat="47.40365" lon="6.51073">
        <ele>276.6</ele>
        <time>2019-08-17T09:07:52Z</time>
      </trkpt>
      <trkpt lat="47.4036" lon="6.51071">
        <ele>276.6</ele>
        <time>2019-08-17T09:07:53Z</time>
      </trkpt>
      <trkpt lat="47.40356" lon="6.51068">
        <ele>276.6</ele>
        <time>2019-08-17T09:07:54Z</time>
      </trkpt>
      <trkpt lat="47.40351" lon="6.51064">
        <ele>276.6</ele>
        <time>2019-08-17T09:07:55Z</time>
      </trkpt>
      <trkpt lat="47.40347" lon="6.51061">
        <ele>276.6</ele>
        <time>2019-08-17T09:07:56Z</time>
      </trkpt>
      <trkpt lat="47.40344" lon="6.51057">
        <ele>276.5</ele>
        <time>2019-08-17T09:07:57Z</time>
      </trkpt>
      <trkpt lat="47.40339" lon="6.51053">
        <ele>276.5</ele>
        <time>2019-08-17T09:07:58Z</time>
      </trkpt>
      <trkpt lat="47.40335" lon="6.5105">
        <ele>276.5</ele>
        <time>2019-08-17T09:07:59Z</time>
      </trkpt>
      <trkpt lat="47.4033" lon="6.51046">
        <ele>276.5</ele>
        <time>2019-08-17T09:08:00Z</time>
      </trkpt>
      <trkpt lat="47.40325" lon="6.51042">
        <ele>276.5</ele>
        <time>2019-08-17T09:08:01Z</time>
      </trkpt>
      <trkpt lat="47.40321" lon="6.51037">
        <ele>276.5</ele>
        <time>2019-08-17T09:08:02Z</time>
      </trkpt>
      <trkpt lat="47.40316" lon="6.51035">
        <ele>276.6</ele>
        <time>2019-08-17T09:08:03Z</time>
      </trkpt>
      <trkpt lat="47.40313" lon="6.51031">
        <ele>276.6</ele>
        <time>2019-08-17T09:08:04Z</time>
      </trkpt>
      <trkpt lat="47.40309" lon="6.51028">
        <ele>276.6</ele>
        <time>2019-08-17T09:08:05Z</time>
      </trkpt>
      <trkpt lat="47.40305" lon="6.51024">
        <ele>276.6</ele>
        <time>2019-08-17T09:08:06Z</time>
      </trkpt>
      <trkpt lat="47.40302" lon="6.51021">
        <ele>276.6</ele>
        <time>2019-08-17T09:08:07Z</time>
      </trkpt>
      <trkpt lat="47.40298" lon="6.51019">
        <ele>276.6</ele>
        <time>2019-08-17T09:08:08Z</time>
      </trkpt>
      <trkpt lat="47.40294" lon="6.51016">
        <ele>276.6</ele>
        <time>2019-08-17T09:08:09Z</time>
      </trkpt>
      <trkpt lat="47.4029" lon="6.51013">
        <ele>276.6</ele>
        <time>2019-08-17T09:08:10Z</time>
      </trkpt>
      <trkpt lat="47.40286" lon="6.51009">
        <ele>276.6</ele>
        <time>2019-08-17T09:08:11Z</time>
      </trkpt>
      <trkpt lat="47.40282" lon="6.51006">
        <ele>276.6</ele>
        <time>2019-08-17T09:08:12Z</time>
      </trkpt>
      <trkpt lat="47.40276" lon="6.51002">
        <ele>276.6</ele>
        <time>2019-08-17T09:08:13Z</time>
      </trkpt>
      <trkpt lat="47.40271" lon="6.50999">
        <ele>276.6</ele>
        <time>2019-08-17T09:08:14Z</time>
      </trkpt>
      <trkpt lat="47.40266" lon="6.50994">
        <ele>276.6</ele>
        <time>2019-08-17T09:08:15Z</time>
      </trkpt>
      <trkpt lat="47.40262" lon="6.50992">
        <ele>276.6</ele>
        <time>2019-08-17T09:08:16Z</time>
      </trkpt>
      <trkpt lat="47.40256" lon="6.50991">
        <ele>276.6</ele>
        <time>2019-08-17T09:08:17Z</time>
      </trkpt>
      <trkpt lat="47.40251" lon="6.50989">
        <ele>276.7</ele>
        <time>2019-08-17T09:08:18Z</time>
      </trkpt>
      <trkpt lat="47.40247" lon="6.50986">
        <ele>276.7</ele>
        <time>2019-08-17T09:08:19Z</time>
      </trkpt>
      <trkpt lat="47.40244" lon="6.50983">
        <ele>276.7</ele>
        <time>2019-08-17T09:08:20Z</time>
      </trkpt>
      <trkpt lat="47.4024" lon="6.5098">
        <ele>276.7</ele>
        <time>2019-08-17T09:08:21Z</time>
      </trkpt>
      <trkpt lat="47.40236" lon="6.50977">
        <ele>276.7</ele>
        <time>2019-08-17T09:08:22Z</time>
      </trkpt>
      <trkpt lat="47.40231" lon="6.50975">
        <ele>276.7</ele>
        <time>2019-08-17T09:08:23Z</time>
      </trkpt>
      <trkpt lat="47.40227" lon="6.50971">
        <ele>276.7</ele>
        <time>2019-08-17T09:08:24Z</time>
      </trkpt>
      <trkpt lat="47.40223" lon="6.50968">
        <ele>276.7</ele>
        <time>2019-08-17T09:08:25Z</time>
      </trkpt>
      <trkpt lat="47.40219" lon="6.50964">
        <ele>276.8</ele>
        <time>2019-08-17T09:08:26Z</time>
      </trkpt>
      <trkpt lat="47.40215" lon="6.50961">
        <ele>276.8</ele>
        <time>2019-08-17T09:08:27Z</time>
      </trkpt>
      <trkpt lat="47.4021" lon="6.50959">
        <ele>276.8</ele>
        <time>2019-08-17T09:08:28Z</time>
      </trkpt>
      <trkpt lat="47.40206" lon="6.50956">
        <ele>276.8</ele>
        <time>2019-08-17T09:08:29Z</time>
      </trkpt>
      <trkpt lat="47.40202" lon="6.50953">
        <ele>276.8</ele>
        <time>2019-08-17T09:08:30Z</time>
      </trkpt>
      <trkpt lat="47.40198" lon="6.50949">
        <ele>276.8</ele>
        <time>2019-08-17T09:08:31Z</time>
      </trkpt>
      <trkpt lat="47.40195" lon="6.50946">
        <ele>276.8</ele>
        <time>2019-08-17T09:08:32Z</time>
      </trkpt>
      <trkpt lat="47.4019" lon="6.50944">
        <ele>276.8</ele>
        <time>2019-08-17T09:08:33Z</time>
      </trkpt>
      <trkpt lat="47.40186" lon="6.50939">
        <ele>276.8</ele>
        <time>2019-08-17T09:08:34Z</time>
      </trkpt>
      <trkpt lat="47.40182" lon="6.50936">
        <ele>276.9</ele>
        <time>2019-08-17T09:08:35Z</time>
      </trkpt>
      <trkpt lat="47.40178" lon="6.50933">
        <ele>276.9</ele>
        <time>2019-08-17T09:08:36Z</time>
      </trkpt>
      <trkpt lat="47.40173" lon="6.5093">
        <ele>276.9</ele>
        <time>2019-08-17T09:08:37Z</time>
      </trkpt>
      <trkpt lat="47.40168" lon="6.50926">
        <ele>276.9</ele>
        <time>2019-08-17T09:08:38Z</time>
      </trkpt>
      <trkpt lat="47.40162" lon="6.50923">
        <ele>276.9</ele>
        <time>2019-08-17T09:08:39Z</time>
      </trkpt>
      <trkpt lat="47.40157" lon="6.5092">
        <ele>276.9</ele>
        <time>2019-08-17T09:08:40Z</time>
      </trkpt>
      <trkpt lat="47.40152" lon="6.50918">
        <ele>276.9</ele>
        <time>2019-08-17T09:08:41Z</time>
      </trkpt>
      <trkpt lat="47.40147" lon="6.50915">
        <ele>277</ele>
        <time>2019-08-17T09:08:42Z</time>
      </trkpt>
      <trkpt lat="47.40143" lon="6.50912">
        <ele>277</ele>
        <time>2019-08-17T09:08:43Z</time>
      </trkpt>
      <trkpt lat="47.40138" lon="6.5091">
        <ele>277</ele>
        <time>2019-08-17T09:08:44Z</time>
      </trkpt>
      <trkpt lat="47.40135" lon="6.50907">
        <ele>277</ele>
        <time>2019-08-17T09:08:45Z</time>
      </trkpt>
      <trkpt lat="47.40131" lon="6.50905">
        <ele>277</ele>
        <time>2019-08-17T09:08:46Z</time>
      </trkpt>
      <trkpt lat="47.40127" lon="6.50901">
        <ele>277</ele>
        <time>2019-08-17T09:08:47Z</time>
      </trkpt>
      <trkpt lat="47.40123" lon="6.50896">
        <ele>277</ele>
        <time>2019-08-17T09:08:48Z</time>
      </trkpt>
      <trkpt lat="47.40119" lon="6.50892">
        <ele>277</ele>
        <time>2019-08-17T09:08:49Z</time>
      </trkpt>
      <trkpt lat="47.40114" lon="6.50887">
        <ele>277</ele>
        <time>2019-08-17T09:08:50Z</time>
      </trkpt>
      <trkpt lat="47.40108" lon="6.50883">
        <ele>277</ele>
        <time>2019-08-17T09:08:51Z</time>
      </trkpt>
      <trkpt lat="47.40104" lon="6.50879">
        <ele>277</ele>
        <time>2019-08-17T09:08:52Z</time>
      </trkpt>
      <trkpt lat="47.40099" lon="6.50876">
        <ele>277</ele>
        <time>2019-08-17T09:08:53Z</time>
      </trkpt>
      <trkpt lat="47.40094" lon="6.50873">
        <ele>277</ele>
        <time>2019-08-17T09:08:54Z</time>
      </trkpt>
      <trkpt lat="47.40088" lon="6.50869">
        <ele>277</ele>
        <time>2019-08-17T09:08:55Z</time>
      </trkpt>
      <trkpt lat="47.40082" lon="6.50866">
        <ele>277</ele>
        <time>2019-08-17T09:08:56Z</time>
      </trkpt>
      <trkpt lat="47.40077" lon="6.50861">
        <ele>277</ele>
        <time>2019-08-17T09:08:57Z</time>
      </trkpt>
      <trkpt lat="47.40072" lon="6.50858">
        <ele>277.1</ele>
        <time>2019-08-17T09:08:58Z</time>
      </trkpt>
      <trkpt lat="47.40067" lon="6.50855">
        <ele>277.1</ele>
        <time>2019-08-17T09:08:59Z</time>
      </trkpt>
      <trkpt lat="47.40061" lon="6.50851">
        <ele>277.1</ele>
        <time>2019-08-17T09:09:00Z</time>
      </trkpt>
      <trkpt lat="47.40056" lon="6.50847">
        <ele>277.1</ele>
        <time>2019-08-17T09:09:01Z</time>
      </trkpt>
      <trkpt lat="47.40052" lon="6.50844">
        <ele>277.1</ele>
        <time>2019-08-17T09:09:02Z</time>
      </trkpt>
      <trkpt lat="47.40047" lon="6.50841">
        <ele>277.2</ele>
        <time>2019-08-17T09:09:03Z</time>
      </trkpt>
      <trkpt lat="47.40042" lon="6.50837">
        <ele>277.2</ele>
        <time>2019-08-17T09:09:04Z</time>
      </trkpt>
      <trkpt lat="47.40037" lon="6.50833">
        <ele>277.2</ele>
        <time>2019-08-17T09:09:05Z</time>
      </trkpt>
      <trkpt lat="47.40033" lon="6.50829">
        <ele>277.2</ele>
        <time>2019-08-17T09:09:06Z</time>
      </trkpt>
      <trkpt lat="47.40029" lon="6.50825">
        <ele>277.2</ele>
        <time>2019-08-17T09:09:07Z</time>
      </trkpt>
      <trkpt lat="47.40025" lon="6.50821">
        <ele>277.2</ele>
        <time>2019-08-17T09:09:08Z</time>
      </trkpt>
      <trkpt lat="47.40021" lon="6.50818">
        <ele>277.2</ele>
        <time>2019-08-17T09:09:09Z</time>
      </trkpt>
      <trkpt lat="47.40017" lon="6.50814">
        <ele>277.2</ele>
        <time>2019-08-17T09:09:10Z</time>
      </trkpt>
      <trkpt lat="47.40012" lon="6.50811">
        <ele>277.2</ele>
        <time>2019-08-17T09:09:11Z</time>
      </trkpt>
      <trkpt lat="47.40007" lon="6.50807">
        <ele>277.2</ele>
        <time>2019-08-17T09:09:12Z</time>
      </trkpt>
      <trkpt lat="47.40003" lon="6.50804">
        <ele>277.2</ele>
        <time>2019-08-17T09:09:13Z</time>
      </trkpt>
      <trkpt lat="47.39998" lon="6.508">
        <ele>277.1</ele>
        <time>2019-08-17T09:09:14Z</time>
      </trkpt>
      <trkpt lat="47.39993" lon="6.50796">
        <ele>277.1</ele>
        <time>2019-08-17T09:09:15Z</time>
      </trkpt>
      <trkpt lat="47.39989" lon="6.50792">
        <ele>277</ele>
        <time>2019-08-17T09:09:16Z</time>
      </trkpt>
      <trkpt lat="47.39985" lon="6.50788">
        <ele>277</ele>
        <time>2019-08-17T09:09:17Z</time>
      </trkpt>
      <trkpt lat="47.3998" lon="6.50785">
        <ele>276.9</ele>
        <time>2019-08-17T09:09:18Z</time>
      </trkpt>
      <trkpt lat="47.39977" lon="6.50782">
        <ele>276.9</ele>
        <time>2019-08-17T09:09:19Z</time>
      </trkpt>
      <trkpt lat="47.39972" lon="6.50777">
        <ele>276.8</ele>
        <time>2019-08-17T09:09:20Z</time>
      </trkpt>
      <trkpt lat="47.39967" lon="6.50773">
        <ele>276.7</ele>
        <time>2019-08-17T09:09:21Z</time>
      </trkpt>
      <trkpt lat="47.39962" lon="6.50769">
        <ele>276.6</ele>
        <time>2019-08-17T09:09:22Z</time>
      </trkpt>
      <trkpt lat="47.39957" lon="6.50765">
        <ele>276.6</ele>
        <time>2019-08-17T09:09:23Z</time>
      </trkpt>
      <trkpt lat="47.39953" lon="6.50761">
        <ele>276.5</ele>
        <time>2019-08-17T09:09:24Z</time>
      </trkpt>
      <trkpt lat="47.39948" lon="6.50757">
        <ele>276.5</ele>
        <time>2019-08-17T09:09:25Z</time>
      </trkpt>
      <trkpt lat="47.39943" lon="6.50753">
        <ele>276.5</ele>
        <time>2019-08-17T09:09:26Z</time>
      </trkpt>
      <trkpt lat="47.39939" lon="6.50748">
        <ele>276.5</ele>
        <time>2019-08-17T09:09:27Z</time>
      </trkpt>
      <trkpt lat="47.39934" lon="6.50744">
        <ele>276.4</ele>
        <time>2019-08-17T09:09:28Z</time>
      </trkpt>
      <trkpt lat="47.39929" lon="6.5074">
        <ele>276.4</ele>
        <time>2019-08-17T09:09:29Z</time>
      </trkpt>
      <trkpt lat="47.39924" lon="6.50735">
        <ele>276.4</ele>
        <time>2019-08-17T09:09:30Z</time>
      </trkpt>
      <trkpt lat="47.3992" lon="6.50731">
        <ele>276.4</ele>
        <time>2019-08-17T09:09:31Z</time>
      </trkpt>
      <trkpt lat="47.39916" lon="6.50727">
        <ele>276.4</ele>
        <time>2019-08-17T09:09:32Z</time>
      </trkpt>
      <trkpt lat="47.39912" lon="6.50723">
        <ele>276.4</ele>
        <time>2019-08-17T09:09:33Z</time>
      </trkpt>
      <trkpt lat="47.39908" lon="6.50719">
        <ele>276.4</ele>
        <time>2019-08-17T09:09:34Z</time>
      </trkpt>
      <trkpt lat="47.39904" lon="6.50716">
        <ele>276.4</ele>
        <time>2019-08-17T09:09:35Z</time>
      </trkpt>
      <trkpt lat="47.399" lon="6.50713">
        <ele>276.4</ele>
        <time>2019-08-17T09:09:36Z</time>
      </trkpt>
      <trkpt lat="47.39896" lon="6.50709">
        <ele>276.4</ele>
        <time>2019-08-17T09:09:37Z</time>
      </trkpt>
      <trkpt lat="47.39892" lon="6.50705">
        <ele>276.4</ele>
        <time>2019-08-17T09:09:38Z</time>
      </trkpt>
      <trkpt lat="47.39888" lon="6.50698">
        <ele>276.4</ele>
        <time>2019-08-17T09:09:39Z</time>
      </trkpt>
      <trkpt lat="47.39883" lon="6.50695">
        <ele>276.4</ele>
        <time>2019-08-17T09:09:40Z</time>
      </trkpt>
      <trkpt lat="47.39878" lon="6.50691">
        <ele>276.4</ele>
        <time>2019-08-17T09:09:41Z</time>
      </trkpt>
      <trkpt lat="47.39874" lon="6.50686">
        <ele>276.4</ele>
        <time>2019-08-17T09:09:42Z</time>
      </trkpt>
      <trkpt lat="47.39869" lon="6.50681">
        <ele>276.4</ele>
        <time>2019-08-17T09:09:43Z</time>
      </trkpt>
      <trkpt lat="47.39864" lon="6.50676">
        <ele>276.4</ele>
        <time>2019-08-17T09:09:44Z</time>
      </trkpt>
      <trkpt lat="47.39859" lon="6.50671">
        <ele>276.4</ele>
        <time>2019-08-17T09:09:45Z</time>
      </trkpt>
      <trkpt lat="47.39853" lon="6.50667">
        <ele>276.4</ele>
        <time>2019-08-17T09:09:46Z</time>
      </trkpt>
      <trkpt lat="47.39848" lon="6.50661">
        <ele>276.4</ele>
        <time>2019-08-17T09:09:47Z</time>
      </trkpt>
      <trkpt lat="47.39843" lon="6.50656">
        <ele>276.4</ele>
        <time>2019-08-17T09:09:48Z</time>
      </trkpt>
      <trkpt lat="47.39839" lon="6.50651">
        <ele>276.4</ele>
        <time>2019-08-17T09:09:49Z</time>
      </trkpt>
      <trkpt lat="47.39834" lon="6.50646">
        <ele>276.3</ele>
        <time>2019-08-17T09:09:50Z</time>
      </trkpt>
      <trkpt lat="47.39829" lon="6.50641">
        <ele>276.3</ele>
        <time>2019-08-17T09:09:51Z</time>
      </trkpt>
      <trkpt lat="47.39824" lon="6.50635">
        <ele>276.3</ele>
        <time>2019-08-17T09:09:52Z</time>
      </trkpt>
      <trkpt lat="47.3982" lon="6.50631">
        <ele>276.3</ele>
        <time>2019-08-17T09:09:53Z</time>
      </trkpt>
      <trkpt lat="47.39816" lon="6.50625">
        <ele>276.2</ele>
        <time>2019-08-17T09:09:54Z</time>
      </trkpt>
      <trkpt lat="47.39812" lon="6.5062">
        <ele>276.2</ele>
        <time>2019-08-17T09:09:55Z</time>
      </trkpt>
      <trkpt lat="47.39809" lon="6.50615">
        <ele>276.2</ele>
        <time>2019-08-17T09:09:56Z</time>
      </trkpt>
      <trkpt lat="47.39805" lon="6.5061">
        <ele>276.2</ele>
        <time>2019-08-17T09:09:57Z</time>
      </trkpt>
      <trkpt lat="47.39801" lon="6.50607">
        <ele>276.2</ele>
        <time>2019-08-17T09:09:58Z</time>
      </trkpt>
      <trkpt lat="47.39797" lon="6.50602">
        <ele>276.2</ele>
        <time>2019-08-17T09:09:59Z</time>
      </trkpt>
      <trkpt lat="47.39793" lon="6.50598">
        <ele>276.2</ele>
        <time>2019-08-17T09:10:00Z</time>
      </trkpt>
      <trkpt lat="47.3979" lon="6.50593">
        <ele>276.2</ele>
        <time>2019-08-17T09:10:01Z</time>
      </trkpt>
      <trkpt lat="47.39786" lon="6.50588">
        <ele>276.2</ele>
        <time>2019-08-17T09:10:02Z</time>
      </trkpt>
      <trkpt lat="47.39782" lon="6.50583">
        <ele>276.1</ele>
        <time>2019-08-17T09:10:03Z</time>
      </trkpt>
      <trkpt lat="47.39778" lon="6.50575">
        <ele>276.1</ele>
        <time>2019-08-17T09:10:04Z</time>
      </trkpt>
      <trkpt lat="47.39775" lon="6.50569">
        <ele>276.1</ele>
        <time>2019-08-17T09:10:05Z</time>
      </trkpt>
      <trkpt lat="47.39771" lon="6.50564">
        <ele>276.1</ele>
        <time>2019-08-17T09:10:06Z</time>
      </trkpt>
      <trkpt lat="47.39769" lon="6.50558">
        <ele>276.1</ele>
        <time>2019-08-17T09:10:07Z</time>
      </trkpt>
      <trkpt lat="47.39766" lon="6.50554">
        <ele>276.1</ele>
        <time>2019-08-17T09:10:08Z</time>
      </trkpt>
      <trkpt lat="47.39763" lon="6.5055">
        <ele>276.1</ele>
        <time>2019-08-17T09:10:09Z</time>
      </trkpt>
      <trkpt lat="47.39761" lon="6.50544">
        <ele>276.2</ele>
        <time>2019-08-17T09:10:10Z</time>
      </trkpt>
      <trkpt lat="47.39758" lon="6.50538">
        <ele>276.2</ele>
        <time>2019-08-17T09:10:11Z</time>
      </trkpt>
      <trkpt lat="47.39755" lon="6.50531">
        <ele>276.3</ele>
        <time>2019-08-17T09:10:12Z</time>
      </trkpt>
      <trkpt lat="47.39753" lon="6.50523">
        <ele>276.3</ele>
        <time>2019-08-17T09:10:13Z</time>
      </trkpt>
      <trkpt lat="47.39751" lon="6.50515">
        <ele>276.4</ele>
        <time>2019-08-17T09:10:14Z</time>
      </trkpt>
      <trkpt lat="47.39749" lon="6.50508">
        <ele>276.4</ele>
        <time>2019-08-17T09:10:15Z</time>
      </trkpt>
      <trkpt lat="47.39747" lon="6.50501">
        <ele>276.5</ele>
        <time>2019-08-17T09:10:16Z</time>
      </trkpt>
      <trkpt lat="47.39745" lon="6.50493">
        <ele>276.6</ele>
        <time>2019-08-17T09:10:17Z</time>
      </trkpt>
      <trkpt lat="47.39744" lon="6.50485">
        <ele>276.7</ele>
        <time>2019-08-17T09:10:18Z</time>
      </trkpt>
      <trkpt lat="47.39743" lon="6.50478">
        <ele>276.7</ele>
        <time>2019-08-17T09:10:19Z</time>
      </trkpt>
      <trkpt lat="47.39741" lon="6.5047">
        <ele>276.8</ele>
        <time>2019-08-17T09:10:20Z</time>
      </trkpt>
      <trkpt lat="47.3974" lon="6.50463">
        <ele>276.9</ele>
        <time>2019-08-17T09:10:21Z</time>
      </trkpt>
      <trkpt lat="47.3974" lon="6.50456">
        <ele>276.9</ele>
        <time>2019-08-17T09:10:22Z</time>
      </trkpt>
      <trkpt lat="47.39739" lon="6.50449">
        <ele>277</ele>
        <time>2019-08-17T09:10:23Z</time>
      </trkpt>
      <trkpt lat="47.39739" lon="6.50441">
        <ele>277</ele>
        <time>2019-08-17T09:10:24Z</time>
      </trkpt>
      <trkpt lat="47.39739" lon="6.50433">
        <ele>277.1</ele>
        <time>2019-08-17T09:10:25Z</time>
      </trkpt>
      <trkpt lat="47.3974" lon="6.50427">
        <ele>277.1</ele>
        <time>2019-08-17T09:10:26Z</time>
      </trkpt>
      <trkpt lat="47.3974" lon="6.5042">
        <ele>277.1</ele>
        <time>2019-08-17T09:10:27Z</time>
      </trkpt>
      <trkpt lat="47.3974" lon="6.50413">
        <ele>277.1</ele>
        <time>2019-08-17T09:10:28Z</time>
      </trkpt>
      <trkpt lat="47.39741" lon="6.50406">
        <ele>277.1</ele>
        <time>2019-08-17T09:10:29Z</time>
      </trkpt>
      <trkpt lat="47.39741" lon="6.50399">
        <ele>277.1</ele>
        <time>2019-08-17T09:10:30Z</time>
      </trkpt>
      <trkpt lat="47.39742" lon="6.50393">
        <ele>277</ele>
        <time>2019-08-17T09:10:31Z</time>
      </trkpt>
      <trkpt lat="47.39742" lon="6.50386">
        <ele>277</ele>
        <time>2019-08-17T09:10:32Z</time>
      </trkpt>
      <trkpt lat="47.39743" lon="6.50379">
        <ele>277</ele>
        <time>2019-08-17T09:10:33Z</time>
      </trkpt>
      <trkpt lat="47.39743" lon="6.50371">
        <ele>277</ele>
        <time>2019-08-17T09:10:34Z</time>
      </trkpt>
      <trkpt lat="47.39743" lon="6.50363">
        <ele>277</ele>
        <time>2019-08-17T09:10:35Z</time>
      </trkpt>
      <trkpt lat="47.39744" lon="6.50355">
        <ele>277</ele>
        <time>2019-08-17T09:10:36Z</time>
      </trkpt>
      <trkpt lat="47.39744" lon="6.50347">
        <ele>276.9</ele>
        <time>2019-08-17T09:10:37Z</time>
      </trkpt>
      <trkpt lat="47.39744" lon="6.50339">
        <ele>276.9</ele>
        <time>2019-08-17T09:10:38Z</time>
      </trkpt>
      <trkpt lat="47.39744" lon="6.5033">
        <ele>276.9</ele>
        <time>2019-08-17T09:10:39Z</time>
      </trkpt>
      <trkpt lat="47.39744" lon="6.50322">
        <ele>276.9</ele>
        <time>2019-08-17T09:10:40Z</time>
      </trkpt>
      <trkpt lat="47.39746" lon="6.50315">
        <ele>276.8</ele>
        <time>2019-08-17T09:10:41Z</time>
      </trkpt>
      <trkpt lat="47.39746" lon="6.50308">
        <ele>276.8</ele>
        <time>2019-08-17T09:10:42Z</time>
      </trkpt>
      <trkpt lat="47.39746" lon="6.50301">
        <ele>276.8</ele>
        <time>2019-08-17T09:10:43Z</time>
      </trkpt>
      <trkpt lat="47.39747" lon="6.50291">
        <ele>276.8</ele>
        <time>2019-08-17T09:10:44Z</time>
      </trkpt>
      <trkpt lat="47.39747" lon="6.50282">
        <ele>276.8</ele>
        <time>2019-08-17T09:10:45Z</time>
      </trkpt>
      <trkpt lat="47.39747" lon="6.50272">
        <ele>276.8</ele>
        <time>2019-08-17T09:10:46Z</time>
      </trkpt>
      <trkpt lat="47.39747" lon="6.50262">
        <ele>276.8</ele>
        <time>2019-08-17T09:10:47Z</time>
      </trkpt>
      <trkpt lat="47.39747" lon="6.50253">
        <ele>276.8</ele>
        <time>2019-08-17T09:10:48Z</time>
      </trkpt>
      <trkpt lat="47.39747" lon="6.50242">
        <ele>276.7</ele>
        <time>2019-08-17T09:10:49Z</time>
      </trkpt>
      <trkpt lat="47.39746" lon="6.5023">
        <ele>276.7</ele>
        <time>2019-08-17T09:10:50Z</time>
      </trkpt>
      <trkpt lat="47.39746" lon="6.5022">
        <ele>276.7</ele>
        <time>2019-08-17T09:10:51Z</time>
      </trkpt>
      <trkpt lat="47.39746" lon="6.50212">
        <ele>276.7</ele>
        <time>2019-08-17T09:10:52Z</time>
      </trkpt>
      <trkpt lat="47.39747" lon="6.50204">
        <ele>276.7</ele>
        <time>2019-08-17T09:10:53Z</time>
      </trkpt>
      <trkpt lat="47.39747" lon="6.50197">
        <ele>276.7</ele>
        <time>2019-08-17T09:10:54Z</time>
      </trkpt>
      <trkpt lat="47.39748" lon="6.5019">
        <ele>276.8</ele>
        <time>2019-08-17T09:10:55Z</time>
      </trkpt>
      <trkpt lat="47.3975" lon="6.50183">
        <ele>276.8</ele>
        <time>2019-08-17T09:10:56Z</time>
      </trkpt>
      <trkpt lat="47.3975" lon="6.50176">
        <ele>276.9</ele>
        <time>2019-08-17T09:10:57Z</time>
      </trkpt>
      <trkpt lat="47.39751" lon="6.50169">
        <ele>276.9</ele>
        <time>2019-08-17T09:10:58Z</time>
      </trkpt>
      <trkpt lat="47.39752" lon="6.5016">
        <ele>277</ele>
        <time>2019-08-17T09:10:59Z</time>
      </trkpt>
      <trkpt lat="47.39753" lon="6.50151">
        <ele>277.1</ele>
        <time>2019-08-17T09:11:00Z</time>
      </trkpt>
      <trkpt lat="47.39752" lon="6.50143">
        <ele>277.2</ele>
        <time>2019-08-17T09:11:01Z</time>
      </trkpt>
      <trkpt lat="47.39751" lon="6.50134">
        <ele>277.2</ele>
        <time>2019-08-17T09:11:02Z</time>
      </trkpt>
      <trkpt lat="47.39753" lon="6.50126">
        <ele>277.3</ele>
        <time>2019-08-17T09:11:03Z</time>
      </trkpt>
      <trkpt lat="47.39753" lon="6.50117">
        <ele>277.4</ele>
        <time>2019-08-17T09:11:04Z</time>
      </trkpt>
      <trkpt lat="47.39754" lon="6.50108">
        <ele>277.4</ele>
        <time>2019-08-17T09:11:05Z</time>
      </trkpt>
      <trkpt lat="47.39755" lon="6.50099">
        <ele>277.4</ele>
        <time>2019-08-17T09:11:06Z</time>
      </trkpt>
      <trkpt lat="47.39755" lon="6.5009">
        <ele>277.5</ele>
        <time>2019-08-17T09:11:07Z</time>
      </trkpt>
      <trkpt lat="47.39755" lon="6.50084">
        <ele>277.5</ele>
        <time>2019-08-17T09:11:08Z</time>
      </trkpt>
      <trkpt lat="47.39756" lon="6.50078">
        <ele>277.5</ele>
        <time>2019-08-17T09:11:09Z</time>
      </trkpt>
      <trkpt lat="47.39757" lon="6.50069">
        <ele>277.6</ele>
        <time>2019-08-17T09:11:10Z</time>
      </trkpt>
      <trkpt lat="47.39757" lon="6.50062">
        <ele>277.6</ele>
        <time>2019-08-17T09:11:11Z</time>
      </trkpt>
      <trkpt lat="47.39757" lon="6.50052">
        <ele>277.6</ele>
        <time>2019-08-17T09:11:12Z</time>
      </trkpt>
      <trkpt lat="47.39757" lon="6.50044">
        <ele>277.6</ele>
        <time>2019-08-17T09:11:13Z</time>
      </trkpt>
      <trkpt lat="47.39756" lon="6.50037">
        <ele>277.6</ele>
        <time>2019-08-17T09:11:14Z</time>
      </trkpt>
      <trkpt lat="47.39755" lon="6.50028">
        <ele>277.6</ele>
        <time>2019-08-17T09:11:15Z</time>
      </trkpt>
      <trkpt lat="47.39754" lon="6.50019">
        <ele>277.5</ele>
        <time>2019-08-17T09:11:16Z</time>
      </trkpt>
      <trkpt lat="47.39751" lon="6.50009">
        <ele>277.5</ele>
        <time>2019-08-17T09:11:17Z</time>
      </trkpt>
      <trkpt lat="47.39749" lon="6.50001">
        <ele>277.5</ele>
        <time>2019-08-17T09:11:18Z</time>
      </trkpt>
      <trkpt lat="47.39747" lon="6.49993">
        <ele>277.5</ele>
        <time>2019-08-17T09:11:19Z</time>
      </trkpt>
      <trkpt lat="47.39745" lon="6.49986">
        <ele>277.5</ele>
        <time>2019-08-17T09:11:20Z</time>
      </trkpt>
      <trkpt lat="47.39744" lon="6.4998">
        <ele>277.5</ele>
        <time>2019-08-17T09:11:21Z</time>
      </trkpt>
      <trkpt lat="47.39742" lon="6.49973">
        <ele>277.5</ele>
        <time>2019-08-17T09:11:22Z</time>
      </trkpt>
      <trkpt lat="47.3974" lon="6.49966">
        <ele>277.5</ele>
        <time>2019-08-17T09:11:23Z</time>
      </trkpt>
      <trkpt lat="47.39737" lon="6.49958">
        <ele>277.6</ele>
        <time>2019-08-17T09:11:24Z</time>
      </trkpt>
      <trkpt lat="47.39735" lon="6.49952">
        <ele>277.6</ele>
        <time>2019-08-17T09:11:25Z</time>
      </trkpt>
      <trkpt lat="47.39732" lon="6.49945">
        <ele>277.6</ele>
        <time>2019-08-17T09:11:26Z</time>
      </trkpt>
      <trkpt lat="47.39729" lon="6.4994">
        <ele>277.6</ele>
        <time>2019-08-17T09:11:27Z</time>
      </trkpt>
      <trkpt lat="47.39727" lon="6.49935">
        <ele>277.6</ele>
        <time>2019-08-17T09:11:28Z</time>
      </trkpt>
      <trkpt lat="47.39725" lon="6.49927">
        <ele>277.6</ele>
        <time>2019-08-17T09:11:29Z</time>
      </trkpt>
      <trkpt lat="47.39723" lon="6.49921">
        <ele>277.6</ele>
        <time>2019-08-17T09:11:30Z</time>
      </trkpt>
      <trkpt lat="47.39721" lon="6.49915">
        <ele>277.6</ele>
        <time>2019-08-17T09:11:31Z</time>
      </trkpt>
      <trkpt lat="47.3972" lon="6.49909">
        <ele>277.6</ele>
        <time>2019-08-17T09:11:32Z</time>
      </trkpt>
      <trkpt lat="47.39717" lon="6.49904">
        <ele>277.5</ele>
        <time>2019-08-17T09:11:33Z</time>
      </trkpt>
      <trkpt lat="47.39714" lon="6.49896">
        <ele>277.5</ele>
        <time>2019-08-17T09:11:34Z</time>
      </trkpt>
      <trkpt lat="47.39711" lon="6.49889">
        <ele>277.5</ele>
        <time>2019-08-17T09:11:35Z</time>
      </trkpt>
      <trkpt lat="47.39708" lon="6.49881">
        <ele>277.5</ele>
        <time>2019-08-17T09:11:36Z</time>
      </trkpt>
      <trkpt lat="47.39706" lon="6.49875">
        <ele>277.4</ele>
        <time>2019-08-17T09:11:37Z</time>
      </trkpt>
      <trkpt lat="47.39703" lon="6.49868">
        <ele>277.4</ele>
        <time>2019-08-17T09:11:38Z</time>
      </trkpt>
      <trkpt lat="47.397" lon="6.49862">
        <ele>277.4</ele>
        <time>2019-08-17T09:11:39Z</time>
      </trkpt>
      <trkpt lat="47.39697" lon="6.49857">
        <ele>277.4</ele>
        <time>2019-08-17T09:11:40Z</time>
      </trkpt>
      <trkpt lat="47.39694" lon="6.4985">
        <ele>277.4</ele>
        <time>2019-08-17T09:11:41Z</time>
      </trkpt>
      <trkpt lat="47.39691" lon="6.49844">
        <ele>277.4</ele>
        <time>2019-08-17T09:11:42Z</time>
      </trkpt>
      <trkpt lat="47.39688" lon="6.49836">
        <ele>277.4</ele>
        <time>2019-08-17T09:11:43Z</time>
      </trkpt>
      <trkpt lat="47.39684" lon="6.4983">
        <ele>277.4</ele>
        <time>2019-08-17T09:11:44Z</time>
      </trkpt>
      <trkpt lat="47.39681" lon="6.49823">
        <ele>277.4</ele>
        <time>2019-08-17T09:11:45Z</time>
      </trkpt>
      <trkpt lat="47.39679" lon="6.49817">
        <ele>277.4</ele>
        <time>2019-08-17T09:11:46Z</time>
      </trkpt>
      <trkpt lat="47.39677" lon="6.49812">
        <ele>277.4</ele>
        <time>2019-08-17T09:11:47Z</time>
      </trkpt>
      <trkpt lat="47.39674" lon="6.49807">
        <ele>277.3</ele>
        <time>2019-08-17T09:11:48Z</time>
      </trkpt>
      <trkpt lat="47.39672" lon="6.49801">
        <ele>277.2</ele>
        <time>2019-08-17T09:11:49Z</time>
      </trkpt>
      <trkpt lat="47.3967" lon="6.49794">
        <ele>277.1</ele>
        <time>2019-08-17T09:11:50Z</time>
      </trkpt>
      <trkpt lat="47.39668" lon="6.49786">
        <ele>276.9</ele>
        <time>2019-08-17T09:11:51Z</time>
      </trkpt>
      <trkpt lat="47.39665" lon="6.49781">
        <ele>276.8</ele>
        <time>2019-08-17T09:11:52Z</time>
      </trkpt>
      <trkpt lat="47.39662" lon="6.49776">
        <ele>276.6</ele>
        <time>2019-08-17T09:11:53Z</time>
      </trkpt>
      <trkpt lat="47.39659" lon="6.49771">
        <ele>276.5</ele>
        <time>2019-08-17T09:11:54Z</time>
      </trkpt>
      <trkpt lat="47.39657" lon="6.49766">
        <ele>276.4</ele>
        <time>2019-08-17T09:11:55Z</time>
      </trkpt>
      <trkpt lat="47.39656" lon="6.49758">
        <ele>276.2</ele>
        <time>2019-08-17T09:11:56Z</time>
      </trkpt>
      <trkpt lat="47.39654" lon="6.49751">
        <ele>276</ele>
        <time>2019-08-17T09:11:57Z</time>
      </trkpt>
      <trkpt lat="47.39651" lon="6.49744">
        <ele>275.9</ele>
        <time>2019-08-17T09:11:58Z</time>
      </trkpt>
      <trkpt lat="47.39651" lon="6.49736">
        <ele>275.8</ele>
        <time>2019-08-17T09:11:59Z</time>
      </trkpt>
      <trkpt lat="47.3965" lon="6.4973">
        <ele>275.7</ele>
        <time>2019-08-17T09:12:00Z</time>
      </trkpt>
      <trkpt lat="47.39647" lon="6.49725">
        <ele>275.7</ele>
        <time>2019-08-17T09:12:01Z</time>
      </trkpt>
      <trkpt lat="47.39644" lon="6.4972">
        <ele>275.7</ele>
        <time>2019-08-17T09:12:02Z</time>
      </trkpt>
      <trkpt lat="47.39642" lon="6.49714">
        <ele>275.7</ele>
        <time>2019-08-17T09:12:03Z</time>
      </trkpt>
      <trkpt lat="47.39639" lon="6.49708">
        <ele>275.7</ele>
        <time>2019-08-17T09:12:04Z</time>
      </trkpt>
      <trkpt lat="47.39637" lon="6.497">
        <ele>275.8</ele>
        <time>2019-08-17T09:12:05Z</time>
      </trkpt>
      <trkpt lat="47.39634" lon="6.49693">
        <ele>275.8</ele>
        <time>2019-08-17T09:12:06Z</time>
      </trkpt>
      <trkpt lat="47.39631" lon="6.49688">
        <ele>275.9</ele>
        <time>2019-08-17T09:12:07Z</time>
      </trkpt>
      <trkpt lat="47.39629" lon="6.49682">
        <ele>276</ele>
        <time>2019-08-17T09:12:08Z</time>
      </trkpt>
      <trkpt lat="47.39627" lon="6.49676">
        <ele>276.1</ele>
        <time>2019-08-17T09:12:09Z</time>
      </trkpt>
      <trkpt lat="47.39625" lon="6.49669">
        <ele>276.2</ele>
        <time>2019-08-17T09:12:10Z</time>
      </trkpt>
      <trkpt lat="47.39622" lon="6.49664">
        <ele>276.2</ele>
        <time>2019-08-17T09:12:11Z</time>
      </trkpt>
      <trkpt lat="47.39619" lon="6.49659">
        <ele>276.3</ele>
        <time>2019-08-17T09:12:12Z</time>
      </trkpt>
      <trkpt lat="47.39616" lon="6.49654">
        <ele>276.4</ele>
        <time>2019-08-17T09:12:13Z</time>
      </trkpt>
      <trkpt lat="47.39613" lon="6.49649">
        <ele>276.5</ele>
        <time>2019-08-17T09:12:14Z</time>
      </trkpt>
      <trkpt lat="47.39609" lon="6.49643">
        <ele>276.6</ele>
        <time>2019-08-17T09:12:15Z</time>
      </trkpt>
      <trkpt lat="47.39606" lon="6.49636">
        <ele>276.7</ele>
        <time>2019-08-17T09:12:16Z</time>
      </trkpt>
      <trkpt lat="47.39603" lon="6.49629">
        <ele>276.8</ele>
        <time>2019-08-17T09:12:17Z</time>
      </trkpt>
      <trkpt lat="47.39599" lon="6.49623">
        <ele>276.9</ele>
        <time>2019-08-17T09:12:18Z</time>
      </trkpt>
      <trkpt lat="47.39596" lon="6.49617">
        <ele>277</ele>
        <time>2019-08-17T09:12:19Z</time>
      </trkpt>
      <trkpt lat="47.39592" lon="6.49611">
        <ele>277.1</ele>
        <time>2019-08-17T09:12:20Z</time>
      </trkpt>
      <trkpt lat="47.39588" lon="6.49607">
        <ele>277.2</ele>
        <time>2019-08-17T09:12:21Z</time>
      </trkpt>
      <trkpt lat="47.39584" lon="6.49601">
        <ele>277.3</ele>
        <time>2019-08-17T09:12:22Z</time>
      </trkpt>
      <trkpt lat="47.3958" lon="6.49594">
        <ele>277.3</ele>
        <time>2019-08-17T09:12:23Z</time>
      </trkpt>
      <trkpt lat="47.39577" lon="6.49588">
        <ele>277.4</ele>
        <time>2019-08-17T09:12:24Z</time>
      </trkpt>
      <trkpt lat="47.39573" lon="6.49581">
        <ele>277.5</ele>
        <time>2019-08-17T09:12:25Z</time>
      </trkpt>
      <trkpt lat="47.3957" lon="6.49576">
        <ele>277.6</ele>
        <time>2019-08-17T09:12:26Z</time>
      </trkpt>
      <trkpt lat="47.39566" lon="6.4957">
        <ele>277.7</ele>
        <time>2019-08-17T09:12:27Z</time>
      </trkpt>
      <trkpt lat="47.39563" lon="6.49564">
        <ele>277.7</ele>
        <time>2019-08-17T09:12:28Z</time>
      </trkpt>
      <trkpt lat="47.39559" lon="6.49559">
        <ele>277.8</ele>
        <time>2019-08-17T09:12:29Z</time>
      </trkpt>
      <trkpt lat="47.39555" lon="6.49553">
        <ele>277.9</ele>
        <time>2019-08-17T09:12:30Z</time>
      </trkpt>
      <trkpt lat="47.39552" lon="6.49547">
        <ele>277.9</ele>
        <time>2019-08-17T09:12:31Z</time>
      </trkpt>
      <trkpt lat="47.39548" lon="6.49541">
        <ele>278</ele>
        <time>2019-08-17T09:12:32Z</time>
      </trkpt>
      <trkpt lat="47.39545" lon="6.49535">
        <ele>278</ele>
        <time>2019-08-17T09:12:33Z</time>
      </trkpt>
      <trkpt lat="47.39542" lon="6.49528">
        <ele>278.1</ele>
        <time>2019-08-17T09:12:34Z</time>
      </trkpt>
      <trkpt lat="47.39538" lon="6.49522">
        <ele>278.1</ele>
        <time>2019-08-17T09:12:35Z</time>
      </trkpt>
      <trkpt lat="47.39534" lon="6.49517">
        <ele>278.1</ele>
        <time>2019-08-17T09:12:36Z</time>
      </trkpt>
      <trkpt lat="47.39529" lon="6.49511">
        <ele>278.2</ele>
        <time>2019-08-17T09:12:37Z</time>
      </trkpt>
      <trkpt lat="47.39525" lon="6.49505">
        <ele>278.2</ele>
        <time>2019-08-17T09:12:38Z</time>
      </trkpt>
      <trkpt lat="47.39521" lon="6.49499">
        <ele>278.3</ele>
        <time>2019-08-17T09:12:39Z</time>
      </trkpt>
      <trkpt lat="47.39518" lon="6.49492">
        <ele>278.4</ele>
        <time>2019-08-17T09:12:40Z</time>
      </trkpt>
      <trkpt lat="47.39514" lon="6.49486">
        <ele>278.4</ele>
        <time>2019-08-17T09:12:41Z</time>
      </trkpt>
      <trkpt lat="47.3951" lon="6.49479">
        <ele>278.5</ele>
        <time>2019-08-17T09:12:42Z</time>
      </trkpt>
      <trkpt lat="47.39507" lon="6.49473">
        <ele>278.6</ele>
        <time>2019-08-17T09:12:43Z</time>
      </trkpt>
      <trkpt lat="47.39503" lon="6.49468">
        <ele>278.7</ele>
        <time>2019-08-17T09:12:44Z</time>
      </trkpt>
      <trkpt lat="47.39501" lon="6.49462">
        <ele>278.8</ele>
        <time>2019-08-17T09:12:45Z</time>
      </trkpt>
      <trkpt lat="47.39498" lon="6.49457">
        <ele>278.9</ele>
        <time>2019-08-17T09:12:46Z</time>
      </trkpt>
      <trkpt lat="47.39494" lon="6.49452">
        <ele>279</ele>
        <time>2019-08-17T09:12:47Z</time>
      </trkpt>
      <trkpt lat="47.3949" lon="6.49448">
        <ele>279.1</ele>
        <time>2019-08-17T09:12:48Z</time>
      </trkpt>
      <trkpt lat="47.39486" lon="6.49442">
        <ele>279.2</ele>
        <time>2019-08-17T09:12:49Z</time>
      </trkpt>
      <trkpt lat="47.39482" lon="6.49437">
        <ele>279.3</ele>
        <time>2019-08-17T09:12:50Z</time>
      </trkpt>
      <trkpt lat="47.39479" lon="6.49432">
        <ele>279.4</ele>
        <time>2019-08-17T09:12:51Z</time>
      </trkpt>
      <trkpt lat="47.39475" lon="6.49427">
        <ele>279.6</ele>
        <time>2019-08-17T09:12:52Z</time>
      </trkpt>
      <trkpt lat="47.39472" lon="6.49423">
        <ele>279.7</ele>
        <time>2019-08-17T09:12:53Z</time>
      </trkpt>
      <trkpt lat="47.39468" lon="6.4942">
        <ele>279.8</ele>
        <time>2019-08-17T09:12:54Z</time>
      </trkpt>
      <trkpt lat="47.39463" lon="6.49417">
        <ele>279.9</ele>
        <time>2019-08-17T09:12:55Z</time>
      </trkpt>
      <trkpt lat="47.39458" lon="6.49413">
        <ele>280.1</ele>
        <time>2019-08-17T09:12:56Z</time>
      </trkpt>
      <trkpt lat="47.39454" lon="6.4941">
        <ele>280.2</ele>
        <time>2019-08-17T09:12:57Z</time>
      </trkpt>
      <trkpt lat="47.39449" lon="6.49406">
        <ele>280.5</ele>
        <time>2019-08-17T09:12:58Z</time>
      </trkpt>
      <trkpt lat="47.39445" lon="6.49402">
        <ele>280.7</ele>
        <time>2019-08-17T09:12:59Z</time>
      </trkpt>
      <trkpt lat="47.39441" lon="6.49398">
        <ele>280.9</ele>
        <time>2019-08-17T09:13:00Z</time>
      </trkpt>
      <trkpt lat="47.39437" lon="6.49395">
        <ele>281.3</ele>
        <time>2019-08-17T09:13:01Z</time>
      </trkpt>
      <trkpt lat="47.39433" lon="6.49392">
        <ele>281.6</ele>
        <time>2019-08-17T09:13:02Z</time>
      </trkpt>
      <trkpt lat="47.39428" lon="6.49389">
        <ele>282</ele>
        <time>2019-08-17T09:13:03Z</time>
      </trkpt>
      <trkpt lat="47.39424" lon="6.49386">
        <ele>282.5</ele>
        <time>2019-08-17T09:13:04Z</time>
      </trkpt>
      <trkpt lat="47.39419" lon="6.49384">
        <ele>283</ele>
        <time>2019-08-17T09:13:05Z</time>
      </trkpt>
      <trkpt lat="47.39414" lon="6.49383">
        <ele>283.5</ele>
        <time>2019-08-17T09:13:06Z</time>
      </trkpt>
      <trkpt lat="47.39409" lon="6.49381">
        <ele>284</ele>
        <time>2019-08-17T09:13:07Z</time>
      </trkpt>
      <trkpt lat="47.39405" lon="6.4938">
        <ele>284.4</ele>
        <time>2019-08-17T09:13:08Z</time>
      </trkpt>
      <trkpt lat="47.39401" lon="6.49378">
        <ele>284.8</ele>
        <time>2019-08-17T09:13:09Z</time>
      </trkpt>
      <trkpt lat="47.39397" lon="6.49376">
        <ele>285.2</ele>
        <time>2019-08-17T09:13:10Z</time>
      </trkpt>
      <trkpt lat="47.39394" lon="6.49375">
        <ele>285.4</ele>
        <time>2019-08-17T09:13:11Z</time>
      </trkpt>
      <trkpt lat="47.3939" lon="6.49371">
        <ele>285.7</ele>
        <time>2019-08-17T09:13:13Z</time>
      </trkpt>
      <trkpt lat="47.39392" lon="6.49369">
        <ele>285.8</ele>
        <time>2019-08-17T09:13:24Z</time>
      </trkpt>
      <trkpt lat="47.39395" lon="6.4937">
        <ele>285.9</ele>
        <time>2019-08-17T09:13:25Z</time>
      </trkpt>
      <trkpt lat="47.39394" lon="6.49374">
        <ele>286</ele>
        <time>2019-08-17T09:14:06Z</time>
      </trkpt>
      <trkpt lat="47.39391" lon="6.49372">
        <ele>286.1</ele>
        <time>2019-08-17T09:14:08Z</time>
      </trkpt>
      <trkpt lat="47.39385" lon="6.49373">
        <ele>286.2</ele>
        <time>2019-08-17T09:14:10Z</time>
      </trkpt>
      <trkpt lat="47.39382" lon="6.49374">
        <ele>286.3</ele>
        <time>2019-08-17T09:14:11Z</time>
      </trkpt>
      <trkpt lat="47.39379" lon="6.49374">
        <ele>286.3</ele>
        <time>2019-08-17T09:14:12Z</time>
      </trkpt>
      <trkpt lat="47.39374" lon="6.49375">
        <ele>284.2</ele>
        <time>2019-08-17T09:14:13Z</time>
      </trkpt>
      <trkpt lat="47.3937" lon="6.49376">
        <ele>282.4</ele>
        <time>2019-08-17T09:14:14Z</time>
      </trkpt>
      <trkpt lat="47.39366" lon="6.49376">
        <ele>280.7</ele>
        <time>2019-08-17T09:14:15Z</time>
      </trkpt>
      <trkpt lat="47.39362" lon="6.49377">
        <ele>279.2</ele>
        <time>2019-08-17T09:14:16Z</time>
      </trkpt>
      <trkpt lat="47.39358" lon="6.49377">
        <ele>277.5</ele>
        <time>2019-08-17T09:14:17Z</time>
      </trkpt>
      <trkpt lat="47.39354" lon="6.49376">
        <ele>275.7</ele>
        <time>2019-08-17T09:14:18Z</time>
      </trkpt>
      <trkpt lat="47.39349" lon="6.49377">
        <ele>274.4</ele>
        <time>2019-08-17T09:14:19Z</time>
      </trkpt>
      <trkpt lat="47.39345" lon="6.49376">
        <ele>274.9</ele>
        <time>2019-08-17T09:14:20Z</time>
      </trkpt>
      <trkpt lat="47.3934" lon="6.49375">
        <ele>275.4</ele>
        <time>2019-08-17T09:14:21Z</time>
      </trkpt>
      <trkpt lat="47.39335" lon="6.49377">
        <ele>276</ele>
        <time>2019-08-17T09:14:22Z</time>
      </trkpt>
      <trkpt lat="47.39329" lon="6.49375">
        <ele>276.6</ele>
        <time>2019-08-17T09:14:23Z</time>
      </trkpt>
      <trkpt lat="47.39324" lon="6.49374">
        <ele>277.1</ele>
        <time>2019-08-17T09:14:24Z</time>
      </trkpt>
      <trkpt lat="47.3932" lon="6.49374">
        <ele>277.6</ele>
        <time>2019-08-17T09:14:25Z</time>
      </trkpt>
      <trkpt lat="47.39316" lon="6.49374">
        <ele>277.9</ele>
        <time>2019-08-17T09:14:26Z</time>
      </trkpt>
      <trkpt lat="47.39312" lon="6.49374">
        <ele>278.3</ele>
        <time>2019-08-17T09:14:27Z</time>
      </trkpt>
      <trkpt lat="47.39308" lon="6.49375">
        <ele>278.7</ele>
        <time>2019-08-17T09:14:28Z</time>
      </trkpt>
      <trkpt lat="47.39304" lon="6.49375">
        <ele>279</ele>
        <time>2019-08-17T09:14:29Z</time>
      </trkpt>
      <trkpt lat="47.39299" lon="6.49376">
        <ele>279.4</ele>
        <time>2019-08-17T09:14:30Z</time>
      </trkpt>
      <trkpt lat="47.39295" lon="6.49376">
        <ele>279.8</ele>
        <time>2019-08-17T09:14:31Z</time>
      </trkpt>
      <trkpt lat="47.39291" lon="6.49377">
        <ele>280.1</ele>
        <time>2019-08-17T09:14:32Z</time>
      </trkpt>
      <trkpt lat="47.39287" lon="6.49377">
        <ele>280.4</ele>
        <time>2019-08-17T09:14:33Z</time>
      </trkpt>
      <trkpt lat="47.39283" lon="6.49379">
        <ele>280.8</ele>
        <time>2019-08-17T09:14:34Z</time>
      </trkpt>
      <trkpt lat="47.3928" lon="6.49381">
        <ele>281.1</ele>
        <time>2019-08-17T09:14:35Z</time>
      </trkpt>
      <trkpt lat="47.39276" lon="6.49381">
        <ele>281.2</ele>
        <time>2019-08-17T09:14:36Z</time>
      </trkpt>
      <trkpt lat="47.39271" lon="6.49382">
        <ele>281.2</ele>
        <time>2019-08-17T09:14:37Z</time>
      </trkpt>
      <trkpt lat="47.39268" lon="6.49382">
        <ele>281.1</ele>
        <time>2019-08-17T09:14:38Z</time>
      </trkpt>
      <trkpt lat="47.39264" lon="6.49381">
        <ele>280.8</ele>
        <time>2019-08-17T09:14:39Z</time>
      </trkpt>
      <trkpt lat="47.39259" lon="6.4938">
        <ele>280.6</ele>
        <time>2019-08-17T09:14:40Z</time>
      </trkpt>
      <trkpt lat="47.39254" lon="6.4938">
        <ele>280.3</ele>
        <time>2019-08-17T09:14:41Z</time>
      </trkpt>
      <trkpt lat="47.3925" lon="6.4938">
        <ele>280.1</ele>
        <time>2019-08-17T09:14:42Z</time>
      </trkpt>
      <trkpt lat="47.39246" lon="6.49381">
        <ele>279.9</ele>
        <time>2019-08-17T09:14:43Z</time>
      </trkpt>
      <trkpt lat="47.39243" lon="6.49383">
        <ele>279.7</ele>
        <time>2019-08-17T09:14:44Z</time>
      </trkpt>
      <trkpt lat="47.39239" lon="6.49387">
        <ele>279.5</ele>
        <time>2019-08-17T09:14:45Z</time>
      </trkpt>
      <trkpt lat="47.39235" lon="6.4939">
        <ele>279.2</ele>
        <time>2019-08-17T09:14:46Z</time>
      </trkpt>
      <trkpt lat="47.39231" lon="6.49392">
        <ele>279</ele>
        <time>2019-08-17T09:14:47Z</time>
      </trkpt>
      <trkpt lat="47.39227" lon="6.49395">
        <ele>278.8</ele>
        <time>2019-08-17T09:14:48Z</time>
      </trkpt>
      <trkpt lat="47.39223" lon="6.49398">
        <ele>278.6</ele>
        <time>2019-08-17T09:14:49Z</time>
      </trkpt>
      <trkpt lat="47.3922" lon="6.49401">
        <ele>278.4</ele>
        <time>2019-08-17T09:14:50Z</time>
      </trkpt>
      <trkpt lat="47.39216" lon="6.49405">
        <ele>278.2</ele>
        <time>2019-08-17T09:14:51Z</time>
      </trkpt>
      <trkpt lat="47.39213" lon="6.49409">
        <ele>278</ele>
        <time>2019-08-17T09:14:52Z</time>
      </trkpt>
      <trkpt lat="47.3921" lon="6.49413">
        <ele>277.8</ele>
        <time>2019-08-17T09:14:53Z</time>
      </trkpt>
      <trkpt lat="47.39207" lon="6.49417">
        <ele>277.7</ele>
        <time>2019-08-17T09:14:54Z</time>
      </trkpt>
      <trkpt lat="47.39205" lon="6.49421">
        <ele>277.5</ele>
        <time>2019-08-17T09:14:55Z</time>
      </trkpt>
      <trkpt lat="47.39202" lon="6.49424">
        <ele>277.4</ele>
        <time>2019-08-17T09:14:56Z</time>
      </trkpt>
      <trkpt lat="47.39199" lon="6.49428">
        <ele>277.2</ele>
        <time>2019-08-17T09:14:57Z</time>
      </trkpt>
      <trkpt lat="47.39196" lon="6.4943">
        <ele>277</ele>
        <time>2019-08-17T09:14:58Z</time>
      </trkpt>
      <trkpt lat="47.39193" lon="6.49435">
        <ele>276.8</ele>
        <time>2019-08-17T09:15:00Z</time>
      </trkpt>
      <trkpt lat="47.39189" lon="6.49439">
        <ele>276.7</ele>
        <time>2019-08-17T09:15:02Z</time>
      </trkpt>
      <trkpt lat="47.3919" lon="6.49443">
        <ele>276.3</ele>
        <time>2019-08-17T09:15:03Z</time>
      </trkpt>
      <trkpt lat="47.39189" lon="6.49447">
        <ele>275.9</ele>
        <time>2019-08-17T09:15:04Z</time>
      </trkpt>
      <trkpt lat="47.39188" lon="6.49451">
        <ele>275.5</ele>
        <time>2019-08-17T09:15:05Z</time>
      </trkpt>
      <trkpt lat="47.39186" lon="6.49457">
        <ele>274.9</ele>
        <time>2019-08-17T09:15:07Z</time>
      </trkpt>
      <trkpt lat="47.39184" lon="6.49463">
        <ele>274.2</ele>
        <time>2019-08-17T09:15:09Z</time>
      </trkpt>
      <trkpt lat="47.39182" lon="6.49468">
        <ele>274.4</ele>
        <time>2019-08-17T09:15:11Z</time>
      </trkpt>
      <trkpt lat="47.39182" lon="6.49463">
        <ele>274.7</ele>
        <time>2019-08-17T09:15:22Z</time>
      </trkpt>
      <trkpt lat="47.3918" lon="6.49469">
        <ele>274.9</ele>
        <time>2019-08-17T09:15:35Z</time>
      </trkpt>
      <trkpt lat="47.39182" lon="6.49472">
        <ele>275.1</ele>
        <time>2019-08-17T09:15:36Z</time>
      </trkpt>
      <trkpt lat="47.39187" lon="6.49477">
        <ele>275.4</ele>
        <time>2019-08-17T09:15:38Z</time>
      </trkpt>
      <trkpt lat="47.39191" lon="6.49481">
        <ele>275.6</ele>
        <time>2019-08-17T09:15:40Z</time>
      </trkpt>
      <trkpt lat="47.39192" lon="6.49486">
        <ele>275.7</ele>
        <time>2019-08-17T09:15:41Z</time>
      </trkpt>
      <trkpt lat="47.39195" lon="6.4949">
        <ele>275.8</ele>
        <time>2019-08-17T09:15:42Z</time>
      </trkpt>
      <trkpt lat="47.39198" lon="6.49495">
        <ele>275.8</ele>
        <time>2019-08-17T09:15:43Z</time>
      </trkpt>
      <trkpt lat="47.39201" lon="6.49499">
        <ele>275.9</ele>
        <time>2019-08-17T09:15:44Z</time>
      </trkpt>
      <trkpt lat="47.39204" lon="6.49504">
        <ele>275.9</ele>
        <time>2019-08-17T09:15:45Z</time>
      </trkpt>
      <trkpt lat="47.39206" lon="6.49509">
        <ele>275.9</ele>
        <time>2019-08-17T09:15:46Z</time>
      </trkpt>
      <trkpt lat="47.39208" lon="6.49514">
        <ele>275.9</ele>
        <time>2019-08-17T09:15:47Z</time>
      </trkpt>
      <trkpt lat="47.39211" lon="6.49518">
        <ele>275.9</ele>
        <time>2019-08-17T09:15:48Z</time>
      </trkpt>
      <trkpt lat="47.39214" lon="6.49522">
        <ele>275.9</ele>
        <time>2019-08-17T09:15:49Z</time>
      </trkpt>
      <trkpt lat="47.39215" lon="6.49526">
        <ele>275.9</ele>
        <time>2019-08-17T09:15:50Z</time>
      </trkpt>
      <trkpt lat="47.39217" lon="6.4953">
        <ele>275.9</ele>
        <time>2019-08-17T09:15:51Z</time>
      </trkpt>
      <trkpt lat="47.39219" lon="6.49534">
        <ele>275.9</ele>
        <time>2019-08-17T09:15:52Z</time>
      </trkpt>
      <trkpt lat="47.39221" lon="6.49539">
        <ele>275.9</ele>
        <time>2019-08-17T09:15:53Z</time>
      </trkpt>
      <trkpt lat="47.39224" lon="6.49544">
        <ele>275.8</ele>
        <time>2019-08-17T09:15:54Z</time>
      </trkpt>
      <trkpt lat="47.39228" lon="6.4955">
        <ele>275.8</ele>
        <time>2019-08-17T09:15:55Z</time>
      </trkpt>
      <trkpt lat="47.39231" lon="6.49555">
        <ele>275.7</ele>
        <time>2019-08-17T09:15:56Z</time>
      </trkpt>
      <trkpt lat="47.39234" lon="6.4956">
        <ele>275.7</ele>
        <time>2019-08-17T09:15:57Z</time>
      </trkpt>
      <trkpt lat="47.39237" lon="6.49565">
        <ele>275.6</ele>
        <time>2019-08-17T09:15:58Z</time>
      </trkpt>
      <trkpt lat="47.39239" lon="6.49569">
        <ele>276.1</ele>
        <time>2019-08-17T09:15:59Z</time>
      </trkpt>
      <trkpt lat="47.39242" lon="6.49573">
        <ele>276.2</ele>
        <time>2019-08-17T09:16:00Z</time>
      </trkpt>
      <trkpt lat="47.39243" lon="6.49576">
        <ele>276.4</ele>
        <time>2019-08-17T09:16:01Z</time>
      </trkpt>
      <trkpt lat="47.39245" lon="6.4958">
        <ele>276.6</ele>
        <time>2019-08-17T09:16:02Z</time>
      </trkpt>
      <trkpt lat="47.39247" lon="6.49584">
        <ele>276.8</ele>
        <time>2019-08-17T09:16:03Z</time>
      </trkpt>
      <trkpt lat="47.3925" lon="6.49588">
        <ele>277</ele>
        <time>2019-08-17T09:16:04Z</time>
      </trkpt>
      <trkpt lat="47.39253" lon="6.49593">
        <ele>277.2</ele>
        <time>2019-08-17T09:16:05Z</time>
      </trkpt>
      <trkpt lat="47.39254" lon="6.49597">
        <ele>277.4</ele>
        <time>2019-08-17T09:16:06Z</time>
      </trkpt>
      <trkpt lat="47.39256" lon="6.49601">
        <ele>277.6</ele>
        <time>2019-08-17T09:16:07Z</time>
      </trkpt>
      <trkpt lat="47.39259" lon="6.49606">
        <ele>277.8</ele>
        <time>2019-08-17T09:16:08Z</time>
      </trkpt>
      <trkpt lat="47.39261" lon="6.49609">
        <ele>278</ele>
        <time>2019-08-17T09:16:09Z</time>
      </trkpt>
      <trkpt lat="47.39265" lon="6.49612">
        <ele>278.3</ele>
        <time>2019-08-17T09:16:10Z</time>
      </trkpt>
      <trkpt lat="47.39267" lon="6.49616">
        <ele>278.5</ele>
        <time>2019-08-17T09:16:11Z</time>
      </trkpt>
      <trkpt lat="47.3927" lon="6.4962">
        <ele>278.8</ele>
        <time>2019-08-17T09:16:12Z</time>
      </trkpt>
      <trkpt lat="47.39273" lon="6.49624">
        <ele>279</ele>
        <time>2019-08-17T09:16:13Z</time>
      </trkpt>
      <trkpt lat="47.39275" lon="6.49628">
        <ele>279.3</ele>
        <time>2019-08-17T09:16:14Z</time>
      </trkpt>
      <trkpt lat="47.39278" lon="6.49632">
        <ele>279.6</ele>
        <time>2019-08-17T09:16:15Z</time>
      </trkpt>
      <trkpt lat="47.3928" lon="6.49635">
        <ele>279.8</ele>
        <time>2019-08-17T09:16:16Z</time>
      </trkpt>
      <trkpt lat="47.39284" lon="6.49642">
        <ele>280.3</ele>
        <time>2019-08-17T09:16:18Z</time>
      </trkpt>
      <trkpt lat="47.39286" lon="6.49646">
        <ele>280.6</ele>
        <time>2019-08-17T09:16:19Z</time>
      </trkpt>
      <trkpt lat="47.39288" lon="6.4965">
        <ele>281.1</ele>
        <time>2019-08-17T09:16:20Z</time>
      </trkpt>
      <trkpt lat="47.3929" lon="6.49654">
        <ele>281.5</ele>
        <time>2019-08-17T09:16:21Z</time>
      </trkpt>
      <trkpt lat="47.39295" lon="6.49659">
        <ele>282</ele>
        <time>2019-08-17T09:16:23Z</time>
      </trkpt>
      <trkpt lat="47.39298" lon="6.49662">
        <ele>282.3</ele>
        <time>2019-08-17T09:16:24Z</time>
      </trkpt>
      <trkpt lat="47.39301" lon="6.49666">
        <ele>282.6</ele>
        <time>2019-08-17T09:16:25Z</time>
      </trkpt>
      <trkpt lat="47.39304" lon="6.49669">
        <ele>283.2</ele>
        <time>2019-08-17T09:16:26Z</time>
      </trkpt>
      <trkpt lat="47.39306" lon="6.49678">
        <ele>283.4</ele>
        <time>2019-08-17T09:16:28Z</time>
      </trkpt>
      <trkpt lat="47.39305" lon="6.49683">
        <ele>283.5</ele>
        <time>2019-08-17T09:16:30Z</time>
      </trkpt>
      <trkpt lat="47.39304" lon="6.49687">
        <ele>283.9</ele>
        <time>2019-08-17T09:16:31Z</time>
      </trkpt>
      <trkpt lat="47.39301" lon="6.49691">
        <ele>284.1</ele>
        <time>2019-08-17T09:16:32Z</time>
      </trkpt>
      <trkpt lat="47.39299" lon="6.49694">
        <ele>284.3</ele>
        <time>2019-08-17T09:16:33Z</time>
      </trkpt>
      <trkpt lat="47.39295" lon="6.49697">
        <ele>284.5</ele>
        <time>2019-08-17T09:16:34Z</time>
      </trkpt>
      <trkpt lat="47.39292" lon="6.49699">
        <ele>284.7</ele>
        <time>2019-08-17T09:16:35Z</time>
      </trkpt>
      <trkpt lat="47.39289" lon="6.49702">
        <ele>284.8</ele>
        <time>2019-08-17T09:16:36Z</time>
      </trkpt>
      <trkpt lat="47.39287" lon="6.49705">
        <ele>285</ele>
        <time>2019-08-17T09:16:37Z</time>
      </trkpt>
      <trkpt lat="47.39284" lon="6.49709">
        <ele>285.2</ele>
        <time>2019-08-17T09:16:38Z</time>
      </trkpt>
      <trkpt lat="47.39281" lon="6.49713">
        <ele>285.4</ele>
        <time>2019-08-17T09:16:39Z</time>
      </trkpt>
      <trkpt lat="47.39279" lon="6.49717">
        <ele>285.7</ele>
        <time>2019-08-17T09:16:40Z</time>
      </trkpt>
      <trkpt lat="47.39277" lon="6.49722">
        <ele>285.9</ele>
        <time>2019-08-17T09:16:41Z</time>
      </trkpt>
      <trkpt lat="47.39276" lon="6.49725">
        <ele>286.1</ele>
        <time>2019-08-17T09:16:42Z</time>
      </trkpt>
      <trkpt lat="47.39274" lon="6.49729">
        <ele>286.4</ele>
        <time>2019-08-17T09:16:43Z</time>
      </trkpt>
      <trkpt lat="47.39273" lon="6.49733">
        <ele>286.7</ele>
        <time>2019-08-17T09:16:44Z</time>
      </trkpt>
      <trkpt lat="47.39271" lon="6.49736">
        <ele>286.8</ele>
        <time>2019-08-17T09:16:45Z</time>
      </trkpt>
      <trkpt lat="47.39269" lon="6.49739">
        <ele>287</ele>
        <time>2019-08-17T09:16:46Z</time>
      </trkpt>
      <trkpt lat="47.39267" lon="6.49742">
        <ele>287.2</ele>
        <time>2019-08-17T09:16:47Z</time>
      </trkpt>
      <trkpt lat="47.39265" lon="6.49745">
        <ele>287.4</ele>
        <time>2019-08-17T09:16:48Z</time>
      </trkpt>
      <trkpt lat="47.39263" lon="6.49748">
        <ele>287.6</ele>
        <time>2019-08-17T09:16:49Z</time>
      </trkpt>
      <trkpt lat="47.39261" lon="6.49751">
        <ele>287.8</ele>
        <time>2019-08-17T09:16:50Z</time>
      </trkpt>
      <trkpt lat="47.39259" lon="6.49755">
        <ele>288</ele>
        <time>2019-08-17T09:16:51Z</time>
      </trkpt>
      <trkpt lat="47.39256" lon="6.49759">
        <ele>288.2</ele>
        <time>2019-08-17T09:16:52Z</time>
      </trkpt>
      <trkpt lat="47.39254" lon="6.49762">
        <ele>288.4</ele>
        <time>2019-08-17T09:16:53Z</time>
      </trkpt>
      <trkpt lat="47.39251" lon="6.49767">
        <ele>288.6</ele>
        <time>2019-08-17T09:16:54Z</time>
      </trkpt>
      <trkpt lat="47.39249" lon="6.4977">
        <ele>288.7</ele>
        <time>2019-08-17T09:16:55Z</time>
      </trkpt>
      <trkpt lat="47.39245" lon="6.49772">
        <ele>288.9</ele>
        <time>2019-08-17T09:16:56Z</time>
      </trkpt>
      <trkpt lat="47.39242" lon="6.49777">
        <ele>289.1</ele>
        <time>2019-08-17T09:16:57Z</time>
      </trkpt>
      <trkpt lat="47.39239" lon="6.4978">
        <ele>289.2</ele>
        <time>2019-08-17T09:16:58Z</time>
      </trkpt>
      <trkpt lat="47.39236" lon="6.49783">
        <ele>289.4</ele>
        <time>2019-08-17T09:16:59Z</time>
      </trkpt>
      <trkpt lat="47.39234" lon="6.49787">
        <ele>289.5</ele>
        <time>2019-08-17T09:17:00Z</time>
      </trkpt>
      <trkpt lat="47.39233" lon="6.49791">
        <ele>289.6</ele>
        <time>2019-08-17T09:17:01Z</time>
      </trkpt>
      <trkpt lat="47.39231" lon="6.49795">
        <ele>289.7</ele>
        <time>2019-08-17T09:17:02Z</time>
      </trkpt>
      <trkpt lat="47.3923" lon="6.49799">
        <ele>289.9</ele>
        <time>2019-08-17T09:17:03Z</time>
      </trkpt>
      <trkpt lat="47.39229" lon="6.49803">
        <ele>289.9</ele>
        <time>2019-08-17T09:17:04Z</time>
      </trkpt>
      <trkpt lat="47.39228" lon="6.49807">
        <ele>289.9</ele>
        <time>2019-08-17T09:17:05Z</time>
      </trkpt>
      <trkpt lat="47.39226" lon="6.49814">
        <ele>289.8</ele>
        <time>2019-08-17T09:17:07Z</time>
      </trkpt>
      <trkpt lat="47.39224" lon="6.49817">
        <ele>289.8</ele>
        <time>2019-08-17T09:17:08Z</time>
      </trkpt>
      <trkpt lat="47.39222" lon="6.49821">
        <ele>289.8</ele>
        <time>2019-08-17T09:17:09Z</time>
      </trkpt>
      <trkpt lat="47.39219" lon="6.49823">
        <ele>289.8</ele>
        <time>2019-08-17T09:17:10Z</time>
      </trkpt>
      <trkpt lat="47.39218" lon="6.49827">
        <ele>289.7</ele>
        <time>2019-08-17T09:17:11Z</time>
      </trkpt>
      <trkpt lat="47.39214" lon="6.4983">
        <ele>289.7</ele>
        <time>2019-08-17T09:17:12Z</time>
      </trkpt>
      <trkpt lat="47.3921" lon="6.49833">
        <ele>289.6</ele>
        <time>2019-08-17T09:17:13Z</time>
      </trkpt>
      <trkpt lat="47.39208" lon="6.49837">
        <ele>289.6</ele>
        <time>2019-08-17T09:17:14Z</time>
      </trkpt>
      <trkpt lat="47.39206" lon="6.4984">
        <ele>289.6</ele>
        <time>2019-08-17T09:17:15Z</time>
      </trkpt>
      <trkpt lat="47.39204" lon="6.49843">
        <ele>289.6</ele>
        <time>2019-08-17T09:17:16Z</time>
      </trkpt>
      <trkpt lat="47.39201" lon="6.49846">
        <ele>289.5</ele>
        <time>2019-08-17T09:17:17Z</time>
      </trkpt>
      <trkpt lat="47.39198" lon="6.49849">
        <ele>289.5</ele>
        <time>2019-08-17T09:17:18Z</time>
      </trkpt>
      <trkpt lat="47.39196" lon="6.49852">
        <ele>289.6</ele>
        <time>2019-08-17T09:17:19Z</time>
      </trkpt>
      <trkpt lat="47.39194" lon="6.49854">
        <ele>289.6</ele>
        <time>2019-08-17T09:17:20Z</time>
      </trkpt>
      <trkpt lat="47.39189" lon="6.49858">
        <ele>289.7</ele>
        <time>2019-08-17T09:17:22Z</time>
      </trkpt>
      <trkpt lat="47.39185" lon="6.49861">
        <ele>289.7</ele>
        <time>2019-08-17T09:17:24Z</time>
      </trkpt>
      <trkpt lat="47.39182" lon="6.49865">
        <ele>289.8</ele>
        <time>2019-08-17T09:17:26Z</time>
      </trkpt>
      <trkpt lat="47.39178" lon="6.49868">
        <ele>289.9</ele>
        <time>2019-08-17T09:17:28Z</time>
      </trkpt>
      <trkpt lat="47.39176" lon="6.49873">
        <ele>290</ele>
        <time>2019-08-17T09:17:30Z</time>
      </trkpt>
      <trkpt lat="47.39172" lon="6.49878">
        <ele>290</ele>
        <time>2019-08-17T09:17:32Z</time>
      </trkpt>
      <trkpt lat="47.39168" lon="6.49881">
        <ele>290.2</ele>
        <time>2019-08-17T09:17:34Z</time>
      </trkpt>
      <trkpt lat="47.39163" lon="6.49886">
        <ele>290.3</ele>
        <time>2019-08-17T09:17:36Z</time>
      </trkpt>
      <trkpt lat="47.39159" lon="6.4989">
        <ele>290.4</ele>
        <time>2019-08-17T09:17:38Z</time>
      </trkpt>
      <trkpt lat="47.39156" lon="6.49892">
        <ele>290.5</ele>
        <time>2019-08-17T09:17:39Z</time>
      </trkpt>
      <trkpt lat="47.39154" lon="6.49895">
        <ele>290.5</ele>
        <time>2019-08-17T09:17:40Z</time>
      </trkpt>
      <trkpt lat="47.39151" lon="6.49897">
        <ele>290.6</ele>
        <time>2019-08-17T09:17:41Z</time>
      </trkpt>
      <trkpt lat="47.39148" lon="6.499">
        <ele>290.7</ele>
        <time>2019-08-17T09:17:42Z</time>
      </trkpt>
      <trkpt lat="47.39146" lon="6.49902">
        <ele>290.8</ele>
        <time>2019-08-17T09:17:43Z</time>
      </trkpt>
      <trkpt lat="47.39143" lon="6.49905">
        <ele>290.8</ele>
        <time>2019-08-17T09:17:44Z</time>
      </trkpt>
      <trkpt lat="47.39139" lon="6.49909">
        <ele>291</ele>
        <time>2019-08-17T09:17:46Z</time>
      </trkpt>
      <trkpt lat="47.39135" lon="6.49914">
        <ele>291.1</ele>
        <time>2019-08-17T09:17:48Z</time>
      </trkpt>
      <trkpt lat="47.39133" lon="6.49916">
        <ele>291.2</ele>
        <time>2019-08-17T09:17:49Z</time>
      </trkpt>
      <trkpt lat="47.3913" lon="6.49918">
        <ele>291.2</ele>
        <time>2019-08-17T09:17:50Z</time>
      </trkpt>
      <trkpt lat="47.39128" lon="6.4992">
        <ele>291.3</ele>
        <time>2019-08-17T09:17:51Z</time>
      </trkpt>
      <trkpt lat="47.39125" lon="6.49922">
        <ele>291.4</ele>
        <time>2019-08-17T09:17:52Z</time>
      </trkpt>
      <trkpt lat="47.39123" lon="6.49924">
        <ele>291.5</ele>
        <time>2019-08-17T09:17:53Z</time>
      </trkpt>
      <trkpt lat="47.3912" lon="6.49927">
        <ele>291.6</ele>
        <time>2019-08-17T09:17:54Z</time>
      </trkpt>
      <trkpt lat="47.39118" lon="6.4993">
        <ele>291.7</ele>
        <time>2019-08-17T09:17:55Z</time>
      </trkpt>
      <trkpt lat="47.39116" lon="6.49932">
        <ele>291.9</ele>
        <time>2019-08-17T09:17:56Z</time>
      </trkpt>
      <trkpt lat="47.39113" lon="6.49935">
        <ele>292</ele>
        <time>2019-08-17T09:17:57Z</time>
      </trkpt>
      <trkpt lat="47.39111" lon="6.49938">
        <ele>292.2</ele>
        <time>2019-08-17T09:17:58Z</time>
      </trkpt>
      <trkpt lat="47.39108" lon="6.4994">
        <ele>292.3</ele>
        <time>2019-08-17T09:17:59Z</time>
      </trkpt>
      <trkpt lat="47.39104" lon="6.49943">
        <ele>292.5</ele>
        <time>2019-08-17T09:18:01Z</time>
      </trkpt>
      <trkpt lat="47.39099" lon="6.49948">
        <ele>292.8</ele>
        <time>2019-08-17T09:18:03Z</time>
      </trkpt>
      <trkpt lat="47.39097" lon="6.4995">
        <ele>293</ele>
        <time>2019-08-17T09:18:04Z</time>
      </trkpt>
      <trkpt lat="47.39095" lon="6.49952">
        <ele>293.1</ele>
        <time>2019-08-17T09:18:05Z</time>
      </trkpt>
      <trkpt lat="47.39091" lon="6.49955">
        <ele>293.3</ele>
        <time>2019-08-17T09:18:07Z</time>
      </trkpt>
      <trkpt lat="47.39088" lon="6.49957">
        <ele>293.4</ele>
        <time>2019-08-17T09:18:08Z</time>
      </trkpt>
      <trkpt lat="47.39083" lon="6.4996">
        <ele>293.7</ele>
        <time>2019-08-17T09:18:10Z</time>
      </trkpt>
      <trkpt lat="47.3908" lon="6.49961">
        <ele>293.8</ele>
        <time>2019-08-17T09:18:11Z</time>
      </trkpt>
      <trkpt lat="47.39075" lon="6.49965">
        <ele>294.1</ele>
        <time>2019-08-17T09:18:13Z</time>
      </trkpt>
      <trkpt lat="47.39072" lon="6.49966">
        <ele>294.2</ele>
        <time>2019-08-17T09:18:14Z</time>
      </trkpt>
      <trkpt lat="47.3907" lon="6.49969">
        <ele>294.3</ele>
        <time>2019-08-17T09:18:15Z</time>
      </trkpt>
      <trkpt lat="47.39066" lon="6.49974">
        <ele>294.5</ele>
        <time>2019-08-17T09:18:17Z</time>
      </trkpt>
      <trkpt lat="47.39063" lon="6.49977">
        <ele>294.7</ele>
        <time>2019-08-17T09:18:18Z</time>
      </trkpt>
      <trkpt lat="47.39061" lon="6.49979">
        <ele>294.8</ele>
        <time>2019-08-17T09:18:19Z</time>
      </trkpt>
      <trkpt lat="47.39058" lon="6.49983">
        <ele>294.9</ele>
        <time>2019-08-17T09:18:20Z</time>
      </trkpt>
      <trkpt lat="47.39056" lon="6.49985">
        <ele>295</ele>
        <time>2019-08-17T09:18:21Z</time>
      </trkpt>
      <trkpt lat="47.39052" lon="6.49988">
        <ele>295.2</ele>
        <time>2019-08-17T09:18:22Z</time>
      </trkpt>
      <trkpt lat="47.39049" lon="6.4999">
        <ele>295.3</ele>
        <time>2019-08-17T09:18:23Z</time>
      </trkpt>
      <trkpt lat="47.39047" lon="6.49991">
        <ele>295.4</ele>
        <time>2019-08-17T09:18:24Z</time>
      </trkpt>
      <trkpt lat="47.39042" lon="6.49995">
        <ele>295.6</ele>
        <time>2019-08-17T09:18:26Z</time>
      </trkpt>
      <trkpt lat="47.39039" lon="6.49996">
        <ele>295.7</ele>
        <time>2019-08-17T09:18:27Z</time>
      </trkpt>
      <trkpt lat="47.39034" lon="6.49998">
        <ele>295.9</ele>
        <time>2019-08-17T09:18:28Z</time>
      </trkpt>
      <trkpt lat="47.39031" lon="6.5">
        <ele>296</ele>
        <time>2019-08-17T09:18:29Z</time>
      </trkpt>
      <trkpt lat="47.39026" lon="6.50005">
        <ele>296.3</ele>
        <time>2019-08-17T09:18:31Z</time>
      </trkpt>
      <trkpt lat="47.39025" lon="6.50012">
        <ele>296.5</ele>
        <time>2019-08-17T09:18:33Z</time>
      </trkpt>
      <trkpt lat="47.39021" lon="6.50017">
        <ele>296.7</ele>
        <time>2019-08-17T09:18:35Z</time>
      </trkpt>
      <trkpt lat="47.39017" lon="6.50016">
        <ele>296.9</ele>
        <time>2019-08-17T09:18:37Z</time>
      </trkpt>
      <trkpt lat="47.39013" lon="6.50019">
        <ele>297.1</ele>
        <time>2019-08-17T09:18:39Z</time>
      </trkpt>
      <trkpt lat="47.3901" lon="6.50022">
        <ele>297.2</ele>
        <time>2019-08-17T09:18:40Z</time>
      </trkpt>
      <trkpt lat="47.39007" lon="6.50024">
        <ele>297.3</ele>
        <time>2019-08-17T09:18:41Z</time>
      </trkpt>
      <trkpt lat="47.39005" lon="6.50027">
        <ele>297.4</ele>
        <time>2019-08-17T09:18:42Z</time>
      </trkpt>
      <trkpt lat="47.39002" lon="6.50029">
        <ele>297.6</ele>
        <time>2019-08-17T09:18:43Z</time>
      </trkpt>
      <trkpt lat="47.38999" lon="6.50035">
        <ele>297.8</ele>
        <time>2019-08-17T09:18:45Z</time>
      </trkpt>
      <trkpt lat="47.38996" lon="6.50038">
        <ele>297.9</ele>
        <time>2019-08-17T09:18:46Z</time>
      </trkpt>
      <trkpt lat="47.38994" lon="6.5004">
        <ele>298</ele>
        <time>2019-08-17T09:18:47Z</time>
      </trkpt>
      <trkpt lat="47.38991" lon="6.50043">
        <ele>298.1</ele>
        <time>2019-08-17T09:18:48Z</time>
      </trkpt>
      <trkpt lat="47.38988" lon="6.50045">
        <ele>298.3</ele>
        <time>2019-08-17T09:18:49Z</time>
      </trkpt>
      <trkpt lat="47.38985" lon="6.50047">
        <ele>298.4</ele>
        <time>2019-08-17T09:18:50Z</time>
      </trkpt>
      <trkpt lat="47.38983" lon="6.50051">
        <ele>298.6</ele>
        <time>2019-08-17T09:18:52Z</time>
      </trkpt>
      <trkpt lat="47.38981" lon="6.50055">
        <ele>298.7</ele>
        <time>2019-08-17T09:18:53Z</time>
      </trkpt>
      <trkpt lat="47.38979" lon="6.50058">
        <ele>298.8</ele>
        <time>2019-08-17T09:18:54Z</time>
      </trkpt>
      <trkpt lat="47.38977" lon="6.50062">
        <ele>298.9</ele>
        <time>2019-08-17T09:18:55Z</time>
      </trkpt>
      <trkpt lat="47.38975" lon="6.50065">
        <ele>299.1</ele>
        <time>2019-08-17T09:18:56Z</time>
      </trkpt>
      <trkpt lat="47.38973" lon="6.50068">
        <ele>299.2</ele>
        <time>2019-08-17T09:18:57Z</time>
      </trkpt>
      <trkpt lat="47.38971" lon="6.50072">
        <ele>299.3</ele>
        <time>2019-08-17T09:18:58Z</time>
      </trkpt>
      <trkpt lat="47.38968" lon="6.50071">
        <ele>299.5</ele>
        <time>2019-08-17T09:19:00Z</time>
      </trkpt>
      <trkpt lat="47.38967" lon="6.50075">
        <ele>299.6</ele>
        <time>2019-08-17T09:19:01Z</time>
      </trkpt>
      <trkpt lat="47.38966" lon="6.50079">
        <ele>299.7</ele>
        <time>2019-08-17T09:19:02Z</time>
      </trkpt>
      <trkpt lat="47.38964" lon="6.50084">
        <ele>299.8</ele>
        <time>2019-08-17T09:19:03Z</time>
      </trkpt>
      <trkpt lat="47.38963" lon="6.50088">
        <ele>300</ele>
        <time>2019-08-17T09:19:04Z</time>
      </trkpt>
      <trkpt lat="47.38961" lon="6.50093">
        <ele>300.1</ele>
        <time>2019-08-17T09:19:05Z</time>
      </trkpt>
      <trkpt lat="47.38959" lon="6.50097">
        <ele>300.3</ele>
        <time>2019-08-17T09:19:06Z</time>
      </trkpt>
      <trkpt lat="47.38957" lon="6.50101">
        <ele>300.4</ele>
        <time>2019-08-17T09:19:07Z</time>
      </trkpt>
      <trkpt lat="47.38955" lon="6.50105">
        <ele>300.5</ele>
        <time>2019-08-17T09:19:08Z</time>
      </trkpt>
      <trkpt lat="47.38954" lon="6.50109">
        <ele>300.7</ele>
        <time>2019-08-17T09:19:09Z</time>
      </trkpt>
      <trkpt lat="47.38952" lon="6.50113">
        <ele>300.8</ele>
        <time>2019-08-17T09:19:10Z</time>
      </trkpt>
      <trkpt lat="47.38949" lon="6.50121">
        <ele>301</ele>
        <time>2019-08-17T09:19:12Z</time>
      </trkpt>
      <trkpt lat="47.38947" lon="6.50124">
        <ele>301</ele>
        <time>2019-08-17T09:19:13Z</time>
      </trkpt>
      <trkpt lat="47.38945" lon="6.50127">
        <ele>301.1</ele>
        <time>2019-08-17T09:19:14Z</time>
      </trkpt>
      <trkpt lat="47.38941" lon="6.5013">
        <ele>301.1</ele>
        <time>2019-08-17T09:19:15Z</time>
      </trkpt>
      <trkpt lat="47.38937" lon="6.50136">
        <ele>301.1</ele>
        <time>2019-08-17T09:19:17Z</time>
      </trkpt>
      <trkpt lat="47.38934" lon="6.50139">
        <ele>301</ele>
        <time>2019-08-17T09:19:18Z</time>
      </trkpt>
      <trkpt lat="47.3893" lon="6.50142">
        <ele>301</ele>
        <time>2019-08-17T09:19:19Z</time>
      </trkpt>
      <trkpt lat="47.38927" lon="6.50146">
        <ele>300.1</ele>
        <time>2019-08-17T09:19:20Z</time>
      </trkpt>
      <trkpt lat="47.38921" lon="6.50147">
        <ele>299.8</ele>
        <time>2019-08-17T09:19:21Z</time>
      </trkpt>
      <trkpt lat="47.38916" lon="6.5015">
        <ele>299.6</ele>
        <time>2019-08-17T09:19:22Z</time>
      </trkpt>
      <trkpt lat="47.38913" lon="6.50152">
        <ele>299.5</ele>
        <time>2019-08-17T09:19:23Z</time>
      </trkpt>
      <trkpt lat="47.38909" lon="6.50155">
        <ele>299.3</ele>
        <time>2019-08-17T09:19:24Z</time>
      </trkpt>
      <trkpt lat="47.38906" lon="6.50158">
        <ele>299.2</ele>
        <time>2019-08-17T09:19:25Z</time>
      </trkpt>
      <trkpt lat="47.38902" lon="6.5016">
        <ele>299.1</ele>
        <time>2019-08-17T09:19:26Z</time>
      </trkpt>
      <trkpt lat="47.38899" lon="6.50162">
        <ele>298.9</ele>
        <time>2019-08-17T09:19:27Z</time>
      </trkpt>
      <trkpt lat="47.38895" lon="6.50165">
        <ele>298.8</ele>
        <time>2019-08-17T09:19:28Z</time>
      </trkpt>
      <trkpt lat="47.38892" lon="6.50168">
        <ele>298.6</ele>
        <time>2019-08-17T09:19:29Z</time>
      </trkpt>
      <trkpt lat="47.38888" lon="6.50172">
        <ele>298.5</ele>
        <time>2019-08-17T09:19:30Z</time>
      </trkpt>
      <trkpt lat="47.38885" lon="6.50175">
        <ele>298.3</ele>
        <time>2019-08-17T09:19:31Z</time>
      </trkpt>
      <trkpt lat="47.38881" lon="6.50178">
        <ele>298.1</ele>
        <time>2019-08-17T09:19:32Z</time>
      </trkpt>
      <trkpt lat="47.38877" lon="6.5018">
        <ele>297.9</ele>
        <time>2019-08-17T09:19:33Z</time>
      </trkpt>
      <trkpt lat="47.38873" lon="6.50183">
        <ele>297.7</ele>
        <time>2019-08-17T09:19:34Z</time>
      </trkpt>
      <trkpt lat="47.38869" lon="6.50185">
        <ele>297.5</ele>
        <time>2019-08-17T09:19:35Z</time>
      </trkpt>
      <trkpt lat="47.38865" lon="6.50186">
        <ele>297.3</ele>
        <time>2019-08-17T09:19:36Z</time>
      </trkpt>
      <trkpt lat="47.38861" lon="6.50188">
        <ele>297.1</ele>
        <time>2019-08-17T09:19:37Z</time>
      </trkpt>
      <trkpt lat="47.38856" lon="6.50188">
        <ele>296.9</ele>
        <time>2019-08-17T09:19:38Z</time>
      </trkpt>
      <trkpt lat="47.38851" lon="6.5019">
        <ele>296.6</ele>
        <time>2019-08-17T09:19:39Z</time>
      </trkpt>
      <trkpt lat="47.38845" lon="6.50191">
        <ele>296.3</ele>
        <time>2019-08-17T09:19:40Z</time>
      </trkpt>
      <trkpt lat="47.38839" lon="6.50191">
        <ele>296.3</ele>
        <time>2019-08-17T09:19:41Z</time>
      </trkpt>
      <trkpt lat="47.38833" lon="6.50193">
        <ele>296.2</ele>
        <time>2019-08-17T09:19:42Z</time>
      </trkpt>
      <trkpt lat="47.38826" lon="6.50195">
        <ele>296.2</ele>
        <time>2019-08-17T09:19:43Z</time>
      </trkpt>
      <trkpt lat="47.3882" lon="6.50197">
        <ele>296.1</ele>
        <time>2019-08-17T09:19:44Z</time>
      </trkpt>
      <trkpt lat="47.38812" lon="6.502">
        <ele>296</ele>
        <time>2019-08-17T09:19:45Z</time>
      </trkpt>
      <trkpt lat="47.38805" lon="6.50204">
        <ele>295.9</ele>
        <time>2019-08-17T09:19:46Z</time>
      </trkpt>
      <trkpt lat="47.38798" lon="6.50209">
        <ele>295.8</ele>
        <time>2019-08-17T09:19:47Z</time>
      </trkpt>
      <trkpt lat="47.38791" lon="6.50214">
        <ele>295.6</ele>
        <time>2019-08-17T09:19:48Z</time>
      </trkpt>
      <trkpt lat="47.38784" lon="6.50219">
        <ele>295.5</ele>
        <time>2019-08-17T09:19:49Z</time>
      </trkpt>
      <trkpt lat="47.38777" lon="6.50224">
        <ele>295.4</ele>
        <time>2019-08-17T09:19:50Z</time>
      </trkpt>
      <trkpt lat="47.3877" lon="6.5023">
        <ele>295.3</ele>
        <time>2019-08-17T09:19:51Z</time>
      </trkpt>
      <trkpt lat="47.38763" lon="6.50235">
        <ele>295.1</ele>
        <time>2019-08-17T09:19:52Z</time>
      </trkpt>
      <trkpt lat="47.38757" lon="6.5024">
        <ele>295</ele>
        <time>2019-08-17T09:19:53Z</time>
      </trkpt>
      <trkpt lat="47.38751" lon="6.50245">
        <ele>294.9</ele>
        <time>2019-08-17T09:19:54Z</time>
      </trkpt>
      <trkpt lat="47.38745" lon="6.5025">
        <ele>294.8</ele>
        <time>2019-08-17T09:19:55Z</time>
      </trkpt>
      <trkpt lat="47.38739" lon="6.50256">
        <ele>294.7</ele>
        <time>2019-08-17T09:19:56Z</time>
      </trkpt>
      <trkpt lat="47.38733" lon="6.50261">
        <ele>294.6</ele>
        <time>2019-08-17T09:19:57Z</time>
      </trkpt>
      <trkpt lat="47.38727" lon="6.50267">
        <ele>294.6</ele>
        <time>2019-08-17T09:19:58Z</time>
      </trkpt>
      <trkpt lat="47.38721" lon="6.50273">
        <ele>294.5</ele>
        <time>2019-08-17T09:19:59Z</time>
      </trkpt>
      <trkpt lat="47.38716" lon="6.50279">
        <ele>294.4</ele>
        <time>2019-08-17T09:20:00Z</time>
      </trkpt>
      <trkpt lat="47.3871" lon="6.50284">
        <ele>294.4</ele>
        <time>2019-08-17T09:20:01Z</time>
      </trkpt>
      <trkpt lat="47.38704" lon="6.50291">
        <ele>294.3</ele>
        <time>2019-08-17T09:20:02Z</time>
      </trkpt>
      <trkpt lat="47.38697" lon="6.50297">
        <ele>294.2</ele>
        <time>2019-08-17T09:20:03Z</time>
      </trkpt>
      <trkpt lat="47.38691" lon="6.50302">
        <ele>294.1</ele>
        <time>2019-08-17T09:20:04Z</time>
      </trkpt>
      <trkpt lat="47.38684" lon="6.50308">
        <ele>294</ele>
        <time>2019-08-17T09:20:05Z</time>
      </trkpt>
      <trkpt lat="47.38678" lon="6.50313">
        <ele>293.9</ele>
        <time>2019-08-17T09:20:06Z</time>
      </trkpt>
      <trkpt lat="47.38671" lon="6.50318">
        <ele>293.8</ele>
        <time>2019-08-17T09:20:07Z</time>
      </trkpt>
      <trkpt lat="47.38664" lon="6.50324">
        <ele>293.8</ele>
        <time>2019-08-17T09:20:08Z</time>
      </trkpt>
      <trkpt lat="47.38657" lon="6.50329">
        <ele>293.7</ele>
        <time>2019-08-17T09:20:09Z</time>
      </trkpt>
      <trkpt lat="47.3865" lon="6.50334">
        <ele>293.6</ele>
        <time>2019-08-17T09:20:10Z</time>
      </trkpt>
      <trkpt lat="47.38643" lon="6.50339">
        <ele>293.6</ele>
        <time>2019-08-17T09:20:11Z</time>
      </trkpt>
      <trkpt lat="47.38635" lon="6.50344">
        <ele>293.5</ele>
        <time>2019-08-17T09:20:12Z</time>
      </trkpt>
      <trkpt lat="47.38628" lon="6.50349">
        <ele>293.4</ele>
        <time>2019-08-17T09:20:13Z</time>
      </trkpt>
      <trkpt lat="47.3862" lon="6.50354">
        <ele>293.3</ele>
        <time>2019-08-17T09:20:14Z</time>
      </trkpt>
      <trkpt lat="47.38613" lon="6.50359">
        <ele>293.3</ele>
        <time>2019-08-17T09:20:15Z</time>
      </trkpt>
      <trkpt lat="47.38605" lon="6.50363">
        <ele>293.2</ele>
        <time>2019-08-17T09:20:16Z</time>
      </trkpt>
      <trkpt lat="47.38598" lon="6.50369">
        <ele>293.2</ele>
        <time>2019-08-17T09:20:17Z</time>
      </trkpt>
      <trkpt lat="47.3859" lon="6.50373">
        <ele>293.1</ele>
        <time>2019-08-17T09:20:18Z</time>
      </trkpt>
      <trkpt lat="47.38582" lon="6.50379">
        <ele>293</ele>
        <time>2019-08-17T09:20:19Z</time>
      </trkpt>
      <trkpt lat="47.38574" lon="6.50383">
        <ele>292.9</ele>
        <time>2019-08-17T09:20:20Z</time>
      </trkpt>
      <trkpt lat="47.38566" lon="6.50388">
        <ele>292.9</ele>
        <time>2019-08-17T09:20:21Z</time>
      </trkpt>
      <trkpt lat="47.38558" lon="6.50393">
        <ele>292.8</ele>
        <time>2019-08-17T09:20:22Z</time>
      </trkpt>
      <trkpt lat="47.38549" lon="6.50398">
        <ele>292.7</ele>
        <time>2019-08-17T09:20:23Z</time>
      </trkpt>
      <trkpt lat="47.38541" lon="6.50403">
        <ele>292.6</ele>
        <time>2019-08-17T09:20:24Z</time>
      </trkpt>
      <trkpt lat="47.38532" lon="6.50408">
        <ele>292.6</ele>
        <time>2019-08-17T09:20:25Z</time>
      </trkpt>
      <trkpt lat="47.38523" lon="6.50413">
        <ele>292.5</ele>
        <time>2019-08-17T09:20:26Z</time>
      </trkpt>
      <trkpt lat="47.38515" lon="6.50418">
        <ele>292.4</ele>
        <time>2019-08-17T09:20:27Z</time>
      </trkpt>
      <trkpt lat="47.38506" lon="6.50423">
        <ele>292.4</ele>
        <time>2019-08-17T09:20:28Z</time>
      </trkpt>
      <trkpt lat="47.38497" lon="6.50428">
        <ele>292.3</ele>
        <time>2019-08-17T09:20:29Z</time>
      </trkpt>
      <trkpt lat="47.38488" lon="6.50433">
        <ele>292.3</ele>
        <time>2019-08-17T09:20:30Z</time>
      </trkpt>
      <trkpt lat="47.38479" lon="6.50437">
        <ele>292.2</ele>
        <time>2019-08-17T09:20:31Z</time>
      </trkpt>
      <trkpt lat="47.3847" lon="6.50441">
        <ele>292.1</ele>
        <time>2019-08-17T09:20:32Z</time>
      </trkpt>
      <trkpt lat="47.38461" lon="6.50445">
        <ele>292</ele>
        <time>2019-08-17T09:20:33Z</time>
      </trkpt>
      <trkpt lat="47.38452" lon="6.5045">
        <ele>291.9</ele>
        <time>2019-08-17T09:20:34Z</time>
      </trkpt>
      <trkpt lat="47.38443" lon="6.50453">
        <ele>290.9</ele>
        <time>2019-08-17T09:20:35Z</time>
      </trkpt>
      <trkpt lat="47.38434" lon="6.50456">
        <ele>289.3</ele>
        <time>2019-08-17T09:20:36Z</time>
      </trkpt>
      <trkpt lat="47.38425" lon="6.50459">
        <ele>287.7</ele>
        <time>2019-08-17T09:20:37Z</time>
      </trkpt>
      <trkpt lat="47.38416" lon="6.50462">
        <ele>286.2</ele>
        <time>2019-08-17T09:20:38Z</time>
      </trkpt>
      <trkpt lat="47.38408" lon="6.50466">
        <ele>284.8</ele>
        <time>2019-08-17T09:20:39Z</time>
      </trkpt>
      <trkpt lat="47.384" lon="6.5047">
        <ele>283.3</ele>
        <time>2019-08-17T09:20:40Z</time>
      </trkpt>
      <trkpt lat="47.38392" lon="6.50473">
        <ele>281.9</ele>
        <time>2019-08-17T09:20:41Z</time>
      </trkpt>
      <trkpt lat="47.38384" lon="6.50476">
        <ele>281.5</ele>
        <time>2019-08-17T09:20:42Z</time>
      </trkpt>
      <trkpt lat="47.38377" lon="6.50479">
        <ele>281.6</ele>
        <time>2019-08-17T09:20:43Z</time>
      </trkpt>
      <trkpt lat="47.3837" lon="6.50483">
        <ele>281.7</ele>
        <time>2019-08-17T09:20:44Z</time>
      </trkpt>
      <trkpt lat="47.38363" lon="6.50487">
        <ele>281.8</ele>
        <time>2019-08-17T09:20:45Z</time>
      </trkpt>
      <trkpt lat="47.38357" lon="6.5049">
        <ele>281.9</ele>
        <time>2019-08-17T09:20:46Z</time>
      </trkpt>
      <trkpt lat="47.38351" lon="6.50495">
        <ele>282</ele>
        <time>2019-08-17T09:20:47Z</time>
      </trkpt>
      <trkpt lat="47.38345" lon="6.50498">
        <ele>282.1</ele>
        <time>2019-08-17T09:20:48Z</time>
      </trkpt>
      <trkpt lat="47.38338" lon="6.50501">
        <ele>282.2</ele>
        <time>2019-08-17T09:20:49Z</time>
      </trkpt>
      <trkpt lat="47.38333" lon="6.50504">
        <ele>282.3</ele>
        <time>2019-08-17T09:20:50Z</time>
      </trkpt>
      <trkpt lat="47.38327" lon="6.50508">
        <ele>282.5</ele>
        <time>2019-08-17T09:20:51Z</time>
      </trkpt>
      <trkpt lat="47.38322" lon="6.50513">
        <ele>282.6</ele>
        <time>2019-08-17T09:20:52Z</time>
      </trkpt>
      <trkpt lat="47.38317" lon="6.50518">
        <ele>282.8</ele>
        <time>2019-08-17T09:20:53Z</time>
      </trkpt>
      <trkpt lat="47.38311" lon="6.50522">
        <ele>282.9</ele>
        <time>2019-08-17T09:20:54Z</time>
      </trkpt>
      <trkpt lat="47.38306" lon="6.50525">
        <ele>283</ele>
        <time>2019-08-17T09:20:55Z</time>
      </trkpt>
      <trkpt lat="47.383" lon="6.50527">
        <ele>283.2</ele>
        <time>2019-08-17T09:20:56Z</time>
      </trkpt>
      <trkpt lat="47.38294" lon="6.50528">
        <ele>283.3</ele>
        <time>2019-08-17T09:20:57Z</time>
      </trkpt>
      <trkpt lat="47.38288" lon="6.50529">
        <ele>283.5</ele>
        <time>2019-08-17T09:20:58Z</time>
      </trkpt>
      <trkpt lat="47.38282" lon="6.5053">
        <ele>283.6</ele>
        <time>2019-08-17T09:20:59Z</time>
      </trkpt>
      <trkpt lat="47.38276" lon="6.5053">
        <ele>283.7</ele>
        <time>2019-08-17T09:21:00Z</time>
      </trkpt>
      <trkpt lat="47.3827" lon="6.50529">
        <ele>283.8</ele>
        <time>2019-08-17T09:21:01Z</time>
      </trkpt>
      <trkpt lat="47.38264" lon="6.50527">
        <ele>284</ele>
        <time>2019-08-17T09:21:02Z</time>
      </trkpt>
      <trkpt lat="47.38257" lon="6.50524">
        <ele>284.1</ele>
        <time>2019-08-17T09:21:03Z</time>
      </trkpt>
      <trkpt lat="47.3825" lon="6.50523">
        <ele>284.2</ele>
        <time>2019-08-17T09:21:04Z</time>
      </trkpt>
      <trkpt lat="47.38244" lon="6.50522">
        <ele>284.3</ele>
        <time>2019-08-17T09:21:05Z</time>
      </trkpt>
      <trkpt lat="47.38237" lon="6.50521">
        <ele>284.4</ele>
        <time>2019-08-17T09:21:06Z</time>
      </trkpt>
      <trkpt lat="47.3823" lon="6.50521">
        <ele>284.5</ele>
        <time>2019-08-17T09:21:07Z</time>
      </trkpt>
      <trkpt lat="47.38222" lon="6.50521">
        <ele>284.6</ele>
        <time>2019-08-17T09:21:08Z</time>
      </trkpt>
      <trkpt lat="47.38214" lon="6.50521">
        <ele>284.7</ele>
        <time>2019-08-17T09:21:09Z</time>
      </trkpt>
      <trkpt lat="47.38208" lon="6.50521">
        <ele>284.7</ele>
        <time>2019-08-17T09:21:10Z</time>
      </trkpt>
      <trkpt lat="47.38202" lon="6.5052">
        <ele>284.8</ele>
        <time>2019-08-17T09:21:11Z</time>
      </trkpt>
      <trkpt lat="47.38197" lon="6.5052">
        <ele>284.9</ele>
        <time>2019-08-17T09:21:12Z</time>
      </trkpt>
      <trkpt lat="47.38191" lon="6.5052">
        <ele>284.9</ele>
        <time>2019-08-17T09:21:13Z</time>
      </trkpt>
      <trkpt lat="47.38184" lon="6.50521">
        <ele>285</ele>
        <time>2019-08-17T09:21:14Z</time>
      </trkpt>
      <trkpt lat="47.38179" lon="6.50521">
        <ele>285.1</ele>
        <time>2019-08-17T09:21:15Z</time>
      </trkpt>
      <trkpt lat="47.38173" lon="6.5052">
        <ele>285.2</ele>
        <time>2019-08-17T09:21:16Z</time>
      </trkpt>
      <trkpt lat="47.38167" lon="6.5052">
        <ele>285.2</ele>
        <time>2019-08-17T09:21:17Z</time>
      </trkpt>
      <trkpt lat="47.38161" lon="6.50519">
        <ele>285.3</ele>
        <time>2019-08-17T09:21:18Z</time>
      </trkpt>
      <trkpt lat="47.38156" lon="6.50518">
        <ele>285.4</ele>
        <time>2019-08-17T09:21:19Z</time>
      </trkpt>
      <trkpt lat="47.3815" lon="6.50517">
        <ele>285.5</ele>
        <time>2019-08-17T09:21:20Z</time>
      </trkpt>
      <trkpt lat="47.38145" lon="6.50516">
        <ele>285.5</ele>
        <time>2019-08-17T09:21:21Z</time>
      </trkpt>
      <trkpt lat="47.38139" lon="6.50515">
        <ele>285.6</ele>
        <time>2019-08-17T09:21:22Z</time>
      </trkpt>
      <trkpt lat="47.38133" lon="6.50514">
        <ele>285.7</ele>
        <time>2019-08-17T09:21:23Z</time>
      </trkpt>
      <trkpt lat="47.38126" lon="6.50513">
        <ele>285.8</ele>
        <time>2019-08-17T09:21:24Z</time>
      </trkpt>
      <trkpt lat="47.3812" lon="6.50512">
        <ele>285.8</ele>
        <time>2019-08-17T09:21:25Z</time>
      </trkpt>
      <trkpt lat="47.38114" lon="6.5051">
        <ele>285.9</ele>
        <time>2019-08-17T09:21:26Z</time>
      </trkpt>
      <trkpt lat="47.38109" lon="6.50509">
        <ele>285.9</ele>
        <time>2019-08-17T09:21:27Z</time>
      </trkpt>
      <trkpt lat="47.38102" lon="6.50508">
        <ele>285.9</ele>
        <time>2019-08-17T09:21:28Z</time>
      </trkpt>
      <trkpt lat="47.38097" lon="6.50506">
        <ele>286</ele>
        <time>2019-08-17T09:21:29Z</time>
      </trkpt>
      <trkpt lat="47.38091" lon="6.50504">
        <ele>286</ele>
        <time>2019-08-17T09:21:30Z</time>
      </trkpt>
      <trkpt lat="47.38085" lon="6.50502">
        <ele>286</ele>
        <time>2019-08-17T09:21:31Z</time>
      </trkpt>
      <trkpt lat="47.3808" lon="6.505">
        <ele>286.1</ele>
        <time>2019-08-17T09:21:32Z</time>
      </trkpt>
      <trkpt lat="47.38074" lon="6.50499">
        <ele>286.1</ele>
        <time>2019-08-17T09:21:33Z</time>
      </trkpt>
      <trkpt lat="47.38068" lon="6.50496">
        <ele>286.2</ele>
        <time>2019-08-17T09:21:34Z</time>
      </trkpt>
      <trkpt lat="47.38062" lon="6.50493">
        <ele>286.2</ele>
        <time>2019-08-17T09:21:35Z</time>
      </trkpt>
      <trkpt lat="47.38056" lon="6.5049">
        <ele>286.3</ele>
        <time>2019-08-17T09:21:36Z</time>
      </trkpt>
      <trkpt lat="47.3805" lon="6.50487">
        <ele>286.3</ele>
        <time>2019-08-17T09:21:37Z</time>
      </trkpt>
      <trkpt lat="47.38044" lon="6.50484">
        <ele>286.4</ele>
        <time>2019-08-17T09:21:38Z</time>
      </trkpt>
      <trkpt lat="47.38037" lon="6.50481">
        <ele>286.4</ele>
        <time>2019-08-17T09:21:39Z</time>
      </trkpt>
      <trkpt lat="47.38031" lon="6.50479">
        <ele>286.5</ele>
        <time>2019-08-17T09:21:40Z</time>
      </trkpt>
      <trkpt lat="47.38024" lon="6.50476">
        <ele>286.6</ele>
        <time>2019-08-17T09:21:41Z</time>
      </trkpt>
      <trkpt lat="47.38018" lon="6.50473">
        <ele>286.6</ele>
        <time>2019-08-17T09:21:42Z</time>
      </trkpt>
      <trkpt lat="47.38012" lon="6.50472">
        <ele>286.7</ele>
        <time>2019-08-17T09:21:43Z</time>
      </trkpt>
      <trkpt lat="47.38006" lon="6.50471">
        <ele>286.7</ele>
        <time>2019-08-17T09:21:44Z</time>
      </trkpt>
      <trkpt lat="47.38" lon="6.50469">
        <ele>286.8</ele>
        <time>2019-08-17T09:21:45Z</time>
      </trkpt>
      <trkpt lat="47.37993" lon="6.50469">
        <ele>286.9</ele>
        <time>2019-08-17T09:21:46Z</time>
      </trkpt>
      <trkpt lat="47.37987" lon="6.50468">
        <ele>287</ele>
        <time>2019-08-17T09:21:47Z</time>
      </trkpt>
      <trkpt lat="47.37981" lon="6.50467">
        <ele>287</ele>
        <time>2019-08-17T09:21:48Z</time>
      </trkpt>
      <trkpt lat="47.37974" lon="6.50466">
        <ele>287.1</ele>
        <time>2019-08-17T09:21:49Z</time>
      </trkpt>
      <trkpt lat="47.37969" lon="6.50465">
        <ele>287.2</ele>
        <time>2019-08-17T09:21:50Z</time>
      </trkpt>
      <trkpt lat="47.37963" lon="6.50463">
        <ele>287.3</ele>
        <time>2019-08-17T09:21:51Z</time>
      </trkpt>
      <trkpt lat="47.37956" lon="6.50461">
        <ele>287.4</ele>
        <time>2019-08-17T09:21:52Z</time>
      </trkpt>
      <trkpt lat="47.37951" lon="6.5046">
        <ele>287.5</ele>
        <time>2019-08-17T09:21:53Z</time>
      </trkpt>
      <trkpt lat="47.37945" lon="6.50459">
        <ele>287.7</ele>
        <time>2019-08-17T09:21:54Z</time>
      </trkpt>
      <trkpt lat="47.37941" lon="6.50458">
        <ele>287.8</ele>
        <time>2019-08-17T09:21:55Z</time>
      </trkpt>
      <trkpt lat="47.37935" lon="6.50457">
        <ele>288</ele>
        <time>2019-08-17T09:21:56Z</time>
      </trkpt>
      <trkpt lat="47.3793" lon="6.50457">
        <ele>288.2</ele>
        <time>2019-08-17T09:21:57Z</time>
      </trkpt>
      <trkpt lat="47.37924" lon="6.50457">
        <ele>288.2</ele>
        <time>2019-08-17T09:21:58Z</time>
      </trkpt>
      <trkpt lat="47.37919" lon="6.50456">
        <ele>288.2</ele>
        <time>2019-08-17T09:21:59Z</time>
      </trkpt>
      <trkpt lat="47.37913" lon="6.50456">
        <ele>288.1</ele>
        <time>2019-08-17T09:22:00Z</time>
      </trkpt>
      <trkpt lat="47.37909" lon="6.50456">
        <ele>288</ele>
        <time>2019-08-17T09:22:01Z</time>
      </trkpt>
      <trkpt lat="47.37904" lon="6.50457">
        <ele>287.9</ele>
        <time>2019-08-17T09:22:02Z</time>
      </trkpt>
      <trkpt lat="47.37897" lon="6.50457">
        <ele>287.8</ele>
        <time>2019-08-17T09:22:03Z</time>
      </trkpt>
      <trkpt lat="47.37891" lon="6.50456">
        <ele>287.7</ele>
        <time>2019-08-17T09:22:04Z</time>
      </trkpt>
      <trkpt lat="47.37885" lon="6.50456">
        <ele>287.6</ele>
        <time>2019-08-17T09:22:05Z</time>
      </trkpt>
      <trkpt lat="47.37879" lon="6.50456">
        <ele>287.5</ele>
        <time>2019-08-17T09:22:06Z</time>
      </trkpt>
      <trkpt lat="47.37873" lon="6.50456">
        <ele>287.4</ele>
        <time>2019-08-17T09:22:07Z</time>
      </trkpt>
      <trkpt lat="47.37866" lon="6.50455">
        <ele>287.3</ele>
        <time>2019-08-17T09:22:08Z</time>
      </trkpt>
      <trkpt lat="47.37859" lon="6.50455">
        <ele>287.2</ele>
        <time>2019-08-17T09:22:09Z</time>
      </trkpt>
      <trkpt lat="47.37852" lon="6.50453">
        <ele>287.1</ele>
        <time>2019-08-17T09:22:10Z</time>
      </trkpt>
      <trkpt lat="47.37845" lon="6.50452">
        <ele>287</ele>
        <time>2019-08-17T09:22:11Z</time>
      </trkpt>
      <trkpt lat="47.37837" lon="6.5045">
        <ele>286.9</ele>
        <time>2019-08-17T09:22:12Z</time>
      </trkpt>
      <trkpt lat="47.3783" lon="6.50449">
        <ele>286.8</ele>
        <time>2019-08-17T09:22:13Z</time>
      </trkpt>
      <trkpt lat="47.37824" lon="6.50447">
        <ele>286.7</ele>
        <time>2019-08-17T09:22:14Z</time>
      </trkpt>
      <trkpt lat="47.37817" lon="6.50447">
        <ele>286.6</ele>
        <time>2019-08-17T09:22:15Z</time>
      </trkpt>
      <trkpt lat="47.3781" lon="6.50446">
        <ele>286.5</ele>
        <time>2019-08-17T09:22:16Z</time>
      </trkpt>
      <trkpt lat="47.37802" lon="6.50446">
        <ele>286.4</ele>
        <time>2019-08-17T09:22:17Z</time>
      </trkpt>
      <trkpt lat="47.37795" lon="6.50445">
        <ele>286.3</ele>
        <time>2019-08-17T09:22:18Z</time>
      </trkpt>
      <trkpt lat="47.3779" lon="6.50443">
        <ele>286.2</ele>
        <time>2019-08-17T09:22:19Z</time>
      </trkpt>
      <trkpt lat="47.37784" lon="6.5044">
        <ele>286.1</ele>
        <time>2019-08-17T09:22:20Z</time>
      </trkpt>
      <trkpt lat="47.37778" lon="6.5044">
        <ele>286.1</ele>
        <time>2019-08-17T09:22:21Z</time>
      </trkpt>
      <trkpt lat="47.37772" lon="6.50438">
        <ele>286</ele>
        <time>2019-08-17T09:22:22Z</time>
      </trkpt>
      <trkpt lat="47.37765" lon="6.50436">
        <ele>285.9</ele>
        <time>2019-08-17T09:22:23Z</time>
      </trkpt>
      <trkpt lat="47.37759" lon="6.50434">
        <ele>285.8</ele>
        <time>2019-08-17T09:22:24Z</time>
      </trkpt>
      <trkpt lat="47.37752" lon="6.50432">
        <ele>285.7</ele>
        <time>2019-08-17T09:22:25Z</time>
      </trkpt>
      <trkpt lat="47.37745" lon="6.50429">
        <ele>285.6</ele>
        <time>2019-08-17T09:22:26Z</time>
      </trkpt>
      <trkpt lat="47.37739" lon="6.50428">
        <ele>285.6</ele>
        <time>2019-08-17T09:22:27Z</time>
      </trkpt>
      <trkpt lat="47.37733" lon="6.50426">
        <ele>285.5</ele>
        <time>2019-08-17T09:22:28Z</time>
      </trkpt>
      <trkpt lat="47.37728" lon="6.50423">
        <ele>285.4</ele>
        <time>2019-08-17T09:22:29Z</time>
      </trkpt>
      <trkpt lat="47.37722" lon="6.50421">
        <ele>285.3</ele>
        <time>2019-08-17T09:22:30Z</time>
      </trkpt>
      <trkpt lat="47.37716" lon="6.50419">
        <ele>285.2</ele>
        <time>2019-08-17T09:22:31Z</time>
      </trkpt>
      <trkpt lat="47.37709" lon="6.50416">
        <ele>285.2</ele>
        <time>2019-08-17T09:22:32Z</time>
      </trkpt>
      <trkpt lat="47.37703" lon="6.50413">
        <ele>285.1</ele>
        <time>2019-08-17T09:22:33Z</time>
      </trkpt>
      <trkpt lat="47.37697" lon="6.5041">
        <ele>285</ele>
        <time>2019-08-17T09:22:34Z</time>
      </trkpt>
      <trkpt lat="47.3769" lon="6.50408">
        <ele>284.9</ele>
        <time>2019-08-17T09:22:35Z</time>
      </trkpt>
      <trkpt lat="47.37685" lon="6.50405">
        <ele>284.8</ele>
        <time>2019-08-17T09:22:36Z</time>
      </trkpt>
      <trkpt lat="47.37679" lon="6.504">
        <ele>284.7</ele>
        <time>2019-08-17T09:22:37Z</time>
      </trkpt>
      <trkpt lat="47.37673" lon="6.50394">
        <ele>284.6</ele>
        <time>2019-08-17T09:22:38Z</time>
      </trkpt>
      <trkpt lat="47.37668" lon="6.50388">
        <ele>284.6</ele>
        <time>2019-08-17T09:22:39Z</time>
      </trkpt>
      <trkpt lat="47.37663" lon="6.50384">
        <ele>284.5</ele>
        <time>2019-08-17T09:22:40Z</time>
      </trkpt>
      <trkpt lat="47.37658" lon="6.5038">
        <ele>284.4</ele>
        <time>2019-08-17T09:22:41Z</time>
      </trkpt>
      <trkpt lat="47.37653" lon="6.50377">
        <ele>284.4</ele>
        <time>2019-08-17T09:22:42Z</time>
      </trkpt>
      <trkpt lat="47.37648" lon="6.50372">
        <ele>284.3</ele>
        <time>2019-08-17T09:22:43Z</time>
      </trkpt>
      <trkpt lat="47.37644" lon="6.50368">
        <ele>284.3</ele>
        <time>2019-08-17T09:22:44Z</time>
      </trkpt>
      <trkpt lat="47.37639" lon="6.50364">
        <ele>284.2</ele>
        <time>2019-08-17T09:22:45Z</time>
      </trkpt>
      <trkpt lat="47.37634" lon="6.50359">
        <ele>284.2</ele>
        <time>2019-08-17T09:22:46Z</time>
      </trkpt>
      <trkpt lat="47.3763" lon="6.50353">
        <ele>284.1</ele>
        <time>2019-08-17T09:22:47Z</time>
      </trkpt>
      <trkpt lat="47.37625" lon="6.50348">
        <ele>284</ele>
        <time>2019-08-17T09:22:48Z</time>
      </trkpt>
      <trkpt lat="47.37621" lon="6.50344">
        <ele>284</ele>
        <time>2019-08-17T09:22:49Z</time>
      </trkpt>
      <trkpt lat="47.37616" lon="6.50341">
        <ele>283.9</ele>
        <time>2019-08-17T09:22:50Z</time>
      </trkpt>
      <trkpt lat="47.37611" lon="6.50336">
        <ele>283.9</ele>
        <time>2019-08-17T09:22:51Z</time>
      </trkpt>
      <trkpt lat="47.37606" lon="6.50332">
        <ele>283.8</ele>
        <time>2019-08-17T09:22:52Z</time>
      </trkpt>
      <trkpt lat="47.376" lon="6.50327">
        <ele>283.8</ele>
        <time>2019-08-17T09:22:53Z</time>
      </trkpt>
      <trkpt lat="47.37595" lon="6.50323">
        <ele>283.7</ele>
        <time>2019-08-17T09:22:54Z</time>
      </trkpt>
      <trkpt lat="47.37589" lon="6.50317">
        <ele>283.6</ele>
        <time>2019-08-17T09:22:55Z</time>
      </trkpt>
      <trkpt lat="47.37584" lon="6.50311">
        <ele>283.6</ele>
        <time>2019-08-17T09:22:56Z</time>
      </trkpt>
      <trkpt lat="47.3758" lon="6.50305">
        <ele>283.5</ele>
        <time>2019-08-17T09:22:57Z</time>
      </trkpt>
      <trkpt lat="47.37575" lon="6.50298">
        <ele>283.4</ele>
        <time>2019-08-17T09:22:58Z</time>
      </trkpt>
      <trkpt lat="47.37571" lon="6.50293">
        <ele>283.4</ele>
        <time>2019-08-17T09:22:59Z</time>
      </trkpt>
      <trkpt lat="47.37566" lon="6.50287">
        <ele>283.3</ele>
        <time>2019-08-17T09:23:00Z</time>
      </trkpt>
      <trkpt lat="47.37561" lon="6.50282">
        <ele>283.2</ele>
        <time>2019-08-17T09:23:01Z</time>
      </trkpt>
      <trkpt lat="47.37557" lon="6.50277">
        <ele>283.2</ele>
        <time>2019-08-17T09:23:02Z</time>
      </trkpt>
      <trkpt lat="47.37552" lon="6.50272">
        <ele>283.1</ele>
        <time>2019-08-17T09:23:03Z</time>
      </trkpt>
      <trkpt lat="47.37547" lon="6.50267">
        <ele>283.1</ele>
        <time>2019-08-17T09:23:04Z</time>
      </trkpt>
      <trkpt lat="47.37542" lon="6.50263">
        <ele>283</ele>
        <time>2019-08-17T09:23:05Z</time>
      </trkpt>
      <trkpt lat="47.37537" lon="6.50258">
        <ele>282.9</ele>
        <time>2019-08-17T09:23:06Z</time>
      </trkpt>
      <trkpt lat="47.37533" lon="6.50254">
        <ele>282.9</ele>
        <time>2019-08-17T09:23:07Z</time>
      </trkpt>
      <trkpt lat="47.37528" lon="6.5025">
        <ele>282.8</ele>
        <time>2019-08-17T09:23:08Z</time>
      </trkpt>
      <trkpt lat="47.37522" lon="6.50245">
        <ele>282.8</ele>
        <time>2019-08-17T09:23:09Z</time>
      </trkpt>
      <trkpt lat="47.37517" lon="6.50241">
        <ele>282.7</ele>
        <time>2019-08-17T09:23:10Z</time>
      </trkpt>
      <trkpt lat="47.37512" lon="6.50236">
        <ele>282.6</ele>
        <time>2019-08-17T09:23:11Z</time>
      </trkpt>
      <trkpt lat="47.37508" lon="6.50232">
        <ele>282.6</ele>
        <time>2019-08-17T09:23:12Z</time>
      </trkpt>
      <trkpt lat="47.37504" lon="6.50229">
        <ele>282.6</ele>
        <time>2019-08-17T09:23:13Z</time>
      </trkpt>
      <trkpt lat="47.37498" lon="6.50224">
        <ele>282.5</ele>
        <time>2019-08-17T09:23:14Z</time>
      </trkpt>
      <trkpt lat="47.37493" lon="6.5022">
        <ele>282.5</ele>
        <time>2019-08-17T09:23:15Z</time>
      </trkpt>
      <trkpt lat="47.37487" lon="6.50217">
        <ele>282.4</ele>
        <time>2019-08-17T09:23:16Z</time>
      </trkpt>
      <trkpt lat="47.37482" lon="6.50213">
        <ele>282.3</ele>
        <time>2019-08-17T09:23:17Z</time>
      </trkpt>
      <trkpt lat="47.37477" lon="6.5021">
        <ele>282.3</ele>
        <time>2019-08-17T09:23:18Z</time>
      </trkpt>
      <trkpt lat="47.37472" lon="6.50208">
        <ele>282.3</ele>
        <time>2019-08-17T09:23:19Z</time>
      </trkpt>
      <trkpt lat="47.37467" lon="6.50205">
        <ele>282.2</ele>
        <time>2019-08-17T09:23:20Z</time>
      </trkpt>
      <trkpt lat="47.37462" lon="6.50203">
        <ele>282.2</ele>
        <time>2019-08-17T09:23:21Z</time>
      </trkpt>
      <trkpt lat="47.37457" lon="6.50199">
        <ele>282.1</ele>
        <time>2019-08-17T09:23:22Z</time>
      </trkpt>
      <trkpt lat="47.37452" lon="6.50196">
        <ele>282.1</ele>
        <time>2019-08-17T09:23:23Z</time>
      </trkpt>
      <trkpt lat="47.37447" lon="6.50192">
        <ele>282.1</ele>
        <time>2019-08-17T09:23:24Z</time>
      </trkpt>
      <trkpt lat="47.37443" lon="6.50188">
        <ele>282</ele>
        <time>2019-08-17T09:23:25Z</time>
      </trkpt>
      <trkpt lat="47.37437" lon="6.50186">
        <ele>282</ele>
        <time>2019-08-17T09:23:26Z</time>
      </trkpt>
      <trkpt lat="47.37432" lon="6.50184">
        <ele>282</ele>
        <time>2019-08-17T09:23:27Z</time>
      </trkpt>
      <trkpt lat="47.37428" lon="6.50182">
        <ele>281.9</ele>
        <time>2019-08-17T09:23:28Z</time>
      </trkpt>
      <trkpt lat="47.37423" lon="6.5018">
        <ele>281.9</ele>
        <time>2019-08-17T09:23:29Z</time>
      </trkpt>
      <trkpt lat="47.37419" lon="6.50176">
        <ele>281.9</ele>
        <time>2019-08-17T09:23:30Z</time>
      </trkpt>
      <trkpt lat="47.37415" lon="6.50174">
        <ele>281.9</ele>
        <time>2019-08-17T09:23:31Z</time>
      </trkpt>
      <trkpt lat="47.3741" lon="6.50171">
        <ele>281.8</ele>
        <time>2019-08-17T09:23:32Z</time>
      </trkpt>
      <trkpt lat="47.37405" lon="6.50169">
        <ele>281.8</ele>
        <time>2019-08-17T09:23:33Z</time>
      </trkpt>
      <trkpt lat="47.374" lon="6.50166">
        <ele>281.8</ele>
        <time>2019-08-17T09:23:34Z</time>
      </trkpt>
      <trkpt lat="47.37396" lon="6.50164">
        <ele>281.8</ele>
        <time>2019-08-17T09:23:35Z</time>
      </trkpt>
      <trkpt lat="47.37391" lon="6.50161">
        <ele>281.7</ele>
        <time>2019-08-17T09:23:36Z</time>
      </trkpt>
      <trkpt lat="47.37387" lon="6.50159">
        <ele>281.7</ele>
        <time>2019-08-17T09:23:37Z</time>
      </trkpt>
      <trkpt lat="47.37383" lon="6.50156">
        <ele>281.7</ele>
        <time>2019-08-17T09:23:38Z</time>
      </trkpt>
      <trkpt lat="47.37379" lon="6.50154">
        <ele>281.7</ele>
        <time>2019-08-17T09:23:39Z</time>
      </trkpt>
      <trkpt lat="47.37374" lon="6.50153">
        <ele>281.7</ele>
        <time>2019-08-17T09:23:40Z</time>
      </trkpt>
      <trkpt lat="47.37369" lon="6.50151">
        <ele>281.6</ele>
        <time>2019-08-17T09:23:41Z</time>
      </trkpt>
      <trkpt lat="47.37363" lon="6.5015">
        <ele>281.6</ele>
        <time>2019-08-17T09:23:42Z</time>
      </trkpt>
      <trkpt lat="47.37357" lon="6.50148">
        <ele>281.6</ele>
        <time>2019-08-17T09:23:43Z</time>
      </trkpt>
      <trkpt lat="47.37351" lon="6.50146">
        <ele>281.6</ele>
        <time>2019-08-17T09:23:44Z</time>
      </trkpt>
      <trkpt lat="47.37346" lon="6.50145">
        <ele>281.6</ele>
        <time>2019-08-17T09:23:45Z</time>
      </trkpt>
      <trkpt lat="47.37342" lon="6.50144">
        <ele>281.6</ele>
        <time>2019-08-17T09:23:46Z</time>
      </trkpt>
      <trkpt lat="47.37338" lon="6.50142">
        <ele>281.5</ele>
        <time>2019-08-17T09:23:47Z</time>
      </trkpt>
      <trkpt lat="47.37332" lon="6.5014">
        <ele>281.5</ele>
        <time>2019-08-17T09:23:48Z</time>
      </trkpt>
      <trkpt lat="47.37327" lon="6.50139">
        <ele>281.5</ele>
        <time>2019-08-17T09:23:49Z</time>
      </trkpt>
      <trkpt lat="47.37323" lon="6.50136">
        <ele>281.5</ele>
        <time>2019-08-17T09:23:50Z</time>
      </trkpt>
      <trkpt lat="47.37319" lon="6.50133">
        <ele>281.5</ele>
        <time>2019-08-17T09:23:51Z</time>
      </trkpt>
      <trkpt lat="47.37314" lon="6.50131">
        <ele>281.5</ele>
        <time>2019-08-17T09:23:52Z</time>
      </trkpt>
      <trkpt lat="47.37309" lon="6.50128">
        <ele>281.5</ele>
        <time>2019-08-17T09:23:53Z</time>
      </trkpt>
      <trkpt lat="47.37304" lon="6.50125">
        <ele>281.5</ele>
        <time>2019-08-17T09:23:54Z</time>
      </trkpt>
      <trkpt lat="47.373" lon="6.50121">
        <ele>281.5</ele>
        <time>2019-08-17T09:23:55Z</time>
      </trkpt>
      <trkpt lat="47.37296" lon="6.50115">
        <ele>281.6</ele>
        <time>2019-08-17T09:23:56Z</time>
      </trkpt>
      <trkpt lat="47.37293" lon="6.50108">
        <ele>281.6</ele>
        <time>2019-08-17T09:23:57Z</time>
      </trkpt>
      <trkpt lat="47.37289" lon="6.50103">
        <ele>281.7</ele>
        <time>2019-08-17T09:23:58Z</time>
      </trkpt>
      <trkpt lat="47.37286" lon="6.50097">
        <ele>281.7</ele>
        <time>2019-08-17T09:23:59Z</time>
      </trkpt>
      <trkpt lat="47.37282" lon="6.50093">
        <ele>281.8</ele>
        <time>2019-08-17T09:24:00Z</time>
      </trkpt>
      <trkpt lat="47.37279" lon="6.5009">
        <ele>281.8</ele>
        <time>2019-08-17T09:24:01Z</time>
      </trkpt>
      <trkpt lat="47.37276" lon="6.50089">
        <ele>281.9</ele>
        <time>2019-08-17T09:24:02Z</time>
      </trkpt>
      <trkpt lat="47.37274" lon="6.50086">
        <ele>281.9</ele>
        <time>2019-08-17T09:24:03Z</time>
      </trkpt>
      <trkpt lat="47.3727" lon="6.50084">
        <ele>282</ele>
        <time>2019-08-17T09:24:05Z</time>
      </trkpt>
      <trkpt lat="47.37267" lon="6.50083">
        <ele>282</ele>
        <time>2019-08-17T09:24:06Z</time>
      </trkpt>
      <trkpt lat="47.37264" lon="6.50081">
        <ele>282.1</ele>
        <time>2019-08-17T09:24:07Z</time>
      </trkpt>
      <trkpt lat="47.3726" lon="6.50078">
        <ele>282.2</ele>
        <time>2019-08-17T09:24:08Z</time>
      </trkpt>
      <trkpt lat="47.37256" lon="6.50075">
        <ele>282.3</ele>
        <time>2019-08-17T09:24:09Z</time>
      </trkpt>
      <trkpt lat="47.37252" lon="6.50072">
        <ele>282.4</ele>
        <time>2019-08-17T09:24:10Z</time>
      </trkpt>
      <trkpt lat="47.37247" lon="6.50068">
        <ele>282.5</ele>
        <time>2019-08-17T09:24:11Z</time>
      </trkpt>
      <trkpt lat="47.37244" lon="6.50064">
        <ele>282.6</ele>
        <time>2019-08-17T09:24:12Z</time>
      </trkpt>
      <trkpt lat="47.37241" lon="6.50063">
        <ele>282.7</ele>
        <time>2019-08-17T09:24:13Z</time>
      </trkpt>
      <trkpt lat="47.37238" lon="6.5006">
        <ele>282.8</ele>
        <time>2019-08-17T09:24:14Z</time>
      </trkpt>
      <trkpt lat="47.37234" lon="6.50058">
        <ele>282.9</ele>
        <time>2019-08-17T09:24:15Z</time>
      </trkpt>
      <trkpt lat="47.37231" lon="6.50055">
        <ele>283</ele>
        <time>2019-08-17T09:24:16Z</time>
      </trkpt>
      <trkpt lat="47.37228" lon="6.50052">
        <ele>283.1</ele>
        <time>2019-08-17T09:24:17Z</time>
      </trkpt>
      <trkpt lat="47.37224" lon="6.50049">
        <ele>283.3</ele>
        <time>2019-08-17T09:24:18Z</time>
      </trkpt>
      <trkpt lat="47.3722" lon="6.50045">
        <ele>283.4</ele>
        <time>2019-08-17T09:24:19Z</time>
      </trkpt>
      <trkpt lat="47.37215" lon="6.50041">
        <ele>283.6</ele>
        <time>2019-08-17T09:24:21Z</time>
      </trkpt>
      <trkpt lat="47.37212" lon="6.50038">
        <ele>283.8</ele>
        <time>2019-08-17T09:24:22Z</time>
      </trkpt>
      <trkpt lat="47.37209" lon="6.50034">
        <ele>283.9</ele>
        <time>2019-08-17T09:24:23Z</time>
      </trkpt>
      <trkpt lat="47.37206" lon="6.50031">
        <ele>284</ele>
        <time>2019-08-17T09:24:24Z</time>
      </trkpt>
      <trkpt lat="47.37203" lon="6.50027">
        <ele>284.2</ele>
        <time>2019-08-17T09:24:25Z</time>
      </trkpt>
      <trkpt lat="47.372" lon="6.50023">
        <ele>284.3</ele>
        <time>2019-08-17T09:24:26Z</time>
      </trkpt>
      <trkpt lat="47.37197" lon="6.5002">
        <ele>284.4</ele>
        <time>2019-08-17T09:24:27Z</time>
      </trkpt>
      <trkpt lat="47.37194" lon="6.50016">
        <ele>284.6</ele>
        <time>2019-08-17T09:24:28Z</time>
      </trkpt>
      <trkpt lat="47.37192" lon="6.50012">
        <ele>284.7</ele>
        <time>2019-08-17T09:24:29Z</time>
      </trkpt>
      <trkpt lat="47.37188" lon="6.50009">
        <ele>284.8</ele>
        <time>2019-08-17T09:24:30Z</time>
      </trkpt>
      <trkpt lat="47.37185" lon="6.50004">
        <ele>285</ele>
        <time>2019-08-17T09:24:31Z</time>
      </trkpt>
      <trkpt lat="47.37182" lon="6.5">
        <ele>285.1</ele>
        <time>2019-08-17T09:24:32Z</time>
      </trkpt>
      <trkpt lat="47.37178" lon="6.49995">
        <ele>285.3</ele>
        <time>2019-08-17T09:24:33Z</time>
      </trkpt>
      <trkpt lat="47.37175" lon="6.49989">
        <ele>285.4</ele>
        <time>2019-08-17T09:24:34Z</time>
      </trkpt>
      <trkpt lat="47.37172" lon="6.49982">
        <ele>285.5</ele>
        <time>2019-08-17T09:24:35Z</time>
      </trkpt>
      <trkpt lat="47.37169" lon="6.49975">
        <ele>285.7</ele>
        <time>2019-08-17T09:24:36Z</time>
      </trkpt>
      <trkpt lat="47.37165" lon="6.49967">
        <ele>285.8</ele>
        <time>2019-08-17T09:24:37Z</time>
      </trkpt>
      <trkpt lat="47.37162" lon="6.49959">
        <ele>286</ele>
        <time>2019-08-17T09:24:38Z</time>
      </trkpt>
      <trkpt lat="47.37159" lon="6.49952">
        <ele>286.1</ele>
        <time>2019-08-17T09:24:39Z</time>
      </trkpt>
      <trkpt lat="47.37157" lon="6.49945">
        <ele>286.2</ele>
        <time>2019-08-17T09:24:40Z</time>
      </trkpt>
      <trkpt lat="47.37154" lon="6.4994">
        <ele>286.3</ele>
        <time>2019-08-17T09:24:41Z</time>
      </trkpt>
      <trkpt lat="47.37151" lon="6.49934">
        <ele>286.4</ele>
        <time>2019-08-17T09:24:42Z</time>
      </trkpt>
      <trkpt lat="47.37149" lon="6.49925">
        <ele>286.5</ele>
        <time>2019-08-17T09:24:43Z</time>
      </trkpt>
      <trkpt lat="47.37146" lon="6.49914">
        <ele>286.6</ele>
        <time>2019-08-17T09:24:44Z</time>
      </trkpt>
      <trkpt lat="47.37143" lon="6.49904">
        <ele>286.7</ele>
        <time>2019-08-17T09:24:45Z</time>
      </trkpt>
      <trkpt lat="47.3714" lon="6.49894">
        <ele>286.8</ele>
        <time>2019-08-17T09:24:46Z</time>
      </trkpt>
      <trkpt lat="47.37136" lon="6.49884">
        <ele>286.8</ele>
        <time>2019-08-17T09:24:47Z</time>
      </trkpt>
      <trkpt lat="47.37132" lon="6.49873">
        <ele>286.9</ele>
        <time>2019-08-17T09:24:48Z</time>
      </trkpt>
      <trkpt lat="47.37128" lon="6.49861">
        <ele>287</ele>
        <time>2019-08-17T09:24:49Z</time>
      </trkpt>
      <trkpt lat="47.37124" lon="6.4985">
        <ele>287</ele>
        <time>2019-08-17T09:24:50Z</time>
      </trkpt>
      <trkpt lat="47.37121" lon="6.49841">
        <ele>287</ele>
        <time>2019-08-17T09:24:51Z</time>
      </trkpt>
      <trkpt lat="47.37117" lon="6.49832">
        <ele>287</ele>
        <time>2019-08-17T09:24:52Z</time>
      </trkpt>
      <trkpt lat="47.37114" lon="6.49823">
        <ele>287.1</ele>
        <time>2019-08-17T09:24:53Z</time>
      </trkpt>
      <trkpt lat="47.3711" lon="6.49814">
        <ele>287.1</ele>
        <time>2019-08-17T09:24:54Z</time>
      </trkpt>
      <trkpt lat="47.37107" lon="6.49806">
        <ele>287.1</ele>
        <time>2019-08-17T09:24:55Z</time>
      </trkpt>
      <trkpt lat="47.37103" lon="6.49798">
        <ele>287.1</ele>
        <time>2019-08-17T09:24:56Z</time>
      </trkpt>
      <trkpt lat="47.37099" lon="6.4979">
        <ele>287.1</ele>
        <time>2019-08-17T09:24:57Z</time>
      </trkpt>
      <trkpt lat="47.37095" lon="6.49783">
        <ele>287.1</ele>
        <time>2019-08-17T09:24:58Z</time>
      </trkpt>
      <trkpt lat="47.37091" lon="6.49775">
        <ele>287</ele>
        <time>2019-08-17T09:24:59Z</time>
      </trkpt>
      <trkpt lat="47.37087" lon="6.49768">
        <ele>287</ele>
        <time>2019-08-17T09:25:00Z</time>
      </trkpt>
      <trkpt lat="47.37083" lon="6.49761">
        <ele>287</ele>
        <time>2019-08-17T09:25:01Z</time>
      </trkpt>
      <trkpt lat="47.37079" lon="6.49754">
        <ele>287</ele>
        <time>2019-08-17T09:25:02Z</time>
      </trkpt>
      <trkpt lat="47.37076" lon="6.49748">
        <ele>286.9</ele>
        <time>2019-08-17T09:25:03Z</time>
      </trkpt>
      <trkpt lat="47.37072" lon="6.49742">
        <ele>286.9</ele>
        <time>2019-08-17T09:25:04Z</time>
      </trkpt>
      <trkpt lat="47.3707" lon="6.49736">
        <ele>286.9</ele>
        <time>2019-08-17T09:25:05Z</time>
      </trkpt>
      <trkpt lat="47.37066" lon="6.4973">
        <ele>286.8</ele>
        <time>2019-08-17T09:25:06Z</time>
      </trkpt>
      <trkpt lat="47.37063" lon="6.49725">
        <ele>286.8</ele>
        <time>2019-08-17T09:25:07Z</time>
      </trkpt>
      <trkpt lat="47.37059" lon="6.49718">
        <ele>286.8</ele>
        <time>2019-08-17T09:25:08Z</time>
      </trkpt>
      <trkpt lat="47.37056" lon="6.49713">
        <ele>286.7</ele>
        <time>2019-08-17T09:25:09Z</time>
      </trkpt>
      <trkpt lat="47.37054" lon="6.49707">
        <ele>286.7</ele>
        <time>2019-08-17T09:25:10Z</time>
      </trkpt>
      <trkpt lat="47.37051" lon="6.49701">
        <ele>286.6</ele>
        <time>2019-08-17T09:25:11Z</time>
      </trkpt>
      <trkpt lat="47.37047" lon="6.49696">
        <ele>286.6</ele>
        <time>2019-08-17T09:25:12Z</time>
      </trkpt>
      <trkpt lat="47.37044" lon="6.49689">
        <ele>286.5</ele>
        <time>2019-08-17T09:25:13Z</time>
      </trkpt>
      <trkpt lat="47.37041" lon="6.49683">
        <ele>286.5</ele>
        <time>2019-08-17T09:25:14Z</time>
      </trkpt>
      <trkpt lat="47.37037" lon="6.49679">
        <ele>286.4</ele>
        <time>2019-08-17T09:25:15Z</time>
      </trkpt>
      <trkpt lat="47.37034" lon="6.49675">
        <ele>286.4</ele>
        <time>2019-08-17T09:25:16Z</time>
      </trkpt>
      <trkpt lat="47.37031" lon="6.49671">
        <ele>286.3</ele>
        <time>2019-08-17T09:25:17Z</time>
      </trkpt>
      <trkpt lat="47.37027" lon="6.49667">
        <ele>286.3</ele>
        <time>2019-08-17T09:25:18Z</time>
      </trkpt>
      <trkpt lat="47.37024" lon="6.49663">
        <ele>286.2</ele>
        <time>2019-08-17T09:25:19Z</time>
      </trkpt>
      <trkpt lat="47.37021" lon="6.49657">
        <ele>286.1</ele>
        <time>2019-08-17T09:25:20Z</time>
      </trkpt>
      <trkpt lat="47.37017" lon="6.49651">
        <ele>286.1</ele>
        <time>2019-08-17T09:25:21Z</time>
      </trkpt>
      <trkpt lat="47.37014" lon="6.49645">
        <ele>286</ele>
        <time>2019-08-17T09:25:22Z</time>
      </trkpt>
      <trkpt lat="47.3701" lon="6.49638">
        <ele>285.9</ele>
        <time>2019-08-17T09:25:23Z</time>
      </trkpt>
      <trkpt lat="47.37007" lon="6.49633">
        <ele>285.9</ele>
        <time>2019-08-17T09:25:24Z</time>
      </trkpt>
      <trkpt lat="47.37004" lon="6.49628">
        <ele>285.8</ele>
        <time>2019-08-17T09:25:25Z</time>
      </trkpt>
      <trkpt lat="47.37" lon="6.49622">
        <ele>285.7</ele>
        <time>2019-08-17T09:25:26Z</time>
      </trkpt>
      <trkpt lat="47.36997" lon="6.49618">
        <ele>285.7</ele>
        <time>2019-08-17T09:25:27Z</time>
      </trkpt>
      <trkpt lat="47.36995" lon="6.49612">
        <ele>285.6</ele>
        <time>2019-08-17T09:25:28Z</time>
      </trkpt>
      <trkpt lat="47.36992" lon="6.49606">
        <ele>285.6</ele>
        <time>2019-08-17T09:25:29Z</time>
      </trkpt>
      <trkpt lat="47.36989" lon="6.49602">
        <ele>285.5</ele>
        <time>2019-08-17T09:25:30Z</time>
      </trkpt>
      <trkpt lat="47.36986" lon="6.49594">
        <ele>285.5</ele>
        <time>2019-08-17T09:25:31Z</time>
      </trkpt>
      <trkpt lat="47.36983" lon="6.49589">
        <ele>285.4</ele>
        <time>2019-08-17T09:25:32Z</time>
      </trkpt>
      <trkpt lat="47.36981" lon="6.49583">
        <ele>285.4</ele>
        <time>2019-08-17T09:25:33Z</time>
      </trkpt>
      <trkpt lat="47.36979" lon="6.49577">
        <ele>285.3</ele>
        <time>2019-08-17T09:25:34Z</time>
      </trkpt>
      <trkpt lat="47.36978" lon="6.49571">
        <ele>285.3</ele>
        <time>2019-08-17T09:25:35Z</time>
      </trkpt>
      <trkpt lat="47.36976" lon="6.49562">
        <ele>285.2</ele>
        <time>2019-08-17T09:25:36Z</time>
      </trkpt>
      <trkpt lat="47.36974" lon="6.49554">
        <ele>285.1</ele>
        <time>2019-08-17T09:25:37Z</time>
      </trkpt>
      <trkpt lat="47.36972" lon="6.49546">
        <ele>285</ele>
        <time>2019-08-17T09:25:38Z</time>
      </trkpt>
      <trkpt lat="47.3697" lon="6.49538">
        <ele>285</ele>
        <time>2019-08-17T09:25:39Z</time>
      </trkpt>
      <trkpt lat="47.36967" lon="6.49532">
        <ele>284.9</ele>
        <time>2019-08-17T09:25:40Z</time>
      </trkpt>
      <trkpt lat="47.36965" lon="6.49523">
        <ele>284.8</ele>
        <time>2019-08-17T09:25:41Z</time>
      </trkpt>
      <trkpt lat="47.36962" lon="6.49515">
        <ele>284.7</ele>
        <time>2019-08-17T09:25:42Z</time>
      </trkpt>
      <trkpt lat="47.3696" lon="6.49506">
        <ele>284.6</ele>
        <time>2019-08-17T09:25:43Z</time>
      </trkpt>
      <trkpt lat="47.36958" lon="6.49496">
        <ele>284.6</ele>
        <time>2019-08-17T09:25:44Z</time>
      </trkpt>
      <trkpt lat="47.36955" lon="6.49487">
        <ele>284.5</ele>
        <time>2019-08-17T09:25:45Z</time>
      </trkpt>
      <trkpt lat="47.36952" lon="6.49477">
        <ele>284.4</ele>
        <time>2019-08-17T09:25:46Z</time>
      </trkpt>
      <trkpt lat="47.3695" lon="6.49468">
        <ele>284.4</ele>
        <time>2019-08-17T09:25:47Z</time>
      </trkpt>
      <trkpt lat="47.36948" lon="6.49461">
        <ele>284.3</ele>
        <time>2019-08-17T09:25:48Z</time>
      </trkpt>
      <trkpt lat="47.36945" lon="6.49453">
        <ele>284.3</ele>
        <time>2019-08-17T09:25:49Z</time>
      </trkpt>
      <trkpt lat="47.36942" lon="6.49445">
        <ele>284.2</ele>
        <time>2019-08-17T09:25:50Z</time>
      </trkpt>
      <trkpt lat="47.36939" lon="6.49437">
        <ele>284.2</ele>
        <time>2019-08-17T09:25:51Z</time>
      </trkpt>
      <trkpt lat="47.36936" lon="6.49428">
        <ele>284.2</ele>
        <time>2019-08-17T09:25:52Z</time>
      </trkpt>
      <trkpt lat="47.36932" lon="6.49419">
        <ele>284.2</ele>
        <time>2019-08-17T09:25:53Z</time>
      </trkpt>
      <trkpt lat="47.36929" lon="6.49411">
        <ele>284.1</ele>
        <time>2019-08-17T09:25:54Z</time>
      </trkpt>
      <trkpt lat="47.36925" lon="6.49402">
        <ele>284.1</ele>
        <time>2019-08-17T09:25:55Z</time>
      </trkpt>
      <trkpt lat="47.36922" lon="6.49393">
        <ele>284.1</ele>
        <time>2019-08-17T09:25:56Z</time>
      </trkpt>
      <trkpt lat="47.36919" lon="6.49385">
        <ele>284.1</ele>
        <time>2019-08-17T09:25:57Z</time>
      </trkpt>
      <trkpt lat="47.36916" lon="6.49378">
        <ele>284</ele>
        <time>2019-08-17T09:25:58Z</time>
      </trkpt>
      <trkpt lat="47.36914" lon="6.4937">
        <ele>284</ele>
        <time>2019-08-17T09:25:59Z</time>
      </trkpt>
      <trkpt lat="47.36912" lon="6.49361">
        <ele>284</ele>
        <time>2019-08-17T09:26:00Z</time>
      </trkpt>
      <trkpt lat="47.3691" lon="6.49352">
        <ele>284</ele>
        <time>2019-08-17T09:26:01Z</time>
      </trkpt>
      <trkpt lat="47.36909" lon="6.49345">
        <ele>284</ele>
        <time>2019-08-17T09:26:02Z</time>
      </trkpt>
      <trkpt lat="47.36906" lon="6.49337">
        <ele>284</ele>
        <time>2019-08-17T09:26:03Z</time>
      </trkpt>
      <trkpt lat="47.36904" lon="6.49329">
        <ele>283.9</ele>
        <time>2019-08-17T09:26:04Z</time>
      </trkpt>
      <trkpt lat="47.36902" lon="6.49322">
        <ele>283.9</ele>
        <time>2019-08-17T09:26:05Z</time>
      </trkpt>
      <trkpt lat="47.36899" lon="6.49315">
        <ele>283.9</ele>
        <time>2019-08-17T09:26:06Z</time>
      </trkpt>
      <trkpt lat="47.36897" lon="6.49307">
        <ele>283.9</ele>
        <time>2019-08-17T09:26:07Z</time>
      </trkpt>
      <trkpt lat="47.36895" lon="6.49297">
        <ele>283.9</ele>
        <time>2019-08-17T09:26:08Z</time>
      </trkpt>
      <trkpt lat="47.36892" lon="6.49291">
        <ele>283.9</ele>
        <time>2019-08-17T09:26:09Z</time>
      </trkpt>
      <trkpt lat="47.3689" lon="6.49282">
        <ele>283.9</ele>
        <time>2019-08-17T09:26:10Z</time>
      </trkpt>
      <trkpt lat="47.36888" lon="6.49274">
        <ele>283.8</ele>
        <time>2019-08-17T09:26:11Z</time>
      </trkpt>
      <trkpt lat="47.36885" lon="6.49267">
        <ele>283.8</ele>
        <time>2019-08-17T09:26:12Z</time>
      </trkpt>
      <trkpt lat="47.36882" lon="6.4926">
        <ele>283.8</ele>
        <time>2019-08-17T09:26:13Z</time>
      </trkpt>
      <trkpt lat="47.36879" lon="6.49253">
        <ele>283.8</ele>
        <time>2019-08-17T09:26:14Z</time>
      </trkpt>
      <trkpt lat="47.36876" lon="6.49245">
        <ele>283.8</ele>
        <time>2019-08-17T09:26:15Z</time>
      </trkpt>
      <trkpt lat="47.36873" lon="6.49236">
        <ele>283.4</ele>
        <time>2019-08-17T09:26:16Z</time>
      </trkpt>
      <trkpt lat="47.3687" lon="6.49227">
        <ele>283.2</ele>
        <time>2019-08-17T09:26:17Z</time>
      </trkpt>
      <trkpt lat="47.36867" lon="6.49219">
        <ele>283.2</ele>
        <time>2019-08-17T09:26:18Z</time>
      </trkpt>
      <trkpt lat="47.36863" lon="6.49211">
        <ele>283.1</ele>
        <time>2019-08-17T09:26:19Z</time>
      </trkpt>
      <trkpt lat="47.36861" lon="6.49203">
        <ele>283.2</ele>
        <time>2019-08-17T09:26:20Z</time>
      </trkpt>
      <trkpt lat="47.36858" lon="6.49195">
        <ele>283.6</ele>
        <time>2019-08-17T09:26:21Z</time>
      </trkpt>
      <trkpt lat="47.36856" lon="6.49187">
        <ele>283.6</ele>
        <time>2019-08-17T09:26:22Z</time>
      </trkpt>
      <trkpt lat="47.36853" lon="6.49178">
        <ele>283.6</ele>
        <time>2019-08-17T09:26:23Z</time>
      </trkpt>
      <trkpt lat="47.36851" lon="6.4917">
        <ele>283.6</ele>
        <time>2019-08-17T09:26:24Z</time>
      </trkpt>
      <trkpt lat="47.36848" lon="6.49162">
        <ele>283.6</ele>
        <time>2019-08-17T09:26:25Z</time>
      </trkpt>
      <trkpt lat="47.36845" lon="6.49154">
        <ele>283.5</ele>
        <time>2019-08-17T09:26:26Z</time>
      </trkpt>
      <trkpt lat="47.36842" lon="6.49146">
        <ele>283.5</ele>
        <time>2019-08-17T09:26:27Z</time>
      </trkpt>
      <trkpt lat="47.36841" lon="6.49139">
        <ele>283.5</ele>
        <time>2019-08-17T09:26:28Z</time>
      </trkpt>
      <trkpt lat="47.36839" lon="6.49129">
        <ele>283.4</ele>
        <time>2019-08-17T09:26:29Z</time>
      </trkpt>
      <trkpt lat="47.36838" lon="6.49119">
        <ele>283.4</ele>
        <time>2019-08-17T09:26:30Z</time>
      </trkpt>
      <trkpt lat="47.36838" lon="6.49111">
        <ele>283.4</ele>
        <time>2019-08-17T09:26:31Z</time>
      </trkpt>
      <trkpt lat="47.36838" lon="6.49101">
        <ele>283.4</ele>
        <time>2019-08-17T09:26:32Z</time>
      </trkpt>
      <trkpt lat="47.36838" lon="6.49093">
        <ele>283.4</ele>
        <time>2019-08-17T09:26:33Z</time>
      </trkpt>
      <trkpt lat="47.36836" lon="6.49087">
        <ele>283.4</ele>
        <time>2019-08-17T09:26:34Z</time>
      </trkpt>
      <trkpt lat="47.36834" lon="6.49079">
        <ele>283.4</ele>
        <time>2019-08-17T09:26:35Z</time>
      </trkpt>
      <trkpt lat="47.36832" lon="6.49072">
        <ele>283.3</ele>
        <time>2019-08-17T09:26:36Z</time>
      </trkpt>
      <trkpt lat="47.3683" lon="6.49063">
        <ele>283.3</ele>
        <time>2019-08-17T09:26:37Z</time>
      </trkpt>
      <trkpt lat="47.36829" lon="6.49054">
        <ele>283.3</ele>
        <time>2019-08-17T09:26:38Z</time>
      </trkpt>
      <trkpt lat="47.36827" lon="6.49046">
        <ele>283.3</ele>
        <time>2019-08-17T09:26:39Z</time>
      </trkpt>
      <trkpt lat="47.36825" lon="6.49039">
        <ele>283.3</ele>
        <time>2019-08-17T09:26:40Z</time>
      </trkpt>
      <trkpt lat="47.36822" lon="6.49029">
        <ele>283.3</ele>
        <time>2019-08-17T09:26:41Z</time>
      </trkpt>
      <trkpt lat="47.36821" lon="6.49021">
        <ele>283.3</ele>
        <time>2019-08-17T09:26:42Z</time>
      </trkpt>
      <trkpt lat="47.36819" lon="6.49015">
        <ele>283.2</ele>
        <time>2019-08-17T09:26:43Z</time>
      </trkpt>
      <trkpt lat="47.36817" lon="6.49008">
        <ele>283.2</ele>
        <time>2019-08-17T09:26:44Z</time>
      </trkpt>
      <trkpt lat="47.36815" lon="6.49001">
        <ele>283.2</ele>
        <time>2019-08-17T09:26:45Z</time>
      </trkpt>
      <trkpt lat="47.36813" lon="6.48994">
        <ele>283.2</ele>
        <time>2019-08-17T09:26:46Z</time>
      </trkpt>
      <trkpt lat="47.36811" lon="6.48987">
        <ele>283.2</ele>
        <time>2019-08-17T09:26:47Z</time>
      </trkpt>
      <trkpt lat="47.36809" lon="6.48979">
        <ele>283.2</ele>
        <time>2019-08-17T09:26:48Z</time>
      </trkpt>
      <trkpt lat="47.36807" lon="6.48972">
        <ele>283.2</ele>
        <time>2019-08-17T09:26:49Z</time>
      </trkpt>
      <trkpt lat="47.36804" lon="6.48963">
        <ele>283.2</ele>
        <time>2019-08-17T09:26:50Z</time>
      </trkpt>
      <trkpt lat="47.36802" lon="6.48954">
        <ele>283.1</ele>
        <time>2019-08-17T09:26:51Z</time>
      </trkpt>
      <trkpt lat="47.368" lon="6.48946">
        <ele>283.1</ele>
        <time>2019-08-17T09:26:52Z</time>
      </trkpt>
      <trkpt lat="47.36797" lon="6.48939">
        <ele>283.1</ele>
        <time>2019-08-17T09:26:53Z</time>
      </trkpt>
      <trkpt lat="47.36796" lon="6.48931">
        <ele>283.1</ele>
        <time>2019-08-17T09:26:54Z</time>
      </trkpt>
      <trkpt lat="47.36794" lon="6.48924">
        <ele>283.1</ele>
        <time>2019-08-17T09:26:55Z</time>
      </trkpt>
      <trkpt lat="47.36792" lon="6.48918">
        <ele>283.1</ele>
        <time>2019-08-17T09:26:56Z</time>
      </trkpt>
      <trkpt lat="47.36791" lon="6.4891">
        <ele>283.1</ele>
        <time>2019-08-17T09:26:57Z</time>
      </trkpt>
      <trkpt lat="47.3679" lon="6.48903">
        <ele>283.1</ele>
        <time>2019-08-17T09:26:58Z</time>
      </trkpt>
      <trkpt lat="47.36789" lon="6.48897">
        <ele>283.1</ele>
        <time>2019-08-17T09:26:59Z</time>
      </trkpt>
      <trkpt lat="47.36788" lon="6.48889">
        <ele>283</ele>
        <time>2019-08-17T09:27:00Z</time>
      </trkpt>
      <trkpt lat="47.36787" lon="6.4888">
        <ele>283</ele>
        <time>2019-08-17T09:27:01Z</time>
      </trkpt>
      <trkpt lat="47.36787" lon="6.48871">
        <ele>283</ele>
        <time>2019-08-17T09:27:02Z</time>
      </trkpt>
      <trkpt lat="47.36787" lon="6.48864">
        <ele>283</ele>
        <time>2019-08-17T09:27:03Z</time>
      </trkpt>
      <trkpt lat="47.36788" lon="6.48856">
        <ele>283.1</ele>
        <time>2019-08-17T09:27:04Z</time>
      </trkpt>
      <trkpt lat="47.36789" lon="6.48849">
        <ele>283.1</ele>
        <time>2019-08-17T09:27:05Z</time>
      </trkpt>
      <trkpt lat="47.3679" lon="6.4884">
        <ele>283.1</ele>
        <time>2019-08-17T09:27:06Z</time>
      </trkpt>
      <trkpt lat="47.36791" lon="6.48833">
        <ele>283.2</ele>
        <time>2019-08-17T09:27:07Z</time>
      </trkpt>
      <trkpt lat="47.36791" lon="6.48826">
        <ele>283.2</ele>
        <time>2019-08-17T09:27:08Z</time>
      </trkpt>
      <trkpt lat="47.36791" lon="6.48819">
        <ele>283.3</ele>
        <time>2019-08-17T09:27:09Z</time>
      </trkpt>
      <trkpt lat="47.36791" lon="6.48812">
        <ele>283.4</ele>
        <time>2019-08-17T09:27:10Z</time>
      </trkpt>
      <trkpt lat="47.36791" lon="6.48806">
        <ele>283.5</ele>
        <time>2019-08-17T09:27:11Z</time>
      </trkpt>
      <trkpt lat="47.3679" lon="6.48798">
        <ele>283.7</ele>
        <time>2019-08-17T09:27:12Z</time>
      </trkpt>
      <trkpt lat="47.36789" lon="6.4879">
        <ele>283.9</ele>
        <time>2019-08-17T09:27:13Z</time>
      </trkpt>
      <trkpt lat="47.36788" lon="6.48783">
        <ele>284.1</ele>
        <time>2019-08-17T09:27:14Z</time>
      </trkpt>
      <trkpt lat="47.36787" lon="6.48777">
        <ele>284.3</ele>
        <time>2019-08-17T09:27:15Z</time>
      </trkpt>
      <trkpt lat="47.36786" lon="6.48769">
        <ele>284.6</ele>
        <time>2019-08-17T09:27:16Z</time>
      </trkpt>
      <trkpt lat="47.36785" lon="6.48762">
        <ele>284.9</ele>
        <time>2019-08-17T09:27:17Z</time>
      </trkpt>
      <trkpt lat="47.36784" lon="6.48756">
        <ele>285.2</ele>
        <time>2019-08-17T09:27:18Z</time>
      </trkpt>
      <trkpt lat="47.36784" lon="6.48749">
        <ele>285.4</ele>
        <time>2019-08-17T09:27:19Z</time>
      </trkpt>
      <trkpt lat="47.36783" lon="6.48744">
        <ele>285.8</ele>
        <time>2019-08-17T09:27:20Z</time>
      </trkpt>
      <trkpt lat="47.36783" lon="6.48738">
        <ele>285.8</ele>
        <time>2019-08-17T09:27:21Z</time>
      </trkpt>
      <trkpt lat="47.36782" lon="6.48733">
        <ele>285.7</ele>
        <time>2019-08-17T09:27:22Z</time>
      </trkpt>
      <trkpt lat="47.3678" lon="6.48725">
        <ele>285.7</ele>
        <time>2019-08-17T09:27:24Z</time>
      </trkpt>
      <trkpt lat="47.36779" lon="6.48717">
        <ele>285.6</ele>
        <time>2019-08-17T09:27:26Z</time>
      </trkpt>
      <trkpt lat="47.36779" lon="6.4871">
        <ele>285.5</ele>
        <time>2019-08-17T09:27:28Z</time>
      </trkpt>
      <trkpt lat="47.36778" lon="6.48706">
        <ele>285.5</ele>
        <time>2019-08-17T09:27:29Z</time>
      </trkpt>
      <trkpt lat="47.36778" lon="6.48702">
        <ele>285.5</ele>
        <time>2019-08-17T09:27:30Z</time>
      </trkpt>
      <trkpt lat="47.36777" lon="6.48697">
        <ele>285.4</ele>
        <time>2019-08-17T09:27:31Z</time>
      </trkpt>
      <trkpt lat="47.36777" lon="6.48693">
        <ele>285.4</ele>
        <time>2019-08-17T09:27:32Z</time>
      </trkpt>
      <trkpt lat="47.36776" lon="6.48687">
        <ele>285.4</ele>
        <time>2019-08-17T09:27:34Z</time>
      </trkpt>
      <trkpt lat="47.36776" lon="6.48681">
        <ele>285.3</ele>
        <time>2019-08-17T09:27:36Z</time>
      </trkpt>
      <trkpt lat="47.36776" lon="6.48674">
        <ele>285.3</ele>
        <time>2019-08-17T09:27:38Z</time>
      </trkpt>
      <trkpt lat="47.36775" lon="6.48669">
        <ele>285.3</ele>
        <time>2019-08-17T09:27:39Z</time>
      </trkpt>
      <trkpt lat="47.36775" lon="6.48662">
        <ele>285.2</ele>
        <time>2019-08-17T09:27:41Z</time>
      </trkpt>
      <trkpt lat="47.36775" lon="6.48655">
        <ele>285.2</ele>
        <time>2019-08-17T09:27:43Z</time>
      </trkpt>
      <trkpt lat="47.36776" lon="6.4865">
        <ele>285.2</ele>
        <time>2019-08-17T09:27:44Z</time>
      </trkpt>
      <trkpt lat="47.36777" lon="6.48646">
        <ele>285.2</ele>
        <time>2019-08-17T09:27:45Z</time>
      </trkpt>
      <trkpt lat="47.36778" lon="6.48639">
        <ele>285.2</ele>
        <time>2019-08-17T09:27:47Z</time>
      </trkpt>
      <trkpt lat="47.36779" lon="6.48632">
        <ele>285.2</ele>
        <time>2019-08-17T09:27:49Z</time>
      </trkpt>
      <trkpt lat="47.36779" lon="6.48628">
        <ele>285.2</ele>
        <time>2019-08-17T09:27:50Z</time>
      </trkpt>
      <trkpt lat="47.3678" lon="6.48623">
        <ele>285.2</ele>
        <time>2019-08-17T09:27:51Z</time>
      </trkpt>
      <trkpt lat="47.3678" lon="6.48616">
        <ele>285.2</ele>
        <time>2019-08-17T09:27:53Z</time>
      </trkpt>
      <trkpt lat="47.36779" lon="6.48611">
        <ele>285.2</ele>
        <time>2019-08-17T09:27:54Z</time>
      </trkpt>
      <trkpt lat="47.36779" lon="6.48604">
        <ele>285.2</ele>
        <time>2019-08-17T09:27:56Z</time>
      </trkpt>
      <trkpt lat="47.3678" lon="6.48597">
        <ele>285.3</ele>
        <time>2019-08-17T09:27:58Z</time>
      </trkpt>
      <trkpt lat="47.3678" lon="6.4859">
        <ele>285.4</ele>
        <time>2019-08-17T09:28:00Z</time>
      </trkpt>
      <trkpt lat="47.3678" lon="6.48583">
        <ele>285.4</ele>
        <time>2019-08-17T09:28:02Z</time>
      </trkpt>
      <trkpt lat="47.36779" lon="6.48576">
        <ele>285.5</ele>
        <time>2019-08-17T09:28:04Z</time>
      </trkpt>
      <trkpt lat="47.36778" lon="6.48569">
        <ele>285.6</ele>
        <time>2019-08-17T09:28:06Z</time>
      </trkpt>
      <trkpt lat="47.36778" lon="6.4856">
        <ele>285.8</ele>
        <time>2019-08-17T09:28:08Z</time>
      </trkpt>
      <trkpt lat="47.36779" lon="6.48556">
        <ele>285.9</ele>
        <time>2019-08-17T09:28:09Z</time>
      </trkpt>
      <trkpt lat="47.3678" lon="6.48549">
        <ele>286</ele>
        <time>2019-08-17T09:28:11Z</time>
      </trkpt>
      <trkpt lat="47.3678" lon="6.48542">
        <ele>286.2</ele>
        <time>2019-08-17T09:28:13Z</time>
      </trkpt>
      <trkpt lat="47.36781" lon="6.48535">
        <ele>286.3</ele>
        <time>2019-08-17T09:28:15Z</time>
      </trkpt>
      <trkpt lat="47.36782" lon="6.48528">
        <ele>286.6</ele>
        <time>2019-08-17T09:28:17Z</time>
      </trkpt>
      <trkpt lat="47.36782" lon="6.48523">
        <ele>286.7</ele>
        <time>2019-08-17T09:28:18Z</time>
      </trkpt>
      <trkpt lat="47.36782" lon="6.48519">
        <ele>286.8</ele>
        <time>2019-08-17T09:28:19Z</time>
      </trkpt>
      <trkpt lat="47.36782" lon="6.48512">
        <ele>287</ele>
        <time>2019-08-17T09:28:21Z</time>
      </trkpt>
      <trkpt lat="47.36781" lon="6.48504">
        <ele>287.2</ele>
        <time>2019-08-17T09:28:23Z</time>
      </trkpt>
      <trkpt lat="47.36782" lon="6.48499">
        <ele>287.4</ele>
        <time>2019-08-17T09:28:24Z</time>
      </trkpt>
      <trkpt lat="47.36782" lon="6.48494">
        <ele>287.6</ele>
        <time>2019-08-17T09:28:25Z</time>
      </trkpt>
      <trkpt lat="47.36781" lon="6.48489">
        <ele>287.7</ele>
        <time>2019-08-17T09:28:26Z</time>
      </trkpt>
      <trkpt lat="47.36781" lon="6.48484">
        <ele>288</ele>
        <time>2019-08-17T09:28:27Z</time>
      </trkpt>
      <trkpt lat="47.36781" lon="6.4848">
        <ele>288.1</ele>
        <time>2019-08-17T09:28:28Z</time>
      </trkpt>
      <trkpt lat="47.3678" lon="6.48475">
        <ele>288.3</ele>
        <time>2019-08-17T09:28:29Z</time>
      </trkpt>
      <trkpt lat="47.36779" lon="6.48471">
        <ele>288.5</ele>
        <time>2019-08-17T09:28:30Z</time>
      </trkpt>
      <trkpt lat="47.36778" lon="6.48464">
        <ele>288.8</ele>
        <time>2019-08-17T09:28:32Z</time>
      </trkpt>
      <trkpt lat="47.36778" lon="6.4846">
        <ele>289</ele>
        <time>2019-08-17T09:28:33Z</time>
      </trkpt>
      <trkpt lat="47.36777" lon="6.48452">
        <ele>289.3</ele>
        <time>2019-08-17T09:28:35Z</time>
      </trkpt>
      <trkpt lat="47.36777" lon="6.48446">
        <ele>289.7</ele>
        <time>2019-08-17T09:28:37Z</time>
      </trkpt>
      <trkpt lat="47.36776" lon="6.48441">
        <ele>289.9</ele>
        <time>2019-08-17T09:28:39Z</time>
      </trkpt>
      <trkpt lat="47.36774" lon="6.48436">
        <ele>290.2</ele>
        <time>2019-08-17T09:28:41Z</time>
      </trkpt>
      <trkpt lat="47.36773" lon="6.4843">
        <ele>290.5</ele>
        <time>2019-08-17T09:28:43Z</time>
      </trkpt>
      <trkpt lat="47.36771" lon="6.48425">
        <ele>290.8</ele>
        <time>2019-08-17T09:28:45Z</time>
      </trkpt>
      <trkpt lat="47.36769" lon="6.48419">
        <ele>291.1</ele>
        <time>2019-08-17T09:28:47Z</time>
      </trkpt>
      <trkpt lat="47.36768" lon="6.48413">
        <ele>291.5</ele>
        <time>2019-08-17T09:28:49Z</time>
      </trkpt>
      <trkpt lat="47.36766" lon="6.48407">
        <ele>291.8</ele>
        <time>2019-08-17T09:28:51Z</time>
      </trkpt>
      <trkpt lat="47.36763" lon="6.48401">
        <ele>292.2</ele>
        <time>2019-08-17T09:28:53Z</time>
      </trkpt>
      <trkpt lat="47.36761" lon="6.48395">
        <ele>292.6</ele>
        <time>2019-08-17T09:28:55Z</time>
      </trkpt>
      <trkpt lat="47.36759" lon="6.48388">
        <ele>293</ele>
        <time>2019-08-17T09:28:57Z</time>
      </trkpt>
      <trkpt lat="47.36757" lon="6.48383">
        <ele>293.4</ele>
        <time>2019-08-17T09:28:59Z</time>
      </trkpt>
      <trkpt lat="47.36754" lon="6.4838">
        <ele>293.7</ele>
        <time>2019-08-17T09:29:01Z</time>
      </trkpt>
      <trkpt lat="47.36752" lon="6.48376">
        <ele>294</ele>
        <time>2019-08-17T09:29:04Z</time>
      </trkpt>
      <trkpt lat="47.36749" lon="6.48374">
        <ele>294.3</ele>
        <time>2019-08-17T09:29:08Z</time>
      </trkpt>
      <trkpt lat="47.36748" lon="6.48371">
        <ele>294.5</ele>
        <time>2019-08-17T09:29:12Z</time>
      </trkpt>
      <trkpt lat="47.36745" lon="6.48372">
        <ele>294.8</ele>
        <time>2019-08-17T09:29:15Z</time>
      </trkpt>
      <trkpt lat="47.36742" lon="6.48373">
        <ele>295</ele>
        <time>2019-08-17T09:29:17Z</time>
      </trkpt>
      <trkpt lat="47.36739" lon="6.48371">
        <ele>295.3</ele>
        <time>2019-08-17T09:29:23Z</time>
      </trkpt>
      <trkpt lat="47.36734" lon="6.48365">
        <ele>296</ele>
        <time>2019-08-17T09:29:44Z</time>
      </trkpt>
      <trkpt lat="47.36732" lon="6.48362">
        <ele>296.3</ele>
        <time>2019-08-17T09:29:46Z</time>
      </trkpt>
      <trkpt lat="47.3673" lon="6.48356">
        <ele>296.7</ele>
        <time>2019-08-17T09:29:48Z</time>
      </trkpt>
      <trkpt lat="47.36729" lon="6.48349">
        <ele>297.4</ele>
        <time>2019-08-17T09:29:50Z</time>
      </trkpt>
      <trkpt lat="47.36728" lon="6.48345">
        <ele>297.5</ele>
        <time>2019-08-17T09:29:51Z</time>
      </trkpt>
      <trkpt lat="47.36727" lon="6.4834">
        <ele>297.7</ele>
        <time>2019-08-17T09:29:52Z</time>
      </trkpt>
      <trkpt lat="47.36726" lon="6.48336">
        <ele>297.8</ele>
        <time>2019-08-17T09:29:53Z</time>
      </trkpt>
      <trkpt lat="47.36726" lon="6.48331">
        <ele>297.9</ele>
        <time>2019-08-17T09:29:54Z</time>
      </trkpt>
      <trkpt lat="47.36726" lon="6.48327">
        <ele>298</ele>
        <time>2019-08-17T09:29:55Z</time>
      </trkpt>
      <trkpt lat="47.36726" lon="6.48319">
        <ele>298.2</ele>
        <time>2019-08-17T09:29:57Z</time>
      </trkpt>
      <trkpt lat="47.36726" lon="6.48314">
        <ele>298.3</ele>
        <time>2019-08-17T09:29:58Z</time>
      </trkpt>
      <trkpt lat="47.36726" lon="6.4831">
        <ele>298.4</ele>
        <time>2019-08-17T09:29:59Z</time>
      </trkpt>
      <trkpt lat="47.36727" lon="6.48303">
        <ele>298.6</ele>
        <time>2019-08-17T09:30:01Z</time>
      </trkpt>
      <trkpt lat="47.36727" lon="6.48297">
        <ele>298.8</ele>
        <time>2019-08-17T09:30:03Z</time>
      </trkpt>
      <trkpt lat="47.36728" lon="6.4829">
        <ele>299</ele>
        <time>2019-08-17T09:30:05Z</time>
      </trkpt>
      <trkpt lat="47.3673" lon="6.48283">
        <ele>299.2</ele>
        <time>2019-08-17T09:30:07Z</time>
      </trkpt>
      <trkpt lat="47.36732" lon="6.4828">
        <ele>299.3</ele>
        <time>2019-08-17T09:30:08Z</time>
      </trkpt>
      <trkpt lat="47.36734" lon="6.48273">
        <ele>299.5</ele>
        <time>2019-08-17T09:30:10Z</time>
      </trkpt>
      <trkpt lat="47.36736" lon="6.48266">
        <ele>299.6</ele>
        <time>2019-08-17T09:30:12Z</time>
      </trkpt>
      <trkpt lat="47.36738" lon="6.48262">
        <ele>299.7</ele>
        <time>2019-08-17T09:30:13Z</time>
      </trkpt>
      <trkpt lat="47.3674" lon="6.48256">
        <ele>299.9</ele>
        <time>2019-08-17T09:30:15Z</time>
      </trkpt>
      <trkpt lat="47.36743" lon="6.48249">
        <ele>300.1</ele>
        <time>2019-08-17T09:30:17Z</time>
      </trkpt>
      <trkpt lat="47.36745" lon="6.48245">
        <ele>300.3</ele>
        <time>2019-08-17T09:30:18Z</time>
      </trkpt>
      <trkpt lat="47.36747" lon="6.48239">
        <ele>300.4</ele>
        <time>2019-08-17T09:30:20Z</time>
      </trkpt>
      <trkpt lat="47.36749" lon="6.48235">
        <ele>300.5</ele>
        <time>2019-08-17T09:30:21Z</time>
      </trkpt>
      <trkpt lat="47.3675" lon="6.48227">
        <ele>300.7</ele>
        <time>2019-08-17T09:30:23Z</time>
      </trkpt>
      <trkpt lat="47.36752" lon="6.48221">
        <ele>300.9</ele>
        <time>2019-08-17T09:30:25Z</time>
      </trkpt>
      <trkpt lat="47.36754" lon="6.48214">
        <ele>301.1</ele>
        <time>2019-08-17T09:30:27Z</time>
      </trkpt>
      <trkpt lat="47.36756" lon="6.48209">
        <ele>301.4</ele>
        <time>2019-08-17T09:30:29Z</time>
      </trkpt>
      <trkpt lat="47.36757" lon="6.48205">
        <ele>301.7</ele>
        <time>2019-08-17T09:30:31Z</time>
      </trkpt>
      <trkpt lat="47.36759" lon="6.48202">
        <ele>302</ele>
        <time>2019-08-17T09:30:33Z</time>
      </trkpt>
      <trkpt lat="47.36762" lon="6.48198">
        <ele>302.3</ele>
        <time>2019-08-17T09:30:36Z</time>
      </trkpt>
      <trkpt lat="47.36763" lon="6.48193">
        <ele>302.6</ele>
        <time>2019-08-17T09:30:38Z</time>
      </trkpt>
      <trkpt lat="47.36765" lon="6.48186">
        <ele>303.1</ele>
        <time>2019-08-17T09:30:40Z</time>
      </trkpt>
      <trkpt lat="47.36766" lon="6.48177">
        <ele>303.7</ele>
        <time>2019-08-17T09:30:42Z</time>
      </trkpt>
      <trkpt lat="47.36767" lon="6.48172">
        <ele>304.2</ele>
        <time>2019-08-17T09:30:43Z</time>
      </trkpt>
      <trkpt lat="47.36768" lon="6.48166">
        <ele>304.5</ele>
        <time>2019-08-17T09:30:44Z</time>
      </trkpt>
      <trkpt lat="47.36769" lon="6.48163">
        <ele>304.7</ele>
        <time>2019-08-17T09:30:45Z</time>
      </trkpt>
      <trkpt lat="47.3677" lon="6.48154">
        <ele>305.1</ele>
        <time>2019-08-17T09:30:47Z</time>
      </trkpt>
      <trkpt lat="47.36771" lon="6.4815">
        <ele>305.4</ele>
        <time>2019-08-17T09:30:48Z</time>
      </trkpt>
      <trkpt lat="47.36771" lon="6.48145">
        <ele>305.6</ele>
        <time>2019-08-17T09:30:49Z</time>
      </trkpt>
      <trkpt lat="47.36772" lon="6.48141">
        <ele>305.8</ele>
        <time>2019-08-17T09:30:50Z</time>
      </trkpt>
      <trkpt lat="47.36772" lon="6.48137">
        <ele>306</ele>
        <time>2019-08-17T09:30:51Z</time>
      </trkpt>
      <trkpt lat="47.36772" lon="6.48133">
        <ele>306.1</ele>
        <time>2019-08-17T09:30:52Z</time>
      </trkpt>
      <trkpt lat="47.36773" lon="6.48129">
        <ele>306.3</ele>
        <time>2019-08-17T09:30:53Z</time>
      </trkpt>
      <trkpt lat="47.36773" lon="6.48124">
        <ele>306.5</ele>
        <time>2019-08-17T09:30:54Z</time>
      </trkpt>
      <trkpt lat="47.36774" lon="6.4812">
        <ele>306.6</ele>
        <time>2019-08-17T09:30:55Z</time>
      </trkpt>
      <trkpt lat="47.36775" lon="6.48115">
        <ele>306.8</ele>
        <time>2019-08-17T09:30:56Z</time>
      </trkpt>
      <trkpt lat="47.36776" lon="6.48111">
        <ele>306.9</ele>
        <time>2019-08-17T09:30:57Z</time>
      </trkpt>
      <trkpt lat="47.36776" lon="6.48106">
        <ele>307</ele>
        <time>2019-08-17T09:30:58Z</time>
      </trkpt>
      <trkpt lat="47.36776" lon="6.481">
        <ele>307.1</ele>
        <time>2019-08-17T09:30:59Z</time>
      </trkpt>
      <trkpt lat="47.36777" lon="6.48095">
        <ele>307.2</ele>
        <time>2019-08-17T09:31:00Z</time>
      </trkpt>
      <trkpt lat="47.36777" lon="6.48089">
        <ele>307.2</ele>
        <time>2019-08-17T09:31:01Z</time>
      </trkpt>
      <trkpt lat="47.36777" lon="6.48084">
        <ele>307.3</ele>
        <time>2019-08-17T09:31:02Z</time>
      </trkpt>
      <trkpt lat="47.36777" lon="6.48079">
        <ele>307.5</ele>
        <time>2019-08-17T09:31:03Z</time>
      </trkpt>
      <trkpt lat="47.36776" lon="6.48074">
        <ele>307.6</ele>
        <time>2019-08-17T09:31:04Z</time>
      </trkpt>
      <trkpt lat="47.36776" lon="6.48068">
        <ele>307.7</ele>
        <time>2019-08-17T09:31:05Z</time>
      </trkpt>
      <trkpt lat="47.36777" lon="6.48062">
        <ele>307.8</ele>
        <time>2019-08-17T09:31:06Z</time>
      </trkpt>
      <trkpt lat="47.36777" lon="6.48055">
        <ele>307.9</ele>
        <time>2019-08-17T09:31:07Z</time>
      </trkpt>
      <trkpt lat="47.36777" lon="6.48049">
        <ele>308</ele>
        <time>2019-08-17T09:31:08Z</time>
      </trkpt>
      <trkpt lat="47.36777" lon="6.48044">
        <ele>308.1</ele>
        <time>2019-08-17T09:31:09Z</time>
      </trkpt>
      <trkpt lat="47.36777" lon="6.48038">
        <ele>308.2</ele>
        <time>2019-08-17T09:31:10Z</time>
      </trkpt>
      <trkpt lat="47.36777" lon="6.48032">
        <ele>308.3</ele>
        <time>2019-08-17T09:31:11Z</time>
      </trkpt>
      <trkpt lat="47.36776" lon="6.48027">
        <ele>308.3</ele>
        <time>2019-08-17T09:31:12Z</time>
      </trkpt>
      <trkpt lat="47.36776" lon="6.48021">
        <ele>308.4</ele>
        <time>2019-08-17T09:31:13Z</time>
      </trkpt>
      <trkpt lat="47.36775" lon="6.48016">
        <ele>308.5</ele>
        <time>2019-08-17T09:31:14Z</time>
      </trkpt>
      <trkpt lat="47.36775" lon="6.48011">
        <ele>308.6</ele>
        <time>2019-08-17T09:31:15Z</time>
      </trkpt>
      <trkpt lat="47.36775" lon="6.48006">
        <ele>308.6</ele>
        <time>2019-08-17T09:31:16Z</time>
      </trkpt>
      <trkpt lat="47.36774" lon="6.48001">
        <ele>308.7</ele>
        <time>2019-08-17T09:31:17Z</time>
      </trkpt>
      <trkpt lat="47.36773" lon="6.47997">
        <ele>308.8</ele>
        <time>2019-08-17T09:31:18Z</time>
      </trkpt>
      <trkpt lat="47.36771" lon="6.47992">
        <ele>308.9</ele>
        <time>2019-08-17T09:31:19Z</time>
      </trkpt>
      <trkpt lat="47.36769" lon="6.47989">
        <ele>309</ele>
        <time>2019-08-17T09:31:20Z</time>
      </trkpt>
      <trkpt lat="47.36767" lon="6.47985">
        <ele>309.1</ele>
        <time>2019-08-17T09:31:21Z</time>
      </trkpt>
      <trkpt lat="47.36765" lon="6.47981">
        <ele>309.2</ele>
        <time>2019-08-17T09:31:22Z</time>
      </trkpt>
      <trkpt lat="47.36763" lon="6.47978">
        <ele>309.4</ele>
        <time>2019-08-17T09:31:23Z</time>
      </trkpt>
      <trkpt lat="47.36762" lon="6.47974">
        <ele>309.5</ele>
        <time>2019-08-17T09:31:24Z</time>
      </trkpt>
      <trkpt lat="47.36761" lon="6.4797">
        <ele>309.6</ele>
        <time>2019-08-17T09:31:25Z</time>
      </trkpt>
      <trkpt lat="47.36758" lon="6.47963">
        <ele>309.7</ele>
        <time>2019-08-17T09:31:27Z</time>
      </trkpt>
      <trkpt lat="47.36758" lon="6.47959">
        <ele>309.7</ele>
        <time>2019-08-17T09:31:28Z</time>
      </trkpt>
      <trkpt lat="47.36756" lon="6.47952">
        <ele>309.8</ele>
        <time>2019-08-17T09:31:30Z</time>
      </trkpt>
      <trkpt lat="47.36756" lon="6.47947">
        <ele>309.9</ele>
        <time>2019-08-17T09:31:31Z</time>
      </trkpt>
      <trkpt lat="47.36755" lon="6.47943">
        <ele>309.9</ele>
        <time>2019-08-17T09:31:32Z</time>
      </trkpt>
      <trkpt lat="47.36754" lon="6.4794">
        <ele>310</ele>
        <time>2019-08-17T09:31:33Z</time>
      </trkpt>
      <trkpt lat="47.36753" lon="6.47935">
        <ele>310</ele>
        <time>2019-08-17T09:31:34Z</time>
      </trkpt>
      <trkpt lat="47.36752" lon="6.47931">
        <ele>310.1</ele>
        <time>2019-08-17T09:31:35Z</time>
      </trkpt>
      <trkpt lat="47.36751" lon="6.47926">
        <ele>310.1</ele>
        <time>2019-08-17T09:31:36Z</time>
      </trkpt>
      <trkpt lat="47.36751" lon="6.47922">
        <ele>310.3</ele>
        <time>2019-08-17T09:31:37Z</time>
      </trkpt>
      <trkpt lat="47.3675" lon="6.47917">
        <ele>310.4</ele>
        <time>2019-08-17T09:31:38Z</time>
      </trkpt>
      <trkpt lat="47.36749" lon="6.47914">
        <ele>310.4</ele>
        <time>2019-08-17T09:31:39Z</time>
      </trkpt>
      <trkpt lat="47.36748" lon="6.4791">
        <ele>310.5</ele>
        <time>2019-08-17T09:31:40Z</time>
      </trkpt>
      <trkpt lat="47.36747" lon="6.47906">
        <ele>310.5</ele>
        <time>2019-08-17T09:31:41Z</time>
      </trkpt>
      <trkpt lat="47.36746" lon="6.47901">
        <ele>310.6</ele>
        <time>2019-08-17T09:31:42Z</time>
      </trkpt>
      <trkpt lat="47.36746" lon="6.47898">
        <ele>310.7</ele>
        <time>2019-08-17T09:31:43Z</time>
      </trkpt>
      <trkpt lat="47.36745" lon="6.47891">
        <ele>310.7</ele>
        <time>2019-08-17T09:31:45Z</time>
      </trkpt>
      <trkpt lat="47.36744" lon="6.47885">
        <ele>311</ele>
        <time>2019-08-17T09:31:47Z</time>
      </trkpt>
      <trkpt lat="47.36743" lon="6.47879">
        <ele>311.3</ele>
        <time>2019-08-17T09:31:49Z</time>
      </trkpt>
      <trkpt lat="47.36742" lon="6.47873">
        <ele>311.5</ele>
        <time>2019-08-17T09:31:51Z</time>
      </trkpt>
      <trkpt lat="47.36741" lon="6.47867">
        <ele>311.8</ele>
        <time>2019-08-17T09:31:53Z</time>
      </trkpt>
      <trkpt lat="47.3674" lon="6.47863">
        <ele>312</ele>
        <time>2019-08-17T09:31:54Z</time>
      </trkpt>
      <trkpt lat="47.36739" lon="6.47859">
        <ele>312.2</ele>
        <time>2019-08-17T09:31:55Z</time>
      </trkpt>
      <trkpt lat="47.36739" lon="6.47855">
        <ele>312.4</ele>
        <time>2019-08-17T09:31:56Z</time>
      </trkpt>
      <trkpt lat="47.36738" lon="6.47851">
        <ele>312.7</ele>
        <time>2019-08-17T09:31:57Z</time>
      </trkpt>
      <trkpt lat="47.36737" lon="6.47846">
        <ele>312.9</ele>
        <time>2019-08-17T09:31:58Z</time>
      </trkpt>
      <trkpt lat="47.36736" lon="6.47842">
        <ele>313.1</ele>
        <time>2019-08-17T09:31:59Z</time>
      </trkpt>
      <trkpt lat="47.36735" lon="6.47837">
        <ele>313.4</ele>
        <time>2019-08-17T09:32:00Z</time>
      </trkpt>
      <trkpt lat="47.36735" lon="6.47832">
        <ele>313.7</ele>
        <time>2019-08-17T09:32:01Z</time>
      </trkpt>
      <trkpt lat="47.36735" lon="6.47827">
        <ele>314</ele>
        <time>2019-08-17T09:32:02Z</time>
      </trkpt>
      <trkpt lat="47.36735" lon="6.47823">
        <ele>314.2</ele>
        <time>2019-08-17T09:32:03Z</time>
      </trkpt>
      <trkpt lat="47.36734" lon="6.47816">
        <ele>314.7</ele>
        <time>2019-08-17T09:32:05Z</time>
      </trkpt>
      <trkpt lat="47.36734" lon="6.4781">
        <ele>315</ele>
        <time>2019-08-17T09:32:06Z</time>
      </trkpt>
      <trkpt lat="47.36734" lon="6.47805">
        <ele>315.3</ele>
        <time>2019-08-17T09:32:07Z</time>
      </trkpt>
      <trkpt lat="47.36734" lon="6.47801">
        <ele>315.6</ele>
        <time>2019-08-17T09:32:08Z</time>
      </trkpt>
      <trkpt lat="47.36734" lon="6.47795">
        <ele>316</ele>
        <time>2019-08-17T09:32:09Z</time>
      </trkpt>
      <trkpt lat="47.36733" lon="6.47791">
        <ele>316.2</ele>
        <time>2019-08-17T09:32:10Z</time>
      </trkpt>
      <trkpt lat="47.36732" lon="6.47786">
        <ele>316.5</ele>
        <time>2019-08-17T09:32:11Z</time>
      </trkpt>
      <trkpt lat="47.36732" lon="6.47781">
        <ele>316.8</ele>
        <time>2019-08-17T09:32:12Z</time>
      </trkpt>
      <trkpt lat="47.3673" lon="6.47774">
        <ele>317.3</ele>
        <time>2019-08-17T09:32:14Z</time>
      </trkpt>
      <trkpt lat="47.3673" lon="6.47766">
        <ele>317.8</ele>
        <time>2019-08-17T09:32:16Z</time>
      </trkpt>
      <trkpt lat="47.36729" lon="6.47762">
        <ele>318.1</ele>
        <time>2019-08-17T09:32:17Z</time>
      </trkpt>
      <trkpt lat="47.36729" lon="6.47757">
        <ele>318.3</ele>
        <time>2019-08-17T09:32:18Z</time>
      </trkpt>
      <trkpt lat="47.36728" lon="6.47753">
        <ele>318.6</ele>
        <time>2019-08-17T09:32:19Z</time>
      </trkpt>
      <trkpt lat="47.36727" lon="6.47748">
        <ele>318.9</ele>
        <time>2019-08-17T09:32:20Z</time>
      </trkpt>
      <trkpt lat="47.36727" lon="6.47744">
        <ele>319.2</ele>
        <time>2019-08-17T09:32:21Z</time>
      </trkpt>
      <trkpt lat="47.36726" lon="6.4774">
        <ele>319.4</ele>
        <time>2019-08-17T09:32:22Z</time>
      </trkpt>
      <trkpt lat="47.36726" lon="6.47735">
        <ele>319.7</ele>
        <time>2019-08-17T09:32:23Z</time>
      </trkpt>
      <trkpt lat="47.36726" lon="6.4773">
        <ele>319.9</ele>
        <time>2019-08-17T09:32:24Z</time>
      </trkpt>
      <trkpt lat="47.36725" lon="6.47725">
        <ele>320.2</ele>
        <time>2019-08-17T09:32:25Z</time>
      </trkpt>
      <trkpt lat="47.36724" lon="6.47721">
        <ele>320.4</ele>
        <time>2019-08-17T09:32:26Z</time>
      </trkpt>
      <trkpt lat="47.36723" lon="6.47714">
        <ele>320.8</ele>
        <time>2019-08-17T09:32:28Z</time>
      </trkpt>
      <trkpt lat="47.36722" lon="6.47707">
        <ele>321.1</ele>
        <time>2019-08-17T09:32:30Z</time>
      </trkpt>
      <trkpt lat="47.36721" lon="6.47699">
        <ele>321.5</ele>
        <time>2019-08-17T09:32:32Z</time>
      </trkpt>
      <trkpt lat="47.3672" lon="6.47694">
        <ele>321.1</ele>
        <time>2019-08-17T09:32:33Z</time>
      </trkpt>
      <trkpt lat="47.36719" lon="6.4769">
        <ele>321</ele>
        <time>2019-08-17T09:32:34Z</time>
      </trkpt>
      <trkpt lat="47.36718" lon="6.47685">
        <ele>320.8</ele>
        <time>2019-08-17T09:32:35Z</time>
      </trkpt>
      <trkpt lat="47.36718" lon="6.47681">
        <ele>320.7</ele>
        <time>2019-08-17T09:32:36Z</time>
      </trkpt>
      <trkpt lat="47.36718" lon="6.47676">
        <ele>320.5</ele>
        <time>2019-08-17T09:32:37Z</time>
      </trkpt>
      <trkpt lat="47.36718" lon="6.47672">
        <ele>320.3</ele>
        <time>2019-08-17T09:32:38Z</time>
      </trkpt>
      <trkpt lat="47.36718" lon="6.47668">
        <ele>320.2</ele>
        <time>2019-08-17T09:32:39Z</time>
      </trkpt>
      <trkpt lat="47.36718" lon="6.47663">
        <ele>320</ele>
        <time>2019-08-17T09:32:40Z</time>
      </trkpt>
      <trkpt lat="47.36719" lon="6.47656">
        <ele>319.7</ele>
        <time>2019-08-17T09:32:42Z</time>
      </trkpt>
      <trkpt lat="47.3672" lon="6.47648">
        <ele>319.4</ele>
        <time>2019-08-17T09:32:44Z</time>
      </trkpt>
      <trkpt lat="47.36721" lon="6.47644">
        <ele>319.2</ele>
        <time>2019-08-17T09:32:45Z</time>
      </trkpt>
      <trkpt lat="47.36722" lon="6.4764">
        <ele>319</ele>
        <time>2019-08-17T09:32:46Z</time>
      </trkpt>
      <trkpt lat="47.36722" lon="6.47635">
        <ele>318.8</ele>
        <time>2019-08-17T09:32:47Z</time>
      </trkpt>
      <trkpt lat="47.36723" lon="6.47631">
        <ele>318.6</ele>
        <time>2019-08-17T09:32:48Z</time>
      </trkpt>
      <trkpt lat="47.36724" lon="6.47627">
        <ele>318.5</ele>
        <time>2019-08-17T09:32:49Z</time>
      </trkpt>
      <trkpt lat="47.36725" lon="6.47619">
        <ele>318.2</ele>
        <time>2019-08-17T09:32:51Z</time>
      </trkpt>
      <trkpt lat="47.36727" lon="6.47614">
        <ele>318</ele>
        <time>2019-08-17T09:32:52Z</time>
      </trkpt>
      <trkpt lat="47.36728" lon="6.4761">
        <ele>317.8</ele>
        <time>2019-08-17T09:32:53Z</time>
      </trkpt>
      <trkpt lat="47.36729" lon="6.47606">
        <ele>317.6</ele>
        <time>2019-08-17T09:32:54Z</time>
      </trkpt>
      <trkpt lat="47.3673" lon="6.47598">
        <ele>317.3</ele>
        <time>2019-08-17T09:32:56Z</time>
      </trkpt>
      <trkpt lat="47.3673" lon="6.47593">
        <ele>317.1</ele>
        <time>2019-08-17T09:32:57Z</time>
      </trkpt>
      <trkpt lat="47.3673" lon="6.47588">
        <ele>316.9</ele>
        <time>2019-08-17T09:32:58Z</time>
      </trkpt>
      <trkpt lat="47.36731" lon="6.47583">
        <ele>316.7</ele>
        <time>2019-08-17T09:32:59Z</time>
      </trkpt>
      <trkpt lat="47.3673" lon="6.47577">
        <ele>316.4</ele>
        <time>2019-08-17T09:33:00Z</time>
      </trkpt>
      <trkpt lat="47.36729" lon="6.47571">
        <ele>316.2</ele>
        <time>2019-08-17T09:33:01Z</time>
      </trkpt>
      <trkpt lat="47.3673" lon="6.47566">
        <ele>315.9</ele>
        <time>2019-08-17T09:33:02Z</time>
      </trkpt>
      <trkpt lat="47.3673" lon="6.47558">
        <ele>315.6</ele>
        <time>2019-08-17T09:33:04Z</time>
      </trkpt>
      <trkpt lat="47.3673" lon="6.4755">
        <ele>315.3</ele>
        <time>2019-08-17T09:33:06Z</time>
      </trkpt>
      <trkpt lat="47.3673" lon="6.47546">
        <ele>314.9</ele>
        <time>2019-08-17T09:33:07Z</time>
      </trkpt>
      <trkpt lat="47.36729" lon="6.47539">
        <ele>314.6</ele>
        <time>2019-08-17T09:33:09Z</time>
      </trkpt>
      <trkpt lat="47.36729" lon="6.47534">
        <ele>314.4</ele>
        <time>2019-08-17T09:33:10Z</time>
      </trkpt>
      <trkpt lat="47.36728" lon="6.47528">
        <ele>314.1</ele>
        <time>2019-08-17T09:33:11Z</time>
      </trkpt>
      <trkpt lat="47.36728" lon="6.47522">
        <ele>313.9</ele>
        <time>2019-08-17T09:33:12Z</time>
      </trkpt>
      <trkpt lat="47.36727" lon="6.47517">
        <ele>313.7</ele>
        <time>2019-08-17T09:33:13Z</time>
      </trkpt>
      <trkpt lat="47.36727" lon="6.47511">
        <ele>313.4</ele>
        <time>2019-08-17T09:33:14Z</time>
      </trkpt>
      <trkpt lat="47.36727" lon="6.47506">
        <ele>313.2</ele>
        <time>2019-08-17T09:33:15Z</time>
      </trkpt>
      <trkpt lat="47.36727" lon="6.47501">
        <ele>313</ele>
        <time>2019-08-17T09:33:16Z</time>
      </trkpt>
      <trkpt lat="47.36727" lon="6.47496">
        <ele>312.8</ele>
        <time>2019-08-17T09:33:17Z</time>
      </trkpt>
      <trkpt lat="47.36727" lon="6.4749">
        <ele>312.5</ele>
        <time>2019-08-17T09:33:18Z</time>
      </trkpt>
      <trkpt lat="47.36728" lon="6.47484">
        <ele>312.2</ele>
        <time>2019-08-17T09:33:19Z</time>
      </trkpt>
      <trkpt lat="47.36728" lon="6.47477">
        <ele>312</ele>
        <time>2019-08-17T09:33:20Z</time>
      </trkpt>
      <trkpt lat="47.36729" lon="6.4747">
        <ele>311.9</ele>
        <time>2019-08-17T09:33:21Z</time>
      </trkpt>
      <trkpt lat="47.3673" lon="6.47462">
        <ele>311.8</ele>
        <time>2019-08-17T09:33:22Z</time>
      </trkpt>
      <trkpt lat="47.36731" lon="6.47453">
        <ele>311.6</ele>
        <time>2019-08-17T09:33:23Z</time>
      </trkpt>
      <trkpt lat="47.36732" lon="6.47445">
        <ele>311.5</ele>
        <time>2019-08-17T09:33:24Z</time>
      </trkpt>
      <trkpt lat="47.36733" lon="6.47436">
        <ele>311.4</ele>
        <time>2019-08-17T09:33:25Z</time>
      </trkpt>
      <trkpt lat="47.36734" lon="6.47428">
        <ele>311.2</ele>
        <time>2019-08-17T09:33:26Z</time>
      </trkpt>
      <trkpt lat="47.36736" lon="6.47421">
        <ele>311</ele>
        <time>2019-08-17T09:33:27Z</time>
      </trkpt>
      <trkpt lat="47.36738" lon="6.47415">
        <ele>310.8</ele>
        <time>2019-08-17T09:33:28Z</time>
      </trkpt>
      <trkpt lat="47.3674" lon="6.47408">
        <ele>310.6</ele>
        <time>2019-08-17T09:33:29Z</time>
      </trkpt>
      <trkpt lat="47.36742" lon="6.47402">
        <ele>310.4</ele>
        <time>2019-08-17T09:33:30Z</time>
      </trkpt>
      <trkpt lat="47.36744" lon="6.47396">
        <ele>310.2</ele>
        <time>2019-08-17T09:33:31Z</time>
      </trkpt>
      <trkpt lat="47.36746" lon="6.47389">
        <ele>310.1</ele>
        <time>2019-08-17T09:33:32Z</time>
      </trkpt>
      <trkpt lat="47.36748" lon="6.47383">
        <ele>309.9</ele>
        <time>2019-08-17T09:33:33Z</time>
      </trkpt>
      <trkpt lat="47.3675" lon="6.47377">
        <ele>309.7</ele>
        <time>2019-08-17T09:33:34Z</time>
      </trkpt>
      <trkpt lat="47.36751" lon="6.47372">
        <ele>309.6</ele>
        <time>2019-08-17T09:33:35Z</time>
      </trkpt>
      <trkpt lat="47.36753" lon="6.47367">
        <ele>309.4</ele>
        <time>2019-08-17T09:33:36Z</time>
      </trkpt>
      <trkpt lat="47.36754" lon="6.47361">
        <ele>309.3</ele>
        <time>2019-08-17T09:33:37Z</time>
      </trkpt>
      <trkpt lat="47.36755" lon="6.47357">
        <ele>309</ele>
        <time>2019-08-17T09:33:38Z</time>
      </trkpt>
      <trkpt lat="47.36756" lon="6.47351">
        <ele>309</ele>
        <time>2019-08-17T09:33:39Z</time>
      </trkpt>
      <trkpt lat="47.36758" lon="6.47346">
        <ele>309.1</ele>
        <time>2019-08-17T09:33:40Z</time>
      </trkpt>
      <trkpt lat="47.36759" lon="6.47341">
        <ele>309.1</ele>
        <time>2019-08-17T09:33:41Z</time>
      </trkpt>
      <trkpt lat="47.36759" lon="6.47335">
        <ele>309.2</ele>
        <time>2019-08-17T09:33:42Z</time>
      </trkpt>
      <trkpt lat="47.3676" lon="6.4733">
        <ele>309.2</ele>
        <time>2019-08-17T09:33:43Z</time>
      </trkpt>
      <trkpt lat="47.36761" lon="6.47325">
        <ele>309.2</ele>
        <time>2019-08-17T09:33:44Z</time>
      </trkpt>
      <trkpt lat="47.36762" lon="6.47319">
        <ele>309.3</ele>
        <time>2019-08-17T09:33:45Z</time>
      </trkpt>
      <trkpt lat="47.36763" lon="6.47313">
        <ele>309.3</ele>
        <time>2019-08-17T09:33:46Z</time>
      </trkpt>
      <trkpt lat="47.36765" lon="6.47307">
        <ele>309.3</ele>
        <time>2019-08-17T09:33:47Z</time>
      </trkpt>
      <trkpt lat="47.36766" lon="6.473">
        <ele>309.3</ele>
        <time>2019-08-17T09:33:48Z</time>
      </trkpt>
      <trkpt lat="47.36767" lon="6.47294">
        <ele>309.4</ele>
        <time>2019-08-17T09:33:49Z</time>
      </trkpt>
      <trkpt lat="47.36768" lon="6.47287">
        <ele>309.4</ele>
        <time>2019-08-17T09:33:50Z</time>
      </trkpt>
      <trkpt lat="47.36769" lon="6.47281">
        <ele>309.4</ele>
        <time>2019-08-17T09:33:51Z</time>
      </trkpt>
      <trkpt lat="47.3677" lon="6.47275">
        <ele>309.4</ele>
        <time>2019-08-17T09:33:52Z</time>
      </trkpt>
      <trkpt lat="47.36771" lon="6.47268">
        <ele>309.4</ele>
        <time>2019-08-17T09:33:53Z</time>
      </trkpt>
      <trkpt lat="47.36772" lon="6.47262">
        <ele>309.5</ele>
        <time>2019-08-17T09:33:54Z</time>
      </trkpt>
      <trkpt lat="47.36772" lon="6.47255">
        <ele>309.5</ele>
        <time>2019-08-17T09:33:55Z</time>
      </trkpt>
      <trkpt lat="47.36772" lon="6.47248">
        <ele>309.5</ele>
        <time>2019-08-17T09:33:56Z</time>
      </trkpt>
      <trkpt lat="47.36773" lon="6.47242">
        <ele>309.5</ele>
        <time>2019-08-17T09:33:57Z</time>
      </trkpt>
      <trkpt lat="47.36773" lon="6.47236">
        <ele>309.5</ele>
        <time>2019-08-17T09:33:58Z</time>
      </trkpt>
      <trkpt lat="47.36774" lon="6.4723">
        <ele>309.5</ele>
        <time>2019-08-17T09:33:59Z</time>
      </trkpt>
      <trkpt lat="47.36775" lon="6.47224">
        <ele>309.5</ele>
        <time>2019-08-17T09:34:00Z</time>
      </trkpt>
      <trkpt lat="47.36775" lon="6.47218">
        <ele>309.5</ele>
        <time>2019-08-17T09:34:01Z</time>
      </trkpt>
      <trkpt lat="47.36776" lon="6.47212">
        <ele>309.5</ele>
        <time>2019-08-17T09:34:02Z</time>
      </trkpt>
      <trkpt lat="47.36776" lon="6.47207">
        <ele>309.5</ele>
        <time>2019-08-17T09:34:03Z</time>
      </trkpt>
      <trkpt lat="47.36776" lon="6.47201">
        <ele>309.5</ele>
        <time>2019-08-17T09:34:04Z</time>
      </trkpt>
      <trkpt lat="47.36776" lon="6.47195">
        <ele>309.5</ele>
        <time>2019-08-17T09:34:05Z</time>
      </trkpt>
      <trkpt lat="47.36777" lon="6.4719">
        <ele>309.5</ele>
        <time>2019-08-17T09:34:06Z</time>
      </trkpt>
      <trkpt lat="47.36777" lon="6.47184">
        <ele>309.5</ele>
        <time>2019-08-17T09:34:07Z</time>
      </trkpt>
      <trkpt lat="47.36777" lon="6.47179">
        <ele>309.5</ele>
        <time>2019-08-17T09:34:08Z</time>
      </trkpt>
      <trkpt lat="47.36778" lon="6.47173">
        <ele>309.5</ele>
        <time>2019-08-17T09:34:09Z</time>
      </trkpt>
      <trkpt lat="47.36778" lon="6.47165">
        <ele>309.5</ele>
        <time>2019-08-17T09:34:10Z</time>
      </trkpt>
      <trkpt lat="47.36779" lon="6.47159">
        <ele>309.5</ele>
        <time>2019-08-17T09:34:11Z</time>
      </trkpt>
      <trkpt lat="47.36779" lon="6.47153">
        <ele>309.5</ele>
        <time>2019-08-17T09:34:12Z</time>
      </trkpt>
      <trkpt lat="47.3678" lon="6.47146">
        <ele>309.5</ele>
        <time>2019-08-17T09:34:13Z</time>
      </trkpt>
      <trkpt lat="47.36781" lon="6.4714">
        <ele>309.5</ele>
        <time>2019-08-17T09:34:14Z</time>
      </trkpt>
      <trkpt lat="47.36781" lon="6.47134">
        <ele>309.5</ele>
        <time>2019-08-17T09:34:15Z</time>
      </trkpt>
      <trkpt lat="47.36782" lon="6.47128">
        <ele>309.5</ele>
        <time>2019-08-17T09:34:16Z</time>
      </trkpt>
      <trkpt lat="47.36782" lon="6.47122">
        <ele>309.5</ele>
        <time>2019-08-17T09:34:17Z</time>
      </trkpt>
      <trkpt lat="47.36782" lon="6.47116">
        <ele>309.5</ele>
        <time>2019-08-17T09:34:18Z</time>
      </trkpt>
      <trkpt lat="47.36783" lon="6.47109">
        <ele>309.5</ele>
        <time>2019-08-17T09:34:19Z</time>
      </trkpt>
      <trkpt lat="47.36783" lon="6.47101">
        <ele>309.5</ele>
        <time>2019-08-17T09:34:20Z</time>
      </trkpt>
      <trkpt lat="47.36784" lon="6.47094">
        <ele>309.4</ele>
        <time>2019-08-17T09:34:21Z</time>
      </trkpt>
      <trkpt lat="47.36784" lon="6.47086">
        <ele>309.4</ele>
        <time>2019-08-17T09:34:22Z</time>
      </trkpt>
      <trkpt lat="47.36784" lon="6.47079">
        <ele>309.4</ele>
        <time>2019-08-17T09:34:23Z</time>
      </trkpt>
      <trkpt lat="47.36784" lon="6.47071">
        <ele>309.4</ele>
        <time>2019-08-17T09:34:24Z</time>
      </trkpt>
      <trkpt lat="47.36784" lon="6.47064">
        <ele>309.4</ele>
        <time>2019-08-17T09:34:25Z</time>
      </trkpt>
      <trkpt lat="47.36784" lon="6.47056">
        <ele>309.4</ele>
        <time>2019-08-17T09:34:26Z</time>
      </trkpt>
      <trkpt lat="47.36784" lon="6.47048">
        <ele>309.3</ele>
        <time>2019-08-17T09:34:27Z</time>
      </trkpt>
      <trkpt lat="47.36784" lon="6.47041">
        <ele>309.3</ele>
        <time>2019-08-17T09:34:28Z</time>
      </trkpt>
      <trkpt lat="47.36784" lon="6.47033">
        <ele>309.3</ele>
        <time>2019-08-17T09:34:29Z</time>
      </trkpt>
      <trkpt lat="47.36784" lon="6.47026">
        <ele>309.2</ele>
        <time>2019-08-17T09:34:30Z</time>
      </trkpt>
      <trkpt lat="47.36784" lon="6.47018">
        <ele>309.2</ele>
        <time>2019-08-17T09:34:31Z</time>
      </trkpt>
      <trkpt lat="47.36784" lon="6.47011">
        <ele>309.2</ele>
        <time>2019-08-17T09:34:32Z</time>
      </trkpt>
      <trkpt lat="47.36783" lon="6.47002">
        <ele>309.1</ele>
        <time>2019-08-17T09:34:33Z</time>
      </trkpt>
      <trkpt lat="47.36783" lon="6.46996">
        <ele>309.1</ele>
        <time>2019-08-17T09:34:34Z</time>
      </trkpt>
      <trkpt lat="47.36783" lon="6.46989">
        <ele>309.1</ele>
        <time>2019-08-17T09:34:35Z</time>
      </trkpt>
      <trkpt lat="47.36781" lon="6.4698">
        <ele>309.1</ele>
        <time>2019-08-17T09:34:36Z</time>
      </trkpt>
      <trkpt lat="47.36781" lon="6.46973">
        <ele>309</ele>
        <time>2019-08-17T09:34:37Z</time>
      </trkpt>
      <trkpt lat="47.36781" lon="6.46967">
        <ele>309</ele>
        <time>2019-08-17T09:34:38Z</time>
      </trkpt>
      <trkpt lat="47.36781" lon="6.4696">
        <ele>309</ele>
        <time>2019-08-17T09:34:39Z</time>
      </trkpt>
      <trkpt lat="47.3678" lon="6.46952">
        <ele>308.9</ele>
        <time>2019-08-17T09:34:40Z</time>
      </trkpt>
      <trkpt lat="47.36779" lon="6.46945">
        <ele>308.9</ele>
        <time>2019-08-17T09:34:41Z</time>
      </trkpt>
      <trkpt lat="47.36778" lon="6.46938">
        <ele>308.9</ele>
        <time>2019-08-17T09:34:42Z</time>
      </trkpt>
      <trkpt lat="47.36777" lon="6.46932">
        <ele>308.9</ele>
        <time>2019-08-17T09:34:43Z</time>
      </trkpt>
      <trkpt lat="47.36776" lon="6.46925">
        <ele>308.8</ele>
        <time>2019-08-17T09:34:44Z</time>
      </trkpt>
      <trkpt lat="47.36776" lon="6.4692">
        <ele>308.8</ele>
        <time>2019-08-17T09:34:45Z</time>
      </trkpt>
      <trkpt lat="47.36775" lon="6.46914">
        <ele>308.8</ele>
        <time>2019-08-17T09:34:46Z</time>
      </trkpt>
      <trkpt lat="47.36774" lon="6.46908">
        <ele>308.8</ele>
        <time>2019-08-17T09:34:47Z</time>
      </trkpt>
      <trkpt lat="47.36774" lon="6.46902">
        <ele>308.7</ele>
        <time>2019-08-17T09:34:48Z</time>
      </trkpt>
      <trkpt lat="47.36774" lon="6.46896">
        <ele>308.7</ele>
        <time>2019-08-17T09:34:49Z</time>
      </trkpt>
      <trkpt lat="47.36773" lon="6.4689">
        <ele>308.7</ele>
        <time>2019-08-17T09:34:50Z</time>
      </trkpt>
      <trkpt lat="47.36772" lon="6.46885">
        <ele>308.7</ele>
        <time>2019-08-17T09:34:51Z</time>
      </trkpt>
      <trkpt lat="47.36771" lon="6.46879">
        <ele>308.6</ele>
        <time>2019-08-17T09:34:52Z</time>
      </trkpt>
      <trkpt lat="47.3677" lon="6.46872">
        <ele>308.6</ele>
        <time>2019-08-17T09:34:53Z</time>
      </trkpt>
      <trkpt lat="47.36769" lon="6.46865">
        <ele>308.6</ele>
        <time>2019-08-17T09:34:54Z</time>
      </trkpt>
      <trkpt lat="47.36767" lon="6.46859">
        <ele>308.6</ele>
        <time>2019-08-17T09:34:55Z</time>
      </trkpt>
      <trkpt lat="47.36766" lon="6.46853">
        <ele>308.5</ele>
        <time>2019-08-17T09:34:56Z</time>
      </trkpt>
      <trkpt lat="47.36765" lon="6.46847">
        <ele>308.5</ele>
        <time>2019-08-17T09:34:57Z</time>
      </trkpt>
      <trkpt lat="47.36764" lon="6.4684">
        <ele>308.5</ele>
        <time>2019-08-17T09:34:58Z</time>
      </trkpt>
      <trkpt lat="47.36763" lon="6.46835">
        <ele>308.4</ele>
        <time>2019-08-17T09:34:59Z</time>
      </trkpt>
      <trkpt lat="47.36762" lon="6.4683">
        <ele>308.4</ele>
        <time>2019-08-17T09:35:00Z</time>
      </trkpt>
      <trkpt lat="47.36761" lon="6.46825">
        <ele>308.4</ele>
        <time>2019-08-17T09:35:01Z</time>
      </trkpt>
      <trkpt lat="47.3676" lon="6.4682">
        <ele>308.4</ele>
        <time>2019-08-17T09:35:02Z</time>
      </trkpt>
      <trkpt lat="47.3676" lon="6.46814">
        <ele>308.3</ele>
        <time>2019-08-17T09:35:03Z</time>
      </trkpt>
      <trkpt lat="47.3676" lon="6.46808">
        <ele>308.3</ele>
        <time>2019-08-17T09:35:04Z</time>
      </trkpt>
      <trkpt lat="47.36759" lon="6.46802">
        <ele>308.3</ele>
        <time>2019-08-17T09:35:05Z</time>
      </trkpt>
      <trkpt lat="47.36759" lon="6.46795">
        <ele>307.9</ele>
        <time>2019-08-17T09:35:06Z</time>
      </trkpt>
      <trkpt lat="47.36759" lon="6.46789">
        <ele>307.7</ele>
        <time>2019-08-17T09:35:07Z</time>
      </trkpt>
      <trkpt lat="47.3676" lon="6.46782">
        <ele>307.4</ele>
        <time>2019-08-17T09:35:08Z</time>
      </trkpt>
      <trkpt lat="47.3676" lon="6.46776">
        <ele>307.1</ele>
        <time>2019-08-17T09:35:09Z</time>
      </trkpt>
      <trkpt lat="47.3676" lon="6.46768">
        <ele>306.8</ele>
        <time>2019-08-17T09:35:10Z</time>
      </trkpt>
      <trkpt lat="47.36761" lon="6.4676">
        <ele>306.4</ele>
        <time>2019-08-17T09:35:11Z</time>
      </trkpt>
      <trkpt lat="47.36762" lon="6.46751">
        <ele>306</ele>
        <time>2019-08-17T09:35:12Z</time>
      </trkpt>
      <trkpt lat="47.36764" lon="6.46743">
        <ele>305.5</ele>
        <time>2019-08-17T09:35:13Z</time>
      </trkpt>
      <trkpt lat="47.36766" lon="6.46735">
        <ele>305</ele>
        <time>2019-08-17T09:35:14Z</time>
      </trkpt>
      <trkpt lat="47.36769" lon="6.46727">
        <ele>304.5</ele>
        <time>2019-08-17T09:35:15Z</time>
      </trkpt>
      <trkpt lat="47.36771" lon="6.46718">
        <ele>304.1</ele>
        <time>2019-08-17T09:35:16Z</time>
      </trkpt>
      <trkpt lat="47.36773" lon="6.4671">
        <ele>303.9</ele>
        <time>2019-08-17T09:35:17Z</time>
      </trkpt>
      <trkpt lat="47.36777" lon="6.46701">
        <ele>303.8</ele>
        <time>2019-08-17T09:35:18Z</time>
      </trkpt>
      <trkpt lat="47.36781" lon="6.46693">
        <ele>303.6</ele>
        <time>2019-08-17T09:35:19Z</time>
      </trkpt>
      <trkpt lat="47.36785" lon="6.46684">
        <ele>303.4</ele>
        <time>2019-08-17T09:35:20Z</time>
      </trkpt>
      <trkpt lat="47.3679" lon="6.46676">
        <ele>303.1</ele>
        <time>2019-08-17T09:35:21Z</time>
      </trkpt>
      <trkpt lat="47.36797" lon="6.46667">
        <ele>302.6</ele>
        <time>2019-08-17T09:35:22Z</time>
      </trkpt>
      <trkpt lat="47.36803" lon="6.46659">
        <ele>302.2</ele>
        <time>2019-08-17T09:35:23Z</time>
      </trkpt>
      <trkpt lat="47.36809" lon="6.46652">
        <ele>301.9</ele>
        <time>2019-08-17T09:35:24Z</time>
      </trkpt>
      <trkpt lat="47.36815" lon="6.46645">
        <ele>301.5</ele>
        <time>2019-08-17T09:35:25Z</time>
      </trkpt>
      <trkpt lat="47.3682" lon="6.46638">
        <ele>301</ele>
        <time>2019-08-17T09:35:26Z</time>
      </trkpt>
      <trkpt lat="47.36826" lon="6.46631">
        <ele>300.4</ele>
        <time>2019-08-17T09:35:27Z</time>
      </trkpt>
      <trkpt lat="47.36831" lon="6.46623">
        <ele>300.1</ele>
        <time>2019-08-17T09:35:28Z</time>
      </trkpt>
      <trkpt lat="47.36836" lon="6.46616">
        <ele>299.7</ele>
        <time>2019-08-17T09:35:29Z</time>
      </trkpt>
      <trkpt lat="47.36843" lon="6.46609">
        <ele>299.4</ele>
        <time>2019-08-17T09:35:30Z</time>
      </trkpt>
      <trkpt lat="47.36847" lon="6.46602">
        <ele>299.1</ele>
        <time>2019-08-17T09:35:31Z</time>
      </trkpt>
      <trkpt lat="47.36852" lon="6.46596">
        <ele>298.7</ele>
        <time>2019-08-17T09:35:32Z</time>
      </trkpt>
      <trkpt lat="47.36856" lon="6.4659">
        <ele>298.4</ele>
        <time>2019-08-17T09:35:33Z</time>
      </trkpt>
      <trkpt lat="47.3686" lon="6.46584">
        <ele>298.1</ele>
        <time>2019-08-17T09:35:34Z</time>
      </trkpt>
      <trkpt lat="47.36864" lon="6.46577">
        <ele>297.8</ele>
        <time>2019-08-17T09:35:35Z</time>
      </trkpt>
      <trkpt lat="47.36869" lon="6.46571">
        <ele>297.5</ele>
        <time>2019-08-17T09:35:36Z</time>
      </trkpt>
      <trkpt lat="47.36874" lon="6.46563">
        <ele>297.2</ele>
        <time>2019-08-17T09:35:37Z</time>
      </trkpt>
      <trkpt lat="47.36879" lon="6.46554">
        <ele>296.9</ele>
        <time>2019-08-17T09:35:38Z</time>
      </trkpt>
      <trkpt lat="47.36884" lon="6.46546">
        <ele>296.7</ele>
        <time>2019-08-17T09:35:39Z</time>
      </trkpt>
      <trkpt lat="47.36889" lon="6.46537">
        <ele>296.4</ele>
        <time>2019-08-17T09:35:40Z</time>
      </trkpt>
      <trkpt lat="47.36895" lon="6.46528">
        <ele>295.9</ele>
        <time>2019-08-17T09:35:41Z</time>
      </trkpt>
      <trkpt lat="47.36901" lon="6.46519">
        <ele>295.5</ele>
        <time>2019-08-17T09:35:42Z</time>
      </trkpt>
      <trkpt lat="47.36906" lon="6.46512">
        <ele>295.2</ele>
        <time>2019-08-17T09:35:43Z</time>
      </trkpt>
      <trkpt lat="47.36911" lon="6.46504">
        <ele>294.8</ele>
        <time>2019-08-17T09:35:44Z</time>
      </trkpt>
      <trkpt lat="47.36918" lon="6.46496">
        <ele>294.4</ele>
        <time>2019-08-17T09:35:45Z</time>
      </trkpt>
      <trkpt lat="47.36923" lon="6.46487">
        <ele>294.1</ele>
        <time>2019-08-17T09:35:46Z</time>
      </trkpt>
      <trkpt lat="47.3693" lon="6.4648">
        <ele>293.5</ele>
        <time>2019-08-17T09:35:47Z</time>
      </trkpt>
      <trkpt lat="47.36936" lon="6.46473">
        <ele>293</ele>
        <time>2019-08-17T09:35:48Z</time>
      </trkpt>
      <trkpt lat="47.36943" lon="6.46466">
        <ele>292.4</ele>
        <time>2019-08-17T09:35:49Z</time>
      </trkpt>
      <trkpt lat="47.36949" lon="6.4646">
        <ele>291.9</ele>
        <time>2019-08-17T09:35:50Z</time>
      </trkpt>
      <trkpt lat="47.36956" lon="6.46455">
        <ele>291.4</ele>
        <time>2019-08-17T09:35:51Z</time>
      </trkpt>
      <trkpt lat="47.36962" lon="6.46451">
        <ele>291.1</ele>
        <time>2019-08-17T09:35:52Z</time>
      </trkpt>
      <trkpt lat="47.36968" lon="6.46447">
        <ele>290.8</ele>
        <time>2019-08-17T09:35:53Z</time>
      </trkpt>
      <trkpt lat="47.36974" lon="6.46443">
        <ele>290.5</ele>
        <time>2019-08-17T09:35:54Z</time>
      </trkpt>
      <trkpt lat="47.36981" lon="6.46439">
        <ele>290.3</ele>
        <time>2019-08-17T09:35:55Z</time>
      </trkpt>
      <trkpt lat="47.36988" lon="6.46435">
        <ele>290.1</ele>
        <time>2019-08-17T09:35:56Z</time>
      </trkpt>
      <trkpt lat="47.36994" lon="6.46431">
        <ele>289.9</ele>
        <time>2019-08-17T09:35:57Z</time>
      </trkpt>
      <trkpt lat="47.37001" lon="6.46427">
        <ele>289.8</ele>
        <time>2019-08-17T09:35:58Z</time>
      </trkpt>
      <trkpt lat="47.37007" lon="6.46423">
        <ele>289.6</ele>
        <time>2019-08-17T09:35:59Z</time>
      </trkpt>
      <trkpt lat="47.37013" lon="6.46418">
        <ele>289.4</ele>
        <time>2019-08-17T09:36:00Z</time>
      </trkpt>
      <trkpt lat="47.37019" lon="6.46415">
        <ele>289.2</ele>
        <time>2019-08-17T09:36:01Z</time>
      </trkpt>
      <trkpt lat="47.37024" lon="6.46411">
        <ele>289</ele>
        <time>2019-08-17T09:36:02Z</time>
      </trkpt>
      <trkpt lat="47.37029" lon="6.46407">
        <ele>288.6</ele>
        <time>2019-08-17T09:36:03Z</time>
      </trkpt>
      <trkpt lat="47.37034" lon="6.46404">
        <ele>288.4</ele>
        <time>2019-08-17T09:36:04Z</time>
      </trkpt>
      <trkpt lat="47.37039" lon="6.464">
        <ele>288.1</ele>
        <time>2019-08-17T09:36:05Z</time>
      </trkpt>
      <trkpt lat="47.37045" lon="6.46398">
        <ele>287.9</ele>
        <time>2019-08-17T09:36:06Z</time>
      </trkpt>
      <trkpt lat="47.37051" lon="6.46396">
        <ele>287.6</ele>
        <time>2019-08-17T09:36:07Z</time>
      </trkpt>
      <trkpt lat="47.37057" lon="6.46393">
        <ele>287.3</ele>
        <time>2019-08-17T09:36:08Z</time>
      </trkpt>
      <trkpt lat="47.37062" lon="6.46389">
        <ele>287.1</ele>
        <time>2019-08-17T09:36:09Z</time>
      </trkpt>
      <trkpt lat="47.37067" lon="6.46386">
        <ele>287</ele>
        <time>2019-08-17T09:36:10Z</time>
      </trkpt>
      <trkpt lat="47.37073" lon="6.46382">
        <ele>286.8</ele>
        <time>2019-08-17T09:36:11Z</time>
      </trkpt>
      <trkpt lat="47.37078" lon="6.46378">
        <ele>286.8</ele>
        <time>2019-08-17T09:36:12Z</time>
      </trkpt>
      <trkpt lat="47.37083" lon="6.46375">
        <ele>286.7</ele>
        <time>2019-08-17T09:36:13Z</time>
      </trkpt>
      <trkpt lat="47.37087" lon="6.46371">
        <ele>286.7</ele>
        <time>2019-08-17T09:36:14Z</time>
      </trkpt>
      <trkpt lat="47.37091" lon="6.46367">
        <ele>286.6</ele>
        <time>2019-08-17T09:36:15Z</time>
      </trkpt>
      <trkpt lat="47.37095" lon="6.46362">
        <ele>286.6</ele>
        <time>2019-08-17T09:36:16Z</time>
      </trkpt>
      <trkpt lat="47.37099" lon="6.46356">
        <ele>286.5</ele>
        <time>2019-08-17T09:36:17Z</time>
      </trkpt>
      <trkpt lat="47.37103" lon="6.4635">
        <ele>286.4</ele>
        <time>2019-08-17T09:36:18Z</time>
      </trkpt>
      <trkpt lat="47.37107" lon="6.46345">
        <ele>286.4</ele>
        <time>2019-08-17T09:36:19Z</time>
      </trkpt>
      <trkpt lat="47.37111" lon="6.46339">
        <ele>286.3</ele>
        <time>2019-08-17T09:36:20Z</time>
      </trkpt>
      <trkpt lat="47.37114" lon="6.46332">
        <ele>286.2</ele>
        <time>2019-08-17T09:36:21Z</time>
      </trkpt>
      <trkpt lat="47.37118" lon="6.46326">
        <ele>286.2</ele>
        <time>2019-08-17T09:36:22Z</time>
      </trkpt>
      <trkpt lat="47.37121" lon="6.4632">
        <ele>286.1</ele>
        <time>2019-08-17T09:36:23Z</time>
      </trkpt>
      <trkpt lat="47.37124" lon="6.46314">
        <ele>286.1</ele>
        <time>2019-08-17T09:36:24Z</time>
      </trkpt>
      <trkpt lat="47.37127" lon="6.46308">
        <ele>286</ele>
        <time>2019-08-17T09:36:25Z</time>
      </trkpt>
      <trkpt lat="47.3713" lon="6.46303">
        <ele>285.9</ele>
        <time>2019-08-17T09:36:26Z</time>
      </trkpt>
      <trkpt lat="47.37133" lon="6.46296">
        <ele>285.9</ele>
        <time>2019-08-17T09:36:27Z</time>
      </trkpt>
      <trkpt lat="47.37136" lon="6.46289">
        <ele>285.8</ele>
        <time>2019-08-17T09:36:28Z</time>
      </trkpt>
      <trkpt lat="47.37138" lon="6.46281">
        <ele>285.8</ele>
        <time>2019-08-17T09:36:29Z</time>
      </trkpt>
      <trkpt lat="47.3714" lon="6.46274">
        <ele>285.7</ele>
        <time>2019-08-17T09:36:30Z</time>
      </trkpt>
      <trkpt lat="47.37143" lon="6.46266">
        <ele>285.7</ele>
        <time>2019-08-17T09:36:31Z</time>
      </trkpt>
      <trkpt lat="47.37145" lon="6.46258">
        <ele>285.6</ele>
        <time>2019-08-17T09:36:32Z</time>
      </trkpt>
      <trkpt lat="47.37148" lon="6.46251">
        <ele>285.6</ele>
        <time>2019-08-17T09:36:33Z</time>
      </trkpt>
      <trkpt lat="47.3715" lon="6.46244">
        <ele>285.6</ele>
        <time>2019-08-17T09:36:34Z</time>
      </trkpt>
      <trkpt lat="47.37152" lon="6.46237">
        <ele>285.6</ele>
        <time>2019-08-17T09:36:35Z</time>
      </trkpt>
      <trkpt lat="47.37155" lon="6.46231">
        <ele>285.6</ele>
        <time>2019-08-17T09:36:36Z</time>
      </trkpt>
      <trkpt lat="47.37156" lon="6.46225">
        <ele>285.5</ele>
        <time>2019-08-17T09:36:37Z</time>
      </trkpt>
      <trkpt lat="47.37158" lon="6.46218">
        <ele>285.5</ele>
        <time>2019-08-17T09:36:38Z</time>
      </trkpt>
      <trkpt lat="47.37159" lon="6.46212">
        <ele>285.5</ele>
        <time>2019-08-17T09:36:39Z</time>
      </trkpt>
      <trkpt lat="47.37161" lon="6.46206">
        <ele>285.5</ele>
        <time>2019-08-17T09:36:40Z</time>
      </trkpt>
      <trkpt lat="47.37163" lon="6.462">
        <ele>285.4</ele>
        <time>2019-08-17T09:36:41Z</time>
      </trkpt>
      <trkpt lat="47.37165" lon="6.46193">
        <ele>285.3</ele>
        <time>2019-08-17T09:36:42Z</time>
      </trkpt>
      <trkpt lat="47.37166" lon="6.46188">
        <ele>285.3</ele>
        <time>2019-08-17T09:36:43Z</time>
      </trkpt>
      <trkpt lat="47.37168" lon="6.46181">
        <ele>285.2</ele>
        <time>2019-08-17T09:36:44Z</time>
      </trkpt>
      <trkpt lat="47.3717" lon="6.46174">
        <ele>285.1</ele>
        <time>2019-08-17T09:36:45Z</time>
      </trkpt>
      <trkpt lat="47.37172" lon="6.46168">
        <ele>284.9</ele>
        <time>2019-08-17T09:36:46Z</time>
      </trkpt>
      <trkpt lat="47.37175" lon="6.46161">
        <ele>284.8</ele>
        <time>2019-08-17T09:36:47Z</time>
      </trkpt>
      <trkpt lat="47.37176" lon="6.46152">
        <ele>284.6</ele>
        <time>2019-08-17T09:36:48Z</time>
      </trkpt>
      <trkpt lat="47.37179" lon="6.46146">
        <ele>284.4</ele>
        <time>2019-08-17T09:36:49Z</time>
      </trkpt>
      <trkpt lat="47.37183" lon="6.46139">
        <ele>284.1</ele>
        <time>2019-08-17T09:36:50Z</time>
      </trkpt>
      <trkpt lat="47.37187" lon="6.46131">
        <ele>283.8</ele>
        <time>2019-08-17T09:36:51Z</time>
      </trkpt>
      <trkpt lat="47.37191" lon="6.46123">
        <ele>283.5</ele>
        <time>2019-08-17T09:36:52Z</time>
      </trkpt>
      <trkpt lat="47.37195" lon="6.46115">
        <ele>283.2</ele>
        <time>2019-08-17T09:36:53Z</time>
      </trkpt>
      <trkpt lat="47.37198" lon="6.46105">
        <ele>282.8</ele>
        <time>2019-08-17T09:36:54Z</time>
      </trkpt>
      <trkpt lat="47.37203" lon="6.46096">
        <ele>282.4</ele>
        <time>2019-08-17T09:36:55Z</time>
      </trkpt>
      <trkpt lat="47.37209" lon="6.46087">
        <ele>282</ele>
        <time>2019-08-17T09:36:56Z</time>
      </trkpt>
      <trkpt lat="47.37214" lon="6.46078">
        <ele>281.7</ele>
        <time>2019-08-17T09:36:57Z</time>
      </trkpt>
      <trkpt lat="47.3722" lon="6.46068">
        <ele>281.4</ele>
        <time>2019-08-17T09:36:58Z</time>
      </trkpt>
      <trkpt lat="47.37225" lon="6.46059">
        <ele>281</ele>
        <time>2019-08-17T09:36:59Z</time>
      </trkpt>
      <trkpt lat="47.3723" lon="6.4605">
        <ele>280.7</ele>
        <time>2019-08-17T09:37:00Z</time>
      </trkpt>
      <trkpt lat="47.37235" lon="6.46041">
        <ele>280.4</ele>
        <time>2019-08-17T09:37:01Z</time>
      </trkpt>
      <trkpt lat="47.3724" lon="6.46033">
        <ele>280</ele>
        <time>2019-08-17T09:37:02Z</time>
      </trkpt>
      <trkpt lat="47.37244" lon="6.46024">
        <ele>279.5</ele>
        <time>2019-08-17T09:37:03Z</time>
      </trkpt>
      <trkpt lat="47.37248" lon="6.46017">
        <ele>279.2</ele>
        <time>2019-08-17T09:37:04Z</time>
      </trkpt>
      <trkpt lat="47.37252" lon="6.46008">
        <ele>278.8</ele>
        <time>2019-08-17T09:37:05Z</time>
      </trkpt>
      <trkpt lat="47.37256" lon="6.46">
        <ele>278.5</ele>
        <time>2019-08-17T09:37:06Z</time>
      </trkpt>
      <trkpt lat="47.37261" lon="6.45993">
        <ele>278.2</ele>
        <time>2019-08-17T09:37:07Z</time>
      </trkpt>
      <trkpt lat="47.37266" lon="6.45985">
        <ele>277.7</ele>
        <time>2019-08-17T09:37:08Z</time>
      </trkpt>
      <trkpt lat="47.37273" lon="6.45978">
        <ele>277.2</ele>
        <time>2019-08-17T09:37:09Z</time>
      </trkpt>
      <trkpt lat="47.37281" lon="6.45971">
        <ele>276.6</ele>
        <time>2019-08-17T09:37:10Z</time>
      </trkpt>
      <trkpt lat="47.3729" lon="6.45966">
        <ele>276.1</ele>
        <time>2019-08-17T09:37:11Z</time>
      </trkpt>
      <trkpt lat="47.37299" lon="6.45961">
        <ele>275.6</ele>
        <time>2019-08-17T09:37:12Z</time>
      </trkpt>
      <trkpt lat="47.37307" lon="6.45956">
        <ele>275.3</ele>
        <time>2019-08-17T09:37:13Z</time>
      </trkpt>
      <trkpt lat="47.37314" lon="6.45953">
        <ele>274.9</ele>
        <time>2019-08-17T09:37:14Z</time>
      </trkpt>
      <trkpt lat="47.3732" lon="6.45949">
        <ele>274.5</ele>
        <time>2019-08-17T09:37:15Z</time>
      </trkpt>
      <trkpt lat="47.37326" lon="6.45945">
        <ele>274.1</ele>
        <time>2019-08-17T09:37:16Z</time>
      </trkpt>
      <trkpt lat="47.37331" lon="6.45941">
        <ele>273.6</ele>
        <time>2019-08-17T09:37:17Z</time>
      </trkpt>
      <trkpt lat="47.37335" lon="6.45938">
        <ele>273.1</ele>
        <time>2019-08-17T09:37:18Z</time>
      </trkpt>
      <trkpt lat="47.3734" lon="6.45935">
        <ele>272.6</ele>
        <time>2019-08-17T09:37:19Z</time>
      </trkpt>
      <trkpt lat="47.37344" lon="6.45933">
        <ele>272</ele>
        <time>2019-08-17T09:37:20Z</time>
      </trkpt>
      <trkpt lat="47.37349" lon="6.45929">
        <ele>271.4</ele>
        <time>2019-08-17T09:37:21Z</time>
      </trkpt>
      <trkpt lat="47.37352" lon="6.45923">
        <ele>270.7</ele>
        <time>2019-08-17T09:37:22Z</time>
      </trkpt>
      <trkpt lat="47.37355" lon="6.45915">
        <ele>270.4</ele>
        <time>2019-08-17T09:37:23Z</time>
      </trkpt>
      <trkpt lat="47.37356" lon="6.45907">
        <ele>270.1</ele>
        <time>2019-08-17T09:37:24Z</time>
      </trkpt>
      <trkpt lat="47.37356" lon="6.459">
        <ele>269.7</ele>
        <time>2019-08-17T09:37:25Z</time>
      </trkpt>
      <trkpt lat="47.37356" lon="6.45893">
        <ele>269.4</ele>
        <time>2019-08-17T09:37:26Z</time>
      </trkpt>
      <trkpt lat="47.37355" lon="6.45887">
        <ele>269.1</ele>
        <time>2019-08-17T09:37:27Z</time>
      </trkpt>
      <trkpt lat="47.37355" lon="6.45881">
        <ele>269</ele>
        <time>2019-08-17T09:37:28Z</time>
      </trkpt>
      <trkpt lat="47.37355" lon="6.45874">
        <ele>268.8</ele>
        <time>2019-08-17T09:37:29Z</time>
      </trkpt>
      <trkpt lat="47.37354" lon="6.45868">
        <ele>268.6</ele>
        <time>2019-08-17T09:37:30Z</time>
      </trkpt>
      <trkpt lat="47.37353" lon="6.45863">
        <ele>268.5</ele>
        <time>2019-08-17T09:37:31Z</time>
      </trkpt>
      <trkpt lat="47.37352" lon="6.45858">
        <ele>268.5</ele>
        <time>2019-08-17T09:37:32Z</time>
      </trkpt>
      <trkpt lat="47.3735" lon="6.45854">
        <ele>268.4</ele>
        <time>2019-08-17T09:37:33Z</time>
      </trkpt>
      <trkpt lat="47.37349" lon="6.45849">
        <ele>268.4</ele>
        <time>2019-08-17T09:37:34Z</time>
      </trkpt>
      <trkpt lat="47.37349" lon="6.45844">
        <ele>268.3</ele>
        <time>2019-08-17T09:37:35Z</time>
      </trkpt>
      <trkpt lat="47.37349" lon="6.4584">
        <ele>268.3</ele>
        <time>2019-08-17T09:37:36Z</time>
      </trkpt>
      <trkpt lat="47.37349" lon="6.45835">
        <ele>268.3</ele>
        <time>2019-08-17T09:37:37Z</time>
      </trkpt>
      <trkpt lat="47.37349" lon="6.45831">
        <ele>268.3</ele>
        <time>2019-08-17T09:37:38Z</time>
      </trkpt>
      <trkpt lat="47.37349" lon="6.45825">
        <ele>268.3</ele>
        <time>2019-08-17T09:37:39Z</time>
      </trkpt>
      <trkpt lat="47.37348" lon="6.4582">
        <ele>268.3</ele>
        <time>2019-08-17T09:37:40Z</time>
      </trkpt>
      <trkpt lat="47.37348" lon="6.45814">
        <ele>268.3</ele>
        <time>2019-08-17T09:37:41Z</time>
      </trkpt>
      <trkpt lat="47.37348" lon="6.45809">
        <ele>268.4</ele>
        <time>2019-08-17T09:37:42Z</time>
      </trkpt>
      <trkpt lat="47.37348" lon="6.45803">
        <ele>268.4</ele>
        <time>2019-08-17T09:37:43Z</time>
      </trkpt>
      <trkpt lat="47.37347" lon="6.45798">
        <ele>268.4</ele>
        <time>2019-08-17T09:37:44Z</time>
      </trkpt>
      <trkpt lat="47.37345" lon="6.45792">
        <ele>268.5</ele>
        <time>2019-08-17T09:37:45Z</time>
      </trkpt>
      <trkpt lat="47.37344" lon="6.45786">
        <ele>268.5</ele>
        <time>2019-08-17T09:37:46Z</time>
      </trkpt>
      <trkpt lat="47.37343" lon="6.4578">
        <ele>268.5</ele>
        <time>2019-08-17T09:37:47Z</time>
      </trkpt>
      <trkpt lat="47.37342" lon="6.45775">
        <ele>268.6</ele>
        <time>2019-08-17T09:37:48Z</time>
      </trkpt>
      <trkpt lat="47.37341" lon="6.45769">
        <ele>268.6</ele>
        <time>2019-08-17T09:37:49Z</time>
      </trkpt>
      <trkpt lat="47.3734" lon="6.45764">
        <ele>268.6</ele>
        <time>2019-08-17T09:37:50Z</time>
      </trkpt>
      <trkpt lat="47.37339" lon="6.45758">
        <ele>268.5</ele>
        <time>2019-08-17T09:37:51Z</time>
      </trkpt>
      <trkpt lat="47.37336" lon="6.45752">
        <ele>268.5</ele>
        <time>2019-08-17T09:37:52Z</time>
      </trkpt>
      <trkpt lat="47.37334" lon="6.45747">
        <ele>268.5</ele>
        <time>2019-08-17T09:37:53Z</time>
      </trkpt>
      <trkpt lat="47.37331" lon="6.45742">
        <ele>268.4</ele>
        <time>2019-08-17T09:37:54Z</time>
      </trkpt>
      <trkpt lat="47.37328" lon="6.45736">
        <ele>268.4</ele>
        <time>2019-08-17T09:37:55Z</time>
      </trkpt>
      <trkpt lat="47.37326" lon="6.45729">
        <ele>268.3</ele>
        <time>2019-08-17T09:37:56Z</time>
      </trkpt>
      <trkpt lat="47.37324" lon="6.45725">
        <ele>268.3</ele>
        <time>2019-08-17T09:37:57Z</time>
      </trkpt>
      <trkpt lat="47.37321" lon="6.4572">
        <ele>268.2</ele>
        <time>2019-08-17T09:37:58Z</time>
      </trkpt>
      <trkpt lat="47.37319" lon="6.45715">
        <ele>268.1</ele>
        <time>2019-08-17T09:37:59Z</time>
      </trkpt>
      <trkpt lat="47.37317" lon="6.45709">
        <ele>268.1</ele>
        <time>2019-08-17T09:38:00Z</time>
      </trkpt>
      <trkpt lat="47.37315" lon="6.45704">
        <ele>268</ele>
        <time>2019-08-17T09:38:01Z</time>
      </trkpt>
      <trkpt lat="47.37313" lon="6.45699">
        <ele>267.9</ele>
        <time>2019-08-17T09:38:02Z</time>
      </trkpt>
      <trkpt lat="47.3731" lon="6.45695">
        <ele>267.9</ele>
        <time>2019-08-17T09:38:03Z</time>
      </trkpt>
      <trkpt lat="47.37307" lon="6.45688">
        <ele>267.8</ele>
        <time>2019-08-17T09:38:04Z</time>
      </trkpt>
      <trkpt lat="47.37304" lon="6.45684">
        <ele>267.8</ele>
        <time>2019-08-17T09:38:05Z</time>
      </trkpt>
      <trkpt lat="47.37301" lon="6.4568">
        <ele>267.8</ele>
        <time>2019-08-17T09:38:06Z</time>
      </trkpt>
      <trkpt lat="47.37297" lon="6.45675">
        <ele>267.8</ele>
        <time>2019-08-17T09:38:07Z</time>
      </trkpt>
      <trkpt lat="47.37293" lon="6.4567">
        <ele>267.8</ele>
        <time>2019-08-17T09:38:08Z</time>
      </trkpt>
      <trkpt lat="47.3729" lon="6.45666">
        <ele>267.9</ele>
        <time>2019-08-17T09:38:09Z</time>
      </trkpt>
      <trkpt lat="47.37286" lon="6.45662">
        <ele>267.9</ele>
        <time>2019-08-17T09:38:10Z</time>
      </trkpt>
      <trkpt lat="47.37282" lon="6.45658">
        <ele>268</ele>
        <time>2019-08-17T09:38:11Z</time>
      </trkpt>
      <trkpt lat="47.37279" lon="6.45655">
        <ele>268.1</ele>
        <time>2019-08-17T09:38:12Z</time>
      </trkpt>
      <trkpt lat="47.37275" lon="6.45651">
        <ele>268.2</ele>
        <time>2019-08-17T09:38:13Z</time>
      </trkpt>
      <trkpt lat="47.37272" lon="6.45646">
        <ele>268.3</ele>
        <time>2019-08-17T09:38:14Z</time>
      </trkpt>
      <trkpt lat="47.37268" lon="6.45641">
        <ele>268.4</ele>
        <time>2019-08-17T09:38:15Z</time>
      </trkpt>
      <trkpt lat="47.37265" lon="6.45636">
        <ele>268.4</ele>
        <time>2019-08-17T09:38:16Z</time>
      </trkpt>
      <trkpt lat="47.37262" lon="6.45632">
        <ele>268.5</ele>
        <time>2019-08-17T09:38:17Z</time>
      </trkpt>
      <trkpt lat="47.37258" lon="6.45628">
        <ele>268.5</ele>
        <time>2019-08-17T09:38:18Z</time>
      </trkpt>
      <trkpt lat="47.37256" lon="6.45623">
        <ele>268.5</ele>
        <time>2019-08-17T09:38:19Z</time>
      </trkpt>
      <trkpt lat="47.37253" lon="6.45618">
        <ele>268.5</ele>
        <time>2019-08-17T09:38:20Z</time>
      </trkpt>
      <trkpt lat="47.37249" lon="6.45615">
        <ele>268.5</ele>
        <time>2019-08-17T09:38:21Z</time>
      </trkpt>
      <trkpt lat="47.37246" lon="6.45611">
        <ele>268.5</ele>
        <time>2019-08-17T09:38:22Z</time>
      </trkpt>
      <trkpt lat="47.37243" lon="6.45608">
        <ele>268.5</ele>
        <time>2019-08-17T09:38:23Z</time>
      </trkpt>
      <trkpt lat="47.37239" lon="6.45603">
        <ele>268.5</ele>
        <time>2019-08-17T09:38:24Z</time>
      </trkpt>
      <trkpt lat="47.37236" lon="6.45598">
        <ele>268.4</ele>
        <time>2019-08-17T09:38:25Z</time>
      </trkpt>
      <trkpt lat="47.37232" lon="6.45594">
        <ele>268.4</ele>
        <time>2019-08-17T09:38:26Z</time>
      </trkpt>
      <trkpt lat="47.37229" lon="6.4559">
        <ele>268.4</ele>
        <time>2019-08-17T09:38:27Z</time>
      </trkpt>
      <trkpt lat="47.37225" lon="6.45587">
        <ele>268.4</ele>
        <time>2019-08-17T09:38:28Z</time>
      </trkpt>
      <trkpt lat="47.37222" lon="6.45583">
        <ele>268.4</ele>
        <time>2019-08-17T09:38:29Z</time>
      </trkpt>
      <trkpt lat="47.37218" lon="6.4558">
        <ele>268.4</ele>
        <time>2019-08-17T09:38:30Z</time>
      </trkpt>
      <trkpt lat="47.37214" lon="6.45576">
        <ele>268.5</ele>
        <time>2019-08-17T09:38:31Z</time>
      </trkpt>
      <trkpt lat="47.3721" lon="6.45573">
        <ele>268.5</ele>
        <time>2019-08-17T09:38:32Z</time>
      </trkpt>
      <trkpt lat="47.37208" lon="6.45569">
        <ele>268.5</ele>
        <time>2019-08-17T09:38:33Z</time>
      </trkpt>
      <trkpt lat="47.37204" lon="6.45566">
        <ele>268.5</ele>
        <time>2019-08-17T09:38:34Z</time>
      </trkpt>
      <trkpt lat="47.372" lon="6.45561">
        <ele>268.5</ele>
        <time>2019-08-17T09:38:35Z</time>
      </trkpt>
      <trkpt lat="47.37196" lon="6.45556">
        <ele>268.6</ele>
        <time>2019-08-17T09:38:36Z</time>
      </trkpt>
      <trkpt lat="47.37193" lon="6.45552">
        <ele>268.6</ele>
        <time>2019-08-17T09:38:37Z</time>
      </trkpt>
      <trkpt lat="47.37189" lon="6.45548">
        <ele>268.6</ele>
        <time>2019-08-17T09:38:38Z</time>
      </trkpt>
      <trkpt lat="47.37185" lon="6.45543">
        <ele>268.6</ele>
        <time>2019-08-17T09:38:39Z</time>
      </trkpt>
      <trkpt lat="47.37183" lon="6.45538">
        <ele>268.6</ele>
        <time>2019-08-17T09:38:40Z</time>
      </trkpt>
      <trkpt lat="47.3718" lon="6.45534">
        <ele>268.6</ele>
        <time>2019-08-17T09:38:41Z</time>
      </trkpt>
      <trkpt lat="47.37176" lon="6.4553">
        <ele>268.6</ele>
        <time>2019-08-17T09:38:42Z</time>
      </trkpt>
      <trkpt lat="47.37173" lon="6.45527">
        <ele>268.6</ele>
        <time>2019-08-17T09:38:43Z</time>
      </trkpt>
      <trkpt lat="47.3717" lon="6.45524">
        <ele>268.6</ele>
        <time>2019-08-17T09:38:44Z</time>
      </trkpt>
      <trkpt lat="47.37166" lon="6.4552">
        <ele>268.6</ele>
        <time>2019-08-17T09:38:45Z</time>
      </trkpt>
      <trkpt lat="47.37162" lon="6.45515">
        <ele>268.6</ele>
        <time>2019-08-17T09:38:46Z</time>
      </trkpt>
      <trkpt lat="47.37158" lon="6.45511">
        <ele>268.6</ele>
        <time>2019-08-17T09:38:47Z</time>
      </trkpt>
      <trkpt lat="47.37154" lon="6.45507">
        <ele>268.6</ele>
        <time>2019-08-17T09:38:48Z</time>
      </trkpt>
      <trkpt lat="47.37151" lon="6.45504">
        <ele>268.6</ele>
        <time>2019-08-17T09:38:49Z</time>
      </trkpt>
      <trkpt lat="47.37148" lon="6.45501">
        <ele>268.6</ele>
        <time>2019-08-17T09:38:50Z</time>
      </trkpt>
      <trkpt lat="47.37145" lon="6.45499">
        <ele>268.6</ele>
        <time>2019-08-17T09:38:51Z</time>
      </trkpt>
      <trkpt lat="47.37141" lon="6.45494">
        <ele>268.6</ele>
        <time>2019-08-17T09:38:52Z</time>
      </trkpt>
      <trkpt lat="47.37138" lon="6.45491">
        <ele>268.5</ele>
        <time>2019-08-17T09:38:53Z</time>
      </trkpt>
      <trkpt lat="47.37135" lon="6.45488">
        <ele>268.5</ele>
        <time>2019-08-17T09:38:54Z</time>
      </trkpt>
      <trkpt lat="47.37132" lon="6.45484">
        <ele>268.5</ele>
        <time>2019-08-17T09:38:55Z</time>
      </trkpt>
      <trkpt lat="47.37128" lon="6.4548">
        <ele>268.4</ele>
        <time>2019-08-17T09:38:56Z</time>
      </trkpt>
      <trkpt lat="47.37124" lon="6.45475">
        <ele>268.4</ele>
        <time>2019-08-17T09:38:57Z</time>
      </trkpt>
      <trkpt lat="47.3712" lon="6.45472">
        <ele>268.3</ele>
        <time>2019-08-17T09:38:58Z</time>
      </trkpt>
      <trkpt lat="47.37117" lon="6.45467">
        <ele>268.2</ele>
        <time>2019-08-17T09:38:59Z</time>
      </trkpt>
      <trkpt lat="47.37112" lon="6.45464">
        <ele>268.2</ele>
        <time>2019-08-17T09:39:00Z</time>
      </trkpt>
      <trkpt lat="47.37108" lon="6.4546">
        <ele>268.1</ele>
        <time>2019-08-17T09:39:01Z</time>
      </trkpt>
      <trkpt lat="47.37103" lon="6.45456">
        <ele>268</ele>
        <time>2019-08-17T09:39:02Z</time>
      </trkpt>
      <trkpt lat="47.37099" lon="6.45453">
        <ele>268</ele>
        <time>2019-08-17T09:39:03Z</time>
      </trkpt>
      <trkpt lat="47.37094" lon="6.45451">
        <ele>268</ele>
        <time>2019-08-17T09:39:04Z</time>
      </trkpt>
      <trkpt lat="47.3709" lon="6.45449">
        <ele>267.9</ele>
        <time>2019-08-17T09:39:05Z</time>
      </trkpt>
      <trkpt lat="47.37084" lon="6.45446">
        <ele>267.9</ele>
        <time>2019-08-17T09:39:06Z</time>
      </trkpt>
      <trkpt lat="47.37079" lon="6.45443">
        <ele>267.9</ele>
        <time>2019-08-17T09:39:07Z</time>
      </trkpt>
      <trkpt lat="47.37075" lon="6.4544">
        <ele>267.9</ele>
        <time>2019-08-17T09:39:08Z</time>
      </trkpt>
      <trkpt lat="47.37071" lon="6.45437">
        <ele>268</ele>
        <time>2019-08-17T09:39:09Z</time>
      </trkpt>
      <trkpt lat="47.37067" lon="6.45433">
        <ele>268</ele>
        <time>2019-08-17T09:39:10Z</time>
      </trkpt>
      <trkpt lat="47.37064" lon="6.45429">
        <ele>268</ele>
        <time>2019-08-17T09:39:11Z</time>
      </trkpt>
      <trkpt lat="47.37059" lon="6.45424">
        <ele>268.1</ele>
        <time>2019-08-17T09:39:12Z</time>
      </trkpt>
      <trkpt lat="47.37056" lon="6.4542">
        <ele>268.1</ele>
        <time>2019-08-17T09:39:13Z</time>
      </trkpt>
      <trkpt lat="47.37051" lon="6.45416">
        <ele>268.1</ele>
        <time>2019-08-17T09:39:14Z</time>
      </trkpt>
      <trkpt lat="47.37046" lon="6.45412">
        <ele>268.2</ele>
        <time>2019-08-17T09:39:15Z</time>
      </trkpt>
      <trkpt lat="47.37042" lon="6.45409">
        <ele>268.2</ele>
        <time>2019-08-17T09:39:16Z</time>
      </trkpt>
      <trkpt lat="47.37037" lon="6.45405">
        <ele>268.2</ele>
        <time>2019-08-17T09:39:17Z</time>
      </trkpt>
      <trkpt lat="47.37034" lon="6.45403">
        <ele>268.2</ele>
        <time>2019-08-17T09:39:18Z</time>
      </trkpt>
      <trkpt lat="47.37029" lon="6.45397">
        <ele>268.2</ele>
        <time>2019-08-17T09:39:19Z</time>
      </trkpt>
      <trkpt lat="47.37026" lon="6.45394">
        <ele>268.2</ele>
        <time>2019-08-17T09:39:20Z</time>
      </trkpt>
      <trkpt lat="47.37022" lon="6.4539">
        <ele>268.2</ele>
        <time>2019-08-17T09:39:21Z</time>
      </trkpt>
      <trkpt lat="47.37019" lon="6.45386">
        <ele>268.2</ele>
        <time>2019-08-17T09:39:22Z</time>
      </trkpt>
      <trkpt lat="47.37016" lon="6.45384">
        <ele>268.2</ele>
        <time>2019-08-17T09:39:23Z</time>
      </trkpt>
      <trkpt lat="47.37013" lon="6.45381">
        <ele>268.2</ele>
        <time>2019-08-17T09:39:24Z</time>
      </trkpt>
      <trkpt lat="47.37009" lon="6.45379">
        <ele>268.2</ele>
        <time>2019-08-17T09:39:25Z</time>
      </trkpt>
      <trkpt lat="47.37005" lon="6.45376">
        <ele>268.2</ele>
        <time>2019-08-17T09:39:26Z</time>
      </trkpt>
      <trkpt lat="47.37" lon="6.45374">
        <ele>268.1</ele>
        <time>2019-08-17T09:39:27Z</time>
      </trkpt>
      <trkpt lat="47.36997" lon="6.45372">
        <ele>268.1</ele>
        <time>2019-08-17T09:39:28Z</time>
      </trkpt>
      <trkpt lat="47.36992" lon="6.4537">
        <ele>268.1</ele>
        <time>2019-08-17T09:39:29Z</time>
      </trkpt>
      <trkpt lat="47.36989" lon="6.45368">
        <ele>268</ele>
        <time>2019-08-17T09:39:30Z</time>
      </trkpt>
      <trkpt lat="47.36985" lon="6.45365">
        <ele>268</ele>
        <time>2019-08-17T09:39:31Z</time>
      </trkpt>
      <trkpt lat="47.3698" lon="6.45362">
        <ele>267.9</ele>
        <time>2019-08-17T09:39:32Z</time>
      </trkpt>
      <trkpt lat="47.36976" lon="6.4536">
        <ele>267.8</ele>
        <time>2019-08-17T09:39:33Z</time>
      </trkpt>
      <trkpt lat="47.36972" lon="6.45357">
        <ele>267.7</ele>
        <time>2019-08-17T09:39:34Z</time>
      </trkpt>
      <trkpt lat="47.36967" lon="6.45355">
        <ele>267.6</ele>
        <time>2019-08-17T09:39:35Z</time>
      </trkpt>
      <trkpt lat="47.36962" lon="6.45352">
        <ele>267.4</ele>
        <time>2019-08-17T09:39:36Z</time>
      </trkpt>
      <trkpt lat="47.36958" lon="6.45351">
        <ele>267.3</ele>
        <time>2019-08-17T09:39:37Z</time>
      </trkpt>
      <trkpt lat="47.36954" lon="6.45349">
        <ele>267.2</ele>
        <time>2019-08-17T09:39:38Z</time>
      </trkpt>
      <trkpt lat="47.36949" lon="6.45346">
        <ele>267.1</ele>
        <time>2019-08-17T09:39:39Z</time>
      </trkpt>
      <trkpt lat="47.36945" lon="6.45345">
        <ele>267</ele>
        <time>2019-08-17T09:39:40Z</time>
      </trkpt>
      <trkpt lat="47.36941" lon="6.45343">
        <ele>266.9</ele>
        <time>2019-08-17T09:39:41Z</time>
      </trkpt>
      <trkpt lat="47.36936" lon="6.45342">
        <ele>266.8</ele>
        <time>2019-08-17T09:39:42Z</time>
      </trkpt>
      <trkpt lat="47.36931" lon="6.45341">
        <ele>266.7</ele>
        <time>2019-08-17T09:39:43Z</time>
      </trkpt>
      <trkpt lat="47.36926" lon="6.4534">
        <ele>266.7</ele>
        <time>2019-08-17T09:39:44Z</time>
      </trkpt>
      <trkpt lat="47.3692" lon="6.45338">
        <ele>266.6</ele>
        <time>2019-08-17T09:39:45Z</time>
      </trkpt>
      <trkpt lat="47.36916" lon="6.45337">
        <ele>266.6</ele>
        <time>2019-08-17T09:39:46Z</time>
      </trkpt>
      <trkpt lat="47.36911" lon="6.45336">
        <ele>266.6</ele>
        <time>2019-08-17T09:39:47Z</time>
      </trkpt>
      <trkpt lat="47.36907" lon="6.45334">
        <ele>266.6</ele>
        <time>2019-08-17T09:39:48Z</time>
      </trkpt>
      <trkpt lat="47.36903" lon="6.45334">
        <ele>266.7</ele>
        <time>2019-08-17T09:39:49Z</time>
      </trkpt>
      <trkpt lat="47.36899" lon="6.45333">
        <ele>266.7</ele>
        <time>2019-08-17T09:39:50Z</time>
      </trkpt>
      <trkpt lat="47.36894" lon="6.45332">
        <ele>266.7</ele>
        <time>2019-08-17T09:39:51Z</time>
      </trkpt>
      <trkpt lat="47.3689" lon="6.45332">
        <ele>266.7</ele>
        <time>2019-08-17T09:39:52Z</time>
      </trkpt>
      <trkpt lat="47.36884" lon="6.45331">
        <ele>266.7</ele>
        <time>2019-08-17T09:39:53Z</time>
      </trkpt>
      <trkpt lat="47.36878" lon="6.4533">
        <ele>266.8</ele>
        <time>2019-08-17T09:39:54Z</time>
      </trkpt>
      <trkpt lat="47.36873" lon="6.4533">
        <ele>266.8</ele>
        <time>2019-08-17T09:39:55Z</time>
      </trkpt>
      <trkpt lat="47.36867" lon="6.45329">
        <ele>266.8</ele>
        <time>2019-08-17T09:39:56Z</time>
      </trkpt>
      <trkpt lat="47.36862" lon="6.45328">
        <ele>266.8</ele>
        <time>2019-08-17T09:39:57Z</time>
      </trkpt>
      <trkpt lat="47.36856" lon="6.45327">
        <ele>266.8</ele>
        <time>2019-08-17T09:39:58Z</time>
      </trkpt>
      <trkpt lat="47.36852" lon="6.45326">
        <ele>266.8</ele>
        <time>2019-08-17T09:39:59Z</time>
      </trkpt>
      <trkpt lat="47.36847" lon="6.45325">
        <ele>266.8</ele>
        <time>2019-08-17T09:40:00Z</time>
      </trkpt>
      <trkpt lat="47.36843" lon="6.45325">
        <ele>266.8</ele>
        <time>2019-08-17T09:40:01Z</time>
      </trkpt>
      <trkpt lat="47.36838" lon="6.45325">
        <ele>266.8</ele>
        <time>2019-08-17T09:40:02Z</time>
      </trkpt>
      <trkpt lat="47.36833" lon="6.45325">
        <ele>266.8</ele>
        <time>2019-08-17T09:40:03Z</time>
      </trkpt>
      <trkpt lat="47.36827" lon="6.45325">
        <ele>266.8</ele>
        <time>2019-08-17T09:40:04Z</time>
      </trkpt>
      <trkpt lat="47.36822" lon="6.45325">
        <ele>266.9</ele>
        <time>2019-08-17T09:40:05Z</time>
      </trkpt>
      <trkpt lat="47.36817" lon="6.45325">
        <ele>266.9</ele>
        <time>2019-08-17T09:40:06Z</time>
      </trkpt>
      <trkpt lat="47.36811" lon="6.45326">
        <ele>266.9</ele>
        <time>2019-08-17T09:40:07Z</time>
      </trkpt>
      <trkpt lat="47.36806" lon="6.45327">
        <ele>266.9</ele>
        <time>2019-08-17T09:40:08Z</time>
      </trkpt>
      <trkpt lat="47.36802" lon="6.45327">
        <ele>266.9</ele>
        <time>2019-08-17T09:40:09Z</time>
      </trkpt>
      <trkpt lat="47.36796" lon="6.45328">
        <ele>266.9</ele>
        <time>2019-08-17T09:40:10Z</time>
      </trkpt>
      <trkpt lat="47.36792" lon="6.45328">
        <ele>266.9</ele>
        <time>2019-08-17T09:40:11Z</time>
      </trkpt>
      <trkpt lat="47.36788" lon="6.45329">
        <ele>266.9</ele>
        <time>2019-08-17T09:40:12Z</time>
      </trkpt>
      <trkpt lat="47.36782" lon="6.45329">
        <ele>266.9</ele>
        <time>2019-08-17T09:40:13Z</time>
      </trkpt>
      <trkpt lat="47.36777" lon="6.45328">
        <ele>266.9</ele>
        <time>2019-08-17T09:40:14Z</time>
      </trkpt>
      <trkpt lat="47.36772" lon="6.4533">
        <ele>266.8</ele>
        <time>2019-08-17T09:40:15Z</time>
      </trkpt>
      <trkpt lat="47.36767" lon="6.45329">
        <ele>266.7</ele>
        <time>2019-08-17T09:40:16Z</time>
      </trkpt>
      <trkpt lat="47.36761" lon="6.45329">
        <ele>266.6</ele>
        <time>2019-08-17T09:40:17Z</time>
      </trkpt>
      <trkpt lat="47.36756" lon="6.45328">
        <ele>266.6</ele>
        <time>2019-08-17T09:40:18Z</time>
      </trkpt>
      <trkpt lat="47.36752" lon="6.45328">
        <ele>266.5</ele>
        <time>2019-08-17T09:40:19Z</time>
      </trkpt>
      <trkpt lat="47.36746" lon="6.45327">
        <ele>266.4</ele>
        <time>2019-08-17T09:40:20Z</time>
      </trkpt>
      <trkpt lat="47.36741" lon="6.45327">
        <ele>266.3</ele>
        <time>2019-08-17T09:40:21Z</time>
      </trkpt>
      <trkpt lat="47.36736" lon="6.45327">
        <ele>266.3</ele>
        <time>2019-08-17T09:40:22Z</time>
      </trkpt>
      <trkpt lat="47.36731" lon="6.45328">
        <ele>266.3</ele>
        <time>2019-08-17T09:40:23Z</time>
      </trkpt>
      <trkpt lat="47.36726" lon="6.45328">
        <ele>266.2</ele>
        <time>2019-08-17T09:40:24Z</time>
      </trkpt>
      <trkpt lat="47.36722" lon="6.45328">
        <ele>266.2</ele>
        <time>2019-08-17T09:40:25Z</time>
      </trkpt>
      <trkpt lat="47.36718" lon="6.45329">
        <ele>266.3</ele>
        <time>2019-08-17T09:40:26Z</time>
      </trkpt>
      <trkpt lat="47.36713" lon="6.45329">
        <ele>266.3</ele>
        <time>2019-08-17T09:40:27Z</time>
      </trkpt>
      <trkpt lat="47.36709" lon="6.4533">
        <ele>266.3</ele>
        <time>2019-08-17T09:40:28Z</time>
      </trkpt>
      <trkpt lat="47.36704" lon="6.4533">
        <ele>266.4</ele>
        <time>2019-08-17T09:40:29Z</time>
      </trkpt>
      <trkpt lat="47.36699" lon="6.45329">
        <ele>266.4</ele>
        <time>2019-08-17T09:40:30Z</time>
      </trkpt>
      <trkpt lat="47.36694" lon="6.45329">
        <ele>266.4</ele>
        <time>2019-08-17T09:40:31Z</time>
      </trkpt>
      <trkpt lat="47.36689" lon="6.45329">
        <ele>266.5</ele>
        <time>2019-08-17T09:40:32Z</time>
      </trkpt>
      <trkpt lat="47.36684" lon="6.45329">
        <ele>266.5</ele>
        <time>2019-08-17T09:40:33Z</time>
      </trkpt>
      <trkpt lat="47.36679" lon="6.45328">
        <ele>266.6</ele>
        <time>2019-08-17T09:40:34Z</time>
      </trkpt>
      <trkpt lat="47.36675" lon="6.45328">
        <ele>266.6</ele>
        <time>2019-08-17T09:40:35Z</time>
      </trkpt>
      <trkpt lat="47.3667" lon="6.45327">
        <ele>266.7</ele>
        <time>2019-08-17T09:40:36Z</time>
      </trkpt>
      <trkpt lat="47.36667" lon="6.45327">
        <ele>266.7</ele>
        <time>2019-08-17T09:40:37Z</time>
      </trkpt>
      <trkpt lat="47.36661" lon="6.45327">
        <ele>266.7</ele>
        <time>2019-08-17T09:40:38Z</time>
      </trkpt>
      <trkpt lat="47.36655" lon="6.45326">
        <ele>266.7</ele>
        <time>2019-08-17T09:40:39Z</time>
      </trkpt>
      <trkpt lat="47.3665" lon="6.45326">
        <ele>266.7</ele>
        <time>2019-08-17T09:40:40Z</time>
      </trkpt>
      <trkpt lat="47.36645" lon="6.45325">
        <ele>266.7</ele>
        <time>2019-08-17T09:40:41Z</time>
      </trkpt>
      <trkpt lat="47.36641" lon="6.45325">
        <ele>266.7</ele>
        <time>2019-08-17T09:40:42Z</time>
      </trkpt>
      <trkpt lat="47.36638" lon="6.45325">
        <ele>266.7</ele>
        <time>2019-08-17T09:40:43Z</time>
      </trkpt>
      <trkpt lat="47.36632" lon="6.45325">
        <ele>266.7</ele>
        <time>2019-08-17T09:40:44Z</time>
      </trkpt>
      <trkpt lat="47.36627" lon="6.45323">
        <ele>266.7</ele>
        <time>2019-08-17T09:40:45Z</time>
      </trkpt>
      <trkpt lat="47.36624" lon="6.45323">
        <ele>266.7</ele>
        <time>2019-08-17T09:40:46Z</time>
      </trkpt>
      <trkpt lat="47.3662" lon="6.45323">
        <ele>266.8</ele>
        <time>2019-08-17T09:40:47Z</time>
      </trkpt>
      <trkpt lat="47.36615" lon="6.45323">
        <ele>266.9</ele>
        <time>2019-08-17T09:40:48Z</time>
      </trkpt>
      <trkpt lat="47.36611" lon="6.45322">
        <ele>267</ele>
        <time>2019-08-17T09:40:49Z</time>
      </trkpt>
      <trkpt lat="47.36606" lon="6.45322">
        <ele>267.2</ele>
        <time>2019-08-17T09:40:50Z</time>
      </trkpt>
      <trkpt lat="47.36602" lon="6.45321">
        <ele>267.4</ele>
        <time>2019-08-17T09:40:51Z</time>
      </trkpt>
      <trkpt lat="47.36598" lon="6.45321">
        <ele>267.6</ele>
        <time>2019-08-17T09:40:52Z</time>
      </trkpt>
      <trkpt lat="47.36593" lon="6.45321">
        <ele>267.9</ele>
        <time>2019-08-17T09:40:53Z</time>
      </trkpt>
      <trkpt lat="47.36588" lon="6.4532">
        <ele>268.2</ele>
        <time>2019-08-17T09:40:54Z</time>
      </trkpt>
      <trkpt lat="47.36583" lon="6.45321">
        <ele>268.4</ele>
        <time>2019-08-17T09:40:55Z</time>
      </trkpt>
      <trkpt lat="47.36578" lon="6.45321">
        <ele>268.6</ele>
        <time>2019-08-17T09:40:56Z</time>
      </trkpt>
      <trkpt lat="47.36573" lon="6.45321">
        <ele>268.8</ele>
        <time>2019-08-17T09:40:57Z</time>
      </trkpt>
      <trkpt lat="47.36569" lon="6.4532">
        <ele>269</ele>
        <time>2019-08-17T09:40:58Z</time>
      </trkpt>
      <trkpt lat="47.36564" lon="6.45319">
        <ele>269.2</ele>
        <time>2019-08-17T09:40:59Z</time>
      </trkpt>
      <trkpt lat="47.36558" lon="6.45318">
        <ele>269.3</ele>
        <time>2019-08-17T09:41:00Z</time>
      </trkpt>
      <trkpt lat="47.36554" lon="6.45317">
        <ele>269.4</ele>
        <time>2019-08-17T09:41:01Z</time>
      </trkpt>
      <trkpt lat="47.36549" lon="6.45316">
        <ele>269.5</ele>
        <time>2019-08-17T09:41:02Z</time>
      </trkpt>
      <trkpt lat="47.36542" lon="6.45314">
        <ele>269.6</ele>
        <time>2019-08-17T09:41:03Z</time>
      </trkpt>
      <trkpt lat="47.36537" lon="6.45312">
        <ele>269.6</ele>
        <time>2019-08-17T09:41:04Z</time>
      </trkpt>
      <trkpt lat="47.36532" lon="6.45311">
        <ele>269.6</ele>
        <time>2019-08-17T09:41:05Z</time>
      </trkpt>
      <trkpt lat="47.36527" lon="6.45311">
        <ele>269.5</ele>
        <time>2019-08-17T09:41:06Z</time>
      </trkpt>
      <trkpt lat="47.36522" lon="6.4531">
        <ele>269.4</ele>
        <time>2019-08-17T09:41:07Z</time>
      </trkpt>
      <trkpt lat="47.36516" lon="6.45309">
        <ele>269.3</ele>
        <time>2019-08-17T09:41:08Z</time>
      </trkpt>
      <trkpt lat="47.36511" lon="6.45308">
        <ele>269.2</ele>
        <time>2019-08-17T09:41:09Z</time>
      </trkpt>
      <trkpt lat="47.36507" lon="6.45307">
        <ele>269</ele>
        <time>2019-08-17T09:41:10Z</time>
      </trkpt>
      <trkpt lat="47.36502" lon="6.45305">
        <ele>268.8</ele>
        <time>2019-08-17T09:41:11Z</time>
      </trkpt>
      <trkpt lat="47.36497" lon="6.45303">
        <ele>268.6</ele>
        <time>2019-08-17T09:41:12Z</time>
      </trkpt>
      <trkpt lat="47.36492" lon="6.45301">
        <ele>268.4</ele>
        <time>2019-08-17T09:41:13Z</time>
      </trkpt>
      <trkpt lat="47.36487" lon="6.45299">
        <ele>268.2</ele>
        <time>2019-08-17T09:41:14Z</time>
      </trkpt>
      <trkpt lat="47.36482" lon="6.45297">
        <ele>268</ele>
        <time>2019-08-17T09:41:15Z</time>
      </trkpt>
      <trkpt lat="47.36478" lon="6.45294">
        <ele>267.9</ele>
        <time>2019-08-17T09:41:16Z</time>
      </trkpt>
      <trkpt lat="47.36473" lon="6.45292">
        <ele>267.7</ele>
        <time>2019-08-17T09:41:17Z</time>
      </trkpt>
      <trkpt lat="47.36468" lon="6.45291">
        <ele>267.6</ele>
        <time>2019-08-17T09:41:18Z</time>
      </trkpt>
      <trkpt lat="47.36463" lon="6.45288">
        <ele>267.5</ele>
        <time>2019-08-17T09:41:19Z</time>
      </trkpt>
      <trkpt lat="47.36458" lon="6.45286">
        <ele>267.5</ele>
        <time>2019-08-17T09:41:20Z</time>
      </trkpt>
      <trkpt lat="47.36454" lon="6.45285">
        <ele>267.4</ele>
        <time>2019-08-17T09:41:21Z</time>
      </trkpt>
      <trkpt lat="47.36448" lon="6.45284">
        <ele>267.4</ele>
        <time>2019-08-17T09:41:22Z</time>
      </trkpt>
      <trkpt lat="47.36443" lon="6.45281">
        <ele>267.3</ele>
        <time>2019-08-17T09:41:23Z</time>
      </trkpt>
      <trkpt lat="47.36437" lon="6.45279">
        <ele>267.3</ele>
        <time>2019-08-17T09:41:24Z</time>
      </trkpt>
      <trkpt lat="47.36432" lon="6.45274">
        <ele>267.3</ele>
        <time>2019-08-17T09:41:25Z</time>
      </trkpt>
      <trkpt lat="47.36426" lon="6.45271">
        <ele>267.2</ele>
        <time>2019-08-17T09:41:26Z</time>
      </trkpt>
      <trkpt lat="47.36421" lon="6.45267">
        <ele>267.2</ele>
        <time>2019-08-17T09:41:27Z</time>
      </trkpt>
      <trkpt lat="47.36416" lon="6.45264">
        <ele>267.1</ele>
        <time>2019-08-17T09:41:28Z</time>
      </trkpt>
      <trkpt lat="47.36412" lon="6.45261">
        <ele>267.2</ele>
        <time>2019-08-17T09:41:29Z</time>
      </trkpt>
      <trkpt lat="47.36407" lon="6.45258">
        <ele>267.2</ele>
        <time>2019-08-17T09:41:30Z</time>
      </trkpt>
      <trkpt lat="47.36402" lon="6.45256">
        <ele>267.3</ele>
        <time>2019-08-17T09:41:31Z</time>
      </trkpt>
      <trkpt lat="47.36397" lon="6.45254">
        <ele>267.3</ele>
        <time>2019-08-17T09:41:32Z</time>
      </trkpt>
      <trkpt lat="47.36391" lon="6.45253">
        <ele>267.3</ele>
        <time>2019-08-17T09:41:33Z</time>
      </trkpt>
      <trkpt lat="47.36387" lon="6.45252">
        <ele>267.4</ele>
        <time>2019-08-17T09:41:34Z</time>
      </trkpt>
      <trkpt lat="47.36382" lon="6.45251">
        <ele>267.4</ele>
        <time>2019-08-17T09:41:35Z</time>
      </trkpt>
      <trkpt lat="47.36378" lon="6.4525">
        <ele>267.4</ele>
        <time>2019-08-17T09:41:36Z</time>
      </trkpt>
      <trkpt lat="47.36373" lon="6.45247">
        <ele>267.5</ele>
        <time>2019-08-17T09:41:37Z</time>
      </trkpt>
      <trkpt lat="47.36368" lon="6.45243">
        <ele>267.6</ele>
        <time>2019-08-17T09:41:38Z</time>
      </trkpt>
      <trkpt lat="47.36364" lon="6.45238">
        <ele>267.6</ele>
        <time>2019-08-17T09:41:39Z</time>
      </trkpt>
      <trkpt lat="47.36361" lon="6.45233">
        <ele>267.7</ele>
        <time>2019-08-17T09:41:40Z</time>
      </trkpt>
      <trkpt lat="47.36358" lon="6.45229">
        <ele>267.8</ele>
        <time>2019-08-17T09:41:41Z</time>
      </trkpt>
      <trkpt lat="47.36354" lon="6.45225">
        <ele>267.9</ele>
        <time>2019-08-17T09:41:42Z</time>
      </trkpt>
      <trkpt lat="47.36351" lon="6.45221">
        <ele>268</ele>
        <time>2019-08-17T09:41:43Z</time>
      </trkpt>
      <trkpt lat="47.36347" lon="6.45217">
        <ele>268.1</ele>
        <time>2019-08-17T09:41:44Z</time>
      </trkpt>
      <trkpt lat="47.36344" lon="6.45214">
        <ele>268.3</ele>
        <time>2019-08-17T09:41:45Z</time>
      </trkpt>
      <trkpt lat="47.36341" lon="6.45211">
        <ele>268.4</ele>
        <time>2019-08-17T09:41:46Z</time>
      </trkpt>
      <trkpt lat="47.36338" lon="6.45208">
        <ele>268.5</ele>
        <time>2019-08-17T09:41:47Z</time>
      </trkpt>
      <trkpt lat="47.36334" lon="6.45205">
        <ele>268.6</ele>
        <time>2019-08-17T09:41:48Z</time>
      </trkpt>
      <trkpt lat="47.36332" lon="6.45203">
        <ele>268.6</ele>
        <time>2019-08-17T09:41:49Z</time>
      </trkpt>
      <trkpt lat="47.36328" lon="6.452">
        <ele>268.7</ele>
        <time>2019-08-17T09:41:50Z</time>
      </trkpt>
      <trkpt lat="47.36325" lon="6.45197">
        <ele>268.8</ele>
        <time>2019-08-17T09:41:51Z</time>
      </trkpt>
      <trkpt lat="47.36321" lon="6.45192">
        <ele>269</ele>
        <time>2019-08-17T09:41:52Z</time>
      </trkpt>
      <trkpt lat="47.36318" lon="6.45187">
        <ele>269</ele>
        <time>2019-08-17T09:41:53Z</time>
      </trkpt>
      <trkpt lat="47.36315" lon="6.4518">
        <ele>269.1</ele>
        <time>2019-08-17T09:41:54Z</time>
      </trkpt>
      <trkpt lat="47.36311" lon="6.45173">
        <ele>269.2</ele>
        <time>2019-08-17T09:41:55Z</time>
      </trkpt>
      <trkpt lat="47.36308" lon="6.45167">
        <ele>269.2</ele>
        <time>2019-08-17T09:41:56Z</time>
      </trkpt>
      <trkpt lat="47.36304" lon="6.45162">
        <ele>269.2</ele>
        <time>2019-08-17T09:41:57Z</time>
      </trkpt>
      <trkpt lat="47.363" lon="6.45158">
        <ele>269.2</ele>
        <time>2019-08-17T09:41:58Z</time>
      </trkpt>
      <trkpt lat="47.36296" lon="6.45154">
        <ele>269.2</ele>
        <time>2019-08-17T09:41:59Z</time>
      </trkpt>
      <trkpt lat="47.36291" lon="6.45148">
        <ele>269.2</ele>
        <time>2019-08-17T09:42:00Z</time>
      </trkpt>
      <trkpt lat="47.36287" lon="6.45143">
        <ele>269.1</ele>
        <time>2019-08-17T09:42:01Z</time>
      </trkpt>
      <trkpt lat="47.36282" lon="6.45138">
        <ele>269.1</ele>
        <time>2019-08-17T09:42:02Z</time>
      </trkpt>
      <trkpt lat="47.36278" lon="6.45135">
        <ele>269</ele>
        <time>2019-08-17T09:42:03Z</time>
      </trkpt>
      <trkpt lat="47.36273" lon="6.4513">
        <ele>268.8</ele>
        <time>2019-08-17T09:42:04Z</time>
      </trkpt>
      <trkpt lat="47.3627" lon="6.45125">
        <ele>268.7</ele>
        <time>2019-08-17T09:42:05Z</time>
      </trkpt>
      <trkpt lat="47.36266" lon="6.4512">
        <ele>268.6</ele>
        <time>2019-08-17T09:42:06Z</time>
      </trkpt>
      <trkpt lat="47.36263" lon="6.45114">
        <ele>268.5</ele>
        <time>2019-08-17T09:42:07Z</time>
      </trkpt>
      <trkpt lat="47.3626" lon="6.45106">
        <ele>268.3</ele>
        <time>2019-08-17T09:42:08Z</time>
      </trkpt>
      <trkpt lat="47.36258" lon="6.45099">
        <ele>268.2</ele>
        <time>2019-08-17T09:42:09Z</time>
      </trkpt>
      <trkpt lat="47.36256" lon="6.45092">
        <ele>268.1</ele>
        <time>2019-08-17T09:42:10Z</time>
      </trkpt>
      <trkpt lat="47.36254" lon="6.45085">
        <ele>268</ele>
        <time>2019-08-17T09:42:11Z</time>
      </trkpt>
      <trkpt lat="47.36252" lon="6.45078">
        <ele>268</ele>
        <time>2019-08-17T09:42:12Z</time>
      </trkpt>
      <trkpt lat="47.3625" lon="6.4507">
        <ele>267.9</ele>
        <time>2019-08-17T09:42:13Z</time>
      </trkpt>
      <trkpt lat="47.36248" lon="6.45062">
        <ele>267.9</ele>
        <time>2019-08-17T09:42:14Z</time>
      </trkpt>
      <trkpt lat="47.36246" lon="6.45054">
        <ele>267.9</ele>
        <time>2019-08-17T09:42:15Z</time>
      </trkpt>
      <trkpt lat="47.36244" lon="6.45045">
        <ele>267.9</ele>
        <time>2019-08-17T09:42:16Z</time>
      </trkpt>
      <trkpt lat="47.36242" lon="6.45037">
        <ele>267.9</ele>
        <time>2019-08-17T09:42:17Z</time>
      </trkpt>
      <trkpt lat="47.3624" lon="6.45029">
        <ele>267.9</ele>
        <time>2019-08-17T09:42:18Z</time>
      </trkpt>
      <trkpt lat="47.36239" lon="6.45021">
        <ele>267.9</ele>
        <time>2019-08-17T09:42:19Z</time>
      </trkpt>
      <trkpt lat="47.36238" lon="6.45013">
        <ele>267.9</ele>
        <time>2019-08-17T09:42:20Z</time>
      </trkpt>
      <trkpt lat="47.36236" lon="6.45006">
        <ele>267.9</ele>
        <time>2019-08-17T09:42:21Z</time>
      </trkpt>
      <trkpt lat="47.36235" lon="6.44997">
        <ele>267.9</ele>
        <time>2019-08-17T09:42:22Z</time>
      </trkpt>
      <trkpt lat="47.36233" lon="6.4499">
        <ele>267.9</ele>
        <time>2019-08-17T09:42:23Z</time>
      </trkpt>
      <trkpt lat="47.36232" lon="6.44983">
        <ele>267.9</ele>
        <time>2019-08-17T09:42:24Z</time>
      </trkpt>
      <trkpt lat="47.36231" lon="6.44976">
        <ele>267.9</ele>
        <time>2019-08-17T09:42:25Z</time>
      </trkpt>
      <trkpt lat="47.36231" lon="6.44969">
        <ele>267.9</ele>
        <time>2019-08-17T09:42:26Z</time>
      </trkpt>
      <trkpt lat="47.3623" lon="6.44963">
        <ele>267.9</ele>
        <time>2019-08-17T09:42:27Z</time>
      </trkpt>
      <trkpt lat="47.36229" lon="6.44955">
        <ele>267.9</ele>
        <time>2019-08-17T09:42:28Z</time>
      </trkpt>
      <trkpt lat="47.36229" lon="6.44947">
        <ele>268</ele>
        <time>2019-08-17T09:42:29Z</time>
      </trkpt>
      <trkpt lat="47.36228" lon="6.44939">
        <ele>268</ele>
        <time>2019-08-17T09:42:30Z</time>
      </trkpt>
      <trkpt lat="47.36227" lon="6.44931">
        <ele>268</ele>
        <time>2019-08-17T09:42:31Z</time>
      </trkpt>
      <trkpt lat="47.36227" lon="6.44924">
        <ele>268</ele>
        <time>2019-08-17T09:42:32Z</time>
      </trkpt>
      <trkpt lat="47.36225" lon="6.44916">
        <ele>268</ele>
        <time>2019-08-17T09:42:33Z</time>
      </trkpt>
      <trkpt lat="47.36225" lon="6.44908">
        <ele>268</ele>
        <time>2019-08-17T09:42:34Z</time>
      </trkpt>
      <trkpt lat="47.36224" lon="6.449">
        <ele>267.9</ele>
        <time>2019-08-17T09:42:35Z</time>
      </trkpt>
      <trkpt lat="47.36224" lon="6.44893">
        <ele>267.9</ele>
        <time>2019-08-17T09:42:36Z</time>
      </trkpt>
      <trkpt lat="47.36223" lon="6.44884">
        <ele>267.9</ele>
        <time>2019-08-17T09:42:37Z</time>
      </trkpt>
      <trkpt lat="47.36223" lon="6.44877">
        <ele>268</ele>
        <time>2019-08-17T09:42:38Z</time>
      </trkpt>
      <trkpt lat="47.36223" lon="6.44868">
        <ele>268</ele>
        <time>2019-08-17T09:42:39Z</time>
      </trkpt>
      <trkpt lat="47.36223" lon="6.4486">
        <ele>268</ele>
        <time>2019-08-17T09:42:40Z</time>
      </trkpt>
      <trkpt lat="47.36224" lon="6.44853">
        <ele>268</ele>
        <time>2019-08-17T09:42:41Z</time>
      </trkpt>
      <trkpt lat="47.36223" lon="6.44845">
        <ele>268</ele>
        <time>2019-08-17T09:42:42Z</time>
      </trkpt>
      <trkpt lat="47.36223" lon="6.44839">
        <ele>268.1</ele>
        <time>2019-08-17T09:42:43Z</time>
      </trkpt>
      <trkpt lat="47.36224" lon="6.44832">
        <ele>268.1</ele>
        <time>2019-08-17T09:42:44Z</time>
      </trkpt>
      <trkpt lat="47.36224" lon="6.44825">
        <ele>268.1</ele>
        <time>2019-08-17T09:42:45Z</time>
      </trkpt>
      <trkpt lat="47.36225" lon="6.44818">
        <ele>268.1</ele>
        <time>2019-08-17T09:42:46Z</time>
      </trkpt>
      <trkpt lat="47.36226" lon="6.44811">
        <ele>268.1</ele>
        <time>2019-08-17T09:42:47Z</time>
      </trkpt>
      <trkpt lat="47.36228" lon="6.44804">
        <ele>268.1</ele>
        <time>2019-08-17T09:42:48Z</time>
      </trkpt>
      <trkpt lat="47.3623" lon="6.44797">
        <ele>268.2</ele>
        <time>2019-08-17T09:42:49Z</time>
      </trkpt>
      <trkpt lat="47.36231" lon="6.44791">
        <ele>268.2</ele>
        <time>2019-08-17T09:42:50Z</time>
      </trkpt>
      <trkpt lat="47.36233" lon="6.44784">
        <ele>268.2</ele>
        <time>2019-08-17T09:42:51Z</time>
      </trkpt>
      <trkpt lat="47.36236" lon="6.44778">
        <ele>268.2</ele>
        <time>2019-08-17T09:42:52Z</time>
      </trkpt>
      <trkpt lat="47.36238" lon="6.44772">
        <ele>268.2</ele>
        <time>2019-08-17T09:42:53Z</time>
      </trkpt>
      <trkpt lat="47.36239" lon="6.44765">
        <ele>268.3</ele>
        <time>2019-08-17T09:42:54Z</time>
      </trkpt>
      <trkpt lat="47.36242" lon="6.44758">
        <ele>268.3</ele>
        <time>2019-08-17T09:42:55Z</time>
      </trkpt>
      <trkpt lat="47.36244" lon="6.44751">
        <ele>268.2</ele>
        <time>2019-08-17T09:42:56Z</time>
      </trkpt>
      <trkpt lat="47.36246" lon="6.44743">
        <ele>268.2</ele>
        <time>2019-08-17T09:42:57Z</time>
      </trkpt>
      <trkpt lat="47.36249" lon="6.44736">
        <ele>268.2</ele>
        <time>2019-08-17T09:42:58Z</time>
      </trkpt>
      <trkpt lat="47.36251" lon="6.44729">
        <ele>268.2</ele>
        <time>2019-08-17T09:42:59Z</time>
      </trkpt>
      <trkpt lat="47.36253" lon="6.44722">
        <ele>268.1</ele>
        <time>2019-08-17T09:43:00Z</time>
      </trkpt>
      <trkpt lat="47.36255" lon="6.44715">
        <ele>268.1</ele>
        <time>2019-08-17T09:43:01Z</time>
      </trkpt>
      <trkpt lat="47.36257" lon="6.44709">
        <ele>268.1</ele>
        <time>2019-08-17T09:43:02Z</time>
      </trkpt>
      <trkpt lat="47.36258" lon="6.44702">
        <ele>268</ele>
        <time>2019-08-17T09:43:03Z</time>
      </trkpt>
      <trkpt lat="47.36259" lon="6.44695">
        <ele>268</ele>
        <time>2019-08-17T09:43:04Z</time>
      </trkpt>
      <trkpt lat="47.36262" lon="6.44688">
        <ele>267.9</ele>
        <time>2019-08-17T09:43:05Z</time>
      </trkpt>
      <trkpt lat="47.36265" lon="6.44681">
        <ele>267.9</ele>
        <time>2019-08-17T09:43:06Z</time>
      </trkpt>
      <trkpt lat="47.36269" lon="6.44674">
        <ele>267.9</ele>
        <time>2019-08-17T09:43:07Z</time>
      </trkpt>
      <trkpt lat="47.36274" lon="6.44668">
        <ele>267.9</ele>
        <time>2019-08-17T09:43:08Z</time>
      </trkpt>
      <trkpt lat="47.36279" lon="6.4466">
        <ele>267.9</ele>
        <time>2019-08-17T09:43:09Z</time>
      </trkpt>
      <trkpt lat="47.36281" lon="6.44653">
        <ele>267.9</ele>
        <time>2019-08-17T09:43:10Z</time>
      </trkpt>
      <trkpt lat="47.36283" lon="6.44646">
        <ele>267.9</ele>
        <time>2019-08-17T09:43:11Z</time>
      </trkpt>
      <trkpt lat="47.36285" lon="6.44638">
        <ele>267.9</ele>
        <time>2019-08-17T09:43:12Z</time>
      </trkpt>
      <trkpt lat="47.36288" lon="6.44632">
        <ele>267.9</ele>
        <time>2019-08-17T09:43:13Z</time>
      </trkpt>
      <trkpt lat="47.36291" lon="6.44625">
        <ele>267.9</ele>
        <time>2019-08-17T09:43:14Z</time>
      </trkpt>
      <trkpt lat="47.36295" lon="6.44618">
        <ele>267.9</ele>
        <time>2019-08-17T09:43:15Z</time>
      </trkpt>
      <trkpt lat="47.36299" lon="6.44612">
        <ele>267.9</ele>
        <time>2019-08-17T09:43:16Z</time>
      </trkpt>
      <trkpt lat="47.36301" lon="6.44605">
        <ele>267.9</ele>
        <time>2019-08-17T09:43:17Z</time>
      </trkpt>
      <trkpt lat="47.36303" lon="6.44599">
        <ele>267.8</ele>
        <time>2019-08-17T09:43:18Z</time>
      </trkpt>
      <trkpt lat="47.36306" lon="6.44592">
        <ele>267.8</ele>
        <time>2019-08-17T09:43:19Z</time>
      </trkpt>
      <trkpt lat="47.36309" lon="6.44586">
        <ele>267.8</ele>
        <time>2019-08-17T09:43:20Z</time>
      </trkpt>
      <trkpt lat="47.36311" lon="6.44579">
        <ele>267.8</ele>
        <time>2019-08-17T09:43:21Z</time>
      </trkpt>
      <trkpt lat="47.36314" lon="6.44573">
        <ele>267.8</ele>
        <time>2019-08-17T09:43:22Z</time>
      </trkpt>
      <trkpt lat="47.36318" lon="6.44567">
        <ele>267.8</ele>
        <time>2019-08-17T09:43:23Z</time>
      </trkpt>
      <trkpt lat="47.36321" lon="6.44561">
        <ele>267.8</ele>
        <time>2019-08-17T09:43:24Z</time>
      </trkpt>
      <trkpt lat="47.36325" lon="6.44555">
        <ele>267.8</ele>
        <time>2019-08-17T09:43:25Z</time>
      </trkpt>
      <trkpt lat="47.36329" lon="6.44549">
        <ele>267.8</ele>
        <time>2019-08-17T09:43:26Z</time>
      </trkpt>
      <trkpt lat="47.36331" lon="6.44542">
        <ele>267.9</ele>
        <time>2019-08-17T09:43:27Z</time>
      </trkpt>
      <trkpt lat="47.36334" lon="6.44534">
        <ele>267.9</ele>
        <time>2019-08-17T09:43:28Z</time>
      </trkpt>
      <trkpt lat="47.36338" lon="6.44527">
        <ele>267.9</ele>
        <time>2019-08-17T09:43:29Z</time>
      </trkpt>
      <trkpt lat="47.36341" lon="6.44521">
        <ele>267.8</ele>
        <time>2019-08-17T09:43:30Z</time>
      </trkpt>
      <trkpt lat="47.36344" lon="6.44514">
        <ele>267.8</ele>
        <time>2019-08-17T09:43:31Z</time>
      </trkpt>
      <trkpt lat="47.36347" lon="6.44507">
        <ele>267.8</ele>
        <time>2019-08-17T09:43:32Z</time>
      </trkpt>
      <trkpt lat="47.3635" lon="6.44502">
        <ele>267.8</ele>
        <time>2019-08-17T09:43:33Z</time>
      </trkpt>
      <trkpt lat="47.36353" lon="6.44496">
        <ele>267.8</ele>
        <time>2019-08-17T09:43:34Z</time>
      </trkpt>
      <trkpt lat="47.36357" lon="6.4449">
        <ele>267.7</ele>
        <time>2019-08-17T09:43:35Z</time>
      </trkpt>
      <trkpt lat="47.3636" lon="6.44484">
        <ele>267.7</ele>
        <time>2019-08-17T09:43:36Z</time>
      </trkpt>
      <trkpt lat="47.36363" lon="6.44478">
        <ele>267.7</ele>
        <time>2019-08-17T09:43:37Z</time>
      </trkpt>
      <trkpt lat="47.36365" lon="6.44472">
        <ele>267.6</ele>
        <time>2019-08-17T09:43:38Z</time>
      </trkpt>
      <trkpt lat="47.36368" lon="6.44465">
        <ele>267.6</ele>
        <time>2019-08-17T09:43:39Z</time>
      </trkpt>
      <trkpt lat="47.36371" lon="6.44459">
        <ele>267.6</ele>
        <time>2019-08-17T09:43:40Z</time>
      </trkpt>
      <trkpt lat="47.36373" lon="6.44452">
        <ele>267.6</ele>
        <time>2019-08-17T09:43:41Z</time>
      </trkpt>
      <trkpt lat="47.36376" lon="6.44445">
        <ele>267.5</ele>
        <time>2019-08-17T09:43:42Z</time>
      </trkpt>
      <trkpt lat="47.36378" lon="6.44439">
        <ele>267.5</ele>
        <time>2019-08-17T09:43:43Z</time>
      </trkpt>
      <trkpt lat="47.3638" lon="6.44433">
        <ele>267.5</ele>
        <time>2019-08-17T09:43:44Z</time>
      </trkpt>
      <trkpt lat="47.36383" lon="6.44426">
        <ele>267.5</ele>
        <time>2019-08-17T09:43:45Z</time>
      </trkpt>
      <trkpt lat="47.36385" lon="6.44419">
        <ele>267.4</ele>
        <time>2019-08-17T09:43:46Z</time>
      </trkpt>
      <trkpt lat="47.36387" lon="6.44413">
        <ele>267.4</ele>
        <time>2019-08-17T09:43:47Z</time>
      </trkpt>
      <trkpt lat="47.36391" lon="6.44406">
        <ele>267.4</ele>
        <time>2019-08-17T09:43:48Z</time>
      </trkpt>
      <trkpt lat="47.36393" lon="6.44399">
        <ele>267.4</ele>
        <time>2019-08-17T09:43:49Z</time>
      </trkpt>
      <trkpt lat="47.36397" lon="6.44392">
        <ele>267.3</ele>
        <time>2019-08-17T09:43:50Z</time>
      </trkpt>
      <trkpt lat="47.364" lon="6.44385">
        <ele>267.3</ele>
        <time>2019-08-17T09:43:51Z</time>
      </trkpt>
      <trkpt lat="47.36403" lon="6.44379">
        <ele>267.2</ele>
        <time>2019-08-17T09:43:52Z</time>
      </trkpt>
      <trkpt lat="47.36406" lon="6.44372">
        <ele>267.1</ele>
        <time>2019-08-17T09:43:53Z</time>
      </trkpt>
      <trkpt lat="47.36409" lon="6.44365">
        <ele>267.1</ele>
        <time>2019-08-17T09:43:54Z</time>
      </trkpt>
      <trkpt lat="47.36414" lon="6.44357">
        <ele>266.9</ele>
        <time>2019-08-17T09:43:55Z</time>
      </trkpt>
      <trkpt lat="47.36417" lon="6.4435">
        <ele>266.8</ele>
        <time>2019-08-17T09:43:56Z</time>
      </trkpt>
      <trkpt lat="47.36421" lon="6.44344">
        <ele>266.7</ele>
        <time>2019-08-17T09:43:57Z</time>
      </trkpt>
      <trkpt lat="47.36425" lon="6.44337">
        <ele>266.7</ele>
        <time>2019-08-17T09:43:58Z</time>
      </trkpt>
      <trkpt lat="47.36429" lon="6.44331">
        <ele>266.6</ele>
        <time>2019-08-17T09:43:59Z</time>
      </trkpt>
      <trkpt lat="47.36433" lon="6.44324">
        <ele>266.5</ele>
        <time>2019-08-17T09:44:00Z</time>
      </trkpt>
      <trkpt lat="47.36437" lon="6.44317">
        <ele>266.5</ele>
        <time>2019-08-17T09:44:01Z</time>
      </trkpt>
      <trkpt lat="47.36442" lon="6.44309">
        <ele>266.5</ele>
        <time>2019-08-17T09:44:02Z</time>
      </trkpt>
      <trkpt lat="47.36446" lon="6.44303">
        <ele>266.5</ele>
        <time>2019-08-17T09:44:03Z</time>
      </trkpt>
      <trkpt lat="47.3645" lon="6.44296">
        <ele>266.5</ele>
        <time>2019-08-17T09:44:04Z</time>
      </trkpt>
      <trkpt lat="47.36453" lon="6.4429">
        <ele>266.5</ele>
        <time>2019-08-17T09:44:05Z</time>
      </trkpt>
      <trkpt lat="47.36457" lon="6.44285">
        <ele>266.5</ele>
        <time>2019-08-17T09:44:06Z</time>
      </trkpt>
      <trkpt lat="47.3646" lon="6.44278">
        <ele>266.5</ele>
        <time>2019-08-17T09:44:07Z</time>
      </trkpt>
      <trkpt lat="47.36463" lon="6.44271">
        <ele>266.6</ele>
        <time>2019-08-17T09:44:08Z</time>
      </trkpt>
      <trkpt lat="47.36467" lon="6.44266">
        <ele>266.6</ele>
        <time>2019-08-17T09:44:09Z</time>
      </trkpt>
      <trkpt lat="47.36471" lon="6.44261">
        <ele>266.6</ele>
        <time>2019-08-17T09:44:10Z</time>
      </trkpt>
      <trkpt lat="47.36475" lon="6.44255">
        <ele>266.6</ele>
        <time>2019-08-17T09:44:11Z</time>
      </trkpt>
      <trkpt lat="47.36479" lon="6.44249">
        <ele>266.6</ele>
        <time>2019-08-17T09:44:12Z</time>
      </trkpt>
      <trkpt lat="47.36483" lon="6.44244">
        <ele>266.6</ele>
        <time>2019-08-17T09:44:13Z</time>
      </trkpt>
      <trkpt lat="47.36486" lon="6.44238">
        <ele>266.5</ele>
        <time>2019-08-17T09:44:14Z</time>
      </trkpt>
      <trkpt lat="47.3649" lon="6.44233">
        <ele>266.5</ele>
        <time>2019-08-17T09:44:15Z</time>
      </trkpt>
      <trkpt lat="47.36494" lon="6.44227">
        <ele>266.5</ele>
        <time>2019-08-17T09:44:16Z</time>
      </trkpt>
      <trkpt lat="47.36496" lon="6.44221">
        <ele>266.5</ele>
        <time>2019-08-17T09:44:17Z</time>
      </trkpt>
      <trkpt lat="47.36498" lon="6.44215">
        <ele>266.6</ele>
        <time>2019-08-17T09:44:18Z</time>
      </trkpt>
      <trkpt lat="47.36501" lon="6.44209">
        <ele>266.6</ele>
        <time>2019-08-17T09:44:19Z</time>
      </trkpt>
      <trkpt lat="47.36503" lon="6.44203">
        <ele>266.6</ele>
        <time>2019-08-17T09:44:20Z</time>
      </trkpt>
      <trkpt lat="47.36506" lon="6.44196">
        <ele>266.6</ele>
        <time>2019-08-17T09:44:21Z</time>
      </trkpt>
      <trkpt lat="47.3651" lon="6.4419">
        <ele>266.7</ele>
        <time>2019-08-17T09:44:22Z</time>
      </trkpt>
      <trkpt lat="47.36512" lon="6.44183">
        <ele>266.7</ele>
        <time>2019-08-17T09:44:23Z</time>
      </trkpt>
      <trkpt lat="47.36515" lon="6.44176">
        <ele>266.7</ele>
        <time>2019-08-17T09:44:24Z</time>
      </trkpt>
      <trkpt lat="47.36517" lon="6.4417">
        <ele>266.8</ele>
        <time>2019-08-17T09:44:25Z</time>
      </trkpt>
      <trkpt lat="47.36521" lon="6.44163">
        <ele>266.8</ele>
        <time>2019-08-17T09:44:26Z</time>
      </trkpt>
      <trkpt lat="47.36524" lon="6.44158">
        <ele>266.8</ele>
        <time>2019-08-17T09:44:27Z</time>
      </trkpt>
      <trkpt lat="47.36527" lon="6.44152">
        <ele>266.8</ele>
        <time>2019-08-17T09:44:28Z</time>
      </trkpt>
      <trkpt lat="47.3653" lon="6.44145">
        <ele>266.8</ele>
        <time>2019-08-17T09:44:29Z</time>
      </trkpt>
      <trkpt lat="47.36532" lon="6.44139">
        <ele>266.9</ele>
        <time>2019-08-17T09:44:30Z</time>
      </trkpt>
      <trkpt lat="47.36536" lon="6.44132">
        <ele>266.9</ele>
        <time>2019-08-17T09:44:31Z</time>
      </trkpt>
      <trkpt lat="47.36539" lon="6.44125">
        <ele>266.9</ele>
        <time>2019-08-17T09:44:32Z</time>
      </trkpt>
      <trkpt lat="47.36541" lon="6.44116">
        <ele>266.9</ele>
        <time>2019-08-17T09:44:33Z</time>
      </trkpt>
      <trkpt lat="47.36544" lon="6.44109">
        <ele>267</ele>
        <time>2019-08-17T09:44:34Z</time>
      </trkpt>
      <trkpt lat="47.36546" lon="6.44102">
        <ele>267</ele>
        <time>2019-08-17T09:44:35Z</time>
      </trkpt>
      <trkpt lat="47.36549" lon="6.44095">
        <ele>267</ele>
        <time>2019-08-17T09:44:36Z</time>
      </trkpt>
      <trkpt lat="47.36552" lon="6.44089">
        <ele>267</ele>
        <time>2019-08-17T09:44:37Z</time>
      </trkpt>
      <trkpt lat="47.36555" lon="6.44082">
        <ele>266.9</ele>
        <time>2019-08-17T09:44:38Z</time>
      </trkpt>
      <trkpt lat="47.36557" lon="6.44076">
        <ele>266.9</ele>
        <time>2019-08-17T09:44:39Z</time>
      </trkpt>
      <trkpt lat="47.3656" lon="6.44069">
        <ele>266.9</ele>
        <time>2019-08-17T09:44:40Z</time>
      </trkpt>
      <trkpt lat="47.36563" lon="6.44063">
        <ele>266.9</ele>
        <time>2019-08-17T09:44:41Z</time>
      </trkpt>
      <trkpt lat="47.36566" lon="6.44057">
        <ele>266.8</ele>
        <time>2019-08-17T09:44:42Z</time>
      </trkpt>
      <trkpt lat="47.36569" lon="6.44051">
        <ele>266.8</ele>
        <time>2019-08-17T09:44:43Z</time>
      </trkpt>
      <trkpt lat="47.36571" lon="6.44043">
        <ele>266.8</ele>
        <time>2019-08-17T09:44:44Z</time>
      </trkpt>
      <trkpt lat="47.36574" lon="6.44037">
        <ele>266.8</ele>
        <time>2019-08-17T09:44:45Z</time>
      </trkpt>
      <trkpt lat="47.36577" lon="6.44031">
        <ele>266.7</ele>
        <time>2019-08-17T09:44:46Z</time>
      </trkpt>
      <trkpt lat="47.36579" lon="6.44024">
        <ele>266.7</ele>
        <time>2019-08-17T09:44:47Z</time>
      </trkpt>
      <trkpt lat="47.36582" lon="6.44018">
        <ele>266.7</ele>
        <time>2019-08-17T09:44:48Z</time>
      </trkpt>
      <trkpt lat="47.36584" lon="6.44011">
        <ele>266.7</ele>
        <time>2019-08-17T09:44:49Z</time>
      </trkpt>
      <trkpt lat="47.36587" lon="6.44003">
        <ele>266.6</ele>
        <time>2019-08-17T09:44:50Z</time>
      </trkpt>
      <trkpt lat="47.3659" lon="6.43996">
        <ele>266.6</ele>
        <time>2019-08-17T09:44:51Z</time>
      </trkpt>
      <trkpt lat="47.36593" lon="6.4399">
        <ele>266.6</ele>
        <time>2019-08-17T09:44:52Z</time>
      </trkpt>
      <trkpt lat="47.36595" lon="6.43983">
        <ele>266.6</ele>
        <time>2019-08-17T09:44:53Z</time>
      </trkpt>
      <trkpt lat="47.36599" lon="6.43976">
        <ele>266.5</ele>
        <time>2019-08-17T09:44:54Z</time>
      </trkpt>
      <trkpt lat="47.36602" lon="6.4397">
        <ele>266.5</ele>
        <time>2019-08-17T09:44:55Z</time>
      </trkpt>
      <trkpt lat="47.36606" lon="6.43964">
        <ele>266.4</ele>
        <time>2019-08-17T09:44:56Z</time>
      </trkpt>
      <trkpt lat="47.36609" lon="6.43958">
        <ele>266.4</ele>
        <time>2019-08-17T09:44:57Z</time>
      </trkpt>
      <trkpt lat="47.36612" lon="6.43952">
        <ele>266.3</ele>
        <time>2019-08-17T09:44:58Z</time>
      </trkpt>
      <trkpt lat="47.36615" lon="6.43947">
        <ele>266.3</ele>
        <time>2019-08-17T09:44:59Z</time>
      </trkpt>
      <trkpt lat="47.36619" lon="6.4394">
        <ele>266.2</ele>
        <time>2019-08-17T09:45:00Z</time>
      </trkpt>
      <trkpt lat="47.36622" lon="6.43933">
        <ele>266.2</ele>
        <time>2019-08-17T09:45:01Z</time>
      </trkpt>
      <trkpt lat="47.36625" lon="6.43927">
        <ele>266.2</ele>
        <time>2019-08-17T09:45:02Z</time>
      </trkpt>
      <trkpt lat="47.36627" lon="6.43921">
        <ele>266.1</ele>
        <time>2019-08-17T09:45:03Z</time>
      </trkpt>
      <trkpt lat="47.36629" lon="6.43916">
        <ele>266.1</ele>
        <time>2019-08-17T09:45:04Z</time>
      </trkpt>
      <trkpt lat="47.36631" lon="6.4391">
        <ele>266.1</ele>
        <time>2019-08-17T09:45:05Z</time>
      </trkpt>
      <trkpt lat="47.36633" lon="6.43904">
        <ele>266.1</ele>
        <time>2019-08-17T09:45:06Z</time>
      </trkpt>
      <trkpt lat="47.36635" lon="6.43898">
        <ele>266</ele>
        <time>2019-08-17T09:45:07Z</time>
      </trkpt>
      <trkpt lat="47.36637" lon="6.43891">
        <ele>266</ele>
        <time>2019-08-17T09:45:08Z</time>
      </trkpt>
      <trkpt lat="47.36639" lon="6.43884">
        <ele>266</ele>
        <time>2019-08-17T09:45:09Z</time>
      </trkpt>
      <trkpt lat="47.36641" lon="6.43877">
        <ele>266.1</ele>
        <time>2019-08-17T09:45:10Z</time>
      </trkpt>
      <trkpt lat="47.36642" lon="6.4387">
        <ele>266.1</ele>
        <time>2019-08-17T09:45:11Z</time>
      </trkpt>
      <trkpt lat="47.36644" lon="6.43863">
        <ele>266.1</ele>
        <time>2019-08-17T09:45:12Z</time>
      </trkpt>
      <trkpt lat="47.36645" lon="6.43857">
        <ele>266.1</ele>
        <time>2019-08-17T09:45:13Z</time>
      </trkpt>
      <trkpt lat="47.36645" lon="6.43849">
        <ele>266.2</ele>
        <time>2019-08-17T09:45:14Z</time>
      </trkpt>
      <trkpt lat="47.36646" lon="6.43841">
        <ele>266.2</ele>
        <time>2019-08-17T09:45:15Z</time>
      </trkpt>
      <trkpt lat="47.36646" lon="6.43834">
        <ele>266.2</ele>
        <time>2019-08-17T09:45:16Z</time>
      </trkpt>
      <trkpt lat="47.36647" lon="6.43828">
        <ele>266.3</ele>
        <time>2019-08-17T09:45:17Z</time>
      </trkpt>
      <trkpt lat="47.36647" lon="6.43821">
        <ele>266.3</ele>
        <time>2019-08-17T09:45:18Z</time>
      </trkpt>
      <trkpt lat="47.36648" lon="6.43814">
        <ele>266.3</ele>
        <time>2019-08-17T09:45:19Z</time>
      </trkpt>
      <trkpt lat="47.36649" lon="6.43807">
        <ele>266.3</ele>
        <time>2019-08-17T09:45:20Z</time>
      </trkpt>
      <trkpt lat="47.3665" lon="6.438">
        <ele>266.3</ele>
        <time>2019-08-17T09:45:21Z</time>
      </trkpt>
      <trkpt lat="47.3665" lon="6.43793">
        <ele>266.2</ele>
        <time>2019-08-17T09:45:22Z</time>
      </trkpt>
      <trkpt lat="47.36652" lon="6.43785">
        <ele>266.2</ele>
        <time>2019-08-17T09:45:23Z</time>
      </trkpt>
      <trkpt lat="47.36653" lon="6.43779">
        <ele>266.2</ele>
        <time>2019-08-17T09:45:24Z</time>
      </trkpt>
      <trkpt lat="47.36653" lon="6.43771">
        <ele>266.1</ele>
        <time>2019-08-17T09:45:25Z</time>
      </trkpt>
      <trkpt lat="47.36655" lon="6.43762">
        <ele>266.1</ele>
        <time>2019-08-17T09:45:26Z</time>
      </trkpt>
      <trkpt lat="47.36656" lon="6.43754">
        <ele>266.1</ele>
        <time>2019-08-17T09:45:27Z</time>
      </trkpt>
      <trkpt lat="47.36657" lon="6.43747">
        <ele>266</ele>
        <time>2019-08-17T09:45:28Z</time>
      </trkpt>
      <trkpt lat="47.36657" lon="6.43741">
        <ele>266</ele>
        <time>2019-08-17T09:45:29Z</time>
      </trkpt>
      <trkpt lat="47.36657" lon="6.43734">
        <ele>266</ele>
        <time>2019-08-17T09:45:30Z</time>
      </trkpt>
      <trkpt lat="47.36657" lon="6.43728">
        <ele>266</ele>
        <time>2019-08-17T09:45:31Z</time>
      </trkpt>
      <trkpt lat="47.36656" lon="6.43723">
        <ele>265.9</ele>
        <time>2019-08-17T09:45:32Z</time>
      </trkpt>
      <trkpt lat="47.36656" lon="6.43716">
        <ele>265.9</ele>
        <time>2019-08-17T09:45:33Z</time>
      </trkpt>
      <trkpt lat="47.36656" lon="6.4371">
        <ele>265.9</ele>
        <time>2019-08-17T09:45:34Z</time>
      </trkpt>
      <trkpt lat="47.36657" lon="6.43703">
        <ele>265.8</ele>
        <time>2019-08-17T09:45:35Z</time>
      </trkpt>
      <trkpt lat="47.36658" lon="6.43697">
        <ele>265.8</ele>
        <time>2019-08-17T09:45:36Z</time>
      </trkpt>
      <trkpt lat="47.36659" lon="6.43691">
        <ele>265.7</ele>
        <time>2019-08-17T09:45:37Z</time>
      </trkpt>
      <trkpt lat="47.3666" lon="6.43684">
        <ele>265.7</ele>
        <time>2019-08-17T09:45:38Z</time>
      </trkpt>
      <trkpt lat="47.3666" lon="6.43677">
        <ele>265.7</ele>
        <time>2019-08-17T09:45:39Z</time>
      </trkpt>
      <trkpt lat="47.3666" lon="6.43671">
        <ele>265.7</ele>
        <time>2019-08-17T09:45:40Z</time>
      </trkpt>
      <trkpt lat="47.3666" lon="6.43663">
        <ele>265.7</ele>
        <time>2019-08-17T09:45:41Z</time>
      </trkpt>
      <trkpt lat="47.36661" lon="6.43657">
        <ele>265.6</ele>
        <time>2019-08-17T09:45:42Z</time>
      </trkpt>
      <trkpt lat="47.36661" lon="6.43652">
        <ele>265.6</ele>
        <time>2019-08-17T09:45:43Z</time>
      </trkpt>
      <trkpt lat="47.36662" lon="6.43646">
        <ele>265.6</ele>
        <time>2019-08-17T09:45:44Z</time>
      </trkpt>
      <trkpt lat="47.36662" lon="6.43639">
        <ele>265.6</ele>
        <time>2019-08-17T09:45:45Z</time>
      </trkpt>
      <trkpt lat="47.36663" lon="6.43632">
        <ele>265.6</ele>
        <time>2019-08-17T09:45:46Z</time>
      </trkpt>
      <trkpt lat="47.36663" lon="6.43625">
        <ele>265.6</ele>
        <time>2019-08-17T09:45:47Z</time>
      </trkpt>
      <trkpt lat="47.36663" lon="6.43619">
        <ele>265.6</ele>
        <time>2019-08-17T09:45:48Z</time>
      </trkpt>
      <trkpt lat="47.36663" lon="6.43612">
        <ele>265.6</ele>
        <time>2019-08-17T09:45:49Z</time>
      </trkpt>
      <trkpt lat="47.36664" lon="6.43606">
        <ele>265.6</ele>
        <time>2019-08-17T09:45:50Z</time>
      </trkpt>
      <trkpt lat="47.36663" lon="6.43599">
        <ele>265.6</ele>
        <time>2019-08-17T09:45:51Z</time>
      </trkpt>
      <trkpt lat="47.36664" lon="6.43592">
        <ele>265.6</ele>
        <time>2019-08-17T09:45:52Z</time>
      </trkpt>
      <trkpt lat="47.36665" lon="6.43585">
        <ele>265.6</ele>
        <time>2019-08-17T09:45:53Z</time>
      </trkpt>
      <trkpt lat="47.36666" lon="6.43579">
        <ele>265.6</ele>
        <time>2019-08-17T09:45:54Z</time>
      </trkpt>
      <trkpt lat="47.36668" lon="6.43572">
        <ele>265.6</ele>
        <time>2019-08-17T09:45:55Z</time>
      </trkpt>
      <trkpt lat="47.36669" lon="6.43565">
        <ele>265.6</ele>
        <time>2019-08-17T09:45:56Z</time>
      </trkpt>
      <trkpt lat="47.3667" lon="6.43557">
        <ele>265.6</ele>
        <time>2019-08-17T09:45:57Z</time>
      </trkpt>
      <trkpt lat="47.3667" lon="6.4355">
        <ele>265.6</ele>
        <time>2019-08-17T09:45:58Z</time>
      </trkpt>
      <trkpt lat="47.3667" lon="6.43543">
        <ele>265.6</ele>
        <time>2019-08-17T09:45:59Z</time>
      </trkpt>
      <trkpt lat="47.3667" lon="6.43535">
        <ele>265.6</ele>
        <time>2019-08-17T09:46:00Z</time>
      </trkpt>
      <trkpt lat="47.36671" lon="6.43528">
        <ele>265.6</ele>
        <time>2019-08-17T09:46:01Z</time>
      </trkpt>
      <trkpt lat="47.36671" lon="6.4352">
        <ele>265.6</ele>
        <time>2019-08-17T09:46:02Z</time>
      </trkpt>
      <trkpt lat="47.36671" lon="6.43512">
        <ele>265.7</ele>
        <time>2019-08-17T09:46:03Z</time>
      </trkpt>
      <trkpt lat="47.36671" lon="6.43505">
        <ele>265.7</ele>
        <time>2019-08-17T09:46:04Z</time>
      </trkpt>
      <trkpt lat="47.3667" lon="6.43498">
        <ele>265.7</ele>
        <time>2019-08-17T09:46:05Z</time>
      </trkpt>
      <trkpt lat="47.36669" lon="6.43491">
        <ele>265.7</ele>
        <time>2019-08-17T09:46:06Z</time>
      </trkpt>
      <trkpt lat="47.36669" lon="6.43483">
        <ele>265.7</ele>
        <time>2019-08-17T09:46:07Z</time>
      </trkpt>
      <trkpt lat="47.36668" lon="6.43477">
        <ele>265.8</ele>
        <time>2019-08-17T09:46:08Z</time>
      </trkpt>
      <trkpt lat="47.36668" lon="6.4347">
        <ele>265.8</ele>
        <time>2019-08-17T09:46:09Z</time>
      </trkpt>
      <trkpt lat="47.36668" lon="6.43463">
        <ele>265.8</ele>
        <time>2019-08-17T09:46:10Z</time>
      </trkpt>
      <trkpt lat="47.36668" lon="6.43455">
        <ele>265.8</ele>
        <time>2019-08-17T09:46:11Z</time>
      </trkpt>
      <trkpt lat="47.36669" lon="6.43448">
        <ele>265.8</ele>
        <time>2019-08-17T09:46:12Z</time>
      </trkpt>
      <trkpt lat="47.3667" lon="6.43442">
        <ele>265.8</ele>
        <time>2019-08-17T09:46:13Z</time>
      </trkpt>
      <trkpt lat="47.36671" lon="6.43436">
        <ele>265.8</ele>
        <time>2019-08-17T09:46:14Z</time>
      </trkpt>
      <trkpt lat="47.36672" lon="6.43428">
        <ele>265.8</ele>
        <time>2019-08-17T09:46:15Z</time>
      </trkpt>
      <trkpt lat="47.36673" lon="6.43421">
        <ele>265.8</ele>
        <time>2019-08-17T09:46:16Z</time>
      </trkpt>
      <trkpt lat="47.36673" lon="6.43415">
        <ele>265.8</ele>
        <time>2019-08-17T09:46:17Z</time>
      </trkpt>
      <trkpt lat="47.36673" lon="6.43408">
        <ele>265.8</ele>
        <time>2019-08-17T09:46:18Z</time>
      </trkpt>
      <trkpt lat="47.36674" lon="6.43402">
        <ele>265.8</ele>
        <time>2019-08-17T09:46:19Z</time>
      </trkpt>
      <trkpt lat="47.36675" lon="6.43395">
        <ele>265.8</ele>
        <time>2019-08-17T09:46:20Z</time>
      </trkpt>
      <trkpt lat="47.36675" lon="6.43389">
        <ele>265.8</ele>
        <time>2019-08-17T09:46:21Z</time>
      </trkpt>
      <trkpt lat="47.36676" lon="6.43382">
        <ele>265.8</ele>
        <time>2019-08-17T09:46:22Z</time>
      </trkpt>
      <trkpt lat="47.36676" lon="6.43375">
        <ele>265.8</ele>
        <time>2019-08-17T09:46:23Z</time>
      </trkpt>
      <trkpt lat="47.36677" lon="6.43369">
        <ele>265.8</ele>
        <time>2019-08-17T09:46:24Z</time>
      </trkpt>
      <trkpt lat="47.36678" lon="6.43362">
        <ele>265.8</ele>
        <time>2019-08-17T09:46:25Z</time>
      </trkpt>
      <trkpt lat="47.36679" lon="6.43355">
        <ele>265.8</ele>
        <time>2019-08-17T09:46:26Z</time>
      </trkpt>
      <trkpt lat="47.3668" lon="6.43349">
        <ele>265.8</ele>
        <time>2019-08-17T09:46:27Z</time>
      </trkpt>
      <trkpt lat="47.36681" lon="6.43343">
        <ele>265.8</ele>
        <time>2019-08-17T09:46:28Z</time>
      </trkpt>
      <trkpt lat="47.36681" lon="6.43337">
        <ele>265.8</ele>
        <time>2019-08-17T09:46:29Z</time>
      </trkpt>
      <trkpt lat="47.36682" lon="6.4333">
        <ele>265.8</ele>
        <time>2019-08-17T09:46:30Z</time>
      </trkpt>
      <trkpt lat="47.36683" lon="6.43323">
        <ele>265.8</ele>
        <time>2019-08-17T09:46:31Z</time>
      </trkpt>
      <trkpt lat="47.36683" lon="6.43317">
        <ele>265.8</ele>
        <time>2019-08-17T09:46:32Z</time>
      </trkpt>
      <trkpt lat="47.36683" lon="6.43309">
        <ele>265.8</ele>
        <time>2019-08-17T09:46:33Z</time>
      </trkpt>
      <trkpt lat="47.36683" lon="6.43301">
        <ele>265.8</ele>
        <time>2019-08-17T09:46:34Z</time>
      </trkpt>
      <trkpt lat="47.36684" lon="6.43294">
        <ele>265.8</ele>
        <time>2019-08-17T09:46:35Z</time>
      </trkpt>
      <trkpt lat="47.36684" lon="6.43287">
        <ele>265.8</ele>
        <time>2019-08-17T09:46:36Z</time>
      </trkpt>
      <trkpt lat="47.36684" lon="6.4328">
        <ele>265.8</ele>
        <time>2019-08-17T09:46:37Z</time>
      </trkpt>
      <trkpt lat="47.36685" lon="6.43273">
        <ele>265.8</ele>
        <time>2019-08-17T09:46:38Z</time>
      </trkpt>
      <trkpt lat="47.36685" lon="6.43266">
        <ele>265.9</ele>
        <time>2019-08-17T09:46:39Z</time>
      </trkpt>
      <trkpt lat="47.36686" lon="6.43261">
        <ele>265.9</ele>
        <time>2019-08-17T09:46:40Z</time>
      </trkpt>
      <trkpt lat="47.36687" lon="6.43255">
        <ele>265.9</ele>
        <time>2019-08-17T09:46:41Z</time>
      </trkpt>
      <trkpt lat="47.36689" lon="6.43248">
        <ele>265.9</ele>
        <time>2019-08-17T09:46:42Z</time>
      </trkpt>
      <trkpt lat="47.36691" lon="6.43241">
        <ele>265.9</ele>
        <time>2019-08-17T09:46:43Z</time>
      </trkpt>
      <trkpt lat="47.36692" lon="6.43234">
        <ele>265.9</ele>
        <time>2019-08-17T09:46:44Z</time>
      </trkpt>
      <trkpt lat="47.36692" lon="6.43225">
        <ele>266</ele>
        <time>2019-08-17T09:46:45Z</time>
      </trkpt>
      <trkpt lat="47.36694" lon="6.43218">
        <ele>266</ele>
        <time>2019-08-17T09:46:46Z</time>
      </trkpt>
      <trkpt lat="47.36694" lon="6.43211">
        <ele>266</ele>
        <time>2019-08-17T09:46:47Z</time>
      </trkpt>
      <trkpt lat="47.36694" lon="6.43204">
        <ele>266</ele>
        <time>2019-08-17T09:46:48Z</time>
      </trkpt>
      <trkpt lat="47.36694" lon="6.43197">
        <ele>266</ele>
        <time>2019-08-17T09:46:49Z</time>
      </trkpt>
      <trkpt lat="47.36695" lon="6.43189">
        <ele>266</ele>
        <time>2019-08-17T09:46:50Z</time>
      </trkpt>
      <trkpt lat="47.36695" lon="6.43182">
        <ele>266</ele>
        <time>2019-08-17T09:46:51Z</time>
      </trkpt>
      <trkpt lat="47.36695" lon="6.43174">
        <ele>266</ele>
        <time>2019-08-17T09:46:52Z</time>
      </trkpt>
      <trkpt lat="47.36696" lon="6.43167">
        <ele>266</ele>
        <time>2019-08-17T09:46:53Z</time>
      </trkpt>
      <trkpt lat="47.36697" lon="6.4316">
        <ele>266</ele>
        <time>2019-08-17T09:46:54Z</time>
      </trkpt>
      <trkpt lat="47.36698" lon="6.43153">
        <ele>266</ele>
        <time>2019-08-17T09:46:55Z</time>
      </trkpt>
      <trkpt lat="47.36699" lon="6.43147">
        <ele>266</ele>
        <time>2019-08-17T09:46:56Z</time>
      </trkpt>
      <trkpt lat="47.36702" lon="6.4314">
        <ele>266</ele>
        <time>2019-08-17T09:46:57Z</time>
      </trkpt>
      <trkpt lat="47.36704" lon="6.43133">
        <ele>266</ele>
        <time>2019-08-17T09:46:58Z</time>
      </trkpt>
      <trkpt lat="47.36705" lon="6.43127">
        <ele>266</ele>
        <time>2019-08-17T09:46:59Z</time>
      </trkpt>
      <trkpt lat="47.36708" lon="6.4312">
        <ele>266</ele>
        <time>2019-08-17T09:47:00Z</time>
      </trkpt>
      <trkpt lat="47.36711" lon="6.43114">
        <ele>266</ele>
        <time>2019-08-17T09:47:01Z</time>
      </trkpt>
      <trkpt lat="47.36715" lon="6.43107">
        <ele>266</ele>
        <time>2019-08-17T09:47:02Z</time>
      </trkpt>
      <trkpt lat="47.36718" lon="6.431">
        <ele>266</ele>
        <time>2019-08-17T09:47:03Z</time>
      </trkpt>
      <trkpt lat="47.36719" lon="6.43093">
        <ele>266</ele>
        <time>2019-08-17T09:47:04Z</time>
      </trkpt>
      <trkpt lat="47.36721" lon="6.43087">
        <ele>266</ele>
        <time>2019-08-17T09:47:05Z</time>
      </trkpt>
      <trkpt lat="47.36723" lon="6.43079">
        <ele>266</ele>
        <time>2019-08-17T09:47:06Z</time>
      </trkpt>
      <trkpt lat="47.36725" lon="6.43073">
        <ele>266</ele>
        <time>2019-08-17T09:47:07Z</time>
      </trkpt>
      <trkpt lat="47.36726" lon="6.43066">
        <ele>266</ele>
        <time>2019-08-17T09:47:08Z</time>
      </trkpt>
      <trkpt lat="47.36728" lon="6.43059">
        <ele>266</ele>
        <time>2019-08-17T09:47:09Z</time>
      </trkpt>
      <trkpt lat="47.36729" lon="6.43052">
        <ele>266</ele>
        <time>2019-08-17T09:47:10Z</time>
      </trkpt>
      <trkpt lat="47.3673" lon="6.43044">
        <ele>266</ele>
        <time>2019-08-17T09:47:11Z</time>
      </trkpt>
      <trkpt lat="47.36731" lon="6.43037">
        <ele>266</ele>
        <time>2019-08-17T09:47:12Z</time>
      </trkpt>
      <trkpt lat="47.36731" lon="6.43029">
        <ele>266</ele>
        <time>2019-08-17T09:47:13Z</time>
      </trkpt>
      <trkpt lat="47.36732" lon="6.43022">
        <ele>266</ele>
        <time>2019-08-17T09:47:14Z</time>
      </trkpt>
      <trkpt lat="47.36733" lon="6.43015">
        <ele>266</ele>
        <time>2019-08-17T09:47:15Z</time>
      </trkpt>
      <trkpt lat="47.36734" lon="6.43009">
        <ele>266</ele>
        <time>2019-08-17T09:47:16Z</time>
      </trkpt>
      <trkpt lat="47.36735" lon="6.43002">
        <ele>266</ele>
        <time>2019-08-17T09:47:17Z</time>
      </trkpt>
      <trkpt lat="47.36736" lon="6.42997">
        <ele>266</ele>
        <time>2019-08-17T09:47:18Z</time>
      </trkpt>
      <trkpt lat="47.36737" lon="6.42991">
        <ele>266</ele>
        <time>2019-08-17T09:47:19Z</time>
      </trkpt>
      <trkpt lat="47.36738" lon="6.42986">
        <ele>266</ele>
        <time>2019-08-17T09:47:20Z</time>
      </trkpt>
      <trkpt lat="47.36739" lon="6.42981">
        <ele>266</ele>
        <time>2019-08-17T09:47:21Z</time>
      </trkpt>
      <trkpt lat="47.3674" lon="6.42976">
        <ele>266</ele>
        <time>2019-08-17T09:47:22Z</time>
      </trkpt>
      <trkpt lat="47.36741" lon="6.42971">
        <ele>266</ele>
        <time>2019-08-17T09:47:23Z</time>
      </trkpt>
      <trkpt lat="47.36742" lon="6.42966">
        <ele>266</ele>
        <time>2019-08-17T09:47:24Z</time>
      </trkpt>
      <trkpt lat="47.36744" lon="6.42961">
        <ele>266</ele>
        <time>2019-08-17T09:47:25Z</time>
      </trkpt>
      <trkpt lat="47.36745" lon="6.42955">
        <ele>266</ele>
        <time>2019-08-17T09:47:26Z</time>
      </trkpt>
      <trkpt lat="47.36746" lon="6.42949">
        <ele>266</ele>
        <time>2019-08-17T09:47:27Z</time>
      </trkpt>
      <trkpt lat="47.36747" lon="6.42943">
        <ele>266</ele>
        <time>2019-08-17T09:47:28Z</time>
      </trkpt>
      <trkpt lat="47.36748" lon="6.42937">
        <ele>266</ele>
        <time>2019-08-17T09:47:29Z</time>
      </trkpt>
      <trkpt lat="47.3675" lon="6.42931">
        <ele>266</ele>
        <time>2019-08-17T09:47:30Z</time>
      </trkpt>
      <trkpt lat="47.36751" lon="6.42925">
        <ele>266.1</ele>
        <time>2019-08-17T09:47:31Z</time>
      </trkpt>
      <trkpt lat="47.36754" lon="6.42919">
        <ele>266.1</ele>
        <time>2019-08-17T09:47:32Z</time>
      </trkpt>
      <trkpt lat="47.36756" lon="6.42913">
        <ele>266.1</ele>
        <time>2019-08-17T09:47:33Z</time>
      </trkpt>
      <trkpt lat="47.36758" lon="6.42907">
        <ele>266.1</ele>
        <time>2019-08-17T09:47:34Z</time>
      </trkpt>
      <trkpt lat="47.3676" lon="6.429">
        <ele>266.1</ele>
        <time>2019-08-17T09:47:35Z</time>
      </trkpt>
      <trkpt lat="47.36762" lon="6.42895">
        <ele>266.1</ele>
        <time>2019-08-17T09:47:36Z</time>
      </trkpt>
      <trkpt lat="47.36765" lon="6.42889">
        <ele>266.1</ele>
        <time>2019-08-17T09:47:37Z</time>
      </trkpt>
      <trkpt lat="47.36767" lon="6.42884">
        <ele>266.2</ele>
        <time>2019-08-17T09:47:38Z</time>
      </trkpt>
      <trkpt lat="47.36769" lon="6.42878">
        <ele>266.2</ele>
        <time>2019-08-17T09:47:39Z</time>
      </trkpt>
      <trkpt lat="47.36771" lon="6.42872">
        <ele>266.2</ele>
        <time>2019-08-17T09:47:40Z</time>
      </trkpt>
      <trkpt lat="47.36772" lon="6.42865">
        <ele>266.2</ele>
        <time>2019-08-17T09:47:41Z</time>
      </trkpt>
      <trkpt lat="47.36775" lon="6.42861">
        <ele>266.2</ele>
        <time>2019-08-17T09:47:42Z</time>
      </trkpt>
      <trkpt lat="47.36776" lon="6.42855">
        <ele>266.2</ele>
        <time>2019-08-17T09:47:43Z</time>
      </trkpt>
      <trkpt lat="47.36778" lon="6.42849">
        <ele>266.2</ele>
        <time>2019-08-17T09:47:44Z</time>
      </trkpt>
      <trkpt lat="47.36779" lon="6.42843">
        <ele>266.2</ele>
        <time>2019-08-17T09:47:45Z</time>
      </trkpt>
      <trkpt lat="47.36781" lon="6.42837">
        <ele>266.2</ele>
        <time>2019-08-17T09:47:46Z</time>
      </trkpt>
      <trkpt lat="47.36784" lon="6.42831">
        <ele>266.2</ele>
        <time>2019-08-17T09:47:47Z</time>
      </trkpt>
      <trkpt lat="47.36786" lon="6.42826">
        <ele>266.2</ele>
        <time>2019-08-17T09:47:48Z</time>
      </trkpt>
      <trkpt lat="47.36788" lon="6.42819">
        <ele>266.2</ele>
        <time>2019-08-17T09:47:49Z</time>
      </trkpt>
      <trkpt lat="47.36791" lon="6.42813">
        <ele>266.3</ele>
        <time>2019-08-17T09:47:50Z</time>
      </trkpt>
      <trkpt lat="47.36794" lon="6.42807">
        <ele>266.3</ele>
        <time>2019-08-17T09:47:51Z</time>
      </trkpt>
      <trkpt lat="47.36797" lon="6.42801">
        <ele>266.3</ele>
        <time>2019-08-17T09:47:52Z</time>
      </trkpt>
      <trkpt lat="47.36801" lon="6.42795">
        <ele>266.3</ele>
        <time>2019-08-17T09:47:53Z</time>
      </trkpt>
      <trkpt lat="47.36804" lon="6.42788">
        <ele>266.3</ele>
        <time>2019-08-17T09:47:54Z</time>
      </trkpt>
      <trkpt lat="47.36807" lon="6.42784">
        <ele>266.4</ele>
        <time>2019-08-17T09:47:55Z</time>
      </trkpt>
      <trkpt lat="47.3681" lon="6.42779">
        <ele>266.4</ele>
        <time>2019-08-17T09:47:56Z</time>
      </trkpt>
      <trkpt lat="47.36815" lon="6.42776">
        <ele>266.4</ele>
        <time>2019-08-17T09:47:57Z</time>
      </trkpt>
      <trkpt lat="47.36819" lon="6.42773">
        <ele>266.5</ele>
        <time>2019-08-17T09:47:58Z</time>
      </trkpt>
      <trkpt lat="47.36824" lon="6.42768">
        <ele>266.5</ele>
        <time>2019-08-17T09:47:59Z</time>
      </trkpt>
      <trkpt lat="47.36829" lon="6.42765">
        <ele>266.6</ele>
        <time>2019-08-17T09:48:00Z</time>
      </trkpt>
      <trkpt lat="47.36834" lon="6.42762">
        <ele>266.7</ele>
        <time>2019-08-17T09:48:01Z</time>
      </trkpt>
      <trkpt lat="47.36837" lon="6.42758">
        <ele>266.8</ele>
        <time>2019-08-17T09:48:02Z</time>
      </trkpt>
      <trkpt lat="47.36841" lon="6.42755">
        <ele>266.8</ele>
        <time>2019-08-17T09:48:03Z</time>
      </trkpt>
      <trkpt lat="47.36845" lon="6.42754">
        <ele>266.9</ele>
        <time>2019-08-17T09:48:04Z</time>
      </trkpt>
      <trkpt lat="47.36849" lon="6.42752">
        <ele>267</ele>
        <time>2019-08-17T09:48:05Z</time>
      </trkpt>
      <trkpt lat="47.36854" lon="6.4275">
        <ele>267.1</ele>
        <time>2019-08-17T09:48:06Z</time>
      </trkpt>
      <trkpt lat="47.36859" lon="6.42747">
        <ele>267.2</ele>
        <time>2019-08-17T09:48:07Z</time>
      </trkpt>
      <trkpt lat="47.36864" lon="6.42745">
        <ele>267.2</ele>
        <time>2019-08-17T09:48:08Z</time>
      </trkpt>
      <trkpt lat="47.36869" lon="6.42742">
        <ele>267.3</ele>
        <time>2019-08-17T09:48:09Z</time>
      </trkpt>
      <trkpt lat="47.36874" lon="6.4274">
        <ele>267.4</ele>
        <time>2019-08-17T09:48:10Z</time>
      </trkpt>
      <trkpt lat="47.36879" lon="6.42738">
        <ele>267.4</ele>
        <time>2019-08-17T09:48:11Z</time>
      </trkpt>
      <trkpt lat="47.36883" lon="6.42734">
        <ele>267.5</ele>
        <time>2019-08-17T09:48:12Z</time>
      </trkpt>
      <trkpt lat="47.36888" lon="6.42731">
        <ele>267.5</ele>
        <time>2019-08-17T09:48:13Z</time>
      </trkpt>
      <trkpt lat="47.36892" lon="6.42728">
        <ele>267.6</ele>
        <time>2019-08-17T09:48:14Z</time>
      </trkpt>
      <trkpt lat="47.36896" lon="6.42725">
        <ele>267.6</ele>
        <time>2019-08-17T09:48:15Z</time>
      </trkpt>
      <trkpt lat="47.36901" lon="6.42722">
        <ele>267.7</ele>
        <time>2019-08-17T09:48:16Z</time>
      </trkpt>
      <trkpt lat="47.36904" lon="6.42719">
        <ele>267.7</ele>
        <time>2019-08-17T09:48:17Z</time>
      </trkpt>
      <trkpt lat="47.36909" lon="6.42715">
        <ele>267.7</ele>
        <time>2019-08-17T09:48:18Z</time>
      </trkpt>
      <trkpt lat="47.36913" lon="6.42712">
        <ele>267.8</ele>
        <time>2019-08-17T09:48:19Z</time>
      </trkpt>
      <trkpt lat="47.36918" lon="6.42708">
        <ele>267.8</ele>
        <time>2019-08-17T09:48:20Z</time>
      </trkpt>
      <trkpt lat="47.36922" lon="6.42707">
        <ele>267.8</ele>
        <time>2019-08-17T09:48:21Z</time>
      </trkpt>
      <trkpt lat="47.36927" lon="6.42704">
        <ele>267.9</ele>
        <time>2019-08-17T09:48:22Z</time>
      </trkpt>
      <trkpt lat="47.36932" lon="6.42701">
        <ele>267.9</ele>
        <time>2019-08-17T09:48:23Z</time>
      </trkpt>
      <trkpt lat="47.36937" lon="6.427">
        <ele>267.9</ele>
        <time>2019-08-17T09:48:24Z</time>
      </trkpt>
      <trkpt lat="47.36942" lon="6.427">
        <ele>268</ele>
        <time>2019-08-17T09:48:25Z</time>
      </trkpt>
      <trkpt lat="47.36947" lon="6.427">
        <ele>268</ele>
        <time>2019-08-17T09:48:26Z</time>
      </trkpt>
      <trkpt lat="47.36952" lon="6.42699">
        <ele>268</ele>
        <time>2019-08-17T09:48:27Z</time>
      </trkpt>
      <trkpt lat="47.36956" lon="6.42699">
        <ele>268</ele>
        <time>2019-08-17T09:48:28Z</time>
      </trkpt>
      <trkpt lat="47.36961" lon="6.427">
        <ele>268</ele>
        <time>2019-08-17T09:48:29Z</time>
      </trkpt>
      <trkpt lat="47.36966" lon="6.42701">
        <ele>268</ele>
        <time>2019-08-17T09:48:30Z</time>
      </trkpt>
      <trkpt lat="47.3697" lon="6.42701">
        <ele>268</ele>
        <time>2019-08-17T09:48:31Z</time>
      </trkpt>
      <trkpt lat="47.36975" lon="6.42701">
        <ele>268</ele>
        <time>2019-08-17T09:48:32Z</time>
      </trkpt>
      <trkpt lat="47.36981" lon="6.42702">
        <ele>268</ele>
        <time>2019-08-17T09:48:33Z</time>
      </trkpt>
      <trkpt lat="47.36985" lon="6.42702">
        <ele>268</ele>
        <time>2019-08-17T09:48:34Z</time>
      </trkpt>
      <trkpt lat="47.3699" lon="6.42702">
        <ele>268</ele>
        <time>2019-08-17T09:48:35Z</time>
      </trkpt>
      <trkpt lat="47.36995" lon="6.42703">
        <ele>268</ele>
        <time>2019-08-17T09:48:36Z</time>
      </trkpt>
      <trkpt lat="47.37001" lon="6.42705">
        <ele>268.1</ele>
        <time>2019-08-17T09:48:37Z</time>
      </trkpt>
      <trkpt lat="47.37006" lon="6.42708">
        <ele>268.1</ele>
        <time>2019-08-17T09:48:38Z</time>
      </trkpt>
      <trkpt lat="47.3701" lon="6.42711">
        <ele>268.1</ele>
        <time>2019-08-17T09:48:39Z</time>
      </trkpt>
      <trkpt lat="47.37015" lon="6.42714">
        <ele>268.1</ele>
        <time>2019-08-17T09:48:40Z</time>
      </trkpt>
      <trkpt lat="47.37019" lon="6.42716">
        <ele>268.1</ele>
        <time>2019-08-17T09:48:41Z</time>
      </trkpt>
      <trkpt lat="47.37024" lon="6.42718">
        <ele>268.1</ele>
        <time>2019-08-17T09:48:42Z</time>
      </trkpt>
      <trkpt lat="47.37028" lon="6.42719">
        <ele>268.1</ele>
        <time>2019-08-17T09:48:43Z</time>
      </trkpt>
      <trkpt lat="47.37032" lon="6.4272">
        <ele>268.1</ele>
        <time>2019-08-17T09:48:44Z</time>
      </trkpt>
      <trkpt lat="47.37037" lon="6.42719">
        <ele>268.1</ele>
        <time>2019-08-17T09:48:45Z</time>
      </trkpt>
      <trkpt lat="47.37041" lon="6.42716">
        <ele>268.2</ele>
        <time>2019-08-17T09:48:46Z</time>
      </trkpt>
      <trkpt lat="47.37046" lon="6.42714">
        <ele>268.2</ele>
        <time>2019-08-17T09:48:47Z</time>
      </trkpt>
      <trkpt lat="47.37051" lon="6.42712">
        <ele>268.2</ele>
        <time>2019-08-17T09:48:48Z</time>
      </trkpt>
      <trkpt lat="47.37056" lon="6.42709">
        <ele>268.2</ele>
        <time>2019-08-17T09:48:49Z</time>
      </trkpt>
      <trkpt lat="47.3706" lon="6.42707">
        <ele>268.3</ele>
        <time>2019-08-17T09:48:50Z</time>
      </trkpt>
      <trkpt lat="47.37064" lon="6.42705">
        <ele>268.3</ele>
        <time>2019-08-17T09:48:51Z</time>
      </trkpt>
      <trkpt lat="47.37069" lon="6.42703">
        <ele>268.3</ele>
        <time>2019-08-17T09:48:52Z</time>
      </trkpt>
      <trkpt lat="47.37074" lon="6.42702">
        <ele>268.3</ele>
        <time>2019-08-17T09:48:53Z</time>
      </trkpt>
      <trkpt lat="47.37078" lon="6.42702">
        <ele>268.3</ele>
        <time>2019-08-17T09:48:54Z</time>
      </trkpt>
      <trkpt lat="47.37083" lon="6.42702">
        <ele>268.4</ele>
        <time>2019-08-17T09:48:55Z</time>
      </trkpt>
      <trkpt lat="47.37088" lon="6.42701">
        <ele>268.4</ele>
        <time>2019-08-17T09:48:56Z</time>
      </trkpt>
      <trkpt lat="47.37093" lon="6.42699">
        <ele>268.4</ele>
        <time>2019-08-17T09:48:57Z</time>
      </trkpt>
      <trkpt lat="47.37098" lon="6.42698">
        <ele>268.4</ele>
        <time>2019-08-17T09:48:58Z</time>
      </trkpt>
      <trkpt lat="47.37102" lon="6.42696">
        <ele>268.4</ele>
        <time>2019-08-17T09:48:59Z</time>
      </trkpt>
      <trkpt lat="47.37107" lon="6.42693">
        <ele>268.4</ele>
        <time>2019-08-17T09:49:00Z</time>
      </trkpt>
      <trkpt lat="47.37111" lon="6.42689">
        <ele>268.4</ele>
        <time>2019-08-17T09:49:01Z</time>
      </trkpt>
      <trkpt lat="47.37114" lon="6.42684">
        <ele>268.4</ele>
        <time>2019-08-17T09:49:02Z</time>
      </trkpt>
      <trkpt lat="47.37117" lon="6.42679">
        <ele>268.4</ele>
        <time>2019-08-17T09:49:03Z</time>
      </trkpt>
      <trkpt lat="47.37119" lon="6.42673">
        <ele>268.4</ele>
        <time>2019-08-17T09:49:04Z</time>
      </trkpt>
      <trkpt lat="47.37121" lon="6.42667">
        <ele>268.4</ele>
        <time>2019-08-17T09:49:05Z</time>
      </trkpt>
      <trkpt lat="47.37124" lon="6.42661">
        <ele>268.4</ele>
        <time>2019-08-17T09:49:06Z</time>
      </trkpt>
      <trkpt lat="47.37127" lon="6.42656">
        <ele>268.4</ele>
        <time>2019-08-17T09:49:07Z</time>
      </trkpt>
      <trkpt lat="47.3713" lon="6.4265">
        <ele>268.4</ele>
        <time>2019-08-17T09:49:08Z</time>
      </trkpt>
      <trkpt lat="47.37132" lon="6.42644">
        <ele>268.4</ele>
        <time>2019-08-17T09:49:09Z</time>
      </trkpt>
      <trkpt lat="47.37135" lon="6.42638">
        <ele>268.4</ele>
        <time>2019-08-17T09:49:10Z</time>
      </trkpt>
      <trkpt lat="47.37138" lon="6.42633">
        <ele>268.4</ele>
        <time>2019-08-17T09:49:11Z</time>
      </trkpt>
      <trkpt lat="47.37142" lon="6.42629">
        <ele>268.4</ele>
        <time>2019-08-17T09:49:12Z</time>
      </trkpt>
      <trkpt lat="47.37145" lon="6.42625">
        <ele>268.4</ele>
        <time>2019-08-17T09:49:13Z</time>
      </trkpt>
      <trkpt lat="47.37148" lon="6.4262">
        <ele>268.4</ele>
        <time>2019-08-17T09:49:14Z</time>
      </trkpt>
      <trkpt lat="47.37151" lon="6.42615">
        <ele>268.4</ele>
        <time>2019-08-17T09:49:15Z</time>
      </trkpt>
      <trkpt lat="47.37154" lon="6.42608">
        <ele>268.4</ele>
        <time>2019-08-17T09:49:16Z</time>
      </trkpt>
      <trkpt lat="47.37158" lon="6.42603">
        <ele>268.3</ele>
        <time>2019-08-17T09:49:17Z</time>
      </trkpt>
      <trkpt lat="47.37161" lon="6.42598">
        <ele>268.3</ele>
        <time>2019-08-17T09:49:18Z</time>
      </trkpt>
      <trkpt lat="47.37164" lon="6.42592">
        <ele>268.3</ele>
        <time>2019-08-17T09:49:19Z</time>
      </trkpt>
      <trkpt lat="47.37166" lon="6.42585">
        <ele>268.2</ele>
        <time>2019-08-17T09:49:20Z</time>
      </trkpt>
      <trkpt lat="47.37168" lon="6.42577">
        <ele>268.2</ele>
        <time>2019-08-17T09:49:21Z</time>
      </trkpt>
      <trkpt lat="47.37169" lon="6.4257">
        <ele>268.2</ele>
        <time>2019-08-17T09:49:22Z</time>
      </trkpt>
      <trkpt lat="47.3717" lon="6.42562">
        <ele>268.1</ele>
        <time>2019-08-17T09:49:23Z</time>
      </trkpt>
      <trkpt lat="47.37172" lon="6.42555">
        <ele>268.1</ele>
        <time>2019-08-17T09:49:24Z</time>
      </trkpt>
      <trkpt lat="47.37172" lon="6.42547">
        <ele>268.1</ele>
        <time>2019-08-17T09:49:25Z</time>
      </trkpt>
      <trkpt lat="47.37172" lon="6.42539">
        <ele>268.1</ele>
        <time>2019-08-17T09:49:26Z</time>
      </trkpt>
      <trkpt lat="47.37173" lon="6.42532">
        <ele>268.1</ele>
        <time>2019-08-17T09:49:27Z</time>
      </trkpt>
      <trkpt lat="47.37172" lon="6.42524">
        <ele>268.1</ele>
        <time>2019-08-17T09:49:28Z</time>
      </trkpt>
      <trkpt lat="47.37172" lon="6.42518">
        <ele>268.1</ele>
        <time>2019-08-17T09:49:29Z</time>
      </trkpt>
      <trkpt lat="47.37171" lon="6.42511">
        <ele>268.1</ele>
        <time>2019-08-17T09:49:30Z</time>
      </trkpt>
      <trkpt lat="47.37171" lon="6.42504">
        <ele>268.1</ele>
        <time>2019-08-17T09:49:31Z</time>
      </trkpt>
      <trkpt lat="47.37169" lon="6.42499">
        <ele>268.1</ele>
        <time>2019-08-17T09:49:32Z</time>
      </trkpt>
      <trkpt lat="47.37167" lon="6.42492">
        <ele>268.1</ele>
        <time>2019-08-17T09:49:33Z</time>
      </trkpt>
      <trkpt lat="47.37165" lon="6.42486">
        <ele>268.1</ele>
        <time>2019-08-17T09:49:34Z</time>
      </trkpt>
      <trkpt lat="47.37164" lon="6.4248">
        <ele>268.1</ele>
        <time>2019-08-17T09:49:35Z</time>
      </trkpt>
      <trkpt lat="47.37162" lon="6.42474">
        <ele>268.1</ele>
        <time>2019-08-17T09:49:36Z</time>
      </trkpt>
      <trkpt lat="47.3716" lon="6.42466">
        <ele>268.1</ele>
        <time>2019-08-17T09:49:37Z</time>
      </trkpt>
      <trkpt lat="47.37159" lon="6.4246">
        <ele>268.1</ele>
        <time>2019-08-17T09:49:38Z</time>
      </trkpt>
      <trkpt lat="47.37157" lon="6.42454">
        <ele>268.1</ele>
        <time>2019-08-17T09:49:39Z</time>
      </trkpt>
      <trkpt lat="47.37155" lon="6.42449">
        <ele>268.2</ele>
        <time>2019-08-17T09:49:40Z</time>
      </trkpt>
      <trkpt lat="47.37152" lon="6.42444">
        <ele>268.2</ele>
        <time>2019-08-17T09:49:41Z</time>
      </trkpt>
      <trkpt lat="47.37148" lon="6.4244">
        <ele>268.2</ele>
        <time>2019-08-17T09:49:42Z</time>
      </trkpt>
      <trkpt lat="47.37144" lon="6.42435">
        <ele>268.2</ele>
        <time>2019-08-17T09:49:43Z</time>
      </trkpt>
      <trkpt lat="47.37141" lon="6.42429">
        <ele>268.2</ele>
        <time>2019-08-17T09:49:44Z</time>
      </trkpt>
      <trkpt lat="47.37138" lon="6.42423">
        <ele>268.2</ele>
        <time>2019-08-17T09:49:45Z</time>
      </trkpt>
      <trkpt lat="47.37135" lon="6.42418">
        <ele>268.2</ele>
        <time>2019-08-17T09:49:46Z</time>
      </trkpt>
      <trkpt lat="47.37131" lon="6.42413">
        <ele>268.2</ele>
        <time>2019-08-17T09:49:47Z</time>
      </trkpt>
      <trkpt lat="47.37129" lon="6.42409">
        <ele>268.2</ele>
        <time>2019-08-17T09:49:48Z</time>
      </trkpt>
      <trkpt lat="47.37127" lon="6.42403">
        <ele>268.2</ele>
        <time>2019-08-17T09:49:49Z</time>
      </trkpt>
      <trkpt lat="47.37124" lon="6.42398">
        <ele>268.2</ele>
        <time>2019-08-17T09:49:50Z</time>
      </trkpt>
      <trkpt lat="47.37121" lon="6.42393">
        <ele>268.2</ele>
        <time>2019-08-17T09:49:51Z</time>
      </trkpt>
      <trkpt lat="47.37118" lon="6.42387">
        <ele>268.2</ele>
        <time>2019-08-17T09:49:52Z</time>
      </trkpt>
      <trkpt lat="47.37115" lon="6.42382">
        <ele>268.2</ele>
        <time>2019-08-17T09:49:53Z</time>
      </trkpt>
      <trkpt lat="47.37112" lon="6.42376">
        <ele>268.2</ele>
        <time>2019-08-17T09:49:54Z</time>
      </trkpt>
      <trkpt lat="47.37109" lon="6.4237">
        <ele>268.2</ele>
        <time>2019-08-17T09:49:55Z</time>
      </trkpt>
      <trkpt lat="47.37105" lon="6.42363">
        <ele>268.3</ele>
        <time>2019-08-17T09:49:56Z</time>
      </trkpt>
      <trkpt lat="47.37102" lon="6.42357">
        <ele>268.3</ele>
        <time>2019-08-17T09:49:57Z</time>
      </trkpt>
      <trkpt lat="47.37099" lon="6.4235">
        <ele>268.3</ele>
        <time>2019-08-17T09:49:58Z</time>
      </trkpt>
      <trkpt lat="47.37097" lon="6.42344">
        <ele>268.3</ele>
        <time>2019-08-17T09:49:59Z</time>
      </trkpt>
      <trkpt lat="47.37095" lon="6.42339">
        <ele>268.3</ele>
        <time>2019-08-17T09:50:00Z</time>
      </trkpt>
      <trkpt lat="47.37091" lon="6.42333">
        <ele>268.3</ele>
        <time>2019-08-17T09:50:01Z</time>
      </trkpt>
      <trkpt lat="47.37088" lon="6.42328">
        <ele>268.3</ele>
        <time>2019-08-17T09:50:02Z</time>
      </trkpt>
      <trkpt lat="47.37085" lon="6.42322">
        <ele>268.3</ele>
        <time>2019-08-17T09:50:03Z</time>
      </trkpt>
      <trkpt lat="47.37082" lon="6.42316">
        <ele>268.3</ele>
        <time>2019-08-17T09:50:04Z</time>
      </trkpt>
      <trkpt lat="47.37079" lon="6.4231">
        <ele>268.3</ele>
        <time>2019-08-17T09:50:05Z</time>
      </trkpt>
      <trkpt lat="47.37076" lon="6.42305">
        <ele>268.3</ele>
        <time>2019-08-17T09:50:06Z</time>
      </trkpt>
      <trkpt lat="47.37073" lon="6.42299">
        <ele>268.4</ele>
        <time>2019-08-17T09:50:07Z</time>
      </trkpt>
      <trkpt lat="47.37069" lon="6.42293">
        <ele>268.4</ele>
        <time>2019-08-17T09:50:08Z</time>
      </trkpt>
      <trkpt lat="47.37065" lon="6.42287">
        <ele>268.4</ele>
        <time>2019-08-17T09:50:09Z</time>
      </trkpt>
      <trkpt lat="47.37061" lon="6.42282">
        <ele>268.4</ele>
        <time>2019-08-17T09:50:10Z</time>
      </trkpt>
      <trkpt lat="47.37058" lon="6.42277">
        <ele>268.4</ele>
        <time>2019-08-17T09:50:11Z</time>
      </trkpt>
      <trkpt lat="47.37054" lon="6.42272">
        <ele>268.4</ele>
        <time>2019-08-17T09:50:12Z</time>
      </trkpt>
      <trkpt lat="47.37051" lon="6.42267">
        <ele>268.4</ele>
        <time>2019-08-17T09:50:13Z</time>
      </trkpt>
      <trkpt lat="47.37047" lon="6.42262">
        <ele>268.4</ele>
        <time>2019-08-17T09:50:14Z</time>
      </trkpt>
      <trkpt lat="47.37043" lon="6.42257">
        <ele>268.4</ele>
        <time>2019-08-17T09:50:15Z</time>
      </trkpt>
      <trkpt lat="47.3704" lon="6.42251">
        <ele>268.4</ele>
        <time>2019-08-17T09:50:16Z</time>
      </trkpt>
      <trkpt lat="47.37035" lon="6.42245">
        <ele>268.5</ele>
        <time>2019-08-17T09:50:17Z</time>
      </trkpt>
      <trkpt lat="47.37031" lon="6.4224">
        <ele>268.5</ele>
        <time>2019-08-17T09:50:18Z</time>
      </trkpt>
      <trkpt lat="47.37026" lon="6.42235">
        <ele>268.5</ele>
        <time>2019-08-17T09:50:19Z</time>
      </trkpt>
      <trkpt lat="47.37022" lon="6.4223">
        <ele>268.5</ele>
        <time>2019-08-17T09:50:20Z</time>
      </trkpt>
      <trkpt lat="47.37018" lon="6.42225">
        <ele>268.5</ele>
        <time>2019-08-17T09:50:21Z</time>
      </trkpt>
      <trkpt lat="47.37015" lon="6.42219">
        <ele>268.5</ele>
        <time>2019-08-17T09:50:22Z</time>
      </trkpt>
      <trkpt lat="47.37011" lon="6.42214">
        <ele>268.5</ele>
        <time>2019-08-17T09:50:23Z</time>
      </trkpt>
      <trkpt lat="47.37008" lon="6.42209">
        <ele>268.5</ele>
        <time>2019-08-17T09:50:24Z</time>
      </trkpt>
      <trkpt lat="47.37004" lon="6.42203">
        <ele>268.5</ele>
        <time>2019-08-17T09:50:25Z</time>
      </trkpt>
      <trkpt lat="47.37001" lon="6.42198">
        <ele>268.6</ele>
        <time>2019-08-17T09:50:26Z</time>
      </trkpt>
      <trkpt lat="47.36998" lon="6.42192">
        <ele>268.6</ele>
        <time>2019-08-17T09:50:27Z</time>
      </trkpt>
      <trkpt lat="47.36994" lon="6.42187">
        <ele>268.6</ele>
        <time>2019-08-17T09:50:28Z</time>
      </trkpt>
      <trkpt lat="47.36991" lon="6.42182">
        <ele>268.6</ele>
        <time>2019-08-17T09:50:29Z</time>
      </trkpt>
      <trkpt lat="47.36987" lon="6.42177">
        <ele>268.6</ele>
        <time>2019-08-17T09:50:30Z</time>
      </trkpt>
      <trkpt lat="47.36983" lon="6.42172">
        <ele>268.5</ele>
        <time>2019-08-17T09:50:31Z</time>
      </trkpt>
      <trkpt lat="47.36979" lon="6.42167">
        <ele>268.5</ele>
        <time>2019-08-17T09:50:32Z</time>
      </trkpt>
      <trkpt lat="47.36975" lon="6.42163">
        <ele>268.4</ele>
        <time>2019-08-17T09:50:33Z</time>
      </trkpt>
      <trkpt lat="47.36971" lon="6.42158">
        <ele>268.2</ele>
        <time>2019-08-17T09:50:34Z</time>
      </trkpt>
      <trkpt lat="47.36967" lon="6.42153">
        <ele>268</ele>
        <time>2019-08-17T09:50:35Z</time>
      </trkpt>
      <trkpt lat="47.36963" lon="6.42149">
        <ele>267.8</ele>
        <time>2019-08-17T09:50:36Z</time>
      </trkpt>
      <trkpt lat="47.36959" lon="6.42145">
        <ele>267.6</ele>
        <time>2019-08-17T09:50:37Z</time>
      </trkpt>
      <trkpt lat="47.36954" lon="6.42141">
        <ele>267.4</ele>
        <time>2019-08-17T09:50:38Z</time>
      </trkpt>
      <trkpt lat="47.3695" lon="6.42138">
        <ele>267.2</ele>
        <time>2019-08-17T09:50:39Z</time>
      </trkpt>
      <trkpt lat="47.36947" lon="6.42135">
        <ele>267</ele>
        <time>2019-08-17T09:50:40Z</time>
      </trkpt>
      <trkpt lat="47.36943" lon="6.42131">
        <ele>266.8</ele>
        <time>2019-08-17T09:50:41Z</time>
      </trkpt>
      <trkpt lat="47.36939" lon="6.42127">
        <ele>266.7</ele>
        <time>2019-08-17T09:50:42Z</time>
      </trkpt>
      <trkpt lat="47.36935" lon="6.42122">
        <ele>266.6</ele>
        <time>2019-08-17T09:50:43Z</time>
      </trkpt>
      <trkpt lat="47.36929" lon="6.42119">
        <ele>266.5</ele>
        <time>2019-08-17T09:50:44Z</time>
      </trkpt>
      <trkpt lat="47.36925" lon="6.42115">
        <ele>266.5</ele>
        <time>2019-08-17T09:50:45Z</time>
      </trkpt>
      <trkpt lat="47.3692" lon="6.42111">
        <ele>266.5</ele>
        <time>2019-08-17T09:50:46Z</time>
      </trkpt>
      <trkpt lat="47.36917" lon="6.42107">
        <ele>266.5</ele>
        <time>2019-08-17T09:50:47Z</time>
      </trkpt>
      <trkpt lat="47.36913" lon="6.42103">
        <ele>266.5</ele>
        <time>2019-08-17T09:50:48Z</time>
      </trkpt>
      <trkpt lat="47.3691" lon="6.421">
        <ele>266.5</ele>
        <time>2019-08-17T09:50:49Z</time>
      </trkpt>
      <trkpt lat="47.36905" lon="6.42097">
        <ele>266.6</ele>
        <time>2019-08-17T09:50:50Z</time>
      </trkpt>
      <trkpt lat="47.36901" lon="6.42092">
        <ele>266.7</ele>
        <time>2019-08-17T09:50:51Z</time>
      </trkpt>
      <trkpt lat="47.36898" lon="6.42089">
        <ele>266.8</ele>
        <time>2019-08-17T09:50:52Z</time>
      </trkpt>
      <trkpt lat="47.36894" lon="6.42085">
        <ele>267</ele>
        <time>2019-08-17T09:50:53Z</time>
      </trkpt>
      <trkpt lat="47.36889" lon="6.42082">
        <ele>267.2</ele>
        <time>2019-08-17T09:50:54Z</time>
      </trkpt>
      <trkpt lat="47.36884" lon="6.42079">
        <ele>267.4</ele>
        <time>2019-08-17T09:50:55Z</time>
      </trkpt>
      <trkpt lat="47.36879" lon="6.42076">
        <ele>267.6</ele>
        <time>2019-08-17T09:50:56Z</time>
      </trkpt>
      <trkpt lat="47.36874" lon="6.42073">
        <ele>267.7</ele>
        <time>2019-08-17T09:50:57Z</time>
      </trkpt>
      <trkpt lat="47.36869" lon="6.42069">
        <ele>267.8</ele>
        <time>2019-08-17T09:50:58Z</time>
      </trkpt>
      <trkpt lat="47.36865" lon="6.42067">
        <ele>267.9</ele>
        <time>2019-08-17T09:50:59Z</time>
      </trkpt>
      <trkpt lat="47.36862" lon="6.42064">
        <ele>267.9</ele>
        <time>2019-08-17T09:51:00Z</time>
      </trkpt>
      <trkpt lat="47.36857" lon="6.42062">
        <ele>268</ele>
        <time>2019-08-17T09:51:01Z</time>
      </trkpt>
      <trkpt lat="47.36853" lon="6.42061">
        <ele>268</ele>
        <time>2019-08-17T09:51:02Z</time>
      </trkpt>
      <trkpt lat="47.36848" lon="6.42058">
        <ele>268</ele>
        <time>2019-08-17T09:51:03Z</time>
      </trkpt>
      <trkpt lat="47.36843" lon="6.42055">
        <ele>268</ele>
        <time>2019-08-17T09:51:04Z</time>
      </trkpt>
      <trkpt lat="47.36839" lon="6.42053">
        <ele>268</ele>
        <time>2019-08-17T09:51:05Z</time>
      </trkpt>
      <trkpt lat="47.36834" lon="6.4205">
        <ele>268</ele>
        <time>2019-08-17T09:51:06Z</time>
      </trkpt>
      <trkpt lat="47.3683" lon="6.42047">
        <ele>268</ele>
        <time>2019-08-17T09:51:07Z</time>
      </trkpt>
      <trkpt lat="47.36825" lon="6.42045">
        <ele>268.1</ele>
        <time>2019-08-17T09:51:08Z</time>
      </trkpt>
      <trkpt lat="47.3682" lon="6.42043">
        <ele>268.1</ele>
        <time>2019-08-17T09:51:09Z</time>
      </trkpt>
      <trkpt lat="47.36815" lon="6.4204">
        <ele>268.1</ele>
        <time>2019-08-17T09:51:10Z</time>
      </trkpt>
      <trkpt lat="47.3681" lon="6.42038">
        <ele>268.1</ele>
        <time>2019-08-17T09:51:11Z</time>
      </trkpt>
      <trkpt lat="47.36805" lon="6.42035">
        <ele>268.1</ele>
        <time>2019-08-17T09:51:12Z</time>
      </trkpt>
      <trkpt lat="47.368" lon="6.42032">
        <ele>268.1</ele>
        <time>2019-08-17T09:51:13Z</time>
      </trkpt>
      <trkpt lat="47.36795" lon="6.42029">
        <ele>268.1</ele>
        <time>2019-08-17T09:51:14Z</time>
      </trkpt>
      <trkpt lat="47.36789" lon="6.42028">
        <ele>268.1</ele>
        <time>2019-08-17T09:51:15Z</time>
      </trkpt>
      <trkpt lat="47.36783" lon="6.42026">
        <ele>268.1</ele>
        <time>2019-08-17T09:51:16Z</time>
      </trkpt>
      <trkpt lat="47.36778" lon="6.42024">
        <ele>268.2</ele>
        <time>2019-08-17T09:51:17Z</time>
      </trkpt>
      <trkpt lat="47.36773" lon="6.42022">
        <ele>268.2</ele>
        <time>2019-08-17T09:51:18Z</time>
      </trkpt>
      <trkpt lat="47.36768" lon="6.4202">
        <ele>268.2</ele>
        <time>2019-08-17T09:51:19Z</time>
      </trkpt>
      <trkpt lat="47.36763" lon="6.42018">
        <ele>268.2</ele>
        <time>2019-08-17T09:51:20Z</time>
      </trkpt>
      <trkpt lat="47.36758" lon="6.42016">
        <ele>268.2</ele>
        <time>2019-08-17T09:51:21Z</time>
      </trkpt>
      <trkpt lat="47.36753" lon="6.42013">
        <ele>268.2</ele>
        <time>2019-08-17T09:51:22Z</time>
      </trkpt>
      <trkpt lat="47.36748" lon="6.4201">
        <ele>268.2</ele>
        <time>2019-08-17T09:51:23Z</time>
      </trkpt>
      <trkpt lat="47.36744" lon="6.42007">
        <ele>268.2</ele>
        <time>2019-08-17T09:51:24Z</time>
      </trkpt>
      <trkpt lat="47.36739" lon="6.42005">
        <ele>268.2</ele>
        <time>2019-08-17T09:51:25Z</time>
      </trkpt>
      <trkpt lat="47.36734" lon="6.42003">
        <ele>268.3</ele>
        <time>2019-08-17T09:51:26Z</time>
      </trkpt>
      <trkpt lat="47.3673" lon="6.42">
        <ele>268.3</ele>
        <time>2019-08-17T09:51:27Z</time>
      </trkpt>
      <trkpt lat="47.36726" lon="6.41997">
        <ele>268.3</ele>
        <time>2019-08-17T09:51:28Z</time>
      </trkpt>
      <trkpt lat="47.36721" lon="6.41994">
        <ele>268.4</ele>
        <time>2019-08-17T09:51:29Z</time>
      </trkpt>
      <trkpt lat="47.36716" lon="6.41991">
        <ele>268.5</ele>
        <time>2019-08-17T09:51:30Z</time>
      </trkpt>
      <trkpt lat="47.36711" lon="6.41988">
        <ele>268.6</ele>
        <time>2019-08-17T09:51:31Z</time>
      </trkpt>
      <trkpt lat="47.36706" lon="6.41986">
        <ele>268.8</ele>
        <time>2019-08-17T09:51:32Z</time>
      </trkpt>
      <trkpt lat="47.36702" lon="6.41983">
        <ele>268.9</ele>
        <time>2019-08-17T09:51:33Z</time>
      </trkpt>
      <trkpt lat="47.36697" lon="6.41981">
        <ele>269</ele>
        <time>2019-08-17T09:51:34Z</time>
      </trkpt>
      <trkpt lat="47.36692" lon="6.41978">
        <ele>269.1</ele>
        <time>2019-08-17T09:51:35Z</time>
      </trkpt>
      <trkpt lat="47.36687" lon="6.41975">
        <ele>269.2</ele>
        <time>2019-08-17T09:51:36Z</time>
      </trkpt>
      <trkpt lat="47.36682" lon="6.41971">
        <ele>269.2</ele>
        <time>2019-08-17T09:51:37Z</time>
      </trkpt>
      <trkpt lat="47.36678" lon="6.41968">
        <ele>269.3</ele>
        <time>2019-08-17T09:51:38Z</time>
      </trkpt>
      <trkpt lat="47.36673" lon="6.41966">
        <ele>269.3</ele>
        <time>2019-08-17T09:51:39Z</time>
      </trkpt>
      <trkpt lat="47.36669" lon="6.41964">
        <ele>269.4</ele>
        <time>2019-08-17T09:51:40Z</time>
      </trkpt>
      <trkpt lat="47.36665" lon="6.41962">
        <ele>269.5</ele>
        <time>2019-08-17T09:51:41Z</time>
      </trkpt>
      <trkpt lat="47.3666" lon="6.4196">
        <ele>269.7</ele>
        <time>2019-08-17T09:51:42Z</time>
      </trkpt>
      <trkpt lat="47.36656" lon="6.41958">
        <ele>269.9</ele>
        <time>2019-08-17T09:51:43Z</time>
      </trkpt>
      <trkpt lat="47.36651" lon="6.41956">
        <ele>270.1</ele>
        <time>2019-08-17T09:51:44Z</time>
      </trkpt>
      <trkpt lat="47.36646" lon="6.41954">
        <ele>270.4</ele>
        <time>2019-08-17T09:51:45Z</time>
      </trkpt>
      <trkpt lat="47.36641" lon="6.41952">
        <ele>270.6</ele>
        <time>2019-08-17T09:51:46Z</time>
      </trkpt>
      <trkpt lat="47.36637" lon="6.41949">
        <ele>270.8</ele>
        <time>2019-08-17T09:51:47Z</time>
      </trkpt>
      <trkpt lat="47.36633" lon="6.41947">
        <ele>270.9</ele>
        <time>2019-08-17T09:51:48Z</time>
      </trkpt>
      <trkpt lat="47.36629" lon="6.41945">
        <ele>271</ele>
        <time>2019-08-17T09:51:49Z</time>
      </trkpt>
      <trkpt lat="47.36625" lon="6.41942">
        <ele>271</ele>
        <time>2019-08-17T09:51:50Z</time>
      </trkpt>
      <trkpt lat="47.36621" lon="6.4194">
        <ele>271</ele>
        <time>2019-08-17T09:51:51Z</time>
      </trkpt>
      <trkpt lat="47.36615" lon="6.41937">
        <ele>271.1</ele>
        <time>2019-08-17T09:51:52Z</time>
      </trkpt>
      <trkpt lat="47.36611" lon="6.41935">
        <ele>271.1</ele>
        <time>2019-08-17T09:51:53Z</time>
      </trkpt>
      <trkpt lat="47.36606" lon="6.41933">
        <ele>271.1</ele>
        <time>2019-08-17T09:51:54Z</time>
      </trkpt>
      <trkpt lat="47.36601" lon="6.4193">
        <ele>271</ele>
        <time>2019-08-17T09:51:55Z</time>
      </trkpt>
      <trkpt lat="47.36596" lon="6.41929">
        <ele>270.9</ele>
        <time>2019-08-17T09:51:56Z</time>
      </trkpt>
      <trkpt lat="47.36591" lon="6.41927">
        <ele>270.8</ele>
        <time>2019-08-17T09:51:57Z</time>
      </trkpt>
      <trkpt lat="47.36586" lon="6.41925">
        <ele>270.6</ele>
        <time>2019-08-17T09:51:58Z</time>
      </trkpt>
      <trkpt lat="47.36581" lon="6.41925">
        <ele>270.5</ele>
        <time>2019-08-17T09:51:59Z</time>
      </trkpt>
      <trkpt lat="47.36576" lon="6.41924">
        <ele>270.3</ele>
        <time>2019-08-17T09:52:00Z</time>
      </trkpt>
      <trkpt lat="47.36571" lon="6.41924">
        <ele>270.2</ele>
        <time>2019-08-17T09:52:01Z</time>
      </trkpt>
      <trkpt lat="47.36566" lon="6.41923">
        <ele>270.1</ele>
        <time>2019-08-17T09:52:02Z</time>
      </trkpt>
      <trkpt lat="47.3656" lon="6.41923">
        <ele>270.1</ele>
        <time>2019-08-17T09:52:03Z</time>
      </trkpt>
      <trkpt lat="47.36554" lon="6.41922">
        <ele>270.1</ele>
        <time>2019-08-17T09:52:04Z</time>
      </trkpt>
      <trkpt lat="47.36549" lon="6.41922">
        <ele>270</ele>
        <time>2019-08-17T09:52:05Z</time>
      </trkpt>
      <trkpt lat="47.36543" lon="6.41921">
        <ele>270</ele>
        <time>2019-08-17T09:52:06Z</time>
      </trkpt>
      <trkpt lat="47.36539" lon="6.41921">
        <ele>270</ele>
        <time>2019-08-17T09:52:07Z</time>
      </trkpt>
      <trkpt lat="47.36534" lon="6.4192">
        <ele>270</ele>
        <time>2019-08-17T09:52:08Z</time>
      </trkpt>
      <trkpt lat="47.36529" lon="6.41918">
        <ele>270</ele>
        <time>2019-08-17T09:52:09Z</time>
      </trkpt>
      <trkpt lat="47.36525" lon="6.41917">
        <ele>270.1</ele>
        <time>2019-08-17T09:52:10Z</time>
      </trkpt>
      <trkpt lat="47.3652" lon="6.41916">
        <ele>270.1</ele>
        <time>2019-08-17T09:52:11Z</time>
      </trkpt>
      <trkpt lat="47.36516" lon="6.41917">
        <ele>270.1</ele>
        <time>2019-08-17T09:52:12Z</time>
      </trkpt>
      <trkpt lat="47.36512" lon="6.41918">
        <ele>270.1</ele>
        <time>2019-08-17T09:52:13Z</time>
      </trkpt>
      <trkpt lat="47.36507" lon="6.41919">
        <ele>270</ele>
        <time>2019-08-17T09:52:14Z</time>
      </trkpt>
      <trkpt lat="47.36502" lon="6.41919">
        <ele>270</ele>
        <time>2019-08-17T09:52:15Z</time>
      </trkpt>
      <trkpt lat="47.36497" lon="6.41918">
        <ele>269.9</ele>
        <time>2019-08-17T09:52:16Z</time>
      </trkpt>
      <trkpt lat="47.36492" lon="6.41917">
        <ele>269.8</ele>
        <time>2019-08-17T09:52:17Z</time>
      </trkpt>
      <trkpt lat="47.36488" lon="6.41917">
        <ele>269.6</ele>
        <time>2019-08-17T09:52:18Z</time>
      </trkpt>
      <trkpt lat="47.36483" lon="6.41918">
        <ele>269.4</ele>
        <time>2019-08-17T09:52:19Z</time>
      </trkpt>
      <trkpt lat="47.36478" lon="6.41918">
        <ele>269.2</ele>
        <time>2019-08-17T09:52:20Z</time>
      </trkpt>
      <trkpt lat="47.36473" lon="6.41918">
        <ele>269.1</ele>
        <time>2019-08-17T09:52:21Z</time>
      </trkpt>
      <trkpt lat="47.36469" lon="6.41917">
        <ele>268.9</ele>
        <time>2019-08-17T09:52:22Z</time>
      </trkpt>
      <trkpt lat="47.36464" lon="6.41917">
        <ele>268.7</ele>
        <time>2019-08-17T09:52:23Z</time>
      </trkpt>
      <trkpt lat="47.36458" lon="6.41916">
        <ele>268.6</ele>
        <time>2019-08-17T09:52:24Z</time>
      </trkpt>
      <trkpt lat="47.36453" lon="6.41915">
        <ele>268.4</ele>
        <time>2019-08-17T09:52:25Z</time>
      </trkpt>
      <trkpt lat="47.36448" lon="6.41914">
        <ele>268.2</ele>
        <time>2019-08-17T09:52:26Z</time>
      </trkpt>
      <trkpt lat="47.36443" lon="6.41913">
        <ele>268.1</ele>
        <time>2019-08-17T09:52:27Z</time>
      </trkpt>
      <trkpt lat="47.36437" lon="6.41912">
        <ele>267.9</ele>
        <time>2019-08-17T09:52:28Z</time>
      </trkpt>
      <trkpt lat="47.36432" lon="6.41912">
        <ele>267.8</ele>
        <time>2019-08-17T09:52:29Z</time>
      </trkpt>
      <trkpt lat="47.36427" lon="6.41912">
        <ele>267.6</ele>
        <time>2019-08-17T09:52:30Z</time>
      </trkpt>
      <trkpt lat="47.36422" lon="6.41912">
        <ele>267.3</ele>
        <time>2019-08-17T09:52:31Z</time>
      </trkpt>
      <trkpt lat="47.36417" lon="6.41912">
        <ele>267</ele>
        <time>2019-08-17T09:52:32Z</time>
      </trkpt>
      <trkpt lat="47.36412" lon="6.41912">
        <ele>266.5</ele>
        <time>2019-08-17T09:52:33Z</time>
      </trkpt>
      <trkpt lat="47.36407" lon="6.41912">
        <ele>266.1</ele>
        <time>2019-08-17T09:52:34Z</time>
      </trkpt>
      <trkpt lat="47.36403" lon="6.41912">
        <ele>265.7</ele>
        <time>2019-08-17T09:52:35Z</time>
      </trkpt>
      <trkpt lat="47.36397" lon="6.41912">
        <ele>265.3</ele>
        <time>2019-08-17T09:52:36Z</time>
      </trkpt>
      <trkpt lat="47.36392" lon="6.41912">
        <ele>265.1</ele>
        <time>2019-08-17T09:52:37Z</time>
      </trkpt>
      <trkpt lat="47.36387" lon="6.41912">
        <ele>265.1</ele>
        <time>2019-08-17T09:52:38Z</time>
      </trkpt>
      <trkpt lat="47.36383" lon="6.41912">
        <ele>265.3</ele>
        <time>2019-08-17T09:52:39Z</time>
      </trkpt>
      <trkpt lat="47.36378" lon="6.41912">
        <ele>265.8</ele>
        <time>2019-08-17T09:52:40Z</time>
      </trkpt>
      <trkpt lat="47.36372" lon="6.41911">
        <ele>266.5</ele>
        <time>2019-08-17T09:52:41Z</time>
      </trkpt>
      <trkpt lat="47.36368" lon="6.41911">
        <ele>267.1</ele>
        <time>2019-08-17T09:52:42Z</time>
      </trkpt>
      <trkpt lat="47.36363" lon="6.41911">
        <ele>267.7</ele>
        <time>2019-08-17T09:52:43Z</time>
      </trkpt>
      <trkpt lat="47.36358" lon="6.41912">
        <ele>268.1</ele>
        <time>2019-08-17T09:52:44Z</time>
      </trkpt>
      <trkpt lat="47.36354" lon="6.41913">
        <ele>268.4</ele>
        <time>2019-08-17T09:52:45Z</time>
      </trkpt>
      <trkpt lat="47.3635" lon="6.41914">
        <ele>268.6</ele>
        <time>2019-08-17T09:52:46Z</time>
      </trkpt>
      <trkpt lat="47.36346" lon="6.41915">
        <ele>268.7</ele>
        <time>2019-08-17T09:52:47Z</time>
      </trkpt>
      <trkpt lat="47.36342" lon="6.41917">
        <ele>268.8</ele>
        <time>2019-08-17T09:52:48Z</time>
      </trkpt>
      <trkpt lat="47.36337" lon="6.41918">
        <ele>268.9</ele>
        <time>2019-08-17T09:52:49Z</time>
      </trkpt>
      <trkpt lat="47.36334" lon="6.41919">
        <ele>268.9</ele>
        <time>2019-08-17T09:52:50Z</time>
      </trkpt>
      <trkpt lat="47.36329" lon="6.4192">
        <ele>268.9</ele>
        <time>2019-08-17T09:52:51Z</time>
      </trkpt>
      <trkpt lat="47.36325" lon="6.41921">
        <ele>269</ele>
        <time>2019-08-17T09:52:52Z</time>
      </trkpt>
      <trkpt lat="47.3632" lon="6.41922">
        <ele>269</ele>
        <time>2019-08-17T09:52:53Z</time>
      </trkpt>
      <trkpt lat="47.36315" lon="6.41924">
        <ele>269</ele>
        <time>2019-08-17T09:52:54Z</time>
      </trkpt>
      <trkpt lat="47.3631" lon="6.41925">
        <ele>269</ele>
        <time>2019-08-17T09:52:55Z</time>
      </trkpt>
      <trkpt lat="47.36304" lon="6.41925">
        <ele>269</ele>
        <time>2019-08-17T09:52:56Z</time>
      </trkpt>
      <trkpt lat="47.36299" lon="6.41926">
        <ele>269</ele>
        <time>2019-08-17T09:52:57Z</time>
      </trkpt>
      <trkpt lat="47.36294" lon="6.41927">
        <ele>269</ele>
        <time>2019-08-17T09:52:58Z</time>
      </trkpt>
      <trkpt lat="47.36291" lon="6.41929">
        <ele>269</ele>
        <time>2019-08-17T09:52:59Z</time>
      </trkpt>
      <trkpt lat="47.36287" lon="6.4193">
        <ele>269</ele>
        <time>2019-08-17T09:53:00Z</time>
      </trkpt>
      <trkpt lat="47.36283" lon="6.41931">
        <ele>269</ele>
        <time>2019-08-17T09:53:01Z</time>
      </trkpt>
      <trkpt lat="47.36279" lon="6.41932">
        <ele>269.1</ele>
        <time>2019-08-17T09:53:02Z</time>
      </trkpt>
      <trkpt lat="47.36275" lon="6.41934">
        <ele>269.1</ele>
        <time>2019-08-17T09:53:03Z</time>
      </trkpt>
      <trkpt lat="47.3627" lon="6.41937">
        <ele>269.1</ele>
        <time>2019-08-17T09:53:04Z</time>
      </trkpt>
      <trkpt lat="47.36265" lon="6.41934">
        <ele>269.1</ele>
        <time>2019-08-17T09:53:05Z</time>
      </trkpt>
      <trkpt lat="47.3626" lon="6.41934">
        <ele>269.1</ele>
        <time>2019-08-17T09:53:06Z</time>
      </trkpt>
      <trkpt lat="47.36255" lon="6.41933">
        <ele>269.1</ele>
        <time>2019-08-17T09:53:07Z</time>
      </trkpt>
      <trkpt lat="47.3625" lon="6.41933">
        <ele>269.1</ele>
        <time>2019-08-17T09:53:08Z</time>
      </trkpt>
      <trkpt lat="47.36246" lon="6.41933">
        <ele>269.1</ele>
        <time>2019-08-17T09:53:09Z</time>
      </trkpt>
      <trkpt lat="47.36241" lon="6.41933">
        <ele>269.1</ele>
        <time>2019-08-17T09:53:10Z</time>
      </trkpt>
      <trkpt lat="47.36236" lon="6.41935">
        <ele>269.1</ele>
        <time>2019-08-17T09:53:11Z</time>
      </trkpt>
      <trkpt lat="47.36232" lon="6.41936">
        <ele>269</ele>
        <time>2019-08-17T09:53:12Z</time>
      </trkpt>
      <trkpt lat="47.36227" lon="6.41936">
        <ele>268.9</ele>
        <time>2019-08-17T09:53:13Z</time>
      </trkpt>
      <trkpt lat="47.36221" lon="6.41937">
        <ele>268.8</ele>
        <time>2019-08-17T09:53:14Z</time>
      </trkpt>
      <trkpt lat="47.36216" lon="6.41938">
        <ele>268.5</ele>
        <time>2019-08-17T09:53:15Z</time>
      </trkpt>
      <trkpt lat="47.3621" lon="6.4194">
        <ele>268.3</ele>
        <time>2019-08-17T09:53:16Z</time>
      </trkpt>
      <trkpt lat="47.36203" lon="6.4194">
        <ele>268</ele>
        <time>2019-08-17T09:53:17Z</time>
      </trkpt>
      <trkpt lat="47.36198" lon="6.4194">
        <ele>267.8</ele>
        <time>2019-08-17T09:53:18Z</time>
      </trkpt>
      <trkpt lat="47.36193" lon="6.41941">
        <ele>267.8</ele>
        <time>2019-08-17T09:53:19Z</time>
      </trkpt>
      <trkpt lat="47.36188" lon="6.41941">
        <ele>267.7</ele>
        <time>2019-08-17T09:53:20Z</time>
      </trkpt>
      <trkpt lat="47.36182" lon="6.41942">
        <ele>267.7</ele>
        <time>2019-08-17T09:53:21Z</time>
      </trkpt>
      <trkpt lat="47.36176" lon="6.41943">
        <ele>267.7</ele>
        <time>2019-08-17T09:53:22Z</time>
      </trkpt>
      <trkpt lat="47.36171" lon="6.41945">
        <ele>267.7</ele>
        <time>2019-08-17T09:53:23Z</time>
      </trkpt>
      <trkpt lat="47.36165" lon="6.41947">
        <ele>267.7</ele>
        <time>2019-08-17T09:53:24Z</time>
      </trkpt>
      <trkpt lat="47.36159" lon="6.41948">
        <ele>267.7</ele>
        <time>2019-08-17T09:53:25Z</time>
      </trkpt>
      <trkpt lat="47.36154" lon="6.41949">
        <ele>267.7</ele>
        <time>2019-08-17T09:53:26Z</time>
      </trkpt>
      <trkpt lat="47.36148" lon="6.41949">
        <ele>267.7</ele>
        <time>2019-08-17T09:53:27Z</time>
      </trkpt>
      <trkpt lat="47.36143" lon="6.41949">
        <ele>267.7</ele>
        <time>2019-08-17T09:53:28Z</time>
      </trkpt>
      <trkpt lat="47.36138" lon="6.41949">
        <ele>267.7</ele>
        <time>2019-08-17T09:53:29Z</time>
      </trkpt>
      <trkpt lat="47.36133" lon="6.4195">
        <ele>267.7</ele>
        <time>2019-08-17T09:53:30Z</time>
      </trkpt>
      <trkpt lat="47.36129" lon="6.4195">
        <ele>267.8</ele>
        <time>2019-08-17T09:53:31Z</time>
      </trkpt>
      <trkpt lat="47.36124" lon="6.41951">
        <ele>267.8</ele>
        <time>2019-08-17T09:53:32Z</time>
      </trkpt>
      <trkpt lat="47.36119" lon="6.41952">
        <ele>267.8</ele>
        <time>2019-08-17T09:53:33Z</time>
      </trkpt>
      <trkpt lat="47.36113" lon="6.41952">
        <ele>267.8</ele>
        <time>2019-08-17T09:53:34Z</time>
      </trkpt>
      <trkpt lat="47.36109" lon="6.41953">
        <ele>267.9</ele>
        <time>2019-08-17T09:53:35Z</time>
      </trkpt>
      <trkpt lat="47.36104" lon="6.41953">
        <ele>267.9</ele>
        <time>2019-08-17T09:53:36Z</time>
      </trkpt>
      <trkpt lat="47.36099" lon="6.41954">
        <ele>268</ele>
        <time>2019-08-17T09:53:37Z</time>
      </trkpt>
      <trkpt lat="47.36093" lon="6.41954">
        <ele>268</ele>
        <time>2019-08-17T09:53:38Z</time>
      </trkpt>
      <trkpt lat="47.36089" lon="6.41954">
        <ele>268.1</ele>
        <time>2019-08-17T09:53:39Z</time>
      </trkpt>
      <trkpt lat="47.36084" lon="6.41953">
        <ele>268.1</ele>
        <time>2019-08-17T09:53:40Z</time>
      </trkpt>
      <trkpt lat="47.36079" lon="6.41953">
        <ele>268.1</ele>
        <time>2019-08-17T09:53:41Z</time>
      </trkpt>
      <trkpt lat="47.36074" lon="6.41953">
        <ele>268.1</ele>
        <time>2019-08-17T09:53:42Z</time>
      </trkpt>
      <trkpt lat="47.36069" lon="6.41953">
        <ele>268.2</ele>
        <time>2019-08-17T09:53:43Z</time>
      </trkpt>
      <trkpt lat="47.36064" lon="6.41953">
        <ele>268.2</ele>
        <time>2019-08-17T09:53:44Z</time>
      </trkpt>
      <trkpt lat="47.36059" lon="6.41953">
        <ele>268.2</ele>
        <time>2019-08-17T09:53:45Z</time>
      </trkpt>
      <trkpt lat="47.36054" lon="6.41953">
        <ele>268.2</ele>
        <time>2019-08-17T09:53:46Z</time>
      </trkpt>
      <trkpt lat="47.36049" lon="6.41951">
        <ele>268.2</ele>
        <time>2019-08-17T09:53:47Z</time>
      </trkpt>
      <trkpt lat="47.36044" lon="6.4195">
        <ele>268.2</ele>
        <time>2019-08-17T09:53:48Z</time>
      </trkpt>
      <trkpt lat="47.36039" lon="6.41949">
        <ele>268.3</ele>
        <time>2019-08-17T09:53:49Z</time>
      </trkpt>
      <trkpt lat="47.36036" lon="6.41949">
        <ele>268.3</ele>
        <time>2019-08-17T09:53:50Z</time>
      </trkpt>
      <trkpt lat="47.36031" lon="6.41948">
        <ele>268.4</ele>
        <time>2019-08-17T09:53:51Z</time>
      </trkpt>
      <trkpt lat="47.36024" lon="6.41946">
        <ele>268.7</ele>
        <time>2019-08-17T09:53:52Z</time>
      </trkpt>
      <trkpt lat="47.36018" lon="6.41945">
        <ele>268.9</ele>
        <time>2019-08-17T09:53:53Z</time>
      </trkpt>
      <trkpt lat="47.36013" lon="6.41944">
        <ele>269.2</ele>
        <time>2019-08-17T09:53:54Z</time>
      </trkpt>
      <trkpt lat="47.36007" lon="6.41943">
        <ele>269.4</ele>
        <time>2019-08-17T09:53:55Z</time>
      </trkpt>
      <trkpt lat="47.36001" lon="6.41941">
        <ele>269.6</ele>
        <time>2019-08-17T09:53:56Z</time>
      </trkpt>
      <trkpt lat="47.35996" lon="6.41941">
        <ele>269.8</ele>
        <time>2019-08-17T09:53:57Z</time>
      </trkpt>
      <trkpt lat="47.35989" lon="6.4194">
        <ele>269.9</ele>
        <time>2019-08-17T09:53:58Z</time>
      </trkpt>
      <trkpt lat="47.35983" lon="6.41939">
        <ele>270</ele>
        <time>2019-08-17T09:53:59Z</time>
      </trkpt>
      <trkpt lat="47.35976" lon="6.41939">
        <ele>270</ele>
        <time>2019-08-17T09:54:00Z</time>
      </trkpt>
      <trkpt lat="47.35971" lon="6.41939">
        <ele>270</ele>
        <time>2019-08-17T09:54:01Z</time>
      </trkpt>
      <trkpt lat="47.35966" lon="6.41938">
        <ele>270.1</ele>
        <time>2019-08-17T09:54:02Z</time>
      </trkpt>
      <trkpt lat="47.3596" lon="6.41938">
        <ele>270.1</ele>
        <time>2019-08-17T09:54:03Z</time>
      </trkpt>
      <trkpt lat="47.35956" lon="6.41937">
        <ele>270.1</ele>
        <time>2019-08-17T09:54:04Z</time>
      </trkpt>
      <trkpt lat="47.35951" lon="6.41937">
        <ele>270.1</ele>
        <time>2019-08-17T09:54:05Z</time>
      </trkpt>
      <trkpt lat="47.35946" lon="6.41936">
        <ele>270.1</ele>
        <time>2019-08-17T09:54:06Z</time>
      </trkpt>
      <trkpt lat="47.35942" lon="6.41935">
        <ele>270.1</ele>
        <time>2019-08-17T09:54:07Z</time>
      </trkpt>
      <trkpt lat="47.35938" lon="6.41935">
        <ele>270.1</ele>
        <time>2019-08-17T09:54:08Z</time>
      </trkpt>
      <trkpt lat="47.35935" lon="6.41934">
        <ele>270.1</ele>
        <time>2019-08-17T09:54:09Z</time>
      </trkpt>
      <trkpt lat="47.35931" lon="6.41934">
        <ele>270.1</ele>
        <time>2019-08-17T09:54:10Z</time>
      </trkpt>
      <trkpt lat="47.35927" lon="6.41933">
        <ele>270.1</ele>
        <time>2019-08-17T09:54:11Z</time>
      </trkpt>
      <trkpt lat="47.35923" lon="6.41932">
        <ele>270.2</ele>
        <time>2019-08-17T09:54:12Z</time>
      </trkpt>
      <trkpt lat="47.35919" lon="6.41932">
        <ele>270.2</ele>
        <time>2019-08-17T09:54:13Z</time>
      </trkpt>
      <trkpt lat="47.35915" lon="6.41932">
        <ele>270.2</ele>
        <time>2019-08-17T09:54:14Z</time>
      </trkpt>
      <trkpt lat="47.35911" lon="6.41931">
        <ele>270.2</ele>
        <time>2019-08-17T09:54:15Z</time>
      </trkpt>
      <trkpt lat="47.35906" lon="6.41929">
        <ele>270.2</ele>
        <time>2019-08-17T09:54:16Z</time>
      </trkpt>
      <trkpt lat="47.35901" lon="6.41927">
        <ele>270.2</ele>
        <time>2019-08-17T09:54:17Z</time>
      </trkpt>
      <trkpt lat="47.35897" lon="6.41925">
        <ele>270.2</ele>
        <time>2019-08-17T09:54:18Z</time>
      </trkpt>
      <trkpt lat="47.35892" lon="6.41923">
        <ele>270.3</ele>
        <time>2019-08-17T09:54:19Z</time>
      </trkpt>
      <trkpt lat="47.35887" lon="6.41921">
        <ele>270.3</ele>
        <time>2019-08-17T09:54:20Z</time>
      </trkpt>
      <trkpt lat="47.35883" lon="6.41918">
        <ele>270.4</ele>
        <time>2019-08-17T09:54:21Z</time>
      </trkpt>
      <trkpt lat="47.35879" lon="6.41915">
        <ele>270.6</ele>
        <time>2019-08-17T09:54:22Z</time>
      </trkpt>
      <trkpt lat="47.35875" lon="6.41912">
        <ele>270.8</ele>
        <time>2019-08-17T09:54:23Z</time>
      </trkpt>
      <trkpt lat="47.35871" lon="6.41908">
        <ele>271</ele>
        <time>2019-08-17T09:54:24Z</time>
      </trkpt>
      <trkpt lat="47.35867" lon="6.41904">
        <ele>271.3</ele>
        <time>2019-08-17T09:54:25Z</time>
      </trkpt>
      <trkpt lat="47.35862" lon="6.419">
        <ele>271.5</ele>
        <time>2019-08-17T09:54:26Z</time>
      </trkpt>
      <trkpt lat="47.35857" lon="6.41897">
        <ele>271.7</ele>
        <time>2019-08-17T09:54:27Z</time>
      </trkpt>
      <trkpt lat="47.35852" lon="6.41893">
        <ele>271.8</ele>
        <time>2019-08-17T09:54:28Z</time>
      </trkpt>
      <trkpt lat="47.35847" lon="6.4189">
        <ele>271.8</ele>
        <time>2019-08-17T09:54:29Z</time>
      </trkpt>
      <trkpt lat="47.35843" lon="6.41886">
        <ele>271.7</ele>
        <time>2019-08-17T09:54:30Z</time>
      </trkpt>
      <trkpt lat="47.35839" lon="6.41881">
        <ele>271.6</ele>
        <time>2019-08-17T09:54:31Z</time>
      </trkpt>
      <trkpt lat="47.35835" lon="6.41876">
        <ele>271.5</ele>
        <time>2019-08-17T09:54:32Z</time>
      </trkpt>
      <trkpt lat="47.35831" lon="6.4187">
        <ele>271.3</ele>
        <time>2019-08-17T09:54:33Z</time>
      </trkpt>
      <trkpt lat="47.35828" lon="6.41862">
        <ele>271.3</ele>
        <time>2019-08-17T09:54:34Z</time>
      </trkpt>
      <trkpt lat="47.35825" lon="6.41855">
        <ele>271.4</ele>
        <time>2019-08-17T09:54:35Z</time>
      </trkpt>
      <trkpt lat="47.35823" lon="6.41847">
        <ele>271.5</ele>
        <time>2019-08-17T09:54:36Z</time>
      </trkpt>
      <trkpt lat="47.35821" lon="6.4184">
        <ele>271.7</ele>
        <time>2019-08-17T09:54:37Z</time>
      </trkpt>
      <trkpt lat="47.3582" lon="6.41832">
        <ele>271.9</ele>
        <time>2019-08-17T09:54:38Z</time>
      </trkpt>
      <trkpt lat="47.35818" lon="6.41825">
        <ele>271.9</ele>
        <time>2019-08-17T09:54:39Z</time>
      </trkpt>
      <trkpt lat="47.35816" lon="6.41817">
        <ele>272</ele>
        <time>2019-08-17T09:54:40Z</time>
      </trkpt>
      <trkpt lat="47.35813" lon="6.41808">
        <ele>272.1</ele>
        <time>2019-08-17T09:54:41Z</time>
      </trkpt>
      <trkpt lat="47.3581" lon="6.41799">
        <ele>272.2</ele>
        <time>2019-08-17T09:54:42Z</time>
      </trkpt>
      <trkpt lat="47.35808" lon="6.41791">
        <ele>272.3</ele>
        <time>2019-08-17T09:54:43Z</time>
      </trkpt>
      <trkpt lat="47.35805" lon="6.41784">
        <ele>272.3</ele>
        <time>2019-08-17T09:54:44Z</time>
      </trkpt>
      <trkpt lat="47.35803" lon="6.41776">
        <ele>272.4</ele>
        <time>2019-08-17T09:54:45Z</time>
      </trkpt>
      <trkpt lat="47.358" lon="6.4177">
        <ele>272.4</ele>
        <time>2019-08-17T09:54:46Z</time>
      </trkpt>
      <trkpt lat="47.35797" lon="6.41763">
        <ele>272.4</ele>
        <time>2019-08-17T09:54:47Z</time>
      </trkpt>
      <trkpt lat="47.35794" lon="6.41757">
        <ele>272.4</ele>
        <time>2019-08-17T09:54:48Z</time>
      </trkpt>
      <trkpt lat="47.35791" lon="6.4175">
        <ele>272.4</ele>
        <time>2019-08-17T09:54:49Z</time>
      </trkpt>
      <trkpt lat="47.35788" lon="6.41743">
        <ele>272.4</ele>
        <time>2019-08-17T09:54:50Z</time>
      </trkpt>
      <trkpt lat="47.35785" lon="6.41735">
        <ele>272.4</ele>
        <time>2019-08-17T09:54:51Z</time>
      </trkpt>
      <trkpt lat="47.35782" lon="6.41727">
        <ele>272.5</ele>
        <time>2019-08-17T09:54:52Z</time>
      </trkpt>
      <trkpt lat="47.3578" lon="6.41718">
        <ele>272.5</ele>
        <time>2019-08-17T09:54:53Z</time>
      </trkpt>
      <trkpt lat="47.35777" lon="6.4171">
        <ele>272.5</ele>
        <time>2019-08-17T09:54:54Z</time>
      </trkpt>
      <trkpt lat="47.35775" lon="6.41702">
        <ele>272.5</ele>
        <time>2019-08-17T09:54:55Z</time>
      </trkpt>
      <trkpt lat="47.35773" lon="6.41694">
        <ele>272.5</ele>
        <time>2019-08-17T09:54:56Z</time>
      </trkpt>
      <trkpt lat="47.35771" lon="6.41686">
        <ele>272.6</ele>
        <time>2019-08-17T09:54:57Z</time>
      </trkpt>
      <trkpt lat="47.35768" lon="6.41679">
        <ele>272.6</ele>
        <time>2019-08-17T09:54:58Z</time>
      </trkpt>
      <trkpt lat="47.35766" lon="6.41672">
        <ele>272.6</ele>
        <time>2019-08-17T09:54:59Z</time>
      </trkpt>
      <trkpt lat="47.35765" lon="6.41665">
        <ele>272.7</ele>
        <time>2019-08-17T09:55:00Z</time>
      </trkpt>
      <trkpt lat="47.35763" lon="6.41657">
        <ele>272.9</ele>
        <time>2019-08-17T09:55:01Z</time>
      </trkpt>
      <trkpt lat="47.35761" lon="6.41649">
        <ele>273.1</ele>
        <time>2019-08-17T09:55:02Z</time>
      </trkpt>
      <trkpt lat="47.35759" lon="6.41641">
        <ele>273.3</ele>
        <time>2019-08-17T09:55:03Z</time>
      </trkpt>
      <trkpt lat="47.35758" lon="6.41633">
        <ele>273.6</ele>
        <time>2019-08-17T09:55:04Z</time>
      </trkpt>
      <trkpt lat="47.35756" lon="6.41625">
        <ele>273.8</ele>
        <time>2019-08-17T09:55:05Z</time>
      </trkpt>
      <trkpt lat="47.35754" lon="6.41616">
        <ele>274</ele>
        <time>2019-08-17T09:55:06Z</time>
      </trkpt>
      <trkpt lat="47.35752" lon="6.41608">
        <ele>274.2</ele>
        <time>2019-08-17T09:55:07Z</time>
      </trkpt>
      <trkpt lat="47.3575" lon="6.41599">
        <ele>274.2</ele>
        <time>2019-08-17T09:55:08Z</time>
      </trkpt>
      <trkpt lat="47.35748" lon="6.4159">
        <ele>274.3</ele>
        <time>2019-08-17T09:55:09Z</time>
      </trkpt>
      <trkpt lat="47.35746" lon="6.41582">
        <ele>274.3</ele>
        <time>2019-08-17T09:55:10Z</time>
      </trkpt>
      <trkpt lat="47.35745" lon="6.41574">
        <ele>274.3</ele>
        <time>2019-08-17T09:55:11Z</time>
      </trkpt>
      <trkpt lat="47.35743" lon="6.41567">
        <ele>274.3</ele>
        <time>2019-08-17T09:55:12Z</time>
      </trkpt>
      <trkpt lat="47.35741" lon="6.41559">
        <ele>274.2</ele>
        <time>2019-08-17T09:55:13Z</time>
      </trkpt>
      <trkpt lat="47.35739" lon="6.41551">
        <ele>274.1</ele>
        <time>2019-08-17T09:55:14Z</time>
      </trkpt>
      <trkpt lat="47.35738" lon="6.41543">
        <ele>273.9</ele>
        <time>2019-08-17T09:55:15Z</time>
      </trkpt>
      <trkpt lat="47.35736" lon="6.41536">
        <ele>273.7</ele>
        <time>2019-08-17T09:55:16Z</time>
      </trkpt>
      <trkpt lat="47.35734" lon="6.41528">
        <ele>273.3</ele>
        <time>2019-08-17T09:55:17Z</time>
      </trkpt>
      <trkpt lat="47.35733" lon="6.41521">
        <ele>272.9</ele>
        <time>2019-08-17T09:55:18Z</time>
      </trkpt>
      <trkpt lat="47.35731" lon="6.41513">
        <ele>272.5</ele>
        <time>2019-08-17T09:55:19Z</time>
      </trkpt>
      <trkpt lat="47.3573" lon="6.41505">
        <ele>271.9</ele>
        <time>2019-08-17T09:55:20Z</time>
      </trkpt>
      <trkpt lat="47.35729" lon="6.41499">
        <ele>271.5</ele>
        <time>2019-08-17T09:55:21Z</time>
      </trkpt>
      <trkpt lat="47.35727" lon="6.41492">
        <ele>271</ele>
        <time>2019-08-17T09:55:22Z</time>
      </trkpt>
      <trkpt lat="47.35726" lon="6.41485">
        <ele>270.5</ele>
        <time>2019-08-17T09:55:23Z</time>
      </trkpt>
      <trkpt lat="47.35725" lon="6.41479">
        <ele>270</ele>
        <time>2019-08-17T09:55:24Z</time>
      </trkpt>
      <trkpt lat="47.35724" lon="6.41473">
        <ele>269.6</ele>
        <time>2019-08-17T09:55:25Z</time>
      </trkpt>
      <trkpt lat="47.35723" lon="6.41465">
        <ele>269.2</ele>
        <time>2019-08-17T09:55:26Z</time>
      </trkpt>
      <trkpt lat="47.35723" lon="6.41458">
        <ele>268.9</ele>
        <time>2019-08-17T09:55:27Z</time>
      </trkpt>
      <trkpt lat="47.35722" lon="6.41451">
        <ele>268.7</ele>
        <time>2019-08-17T09:55:28Z</time>
      </trkpt>
      <trkpt lat="47.3572" lon="6.41444">
        <ele>268.6</ele>
        <time>2019-08-17T09:55:29Z</time>
      </trkpt>
      <trkpt lat="47.35719" lon="6.41437">
        <ele>268.7</ele>
        <time>2019-08-17T09:55:30Z</time>
      </trkpt>
      <trkpt lat="47.35718" lon="6.4143">
        <ele>268.9</ele>
        <time>2019-08-17T09:55:31Z</time>
      </trkpt>
      <trkpt lat="47.35716" lon="6.41423">
        <ele>269.3</ele>
        <time>2019-08-17T09:55:32Z</time>
      </trkpt>
      <trkpt lat="47.35715" lon="6.41416">
        <ele>269.8</ele>
        <time>2019-08-17T09:55:33Z</time>
      </trkpt>
      <trkpt lat="47.35713" lon="6.41409">
        <ele>270.3</ele>
        <time>2019-08-17T09:55:34Z</time>
      </trkpt>
      <trkpt lat="47.35712" lon="6.41401">
        <ele>270.9</ele>
        <time>2019-08-17T09:55:35Z</time>
      </trkpt>
      <trkpt lat="47.35712" lon="6.41394">
        <ele>271.4</ele>
        <time>2019-08-17T09:55:36Z</time>
      </trkpt>
      <trkpt lat="47.35709" lon="6.41387">
        <ele>271.7</ele>
        <time>2019-08-17T09:55:37Z</time>
      </trkpt>
      <trkpt lat="47.35706" lon="6.41379">
        <ele>271.9</ele>
        <time>2019-08-17T09:55:38Z</time>
      </trkpt>
      <trkpt lat="47.35706" lon="6.41372">
        <ele>271.8</ele>
        <time>2019-08-17T09:55:39Z</time>
      </trkpt>
      <trkpt lat="47.35704" lon="6.41366">
        <ele>271.8</ele>
        <time>2019-08-17T09:55:40Z</time>
      </trkpt>
      <trkpt lat="47.35703" lon="6.41359">
        <ele>271.7</ele>
        <time>2019-08-17T09:55:41Z</time>
      </trkpt>
      <trkpt lat="47.35702" lon="6.41352">
        <ele>271.6</ele>
        <time>2019-08-17T09:55:42Z</time>
      </trkpt>
      <trkpt lat="47.35703" lon="6.41347">
        <ele>271.5</ele>
        <time>2019-08-17T09:55:43Z</time>
      </trkpt>
      <trkpt lat="47.35702" lon="6.4134">
        <ele>271.4</ele>
        <time>2019-08-17T09:55:44Z</time>
      </trkpt>
      <trkpt lat="47.357" lon="6.41333">
        <ele>271.4</ele>
        <time>2019-08-17T09:55:45Z</time>
      </trkpt>
      <trkpt lat="47.357" lon="6.41326">
        <ele>271.3</ele>
        <time>2019-08-17T09:55:46Z</time>
      </trkpt>
      <trkpt lat="47.35697" lon="6.4132">
        <ele>271.3</ele>
        <time>2019-08-17T09:55:47Z</time>
      </trkpt>
      <trkpt lat="47.35696" lon="6.41313">
        <ele>271.3</ele>
        <time>2019-08-17T09:55:48Z</time>
      </trkpt>
      <trkpt lat="47.35694" lon="6.41306">
        <ele>271.3</ele>
        <time>2019-08-17T09:55:49Z</time>
      </trkpt>
      <trkpt lat="47.35693" lon="6.41299">
        <ele>271.4</ele>
        <time>2019-08-17T09:55:50Z</time>
      </trkpt>
      <trkpt lat="47.35691" lon="6.41292">
        <ele>271.4</ele>
        <time>2019-08-17T09:55:51Z</time>
      </trkpt>
      <trkpt lat="47.35689" lon="6.41285">
        <ele>271.4</ele>
        <time>2019-08-17T09:55:52Z</time>
      </trkpt>
      <trkpt lat="47.35686" lon="6.4128">
        <ele>271.4</ele>
        <time>2019-08-17T09:55:53Z</time>
      </trkpt>
      <trkpt lat="47.35686" lon="6.41273">
        <ele>271.4</ele>
        <time>2019-08-17T09:55:54Z</time>
      </trkpt>
      <trkpt lat="47.35685" lon="6.41267">
        <ele>271.5</ele>
        <time>2019-08-17T09:55:55Z</time>
      </trkpt>
      <trkpt lat="47.35684" lon="6.4126">
        <ele>271.6</ele>
        <time>2019-08-17T09:55:56Z</time>
      </trkpt>
      <trkpt lat="47.35684" lon="6.41253">
        <ele>271.7</ele>
        <time>2019-08-17T09:55:57Z</time>
      </trkpt>
      <trkpt lat="47.35683" lon="6.41245">
        <ele>271.9</ele>
        <time>2019-08-17T09:55:58Z</time>
      </trkpt>
      <trkpt lat="47.35682" lon="6.41238">
        <ele>272</ele>
        <time>2019-08-17T09:55:59Z</time>
      </trkpt>
      <trkpt lat="47.35682" lon="6.41232">
        <ele>272.1</ele>
        <time>2019-08-17T09:56:00Z</time>
      </trkpt>
      <trkpt lat="47.35682" lon="6.41226">
        <ele>272.3</ele>
        <time>2019-08-17T09:56:01Z</time>
      </trkpt>
      <trkpt lat="47.35682" lon="6.41219">
        <ele>272.2</ele>
        <time>2019-08-17T09:56:02Z</time>
      </trkpt>
      <trkpt lat="47.35682" lon="6.41214">
        <ele>272.1</ele>
        <time>2019-08-17T09:56:03Z</time>
      </trkpt>
      <trkpt lat="47.35681" lon="6.41208">
        <ele>272</ele>
        <time>2019-08-17T09:56:04Z</time>
      </trkpt>
      <trkpt lat="47.3568" lon="6.41202">
        <ele>271.9</ele>
        <time>2019-08-17T09:56:05Z</time>
      </trkpt>
      <trkpt lat="47.3568" lon="6.41196">
        <ele>271.8</ele>
        <time>2019-08-17T09:56:06Z</time>
      </trkpt>
      <trkpt lat="47.35679" lon="6.4119">
        <ele>271.9</ele>
        <time>2019-08-17T09:56:07Z</time>
      </trkpt>
      <trkpt lat="47.35679" lon="6.41183">
        <ele>271.9</ele>
        <time>2019-08-17T09:56:08Z</time>
      </trkpt>
      <trkpt lat="47.35678" lon="6.41176">
        <ele>272</ele>
        <time>2019-08-17T09:56:09Z</time>
      </trkpt>
      <trkpt lat="47.35677" lon="6.41169">
        <ele>272</ele>
        <time>2019-08-17T09:56:10Z</time>
      </trkpt>
      <trkpt lat="47.35675" lon="6.41163">
        <ele>272</ele>
        <time>2019-08-17T09:56:11Z</time>
      </trkpt>
      <trkpt lat="47.35673" lon="6.41157">
        <ele>271.9</ele>
        <time>2019-08-17T09:56:12Z</time>
      </trkpt>
      <trkpt lat="47.35671" lon="6.4115">
        <ele>271.8</ele>
        <time>2019-08-17T09:56:13Z</time>
      </trkpt>
      <trkpt lat="47.3567" lon="6.41144">
        <ele>271.8</ele>
        <time>2019-08-17T09:56:14Z</time>
      </trkpt>
      <trkpt lat="47.35668" lon="6.41137">
        <ele>271.8</ele>
        <time>2019-08-17T09:56:15Z</time>
      </trkpt>
      <trkpt lat="47.35666" lon="6.4113">
        <ele>271.8</ele>
        <time>2019-08-17T09:56:16Z</time>
      </trkpt>
      <trkpt lat="47.35664" lon="6.41123">
        <ele>271.9</ele>
        <time>2019-08-17T09:56:17Z</time>
      </trkpt>
      <trkpt lat="47.35663" lon="6.41115">
        <ele>272.1</ele>
        <time>2019-08-17T09:56:18Z</time>
      </trkpt>
      <trkpt lat="47.35661" lon="6.41108">
        <ele>272.4</ele>
        <time>2019-08-17T09:56:19Z</time>
      </trkpt>
      <trkpt lat="47.35659" lon="6.41099">
        <ele>272.7</ele>
        <time>2019-08-17T09:56:20Z</time>
      </trkpt>
      <trkpt lat="47.35659" lon="6.41092">
        <ele>272.9</ele>
        <time>2019-08-17T09:56:21Z</time>
      </trkpt>
      <trkpt lat="47.35659" lon="6.41086">
        <ele>273.1</ele>
        <time>2019-08-17T09:56:22Z</time>
      </trkpt>
      <trkpt lat="47.35658" lon="6.41079">
        <ele>273.2</ele>
        <time>2019-08-17T09:56:23Z</time>
      </trkpt>
      <trkpt lat="47.35658" lon="6.41072">
        <ele>273.3</ele>
        <time>2019-08-17T09:56:24Z</time>
      </trkpt>
      <trkpt lat="47.35657" lon="6.41067">
        <ele>273.3</ele>
        <time>2019-08-17T09:56:25Z</time>
      </trkpt>
      <trkpt lat="47.35656" lon="6.4106">
        <ele>273.4</ele>
        <time>2019-08-17T09:56:26Z</time>
      </trkpt>
      <trkpt lat="47.35655" lon="6.41054">
        <ele>273.4</ele>
        <time>2019-08-17T09:56:27Z</time>
      </trkpt>
      <trkpt lat="47.35655" lon="6.41047">
        <ele>273.4</ele>
        <time>2019-08-17T09:56:28Z</time>
      </trkpt>
      <trkpt lat="47.35654" lon="6.41041">
        <ele>273.5</ele>
        <time>2019-08-17T09:56:29Z</time>
      </trkpt>
      <trkpt lat="47.35653" lon="6.41035">
        <ele>273.5</ele>
        <time>2019-08-17T09:56:30Z</time>
      </trkpt>
      <trkpt lat="47.35653" lon="6.4103">
        <ele>273.5</ele>
        <time>2019-08-17T09:56:31Z</time>
      </trkpt>
      <trkpt lat="47.35652" lon="6.41024">
        <ele>273.5</ele>
        <time>2019-08-17T09:56:32Z</time>
      </trkpt>
      <trkpt lat="47.35652" lon="6.41017">
        <ele>273.5</ele>
        <time>2019-08-17T09:56:33Z</time>
      </trkpt>
      <trkpt lat="47.35651" lon="6.41011">
        <ele>273.5</ele>
        <time>2019-08-17T09:56:34Z</time>
      </trkpt>
      <trkpt lat="47.3565" lon="6.41005">
        <ele>273.6</ele>
        <time>2019-08-17T09:56:35Z</time>
      </trkpt>
      <trkpt lat="47.3565" lon="6.40998">
        <ele>273.6</ele>
        <time>2019-08-17T09:56:36Z</time>
      </trkpt>
      <trkpt lat="47.35649" lon="6.40991">
        <ele>273.6</ele>
        <time>2019-08-17T09:56:37Z</time>
      </trkpt>
      <trkpt lat="47.35648" lon="6.40984">
        <ele>273.6</ele>
        <time>2019-08-17T09:56:38Z</time>
      </trkpt>
      <trkpt lat="47.35647" lon="6.40976">
        <ele>273.6</ele>
        <time>2019-08-17T09:56:39Z</time>
      </trkpt>
      <trkpt lat="47.35645" lon="6.40969">
        <ele>273.6</ele>
        <time>2019-08-17T09:56:40Z</time>
      </trkpt>
      <trkpt lat="47.35644" lon="6.40961">
        <ele>273.6</ele>
        <time>2019-08-17T09:56:41Z</time>
      </trkpt>
      <trkpt lat="47.35643" lon="6.40954">
        <ele>273.6</ele>
        <time>2019-08-17T09:56:42Z</time>
      </trkpt>
      <trkpt lat="47.35641" lon="6.40948">
        <ele>273.7</ele>
        <time>2019-08-17T09:56:43Z</time>
      </trkpt>
      <trkpt lat="47.3564" lon="6.40941">
        <ele>273.7</ele>
        <time>2019-08-17T09:56:44Z</time>
      </trkpt>
      <trkpt lat="47.35638" lon="6.40934">
        <ele>273.9</ele>
        <time>2019-08-17T09:56:45Z</time>
      </trkpt>
      <trkpt lat="47.35637" lon="6.40926">
        <ele>274.1</ele>
        <time>2019-08-17T09:56:46Z</time>
      </trkpt>
      <trkpt lat="47.35635" lon="6.40919">
        <ele>274.4</ele>
        <time>2019-08-17T09:56:47Z</time>
      </trkpt>
      <trkpt lat="47.35634" lon="6.40912">
        <ele>274.8</ele>
        <time>2019-08-17T09:56:48Z</time>
      </trkpt>
      <trkpt lat="47.35633" lon="6.40905">
        <ele>275.1</ele>
        <time>2019-08-17T09:56:49Z</time>
      </trkpt>
      <trkpt lat="47.35632" lon="6.40899">
        <ele>275.3</ele>
        <time>2019-08-17T09:56:50Z</time>
      </trkpt>
      <trkpt lat="47.35631" lon="6.40892">
        <ele>275.6</ele>
        <time>2019-08-17T09:56:51Z</time>
      </trkpt>
      <trkpt lat="47.3563" lon="6.40886">
        <ele>275.7</ele>
        <time>2019-08-17T09:56:52Z</time>
      </trkpt>
      <trkpt lat="47.3563" lon="6.40878">
        <ele>275.8</ele>
        <time>2019-08-17T09:56:53Z</time>
      </trkpt>
      <trkpt lat="47.35629" lon="6.40871">
        <ele>275.9</ele>
        <time>2019-08-17T09:56:54Z</time>
      </trkpt>
      <trkpt lat="47.35627" lon="6.40863">
        <ele>275.9</ele>
        <time>2019-08-17T09:56:55Z</time>
      </trkpt>
      <trkpt lat="47.35626" lon="6.40855">
        <ele>275.9</ele>
        <time>2019-08-17T09:56:56Z</time>
      </trkpt>
      <trkpt lat="47.35626" lon="6.40848">
        <ele>276</ele>
        <time>2019-08-17T09:56:57Z</time>
      </trkpt>
      <trkpt lat="47.35625" lon="6.40841">
        <ele>276</ele>
        <time>2019-08-17T09:56:58Z</time>
      </trkpt>
      <trkpt lat="47.35623" lon="6.40834">
        <ele>276</ele>
        <time>2019-08-17T09:56:59Z</time>
      </trkpt>
      <trkpt lat="47.35623" lon="6.40827">
        <ele>276</ele>
        <time>2019-08-17T09:57:00Z</time>
      </trkpt>
      <trkpt lat="47.35622" lon="6.40819">
        <ele>276</ele>
        <time>2019-08-17T09:57:01Z</time>
      </trkpt>
      <trkpt lat="47.35621" lon="6.40812">
        <ele>276</ele>
        <time>2019-08-17T09:57:02Z</time>
      </trkpt>
      <trkpt lat="47.35619" lon="6.40805">
        <ele>276</ele>
        <time>2019-08-17T09:57:03Z</time>
      </trkpt>
      <trkpt lat="47.35619" lon="6.40798">
        <ele>276</ele>
        <time>2019-08-17T09:57:04Z</time>
      </trkpt>
      <trkpt lat="47.35619" lon="6.40792">
        <ele>276</ele>
        <time>2019-08-17T09:57:05Z</time>
      </trkpt>
      <trkpt lat="47.35618" lon="6.40786">
        <ele>276</ele>
        <time>2019-08-17T09:57:06Z</time>
      </trkpt>
      <trkpt lat="47.35618" lon="6.40779">
        <ele>276.1</ele>
        <time>2019-08-17T09:57:07Z</time>
      </trkpt>
      <trkpt lat="47.35618" lon="6.40771">
        <ele>276.1</ele>
        <time>2019-08-17T09:57:08Z</time>
      </trkpt>
      <trkpt lat="47.35618" lon="6.40763">
        <ele>276.1</ele>
        <time>2019-08-17T09:57:09Z</time>
      </trkpt>
      <trkpt lat="47.35619" lon="6.40756">
        <ele>276</ele>
        <time>2019-08-17T09:57:10Z</time>
      </trkpt>
      <trkpt lat="47.35619" lon="6.40748">
        <ele>276</ele>
        <time>2019-08-17T09:57:11Z</time>
      </trkpt>
      <trkpt lat="47.3562" lon="6.40741">
        <ele>275.9</ele>
        <time>2019-08-17T09:57:12Z</time>
      </trkpt>
      <trkpt lat="47.35621" lon="6.40736">
        <ele>275.9</ele>
        <time>2019-08-17T09:57:13Z</time>
      </trkpt>
      <trkpt lat="47.35622" lon="6.40729">
        <ele>275.9</ele>
        <time>2019-08-17T09:57:14Z</time>
      </trkpt>
      <trkpt lat="47.35621" lon="6.40722">
        <ele>275.8</ele>
        <time>2019-08-17T09:57:15Z</time>
      </trkpt>
      <trkpt lat="47.35622" lon="6.40716">
        <ele>275.8</ele>
        <time>2019-08-17T09:57:16Z</time>
      </trkpt>
      <trkpt lat="47.35622" lon="6.40709">
        <ele>275.7</ele>
        <time>2019-08-17T09:57:17Z</time>
      </trkpt>
      <trkpt lat="47.35622" lon="6.40701">
        <ele>275.7</ele>
        <time>2019-08-17T09:57:18Z</time>
      </trkpt>
      <trkpt lat="47.35622" lon="6.40693">
        <ele>275.7</ele>
        <time>2019-08-17T09:57:19Z</time>
      </trkpt>
      <trkpt lat="47.35623" lon="6.40685">
        <ele>275.6</ele>
        <time>2019-08-17T09:57:20Z</time>
      </trkpt>
      <trkpt lat="47.35623" lon="6.40678">
        <ele>275.6</ele>
        <time>2019-08-17T09:57:21Z</time>
      </trkpt>
      <trkpt lat="47.35623" lon="6.4067">
        <ele>275.5</ele>
        <time>2019-08-17T09:57:22Z</time>
      </trkpt>
      <trkpt lat="47.35623" lon="6.40662">
        <ele>275.5</ele>
        <time>2019-08-17T09:57:23Z</time>
      </trkpt>
      <trkpt lat="47.35622" lon="6.40654">
        <ele>275.4</ele>
        <time>2019-08-17T09:57:24Z</time>
      </trkpt>
      <trkpt lat="47.35623" lon="6.40646">
        <ele>275.4</ele>
        <time>2019-08-17T09:57:25Z</time>
      </trkpt>
      <trkpt lat="47.35623" lon="6.40638">
        <ele>275.3</ele>
        <time>2019-08-17T09:57:26Z</time>
      </trkpt>
      <trkpt lat="47.35624" lon="6.40631">
        <ele>275.3</ele>
        <time>2019-08-17T09:57:27Z</time>
      </trkpt>
      <trkpt lat="47.35624" lon="6.40624">
        <ele>275.2</ele>
        <time>2019-08-17T09:57:28Z</time>
      </trkpt>
      <trkpt lat="47.35624" lon="6.40617">
        <ele>275.2</ele>
        <time>2019-08-17T09:57:29Z</time>
      </trkpt>
      <trkpt lat="47.35624" lon="6.4061">
        <ele>275.2</ele>
        <time>2019-08-17T09:57:30Z</time>
      </trkpt>
      <trkpt lat="47.35624" lon="6.40603">
        <ele>275.1</ele>
        <time>2019-08-17T09:57:31Z</time>
      </trkpt>
      <trkpt lat="47.35623" lon="6.40596">
        <ele>275.1</ele>
        <time>2019-08-17T09:57:32Z</time>
      </trkpt>
      <trkpt lat="47.35623" lon="6.4059">
        <ele>275.1</ele>
        <time>2019-08-17T09:57:33Z</time>
      </trkpt>
      <trkpt lat="47.35622" lon="6.40583">
        <ele>275</ele>
        <time>2019-08-17T09:57:34Z</time>
      </trkpt>
      <trkpt lat="47.35621" lon="6.40575">
        <ele>275</ele>
        <time>2019-08-17T09:57:35Z</time>
      </trkpt>
      <trkpt lat="47.35622" lon="6.40568">
        <ele>275</ele>
        <time>2019-08-17T09:57:36Z</time>
      </trkpt>
      <trkpt lat="47.35622" lon="6.40561">
        <ele>275.1</ele>
        <time>2019-08-17T09:57:37Z</time>
      </trkpt>
      <trkpt lat="47.35622" lon="6.40554">
        <ele>275.2</ele>
        <time>2019-08-17T09:57:38Z</time>
      </trkpt>
      <trkpt lat="47.35623" lon="6.40548">
        <ele>275.3</ele>
        <time>2019-08-17T09:57:39Z</time>
      </trkpt>
      <trkpt lat="47.35623" lon="6.40541">
        <ele>275.5</ele>
        <time>2019-08-17T09:57:40Z</time>
      </trkpt>
      <trkpt lat="47.35624" lon="6.40534">
        <ele>275.7</ele>
        <time>2019-08-17T09:57:41Z</time>
      </trkpt>
      <trkpt lat="47.35626" lon="6.40527">
        <ele>275.8</ele>
        <time>2019-08-17T09:57:42Z</time>
      </trkpt>
      <trkpt lat="47.35627" lon="6.40519">
        <ele>275.9</ele>
        <time>2019-08-17T09:57:43Z</time>
      </trkpt>
      <trkpt lat="47.35628" lon="6.40512">
        <ele>276</ele>
        <time>2019-08-17T09:57:44Z</time>
      </trkpt>
      <trkpt lat="47.35629" lon="6.40505">
        <ele>276</ele>
        <time>2019-08-17T09:57:45Z</time>
      </trkpt>
      <trkpt lat="47.35631" lon="6.40498">
        <ele>276</ele>
        <time>2019-08-17T09:57:46Z</time>
      </trkpt>
      <trkpt lat="47.35632" lon="6.40491">
        <ele>276</ele>
        <time>2019-08-17T09:57:47Z</time>
      </trkpt>
      <trkpt lat="47.35634" lon="6.40484">
        <ele>276</ele>
        <time>2019-08-17T09:57:48Z</time>
      </trkpt>
      <trkpt lat="47.35635" lon="6.40477">
        <ele>275.9</ele>
        <time>2019-08-17T09:57:49Z</time>
      </trkpt>
      <trkpt lat="47.35637" lon="6.4047">
        <ele>275.9</ele>
        <time>2019-08-17T09:57:50Z</time>
      </trkpt>
      <trkpt lat="47.35638" lon="6.40464">
        <ele>275.8</ele>
        <time>2019-08-17T09:57:51Z</time>
      </trkpt>
      <trkpt lat="47.3564" lon="6.40457">
        <ele>275.8</ele>
        <time>2019-08-17T09:57:52Z</time>
      </trkpt>
      <trkpt lat="47.35642" lon="6.4045">
        <ele>275.8</ele>
        <time>2019-08-17T09:57:53Z</time>
      </trkpt>
      <trkpt lat="47.35644" lon="6.40444">
        <ele>275.7</ele>
        <time>2019-08-17T09:57:54Z</time>
      </trkpt>
      <trkpt lat="47.35646" lon="6.40438">
        <ele>275.7</ele>
        <time>2019-08-17T09:57:55Z</time>
      </trkpt>
      <trkpt lat="47.35648" lon="6.40431">
        <ele>275.6</ele>
        <time>2019-08-17T09:57:56Z</time>
      </trkpt>
      <trkpt lat="47.35648" lon="6.40424">
        <ele>275.6</ele>
        <time>2019-08-17T09:57:57Z</time>
      </trkpt>
      <trkpt lat="47.35649" lon="6.40417">
        <ele>275.5</ele>
        <time>2019-08-17T09:57:58Z</time>
      </trkpt>
      <trkpt lat="47.3565" lon="6.4041">
        <ele>275.5</ele>
        <time>2019-08-17T09:57:59Z</time>
      </trkpt>
      <trkpt lat="47.35651" lon="6.40404">
        <ele>275.5</ele>
        <time>2019-08-17T09:58:00Z</time>
      </trkpt>
      <trkpt lat="47.35652" lon="6.40398">
        <ele>275.4</ele>
        <time>2019-08-17T09:58:01Z</time>
      </trkpt>
      <trkpt lat="47.35653" lon="6.40392">
        <ele>275.4</ele>
        <time>2019-08-17T09:58:02Z</time>
      </trkpt>
      <trkpt lat="47.35653" lon="6.40387">
        <ele>275.4</ele>
        <time>2019-08-17T09:58:03Z</time>
      </trkpt>
      <trkpt lat="47.35654" lon="6.4038">
        <ele>275.3</ele>
        <time>2019-08-17T09:58:04Z</time>
      </trkpt>
      <trkpt lat="47.35655" lon="6.40374">
        <ele>275.3</ele>
        <time>2019-08-17T09:58:05Z</time>
      </trkpt>
      <trkpt lat="47.35657" lon="6.40367">
        <ele>275.2</ele>
        <time>2019-08-17T09:58:06Z</time>
      </trkpt>
      <trkpt lat="47.35659" lon="6.4036">
        <ele>275.1</ele>
        <time>2019-08-17T09:58:07Z</time>
      </trkpt>
      <trkpt lat="47.35661" lon="6.40354">
        <ele>275</ele>
        <time>2019-08-17T09:58:08Z</time>
      </trkpt>
      <trkpt lat="47.35663" lon="6.40347">
        <ele>274.8</ele>
        <time>2019-08-17T09:58:09Z</time>
      </trkpt>
      <trkpt lat="47.35664" lon="6.40341">
        <ele>274.6</ele>
        <time>2019-08-17T09:58:10Z</time>
      </trkpt>
      <trkpt lat="47.35664" lon="6.40336">
        <ele>274.4</ele>
        <time>2019-08-17T09:58:11Z</time>
      </trkpt>
      <trkpt lat="47.35663" lon="6.4033">
        <ele>274.2</ele>
        <time>2019-08-17T09:58:12Z</time>
      </trkpt>
      <trkpt lat="47.35665" lon="6.40324">
        <ele>273.8</ele>
        <time>2019-08-17T09:58:13Z</time>
      </trkpt>
      <trkpt lat="47.35665" lon="6.40317">
        <ele>273.5</ele>
        <time>2019-08-17T09:58:14Z</time>
      </trkpt>
      <trkpt lat="47.35665" lon="6.40311">
        <ele>273.2</ele>
        <time>2019-08-17T09:58:15Z</time>
      </trkpt>
      <trkpt lat="47.35666" lon="6.40305">
        <ele>272.8</ele>
        <time>2019-08-17T09:58:16Z</time>
      </trkpt>
      <trkpt lat="47.35666" lon="6.403">
        <ele>272.5</ele>
        <time>2019-08-17T09:58:17Z</time>
      </trkpt>
      <trkpt lat="47.35667" lon="6.40293">
        <ele>272.2</ele>
        <time>2019-08-17T09:58:18Z</time>
      </trkpt>
      <trkpt lat="47.3567" lon="6.40288">
        <ele>271.8</ele>
        <time>2019-08-17T09:58:19Z</time>
      </trkpt>
      <trkpt lat="47.35671" lon="6.40281">
        <ele>271.5</ele>
        <time>2019-08-17T09:58:20Z</time>
      </trkpt>
      <trkpt lat="47.35673" lon="6.40274">
        <ele>271.1</ele>
        <time>2019-08-17T09:58:21Z</time>
      </trkpt>
      <trkpt lat="47.35674" lon="6.40267">
        <ele>270.7</ele>
        <time>2019-08-17T09:58:22Z</time>
      </trkpt>
      <trkpt lat="47.35676" lon="6.4026">
        <ele>270.3</ele>
        <time>2019-08-17T09:58:23Z</time>
      </trkpt>
      <trkpt lat="47.35677" lon="6.40254">
        <ele>269.8</ele>
        <time>2019-08-17T09:58:24Z</time>
      </trkpt>
      <trkpt lat="47.35677" lon="6.40248">
        <ele>269.3</ele>
        <time>2019-08-17T09:58:25Z</time>
      </trkpt>
      <trkpt lat="47.35678" lon="6.4024">
        <ele>268.5</ele>
        <time>2019-08-17T09:58:26Z</time>
      </trkpt>
      <trkpt lat="47.35679" lon="6.40233">
        <ele>267.7</ele>
        <time>2019-08-17T09:58:27Z</time>
      </trkpt>
      <trkpt lat="47.3568" lon="6.40227">
        <ele>266.8</ele>
        <time>2019-08-17T09:58:28Z</time>
      </trkpt>
      <trkpt lat="47.35681" lon="6.4022">
        <ele>265.7</ele>
        <time>2019-08-17T09:58:29Z</time>
      </trkpt>
      <trkpt lat="47.35683" lon="6.40213">
        <ele>264.6</ele>
        <time>2019-08-17T09:58:30Z</time>
      </trkpt>
      <trkpt lat="47.35685" lon="6.40206">
        <ele>263.5</ele>
        <time>2019-08-17T09:58:31Z</time>
      </trkpt>
      <trkpt lat="47.35687" lon="6.40199">
        <ele>262.2</ele>
        <time>2019-08-17T09:58:32Z</time>
      </trkpt>
      <trkpt lat="47.3569" lon="6.40191">
        <ele>261</ele>
        <time>2019-08-17T09:58:33Z</time>
      </trkpt>
      <trkpt lat="47.35692" lon="6.40183">
        <ele>259.8</ele>
        <time>2019-08-17T09:58:34Z</time>
      </trkpt>
      <trkpt lat="47.35694" lon="6.40176">
        <ele>259</ele>
        <time>2019-08-17T09:58:35Z</time>
      </trkpt>
      <trkpt lat="47.35695" lon="6.4017">
        <ele>258.4</ele>
        <time>2019-08-17T09:58:36Z</time>
      </trkpt>
      <trkpt lat="47.35698" lon="6.40164">
        <ele>258</ele>
        <time>2019-08-17T09:58:37Z</time>
      </trkpt>
      <trkpt lat="47.35699" lon="6.40156">
        <ele>257.7</ele>
        <time>2019-08-17T09:58:38Z</time>
      </trkpt>
      <trkpt lat="47.35701" lon="6.4015">
        <ele>257.7</ele>
        <time>2019-08-17T09:58:39Z</time>
      </trkpt>
      <trkpt lat="47.35702" lon="6.40143">
        <ele>257.8</ele>
        <time>2019-08-17T09:58:40Z</time>
      </trkpt>
      <trkpt lat="47.35703" lon="6.40135">
        <ele>258</ele>
        <time>2019-08-17T09:58:41Z</time>
      </trkpt>
      <trkpt lat="47.35704" lon="6.40128">
        <ele>258.3</ele>
        <time>2019-08-17T09:58:42Z</time>
      </trkpt>
      <trkpt lat="47.35706" lon="6.40121">
        <ele>258.6</ele>
        <time>2019-08-17T09:58:43Z</time>
      </trkpt>
      <trkpt lat="47.35706" lon="6.40115">
        <ele>258.9</ele>
        <time>2019-08-17T09:58:44Z</time>
      </trkpt>
      <trkpt lat="47.35707" lon="6.40108">
        <ele>259.1</ele>
        <time>2019-08-17T09:58:45Z</time>
      </trkpt>
      <trkpt lat="47.35709" lon="6.40101">
        <ele>259.2</ele>
        <time>2019-08-17T09:58:46Z</time>
      </trkpt>
      <trkpt lat="47.3571" lon="6.40093">
        <ele>259.3</ele>
        <time>2019-08-17T09:58:47Z</time>
      </trkpt>
      <trkpt lat="47.35711" lon="6.40085">
        <ele>259.3</ele>
        <time>2019-08-17T09:58:48Z</time>
      </trkpt>
      <trkpt lat="47.35713" lon="6.40078">
        <ele>259.3</ele>
        <time>2019-08-17T09:58:49Z</time>
      </trkpt>
      <trkpt lat="47.35714" lon="6.4007">
        <ele>259.3</ele>
        <time>2019-08-17T09:58:50Z</time>
      </trkpt>
      <trkpt lat="47.35715" lon="6.40063">
        <ele>259.3</ele>
        <time>2019-08-17T09:58:51Z</time>
      </trkpt>
      <trkpt lat="47.35717" lon="6.40056">
        <ele>259.3</ele>
        <time>2019-08-17T09:58:52Z</time>
      </trkpt>
      <trkpt lat="47.35718" lon="6.40049">
        <ele>259.3</ele>
        <time>2019-08-17T09:58:53Z</time>
      </trkpt>
      <trkpt lat="47.3572" lon="6.40041">
        <ele>259.5</ele>
        <time>2019-08-17T09:58:54Z</time>
      </trkpt>
      <trkpt lat="47.35721" lon="6.40034">
        <ele>259.7</ele>
        <time>2019-08-17T09:58:55Z</time>
      </trkpt>
      <trkpt lat="47.35722" lon="6.40026">
        <ele>259.9</ele>
        <time>2019-08-17T09:58:56Z</time>
      </trkpt>
      <trkpt lat="47.35724" lon="6.40019">
        <ele>260.1</ele>
        <time>2019-08-17T09:58:57Z</time>
      </trkpt>
      <trkpt lat="47.35725" lon="6.40011">
        <ele>260.2</ele>
        <time>2019-08-17T09:58:58Z</time>
      </trkpt>
      <trkpt lat="47.35727" lon="6.40004">
        <ele>260.3</ele>
        <time>2019-08-17T09:58:59Z</time>
      </trkpt>
      <trkpt lat="47.35728" lon="6.39996">
        <ele>260.3</ele>
        <time>2019-08-17T09:59:00Z</time>
      </trkpt>
      <trkpt lat="47.35729" lon="6.39989">
        <ele>260.3</ele>
        <time>2019-08-17T09:59:01Z</time>
      </trkpt>
      <trkpt lat="47.35731" lon="6.39983">
        <ele>260.3</ele>
        <time>2019-08-17T09:59:02Z</time>
      </trkpt>
      <trkpt lat="47.35732" lon="6.39975">
        <ele>260.2</ele>
        <time>2019-08-17T09:59:03Z</time>
      </trkpt>
      <trkpt lat="47.35733" lon="6.39968">
        <ele>260.1</ele>
        <time>2019-08-17T09:59:04Z</time>
      </trkpt>
      <trkpt lat="47.35735" lon="6.39962">
        <ele>260</ele>
        <time>2019-08-17T09:59:05Z</time>
      </trkpt>
      <trkpt lat="47.35736" lon="6.39955">
        <ele>259.8</ele>
        <time>2019-08-17T09:59:06Z</time>
      </trkpt>
      <trkpt lat="47.35737" lon="6.3995">
        <ele>259.6</ele>
        <time>2019-08-17T09:59:07Z</time>
      </trkpt>
      <trkpt lat="47.35738" lon="6.39945">
        <ele>259.4</ele>
        <time>2019-08-17T09:59:08Z</time>
      </trkpt>
      <trkpt lat="47.35738" lon="6.39939">
        <ele>259.2</ele>
        <time>2019-08-17T09:59:09Z</time>
      </trkpt>
      <trkpt lat="47.35738" lon="6.39934">
        <ele>259</ele>
        <time>2019-08-17T09:59:10Z</time>
      </trkpt>
      <trkpt lat="47.35739" lon="6.3993">
        <ele>258.8</ele>
        <time>2019-08-17T09:59:11Z</time>
      </trkpt>
      <trkpt lat="47.35741" lon="6.39924">
        <ele>258.6</ele>
        <time>2019-08-17T09:59:12Z</time>
      </trkpt>
      <trkpt lat="47.35742" lon="6.39918">
        <ele>258.3</ele>
        <time>2019-08-17T09:59:13Z</time>
      </trkpt>
      <trkpt lat="47.35744" lon="6.39912">
        <ele>258</ele>
        <time>2019-08-17T09:59:14Z</time>
      </trkpt>
      <trkpt lat="47.35746" lon="6.39907">
        <ele>257.8</ele>
        <time>2019-08-17T09:59:15Z</time>
      </trkpt>
      <trkpt lat="47.35748" lon="6.39902">
        <ele>257.5</ele>
        <time>2019-08-17T09:59:16Z</time>
      </trkpt>
      <trkpt lat="47.3575" lon="6.39896">
        <ele>257.3</ele>
        <time>2019-08-17T09:59:17Z</time>
      </trkpt>
      <trkpt lat="47.35753" lon="6.3989">
        <ele>257.2</ele>
        <time>2019-08-17T09:59:18Z</time>
      </trkpt>
      <trkpt lat="47.35755" lon="6.39883">
        <ele>257.1</ele>
        <time>2019-08-17T09:59:19Z</time>
      </trkpt>
      <trkpt lat="47.35758" lon="6.39877">
        <ele>257</ele>
        <time>2019-08-17T09:59:20Z</time>
      </trkpt>
      <trkpt lat="47.3576" lon="6.39871">
        <ele>256.9</ele>
        <time>2019-08-17T09:59:21Z</time>
      </trkpt>
      <trkpt lat="47.35763" lon="6.39865">
        <ele>256.8</ele>
        <time>2019-08-17T09:59:22Z</time>
      </trkpt>
      <trkpt lat="47.35764" lon="6.39858">
        <ele>256.8</ele>
        <time>2019-08-17T09:59:23Z</time>
      </trkpt>
      <trkpt lat="47.35765" lon="6.39851">
        <ele>256.8</ele>
        <time>2019-08-17T09:59:24Z</time>
      </trkpt>
      <trkpt lat="47.35765" lon="6.39844">
        <ele>256.7</ele>
        <time>2019-08-17T09:59:25Z</time>
      </trkpt>
      <trkpt lat="47.35767" lon="6.39836">
        <ele>256.7</ele>
        <time>2019-08-17T09:59:26Z</time>
      </trkpt>
      <trkpt lat="47.35767" lon="6.39828">
        <ele>256.6</ele>
        <time>2019-08-17T09:59:27Z</time>
      </trkpt>
      <trkpt lat="47.35767" lon="6.3982">
        <ele>256.6</ele>
        <time>2019-08-17T09:59:28Z</time>
      </trkpt>
      <trkpt lat="47.35767" lon="6.39814">
        <ele>256.5</ele>
        <time>2019-08-17T09:59:29Z</time>
      </trkpt>
      <trkpt lat="47.35767" lon="6.39808">
        <ele>256.5</ele>
        <time>2019-08-17T09:59:30Z</time>
      </trkpt>
      <trkpt lat="47.35766" lon="6.39801">
        <ele>256.5</ele>
        <time>2019-08-17T09:59:31Z</time>
      </trkpt>
      <trkpt lat="47.35766" lon="6.39792">
        <ele>256.4</ele>
        <time>2019-08-17T09:59:32Z</time>
      </trkpt>
      <trkpt lat="47.35765" lon="6.39785">
        <ele>256.4</ele>
        <time>2019-08-17T09:59:33Z</time>
      </trkpt>
      <trkpt lat="47.35764" lon="6.39778">
        <ele>256.3</ele>
        <time>2019-08-17T09:59:34Z</time>
      </trkpt>
      <trkpt lat="47.35764" lon="6.39771">
        <ele>256.3</ele>
        <time>2019-08-17T09:59:35Z</time>
      </trkpt>
      <trkpt lat="47.35763" lon="6.39765">
        <ele>256.2</ele>
        <time>2019-08-17T09:59:36Z</time>
      </trkpt>
      <trkpt lat="47.35763" lon="6.3976">
        <ele>256.2</ele>
        <time>2019-08-17T09:59:37Z</time>
      </trkpt>
      <trkpt lat="47.35762" lon="6.39754">
        <ele>256.2</ele>
        <time>2019-08-17T09:59:38Z</time>
      </trkpt>
      <trkpt lat="47.35762" lon="6.39749">
        <ele>256.1</ele>
        <time>2019-08-17T09:59:39Z</time>
      </trkpt>
      <trkpt lat="47.35762" lon="6.39743">
        <ele>256.1</ele>
        <time>2019-08-17T09:59:40Z</time>
      </trkpt>
      <trkpt lat="47.35761" lon="6.39739">
        <ele>256.1</ele>
        <time>2019-08-17T09:59:41Z</time>
      </trkpt>
      <trkpt lat="47.3576" lon="6.39733">
        <ele>256</ele>
        <time>2019-08-17T09:59:42Z</time>
      </trkpt>
      <trkpt lat="47.35759" lon="6.39728">
        <ele>256</ele>
        <time>2019-08-17T09:59:43Z</time>
      </trkpt>
      <trkpt lat="47.35759" lon="6.39723">
        <ele>256</ele>
        <time>2019-08-17T09:59:44Z</time>
      </trkpt>
      <trkpt lat="47.35759" lon="6.39719">
        <ele>256</ele>
        <time>2019-08-17T09:59:45Z</time>
      </trkpt>
      <trkpt lat="47.35758" lon="6.39715">
        <ele>255.9</ele>
        <time>2019-08-17T09:59:46Z</time>
      </trkpt>
      <trkpt lat="47.35758" lon="6.3971">
        <ele>255.9</ele>
        <time>2019-08-17T09:59:47Z</time>
      </trkpt>
      <trkpt lat="47.35759" lon="6.39706">
        <ele>255.9</ele>
        <time>2019-08-17T09:59:48Z</time>
      </trkpt>
      <trkpt lat="47.35758" lon="6.397">
        <ele>255.8</ele>
        <time>2019-08-17T09:59:49Z</time>
      </trkpt>
      <trkpt lat="47.35756" lon="6.39695">
        <ele>255.8</ele>
        <time>2019-08-17T09:59:50Z</time>
      </trkpt>
      <trkpt lat="47.35754" lon="6.39689">
        <ele>255.8</ele>
        <time>2019-08-17T09:59:51Z</time>
      </trkpt>
      <trkpt lat="47.35754" lon="6.39682">
        <ele>255.7</ele>
        <time>2019-08-17T09:59:52Z</time>
      </trkpt>
      <trkpt lat="47.35753" lon="6.39675">
        <ele>255.7</ele>
        <time>2019-08-17T09:59:53Z</time>
      </trkpt>
      <trkpt lat="47.35753" lon="6.39668">
        <ele>255.6</ele>
        <time>2019-08-17T09:59:54Z</time>
      </trkpt>
      <trkpt lat="47.35751" lon="6.39661">
        <ele>255.6</ele>
        <time>2019-08-17T09:59:55Z</time>
      </trkpt>
      <trkpt lat="47.35751" lon="6.39655">
        <ele>255.6</ele>
        <time>2019-08-17T09:59:56Z</time>
      </trkpt>
      <trkpt lat="47.35749" lon="6.39649">
        <ele>255.5</ele>
        <time>2019-08-17T09:59:57Z</time>
      </trkpt>
      <trkpt lat="47.35749" lon="6.39643">
        <ele>255.5</ele>
        <time>2019-08-17T09:59:58Z</time>
      </trkpt>
      <trkpt lat="47.35748" lon="6.39637">
        <ele>255.5</ele>
        <time>2019-08-17T09:59:59Z</time>
      </trkpt>
      <trkpt lat="47.35747" lon="6.39632">
        <ele>255.4</ele>
        <time>2019-08-17T10:00:00Z</time>
      </trkpt>
      <trkpt lat="47.35746" lon="6.39626">
        <ele>255.4</ele>
        <time>2019-08-17T10:00:01Z</time>
      </trkpt>
      <trkpt lat="47.35745" lon="6.3962">
        <ele>255.3</ele>
        <time>2019-08-17T10:00:02Z</time>
      </trkpt>
      <trkpt lat="47.35744" lon="6.39614">
        <ele>255.3</ele>
        <time>2019-08-17T10:00:03Z</time>
      </trkpt>
      <trkpt lat="47.35743" lon="6.39607">
        <ele>255.3</ele>
        <time>2019-08-17T10:00:04Z</time>
      </trkpt>
      <trkpt lat="47.35741" lon="6.39601">
        <ele>255.2</ele>
        <time>2019-08-17T10:00:05Z</time>
      </trkpt>
      <trkpt lat="47.3574" lon="6.39595">
        <ele>255.2</ele>
        <time>2019-08-17T10:00:06Z</time>
      </trkpt>
      <trkpt lat="47.35738" lon="6.3959">
        <ele>255.2</ele>
        <time>2019-08-17T10:00:07Z</time>
      </trkpt>
      <trkpt lat="47.35737" lon="6.39583">
        <ele>255.1</ele>
        <time>2019-08-17T10:00:08Z</time>
      </trkpt>
      <trkpt lat="47.35735" lon="6.39577">
        <ele>255.1</ele>
        <time>2019-08-17T10:00:09Z</time>
      </trkpt>
      <trkpt lat="47.35733" lon="6.39571">
        <ele>255</ele>
        <time>2019-08-17T10:00:10Z</time>
      </trkpt>
      <trkpt lat="47.35732" lon="6.39567">
        <ele>255</ele>
        <time>2019-08-17T10:00:11Z</time>
      </trkpt>
      <trkpt lat="47.3573" lon="6.39561">
        <ele>255</ele>
        <time>2019-08-17T10:00:12Z</time>
      </trkpt>
      <trkpt lat="47.35727" lon="6.39554">
        <ele>254.9</ele>
        <time>2019-08-17T10:00:13Z</time>
      </trkpt>
      <trkpt lat="47.35725" lon="6.39547">
        <ele>254.9</ele>
        <time>2019-08-17T10:00:14Z</time>
      </trkpt>
      <trkpt lat="47.35723" lon="6.3954">
        <ele>254.9</ele>
        <time>2019-08-17T10:00:15Z</time>
      </trkpt>
      <trkpt lat="47.35722" lon="6.39534">
        <ele>254.8</ele>
        <time>2019-08-17T10:00:16Z</time>
      </trkpt>
      <trkpt lat="47.35721" lon="6.39527">
        <ele>254.8</ele>
        <time>2019-08-17T10:00:17Z</time>
      </trkpt>
      <trkpt lat="47.3572" lon="6.39522">
        <ele>254.9</ele>
        <time>2019-08-17T10:00:18Z</time>
      </trkpt>
      <trkpt lat="47.35718" lon="6.39514">
        <ele>254.9</ele>
        <time>2019-08-17T10:00:19Z</time>
      </trkpt>
      <trkpt lat="47.35717" lon="6.39508">
        <ele>255</ele>
        <time>2019-08-17T10:00:20Z</time>
      </trkpt>
      <trkpt lat="47.35715" lon="6.39502">
        <ele>255</ele>
        <time>2019-08-17T10:00:21Z</time>
      </trkpt>
      <trkpt lat="47.35714" lon="6.39497">
        <ele>255.1</ele>
        <time>2019-08-17T10:00:22Z</time>
      </trkpt>
      <trkpt lat="47.35713" lon="6.39491">
        <ele>255.2</ele>
        <time>2019-08-17T10:00:23Z</time>
      </trkpt>
      <trkpt lat="47.35711" lon="6.39486">
        <ele>255.3</ele>
        <time>2019-08-17T10:00:24Z</time>
      </trkpt>
      <trkpt lat="47.3571" lon="6.39482">
        <ele>255.4</ele>
        <time>2019-08-17T10:00:25Z</time>
      </trkpt>
      <trkpt lat="47.35709" lon="6.39476">
        <ele>255.5</ele>
        <time>2019-08-17T10:00:26Z</time>
      </trkpt>
      <trkpt lat="47.35707" lon="6.3947">
        <ele>255.7</ele>
        <time>2019-08-17T10:00:27Z</time>
      </trkpt>
      <trkpt lat="47.35705" lon="6.39464">
        <ele>256</ele>
        <time>2019-08-17T10:00:28Z</time>
      </trkpt>
      <trkpt lat="47.35703" lon="6.39458">
        <ele>256.2</ele>
        <time>2019-08-17T10:00:29Z</time>
      </trkpt>
      <trkpt lat="47.35701" lon="6.39451">
        <ele>256.5</ele>
        <time>2019-08-17T10:00:30Z</time>
      </trkpt>
      <trkpt lat="47.35698" lon="6.39445">
        <ele>256.8</ele>
        <time>2019-08-17T10:00:31Z</time>
      </trkpt>
      <trkpt lat="47.35696" lon="6.39439">
        <ele>257</ele>
        <time>2019-08-17T10:00:32Z</time>
      </trkpt>
      <trkpt lat="47.35694" lon="6.39433">
        <ele>257.2</ele>
        <time>2019-08-17T10:00:33Z</time>
      </trkpt>
      <trkpt lat="47.35692" lon="6.39428">
        <ele>257.4</ele>
        <time>2019-08-17T10:00:34Z</time>
      </trkpt>
      <trkpt lat="47.35689" lon="6.39423">
        <ele>257.7</ele>
        <time>2019-08-17T10:00:35Z</time>
      </trkpt>
      <trkpt lat="47.35687" lon="6.39417">
        <ele>257.9</ele>
        <time>2019-08-17T10:00:36Z</time>
      </trkpt>
      <trkpt lat="47.35682" lon="6.39409">
        <ele>258.3</ele>
        <time>2019-08-17T10:00:37Z</time>
      </trkpt>
      <trkpt lat="47.35678" lon="6.39402">
        <ele>258.6</ele>
        <time>2019-08-17T10:00:38Z</time>
      </trkpt>
      <trkpt lat="47.35674" lon="6.39395">
        <ele>258.7</ele>
        <time>2019-08-17T10:00:39Z</time>
      </trkpt>
      <trkpt lat="47.35671" lon="6.39389">
        <ele>258.9</ele>
        <time>2019-08-17T10:00:40Z</time>
      </trkpt>
      <trkpt lat="47.35669" lon="6.39384">
        <ele>259</ele>
        <time>2019-08-17T10:00:41Z</time>
      </trkpt>
      <trkpt lat="47.35666" lon="6.39379">
        <ele>259.1</ele>
        <time>2019-08-17T10:00:42Z</time>
      </trkpt>
      <trkpt lat="47.35663" lon="6.39374">
        <ele>259.2</ele>
        <time>2019-08-17T10:00:43Z</time>
      </trkpt>
      <trkpt lat="47.35661" lon="6.3937">
        <ele>259.3</ele>
        <time>2019-08-17T10:00:44Z</time>
      </trkpt>
      <trkpt lat="47.35659" lon="6.39366">
        <ele>259.4</ele>
        <time>2019-08-17T10:00:45Z</time>
      </trkpt>
      <trkpt lat="47.35654" lon="6.39361">
        <ele>259.6</ele>
        <time>2019-08-17T10:00:46Z</time>
      </trkpt>
      <trkpt lat="47.35651" lon="6.39358">
        <ele>259.8</ele>
        <time>2019-08-17T10:00:47Z</time>
      </trkpt>
      <trkpt lat="47.35647" lon="6.39353">
        <ele>260</ele>
        <time>2019-08-17T10:00:48Z</time>
      </trkpt>
      <trkpt lat="47.35643" lon="6.3935">
        <ele>260.1</ele>
        <time>2019-08-17T10:00:49Z</time>
      </trkpt>
      <trkpt lat="47.35638" lon="6.39345">
        <ele>260.2</ele>
        <time>2019-08-17T10:00:50Z</time>
      </trkpt>
      <trkpt lat="47.35634" lon="6.39339">
        <ele>260.4</ele>
        <time>2019-08-17T10:00:51Z</time>
      </trkpt>
      <trkpt lat="47.3563" lon="6.39334">
        <ele>260.4</ele>
        <time>2019-08-17T10:00:52Z</time>
      </trkpt>
      <trkpt lat="47.35627" lon="6.39328">
        <ele>260.5</ele>
        <time>2019-08-17T10:00:53Z</time>
      </trkpt>
      <trkpt lat="47.35625" lon="6.39323">
        <ele>260.5</ele>
        <time>2019-08-17T10:00:54Z</time>
      </trkpt>
      <trkpt lat="47.35622" lon="6.39318">
        <ele>260.5</ele>
        <time>2019-08-17T10:00:55Z</time>
      </trkpt>
      <trkpt lat="47.35618" lon="6.39313">
        <ele>260.5</ele>
        <time>2019-08-17T10:00:56Z</time>
      </trkpt>
      <trkpt lat="47.35613" lon="6.3931">
        <ele>260.5</ele>
        <time>2019-08-17T10:00:57Z</time>
      </trkpt>
      <trkpt lat="47.35609" lon="6.39307">
        <ele>260.5</ele>
        <time>2019-08-17T10:00:58Z</time>
      </trkpt>
      <trkpt lat="47.35605" lon="6.39304">
        <ele>260.6</ele>
        <time>2019-08-17T10:00:59Z</time>
      </trkpt>
      <trkpt lat="47.35601" lon="6.39302">
        <ele>260.6</ele>
        <time>2019-08-17T10:01:00Z</time>
      </trkpt>
      <trkpt lat="47.35597" lon="6.39299">
        <ele>260.7</ele>
        <time>2019-08-17T10:01:01Z</time>
      </trkpt>
      <trkpt lat="47.35593" lon="6.39296">
        <ele>260.8</ele>
        <time>2019-08-17T10:01:02Z</time>
      </trkpt>
      <trkpt lat="47.35589" lon="6.39293">
        <ele>261</ele>
        <time>2019-08-17T10:01:03Z</time>
      </trkpt>
      <trkpt lat="47.35585" lon="6.39291">
        <ele>261.1</ele>
        <time>2019-08-17T10:01:04Z</time>
      </trkpt>
      <trkpt lat="47.35581" lon="6.39289">
        <ele>261.2</ele>
        <time>2019-08-17T10:01:05Z</time>
      </trkpt>
      <trkpt lat="47.35578" lon="6.39287">
        <ele>261.3</ele>
        <time>2019-08-17T10:01:06Z</time>
      </trkpt>
      <trkpt lat="47.35574" lon="6.39284">
        <ele>261.4</ele>
        <time>2019-08-17T10:01:07Z</time>
      </trkpt>
      <trkpt lat="47.35571" lon="6.39281">
        <ele>261.5</ele>
        <time>2019-08-17T10:01:08Z</time>
      </trkpt>
      <trkpt lat="47.35567" lon="6.39279">
        <ele>261.5</ele>
        <time>2019-08-17T10:01:09Z</time>
      </trkpt>
      <trkpt lat="47.35563" lon="6.39276">
        <ele>261.6</ele>
        <time>2019-08-17T10:01:10Z</time>
      </trkpt>
      <trkpt lat="47.3556" lon="6.39273">
        <ele>261.6</ele>
        <time>2019-08-17T10:01:11Z</time>
      </trkpt>
      <trkpt lat="47.35556" lon="6.3927">
        <ele>261.6</ele>
        <time>2019-08-17T10:01:12Z</time>
      </trkpt>
      <trkpt lat="47.35554" lon="6.39266">
        <ele>261.5</ele>
        <time>2019-08-17T10:01:13Z</time>
      </trkpt>
      <trkpt lat="47.3555" lon="6.39263">
        <ele>261.5</ele>
        <time>2019-08-17T10:01:14Z</time>
      </trkpt>
      <trkpt lat="47.35547" lon="6.39259">
        <ele>261.5</ele>
        <time>2019-08-17T10:01:15Z</time>
      </trkpt>
      <trkpt lat="47.35543" lon="6.39257">
        <ele>261.5</ele>
        <time>2019-08-17T10:01:16Z</time>
      </trkpt>
      <trkpt lat="47.35539" lon="6.39254">
        <ele>261.5</ele>
        <time>2019-08-17T10:01:17Z</time>
      </trkpt>
      <trkpt lat="47.35536" lon="6.39251">
        <ele>261.5</ele>
        <time>2019-08-17T10:01:18Z</time>
      </trkpt>
      <trkpt lat="47.35533" lon="6.39248">
        <ele>261.5</ele>
        <time>2019-08-17T10:01:19Z</time>
      </trkpt>
      <trkpt lat="47.3553" lon="6.39245">
        <ele>261.5</ele>
        <time>2019-08-17T10:01:20Z</time>
      </trkpt>
      <trkpt lat="47.35528" lon="6.39241">
        <ele>261.5</ele>
        <time>2019-08-17T10:01:21Z</time>
      </trkpt>
      <trkpt lat="47.35526" lon="6.39237">
        <ele>261.5</ele>
        <time>2019-08-17T10:01:22Z</time>
      </trkpt>
      <trkpt lat="47.35523" lon="6.39234">
        <ele>261.6</ele>
        <time>2019-08-17T10:01:23Z</time>
      </trkpt>
      <trkpt lat="47.3552" lon="6.39231">
        <ele>261.6</ele>
        <time>2019-08-17T10:01:24Z</time>
      </trkpt>
      <trkpt lat="47.35517" lon="6.39228">
        <ele>261.8</ele>
        <time>2019-08-17T10:01:25Z</time>
      </trkpt>
      <trkpt lat="47.35514" lon="6.39224">
        <ele>261.9</ele>
        <time>2019-08-17T10:01:26Z</time>
      </trkpt>
      <trkpt lat="47.35509" lon="6.3922">
        <ele>262.1</ele>
        <time>2019-08-17T10:01:27Z</time>
      </trkpt>
      <trkpt lat="47.35506" lon="6.39216">
        <ele>262.4</ele>
        <time>2019-08-17T10:01:28Z</time>
      </trkpt>
      <trkpt lat="47.35502" lon="6.39213">
        <ele>262.8</ele>
        <time>2019-08-17T10:01:29Z</time>
      </trkpt>
      <trkpt lat="47.35498" lon="6.3921">
        <ele>263.2</ele>
        <time>2019-08-17T10:01:30Z</time>
      </trkpt>
      <trkpt lat="47.35494" lon="6.39206">
        <ele>263.6</ele>
        <time>2019-08-17T10:01:31Z</time>
      </trkpt>
      <trkpt lat="47.3549" lon="6.39203">
        <ele>263.9</ele>
        <time>2019-08-17T10:01:32Z</time>
      </trkpt>
      <trkpt lat="47.35486" lon="6.392">
        <ele>264.2</ele>
        <time>2019-08-17T10:01:33Z</time>
      </trkpt>
      <trkpt lat="47.35482" lon="6.39197">
        <ele>264.3</ele>
        <time>2019-08-17T10:01:34Z</time>
      </trkpt>
      <trkpt lat="47.35478" lon="6.39194">
        <ele>264.4</ele>
        <time>2019-08-17T10:01:35Z</time>
      </trkpt>
      <trkpt lat="47.35473" lon="6.3919">
        <ele>264.5</ele>
        <time>2019-08-17T10:01:36Z</time>
      </trkpt>
      <trkpt lat="47.35469" lon="6.39187">
        <ele>264.4</ele>
        <time>2019-08-17T10:01:37Z</time>
      </trkpt>
      <trkpt lat="47.35464" lon="6.39184">
        <ele>264.3</ele>
        <time>2019-08-17T10:01:38Z</time>
      </trkpt>
      <trkpt lat="47.3546" lon="6.39181">
        <ele>264.1</ele>
        <time>2019-08-17T10:01:39Z</time>
      </trkpt>
      <trkpt lat="47.35456" lon="6.39178">
        <ele>263.9</ele>
        <time>2019-08-17T10:01:40Z</time>
      </trkpt>
      <trkpt lat="47.35452" lon="6.39175">
        <ele>263.7</ele>
        <time>2019-08-17T10:01:41Z</time>
      </trkpt>
      <trkpt lat="47.3545" lon="6.39172">
        <ele>263.5</ele>
        <time>2019-08-17T10:01:42Z</time>
      </trkpt>
      <trkpt lat="47.35448" lon="6.39169">
        <ele>263.4</ele>
        <time>2019-08-17T10:01:43Z</time>
      </trkpt>
      <trkpt lat="47.35445" lon="6.39166">
        <ele>263.2</ele>
        <time>2019-08-17T10:01:44Z</time>
      </trkpt>
      <trkpt lat="47.35442" lon="6.39163">
        <ele>263.1</ele>
        <time>2019-08-17T10:01:45Z</time>
      </trkpt>
      <trkpt lat="47.3544" lon="6.39159">
        <ele>262.9</ele>
        <time>2019-08-17T10:01:46Z</time>
      </trkpt>
      <trkpt lat="47.35437" lon="6.39154">
        <ele>262.8</ele>
        <time>2019-08-17T10:01:47Z</time>
      </trkpt>
      <trkpt lat="47.35434" lon="6.3915">
        <ele>262.7</ele>
        <time>2019-08-17T10:01:48Z</time>
      </trkpt>
      <trkpt lat="47.35431" lon="6.39145">
        <ele>262.6</ele>
        <time>2019-08-17T10:01:49Z</time>
      </trkpt>
      <trkpt lat="47.35427" lon="6.39141">
        <ele>262.5</ele>
        <time>2019-08-17T10:01:50Z</time>
      </trkpt>
      <trkpt lat="47.35424" lon="6.39136">
        <ele>262.3</ele>
        <time>2019-08-17T10:01:51Z</time>
      </trkpt>
      <trkpt lat="47.35421" lon="6.39132">
        <ele>262.1</ele>
        <time>2019-08-17T10:01:52Z</time>
      </trkpt>
      <trkpt lat="47.35417" lon="6.39127">
        <ele>261.9</ele>
        <time>2019-08-17T10:01:53Z</time>
      </trkpt>
      <trkpt lat="47.35414" lon="6.39122">
        <ele>261.4</ele>
        <time>2019-08-17T10:01:54Z</time>
      </trkpt>
      <trkpt lat="47.35411" lon="6.39116">
        <ele>260.9</ele>
        <time>2019-08-17T10:01:55Z</time>
      </trkpt>
      <trkpt lat="47.35407" lon="6.39113">
        <ele>260.4</ele>
        <time>2019-08-17T10:01:56Z</time>
      </trkpt>
      <trkpt lat="47.35404" lon="6.39109">
        <ele>259.9</ele>
        <time>2019-08-17T10:01:57Z</time>
      </trkpt>
      <trkpt lat="47.354" lon="6.39105">
        <ele>259.4</ele>
        <time>2019-08-17T10:01:58Z</time>
      </trkpt>
      <trkpt lat="47.35397" lon="6.39102">
        <ele>259</ele>
        <time>2019-08-17T10:01:59Z</time>
      </trkpt>
      <trkpt lat="47.35393" lon="6.39097">
        <ele>258.6</ele>
        <time>2019-08-17T10:02:00Z</time>
      </trkpt>
      <trkpt lat="47.3539" lon="6.39094">
        <ele>258.3</ele>
        <time>2019-08-17T10:02:01Z</time>
      </trkpt>
      <trkpt lat="47.35385" lon="6.39088">
        <ele>258.2</ele>
        <time>2019-08-17T10:02:02Z</time>
      </trkpt>
      <trkpt lat="47.35381" lon="6.39082">
        <ele>258.4</ele>
        <time>2019-08-17T10:02:03Z</time>
      </trkpt>
      <trkpt lat="47.35377" lon="6.39076">
        <ele>258.7</ele>
        <time>2019-08-17T10:02:04Z</time>
      </trkpt>
      <trkpt lat="47.35373" lon="6.39071">
        <ele>259.2</ele>
        <time>2019-08-17T10:02:05Z</time>
      </trkpt>
      <trkpt lat="47.35369" lon="6.39066">
        <ele>259.9</ele>
        <time>2019-08-17T10:02:06Z</time>
      </trkpt>
      <trkpt lat="47.35366" lon="6.39061">
        <ele>260.6</ele>
        <time>2019-08-17T10:02:07Z</time>
      </trkpt>
      <trkpt lat="47.35362" lon="6.39055">
        <ele>261.4</ele>
        <time>2019-08-17T10:02:08Z</time>
      </trkpt>
      <trkpt lat="47.35358" lon="6.39051">
        <ele>262.1</ele>
        <time>2019-08-17T10:02:09Z</time>
      </trkpt>
      <trkpt lat="47.35356" lon="6.39046">
        <ele>262.6</ele>
        <time>2019-08-17T10:02:10Z</time>
      </trkpt>
      <trkpt lat="47.35352" lon="6.39041">
        <ele>263</ele>
        <time>2019-08-17T10:02:11Z</time>
      </trkpt>
      <trkpt lat="47.35349" lon="6.39035">
        <ele>263.3</ele>
        <time>2019-08-17T10:02:12Z</time>
      </trkpt>
      <trkpt lat="47.35347" lon="6.39028">
        <ele>263.6</ele>
        <time>2019-08-17T10:02:13Z</time>
      </trkpt>
      <trkpt lat="47.35344" lon="6.39021">
        <ele>263.7</ele>
        <time>2019-08-17T10:02:14Z</time>
      </trkpt>
      <trkpt lat="47.35341" lon="6.39014">
        <ele>263.6</ele>
        <time>2019-08-17T10:02:15Z</time>
      </trkpt>
      <trkpt lat="47.35339" lon="6.39009">
        <ele>263.6</ele>
        <time>2019-08-17T10:02:16Z</time>
      </trkpt>
      <trkpt lat="47.35337" lon="6.39004">
        <ele>263.5</ele>
        <time>2019-08-17T10:02:17Z</time>
      </trkpt>
      <trkpt lat="47.35336" lon="6.38999">
        <ele>263.3</ele>
        <time>2019-08-17T10:02:18Z</time>
      </trkpt>
      <trkpt lat="47.35334" lon="6.38994">
        <ele>263</ele>
        <time>2019-08-17T10:02:19Z</time>
      </trkpt>
      <trkpt lat="47.35333" lon="6.38988">
        <ele>262.7</ele>
        <time>2019-08-17T10:02:20Z</time>
      </trkpt>
      <trkpt lat="47.35331" lon="6.38983">
        <ele>262.4</ele>
        <time>2019-08-17T10:02:21Z</time>
      </trkpt>
      <trkpt lat="47.35328" lon="6.38978">
        <ele>262.1</ele>
        <time>2019-08-17T10:02:22Z</time>
      </trkpt>
      <trkpt lat="47.35325" lon="6.38975">
        <ele>261.8</ele>
        <time>2019-08-17T10:02:23Z</time>
      </trkpt>
      <trkpt lat="47.35322" lon="6.38971">
        <ele>261.6</ele>
        <time>2019-08-17T10:02:24Z</time>
      </trkpt>
      <trkpt lat="47.35319" lon="6.38966">
        <ele>261.4</ele>
        <time>2019-08-17T10:02:25Z</time>
      </trkpt>
      <trkpt lat="47.35315" lon="6.38962">
        <ele>261.2</ele>
        <time>2019-08-17T10:02:26Z</time>
      </trkpt>
      <trkpt lat="47.35311" lon="6.38957">
        <ele>261.1</ele>
        <time>2019-08-17T10:02:27Z</time>
      </trkpt>
      <trkpt lat="47.35308" lon="6.38952">
        <ele>261</ele>
        <time>2019-08-17T10:02:28Z</time>
      </trkpt>
      <trkpt lat="47.35304" lon="6.38947">
        <ele>260.9</ele>
        <time>2019-08-17T10:02:29Z</time>
      </trkpt>
      <trkpt lat="47.353" lon="6.38941">
        <ele>260.9</ele>
        <time>2019-08-17T10:02:30Z</time>
      </trkpt>
      <trkpt lat="47.35297" lon="6.38936">
        <ele>260.8</ele>
        <time>2019-08-17T10:02:31Z</time>
      </trkpt>
      <trkpt lat="47.35293" lon="6.3893">
        <ele>260.8</ele>
        <time>2019-08-17T10:02:32Z</time>
      </trkpt>
      <trkpt lat="47.35291" lon="6.38925">
        <ele>260.7</ele>
        <time>2019-08-17T10:02:33Z</time>
      </trkpt>
      <trkpt lat="47.35288" lon="6.38919">
        <ele>260.8</ele>
        <time>2019-08-17T10:02:34Z</time>
      </trkpt>
      <trkpt lat="47.35285" lon="6.38912">
        <ele>261</ele>
        <time>2019-08-17T10:02:35Z</time>
      </trkpt>
      <trkpt lat="47.35282" lon="6.38905">
        <ele>261.2</ele>
        <time>2019-08-17T10:02:36Z</time>
      </trkpt>
      <trkpt lat="47.35279" lon="6.38899">
        <ele>261.3</ele>
        <time>2019-08-17T10:02:37Z</time>
      </trkpt>
      <trkpt lat="47.35277" lon="6.38893">
        <ele>261.3</ele>
        <time>2019-08-17T10:02:38Z</time>
      </trkpt>
      <trkpt lat="47.35274" lon="6.38887">
        <ele>261.4</ele>
        <time>2019-08-17T10:02:39Z</time>
      </trkpt>
      <trkpt lat="47.35271" lon="6.38882">
        <ele>261.4</ele>
        <time>2019-08-17T10:02:40Z</time>
      </trkpt>
      <trkpt lat="47.3527" lon="6.38877">
        <ele>261.4</ele>
        <time>2019-08-17T10:02:41Z</time>
      </trkpt>
      <trkpt lat="47.35267" lon="6.38872">
        <ele>261.4</ele>
        <time>2019-08-17T10:02:42Z</time>
      </trkpt>
      <trkpt lat="47.35265" lon="6.38867">
        <ele>261.4</ele>
        <time>2019-08-17T10:02:43Z</time>
      </trkpt>
      <trkpt lat="47.35262" lon="6.38861">
        <ele>261.4</ele>
        <time>2019-08-17T10:02:44Z</time>
      </trkpt>
      <trkpt lat="47.3526" lon="6.38856">
        <ele>261.4</ele>
        <time>2019-08-17T10:02:45Z</time>
      </trkpt>
      <trkpt lat="47.35257" lon="6.38849">
        <ele>261.4</ele>
        <time>2019-08-17T10:02:46Z</time>
      </trkpt>
      <trkpt lat="47.35254" lon="6.38843">
        <ele>261.4</ele>
        <time>2019-08-17T10:02:47Z</time>
      </trkpt>
      <trkpt lat="47.35252" lon="6.38836">
        <ele>261.3</ele>
        <time>2019-08-17T10:02:48Z</time>
      </trkpt>
      <trkpt lat="47.35249" lon="6.3883">
        <ele>261.2</ele>
        <time>2019-08-17T10:02:49Z</time>
      </trkpt>
      <trkpt lat="47.35247" lon="6.38824">
        <ele>261.2</ele>
        <time>2019-08-17T10:02:50Z</time>
      </trkpt>
      <trkpt lat="47.35244" lon="6.38819">
        <ele>261.1</ele>
        <time>2019-08-17T10:02:51Z</time>
      </trkpt>
      <trkpt lat="47.35242" lon="6.38812">
        <ele>261</ele>
        <time>2019-08-17T10:02:52Z</time>
      </trkpt>
      <trkpt lat="47.35239" lon="6.38805">
        <ele>260.9</ele>
        <time>2019-08-17T10:02:53Z</time>
      </trkpt>
      <trkpt lat="47.35236" lon="6.38798">
        <ele>260.7</ele>
        <time>2019-08-17T10:02:54Z</time>
      </trkpt>
      <trkpt lat="47.35233" lon="6.38791">
        <ele>260.6</ele>
        <time>2019-08-17T10:02:55Z</time>
      </trkpt>
      <trkpt lat="47.35231" lon="6.38784">
        <ele>260.4</ele>
        <time>2019-08-17T10:02:56Z</time>
      </trkpt>
      <trkpt lat="47.35227" lon="6.38778">
        <ele>260.3</ele>
        <time>2019-08-17T10:02:57Z</time>
      </trkpt>
      <trkpt lat="47.35224" lon="6.3877">
        <ele>260.1</ele>
        <time>2019-08-17T10:02:58Z</time>
      </trkpt>
      <trkpt lat="47.35222" lon="6.38763">
        <ele>260</ele>
        <time>2019-08-17T10:02:59Z</time>
      </trkpt>
      <trkpt lat="47.35219" lon="6.38755">
        <ele>259.8</ele>
        <time>2019-08-17T10:03:00Z</time>
      </trkpt>
      <trkpt lat="47.35216" lon="6.38747">
        <ele>259.7</ele>
        <time>2019-08-17T10:03:01Z</time>
      </trkpt>
      <trkpt lat="47.35214" lon="6.38739">
        <ele>259.5</ele>
        <time>2019-08-17T10:03:02Z</time>
      </trkpt>
      <trkpt lat="47.35211" lon="6.38731">
        <ele>259.5</ele>
        <time>2019-08-17T10:03:03Z</time>
      </trkpt>
      <trkpt lat="47.35208" lon="6.38723">
        <ele>259.4</ele>
        <time>2019-08-17T10:03:04Z</time>
      </trkpt>
      <trkpt lat="47.35206" lon="6.38715">
        <ele>259.4</ele>
        <time>2019-08-17T10:03:05Z</time>
      </trkpt>
      <trkpt lat="47.35203" lon="6.38707">
        <ele>259.4</ele>
        <time>2019-08-17T10:03:06Z</time>
      </trkpt>
      <trkpt lat="47.35201" lon="6.38698">
        <ele>259.4</ele>
        <time>2019-08-17T10:03:07Z</time>
      </trkpt>
      <trkpt lat="47.35199" lon="6.38689">
        <ele>259.4</ele>
        <time>2019-08-17T10:03:08Z</time>
      </trkpt>
      <trkpt lat="47.35197" lon="6.38681">
        <ele>259.3</ele>
        <time>2019-08-17T10:03:09Z</time>
      </trkpt>
      <trkpt lat="47.35195" lon="6.38675">
        <ele>259.2</ele>
        <time>2019-08-17T10:03:10Z</time>
      </trkpt>
      <trkpt lat="47.35193" lon="6.38668">
        <ele>259.1</ele>
        <time>2019-08-17T10:03:11Z</time>
      </trkpt>
      <trkpt lat="47.3519" lon="6.38661">
        <ele>259</ele>
        <time>2019-08-17T10:03:12Z</time>
      </trkpt>
      <trkpt lat="47.35188" lon="6.38653">
        <ele>258.9</ele>
        <time>2019-08-17T10:03:13Z</time>
      </trkpt>
      <trkpt lat="47.35184" lon="6.38646">
        <ele>258.8</ele>
        <time>2019-08-17T10:03:14Z</time>
      </trkpt>
      <trkpt lat="47.35182" lon="6.38638">
        <ele>258.7</ele>
        <time>2019-08-17T10:03:15Z</time>
      </trkpt>
      <trkpt lat="47.35179" lon="6.38629">
        <ele>258.7</ele>
        <time>2019-08-17T10:03:16Z</time>
      </trkpt>
      <trkpt lat="47.35177" lon="6.3862">
        <ele>258.7</ele>
        <time>2019-08-17T10:03:17Z</time>
      </trkpt>
      <trkpt lat="47.35175" lon="6.38612">
        <ele>258.7</ele>
        <time>2019-08-17T10:03:18Z</time>
      </trkpt>
      <trkpt lat="47.35174" lon="6.38604">
        <ele>258.8</ele>
        <time>2019-08-17T10:03:19Z</time>
      </trkpt>
      <trkpt lat="47.35172" lon="6.38596">
        <ele>258.9</ele>
        <time>2019-08-17T10:03:20Z</time>
      </trkpt>
      <trkpt lat="47.3517" lon="6.38588">
        <ele>258.9</ele>
        <time>2019-08-17T10:03:21Z</time>
      </trkpt>
      <trkpt lat="47.35168" lon="6.3858">
        <ele>259</ele>
        <time>2019-08-17T10:03:22Z</time>
      </trkpt>
      <trkpt lat="47.35165" lon="6.3857">
        <ele>259</ele>
        <time>2019-08-17T10:03:23Z</time>
      </trkpt>
      <trkpt lat="47.35163" lon="6.38562">
        <ele>258.9</ele>
        <time>2019-08-17T10:03:24Z</time>
      </trkpt>
      <trkpt lat="47.3516" lon="6.38555">
        <ele>258.8</ele>
        <time>2019-08-17T10:03:25Z</time>
      </trkpt>
      <trkpt lat="47.35158" lon="6.38547">
        <ele>258.7</ele>
        <time>2019-08-17T10:03:26Z</time>
      </trkpt>
      <trkpt lat="47.35155" lon="6.38539">
        <ele>258.7</ele>
        <time>2019-08-17T10:03:27Z</time>
      </trkpt>
      <trkpt lat="47.35154" lon="6.38531">
        <ele>258.7</ele>
        <time>2019-08-17T10:03:28Z</time>
      </trkpt>
      <trkpt lat="47.35152" lon="6.38524">
        <ele>258.6</ele>
        <time>2019-08-17T10:03:29Z</time>
      </trkpt>
      <trkpt lat="47.35151" lon="6.38516">
        <ele>258.6</ele>
        <time>2019-08-17T10:03:30Z</time>
      </trkpt>
      <trkpt lat="47.3515" lon="6.38508">
        <ele>258.6</ele>
        <time>2019-08-17T10:03:31Z</time>
      </trkpt>
      <trkpt lat="47.3515" lon="6.38501">
        <ele>258.7</ele>
        <time>2019-08-17T10:03:32Z</time>
      </trkpt>
      <trkpt lat="47.3515" lon="6.38491">
        <ele>258.7</ele>
        <time>2019-08-17T10:03:33Z</time>
      </trkpt>
      <trkpt lat="47.35153" lon="6.38484">
        <ele>258.8</ele>
        <time>2019-08-17T10:03:34Z</time>
      </trkpt>
      <trkpt lat="47.35155" lon="6.38477">
        <ele>258.9</ele>
        <time>2019-08-17T10:03:35Z</time>
      </trkpt>
      <trkpt lat="47.35159" lon="6.38468">
        <ele>259</ele>
        <time>2019-08-17T10:03:36Z</time>
      </trkpt>
      <trkpt lat="47.3516" lon="6.3846">
        <ele>259.1</ele>
        <time>2019-08-17T10:03:37Z</time>
      </trkpt>
      <trkpt lat="47.35163" lon="6.38453">
        <ele>259.1</ele>
        <time>2019-08-17T10:03:38Z</time>
      </trkpt>
      <trkpt lat="47.35166" lon="6.38446">
        <ele>259</ele>
        <time>2019-08-17T10:03:39Z</time>
      </trkpt>
      <trkpt lat="47.3517" lon="6.38439">
        <ele>259</ele>
        <time>2019-08-17T10:03:40Z</time>
      </trkpt>
      <trkpt lat="47.35172" lon="6.38431">
        <ele>258.9</ele>
        <time>2019-08-17T10:03:41Z</time>
      </trkpt>
      <trkpt lat="47.35175" lon="6.38424">
        <ele>258.9</ele>
        <time>2019-08-17T10:03:42Z</time>
      </trkpt>
      <trkpt lat="47.35177" lon="6.38417">
        <ele>259</ele>
        <time>2019-08-17T10:03:43Z</time>
      </trkpt>
      <trkpt lat="47.35179" lon="6.3841">
        <ele>259.1</ele>
        <time>2019-08-17T10:03:44Z</time>
      </trkpt>
      <trkpt lat="47.35181" lon="6.38406">
        <ele>259.1</ele>
        <time>2019-08-17T10:03:45Z</time>
      </trkpt>
      <trkpt lat="47.35182" lon="6.384">
        <ele>259.1</ele>
        <time>2019-08-17T10:03:46Z</time>
      </trkpt>
      <trkpt lat="47.35184" lon="6.38393">
        <ele>259.2</ele>
        <time>2019-08-17T10:03:47Z</time>
      </trkpt>
      <trkpt lat="47.35184" lon="6.38385">
        <ele>259.2</ele>
        <time>2019-08-17T10:03:48Z</time>
      </trkpt>
      <trkpt lat="47.35186" lon="6.38377">
        <ele>259.3</ele>
        <time>2019-08-17T10:03:49Z</time>
      </trkpt>
      <trkpt lat="47.35187" lon="6.38369">
        <ele>259.3</ele>
        <time>2019-08-17T10:03:50Z</time>
      </trkpt>
      <trkpt lat="47.35189" lon="6.38361">
        <ele>259.3</ele>
        <time>2019-08-17T10:03:51Z</time>
      </trkpt>
      <trkpt lat="47.35191" lon="6.38352">
        <ele>259.3</ele>
        <time>2019-08-17T10:03:52Z</time>
      </trkpt>
      <trkpt lat="47.35192" lon="6.38348">
        <ele>259.4</ele>
        <time>2019-08-17T10:03:53Z</time>
      </trkpt>
      <trkpt lat="47.35193" lon="6.38341">
        <ele>259.4</ele>
        <time>2019-08-17T10:03:54Z</time>
      </trkpt>
      <trkpt lat="47.35195" lon="6.38333">
        <ele>259.4</ele>
        <time>2019-08-17T10:03:55Z</time>
      </trkpt>
      <trkpt lat="47.35196" lon="6.38326">
        <ele>259.4</ele>
        <time>2019-08-17T10:03:56Z</time>
      </trkpt>
      <trkpt lat="47.35198" lon="6.38318">
        <ele>259.3</ele>
        <time>2019-08-17T10:03:57Z</time>
      </trkpt>
      <trkpt lat="47.35199" lon="6.3831">
        <ele>259.3</ele>
        <time>2019-08-17T10:03:58Z</time>
      </trkpt>
      <trkpt lat="47.35201" lon="6.38301">
        <ele>259.3</ele>
        <time>2019-08-17T10:03:59Z</time>
      </trkpt>
      <trkpt lat="47.35201" lon="6.38293">
        <ele>259.3</ele>
        <time>2019-08-17T10:04:00Z</time>
      </trkpt>
      <trkpt lat="47.35202" lon="6.38285">
        <ele>259.3</ele>
        <time>2019-08-17T10:04:01Z</time>
      </trkpt>
      <trkpt lat="47.35203" lon="6.38278">
        <ele>259.4</ele>
        <time>2019-08-17T10:04:02Z</time>
      </trkpt>
      <trkpt lat="47.35204" lon="6.3827">
        <ele>259.4</ele>
        <time>2019-08-17T10:04:03Z</time>
      </trkpt>
      <trkpt lat="47.35204" lon="6.38263">
        <ele>259.5</ele>
        <time>2019-08-17T10:04:04Z</time>
      </trkpt>
      <trkpt lat="47.35205" lon="6.38255">
        <ele>259.5</ele>
        <time>2019-08-17T10:04:05Z</time>
      </trkpt>
      <trkpt lat="47.35205" lon="6.38248">
        <ele>259.5</ele>
        <time>2019-08-17T10:04:06Z</time>
      </trkpt>
      <trkpt lat="47.35206" lon="6.38241">
        <ele>259.6</ele>
        <time>2019-08-17T10:04:07Z</time>
      </trkpt>
      <trkpt lat="47.35208" lon="6.38233">
        <ele>259.7</ele>
        <time>2019-08-17T10:04:08Z</time>
      </trkpt>
      <trkpt lat="47.3521" lon="6.38225">
        <ele>259.7</ele>
        <time>2019-08-17T10:04:09Z</time>
      </trkpt>
      <trkpt lat="47.35211" lon="6.38217">
        <ele>259.8</ele>
        <time>2019-08-17T10:04:10Z</time>
      </trkpt>
      <trkpt lat="47.35212" lon="6.3821">
        <ele>259.8</ele>
        <time>2019-08-17T10:04:11Z</time>
      </trkpt>
      <trkpt lat="47.35213" lon="6.38202">
        <ele>259.9</ele>
        <time>2019-08-17T10:04:12Z</time>
      </trkpt>
      <trkpt lat="47.35214" lon="6.38194">
        <ele>260</ele>
        <time>2019-08-17T10:04:13Z</time>
      </trkpt>
      <trkpt lat="47.35215" lon="6.38185">
        <ele>260</ele>
        <time>2019-08-17T10:04:14Z</time>
      </trkpt>
      <trkpt lat="47.35216" lon="6.38178">
        <ele>260</ele>
        <time>2019-08-17T10:04:15Z</time>
      </trkpt>
      <trkpt lat="47.35217" lon="6.3817">
        <ele>260</ele>
        <time>2019-08-17T10:04:16Z</time>
      </trkpt>
      <trkpt lat="47.35218" lon="6.38164">
        <ele>259.9</ele>
        <time>2019-08-17T10:04:17Z</time>
      </trkpt>
      <trkpt lat="47.35219" lon="6.38157">
        <ele>259.9</ele>
        <time>2019-08-17T10:04:18Z</time>
      </trkpt>
      <trkpt lat="47.35221" lon="6.38149">
        <ele>259.8</ele>
        <time>2019-08-17T10:04:19Z</time>
      </trkpt>
      <trkpt lat="47.35222" lon="6.38142">
        <ele>259.8</ele>
        <time>2019-08-17T10:04:20Z</time>
      </trkpt>
      <trkpt lat="47.35223" lon="6.38136">
        <ele>259.9</ele>
        <time>2019-08-17T10:04:21Z</time>
      </trkpt>
      <trkpt lat="47.35225" lon="6.38129">
        <ele>259.9</ele>
        <time>2019-08-17T10:04:22Z</time>
      </trkpt>
      <trkpt lat="47.35226" lon="6.38122">
        <ele>260</ele>
        <time>2019-08-17T10:04:23Z</time>
      </trkpt>
      <trkpt lat="47.35228" lon="6.38116">
        <ele>260.1</ele>
        <time>2019-08-17T10:04:24Z</time>
      </trkpt>
      <trkpt lat="47.3523" lon="6.38109">
        <ele>260.2</ele>
        <time>2019-08-17T10:04:25Z</time>
      </trkpt>
      <trkpt lat="47.35232" lon="6.38101">
        <ele>260.3</ele>
        <time>2019-08-17T10:04:26Z</time>
      </trkpt>
      <trkpt lat="47.35234" lon="6.38093">
        <ele>260.4</ele>
        <time>2019-08-17T10:04:27Z</time>
      </trkpt>
      <trkpt lat="47.35235" lon="6.38085">
        <ele>260.5</ele>
        <time>2019-08-17T10:04:28Z</time>
      </trkpt>
      <trkpt lat="47.35237" lon="6.38079">
        <ele>260.6</ele>
        <time>2019-08-17T10:04:29Z</time>
      </trkpt>
      <trkpt lat="47.35238" lon="6.38073">
        <ele>260.7</ele>
        <time>2019-08-17T10:04:30Z</time>
      </trkpt>
      <trkpt lat="47.35239" lon="6.38068">
        <ele>260.8</ele>
        <time>2019-08-17T10:04:31Z</time>
      </trkpt>
      <trkpt lat="47.35241" lon="6.38062">
        <ele>260.8</ele>
        <time>2019-08-17T10:04:32Z</time>
      </trkpt>
      <trkpt lat="47.35242" lon="6.38056">
        <ele>260.8</ele>
        <time>2019-08-17T10:04:33Z</time>
      </trkpt>
      <trkpt lat="47.35244" lon="6.38052">
        <ele>260.7</ele>
        <time>2019-08-17T10:04:34Z</time>
      </trkpt>
      <trkpt lat="47.35245" lon="6.38046">
        <ele>260.7</ele>
        <time>2019-08-17T10:04:35Z</time>
      </trkpt>
      <trkpt lat="47.35246" lon="6.38041">
        <ele>260.6</ele>
        <time>2019-08-17T10:04:36Z</time>
      </trkpt>
      <trkpt lat="47.35247" lon="6.38035">
        <ele>260.5</ele>
        <time>2019-08-17T10:04:37Z</time>
      </trkpt>
      <trkpt lat="47.35248" lon="6.38029">
        <ele>260.5</ele>
        <time>2019-08-17T10:04:38Z</time>
      </trkpt>
      <trkpt lat="47.35249" lon="6.38022">
        <ele>260.4</ele>
        <time>2019-08-17T10:04:39Z</time>
      </trkpt>
      <trkpt lat="47.3525" lon="6.38016">
        <ele>260.4</ele>
        <time>2019-08-17T10:04:40Z</time>
      </trkpt>
      <trkpt lat="47.3525" lon="6.3801">
        <ele>260.4</ele>
        <time>2019-08-17T10:04:41Z</time>
      </trkpt>
      <trkpt lat="47.35251" lon="6.38004">
        <ele>260.4</ele>
        <time>2019-08-17T10:04:42Z</time>
      </trkpt>
      <trkpt lat="47.35251" lon="6.37998">
        <ele>260.4</ele>
        <time>2019-08-17T10:04:43Z</time>
      </trkpt>
      <trkpt lat="47.35252" lon="6.3799">
        <ele>260.4</ele>
        <time>2019-08-17T10:04:44Z</time>
      </trkpt>
      <trkpt lat="47.35251" lon="6.37983">
        <ele>260.4</ele>
        <time>2019-08-17T10:04:45Z</time>
      </trkpt>
      <trkpt lat="47.3525" lon="6.37976">
        <ele>260.4</ele>
        <time>2019-08-17T10:04:46Z</time>
      </trkpt>
      <trkpt lat="47.3525" lon="6.37968">
        <ele>260.4</ele>
        <time>2019-08-17T10:04:47Z</time>
      </trkpt>
      <trkpt lat="47.3525" lon="6.37961">
        <ele>260.4</ele>
        <time>2019-08-17T10:04:48Z</time>
      </trkpt>
      <trkpt lat="47.35249" lon="6.37955">
        <ele>260.4</ele>
        <time>2019-08-17T10:04:49Z</time>
      </trkpt>
      <trkpt lat="47.35249" lon="6.37948">
        <ele>260.4</ele>
        <time>2019-08-17T10:04:50Z</time>
      </trkpt>
      <trkpt lat="47.3525" lon="6.37942">
        <ele>260.3</ele>
        <time>2019-08-17T10:04:51Z</time>
      </trkpt>
      <trkpt lat="47.3525" lon="6.37935">
        <ele>260.3</ele>
        <time>2019-08-17T10:04:52Z</time>
      </trkpt>
      <trkpt lat="47.35251" lon="6.37928">
        <ele>260.2</ele>
        <time>2019-08-17T10:04:53Z</time>
      </trkpt>
      <trkpt lat="47.35252" lon="6.37922">
        <ele>260.1</ele>
        <time>2019-08-17T10:04:54Z</time>
      </trkpt>
      <trkpt lat="47.35253" lon="6.37915">
        <ele>260</ele>
        <time>2019-08-17T10:04:55Z</time>
      </trkpt>
      <trkpt lat="47.35254" lon="6.37909">
        <ele>260</ele>
        <time>2019-08-17T10:04:56Z</time>
      </trkpt>
      <trkpt lat="47.35255" lon="6.37903">
        <ele>259.9</ele>
        <time>2019-08-17T10:04:57Z</time>
      </trkpt>
      <trkpt lat="47.35256" lon="6.37896">
        <ele>259.9</ele>
        <time>2019-08-17T10:04:58Z</time>
      </trkpt>
      <trkpt lat="47.35257" lon="6.3789">
        <ele>260</ele>
        <time>2019-08-17T10:04:59Z</time>
      </trkpt>
      <trkpt lat="47.3526" lon="6.37884">
        <ele>260.1</ele>
        <time>2019-08-17T10:05:00Z</time>
      </trkpt>
      <trkpt lat="47.35261" lon="6.37877">
        <ele>260.2</ele>
        <time>2019-08-17T10:05:01Z</time>
      </trkpt>
      <trkpt lat="47.35262" lon="6.37869">
        <ele>260.5</ele>
        <time>2019-08-17T10:05:02Z</time>
      </trkpt>
      <trkpt lat="47.35264" lon="6.37863">
        <ele>260.7</ele>
        <time>2019-08-17T10:05:03Z</time>
      </trkpt>
      <trkpt lat="47.35265" lon="6.37856">
        <ele>260.9</ele>
        <time>2019-08-17T10:05:04Z</time>
      </trkpt>
      <trkpt lat="47.35266" lon="6.37848">
        <ele>261.1</ele>
        <time>2019-08-17T10:05:05Z</time>
      </trkpt>
      <trkpt lat="47.35266" lon="6.37842">
        <ele>261.3</ele>
        <time>2019-08-17T10:05:06Z</time>
      </trkpt>
      <trkpt lat="47.35267" lon="6.37837">
        <ele>261.4</ele>
        <time>2019-08-17T10:05:07Z</time>
      </trkpt>
      <trkpt lat="47.35268" lon="6.37831">
        <ele>261.5</ele>
        <time>2019-08-17T10:05:08Z</time>
      </trkpt>
      <trkpt lat="47.35271" lon="6.37826">
        <ele>261.6</ele>
        <time>2019-08-17T10:05:09Z</time>
      </trkpt>
      <trkpt lat="47.35274" lon="6.37818">
        <ele>261.6</ele>
        <time>2019-08-17T10:05:11Z</time>
      </trkpt>
      <trkpt lat="47.35275" lon="6.37813">
        <ele>261.7</ele>
        <time>2019-08-17T10:05:13Z</time>
      </trkpt>
      <trkpt lat="47.35275" lon="6.37805">
        <ele>261.6</ele>
        <time>2019-08-17T10:05:15Z</time>
      </trkpt>
      <trkpt lat="47.35275" lon="6.378">
        <ele>261.6</ele>
        <time>2019-08-17T10:05:16Z</time>
      </trkpt>
      <trkpt lat="47.35276" lon="6.37795">
        <ele>261.6</ele>
        <time>2019-08-17T10:05:17Z</time>
      </trkpt>
      <trkpt lat="47.35276" lon="6.37788">
        <ele>261.6</ele>
        <time>2019-08-17T10:05:18Z</time>
      </trkpt>
      <trkpt lat="47.35276" lon="6.37783">
        <ele>261.7</ele>
        <time>2019-08-17T10:05:19Z</time>
      </trkpt>
      <trkpt lat="47.35277" lon="6.37777">
        <ele>261.8</ele>
        <time>2019-08-17T10:05:20Z</time>
      </trkpt>
      <trkpt lat="47.35278" lon="6.37771">
        <ele>262</ele>
        <time>2019-08-17T10:05:21Z</time>
      </trkpt>
      <trkpt lat="47.35279" lon="6.37766">
        <ele>262.2</ele>
        <time>2019-08-17T10:05:22Z</time>
      </trkpt>
      <trkpt lat="47.35279" lon="6.37761">
        <ele>262.4</ele>
        <time>2019-08-17T10:05:23Z</time>
      </trkpt>
      <trkpt lat="47.3528" lon="6.37755">
        <ele>262.6</ele>
        <time>2019-08-17T10:05:24Z</time>
      </trkpt>
      <trkpt lat="47.3528" lon="6.37749">
        <ele>264.7</ele>
        <time>2019-08-17T10:05:25Z</time>
      </trkpt>
      <trkpt lat="47.3528" lon="6.37744">
        <ele>265.5</ele>
        <time>2019-08-17T10:05:26Z</time>
      </trkpt>
      <trkpt lat="47.3528" lon="6.37738">
        <ele>266.3</ele>
        <time>2019-08-17T10:05:27Z</time>
      </trkpt>
      <trkpt lat="47.35279" lon="6.37733">
        <ele>267</ele>
        <time>2019-08-17T10:05:28Z</time>
      </trkpt>
      <trkpt lat="47.35279" lon="6.37727">
        <ele>267.8</ele>
        <time>2019-08-17T10:05:29Z</time>
      </trkpt>
      <trkpt lat="47.35278" lon="6.37723">
        <ele>268.5</ele>
        <time>2019-08-17T10:05:30Z</time>
      </trkpt>
      <trkpt lat="47.35278" lon="6.37717">
        <ele>269.7</ele>
        <time>2019-08-17T10:05:31Z</time>
      </trkpt>
      <trkpt lat="47.35278" lon="6.37712">
        <ele>269.6</ele>
        <time>2019-08-17T10:05:32Z</time>
      </trkpt>
      <trkpt lat="47.35277" lon="6.37707">
        <ele>269.6</ele>
        <time>2019-08-17T10:05:33Z</time>
      </trkpt>
      <trkpt lat="47.35277" lon="6.377">
        <ele>269.6</ele>
        <time>2019-08-17T10:05:34Z</time>
      </trkpt>
      <trkpt lat="47.35277" lon="6.37692">
        <ele>269.6</ele>
        <time>2019-08-17T10:05:35Z</time>
      </trkpt>
      <trkpt lat="47.35277" lon="6.37685">
        <ele>269.6</ele>
        <time>2019-08-17T10:05:36Z</time>
      </trkpt>
      <trkpt lat="47.35276" lon="6.37677">
        <ele>269.6</ele>
        <time>2019-08-17T10:05:37Z</time>
      </trkpt>
      <trkpt lat="47.35275" lon="6.3767">
        <ele>269.6</ele>
        <time>2019-08-17T10:05:38Z</time>
      </trkpt>
      <trkpt lat="47.35275" lon="6.37663">
        <ele>269.6</ele>
        <time>2019-08-17T10:05:39Z</time>
      </trkpt>
      <trkpt lat="47.35274" lon="6.37656">
        <ele>269.6</ele>
        <time>2019-08-17T10:05:40Z</time>
      </trkpt>
      <trkpt lat="47.35273" lon="6.37649">
        <ele>269.6</ele>
        <time>2019-08-17T10:05:41Z</time>
      </trkpt>
      <trkpt lat="47.35273" lon="6.37642">
        <ele>269.5</ele>
        <time>2019-08-17T10:05:42Z</time>
      </trkpt>
      <trkpt lat="47.35272" lon="6.37634">
        <ele>269.5</ele>
        <time>2019-08-17T10:05:43Z</time>
      </trkpt>
      <trkpt lat="47.35271" lon="6.37626">
        <ele>269.5</ele>
        <time>2019-08-17T10:05:44Z</time>
      </trkpt>
      <trkpt lat="47.3527" lon="6.37619">
        <ele>269.5</ele>
        <time>2019-08-17T10:05:45Z</time>
      </trkpt>
      <trkpt lat="47.35269" lon="6.37612">
        <ele>269.5</ele>
        <time>2019-08-17T10:05:46Z</time>
      </trkpt>
      <trkpt lat="47.35269" lon="6.37605">
        <ele>269.5</ele>
        <time>2019-08-17T10:05:47Z</time>
      </trkpt>
      <trkpt lat="47.35268" lon="6.37598">
        <ele>269.5</ele>
        <time>2019-08-17T10:05:48Z</time>
      </trkpt>
      <trkpt lat="47.35268" lon="6.37591">
        <ele>269.5</ele>
        <time>2019-08-17T10:05:49Z</time>
      </trkpt>
      <trkpt lat="47.35266" lon="6.37583">
        <ele>269.5</ele>
        <time>2019-08-17T10:05:50Z</time>
      </trkpt>
      <trkpt lat="47.35265" lon="6.37576">
        <ele>269.5</ele>
        <time>2019-08-17T10:05:51Z</time>
      </trkpt>
      <trkpt lat="47.35264" lon="6.37569">
        <ele>269.4</ele>
        <time>2019-08-17T10:05:52Z</time>
      </trkpt>
      <trkpt lat="47.35261" lon="6.37563">
        <ele>269.4</ele>
        <time>2019-08-17T10:05:53Z</time>
      </trkpt>
      <trkpt lat="47.35259" lon="6.37556">
        <ele>269.4</ele>
        <time>2019-08-17T10:05:54Z</time>
      </trkpt>
      <trkpt lat="47.35258" lon="6.37549">
        <ele>269.4</ele>
        <time>2019-08-17T10:05:55Z</time>
      </trkpt>
      <trkpt lat="47.35257" lon="6.37542">
        <ele>269.4</ele>
        <time>2019-08-17T10:05:56Z</time>
      </trkpt>
      <trkpt lat="47.35254" lon="6.37535">
        <ele>269.4</ele>
        <time>2019-08-17T10:05:57Z</time>
      </trkpt>
      <trkpt lat="47.35251" lon="6.37528">
        <ele>269.4</ele>
        <time>2019-08-17T10:05:58Z</time>
      </trkpt>
      <trkpt lat="47.35249" lon="6.37521">
        <ele>269.4</ele>
        <time>2019-08-17T10:05:59Z</time>
      </trkpt>
      <trkpt lat="47.35246" lon="6.37514">
        <ele>269.4</ele>
        <time>2019-08-17T10:06:00Z</time>
      </trkpt>
      <trkpt lat="47.35243" lon="6.37508">
        <ele>269.4</ele>
        <time>2019-08-17T10:06:01Z</time>
      </trkpt>
      <trkpt lat="47.35241" lon="6.37501">
        <ele>269.3</ele>
        <time>2019-08-17T10:06:02Z</time>
      </trkpt>
      <trkpt lat="47.35238" lon="6.37495">
        <ele>269.3</ele>
        <time>2019-08-17T10:06:03Z</time>
      </trkpt>
      <trkpt lat="47.35235" lon="6.37489">
        <ele>269.3</ele>
        <time>2019-08-17T10:06:04Z</time>
      </trkpt>
      <trkpt lat="47.35232" lon="6.37483">
        <ele>269.2</ele>
        <time>2019-08-17T10:06:05Z</time>
      </trkpt>
      <trkpt lat="47.3523" lon="6.37477">
        <ele>269.2</ele>
        <time>2019-08-17T10:06:06Z</time>
      </trkpt>
      <trkpt lat="47.35227" lon="6.37471">
        <ele>269</ele>
        <time>2019-08-17T10:06:07Z</time>
      </trkpt>
      <trkpt lat="47.35223" lon="6.37465">
        <ele>268.9</ele>
        <time>2019-08-17T10:06:08Z</time>
      </trkpt>
      <trkpt lat="47.3522" lon="6.37458">
        <ele>268.7</ele>
        <time>2019-08-17T10:06:09Z</time>
      </trkpt>
      <trkpt lat="47.35218" lon="6.37452">
        <ele>268.5</ele>
        <time>2019-08-17T10:06:10Z</time>
      </trkpt>
      <trkpt lat="47.35215" lon="6.37446">
        <ele>268.4</ele>
        <time>2019-08-17T10:06:11Z</time>
      </trkpt>
      <trkpt lat="47.35212" lon="6.3744">
        <ele>268.3</ele>
        <time>2019-08-17T10:06:12Z</time>
      </trkpt>
      <trkpt lat="47.35209" lon="6.37433">
        <ele>268.2</ele>
        <time>2019-08-17T10:06:13Z</time>
      </trkpt>
      <trkpt lat="47.35207" lon="6.37428">
        <ele>268.2</ele>
        <time>2019-08-17T10:06:14Z</time>
      </trkpt>
      <trkpt lat="47.35204" lon="6.37422">
        <ele>268.1</ele>
        <time>2019-08-17T10:06:15Z</time>
      </trkpt>
      <trkpt lat="47.35201" lon="6.37416">
        <ele>268.1</ele>
        <time>2019-08-17T10:06:16Z</time>
      </trkpt>
      <trkpt lat="47.35198" lon="6.3741">
        <ele>268.1</ele>
        <time>2019-08-17T10:06:17Z</time>
      </trkpt>
      <trkpt lat="47.35195" lon="6.37405">
        <ele>268.1</ele>
        <time>2019-08-17T10:06:18Z</time>
      </trkpt>
      <trkpt lat="47.35192" lon="6.37399">
        <ele>268.1</ele>
        <time>2019-08-17T10:06:19Z</time>
      </trkpt>
      <trkpt lat="47.35189" lon="6.37394">
        <ele>268.1</ele>
        <time>2019-08-17T10:06:20Z</time>
      </trkpt>
      <trkpt lat="47.35186" lon="6.37388">
        <ele>268</ele>
        <time>2019-08-17T10:06:21Z</time>
      </trkpt>
      <trkpt lat="47.35184" lon="6.37382">
        <ele>268</ele>
        <time>2019-08-17T10:06:22Z</time>
      </trkpt>
      <trkpt lat="47.35181" lon="6.37377">
        <ele>268</ele>
        <time>2019-08-17T10:06:23Z</time>
      </trkpt>
      <trkpt lat="47.35178" lon="6.37372">
        <ele>267.9</ele>
        <time>2019-08-17T10:06:24Z</time>
      </trkpt>
      <trkpt lat="47.35175" lon="6.37367">
        <ele>267.9</ele>
        <time>2019-08-17T10:06:25Z</time>
      </trkpt>
      <trkpt lat="47.35172" lon="6.37363">
        <ele>267.8</ele>
        <time>2019-08-17T10:06:26Z</time>
      </trkpt>
      <trkpt lat="47.35169" lon="6.37359">
        <ele>267.7</ele>
        <time>2019-08-17T10:06:27Z</time>
      </trkpt>
      <trkpt lat="47.35166" lon="6.37355">
        <ele>267.5</ele>
        <time>2019-08-17T10:06:28Z</time>
      </trkpt>
      <trkpt lat="47.35162" lon="6.3735">
        <ele>267.4</ele>
        <time>2019-08-17T10:06:29Z</time>
      </trkpt>
      <trkpt lat="47.35159" lon="6.37346">
        <ele>267.3</ele>
        <time>2019-08-17T10:06:30Z</time>
      </trkpt>
      <trkpt lat="47.35156" lon="6.37343">
        <ele>267.2</ele>
        <time>2019-08-17T10:06:31Z</time>
      </trkpt>
      <trkpt lat="47.35153" lon="6.3734">
        <ele>267.2</ele>
        <time>2019-08-17T10:06:32Z</time>
      </trkpt>
      <trkpt lat="47.35149" lon="6.37337">
        <ele>267.1</ele>
        <time>2019-08-17T10:06:33Z</time>
      </trkpt>
      <trkpt lat="47.35145" lon="6.37336">
        <ele>267.1</ele>
        <time>2019-08-17T10:06:34Z</time>
      </trkpt>
      <trkpt lat="47.35141" lon="6.37335">
        <ele>267.1</ele>
        <time>2019-08-17T10:06:35Z</time>
      </trkpt>
      <trkpt lat="47.35137" lon="6.37337">
        <ele>267.1</ele>
        <time>2019-08-17T10:06:36Z</time>
      </trkpt>
      <trkpt lat="47.35133" lon="6.37341">
        <ele>267</ele>
        <time>2019-08-17T10:06:37Z</time>
      </trkpt>
      <trkpt lat="47.3513" lon="6.37345">
        <ele>267</ele>
        <time>2019-08-17T10:06:38Z</time>
      </trkpt>
      <trkpt lat="47.35127" lon="6.3735">
        <ele>267.9</ele>
        <time>2019-08-17T10:06:39Z</time>
      </trkpt>
      <trkpt lat="47.35123" lon="6.37354">
        <ele>267.8</ele>
        <time>2019-08-17T10:06:40Z</time>
      </trkpt>
      <trkpt lat="47.3512" lon="6.37358">
        <ele>267.7</ele>
        <time>2019-08-17T10:06:41Z</time>
      </trkpt>
      <trkpt lat="47.35117" lon="6.37363">
        <ele>267.6</ele>
        <time>2019-08-17T10:06:42Z</time>
      </trkpt>
      <trkpt lat="47.35114" lon="6.37366">
        <ele>267.5</ele>
        <time>2019-08-17T10:06:43Z</time>
      </trkpt>
      <trkpt lat="47.3511" lon="6.37369">
        <ele>267.4</ele>
        <time>2019-08-17T10:06:44Z</time>
      </trkpt>
      <trkpt lat="47.35107" lon="6.37373">
        <ele>267.3</ele>
        <time>2019-08-17T10:06:45Z</time>
      </trkpt>
      <trkpt lat="47.35104" lon="6.37376">
        <ele>267.2</ele>
        <time>2019-08-17T10:06:46Z</time>
      </trkpt>
      <trkpt lat="47.35101" lon="6.37377">
        <ele>267.2</ele>
        <time>2019-08-17T10:06:47Z</time>
      </trkpt>
      <trkpt lat="47.35098" lon="6.37375">
        <ele>267.1</ele>
        <time>2019-08-17T10:06:48Z</time>
      </trkpt>
      <trkpt lat="47.35094" lon="6.37371">
        <ele>267</ele>
        <time>2019-08-17T10:06:49Z</time>
      </trkpt>
      <trkpt lat="47.3509" lon="6.37366">
        <ele>267</ele>
        <time>2019-08-17T10:06:50Z</time>
      </trkpt>
      <trkpt lat="47.35087" lon="6.37361">
        <ele>266.8</ele>
        <time>2019-08-17T10:06:51Z</time>
      </trkpt>
      <trkpt lat="47.35084" lon="6.37357">
        <ele>266.7</ele>
        <time>2019-08-17T10:06:52Z</time>
      </trkpt>
      <trkpt lat="47.35081" lon="6.37353">
        <ele>266.6</ele>
        <time>2019-08-17T10:06:53Z</time>
      </trkpt>
      <trkpt lat="47.35078" lon="6.37349">
        <ele>266.5</ele>
        <time>2019-08-17T10:06:54Z</time>
      </trkpt>
      <trkpt lat="47.35073" lon="6.37347">
        <ele>266.4</ele>
        <time>2019-08-17T10:06:55Z</time>
      </trkpt>
      <trkpt lat="47.35068" lon="6.37345">
        <ele>266.2</ele>
        <time>2019-08-17T10:06:56Z</time>
      </trkpt>
      <trkpt lat="47.35063" lon="6.37346">
        <ele>266.1</ele>
        <time>2019-08-17T10:06:57Z</time>
      </trkpt>
      <trkpt lat="47.35057" lon="6.37347">
        <ele>265.9</ele>
        <time>2019-08-17T10:06:58Z</time>
      </trkpt>
      <trkpt lat="47.35051" lon="6.37349">
        <ele>265.8</ele>
        <time>2019-08-17T10:06:59Z</time>
      </trkpt>
      <trkpt lat="47.35045" lon="6.37349">
        <ele>265.6</ele>
        <time>2019-08-17T10:07:00Z</time>
      </trkpt>
      <trkpt lat="47.35039" lon="6.3735">
        <ele>265.4</ele>
        <time>2019-08-17T10:07:01Z</time>
      </trkpt>
      <trkpt lat="47.35033" lon="6.37352">
        <ele>265.3</ele>
        <time>2019-08-17T10:07:02Z</time>
      </trkpt>
      <trkpt lat="47.35027" lon="6.37354">
        <ele>265.2</ele>
        <time>2019-08-17T10:07:03Z</time>
      </trkpt>
      <trkpt lat="47.35021" lon="6.37356">
        <ele>265.1</ele>
        <time>2019-08-17T10:07:04Z</time>
      </trkpt>
      <trkpt lat="47.35016" lon="6.37358">
        <ele>265</ele>
        <time>2019-08-17T10:07:05Z</time>
      </trkpt>
      <trkpt lat="47.35009" lon="6.37361">
        <ele>264.9</ele>
        <time>2019-08-17T10:07:06Z</time>
      </trkpt>
      <trkpt lat="47.35002" lon="6.37364">
        <ele>264.8</ele>
        <time>2019-08-17T10:07:07Z</time>
      </trkpt>
      <trkpt lat="47.34996" lon="6.37366">
        <ele>264.7</ele>
        <time>2019-08-17T10:07:08Z</time>
      </trkpt>
      <trkpt lat="47.3499" lon="6.37369">
        <ele>264.7</ele>
        <time>2019-08-17T10:07:09Z</time>
      </trkpt>
      <trkpt lat="47.34985" lon="6.37371">
        <ele>264.7</ele>
        <time>2019-08-17T10:07:10Z</time>
      </trkpt>
      <trkpt lat="47.3498" lon="6.37373">
        <ele>264.7</ele>
        <time>2019-08-17T10:07:11Z</time>
      </trkpt>
      <trkpt lat="47.34976" lon="6.37375">
        <ele>264.6</ele>
        <time>2019-08-17T10:07:12Z</time>
      </trkpt>
      <trkpt lat="47.34971" lon="6.37377">
        <ele>264.6</ele>
        <time>2019-08-17T10:07:13Z</time>
      </trkpt>
      <trkpt lat="47.34965" lon="6.37379">
        <ele>264.6</ele>
        <time>2019-08-17T10:07:14Z</time>
      </trkpt>
      <trkpt lat="47.3496" lon="6.37381">
        <ele>264.6</ele>
        <time>2019-08-17T10:07:15Z</time>
      </trkpt>
      <trkpt lat="47.34955" lon="6.37384">
        <ele>264.6</ele>
        <time>2019-08-17T10:07:16Z</time>
      </trkpt>
      <trkpt lat="47.34948" lon="6.37386">
        <ele>264.6</ele>
        <time>2019-08-17T10:07:17Z</time>
      </trkpt>
      <trkpt lat="47.34943" lon="6.37388">
        <ele>264.6</ele>
        <time>2019-08-17T10:07:18Z</time>
      </trkpt>
      <trkpt lat="47.34938" lon="6.3739">
        <ele>264.6</ele>
        <time>2019-08-17T10:07:19Z</time>
      </trkpt>
      <trkpt lat="47.34934" lon="6.37392">
        <ele>264.7</ele>
        <time>2019-08-17T10:07:20Z</time>
      </trkpt>
      <trkpt lat="47.3493" lon="6.37394">
        <ele>264.7</ele>
        <time>2019-08-17T10:07:21Z</time>
      </trkpt>
      <trkpt lat="47.34922" lon="6.37397">
        <ele>264.7</ele>
        <time>2019-08-17T10:07:23Z</time>
      </trkpt>
      <trkpt lat="47.34918" lon="6.37399">
        <ele>264.7</ele>
        <time>2019-08-17T10:07:24Z</time>
      </trkpt>
      <trkpt lat="47.34914" lon="6.37401">
        <ele>264.8</ele>
        <time>2019-08-17T10:07:25Z</time>
      </trkpt>
      <trkpt lat="47.34909" lon="6.37403">
        <ele>264.8</ele>
        <time>2019-08-17T10:07:26Z</time>
      </trkpt>
      <trkpt lat="47.34903" lon="6.37405">
        <ele>264.8</ele>
        <time>2019-08-17T10:07:27Z</time>
      </trkpt>
      <trkpt lat="47.34898" lon="6.37407">
        <ele>264.9</ele>
        <time>2019-08-17T10:07:28Z</time>
      </trkpt>
      <trkpt lat="47.34894" lon="6.37409">
        <ele>264.9</ele>
        <time>2019-08-17T10:07:29Z</time>
      </trkpt>
      <trkpt lat="47.34889" lon="6.3741">
        <ele>264.9</ele>
        <time>2019-08-17T10:07:30Z</time>
      </trkpt>
      <trkpt lat="47.34885" lon="6.37412">
        <ele>265</ele>
        <time>2019-08-17T10:07:31Z</time>
      </trkpt>
      <trkpt lat="47.3488" lon="6.37413">
        <ele>265</ele>
        <time>2019-08-17T10:07:32Z</time>
      </trkpt>
      <trkpt lat="47.34875" lon="6.37414">
        <ele>265</ele>
        <time>2019-08-17T10:07:33Z</time>
      </trkpt>
      <trkpt lat="47.34869" lon="6.37415">
        <ele>265</ele>
        <time>2019-08-17T10:07:34Z</time>
      </trkpt>
      <trkpt lat="47.34865" lon="6.37416">
        <ele>265</ele>
        <time>2019-08-17T10:07:35Z</time>
      </trkpt>
      <trkpt lat="47.3486" lon="6.37416">
        <ele>265</ele>
        <time>2019-08-17T10:07:36Z</time>
      </trkpt>
      <trkpt lat="47.34855" lon="6.37417">
        <ele>265</ele>
        <time>2019-08-17T10:07:37Z</time>
      </trkpt>
      <trkpt lat="47.3485" lon="6.37419">
        <ele>265</ele>
        <time>2019-08-17T10:07:38Z</time>
      </trkpt>
      <trkpt lat="47.34845" lon="6.3742">
        <ele>265</ele>
        <time>2019-08-17T10:07:39Z</time>
      </trkpt>
      <trkpt lat="47.3484" lon="6.37422">
        <ele>265</ele>
        <time>2019-08-17T10:07:40Z</time>
      </trkpt>
      <trkpt lat="47.34836" lon="6.37423">
        <ele>264.9</ele>
        <time>2019-08-17T10:07:41Z</time>
      </trkpt>
      <trkpt lat="47.34832" lon="6.37425">
        <ele>264.9</ele>
        <time>2019-08-17T10:07:42Z</time>
      </trkpt>
      <trkpt lat="47.34828" lon="6.37426">
        <ele>264.9</ele>
        <time>2019-08-17T10:07:43Z</time>
      </trkpt>
      <trkpt lat="47.34823" lon="6.37426">
        <ele>264.8</ele>
        <time>2019-08-17T10:07:44Z</time>
      </trkpt>
      <trkpt lat="47.34818" lon="6.37427">
        <ele>264.8</ele>
        <time>2019-08-17T10:07:45Z</time>
      </trkpt>
      <trkpt lat="47.34813" lon="6.37428">
        <ele>264.7</ele>
        <time>2019-08-17T10:07:46Z</time>
      </trkpt>
      <trkpt lat="47.34808" lon="6.37429">
        <ele>264.7</ele>
        <time>2019-08-17T10:07:47Z</time>
      </trkpt>
      <trkpt lat="47.34803" lon="6.37429">
        <ele>264.6</ele>
        <time>2019-08-17T10:07:48Z</time>
      </trkpt>
      <trkpt lat="47.34798" lon="6.37429">
        <ele>264.6</ele>
        <time>2019-08-17T10:07:49Z</time>
      </trkpt>
      <trkpt lat="47.34792" lon="6.37429">
        <ele>264.5</ele>
        <time>2019-08-17T10:07:50Z</time>
      </trkpt>
      <trkpt lat="47.34787" lon="6.3743">
        <ele>264.4</ele>
        <time>2019-08-17T10:07:51Z</time>
      </trkpt>
      <trkpt lat="47.34782" lon="6.3743">
        <ele>264.4</ele>
        <time>2019-08-17T10:07:52Z</time>
      </trkpt>
      <trkpt lat="47.34776" lon="6.37431">
        <ele>264.3</ele>
        <time>2019-08-17T10:07:53Z</time>
      </trkpt>
      <trkpt lat="47.3477" lon="6.37432">
        <ele>264.3</ele>
        <time>2019-08-17T10:07:54Z</time>
      </trkpt>
      <trkpt lat="47.34764" lon="6.37432">
        <ele>264.2</ele>
        <time>2019-08-17T10:07:55Z</time>
      </trkpt>
      <trkpt lat="47.3476" lon="6.37432">
        <ele>264.1</ele>
        <time>2019-08-17T10:07:56Z</time>
      </trkpt>
      <trkpt lat="47.34755" lon="6.37433">
        <ele>264.1</ele>
        <time>2019-08-17T10:07:57Z</time>
      </trkpt>
      <trkpt lat="47.34749" lon="6.37432">
        <ele>264</ele>
        <time>2019-08-17T10:07:58Z</time>
      </trkpt>
      <trkpt lat="47.34744" lon="6.37432">
        <ele>264</ele>
        <time>2019-08-17T10:07:59Z</time>
      </trkpt>
      <trkpt lat="47.34739" lon="6.37432">
        <ele>264</ele>
        <time>2019-08-17T10:08:00Z</time>
      </trkpt>
      <trkpt lat="47.34733" lon="6.37431">
        <ele>264</ele>
        <time>2019-08-17T10:08:01Z</time>
      </trkpt>
      <trkpt lat="47.34727" lon="6.37432">
        <ele>264</ele>
        <time>2019-08-17T10:08:02Z</time>
      </trkpt>
      <trkpt lat="47.34724" lon="6.37431">
        <ele>263.9</ele>
        <time>2019-08-17T10:08:03Z</time>
      </trkpt>
      <trkpt lat="47.34718" lon="6.3743">
        <ele>263.9</ele>
        <time>2019-08-17T10:08:04Z</time>
      </trkpt>
      <trkpt lat="47.34713" lon="6.37429">
        <ele>263.9</ele>
        <time>2019-08-17T10:08:05Z</time>
      </trkpt>
      <trkpt lat="47.34709" lon="6.37429">
        <ele>263.9</ele>
        <time>2019-08-17T10:08:06Z</time>
      </trkpt>
      <trkpt lat="47.34703" lon="6.37428">
        <ele>263.9</ele>
        <time>2019-08-17T10:08:07Z</time>
      </trkpt>
      <trkpt lat="47.34698" lon="6.37426">
        <ele>263.9</ele>
        <time>2019-08-17T10:08:08Z</time>
      </trkpt>
      <trkpt lat="47.34693" lon="6.37425">
        <ele>263.9</ele>
        <time>2019-08-17T10:08:09Z</time>
      </trkpt>
      <trkpt lat="47.34688" lon="6.37424">
        <ele>263.9</ele>
        <time>2019-08-17T10:08:10Z</time>
      </trkpt>
      <trkpt lat="47.34683" lon="6.37423">
        <ele>263.9</ele>
        <time>2019-08-17T10:08:11Z</time>
      </trkpt>
      <trkpt lat="47.34677" lon="6.37422">
        <ele>263.9</ele>
        <time>2019-08-17T10:08:12Z</time>
      </trkpt>
      <trkpt lat="47.34672" lon="6.37421">
        <ele>263.9</ele>
        <time>2019-08-17T10:08:13Z</time>
      </trkpt>
      <trkpt lat="47.34667" lon="6.3742">
        <ele>263.9</ele>
        <time>2019-08-17T10:08:14Z</time>
      </trkpt>
      <trkpt lat="47.34662" lon="6.37418">
        <ele>263.9</ele>
        <time>2019-08-17T10:08:15Z</time>
      </trkpt>
      <trkpt lat="47.34658" lon="6.37417">
        <ele>263.9</ele>
        <time>2019-08-17T10:08:16Z</time>
      </trkpt>
      <trkpt lat="47.34653" lon="6.37415">
        <ele>263.9</ele>
        <time>2019-08-17T10:08:17Z</time>
      </trkpt>
      <trkpt lat="47.34649" lon="6.37414">
        <ele>263.9</ele>
        <time>2019-08-17T10:08:18Z</time>
      </trkpt>
      <trkpt lat="47.34644" lon="6.37412">
        <ele>263.9</ele>
        <time>2019-08-17T10:08:19Z</time>
      </trkpt>
      <trkpt lat="47.3464" lon="6.37411">
        <ele>263.9</ele>
        <time>2019-08-17T10:08:20Z</time>
      </trkpt>
      <trkpt lat="47.34633" lon="6.37411">
        <ele>263.9</ele>
        <time>2019-08-17T10:08:21Z</time>
      </trkpt>
      <trkpt lat="47.34628" lon="6.3741">
        <ele>263.9</ele>
        <time>2019-08-17T10:08:22Z</time>
      </trkpt>
      <trkpt lat="47.34622" lon="6.37409">
        <ele>263.9</ele>
        <time>2019-08-17T10:08:23Z</time>
      </trkpt>
      <trkpt lat="47.34618" lon="6.37407">
        <ele>264</ele>
        <time>2019-08-17T10:08:24Z</time>
      </trkpt>
      <trkpt lat="47.34614" lon="6.37405">
        <ele>264</ele>
        <time>2019-08-17T10:08:25Z</time>
      </trkpt>
      <trkpt lat="47.34609" lon="6.37403">
        <ele>264</ele>
        <time>2019-08-17T10:08:26Z</time>
      </trkpt>
      <trkpt lat="47.34604" lon="6.37401">
        <ele>264.1</ele>
        <time>2019-08-17T10:08:27Z</time>
      </trkpt>
      <trkpt lat="47.346" lon="6.37399">
        <ele>264.1</ele>
        <time>2019-08-17T10:08:28Z</time>
      </trkpt>
      <trkpt lat="47.34596" lon="6.37396">
        <ele>264.1</ele>
        <time>2019-08-17T10:08:29Z</time>
      </trkpt>
      <trkpt lat="47.34592" lon="6.37394">
        <ele>264.1</ele>
        <time>2019-08-17T10:08:30Z</time>
      </trkpt>
      <trkpt lat="47.34587" lon="6.37392">
        <ele>264.2</ele>
        <time>2019-08-17T10:08:31Z</time>
      </trkpt>
      <trkpt lat="47.34583" lon="6.3739">
        <ele>264.2</ele>
        <time>2019-08-17T10:08:32Z</time>
      </trkpt>
      <trkpt lat="47.34579" lon="6.37389">
        <ele>264.2</ele>
        <time>2019-08-17T10:08:33Z</time>
      </trkpt>
      <trkpt lat="47.34574" lon="6.37389">
        <ele>264.2</ele>
        <time>2019-08-17T10:08:34Z</time>
      </trkpt>
      <trkpt lat="47.34569" lon="6.3739">
        <ele>264.3</ele>
        <time>2019-08-17T10:08:35Z</time>
      </trkpt>
      <trkpt lat="47.34564" lon="6.37389">
        <ele>264.3</ele>
        <time>2019-08-17T10:08:36Z</time>
      </trkpt>
      <trkpt lat="47.3456" lon="6.37389">
        <ele>264.3</ele>
        <time>2019-08-17T10:08:37Z</time>
      </trkpt>
      <trkpt lat="47.34556" lon="6.37389">
        <ele>264.3</ele>
        <time>2019-08-17T10:08:38Z</time>
      </trkpt>
      <trkpt lat="47.34552" lon="6.37389">
        <ele>264.3</ele>
        <time>2019-08-17T10:08:39Z</time>
      </trkpt>
      <trkpt lat="47.34547" lon="6.37389">
        <ele>264.4</ele>
        <time>2019-08-17T10:08:40Z</time>
      </trkpt>
      <trkpt lat="47.34542" lon="6.37389">
        <ele>264.4</ele>
        <time>2019-08-17T10:08:41Z</time>
      </trkpt>
      <trkpt lat="47.34537" lon="6.37389">
        <ele>264.4</ele>
        <time>2019-08-17T10:08:42Z</time>
      </trkpt>
      <trkpt lat="47.34532" lon="6.37388">
        <ele>264.4</ele>
        <time>2019-08-17T10:08:43Z</time>
      </trkpt>
      <trkpt lat="47.34527" lon="6.37387">
        <ele>264.4</ele>
        <time>2019-08-17T10:08:44Z</time>
      </trkpt>
      <trkpt lat="47.34521" lon="6.37385">
        <ele>264.4</ele>
        <time>2019-08-17T10:08:45Z</time>
      </trkpt>
      <trkpt lat="47.34516" lon="6.37384">
        <ele>264.4</ele>
        <time>2019-08-17T10:08:46Z</time>
      </trkpt>
      <trkpt lat="47.34511" lon="6.37382">
        <ele>264.4</ele>
        <time>2019-08-17T10:08:47Z</time>
      </trkpt>
      <trkpt lat="47.34506" lon="6.37382">
        <ele>264.4</ele>
        <time>2019-08-17T10:08:48Z</time>
      </trkpt>
      <trkpt lat="47.34501" lon="6.37381">
        <ele>264.4</ele>
        <time>2019-08-17T10:08:49Z</time>
      </trkpt>
      <trkpt lat="47.34496" lon="6.37382">
        <ele>264.4</ele>
        <time>2019-08-17T10:08:50Z</time>
      </trkpt>
      <trkpt lat="47.34492" lon="6.37382">
        <ele>264.4</ele>
        <time>2019-08-17T10:08:51Z</time>
      </trkpt>
      <trkpt lat="47.34487" lon="6.37382">
        <ele>264.4</ele>
        <time>2019-08-17T10:08:52Z</time>
      </trkpt>
      <trkpt lat="47.34482" lon="6.37382">
        <ele>264.4</ele>
        <time>2019-08-17T10:08:53Z</time>
      </trkpt>
      <trkpt lat="47.34477" lon="6.37382">
        <ele>264.4</ele>
        <time>2019-08-17T10:08:54Z</time>
      </trkpt>
      <trkpt lat="47.34472" lon="6.37382">
        <ele>264.4</ele>
        <time>2019-08-17T10:08:55Z</time>
      </trkpt>
      <trkpt lat="47.34467" lon="6.37383">
        <ele>264.4</ele>
        <time>2019-08-17T10:08:56Z</time>
      </trkpt>
      <trkpt lat="47.34463" lon="6.37384">
        <ele>264.4</ele>
        <time>2019-08-17T10:08:57Z</time>
      </trkpt>
      <trkpt lat="47.34457" lon="6.37384">
        <ele>264.4</ele>
        <time>2019-08-17T10:08:58Z</time>
      </trkpt>
      <trkpt lat="47.34452" lon="6.37385">
        <ele>264.4</ele>
        <time>2019-08-17T10:08:59Z</time>
      </trkpt>
      <trkpt lat="47.34446" lon="6.37385">
        <ele>264.4</ele>
        <time>2019-08-17T10:09:00Z</time>
      </trkpt>
      <trkpt lat="47.34439" lon="6.37386">
        <ele>264.4</ele>
        <time>2019-08-17T10:09:01Z</time>
      </trkpt>
      <trkpt lat="47.34434" lon="6.37387">
        <ele>264.4</ele>
        <time>2019-08-17T10:09:02Z</time>
      </trkpt>
      <trkpt lat="47.34429" lon="6.37388">
        <ele>264.4</ele>
        <time>2019-08-17T10:09:03Z</time>
      </trkpt>
      <trkpt lat="47.34424" lon="6.37389">
        <ele>264.4</ele>
        <time>2019-08-17T10:09:04Z</time>
      </trkpt>
      <trkpt lat="47.3442" lon="6.3739">
        <ele>264.4</ele>
        <time>2019-08-17T10:09:05Z</time>
      </trkpt>
      <trkpt lat="47.34415" lon="6.37391">
        <ele>264.4</ele>
        <time>2019-08-17T10:09:06Z</time>
      </trkpt>
      <trkpt lat="47.3441" lon="6.37392">
        <ele>264.4</ele>
        <time>2019-08-17T10:09:07Z</time>
      </trkpt>
      <trkpt lat="47.34405" lon="6.37392">
        <ele>264.4</ele>
        <time>2019-08-17T10:09:08Z</time>
      </trkpt>
      <trkpt lat="47.344" lon="6.37393">
        <ele>264.3</ele>
        <time>2019-08-17T10:09:09Z</time>
      </trkpt>
      <trkpt lat="47.34395" lon="6.37394">
        <ele>264.3</ele>
        <time>2019-08-17T10:09:10Z</time>
      </trkpt>
      <trkpt lat="47.34391" lon="6.37396">
        <ele>264.3</ele>
        <time>2019-08-17T10:09:11Z</time>
      </trkpt>
      <trkpt lat="47.34385" lon="6.37397">
        <ele>264.2</ele>
        <time>2019-08-17T10:09:12Z</time>
      </trkpt>
      <trkpt lat="47.3438" lon="6.37398">
        <ele>264.2</ele>
        <time>2019-08-17T10:09:13Z</time>
      </trkpt>
      <trkpt lat="47.34375" lon="6.37399">
        <ele>264.1</ele>
        <time>2019-08-17T10:09:14Z</time>
      </trkpt>
      <trkpt lat="47.3437" lon="6.374">
        <ele>264.1</ele>
        <time>2019-08-17T10:09:15Z</time>
      </trkpt>
      <trkpt lat="47.34365" lon="6.37401">
        <ele>264.1</ele>
        <time>2019-08-17T10:09:16Z</time>
      </trkpt>
      <trkpt lat="47.34359" lon="6.37401">
        <ele>264</ele>
        <time>2019-08-17T10:09:17Z</time>
      </trkpt>
      <trkpt lat="47.34354" lon="6.37403">
        <ele>264</ele>
        <time>2019-08-17T10:09:18Z</time>
      </trkpt>
      <trkpt lat="47.34348" lon="6.37404">
        <ele>264</ele>
        <time>2019-08-17T10:09:19Z</time>
      </trkpt>
      <trkpt lat="47.34343" lon="6.37406">
        <ele>263.9</ele>
        <time>2019-08-17T10:09:20Z</time>
      </trkpt>
      <trkpt lat="47.34337" lon="6.37407">
        <ele>263.9</ele>
        <time>2019-08-17T10:09:21Z</time>
      </trkpt>
      <trkpt lat="47.34332" lon="6.37409">
        <ele>263.9</ele>
        <time>2019-08-17T10:09:22Z</time>
      </trkpt>
      <trkpt lat="47.34327" lon="6.37409">
        <ele>263.9</ele>
        <time>2019-08-17T10:09:23Z</time>
      </trkpt>
      <trkpt lat="47.34322" lon="6.3741">
        <ele>263.9</ele>
        <time>2019-08-17T10:09:24Z</time>
      </trkpt>
      <trkpt lat="47.34317" lon="6.37412">
        <ele>263.8</ele>
        <time>2019-08-17T10:09:25Z</time>
      </trkpt>
      <trkpt lat="47.34312" lon="6.37412">
        <ele>263.8</ele>
        <time>2019-08-17T10:09:26Z</time>
      </trkpt>
      <trkpt lat="47.34307" lon="6.37411">
        <ele>263.8</ele>
        <time>2019-08-17T10:09:27Z</time>
      </trkpt>
      <trkpt lat="47.34302" lon="6.37407">
        <ele>263.8</ele>
        <time>2019-08-17T10:09:28Z</time>
      </trkpt>
      <trkpt lat="47.34298" lon="6.37405">
        <ele>263.8</ele>
        <time>2019-08-17T10:09:29Z</time>
      </trkpt>
      <trkpt lat="47.34294" lon="6.37402">
        <ele>263.8</ele>
        <time>2019-08-17T10:09:30Z</time>
      </trkpt>
      <trkpt lat="47.34289" lon="6.37399">
        <ele>263.7</ele>
        <time>2019-08-17T10:09:31Z</time>
      </trkpt>
      <trkpt lat="47.34284" lon="6.37395">
        <ele>263.7</ele>
        <time>2019-08-17T10:09:32Z</time>
      </trkpt>
      <trkpt lat="47.3428" lon="6.37392">
        <ele>263.7</ele>
        <time>2019-08-17T10:09:33Z</time>
      </trkpt>
      <trkpt lat="47.34276" lon="6.37389">
        <ele>263.7</ele>
        <time>2019-08-17T10:09:34Z</time>
      </trkpt>
      <trkpt lat="47.34271" lon="6.37386">
        <ele>263.7</ele>
        <time>2019-08-17T10:09:35Z</time>
      </trkpt>
      <trkpt lat="47.34267" lon="6.37383">
        <ele>263.6</ele>
        <time>2019-08-17T10:09:36Z</time>
      </trkpt>
      <trkpt lat="47.34263" lon="6.37381">
        <ele>263.6</ele>
        <time>2019-08-17T10:09:37Z</time>
      </trkpt>
      <trkpt lat="47.34258" lon="6.37379">
        <ele>263.6</ele>
        <time>2019-08-17T10:09:38Z</time>
      </trkpt>
      <trkpt lat="47.34252" lon="6.37377">
        <ele>263.6</ele>
        <time>2019-08-17T10:09:39Z</time>
      </trkpt>
      <trkpt lat="47.34247" lon="6.37374">
        <ele>263.6</ele>
        <time>2019-08-17T10:09:40Z</time>
      </trkpt>
      <trkpt lat="47.34241" lon="6.37371">
        <ele>263.6</ele>
        <time>2019-08-17T10:09:41Z</time>
      </trkpt>
      <trkpt lat="47.34236" lon="6.3737">
        <ele>263.6</ele>
        <time>2019-08-17T10:09:42Z</time>
      </trkpt>
      <trkpt lat="47.34231" lon="6.37369">
        <ele>263.6</ele>
        <time>2019-08-17T10:09:43Z</time>
      </trkpt>
      <trkpt lat="47.34225" lon="6.37368">
        <ele>263.6</ele>
        <time>2019-08-17T10:09:44Z</time>
      </trkpt>
      <trkpt lat="47.34219" lon="6.37367">
        <ele>263.6</ele>
        <time>2019-08-17T10:09:45Z</time>
      </trkpt>
      <trkpt lat="47.34213" lon="6.37366">
        <ele>263.6</ele>
        <time>2019-08-17T10:09:46Z</time>
      </trkpt>
      <trkpt lat="47.34208" lon="6.37366">
        <ele>263.6</ele>
        <time>2019-08-17T10:09:47Z</time>
      </trkpt>
      <trkpt lat="47.34202" lon="6.37367">
        <ele>263.7</ele>
        <time>2019-08-17T10:09:48Z</time>
      </trkpt>
      <trkpt lat="47.34197" lon="6.37366">
        <ele>263.7</ele>
        <time>2019-08-17T10:09:49Z</time>
      </trkpt>
      <trkpt lat="47.34193" lon="6.37366">
        <ele>263.8</ele>
        <time>2019-08-17T10:09:50Z</time>
      </trkpt>
      <trkpt lat="47.34189" lon="6.37363">
        <ele>263.8</ele>
        <time>2019-08-17T10:09:51Z</time>
      </trkpt>
      <trkpt lat="47.34185" lon="6.37361">
        <ele>263.9</ele>
        <time>2019-08-17T10:09:52Z</time>
      </trkpt>
      <trkpt lat="47.34182" lon="6.37359">
        <ele>263.9</ele>
        <time>2019-08-17T10:09:53Z</time>
      </trkpt>
      <trkpt lat="47.34179" lon="6.37358">
        <ele>263.9</ele>
        <time>2019-08-17T10:09:54Z</time>
      </trkpt>
      <trkpt lat="47.34176" lon="6.37357">
        <ele>264</ele>
        <time>2019-08-17T10:09:55Z</time>
      </trkpt>
      <trkpt lat="47.34173" lon="6.37356">
        <ele>264</ele>
        <time>2019-08-17T10:09:56Z</time>
      </trkpt>
      <trkpt lat="47.34169" lon="6.37355">
        <ele>264.1</ele>
        <time>2019-08-17T10:09:58Z</time>
      </trkpt>
      <trkpt lat="47.34165" lon="6.37351">
        <ele>264.1</ele>
        <time>2019-08-17T10:10:00Z</time>
      </trkpt>
      <trkpt lat="47.34163" lon="6.37347">
        <ele>264.2</ele>
        <time>2019-08-17T10:10:01Z</time>
      </trkpt>
      <trkpt lat="47.34159" lon="6.37343">
        <ele>264.3</ele>
        <time>2019-08-17T10:10:03Z</time>
      </trkpt>
      <trkpt lat="47.34156" lon="6.37339">
        <ele>264.3</ele>
        <time>2019-08-17T10:10:04Z</time>
      </trkpt>
      <trkpt lat="47.34152" lon="6.37334">
        <ele>264.3</ele>
        <time>2019-08-17T10:10:06Z</time>
      </trkpt>
      <trkpt lat="47.3415" lon="6.37331">
        <ele>264.4</ele>
        <time>2019-08-17T10:10:07Z</time>
      </trkpt>
      <trkpt lat="47.34148" lon="6.37328">
        <ele>264.4</ele>
        <time>2019-08-17T10:10:08Z</time>
      </trkpt>
      <trkpt lat="47.34146" lon="6.37324">
        <ele>264.4</ele>
        <time>2019-08-17T10:10:10Z</time>
      </trkpt>
      <trkpt lat="47.34144" lon="6.3732">
        <ele>265.7</ele>
        <time>2019-08-17T10:10:12Z</time>
      </trkpt>
      <trkpt lat="47.34141" lon="6.37312">
        <ele>267.8</ele>
        <time>2019-08-17T10:10:14Z</time>
      </trkpt>
      <trkpt lat="47.3414" lon="6.37308">
        <ele>268.8</ele>
        <time>2019-08-17T10:10:15Z</time>
      </trkpt>
      <trkpt lat="47.34138" lon="6.37301">
        <ele>270.8</ele>
        <time>2019-08-17T10:10:17Z</time>
      </trkpt>
      <trkpt lat="47.34136" lon="6.37297">
        <ele>271.9</ele>
        <time>2019-08-17T10:10:18Z</time>
      </trkpt>
      <trkpt lat="47.34134" lon="6.37294">
        <ele>273</ele>
        <time>2019-08-17T10:10:19Z</time>
      </trkpt>
      <trkpt lat="47.34133" lon="6.37289">
        <ele>274.3</ele>
        <time>2019-08-17T10:10:20Z</time>
      </trkpt>
      <trkpt lat="47.3413" lon="6.37284">
        <ele>275.7</ele>
        <time>2019-08-17T10:10:21Z</time>
      </trkpt>
      <trkpt lat="47.34128" lon="6.37279">
        <ele>277.5</ele>
        <time>2019-08-17T10:10:22Z</time>
      </trkpt>
      <trkpt lat="47.34126" lon="6.37274">
        <ele>279.3</ele>
        <time>2019-08-17T10:10:23Z</time>
      </trkpt>
      <trkpt lat="47.34125" lon="6.37269">
        <ele>280.9</ele>
        <time>2019-08-17T10:10:24Z</time>
      </trkpt>
      <trkpt lat="47.34124" lon="6.37264">
        <ele>281.2</ele>
        <time>2019-08-17T10:10:25Z</time>
      </trkpt>
      <trkpt lat="47.34124" lon="6.3726">
        <ele>280.3</ele>
        <time>2019-08-17T10:10:26Z</time>
      </trkpt>
      <trkpt lat="47.34126" lon="6.37256">
        <ele>279.7</ele>
        <time>2019-08-17T10:10:27Z</time>
      </trkpt>
      <trkpt lat="47.34127" lon="6.37251">
        <ele>278.9</ele>
        <time>2019-08-17T10:10:28Z</time>
      </trkpt>
      <trkpt lat="47.34127" lon="6.37245">
        <ele>278.1</ele>
        <time>2019-08-17T10:10:29Z</time>
      </trkpt>
      <trkpt lat="47.34128" lon="6.37239">
        <ele>277.4</ele>
        <time>2019-08-17T10:10:30Z</time>
      </trkpt>
      <trkpt lat="47.34129" lon="6.37233">
        <ele>276.7</ele>
        <time>2019-08-17T10:10:31Z</time>
      </trkpt>
      <trkpt lat="47.3413" lon="6.37227">
        <ele>276.1</ele>
        <time>2019-08-17T10:10:32Z</time>
      </trkpt>
      <trkpt lat="47.34131" lon="6.37221">
        <ele>275.2</ele>
        <time>2019-08-17T10:10:33Z</time>
      </trkpt>
      <trkpt lat="47.34132" lon="6.37214">
        <ele>274</ele>
        <time>2019-08-17T10:10:34Z</time>
      </trkpt>
      <trkpt lat="47.34132" lon="6.37207">
        <ele>273.1</ele>
        <time>2019-08-17T10:10:35Z</time>
      </trkpt>
      <trkpt lat="47.34132" lon="6.37201">
        <ele>272.4</ele>
        <time>2019-08-17T10:10:36Z</time>
      </trkpt>
      <trkpt lat="47.34132" lon="6.37193">
        <ele>271.5</ele>
        <time>2019-08-17T10:10:37Z</time>
      </trkpt>
      <trkpt lat="47.34131" lon="6.37189">
        <ele>271</ele>
        <time>2019-08-17T10:10:38Z</time>
      </trkpt>
      <trkpt lat="47.34131" lon="6.37183">
        <ele>270.1</ele>
        <time>2019-08-17T10:10:39Z</time>
      </trkpt>
      <trkpt lat="47.34129" lon="6.37176">
        <ele>268.9</ele>
        <time>2019-08-17T10:10:40Z</time>
      </trkpt>
      <trkpt lat="47.34128" lon="6.37169">
        <ele>269</ele>
        <time>2019-08-17T10:10:41Z</time>
      </trkpt>
      <trkpt lat="47.34127" lon="6.37161">
        <ele>269.1</ele>
        <time>2019-08-17T10:10:42Z</time>
      </trkpt>
      <trkpt lat="47.34126" lon="6.37152">
        <ele>269.2</ele>
        <time>2019-08-17T10:10:43Z</time>
      </trkpt>
      <trkpt lat="47.34125" lon="6.37144">
        <ele>269.4</ele>
        <time>2019-08-17T10:10:44Z</time>
      </trkpt>
      <trkpt lat="47.34124" lon="6.37136">
        <ele>269.5</ele>
        <time>2019-08-17T10:10:45Z</time>
      </trkpt>
      <trkpt lat="47.34123" lon="6.37129">
        <ele>269.7</ele>
        <time>2019-08-17T10:10:46Z</time>
      </trkpt>
      <trkpt lat="47.34122" lon="6.37122">
        <ele>269.8</ele>
        <time>2019-08-17T10:10:47Z</time>
      </trkpt>
      <trkpt lat="47.34123" lon="6.37115">
        <ele>270</ele>
        <time>2019-08-17T10:10:48Z</time>
      </trkpt>
      <trkpt lat="47.34122" lon="6.37108">
        <ele>270.2</ele>
        <time>2019-08-17T10:10:49Z</time>
      </trkpt>
      <trkpt lat="47.34122" lon="6.371">
        <ele>270.4</ele>
        <time>2019-08-17T10:10:50Z</time>
      </trkpt>
      <trkpt lat="47.34121" lon="6.37092">
        <ele>270.6</ele>
        <time>2019-08-17T10:10:51Z</time>
      </trkpt>
      <trkpt lat="47.3412" lon="6.37084">
        <ele>270.7</ele>
        <time>2019-08-17T10:10:52Z</time>
      </trkpt>
      <trkpt lat="47.3412" lon="6.37076">
        <ele>270.8</ele>
        <time>2019-08-17T10:10:53Z</time>
      </trkpt>
      <trkpt lat="47.34119" lon="6.37068">
        <ele>270.9</ele>
        <time>2019-08-17T10:10:54Z</time>
      </trkpt>
      <trkpt lat="47.34119" lon="6.3706">
        <ele>271</ele>
        <time>2019-08-17T10:10:55Z</time>
      </trkpt>
      <trkpt lat="47.34119" lon="6.37051">
        <ele>271.1</ele>
        <time>2019-08-17T10:10:56Z</time>
      </trkpt>
      <trkpt lat="47.34119" lon="6.37044">
        <ele>271.2</ele>
        <time>2019-08-17T10:10:57Z</time>
      </trkpt>
      <trkpt lat="47.34118" lon="6.37036">
        <ele>271.2</ele>
        <time>2019-08-17T10:10:58Z</time>
      </trkpt>
      <trkpt lat="47.34118" lon="6.3703">
        <ele>271.3</ele>
        <time>2019-08-17T10:10:59Z</time>
      </trkpt>
      <trkpt lat="47.34119" lon="6.37022">
        <ele>271.4</ele>
        <time>2019-08-17T10:11:00Z</time>
      </trkpt>
      <trkpt lat="47.34119" lon="6.37014">
        <ele>271.6</ele>
        <time>2019-08-17T10:11:01Z</time>
      </trkpt>
      <trkpt lat="47.34119" lon="6.37006">
        <ele>271.7</ele>
        <time>2019-08-17T10:11:02Z</time>
      </trkpt>
      <trkpt lat="47.34118" lon="6.36998">
        <ele>271.8</ele>
        <time>2019-08-17T10:11:03Z</time>
      </trkpt>
      <trkpt lat="47.34119" lon="6.36991">
        <ele>272</ele>
        <time>2019-08-17T10:11:04Z</time>
      </trkpt>
      <trkpt lat="47.34118" lon="6.36983">
        <ele>272.1</ele>
        <time>2019-08-17T10:11:05Z</time>
      </trkpt>
      <trkpt lat="47.34118" lon="6.36975">
        <ele>272.3</ele>
        <time>2019-08-17T10:11:06Z</time>
      </trkpt>
      <trkpt lat="47.34117" lon="6.36968">
        <ele>272.4</ele>
        <time>2019-08-17T10:11:07Z</time>
      </trkpt>
      <trkpt lat="47.34117" lon="6.3696">
        <ele>272.6</ele>
        <time>2019-08-17T10:11:08Z</time>
      </trkpt>
      <trkpt lat="47.34116" lon="6.36952">
        <ele>272.7</ele>
        <time>2019-08-17T10:11:09Z</time>
      </trkpt>
      <trkpt lat="47.34116" lon="6.36944">
        <ele>272.8</ele>
        <time>2019-08-17T10:11:10Z</time>
      </trkpt>
      <trkpt lat="47.34116" lon="6.36938">
        <ele>272.9</ele>
        <time>2019-08-17T10:11:11Z</time>
      </trkpt>
      <trkpt lat="47.34117" lon="6.3693">
        <ele>272.9</ele>
        <time>2019-08-17T10:11:12Z</time>
      </trkpt>
      <trkpt lat="47.34117" lon="6.36922">
        <ele>273</ele>
        <time>2019-08-17T10:11:13Z</time>
      </trkpt>
      <trkpt lat="47.34117" lon="6.36914">
        <ele>273</ele>
        <time>2019-08-17T10:11:14Z</time>
      </trkpt>
      <trkpt lat="47.34117" lon="6.36907">
        <ele>272.9</ele>
        <time>2019-08-17T10:11:15Z</time>
      </trkpt>
      <trkpt lat="47.34116" lon="6.369">
        <ele>272.8</ele>
        <time>2019-08-17T10:11:16Z</time>
      </trkpt>
      <trkpt lat="47.34115" lon="6.36892">
        <ele>272.7</ele>
        <time>2019-08-17T10:11:17Z</time>
      </trkpt>
      <trkpt lat="47.34114" lon="6.36885">
        <ele>272.6</ele>
        <time>2019-08-17T10:11:18Z</time>
      </trkpt>
      <trkpt lat="47.34113" lon="6.36878">
        <ele>272.5</ele>
        <time>2019-08-17T10:11:19Z</time>
      </trkpt>
      <trkpt lat="47.34112" lon="6.36871">
        <ele>272.3</ele>
        <time>2019-08-17T10:11:20Z</time>
      </trkpt>
      <trkpt lat="47.34112" lon="6.36863">
        <ele>272.2</ele>
        <time>2019-08-17T10:11:21Z</time>
      </trkpt>
      <trkpt lat="47.34112" lon="6.36854">
        <ele>272.1</ele>
        <time>2019-08-17T10:11:22Z</time>
      </trkpt>
      <trkpt lat="47.34112" lon="6.36846">
        <ele>272.1</ele>
        <time>2019-08-17T10:11:23Z</time>
      </trkpt>
      <trkpt lat="47.34113" lon="6.36839">
        <ele>272</ele>
        <time>2019-08-17T10:11:24Z</time>
      </trkpt>
      <trkpt lat="47.34112" lon="6.36831">
        <ele>272</ele>
        <time>2019-08-17T10:11:25Z</time>
      </trkpt>
      <trkpt lat="47.34112" lon="6.36825">
        <ele>271.9</ele>
        <time>2019-08-17T10:11:26Z</time>
      </trkpt>
      <trkpt lat="47.34111" lon="6.36818">
        <ele>271.9</ele>
        <time>2019-08-17T10:11:27Z</time>
      </trkpt>
      <trkpt lat="47.3411" lon="6.36811">
        <ele>271.9</ele>
        <time>2019-08-17T10:11:28Z</time>
      </trkpt>
      <trkpt lat="47.34109" lon="6.36803">
        <ele>271.8</ele>
        <time>2019-08-17T10:11:29Z</time>
      </trkpt>
      <trkpt lat="47.34109" lon="6.36796">
        <ele>271.7</ele>
        <time>2019-08-17T10:11:30Z</time>
      </trkpt>
      <trkpt lat="47.34108" lon="6.36789">
        <ele>271.6</ele>
        <time>2019-08-17T10:11:31Z</time>
      </trkpt>
      <trkpt lat="47.34106" lon="6.36782">
        <ele>271.5</ele>
        <time>2019-08-17T10:11:32Z</time>
      </trkpt>
      <trkpt lat="47.34105" lon="6.36775">
        <ele>271.4</ele>
        <time>2019-08-17T10:11:33Z</time>
      </trkpt>
      <trkpt lat="47.34106" lon="6.36768">
        <ele>271.3</ele>
        <time>2019-08-17T10:11:34Z</time>
      </trkpt>
      <trkpt lat="47.34106" lon="6.36761">
        <ele>271.2</ele>
        <time>2019-08-17T10:11:35Z</time>
      </trkpt>
      <trkpt lat="47.34106" lon="6.36755">
        <ele>271.2</ele>
        <time>2019-08-17T10:11:36Z</time>
      </trkpt>
      <trkpt lat="47.34106" lon="6.36749">
        <ele>271.1</ele>
        <time>2019-08-17T10:11:37Z</time>
      </trkpt>
      <trkpt lat="47.34106" lon="6.36742">
        <ele>271.1</ele>
        <time>2019-08-17T10:11:38Z</time>
      </trkpt>
      <trkpt lat="47.34106" lon="6.36737">
        <ele>271.1</ele>
        <time>2019-08-17T10:11:39Z</time>
      </trkpt>
      <trkpt lat="47.34106" lon="6.36731">
        <ele>271.1</ele>
        <time>2019-08-17T10:11:40Z</time>
      </trkpt>
      <trkpt lat="47.34106" lon="6.36725">
        <ele>271.1</ele>
        <time>2019-08-17T10:11:41Z</time>
      </trkpt>
      <trkpt lat="47.34106" lon="6.36719">
        <ele>271</ele>
        <time>2019-08-17T10:11:42Z</time>
      </trkpt>
      <trkpt lat="47.34106" lon="6.36713">
        <ele>271</ele>
        <time>2019-08-17T10:11:43Z</time>
      </trkpt>
      <trkpt lat="47.34107" lon="6.36706">
        <ele>271</ele>
        <time>2019-08-17T10:11:44Z</time>
      </trkpt>
      <trkpt lat="47.34107" lon="6.36701">
        <ele>271</ele>
        <time>2019-08-17T10:11:45Z</time>
      </trkpt>
      <trkpt lat="47.34108" lon="6.36694">
        <ele>271</ele>
        <time>2019-08-17T10:11:46Z</time>
      </trkpt>
      <trkpt lat="47.34108" lon="6.36687">
        <ele>271</ele>
        <time>2019-08-17T10:11:47Z</time>
      </trkpt>
      <trkpt lat="47.34108" lon="6.3668">
        <ele>271</ele>
        <time>2019-08-17T10:11:48Z</time>
      </trkpt>
      <trkpt lat="47.34108" lon="6.36673">
        <ele>271</ele>
        <time>2019-08-17T10:11:49Z</time>
      </trkpt>
      <trkpt lat="47.34108" lon="6.36666">
        <ele>271</ele>
        <time>2019-08-17T10:11:50Z</time>
      </trkpt>
      <trkpt lat="47.34108" lon="6.36658">
        <ele>271</ele>
        <time>2019-08-17T10:11:51Z</time>
      </trkpt>
      <trkpt lat="47.34108" lon="6.3665">
        <ele>271</ele>
        <time>2019-08-17T10:11:52Z</time>
      </trkpt>
      <trkpt lat="47.34109" lon="6.36642">
        <ele>271</ele>
        <time>2019-08-17T10:11:53Z</time>
      </trkpt>
      <trkpt lat="47.34109" lon="6.36634">
        <ele>271</ele>
        <time>2019-08-17T10:11:54Z</time>
      </trkpt>
      <trkpt lat="47.34109" lon="6.36626">
        <ele>270.9</ele>
        <time>2019-08-17T10:11:55Z</time>
      </trkpt>
      <trkpt lat="47.3411" lon="6.3662">
        <ele>270.8</ele>
        <time>2019-08-17T10:11:56Z</time>
      </trkpt>
      <trkpt lat="47.34112" lon="6.36613">
        <ele>270.7</ele>
        <time>2019-08-17T10:11:57Z</time>
      </trkpt>
      <trkpt lat="47.34113" lon="6.36607">
        <ele>270.6</ele>
        <time>2019-08-17T10:11:58Z</time>
      </trkpt>
      <trkpt lat="47.34115" lon="6.366">
        <ele>270.6</ele>
        <time>2019-08-17T10:11:59Z</time>
      </trkpt>
      <trkpt lat="47.34117" lon="6.36594">
        <ele>270.5</ele>
        <time>2019-08-17T10:12:00Z</time>
      </trkpt>
      <trkpt lat="47.34119" lon="6.36588">
        <ele>270.4</ele>
        <time>2019-08-17T10:12:01Z</time>
      </trkpt>
      <trkpt lat="47.34121" lon="6.36582">
        <ele>270.4</ele>
        <time>2019-08-17T10:12:02Z</time>
      </trkpt>
      <trkpt lat="47.34123" lon="6.36574">
        <ele>270.3</ele>
        <time>2019-08-17T10:12:03Z</time>
      </trkpt>
      <trkpt lat="47.34125" lon="6.36566">
        <ele>270.3</ele>
        <time>2019-08-17T10:12:04Z</time>
      </trkpt>
      <trkpt lat="47.34126" lon="6.36558">
        <ele>270.3</ele>
        <time>2019-08-17T10:12:05Z</time>
      </trkpt>
      <trkpt lat="47.34127" lon="6.36551">
        <ele>270.2</ele>
        <time>2019-08-17T10:12:06Z</time>
      </trkpt>
      <trkpt lat="47.34128" lon="6.36543">
        <ele>270.2</ele>
        <time>2019-08-17T10:12:07Z</time>
      </trkpt>
      <trkpt lat="47.34128" lon="6.36535">
        <ele>270.3</ele>
        <time>2019-08-17T10:12:08Z</time>
      </trkpt>
      <trkpt lat="47.34129" lon="6.36528">
        <ele>270.3</ele>
        <time>2019-08-17T10:12:09Z</time>
      </trkpt>
      <trkpt lat="47.3413" lon="6.3652">
        <ele>270.3</ele>
        <time>2019-08-17T10:12:10Z</time>
      </trkpt>
      <trkpt lat="47.3413" lon="6.36512">
        <ele>270.4</ele>
        <time>2019-08-17T10:12:11Z</time>
      </trkpt>
      <trkpt lat="47.3413" lon="6.36503">
        <ele>270.4</ele>
        <time>2019-08-17T10:12:12Z</time>
      </trkpt>
      <trkpt lat="47.34131" lon="6.36494">
        <ele>270.4</ele>
        <time>2019-08-17T10:12:13Z</time>
      </trkpt>
      <trkpt lat="47.34133" lon="6.36486">
        <ele>270.5</ele>
        <time>2019-08-17T10:12:14Z</time>
      </trkpt>
      <trkpt lat="47.34135" lon="6.36478">
        <ele>270.5</ele>
        <time>2019-08-17T10:12:15Z</time>
      </trkpt>
      <trkpt lat="47.34137" lon="6.3647">
        <ele>270.5</ele>
        <time>2019-08-17T10:12:16Z</time>
      </trkpt>
      <trkpt lat="47.34138" lon="6.36461">
        <ele>270.5</ele>
        <time>2019-08-17T10:12:17Z</time>
      </trkpt>
      <trkpt lat="47.3414" lon="6.36453">
        <ele>270.5</ele>
        <time>2019-08-17T10:12:18Z</time>
      </trkpt>
      <trkpt lat="47.34142" lon="6.36445">
        <ele>270.5</ele>
        <time>2019-08-17T10:12:19Z</time>
      </trkpt>
      <trkpt lat="47.34144" lon="6.36437">
        <ele>270.4</ele>
        <time>2019-08-17T10:12:20Z</time>
      </trkpt>
      <trkpt lat="47.34146" lon="6.3643">
        <ele>270.4</ele>
        <time>2019-08-17T10:12:21Z</time>
      </trkpt>
      <trkpt lat="47.34148" lon="6.36422">
        <ele>270.3</ele>
        <time>2019-08-17T10:12:22Z</time>
      </trkpt>
      <trkpt lat="47.34148" lon="6.36414">
        <ele>270.2</ele>
        <time>2019-08-17T10:12:23Z</time>
      </trkpt>
      <trkpt lat="47.34149" lon="6.36406">
        <ele>270.1</ele>
        <time>2019-08-17T10:12:24Z</time>
      </trkpt>
      <trkpt lat="47.3415" lon="6.36397">
        <ele>270</ele>
        <time>2019-08-17T10:12:25Z</time>
      </trkpt>
      <trkpt lat="47.34151" lon="6.36389">
        <ele>269.9</ele>
        <time>2019-08-17T10:12:26Z</time>
      </trkpt>
      <trkpt lat="47.34152" lon="6.36381">
        <ele>269.7</ele>
        <time>2019-08-17T10:12:27Z</time>
      </trkpt>
      <trkpt lat="47.34154" lon="6.36372">
        <ele>269.6</ele>
        <time>2019-08-17T10:12:28Z</time>
      </trkpt>
      <trkpt lat="47.34156" lon="6.36365">
        <ele>269.4</ele>
        <time>2019-08-17T10:12:29Z</time>
      </trkpt>
      <trkpt lat="47.34157" lon="6.36357">
        <ele>269.3</ele>
        <time>2019-08-17T10:12:30Z</time>
      </trkpt>
      <trkpt lat="47.34159" lon="6.36349">
        <ele>269.1</ele>
        <time>2019-08-17T10:12:31Z</time>
      </trkpt>
      <trkpt lat="47.3416" lon="6.36342">
        <ele>269.1</ele>
        <time>2019-08-17T10:12:32Z</time>
      </trkpt>
      <trkpt lat="47.34161" lon="6.36335">
        <ele>269</ele>
        <time>2019-08-17T10:12:33Z</time>
      </trkpt>
      <trkpt lat="47.34162" lon="6.36327">
        <ele>268.9</ele>
        <time>2019-08-17T10:12:34Z</time>
      </trkpt>
      <trkpt lat="47.34163" lon="6.36319">
        <ele>268.7</ele>
        <time>2019-08-17T10:12:35Z</time>
      </trkpt>
      <trkpt lat="47.34163" lon="6.36312">
        <ele>268.6</ele>
        <time>2019-08-17T10:12:36Z</time>
      </trkpt>
      <trkpt lat="47.34163" lon="6.36304">
        <ele>268.4</ele>
        <time>2019-08-17T10:12:37Z</time>
      </trkpt>
      <trkpt lat="47.34164" lon="6.36296">
        <ele>268.3</ele>
        <time>2019-08-17T10:12:38Z</time>
      </trkpt>
      <trkpt lat="47.34164" lon="6.36287">
        <ele>268.1</ele>
        <time>2019-08-17T10:12:39Z</time>
      </trkpt>
      <trkpt lat="47.34165" lon="6.3628">
        <ele>268</ele>
        <time>2019-08-17T10:12:40Z</time>
      </trkpt>
      <trkpt lat="47.34166" lon="6.36272">
        <ele>267.7</ele>
        <time>2019-08-17T10:12:41Z</time>
      </trkpt>
      <trkpt lat="47.34168" lon="6.36264">
        <ele>267.2</ele>
        <time>2019-08-17T10:12:42Z</time>
      </trkpt>
      <trkpt lat="47.34169" lon="6.36256">
        <ele>267</ele>
        <time>2019-08-17T10:12:43Z</time>
      </trkpt>
      <trkpt lat="47.34171" lon="6.36248">
        <ele>266.7</ele>
        <time>2019-08-17T10:12:44Z</time>
      </trkpt>
      <trkpt lat="47.34172" lon="6.36241">
        <ele>266.5</ele>
        <time>2019-08-17T10:12:45Z</time>
      </trkpt>
      <trkpt lat="47.34173" lon="6.36233">
        <ele>266.3</ele>
        <time>2019-08-17T10:12:46Z</time>
      </trkpt>
      <trkpt lat="47.34174" lon="6.36226">
        <ele>266.1</ele>
        <time>2019-08-17T10:12:47Z</time>
      </trkpt>
      <trkpt lat="47.34176" lon="6.36218">
        <ele>265.7</ele>
        <time>2019-08-17T10:12:48Z</time>
      </trkpt>
      <trkpt lat="47.34177" lon="6.36212">
        <ele>265.6</ele>
        <time>2019-08-17T10:12:49Z</time>
      </trkpt>
      <trkpt lat="47.34179" lon="6.36207">
        <ele>265.5</ele>
        <time>2019-08-17T10:12:50Z</time>
      </trkpt>
      <trkpt lat="47.34181" lon="6.36202">
        <ele>265.4</ele>
        <time>2019-08-17T10:12:51Z</time>
      </trkpt>
      <trkpt lat="47.34182" lon="6.36197">
        <ele>265.4</ele>
        <time>2019-08-17T10:12:52Z</time>
      </trkpt>
      <trkpt lat="47.34183" lon="6.36192">
        <ele>265.3</ele>
        <time>2019-08-17T10:12:53Z</time>
      </trkpt>
      <trkpt lat="47.34184" lon="6.36187">
        <ele>265.2</ele>
        <time>2019-08-17T10:12:54Z</time>
      </trkpt>
      <trkpt lat="47.34186" lon="6.36182">
        <ele>265.2</ele>
        <time>2019-08-17T10:12:55Z</time>
      </trkpt>
      <trkpt lat="47.34188" lon="6.36176">
        <ele>265.1</ele>
        <time>2019-08-17T10:12:56Z</time>
      </trkpt>
      <trkpt lat="47.3419" lon="6.36172">
        <ele>265</ele>
        <time>2019-08-17T10:12:57Z</time>
      </trkpt>
      <trkpt lat="47.34193" lon="6.36167">
        <ele>265</ele>
        <time>2019-08-17T10:12:58Z</time>
      </trkpt>
      <trkpt lat="47.34194" lon="6.36163">
        <ele>265</ele>
        <time>2019-08-17T10:12:59Z</time>
      </trkpt>
      <trkpt lat="47.34196" lon="6.36159">
        <ele>265.1</ele>
        <time>2019-08-17T10:13:00Z</time>
      </trkpt>
      <trkpt lat="47.34198" lon="6.36153">
        <ele>265.1</ele>
        <time>2019-08-17T10:13:01Z</time>
      </trkpt>
      <trkpt lat="47.34199" lon="6.36149">
        <ele>265.1</ele>
        <time>2019-08-17T10:13:02Z</time>
      </trkpt>
      <trkpt lat="47.34198" lon="6.36145">
        <ele>265.1</ele>
        <time>2019-08-17T10:13:03Z</time>
      </trkpt>
      <trkpt lat="47.34195" lon="6.36139">
        <ele>265.2</ele>
        <time>2019-08-17T10:13:05Z</time>
      </trkpt>
      <trkpt lat="47.34193" lon="6.36132">
        <ele>265.2</ele>
        <time>2019-08-17T10:13:07Z</time>
      </trkpt>
      <trkpt lat="47.34193" lon="6.36126">
        <ele>265.2</ele>
        <time>2019-08-17T10:13:09Z</time>
      </trkpt>
      <trkpt lat="47.34193" lon="6.3612">
        <ele>265.3</ele>
        <time>2019-08-17T10:13:11Z</time>
      </trkpt>
      <trkpt lat="47.34193" lon="6.36116">
        <ele>265.4</ele>
        <time>2019-08-17T10:13:12Z</time>
      </trkpt>
      <trkpt lat="47.34194" lon="6.36111">
        <ele>265.4</ele>
        <time>2019-08-17T10:13:13Z</time>
      </trkpt>
      <trkpt lat="47.34194" lon="6.36107">
        <ele>265.5</ele>
        <time>2019-08-17T10:13:14Z</time>
      </trkpt>
      <trkpt lat="47.34194" lon="6.36103">
        <ele>265.5</ele>
        <time>2019-08-17T10:13:15Z</time>
      </trkpt>
      <trkpt lat="47.34193" lon="6.36098">
        <ele>265.5</ele>
        <time>2019-08-17T10:13:16Z</time>
      </trkpt>
      <trkpt lat="47.34191" lon="6.36094">
        <ele>265.5</ele>
        <time>2019-08-17T10:13:17Z</time>
      </trkpt>
      <trkpt lat="47.3419" lon="6.36088">
        <ele>265.4</ele>
        <time>2019-08-17T10:13:18Z</time>
      </trkpt>
      <trkpt lat="47.34189" lon="6.36084">
        <ele>265.4</ele>
        <time>2019-08-17T10:13:19Z</time>
      </trkpt>
      <trkpt lat="47.34188" lon="6.3608">
        <ele>265.4</ele>
        <time>2019-08-17T10:13:20Z</time>
      </trkpt>
      <trkpt lat="47.34187" lon="6.36076">
        <ele>265.3</ele>
        <time>2019-08-17T10:13:21Z</time>
      </trkpt>
      <trkpt lat="47.34185" lon="6.3607">
        <ele>265.3</ele>
        <time>2019-08-17T10:13:23Z</time>
      </trkpt>
      <trkpt lat="47.34184" lon="6.36066">
        <ele>265.3</ele>
        <time>2019-08-17T10:13:24Z</time>
      </trkpt>
      <trkpt lat="47.34181" lon="6.36061">
        <ele>265.4</ele>
        <time>2019-08-17T10:13:26Z</time>
      </trkpt>
      <trkpt lat="47.34183" lon="6.36053">
        <ele>265.4</ele>
        <time>2019-08-17T10:14:11Z</time>
      </trkpt>
      <trkpt lat="47.34187" lon="6.3605">
        <ele>265</ele>
        <time>2019-08-17T10:14:13Z</time>
      </trkpt>
      <trkpt lat="47.34189" lon="6.36047">
        <ele>265</ele>
        <time>2019-08-17T10:14:14Z</time>
      </trkpt>
      <trkpt lat="47.34193" lon="6.36043">
        <ele>264.9</ele>
        <time>2019-08-17T10:14:16Z</time>
      </trkpt>
      <trkpt lat="47.34198" lon="6.36038">
        <ele>264.8</ele>
        <time>2019-08-17T10:14:18Z</time>
      </trkpt>
      <trkpt lat="47.342" lon="6.36035">
        <ele>264.8</ele>
        <time>2019-08-17T10:14:19Z</time>
      </trkpt>
      <trkpt lat="47.34201" lon="6.36032">
        <ele>264.7</ele>
        <time>2019-08-17T10:14:20Z</time>
      </trkpt>
      <trkpt lat="47.34202" lon="6.36027">
        <ele>264.7</ele>
        <time>2019-08-17T10:14:21Z</time>
      </trkpt>
      <trkpt lat="47.34203" lon="6.36021">
        <ele>264.6</ele>
        <time>2019-08-17T10:14:22Z</time>
      </trkpt>
      <trkpt lat="47.34203" lon="6.36015">
        <ele>264.3</ele>
        <time>2019-08-17T10:14:23Z</time>
      </trkpt>
      <trkpt lat="47.34201" lon="6.3601">
        <ele>264.2</ele>
        <time>2019-08-17T10:14:24Z</time>
      </trkpt>
      <trkpt lat="47.342" lon="6.36003">
        <ele>264.1</ele>
        <time>2019-08-17T10:14:25Z</time>
      </trkpt>
      <trkpt lat="47.34198" lon="6.35999">
        <ele>264</ele>
        <time>2019-08-17T10:14:26Z</time>
      </trkpt>
      <trkpt lat="47.34196" lon="6.35993">
        <ele>264</ele>
        <time>2019-08-17T10:14:27Z</time>
      </trkpt>
      <trkpt lat="47.34195" lon="6.35988">
        <ele>264</ele>
        <time>2019-08-17T10:14:28Z</time>
      </trkpt>
      <trkpt lat="47.34193" lon="6.35983">
        <ele>264.1</ele>
        <time>2019-08-17T10:14:29Z</time>
      </trkpt>
      <trkpt lat="47.34192" lon="6.35977">
        <ele>264.1</ele>
        <time>2019-08-17T10:14:30Z</time>
      </trkpt>
      <trkpt lat="47.3419" lon="6.35971">
        <ele>264.1</ele>
        <time>2019-08-17T10:14:31Z</time>
      </trkpt>
      <trkpt lat="47.34188" lon="6.35965">
        <ele>264.2</ele>
        <time>2019-08-17T10:14:32Z</time>
      </trkpt>
      <trkpt lat="47.34187" lon="6.35959">
        <ele>264.2</ele>
        <time>2019-08-17T10:14:33Z</time>
      </trkpt>
      <trkpt lat="47.34185" lon="6.35953">
        <ele>264.2</ele>
        <time>2019-08-17T10:14:34Z</time>
      </trkpt>
      <trkpt lat="47.34184" lon="6.35948">
        <ele>264.2</ele>
        <time>2019-08-17T10:14:35Z</time>
      </trkpt>
      <trkpt lat="47.34183" lon="6.35944">
        <ele>264.2</ele>
        <time>2019-08-17T10:14:36Z</time>
      </trkpt>
      <trkpt lat="47.34182" lon="6.35939">
        <ele>264.2</ele>
        <time>2019-08-17T10:14:37Z</time>
      </trkpt>
      <trkpt lat="47.34181" lon="6.35934">
        <ele>264.2</ele>
        <time>2019-08-17T10:14:38Z</time>
      </trkpt>
      <trkpt lat="47.3418" lon="6.3593">
        <ele>264.2</ele>
        <time>2019-08-17T10:14:39Z</time>
      </trkpt>
      <trkpt lat="47.34178" lon="6.35925">
        <ele>264.2</ele>
        <time>2019-08-17T10:14:40Z</time>
      </trkpt>
      <trkpt lat="47.34175" lon="6.3592">
        <ele>264.2</ele>
        <time>2019-08-17T10:14:41Z</time>
      </trkpt>
      <trkpt lat="47.34173" lon="6.35913">
        <ele>264.2</ele>
        <time>2019-08-17T10:14:42Z</time>
      </trkpt>
      <trkpt lat="47.3417" lon="6.35908">
        <ele>264.2</ele>
        <time>2019-08-17T10:14:43Z</time>
      </trkpt>
      <trkpt lat="47.34167" lon="6.35903">
        <ele>264.2</ele>
        <time>2019-08-17T10:14:44Z</time>
      </trkpt>
      <trkpt lat="47.34165" lon="6.35898">
        <ele>264.2</ele>
        <time>2019-08-17T10:14:45Z</time>
      </trkpt>
      <trkpt lat="47.34162" lon="6.35892">
        <ele>264.3</ele>
        <time>2019-08-17T10:14:46Z</time>
      </trkpt>
      <trkpt lat="47.34159" lon="6.35886">
        <ele>264.3</ele>
        <time>2019-08-17T10:14:47Z</time>
      </trkpt>
      <trkpt lat="47.34156" lon="6.35881">
        <ele>264.4</ele>
        <time>2019-08-17T10:14:48Z</time>
      </trkpt>
      <trkpt lat="47.34153" lon="6.35876">
        <ele>264.4</ele>
        <time>2019-08-17T10:14:49Z</time>
      </trkpt>
      <trkpt lat="47.34151" lon="6.35871">
        <ele>264.4</ele>
        <time>2019-08-17T10:14:50Z</time>
      </trkpt>
      <trkpt lat="47.34148" lon="6.35866">
        <ele>264.4</ele>
        <time>2019-08-17T10:14:51Z</time>
      </trkpt>
      <trkpt lat="47.34145" lon="6.35861">
        <ele>264.4</ele>
        <time>2019-08-17T10:14:52Z</time>
      </trkpt>
      <trkpt lat="47.34143" lon="6.35856">
        <ele>264.3</ele>
        <time>2019-08-17T10:14:53Z</time>
      </trkpt>
      <trkpt lat="47.34141" lon="6.3585">
        <ele>264.3</ele>
        <time>2019-08-17T10:14:54Z</time>
      </trkpt>
      <trkpt lat="47.34139" lon="6.35844">
        <ele>264.2</ele>
        <time>2019-08-17T10:14:55Z</time>
      </trkpt>
      <trkpt lat="47.34138" lon="6.3584">
        <ele>264.2</ele>
        <time>2019-08-17T10:14:56Z</time>
      </trkpt>
      <trkpt lat="47.34137" lon="6.35833">
        <ele>264.1</ele>
        <time>2019-08-17T10:14:57Z</time>
      </trkpt>
      <trkpt lat="47.34135" lon="6.35828">
        <ele>264.1</ele>
        <time>2019-08-17T10:14:58Z</time>
      </trkpt>
      <trkpt lat="47.34132" lon="6.35823">
        <ele>264.1</ele>
        <time>2019-08-17T10:14:59Z</time>
      </trkpt>
      <trkpt lat="47.3413" lon="6.35817">
        <ele>264</ele>
        <time>2019-08-17T10:15:00Z</time>
      </trkpt>
      <trkpt lat="47.34128" lon="6.35812">
        <ele>264</ele>
        <time>2019-08-17T10:15:01Z</time>
      </trkpt>
      <trkpt lat="47.34127" lon="6.35806">
        <ele>264</ele>
        <time>2019-08-17T10:15:02Z</time>
      </trkpt>
      <trkpt lat="47.34125" lon="6.358">
        <ele>263.9</ele>
        <time>2019-08-17T10:15:03Z</time>
      </trkpt>
      <trkpt lat="47.34123" lon="6.35795">
        <ele>263.9</ele>
        <time>2019-08-17T10:15:04Z</time>
      </trkpt>
      <trkpt lat="47.34121" lon="6.35789">
        <ele>263.9</ele>
        <time>2019-08-17T10:15:05Z</time>
      </trkpt>
      <trkpt lat="47.34119" lon="6.35783">
        <ele>263.8</ele>
        <time>2019-08-17T10:15:06Z</time>
      </trkpt>
      <trkpt lat="47.34117" lon="6.35776">
        <ele>263.7</ele>
        <time>2019-08-17T10:15:07Z</time>
      </trkpt>
      <trkpt lat="47.34115" lon="6.3577">
        <ele>263.7</ele>
        <time>2019-08-17T10:15:08Z</time>
      </trkpt>
      <trkpt lat="47.34113" lon="6.35763">
        <ele>263.6</ele>
        <time>2019-08-17T10:15:09Z</time>
      </trkpt>
      <trkpt lat="47.34111" lon="6.35756">
        <ele>263.5</ele>
        <time>2019-08-17T10:15:10Z</time>
      </trkpt>
      <trkpt lat="47.34109" lon="6.3575">
        <ele>263.4</ele>
        <time>2019-08-17T10:15:11Z</time>
      </trkpt>
      <trkpt lat="47.34107" lon="6.35743">
        <ele>263.3</ele>
        <time>2019-08-17T10:15:12Z</time>
      </trkpt>
      <trkpt lat="47.34105" lon="6.35738">
        <ele>263.3</ele>
        <time>2019-08-17T10:15:13Z</time>
      </trkpt>
      <trkpt lat="47.34103" lon="6.35732">
        <ele>263.2</ele>
        <time>2019-08-17T10:15:14Z</time>
      </trkpt>
      <trkpt lat="47.34101" lon="6.35727">
        <ele>263.2</ele>
        <time>2019-08-17T10:15:15Z</time>
      </trkpt>
      <trkpt lat="47.34099" lon="6.35721">
        <ele>263.1</ele>
        <time>2019-08-17T10:15:16Z</time>
      </trkpt>
      <trkpt lat="47.34097" lon="6.35715">
        <ele>263.1</ele>
        <time>2019-08-17T10:15:17Z</time>
      </trkpt>
      <trkpt lat="47.34094" lon="6.35708">
        <ele>263.1</ele>
        <time>2019-08-17T10:15:18Z</time>
      </trkpt>
      <trkpt lat="47.34092" lon="6.357">
        <ele>263.1</ele>
        <time>2019-08-17T10:15:19Z</time>
      </trkpt>
      <trkpt lat="47.34088" lon="6.35691">
        <ele>263.1</ele>
        <time>2019-08-17T10:15:20Z</time>
      </trkpt>
      <trkpt lat="47.34085" lon="6.35684">
        <ele>263.1</ele>
        <time>2019-08-17T10:15:21Z</time>
      </trkpt>
      <trkpt lat="47.34082" lon="6.35678">
        <ele>263.1</ele>
        <time>2019-08-17T10:15:22Z</time>
      </trkpt>
      <trkpt lat="47.34079" lon="6.35672">
        <ele>263.1</ele>
        <time>2019-08-17T10:15:23Z</time>
      </trkpt>
      <trkpt lat="47.34076" lon="6.35665">
        <ele>263.1</ele>
        <time>2019-08-17T10:15:24Z</time>
      </trkpt>
      <trkpt lat="47.34073" lon="6.3566">
        <ele>263.2</ele>
        <time>2019-08-17T10:15:25Z</time>
      </trkpt>
      <trkpt lat="47.34071" lon="6.35653">
        <ele>263.2</ele>
        <time>2019-08-17T10:15:26Z</time>
      </trkpt>
      <trkpt lat="47.34069" lon="6.35647">
        <ele>263.2</ele>
        <time>2019-08-17T10:15:27Z</time>
      </trkpt>
      <trkpt lat="47.34066" lon="6.35641">
        <ele>263.3</ele>
        <time>2019-08-17T10:15:28Z</time>
      </trkpt>
      <trkpt lat="47.34063" lon="6.35634">
        <ele>263.3</ele>
        <time>2019-08-17T10:15:29Z</time>
      </trkpt>
      <trkpt lat="47.34061" lon="6.35628">
        <ele>263.4</ele>
        <time>2019-08-17T10:15:30Z</time>
      </trkpt>
      <trkpt lat="47.34059" lon="6.35622">
        <ele>263.5</ele>
        <time>2019-08-17T10:15:31Z</time>
      </trkpt>
      <trkpt lat="47.34057" lon="6.35617">
        <ele>263.6</ele>
        <time>2019-08-17T10:15:32Z</time>
      </trkpt>
      <trkpt lat="47.34056" lon="6.35613">
        <ele>263.7</ele>
        <time>2019-08-17T10:15:33Z</time>
      </trkpt>
      <trkpt lat="47.34055" lon="6.35609">
        <ele>262.5</ele>
        <time>2019-08-17T10:15:34Z</time>
      </trkpt>
      <trkpt lat="47.34058" lon="6.35604">
        <ele>262.8</ele>
        <time>2019-08-17T10:15:36Z</time>
      </trkpt>
      <trkpt lat="47.3406" lon="6.356">
        <ele>263</ele>
        <time>2019-08-17T10:15:37Z</time>
      </trkpt>
      <trkpt lat="47.34063" lon="6.35598">
        <ele>263.2</ele>
        <time>2019-08-17T10:15:38Z</time>
      </trkpt>
      <trkpt lat="47.34066" lon="6.35596">
        <ele>263.4</ele>
        <time>2019-08-17T10:15:39Z</time>
      </trkpt>
      <trkpt lat="47.34069" lon="6.35594">
        <ele>263.6</ele>
        <time>2019-08-17T10:15:40Z</time>
      </trkpt>
      <trkpt lat="47.34072" lon="6.35591">
        <ele>263.8</ele>
        <time>2019-08-17T10:15:41Z</time>
      </trkpt>
      <trkpt lat="47.34074" lon="6.35588">
        <ele>264</ele>
        <time>2019-08-17T10:15:42Z</time>
      </trkpt>
      <trkpt lat="47.34077" lon="6.35586">
        <ele>264.1</ele>
        <time>2019-08-17T10:15:43Z</time>
      </trkpt>
      <trkpt lat="47.3408" lon="6.35583">
        <ele>264.2</ele>
        <time>2019-08-17T10:15:44Z</time>
      </trkpt>
      <trkpt lat="47.34082" lon="6.3558">
        <ele>264.4</ele>
        <time>2019-08-17T10:15:45Z</time>
      </trkpt>
      <trkpt lat="47.34086" lon="6.35575">
        <ele>264.5</ele>
        <time>2019-08-17T10:15:47Z</time>
      </trkpt>
      <trkpt lat="47.34089" lon="6.35572">
        <ele>264.6</ele>
        <time>2019-08-17T10:15:48Z</time>
      </trkpt>
      <trkpt lat="47.34092" lon="6.35569">
        <ele>264.7</ele>
        <time>2019-08-17T10:15:49Z</time>
      </trkpt>
      <trkpt lat="47.34095" lon="6.35567">
        <ele>264.8</ele>
        <time>2019-08-17T10:15:50Z</time>
      </trkpt>
      <trkpt lat="47.34098" lon="6.35564">
        <ele>264.9</ele>
        <time>2019-08-17T10:15:51Z</time>
      </trkpt>
      <trkpt lat="47.34101" lon="6.3556">
        <ele>264.9</ele>
        <time>2019-08-17T10:15:53Z</time>
      </trkpt>
      <trkpt lat="47.34104" lon="6.35557">
        <ele>264.9</ele>
        <time>2019-08-17T10:15:54Z</time>
      </trkpt>
      <trkpt lat="47.34106" lon="6.35554">
        <ele>264.8</ele>
        <time>2019-08-17T10:15:55Z</time>
      </trkpt>
      <trkpt lat="47.34109" lon="6.35552">
        <ele>264.7</ele>
        <time>2019-08-17T10:15:56Z</time>
      </trkpt>
      <trkpt lat="47.34111" lon="6.35548">
        <ele>264.7</ele>
        <time>2019-08-17T10:15:57Z</time>
      </trkpt>
      <trkpt lat="47.34113" lon="6.35542">
        <ele>264.5</ele>
        <time>2019-08-17T10:15:59Z</time>
      </trkpt>
      <trkpt lat="47.34111" lon="6.35537">
        <ele>264.4</ele>
        <time>2019-08-17T10:16:01Z</time>
      </trkpt>
      <trkpt lat="47.3411" lon="6.35534">
        <ele>264.3</ele>
        <time>2019-08-17T10:16:02Z</time>
      </trkpt>
      <trkpt lat="47.34107" lon="6.35529">
        <ele>264.3</ele>
        <time>2019-08-17T10:16:03Z</time>
      </trkpt>
      <trkpt lat="47.34105" lon="6.35524">
        <ele>264.2</ele>
        <time>2019-08-17T10:16:04Z</time>
      </trkpt>
      <trkpt lat="47.34102" lon="6.35516">
        <ele>264.1</ele>
        <time>2019-08-17T10:16:05Z</time>
      </trkpt>
      <trkpt lat="47.341" lon="6.3551">
        <ele>264</ele>
        <time>2019-08-17T10:16:06Z</time>
      </trkpt>
      <trkpt lat="47.34097" lon="6.35504">
        <ele>264</ele>
        <time>2019-08-17T10:16:07Z</time>
      </trkpt>
      <trkpt lat="47.34095" lon="6.35498">
        <ele>263.9</ele>
        <time>2019-08-17T10:16:08Z</time>
      </trkpt>
      <trkpt lat="47.34093" lon="6.35493">
        <ele>263.8</ele>
        <time>2019-08-17T10:16:09Z</time>
      </trkpt>
      <trkpt lat="47.34091" lon="6.35489">
        <ele>263.8</ele>
        <time>2019-08-17T10:16:10Z</time>
      </trkpt>
      <trkpt lat="47.34087" lon="6.35485">
        <ele>263.7</ele>
        <time>2019-08-17T10:16:12Z</time>
      </trkpt>
      <trkpt lat="47.34087" lon="6.35479">
        <ele>264.5</ele>
        <time>2019-08-17T10:16:14Z</time>
      </trkpt>
      <trkpt lat="47.34085" lon="6.35474">
        <ele>264.5</ele>
        <time>2019-08-17T10:16:16Z</time>
      </trkpt>
      <trkpt lat="47.34083" lon="6.35469">
        <ele>264.6</ele>
        <time>2019-08-17T10:16:18Z</time>
      </trkpt>
      <trkpt lat="47.34083" lon="6.35463">
        <ele>264.6</ele>
        <time>2019-08-17T10:16:21Z</time>
      </trkpt>
      <trkpt lat="47.34086" lon="6.35469">
        <ele>264.7</ele>
        <time>2019-08-17T10:16:26Z</time>
      </trkpt>
      <trkpt lat="47.34088" lon="6.35473">
        <ele>264.7</ele>
        <time>2019-08-17T10:16:27Z</time>
      </trkpt>
      <trkpt lat="47.3409" lon="6.35478">
        <ele>265.9</ele>
        <time>2019-08-17T10:16:28Z</time>
      </trkpt>
      <trkpt lat="47.34091" lon="6.35482">
        <ele>265.9</ele>
        <time>2019-08-17T10:16:29Z</time>
      </trkpt>
      <trkpt lat="47.34092" lon="6.35486">
        <ele>265.9</ele>
        <time>2019-08-17T10:16:30Z</time>
      </trkpt>
      <trkpt lat="47.34092" lon="6.3549">
        <ele>265.9</ele>
        <time>2019-08-17T10:16:31Z</time>
      </trkpt>
      <trkpt lat="47.34094" lon="6.35494">
        <ele>265.9</ele>
        <time>2019-08-17T10:16:32Z</time>
      </trkpt>
      <trkpt lat="47.34094" lon="6.35498">
        <ele>265.9</ele>
        <time>2019-08-17T10:16:33Z</time>
      </trkpt>
      <trkpt lat="47.34101" lon="6.35504">
        <ele>266</ele>
        <time>2019-08-17T10:18:12Z</time>
      </trkpt>
      <trkpt lat="47.34104" lon="6.35511">
        <ele>266</ele>
        <time>2019-08-17T10:18:14Z</time>
      </trkpt>
      <trkpt lat="47.34106" lon="6.35515">
        <ele>266</ele>
        <time>2019-08-17T10:18:15Z</time>
      </trkpt>
      <trkpt lat="47.34109" lon="6.35521">
        <ele>266</ele>
        <time>2019-08-17T10:18:17Z</time>
      </trkpt>
      <trkpt lat="47.3411" lon="6.35525">
        <ele>266.1</ele>
        <time>2019-08-17T10:18:18Z</time>
      </trkpt>
      <trkpt lat="47.34112" lon="6.35529">
        <ele>266.1</ele>
        <time>2019-08-17T10:18:19Z</time>
      </trkpt>
      <trkpt lat="47.34114" lon="6.35532">
        <ele>266.1</ele>
        <time>2019-08-17T10:18:20Z</time>
      </trkpt>
      <trkpt lat="47.34117" lon="6.35537">
        <ele>266.1</ele>
        <time>2019-08-17T10:18:21Z</time>
      </trkpt>
      <trkpt lat="47.34118" lon="6.35541">
        <ele>266.1</ele>
        <time>2019-08-17T10:18:22Z</time>
      </trkpt>
      <trkpt lat="47.34121" lon="6.35546">
        <ele>266.4</ele>
        <time>2019-08-17T10:18:23Z</time>
      </trkpt>
      <trkpt lat="47.34122" lon="6.35551">
        <ele>266.7</ele>
        <time>2019-08-17T10:18:24Z</time>
      </trkpt>
      <trkpt lat="47.34124" lon="6.35555">
        <ele>267</ele>
        <time>2019-08-17T10:18:25Z</time>
      </trkpt>
      <trkpt lat="47.34126" lon="6.3556">
        <ele>267.3</ele>
        <time>2019-08-17T10:18:26Z</time>
      </trkpt>
      <trkpt lat="47.34127" lon="6.35567">
        <ele>267.6</ele>
        <time>2019-08-17T10:18:27Z</time>
      </trkpt>
      <trkpt lat="47.34129" lon="6.35572">
        <ele>268</ele>
        <time>2019-08-17T10:18:28Z</time>
      </trkpt>
      <trkpt lat="47.3413" lon="6.35577">
        <ele>268.2</ele>
        <time>2019-08-17T10:18:29Z</time>
      </trkpt>
      <trkpt lat="47.34132" lon="6.35582">
        <ele>268.4</ele>
        <time>2019-08-17T10:18:30Z</time>
      </trkpt>
      <trkpt lat="47.34134" lon="6.35588">
        <ele>268.6</ele>
        <time>2019-08-17T10:18:31Z</time>
      </trkpt>
      <trkpt lat="47.34136" lon="6.35593">
        <ele>268.7</ele>
        <time>2019-08-17T10:18:32Z</time>
      </trkpt>
      <trkpt lat="47.34139" lon="6.35598">
        <ele>268.9</ele>
        <time>2019-08-17T10:18:33Z</time>
      </trkpt>
      <trkpt lat="47.34141" lon="6.35604">
        <ele>269</ele>
        <time>2019-08-17T10:18:34Z</time>
      </trkpt>
      <trkpt lat="47.34143" lon="6.35609">
        <ele>269.1</ele>
        <time>2019-08-17T10:18:35Z</time>
      </trkpt>
      <trkpt lat="47.34145" lon="6.35614">
        <ele>269.3</ele>
        <time>2019-08-17T10:18:36Z</time>
      </trkpt>
      <trkpt lat="47.34147" lon="6.35618">
        <ele>269.5</ele>
        <time>2019-08-17T10:18:37Z</time>
      </trkpt>
      <trkpt lat="47.3415" lon="6.35622">
        <ele>269.8</ele>
        <time>2019-08-17T10:18:38Z</time>
      </trkpt>
      <trkpt lat="47.34153" lon="6.35629">
        <ele>270.4</ele>
        <time>2019-08-17T10:18:40Z</time>
      </trkpt>
      <trkpt lat="47.34154" lon="6.35633">
        <ele>270.7</ele>
        <time>2019-08-17T10:18:41Z</time>
      </trkpt>
      <trkpt lat="47.34156" lon="6.35637">
        <ele>271</ele>
        <time>2019-08-17T10:18:42Z</time>
      </trkpt>
      <trkpt lat="47.34157" lon="6.35642">
        <ele>271.4</ele>
        <time>2019-08-17T10:18:43Z</time>
      </trkpt>
      <trkpt lat="47.34158" lon="6.35647">
        <ele>271.9</ele>
        <time>2019-08-17T10:18:44Z</time>
      </trkpt>
      <trkpt lat="47.34159" lon="6.35653">
        <ele>272.4</ele>
        <time>2019-08-17T10:18:45Z</time>
      </trkpt>
      <trkpt lat="47.34161" lon="6.35658">
        <ele>272.8</ele>
        <time>2019-08-17T10:18:46Z</time>
      </trkpt>
      <trkpt lat="47.34163" lon="6.35664">
        <ele>273.4</ele>
        <time>2019-08-17T10:18:47Z</time>
      </trkpt>
      <trkpt lat="47.34165" lon="6.3567">
        <ele>274</ele>
        <time>2019-08-17T10:18:48Z</time>
      </trkpt>
      <trkpt lat="47.34167" lon="6.35675">
        <ele>274.4</ele>
        <time>2019-08-17T10:18:49Z</time>
      </trkpt>
      <trkpt lat="47.34169" lon="6.3568">
        <ele>275.1</ele>
        <time>2019-08-17T10:18:50Z</time>
      </trkpt>
      <trkpt lat="47.34171" lon="6.35685">
        <ele>274.8</ele>
        <time>2019-08-17T10:18:51Z</time>
      </trkpt>
      <trkpt lat="47.34173" lon="6.3569">
        <ele>274.5</ele>
        <time>2019-08-17T10:18:52Z</time>
      </trkpt>
      <trkpt lat="47.34176" lon="6.35694">
        <ele>274.2</ele>
        <time>2019-08-17T10:18:53Z</time>
      </trkpt>
      <trkpt lat="47.34178" lon="6.35698">
        <ele>274</ele>
        <time>2019-08-17T10:18:54Z</time>
      </trkpt>
      <trkpt lat="47.34181" lon="6.35702">
        <ele>273.7</ele>
        <time>2019-08-17T10:18:55Z</time>
      </trkpt>
      <trkpt lat="47.34184" lon="6.35706">
        <ele>273.3</ele>
        <time>2019-08-17T10:18:56Z</time>
      </trkpt>
      <trkpt lat="47.34187" lon="6.35709">
        <ele>273.1</ele>
        <time>2019-08-17T10:18:57Z</time>
      </trkpt>
      <trkpt lat="47.3419" lon="6.35713">
        <ele>273</ele>
        <time>2019-08-17T10:18:58Z</time>
      </trkpt>
      <trkpt lat="47.34193" lon="6.35717">
        <ele>273</ele>
        <time>2019-08-17T10:18:59Z</time>
      </trkpt>
      <trkpt lat="47.34196" lon="6.35721">
        <ele>273.2</ele>
        <time>2019-08-17T10:19:00Z</time>
      </trkpt>
      <trkpt lat="47.34199" lon="6.35726">
        <ele>273.4</ele>
        <time>2019-08-17T10:19:01Z</time>
      </trkpt>
      <trkpt lat="47.34202" lon="6.3573">
        <ele>273.8</ele>
        <time>2019-08-17T10:19:02Z</time>
      </trkpt>
      <trkpt lat="47.34206" lon="6.35735">
        <ele>274.1</ele>
        <time>2019-08-17T10:19:03Z</time>
      </trkpt>
      <trkpt lat="47.34209" lon="6.35739">
        <ele>274.3</ele>
        <time>2019-08-17T10:19:04Z</time>
      </trkpt>
      <trkpt lat="47.34212" lon="6.35743">
        <ele>274.5</ele>
        <time>2019-08-17T10:19:05Z</time>
      </trkpt>
      <trkpt lat="47.34215" lon="6.35747">
        <ele>274.7</ele>
        <time>2019-08-17T10:19:06Z</time>
      </trkpt>
      <trkpt lat="47.34218" lon="6.35751">
        <ele>274.8</ele>
        <time>2019-08-17T10:19:07Z</time>
      </trkpt>
      <trkpt lat="47.34221" lon="6.35756">
        <ele>274.9</ele>
        <time>2019-08-17T10:19:08Z</time>
      </trkpt>
      <trkpt lat="47.34223" lon="6.3576">
        <ele>275</ele>
        <time>2019-08-17T10:19:09Z</time>
      </trkpt>
      <trkpt lat="47.34226" lon="6.35764">
        <ele>275</ele>
        <time>2019-08-17T10:19:10Z</time>
      </trkpt>
      <trkpt lat="47.3423" lon="6.35768">
        <ele>275</ele>
        <time>2019-08-17T10:19:11Z</time>
      </trkpt>
      <trkpt lat="47.34234" lon="6.35773">
        <ele>275.1</ele>
        <time>2019-08-17T10:19:12Z</time>
      </trkpt>
      <trkpt lat="47.34237" lon="6.35777">
        <ele>275.1</ele>
        <time>2019-08-17T10:19:13Z</time>
      </trkpt>
      <trkpt lat="47.3424" lon="6.35782">
        <ele>275</ele>
        <time>2019-08-17T10:19:14Z</time>
      </trkpt>
      <trkpt lat="47.34244" lon="6.35786">
        <ele>275</ele>
        <time>2019-08-17T10:19:15Z</time>
      </trkpt>
      <trkpt lat="47.34247" lon="6.35788">
        <ele>275</ele>
        <time>2019-08-17T10:19:16Z</time>
      </trkpt>
      <trkpt lat="47.3425" lon="6.35792">
        <ele>275</ele>
        <time>2019-08-17T10:19:17Z</time>
      </trkpt>
      <trkpt lat="47.34253" lon="6.35796">
        <ele>275</ele>
        <time>2019-08-17T10:19:18Z</time>
      </trkpt>
      <trkpt lat="47.34256" lon="6.35799">
        <ele>275</ele>
        <time>2019-08-17T10:19:19Z</time>
      </trkpt>
      <trkpt lat="47.34258" lon="6.35803">
        <ele>275</ele>
        <time>2019-08-17T10:19:20Z</time>
      </trkpt>
      <trkpt lat="47.34261" lon="6.35807">
        <ele>274.9</ele>
        <time>2019-08-17T10:19:21Z</time>
      </trkpt>
      <trkpt lat="47.34264" lon="6.35811">
        <ele>274.9</ele>
        <time>2019-08-17T10:19:22Z</time>
      </trkpt>
      <trkpt lat="47.34266" lon="6.35815">
        <ele>274.9</ele>
        <time>2019-08-17T10:19:23Z</time>
      </trkpt>
      <trkpt lat="47.34269" lon="6.35818">
        <ele>274.9</ele>
        <time>2019-08-17T10:19:24Z</time>
      </trkpt>
      <trkpt lat="47.34272" lon="6.35821">
        <ele>274.8</ele>
        <time>2019-08-17T10:19:25Z</time>
      </trkpt>
      <trkpt lat="47.34275" lon="6.35826">
        <ele>274.7</ele>
        <time>2019-08-17T10:19:26Z</time>
      </trkpt>
      <trkpt lat="47.34278" lon="6.3583">
        <ele>274.7</ele>
        <time>2019-08-17T10:19:27Z</time>
      </trkpt>
      <trkpt lat="47.34283" lon="6.35835">
        <ele>274.5</ele>
        <time>2019-08-17T10:19:28Z</time>
      </trkpt>
      <trkpt lat="47.34286" lon="6.35839">
        <ele>274.4</ele>
        <time>2019-08-17T10:19:29Z</time>
      </trkpt>
      <trkpt lat="47.3429" lon="6.35843">
        <ele>274.3</ele>
        <time>2019-08-17T10:19:30Z</time>
      </trkpt>
      <trkpt lat="47.34293" lon="6.35846">
        <ele>274.2</ele>
        <time>2019-08-17T10:19:31Z</time>
      </trkpt>
      <trkpt lat="47.34296" lon="6.35849">
        <ele>274.2</ele>
        <time>2019-08-17T10:19:32Z</time>
      </trkpt>
      <trkpt lat="47.34299" lon="6.35852">
        <ele>274.1</ele>
        <time>2019-08-17T10:19:33Z</time>
      </trkpt>
      <trkpt lat="47.34302" lon="6.35855">
        <ele>274</ele>
        <time>2019-08-17T10:19:34Z</time>
      </trkpt>
      <trkpt lat="47.34306" lon="6.35859">
        <ele>273.9</ele>
        <time>2019-08-17T10:19:35Z</time>
      </trkpt>
      <trkpt lat="47.34309" lon="6.35862">
        <ele>273.8</ele>
        <time>2019-08-17T10:19:36Z</time>
      </trkpt>
      <trkpt lat="47.34312" lon="6.35865">
        <ele>273.7</ele>
        <time>2019-08-17T10:19:37Z</time>
      </trkpt>
      <trkpt lat="47.34316" lon="6.35868">
        <ele>273.6</ele>
        <time>2019-08-17T10:19:38Z</time>
      </trkpt>
      <trkpt lat="47.34319" lon="6.35871">
        <ele>273.5</ele>
        <time>2019-08-17T10:19:39Z</time>
      </trkpt>
      <trkpt lat="47.34322" lon="6.35875">
        <ele>273.4</ele>
        <time>2019-08-17T10:19:40Z</time>
      </trkpt>
      <trkpt lat="47.34325" lon="6.35879">
        <ele>273.3</ele>
        <time>2019-08-17T10:19:41Z</time>
      </trkpt>
      <trkpt lat="47.3433" lon="6.35882">
        <ele>273.1</ele>
        <time>2019-08-17T10:19:42Z</time>
      </trkpt>
      <trkpt lat="47.34334" lon="6.35885">
        <ele>273</ele>
        <time>2019-08-17T10:19:43Z</time>
      </trkpt>
      <trkpt lat="47.3434" lon="6.35888">
        <ele>272.9</ele>
        <time>2019-08-17T10:19:44Z</time>
      </trkpt>
      <trkpt lat="47.34344" lon="6.35892">
        <ele>272.7</ele>
        <time>2019-08-17T10:19:45Z</time>
      </trkpt>
      <trkpt lat="47.34348" lon="6.35896">
        <ele>272.6</ele>
        <time>2019-08-17T10:19:46Z</time>
      </trkpt>
      <trkpt lat="47.34353" lon="6.35901">
        <ele>272.5</ele>
        <time>2019-08-17T10:19:47Z</time>
      </trkpt>
      <trkpt lat="47.34358" lon="6.35905">
        <ele>272.4</ele>
        <time>2019-08-17T10:19:48Z</time>
      </trkpt>
      <trkpt lat="47.34362" lon="6.3591">
        <ele>272.2</ele>
        <time>2019-08-17T10:19:49Z</time>
      </trkpt>
      <trkpt lat="47.34366" lon="6.35915">
        <ele>272.1</ele>
        <time>2019-08-17T10:19:50Z</time>
      </trkpt>
      <trkpt lat="47.3437" lon="6.3592">
        <ele>272</ele>
        <time>2019-08-17T10:19:51Z</time>
      </trkpt>
      <trkpt lat="47.34374" lon="6.35925">
        <ele>271.9</ele>
        <time>2019-08-17T10:19:52Z</time>
      </trkpt>
      <trkpt lat="47.34377" lon="6.3593">
        <ele>271.8</ele>
        <time>2019-08-17T10:19:53Z</time>
      </trkpt>
      <trkpt lat="47.3438" lon="6.35934">
        <ele>271.7</ele>
        <time>2019-08-17T10:19:54Z</time>
      </trkpt>
      <trkpt lat="47.34385" lon="6.35939">
        <ele>271.6</ele>
        <time>2019-08-17T10:19:55Z</time>
      </trkpt>
      <trkpt lat="47.34389" lon="6.35944">
        <ele>271.5</ele>
        <time>2019-08-17T10:19:56Z</time>
      </trkpt>
      <trkpt lat="47.34392" lon="6.35948">
        <ele>271.4</ele>
        <time>2019-08-17T10:19:57Z</time>
      </trkpt>
      <trkpt lat="47.34396" lon="6.35953">
        <ele>271.4</ele>
        <time>2019-08-17T10:19:58Z</time>
      </trkpt>
      <trkpt lat="47.34399" lon="6.35958">
        <ele>271.3</ele>
        <time>2019-08-17T10:19:59Z</time>
      </trkpt>
      <trkpt lat="47.34401" lon="6.35963">
        <ele>270.6</ele>
        <time>2019-08-17T10:20:00Z</time>
      </trkpt>
      <trkpt lat="47.34404" lon="6.35968">
        <ele>269.8</ele>
        <time>2019-08-17T10:20:01Z</time>
      </trkpt>
      <trkpt lat="47.34406" lon="6.35974">
        <ele>269.1</ele>
        <time>2019-08-17T10:20:02Z</time>
      </trkpt>
      <trkpt lat="47.34409" lon="6.35978">
        <ele>267.9</ele>
        <time>2019-08-17T10:20:03Z</time>
      </trkpt>
      <trkpt lat="47.34411" lon="6.35983">
        <ele>267.8</ele>
        <time>2019-08-17T10:20:04Z</time>
      </trkpt>
      <trkpt lat="47.34414" lon="6.35989">
        <ele>267.7</ele>
        <time>2019-08-17T10:20:05Z</time>
      </trkpt>
      <trkpt lat="47.34417" lon="6.35994">
        <ele>267.5</ele>
        <time>2019-08-17T10:20:06Z</time>
      </trkpt>
      <trkpt lat="47.3442" lon="6.35999">
        <ele>267.4</ele>
        <time>2019-08-17T10:20:07Z</time>
      </trkpt>
      <trkpt lat="47.34422" lon="6.36005">
        <ele>267.3</ele>
        <time>2019-08-17T10:20:08Z</time>
      </trkpt>
      <trkpt lat="47.34425" lon="6.36011">
        <ele>267.2</ele>
        <time>2019-08-17T10:20:09Z</time>
      </trkpt>
      <trkpt lat="47.34427" lon="6.36017">
        <ele>267.1</ele>
        <time>2019-08-17T10:20:10Z</time>
      </trkpt>
      <trkpt lat="47.3443" lon="6.36024">
        <ele>267.1</ele>
        <time>2019-08-17T10:20:11Z</time>
      </trkpt>
      <trkpt lat="47.34433" lon="6.36032">
        <ele>267</ele>
        <time>2019-08-17T10:20:12Z</time>
      </trkpt>
      <trkpt lat="47.34437" lon="6.36035">
        <ele>267</ele>
        <time>2019-08-17T10:20:13Z</time>
      </trkpt>
      <trkpt lat="47.3444" lon="6.36038">
        <ele>267</ele>
        <time>2019-08-17T10:20:14Z</time>
      </trkpt>
      <trkpt lat="47.34443" lon="6.36043">
        <ele>267</ele>
        <time>2019-08-17T10:20:15Z</time>
      </trkpt>
      <trkpt lat="47.34447" lon="6.36046">
        <ele>267</ele>
        <time>2019-08-17T10:20:16Z</time>
      </trkpt>
      <trkpt lat="47.3445" lon="6.36049">
        <ele>267</ele>
        <time>2019-08-17T10:20:17Z</time>
      </trkpt>
      <trkpt lat="47.34453" lon="6.36052">
        <ele>267</ele>
        <time>2019-08-17T10:20:18Z</time>
      </trkpt>
      <trkpt lat="47.34456" lon="6.36056">
        <ele>267.1</ele>
        <time>2019-08-17T10:20:19Z</time>
      </trkpt>
      <trkpt lat="47.34459" lon="6.36059">
        <ele>267.1</ele>
        <time>2019-08-17T10:20:20Z</time>
      </trkpt>
      <trkpt lat="47.34462" lon="6.36062">
        <ele>267.1</ele>
        <time>2019-08-17T10:20:21Z</time>
      </trkpt>
      <trkpt lat="47.34465" lon="6.36065">
        <ele>267.1</ele>
        <time>2019-08-17T10:20:22Z</time>
      </trkpt>
      <trkpt lat="47.34467" lon="6.36067">
        <ele>267.1</ele>
        <time>2019-08-17T10:20:23Z</time>
      </trkpt>
      <trkpt lat="47.34471" lon="6.3607">
        <ele>267.1</ele>
        <time>2019-08-17T10:20:24Z</time>
      </trkpt>
      <trkpt lat="47.34475" lon="6.36073">
        <ele>267.1</ele>
        <time>2019-08-17T10:20:26Z</time>
      </trkpt>
      <trkpt lat="47.34478" lon="6.36073">
        <ele>267.1</ele>
        <time>2019-08-17T10:20:28Z</time>
      </trkpt>
      <trkpt lat="47.34478" lon="6.36078">
        <ele>267.1</ele>
        <time>2019-08-17T10:20:32Z</time>
      </trkpt>
      <trkpt lat="47.34481" lon="6.36072">
        <ele>267.1</ele>
        <time>2019-08-17T10:20:36Z</time>
      </trkpt>
      <trkpt lat="47.34483" lon="6.36068">
        <ele>267.1</ele>
        <time>2019-08-17T10:20:37Z</time>
      </trkpt>
      <trkpt lat="47.34484" lon="6.36063">
        <ele>267</ele>
        <time>2019-08-17T10:20:38Z</time>
      </trkpt>
      <trkpt lat="47.34487" lon="6.36059">
        <ele>266.9</ele>
        <time>2019-08-17T10:20:39Z</time>
      </trkpt>
      <trkpt lat="47.34489" lon="6.36054">
        <ele>266.8</ele>
        <time>2019-08-17T10:20:40Z</time>
      </trkpt>
      <trkpt lat="47.34492" lon="6.36049">
        <ele>266.7</ele>
        <time>2019-08-17T10:20:41Z</time>
      </trkpt>
      <trkpt lat="47.34495" lon="6.36044">
        <ele>266.6</ele>
        <time>2019-08-17T10:20:42Z</time>
      </trkpt>
      <trkpt lat="47.34498" lon="6.36039">
        <ele>266.5</ele>
        <time>2019-08-17T10:20:43Z</time>
      </trkpt>
      <trkpt lat="47.34501" lon="6.36033">
        <ele>266.4</ele>
        <time>2019-08-17T10:20:44Z</time>
      </trkpt>
      <trkpt lat="47.34504" lon="6.36029">
        <ele>266.3</ele>
        <time>2019-08-17T10:20:45Z</time>
      </trkpt>
      <trkpt lat="47.34508" lon="6.36024">
        <ele>266.3</ele>
        <time>2019-08-17T10:20:46Z</time>
      </trkpt>
      <trkpt lat="47.3451" lon="6.36022">
        <ele>266.3</ele>
        <time>2019-08-17T10:20:47Z</time>
      </trkpt>
      <trkpt lat="47.34514" lon="6.36021">
        <ele>266.6</ele>
        <time>2019-08-17T10:20:48Z</time>
      </trkpt>
      <trkpt lat="47.34518" lon="6.36023">
        <ele>266.7</ele>
        <time>2019-08-17T10:20:49Z</time>
      </trkpt>
      <trkpt lat="47.34522" lon="6.36025">
        <ele>266.9</ele>
        <time>2019-08-17T10:20:50Z</time>
      </trkpt>
      <trkpt lat="47.34527" lon="6.36027">
        <ele>267</ele>
        <time>2019-08-17T10:20:51Z</time>
      </trkpt>
      <trkpt lat="47.3453" lon="6.36029">
        <ele>267</ele>
        <time>2019-08-17T10:20:52Z</time>
      </trkpt>
      <trkpt lat="47.34532" lon="6.3603">
        <ele>267</ele>
        <time>2019-08-17T10:20:53Z</time>
      </trkpt>
      <trkpt lat="47.34535" lon="6.36031">
        <ele>267</ele>
        <time>2019-08-17T10:20:54Z</time>
      </trkpt>
      <trkpt lat="47.34538" lon="6.36029">
        <ele>267</ele>
        <time>2019-08-17T10:20:55Z</time>
      </trkpt>
      <trkpt lat="47.34544" lon="6.36029">
        <ele>267</ele>
        <time>2019-08-17T10:20:57Z</time>
      </trkpt>
      <trkpt lat="47.34547" lon="6.36029">
        <ele>267</ele>
        <time>2019-08-17T10:20:58Z</time>
      </trkpt>
      <trkpt lat="47.34552" lon="6.36029">
        <ele>267</ele>
        <time>2019-08-17T10:21:00Z</time>
      </trkpt>
      <trkpt lat="47.34556" lon="6.36028">
        <ele>267</ele>
        <time>2019-08-17T10:21:02Z</time>
      </trkpt>
      <trkpt lat="47.34559" lon="6.36029">
        <ele>267</ele>
        <time>2019-08-17T10:21:03Z</time>
      </trkpt>
      <trkpt lat="47.34562" lon="6.3603">
        <ele>267</ele>
        <time>2019-08-17T10:21:04Z</time>
      </trkpt>
      <trkpt lat="47.34567" lon="6.36031">
        <ele>267</ele>
        <time>2019-08-17T10:21:06Z</time>
      </trkpt>
      <trkpt lat="47.34572" lon="6.36028">
        <ele>266.9</ele>
        <time>2019-08-17T10:21:08Z</time>
      </trkpt>
      <trkpt lat="47.34576" lon="6.36026">
        <ele>266.9</ele>
        <time>2019-08-17T10:21:10Z</time>
      </trkpt>
      <trkpt lat="47.34579" lon="6.36026">
        <ele>266.9</ele>
        <time>2019-08-17T10:21:11Z</time>
      </trkpt>
      <trkpt lat="47.34582" lon="6.36026">
        <ele>266.9</ele>
        <time>2019-08-17T10:21:13Z</time>
      </trkpt>
      <trkpt lat="47.34584" lon="6.36032">
        <ele>266.8</ele>
        <time>2019-08-17T10:21:15Z</time>
      </trkpt>
      <trkpt lat="47.34585" lon="6.3604">
        <ele>267</ele>
        <time>2019-08-17T10:21:17Z</time>
      </trkpt>
      <trkpt lat="47.34586" lon="6.36044">
        <ele>267.1</ele>
        <time>2019-08-17T10:21:18Z</time>
      </trkpt>
      <trkpt lat="47.34586" lon="6.36048">
        <ele>267.2</ele>
        <time>2019-08-17T10:21:19Z</time>
      </trkpt>
      <trkpt lat="47.34587" lon="6.36056">
        <ele>267.2</ele>
        <time>2019-08-17T10:21:21Z</time>
      </trkpt>
      <trkpt lat="47.3459" lon="6.36063">
        <ele>267.3</ele>
        <time>2019-08-17T10:21:23Z</time>
      </trkpt>
      <trkpt lat="47.3459" lon="6.36069">
        <ele>267.3</ele>
        <time>2019-08-17T10:21:25Z</time>
      </trkpt>
      <trkpt lat="47.3459" lon="6.36075">
        <ele>267.4</ele>
        <time>2019-08-17T10:21:28Z</time>
      </trkpt>
      <trkpt lat="47.34589" lon="6.36081">
        <ele>267.8</ele>
        <time>2019-08-17T10:21:30Z</time>
      </trkpt>
      <trkpt lat="47.3459" lon="6.36087">
        <ele>267.8</ele>
        <time>2019-08-17T10:21:32Z</time>
      </trkpt>
      <trkpt lat="47.34593" lon="6.36085">
        <ele>267.8</ele>
        <time>2019-08-17T10:21:36Z</time>
      </trkpt>
      <trkpt lat="47.34593" lon="6.3608">
        <ele>267.8</ele>
        <time>2019-08-17T10:21:37Z</time>
      </trkpt>
      <trkpt lat="47.34595" lon="6.36074">
        <ele>267.6</ele>
        <time>2019-08-17T10:21:39Z</time>
      </trkpt>
      <trkpt lat="47.34596" lon="6.3607">
        <ele>267.5</ele>
        <time>2019-08-17T10:21:41Z</time>
      </trkpt>
      <trkpt lat="47.34595" lon="6.36065">
        <ele>267.4</ele>
        <time>2019-08-17T10:21:43Z</time>
      </trkpt>
      <trkpt lat="47.34592" lon="6.36063">
        <ele>267.4</ele>
        <time>2019-08-17T10:21:45Z</time>
      </trkpt>
      <trkpt lat="47.3459" lon="6.36061">
        <ele>267.4</ele>
        <time>2019-08-17T10:21:50Z</time>
      </trkpt>
      <trkpt lat="47.34592" lon="6.36063">
        <ele>267.3</ele>
        <time>2019-08-17T10:21:58Z</time>
      </trkpt>
      <trkpt lat="47.34595" lon="6.36057">
        <ele>267.3</ele>
        <time>2019-08-17T10:29:21Z</time>
      </trkpt>
      <trkpt lat="47.34597" lon="6.3606">
        <ele>267.3</ele>
        <time>2019-08-17T10:29:26Z</time>
      </trkpt>
      <trkpt lat="47.34594" lon="6.36062">
        <ele>267.3</ele>
        <time>2019-08-17T10:29:30Z</time>
      </trkpt>
      <trkpt lat="47.34606" lon="6.36064">
        <ele>267.3</ele>
        <time>2019-08-17T10:38:59Z</time>
      </trkpt>
      <trkpt lat="47.34606" lon="6.36059">
        <ele>267.3</ele>
        <time>2019-08-17T10:39:18Z</time>
      </trkpt>
      <trkpt lat="47.34605" lon="6.36056">
        <ele>267.3</ele>
        <time>2019-08-17T10:39:21Z</time>
      </trkpt>
      <trkpt lat="47.34606" lon="6.36051">
        <ele>267.2</ele>
        <time>2019-08-17T10:39:28Z</time>
      </trkpt>
      <trkpt lat="47.34611" lon="6.36055">
        <ele>267.2</ele>
        <time>2019-08-17T10:42:30Z</time>
      </trkpt>
      <trkpt lat="47.34615" lon="6.36054">
        <ele>267.2</ele>
        <time>2019-08-17T10:42:44Z</time>
      </trkpt>
      <trkpt lat="47.34613" lon="6.3605">
        <ele>267.2</ele>
        <time>2019-08-17T10:42:50Z</time>
      </trkpt>
      <trkpt lat="47.34611" lon="6.36046">
        <ele>267.1</ele>
        <time>2019-08-17T10:42:57Z</time>
      </trkpt>
      <trkpt lat="47.34613" lon="6.36045">
        <ele>267.1</ele>
        <time>2019-08-17T10:43:36Z</time>
      </trkpt>
      <trkpt lat="47.34615" lon="6.36042">
        <ele>267.1</ele>
        <time>2019-08-17T10:43:46Z</time>
      </trkpt>
      <trkpt lat="47.34617" lon="6.36037">
        <ele>267.1</ele>
        <time>2019-08-17T10:44:16Z</time>
      </trkpt>
      <trkpt lat="47.34621" lon="6.36038">
        <ele>267.1</ele>
        <time>2019-08-17T10:44:20Z</time>
      </trkpt>
      <trkpt lat="47.34621" lon="6.36042">
        <ele>267.1</ele>
        <time>2019-08-17T10:44:22Z</time>
      </trkpt>
      <trkpt lat="47.34601" lon="6.36056">
        <ele>267.2</ele>
        <time>2019-08-17T10:46:09Z</time>
      </trkpt>
      <trkpt lat="47.34598" lon="6.36055">
        <ele>267.2</ele>
        <time>2019-08-17T10:46:21Z</time>
      </trkpt>
      <trkpt lat="47.34596" lon="6.36057">
        <ele>267.2</ele>
        <time>2019-08-17T10:46:27Z</time>
      </trkpt>
      <trkpt lat="47.34596" lon="6.36061">
        <ele>267.2</ele>
        <time>2019-08-17T10:46:31Z</time>
      </trkpt>
      <trkpt lat="47.34598" lon="6.36065">
        <ele>267.2</ele>
        <time>2019-08-17T10:46:33Z</time>
      </trkpt>
      <trkpt lat="47.34601" lon="6.36062">
        <ele>267.2</ele>
        <time>2019-08-17T10:46:41Z</time>
      </trkpt>
      <trkpt lat="47.34597" lon="6.36062">
        <ele>267.2</ele>
        <time>2019-08-17T10:46:48Z</time>
      </trkpt>
      <trkpt lat="47.34603" lon="6.36065">
        <ele>267.2</ele>
        <time>2019-08-17T10:47:46Z</time>
      </trkpt>
      <trkpt lat="47.34606" lon="6.36065">
        <ele>267.2</ele>
        <time>2019-08-17T10:47:59Z</time>
      </trkpt>
      <trkpt lat="47.34608" lon="6.36062">
        <ele>267.2</ele>
        <time>2019-08-17T10:48:04Z</time>
      </trkpt>
      <trkpt lat="47.3461" lon="6.3606">
        <ele>267.2</ele>
        <time>2019-08-17T10:48:16Z</time>
      </trkpt>
      <trkpt lat="47.3461" lon="6.36064">
        <ele>267.3</ele>
        <time>2019-08-17T10:48:25Z</time>
      </trkpt>
      <trkpt lat="47.34595" lon="6.36055">
        <ele>267.3</ele>
        <time>2019-08-17T10:52:05Z</time>
      </trkpt>
      <trkpt lat="47.34598" lon="6.36053">
        <ele>267.3</ele>
        <time>2019-08-17T10:52:08Z</time>
      </trkpt>
      <trkpt lat="47.34599" lon="6.36049">
        <ele>267.3</ele>
        <time>2019-08-17T10:52:14Z</time>
      </trkpt>
      <trkpt lat="47.34578" lon="6.36055">
        <ele>267.2</ele>
        <time>2019-08-17T10:54:16Z</time>
      </trkpt>
      <trkpt lat="47.34581" lon="6.36058">
        <ele>267.2</ele>
        <time>2019-08-17T10:54:30Z</time>
      </trkpt>
      <trkpt lat="47.34584" lon="6.36057">
        <ele>267.2</ele>
        <time>2019-08-17T10:54:36Z</time>
      </trkpt>
      <trkpt lat="47.34587" lon="6.36056">
        <ele>267.2</ele>
        <time>2019-08-17T10:54:38Z</time>
      </trkpt>
      <trkpt lat="47.34589" lon="6.36051">
        <ele>267.2</ele>
        <time>2019-08-17T10:54:42Z</time>
      </trkpt>
      <trkpt lat="47.34587" lon="6.36045">
        <ele>267.2</ele>
        <time>2019-08-17T10:54:45Z</time>
      </trkpt>
      <trkpt lat="47.34584" lon="6.36042">
        <ele>267.2</ele>
        <time>2019-08-17T10:54:47Z</time>
      </trkpt>
      <trkpt lat="47.34579" lon="6.36043">
        <ele>267.2</ele>
        <time>2019-08-17T10:54:49Z</time>
      </trkpt>
      <trkpt lat="47.34576" lon="6.36044">
        <ele>267.2</ele>
        <time>2019-08-17T10:54:50Z</time>
      </trkpt>
      <trkpt lat="47.34572" lon="6.36044">
        <ele>267.2</ele>
        <time>2019-08-17T10:54:51Z</time>
      </trkpt>
      <trkpt lat="47.34569" lon="6.36044">
        <ele>267.2</ele>
        <time>2019-08-17T10:54:52Z</time>
      </trkpt>
      <trkpt lat="47.34566" lon="6.36045">
        <ele>267.2</ele>
        <time>2019-08-17T10:54:53Z</time>
      </trkpt>
      <trkpt lat="47.34563" lon="6.36046">
        <ele>267.2</ele>
        <time>2019-08-17T10:54:54Z</time>
      </trkpt>
      <trkpt lat="47.34559" lon="6.36046">
        <ele>267.1</ele>
        <time>2019-08-17T10:54:55Z</time>
      </trkpt>
      <trkpt lat="47.34556" lon="6.36047">
        <ele>267.1</ele>
        <time>2019-08-17T10:54:56Z</time>
      </trkpt>
      <trkpt lat="47.34552" lon="6.36048">
        <ele>267.1</ele>
        <time>2019-08-17T10:54:57Z</time>
      </trkpt>
      <trkpt lat="47.34549" lon="6.36049">
        <ele>267.1</ele>
        <time>2019-08-17T10:54:58Z</time>
      </trkpt>
      <trkpt lat="47.34545" lon="6.36049">
        <ele>267.1</ele>
        <time>2019-08-17T10:54:59Z</time>
      </trkpt>
      <trkpt lat="47.34543" lon="6.36049">
        <ele>267.1</ele>
        <time>2019-08-17T10:55:00Z</time>
      </trkpt>
      <trkpt lat="47.3454" lon="6.36049">
        <ele>267.1</ele>
        <time>2019-08-17T10:55:01Z</time>
      </trkpt>
      <trkpt lat="47.34535" lon="6.3605">
        <ele>267.1</ele>
        <time>2019-08-17T10:55:03Z</time>
      </trkpt>
      <trkpt lat="47.34531" lon="6.36048">
        <ele>267.1</ele>
        <time>2019-08-17T10:55:06Z</time>
      </trkpt>
      <trkpt lat="47.34531" lon="6.36041">
        <ele>267</ele>
        <time>2019-08-17T10:55:08Z</time>
      </trkpt>
      <trkpt lat="47.3453" lon="6.36037">
        <ele>267</ele>
        <time>2019-08-17T10:55:09Z</time>
      </trkpt>
      <trkpt lat="47.34529" lon="6.36029">
        <ele>266.9</ele>
        <time>2019-08-17T10:55:11Z</time>
      </trkpt>
      <trkpt lat="47.34528" lon="6.36023">
        <ele>266.8</ele>
        <time>2019-08-17T10:55:13Z</time>
      </trkpt>
      <trkpt lat="47.34527" lon="6.36019">
        <ele>266.8</ele>
        <time>2019-08-17T10:55:15Z</time>
      </trkpt>
      <trkpt lat="47.34523" lon="6.36019">
        <ele>266.7</ele>
        <time>2019-08-17T10:55:19Z</time>
      </trkpt>
      <trkpt lat="47.34519" lon="6.36017">
        <ele>266.6</ele>
        <time>2019-08-17T10:55:29Z</time>
      </trkpt>
      <trkpt lat="47.34515" lon="6.36018">
        <ele>266.5</ele>
        <time>2019-08-17T10:55:31Z</time>
      </trkpt>
      <trkpt lat="47.34512" lon="6.36019">
        <ele>266.5</ele>
        <time>2019-08-17T10:55:32Z</time>
      </trkpt>
      <trkpt lat="47.34507" lon="6.36023">
        <ele>266.3</ele>
        <time>2019-08-17T10:55:34Z</time>
      </trkpt>
      <trkpt lat="47.34503" lon="6.36028">
        <ele>266.3</ele>
        <time>2019-08-17T10:55:36Z</time>
      </trkpt>
      <trkpt lat="47.345" lon="6.3603">
        <ele>266.4</ele>
        <time>2019-08-17T10:55:37Z</time>
      </trkpt>
      <trkpt lat="47.34497" lon="6.36035">
        <ele>266.4</ele>
        <time>2019-08-17T10:55:39Z</time>
      </trkpt>
      <trkpt lat="47.34493" lon="6.3604">
        <ele>266.5</ele>
        <time>2019-08-17T10:55:41Z</time>
      </trkpt>
      <trkpt lat="47.34491" lon="6.36046">
        <ele>266.6</ele>
        <time>2019-08-17T10:55:43Z</time>
      </trkpt>
      <trkpt lat="47.34489" lon="6.36051">
        <ele>266.7</ele>
        <time>2019-08-17T10:55:45Z</time>
      </trkpt>
      <trkpt lat="47.34487" lon="6.36056">
        <ele>266.8</ele>
        <time>2019-08-17T10:55:47Z</time>
      </trkpt>
      <trkpt lat="47.34485" lon="6.36059">
        <ele>266.9</ele>
        <time>2019-08-17T10:55:48Z</time>
      </trkpt>
      <trkpt lat="47.34483" lon="6.36062">
        <ele>267</ele>
        <time>2019-08-17T10:55:49Z</time>
      </trkpt>
      <trkpt lat="47.3448" lon="6.36064">
        <ele>267.1</ele>
        <time>2019-08-17T10:55:50Z</time>
      </trkpt>
      <trkpt lat="47.34477" lon="6.36065">
        <ele>267.1</ele>
        <time>2019-08-17T10:55:51Z</time>
      </trkpt>
      <trkpt lat="47.34474" lon="6.36067">
        <ele>267.1</ele>
        <time>2019-08-17T10:55:52Z</time>
      </trkpt>
      <trkpt lat="47.34471" lon="6.36066">
        <ele>267.1</ele>
        <time>2019-08-17T10:55:53Z</time>
      </trkpt>
      <trkpt lat="47.34468" lon="6.36064">
        <ele>267.1</ele>
        <time>2019-08-17T10:55:54Z</time>
      </trkpt>
      <trkpt lat="47.34465" lon="6.36062">
        <ele>267.1</ele>
        <time>2019-08-17T10:55:55Z</time>
      </trkpt>
      <trkpt lat="47.34461" lon="6.3606">
        <ele>267.1</ele>
        <time>2019-08-17T10:55:56Z</time>
      </trkpt>
      <trkpt lat="47.34458" lon="6.36057">
        <ele>267.1</ele>
        <time>2019-08-17T10:55:57Z</time>
      </trkpt>
      <trkpt lat="47.34454" lon="6.36056">
        <ele>267.1</ele>
        <time>2019-08-17T10:55:58Z</time>
      </trkpt>
      <trkpt lat="47.34451" lon="6.36054">
        <ele>267</ele>
        <time>2019-08-17T10:55:59Z</time>
      </trkpt>
      <trkpt lat="47.34447" lon="6.36052">
        <ele>267</ele>
        <time>2019-08-17T10:56:00Z</time>
      </trkpt>
      <trkpt lat="47.34444" lon="6.36047">
        <ele>267</ele>
        <time>2019-08-17T10:56:01Z</time>
      </trkpt>
      <trkpt lat="47.3444" lon="6.36041">
        <ele>267</ele>
        <time>2019-08-17T10:56:02Z</time>
      </trkpt>
      <trkpt lat="47.34437" lon="6.36036">
        <ele>267</ele>
        <time>2019-08-17T10:56:03Z</time>
      </trkpt>
      <trkpt lat="47.34435" lon="6.3603">
        <ele>267</ele>
        <time>2019-08-17T10:56:04Z</time>
      </trkpt>
      <trkpt lat="47.34433" lon="6.36025">
        <ele>267.1</ele>
        <time>2019-08-17T10:56:05Z</time>
      </trkpt>
      <trkpt lat="47.3443" lon="6.3602">
        <ele>267.1</ele>
        <time>2019-08-17T10:56:06Z</time>
      </trkpt>
      <trkpt lat="47.34428" lon="6.36015">
        <ele>267.2</ele>
        <time>2019-08-17T10:56:07Z</time>
      </trkpt>
      <trkpt lat="47.34425" lon="6.36011">
        <ele>267.3</ele>
        <time>2019-08-17T10:56:08Z</time>
      </trkpt>
      <trkpt lat="47.34423" lon="6.36008">
        <ele>267.3</ele>
        <time>2019-08-17T10:56:09Z</time>
      </trkpt>
      <trkpt lat="47.34421" lon="6.36004">
        <ele>267.4</ele>
        <time>2019-08-17T10:56:10Z</time>
      </trkpt>
      <trkpt lat="47.34418" lon="6.35999">
        <ele>267.5</ele>
        <time>2019-08-17T10:56:11Z</time>
      </trkpt>
      <trkpt lat="47.34416" lon="6.35994">
        <ele>267.6</ele>
        <time>2019-08-17T10:56:12Z</time>
      </trkpt>
      <trkpt lat="47.34414" lon="6.35989">
        <ele>267.7</ele>
        <time>2019-08-17T10:56:13Z</time>
      </trkpt>
      <trkpt lat="47.34412" lon="6.35984">
        <ele>267.8</ele>
        <time>2019-08-17T10:56:14Z</time>
      </trkpt>
      <trkpt lat="47.3441" lon="6.35981">
        <ele>268</ele>
        <time>2019-08-17T10:56:15Z</time>
      </trkpt>
      <trkpt lat="47.34408" lon="6.35978">
        <ele>268.5</ele>
        <time>2019-08-17T10:56:16Z</time>
      </trkpt>
      <trkpt lat="47.34407" lon="6.35973">
        <ele>269.1</ele>
        <time>2019-08-17T10:56:17Z</time>
      </trkpt>
      <trkpt lat="47.34405" lon="6.35969">
        <ele>269.7</ele>
        <time>2019-08-17T10:56:18Z</time>
      </trkpt>
      <trkpt lat="47.34402" lon="6.35964">
        <ele>270.4</ele>
        <time>2019-08-17T10:56:19Z</time>
      </trkpt>
      <trkpt lat="47.344" lon="6.35959">
        <ele>271.1</ele>
        <time>2019-08-17T10:56:20Z</time>
      </trkpt>
      <trkpt lat="47.34397" lon="6.35954">
        <ele>271.3</ele>
        <time>2019-08-17T10:56:21Z</time>
      </trkpt>
      <trkpt lat="47.34394" lon="6.3595">
        <ele>271.4</ele>
        <time>2019-08-17T10:56:22Z</time>
      </trkpt>
      <trkpt lat="47.3439" lon="6.35946">
        <ele>271.5</ele>
        <time>2019-08-17T10:56:23Z</time>
      </trkpt>
      <trkpt lat="47.34387" lon="6.35942">
        <ele>271.6</ele>
        <time>2019-08-17T10:56:24Z</time>
      </trkpt>
      <trkpt lat="47.34383" lon="6.35938">
        <ele>271.6</ele>
        <time>2019-08-17T10:56:25Z</time>
      </trkpt>
      <trkpt lat="47.34379" lon="6.35934">
        <ele>271.7</ele>
        <time>2019-08-17T10:56:26Z</time>
      </trkpt>
      <trkpt lat="47.34375" lon="6.35931">
        <ele>271.8</ele>
        <time>2019-08-17T10:56:27Z</time>
      </trkpt>
      <trkpt lat="47.34371" lon="6.35928">
        <ele>271.9</ele>
        <time>2019-08-17T10:56:28Z</time>
      </trkpt>
      <trkpt lat="47.34366" lon="6.35926">
        <ele>272</ele>
        <time>2019-08-17T10:56:29Z</time>
      </trkpt>
      <trkpt lat="47.34362" lon="6.35923">
        <ele>272.1</ele>
        <time>2019-08-17T10:56:30Z</time>
      </trkpt>
      <trkpt lat="47.34358" lon="6.3592">
        <ele>272.2</ele>
        <time>2019-08-17T10:56:31Z</time>
      </trkpt>
      <trkpt lat="47.34354" lon="6.35917">
        <ele>272.3</ele>
        <time>2019-08-17T10:56:32Z</time>
      </trkpt>
      <trkpt lat="47.3435" lon="6.35913">
        <ele>272.5</ele>
        <time>2019-08-17T10:56:33Z</time>
      </trkpt>
      <trkpt lat="47.34347" lon="6.35909">
        <ele>272.6</ele>
        <time>2019-08-17T10:56:34Z</time>
      </trkpt>
      <trkpt lat="47.34342" lon="6.35906">
        <ele>272.7</ele>
        <time>2019-08-17T10:56:35Z</time>
      </trkpt>
      <trkpt lat="47.34339" lon="6.35903">
        <ele>272.8</ele>
        <time>2019-08-17T10:56:36Z</time>
      </trkpt>
      <trkpt lat="47.34334" lon="6.35899">
        <ele>272.9</ele>
        <time>2019-08-17T10:56:37Z</time>
      </trkpt>
      <trkpt lat="47.3433" lon="6.35895">
        <ele>273</ele>
        <time>2019-08-17T10:56:38Z</time>
      </trkpt>
      <trkpt lat="47.34325" lon="6.3589">
        <ele>273.2</ele>
        <time>2019-08-17T10:56:39Z</time>
      </trkpt>
      <trkpt lat="47.34322" lon="6.35886">
        <ele>273.3</ele>
        <time>2019-08-17T10:56:40Z</time>
      </trkpt>
      <trkpt lat="47.34318" lon="6.35882">
        <ele>273.4</ele>
        <time>2019-08-17T10:56:41Z</time>
      </trkpt>
      <trkpt lat="47.34315" lon="6.35879">
        <ele>273.5</ele>
        <time>2019-08-17T10:56:42Z</time>
      </trkpt>
      <trkpt lat="47.34313" lon="6.35876">
        <ele>273.6</ele>
        <time>2019-08-17T10:56:43Z</time>
      </trkpt>
      <trkpt lat="47.3431" lon="6.35873">
        <ele>273.6</ele>
        <time>2019-08-17T10:56:44Z</time>
      </trkpt>
      <trkpt lat="47.34307" lon="6.3587">
        <ele>273.7</ele>
        <time>2019-08-17T10:56:45Z</time>
      </trkpt>
      <trkpt lat="47.34305" lon="6.35868">
        <ele>273.8</ele>
        <time>2019-08-17T10:56:46Z</time>
      </trkpt>
      <trkpt lat="47.34301" lon="6.35863">
        <ele>273.9</ele>
        <time>2019-08-17T10:56:52Z</time>
      </trkpt>
      <trkpt lat="47.34299" lon="6.35858">
        <ele>274</ele>
        <time>2019-08-17T10:56:53Z</time>
      </trkpt>
      <trkpt lat="47.34297" lon="6.35853">
        <ele>274.1</ele>
        <time>2019-08-17T10:56:54Z</time>
      </trkpt>
      <trkpt lat="47.34295" lon="6.35849">
        <ele>274.2</ele>
        <time>2019-08-17T10:56:55Z</time>
      </trkpt>
      <trkpt lat="47.34293" lon="6.35844">
        <ele>274.3</ele>
        <time>2019-08-17T10:56:56Z</time>
      </trkpt>
      <trkpt lat="47.3429" lon="6.35838">
        <ele>274.4</ele>
        <time>2019-08-17T10:56:57Z</time>
      </trkpt>
      <trkpt lat="47.34287" lon="6.35833">
        <ele>274.5</ele>
        <time>2019-08-17T10:56:58Z</time>
      </trkpt>
      <trkpt lat="47.34283" lon="6.35829">
        <ele>274.6</ele>
        <time>2019-08-17T10:56:59Z</time>
      </trkpt>
      <trkpt lat="47.34279" lon="6.35824">
        <ele>274.7</ele>
        <time>2019-08-17T10:57:00Z</time>
      </trkpt>
      <trkpt lat="47.34276" lon="6.35817">
        <ele>274.8</ele>
        <time>2019-08-17T10:57:01Z</time>
      </trkpt>
      <trkpt lat="47.34272" lon="6.35811">
        <ele>274.9</ele>
        <time>2019-08-17T10:57:02Z</time>
      </trkpt>
      <trkpt lat="47.34268" lon="6.35807">
        <ele>274.9</ele>
        <time>2019-08-17T10:57:03Z</time>
      </trkpt>
      <trkpt lat="47.34265" lon="6.35802">
        <ele>275</ele>
        <time>2019-08-17T10:57:04Z</time>
      </trkpt>
      <trkpt lat="47.3426" lon="6.35797">
        <ele>275</ele>
        <time>2019-08-17T10:57:05Z</time>
      </trkpt>
      <trkpt lat="47.34256" lon="6.35793">
        <ele>275</ele>
        <time>2019-08-17T10:57:06Z</time>
      </trkpt>
      <trkpt lat="47.34253" lon="6.35789">
        <ele>275</ele>
        <time>2019-08-17T10:57:07Z</time>
      </trkpt>
      <trkpt lat="47.3425" lon="6.35785">
        <ele>275</ele>
        <time>2019-08-17T10:57:08Z</time>
      </trkpt>
      <trkpt lat="47.34247" lon="6.35781">
        <ele>275</ele>
        <time>2019-08-17T10:57:09Z</time>
      </trkpt>
      <trkpt lat="47.34243" lon="6.35776">
        <ele>275</ele>
        <time>2019-08-17T10:57:10Z</time>
      </trkpt>
      <trkpt lat="47.3424" lon="6.35771">
        <ele>275.1</ele>
        <time>2019-08-17T10:57:11Z</time>
      </trkpt>
      <trkpt lat="47.34235" lon="6.35766">
        <ele>275</ele>
        <time>2019-08-17T10:57:12Z</time>
      </trkpt>
      <trkpt lat="47.34231" lon="6.35761">
        <ele>275</ele>
        <time>2019-08-17T10:57:13Z</time>
      </trkpt>
      <trkpt lat="47.34227" lon="6.35757">
        <ele>274.9</ele>
        <time>2019-08-17T10:57:14Z</time>
      </trkpt>
      <trkpt lat="47.34223" lon="6.35753">
        <ele>274.8</ele>
        <time>2019-08-17T10:57:15Z</time>
      </trkpt>
      <trkpt lat="47.34219" lon="6.35749">
        <ele>274.7</ele>
        <time>2019-08-17T10:57:16Z</time>
      </trkpt>
      <trkpt lat="47.34215" lon="6.35745">
        <ele>274.5</ele>
        <time>2019-08-17T10:57:17Z</time>
      </trkpt>
      <trkpt lat="47.34211" lon="6.3574">
        <ele>274.3</ele>
        <time>2019-08-17T10:57:18Z</time>
      </trkpt>
      <trkpt lat="47.34208" lon="6.35734">
        <ele>274</ele>
        <time>2019-08-17T10:57:19Z</time>
      </trkpt>
      <trkpt lat="47.34204" lon="6.35729">
        <ele>273.6</ele>
        <time>2019-08-17T10:57:20Z</time>
      </trkpt>
      <trkpt lat="47.342" lon="6.35724">
        <ele>273.3</ele>
        <time>2019-08-17T10:57:21Z</time>
      </trkpt>
      <trkpt lat="47.34198" lon="6.3572">
        <ele>273.1</ele>
        <time>2019-08-17T10:57:22Z</time>
      </trkpt>
      <trkpt lat="47.34195" lon="6.35717">
        <ele>273</ele>
        <time>2019-08-17T10:57:23Z</time>
      </trkpt>
      <trkpt lat="47.34191" lon="6.35712">
        <ele>273</ele>
        <time>2019-08-17T10:57:24Z</time>
      </trkpt>
      <trkpt lat="47.34188" lon="6.35706">
        <ele>273.3</ele>
        <time>2019-08-17T10:57:25Z</time>
      </trkpt>
      <trkpt lat="47.34184" lon="6.35701">
        <ele>273.7</ele>
        <time>2019-08-17T10:57:26Z</time>
      </trkpt>
      <trkpt lat="47.3418" lon="6.35694">
        <ele>274.2</ele>
        <time>2019-08-17T10:57:27Z</time>
      </trkpt>
      <trkpt lat="47.34176" lon="6.35689">
        <ele>274.6</ele>
        <time>2019-08-17T10:57:28Z</time>
      </trkpt>
      <trkpt lat="47.34173" lon="6.35683">
        <ele>275</ele>
        <time>2019-08-17T10:57:29Z</time>
      </trkpt>
      <trkpt lat="47.34171" lon="6.35676">
        <ele>274.8</ele>
        <time>2019-08-17T10:57:30Z</time>
      </trkpt>
      <trkpt lat="47.34169" lon="6.3567">
        <ele>274.2</ele>
        <time>2019-08-17T10:57:31Z</time>
      </trkpt>
      <trkpt lat="47.34167" lon="6.35663">
        <ele>273.7</ele>
        <time>2019-08-17T10:57:32Z</time>
      </trkpt>
      <trkpt lat="47.34164" lon="6.35657">
        <ele>273</ele>
        <time>2019-08-17T10:57:33Z</time>
      </trkpt>
      <trkpt lat="47.34161" lon="6.35651">
        <ele>272.3</ele>
        <time>2019-08-17T10:57:34Z</time>
      </trkpt>
      <trkpt lat="47.34158" lon="6.35646">
        <ele>271.7</ele>
        <time>2019-08-17T10:57:35Z</time>
      </trkpt>
      <trkpt lat="47.34155" lon="6.3564">
        <ele>271.1</ele>
        <time>2019-08-17T10:57:36Z</time>
      </trkpt>
      <trkpt lat="47.34153" lon="6.35635">
        <ele>270.7</ele>
        <time>2019-08-17T10:57:37Z</time>
      </trkpt>
      <trkpt lat="47.34151" lon="6.35629">
        <ele>270.1</ele>
        <time>2019-08-17T10:57:39Z</time>
      </trkpt>
      <trkpt lat="47.3415" lon="6.35624">
        <ele>269.8</ele>
        <time>2019-08-17T10:57:40Z</time>
      </trkpt>
      <trkpt lat="47.34149" lon="6.3562">
        <ele>269.5</ele>
        <time>2019-08-17T10:57:41Z</time>
      </trkpt>
      <trkpt lat="47.34146" lon="6.35615">
        <ele>269.3</ele>
        <time>2019-08-17T10:57:42Z</time>
      </trkpt>
      <trkpt lat="47.34143" lon="6.35609">
        <ele>269.2</ele>
        <time>2019-08-17T10:57:43Z</time>
      </trkpt>
      <trkpt lat="47.3414" lon="6.35604">
        <ele>269.1</ele>
        <time>2019-08-17T10:57:44Z</time>
      </trkpt>
      <trkpt lat="47.34139" lon="6.356">
        <ele>269</ele>
        <time>2019-08-17T10:57:45Z</time>
      </trkpt>
      <trkpt lat="47.34138" lon="6.35596">
        <ele>268.9</ele>
        <time>2019-08-17T10:57:46Z</time>
      </trkpt>
      <trkpt lat="47.34136" lon="6.3559">
        <ele>268.8</ele>
        <time>2019-08-17T10:57:48Z</time>
      </trkpt>
      <trkpt lat="47.34134" lon="6.35586">
        <ele>268.8</ele>
        <time>2019-08-17T10:57:50Z</time>
      </trkpt>
      <trkpt lat="47.34133" lon="6.35581">
        <ele>268.7</ele>
        <time>2019-08-17T10:57:52Z</time>
      </trkpt>
      <trkpt lat="47.34132" lon="6.35575">
        <ele>268.5</ele>
        <time>2019-08-17T10:57:54Z</time>
      </trkpt>
      <trkpt lat="47.34135" lon="6.35572">
        <ele>268.4</ele>
        <time>2019-08-17T10:57:56Z</time>
      </trkpt>
      <trkpt lat="47.34138" lon="6.35573">
        <ele>268.3</ele>
        <time>2019-08-17T10:58:00Z</time>
      </trkpt>
      <trkpt lat="47.3414" lon="6.3557">
        <ele>266.9</ele>
        <time>2019-08-17T10:58:05Z</time>
      </trkpt>
      <trkpt lat="47.34143" lon="6.35568">
        <ele>266.9</ele>
        <time>2019-08-17T10:58:07Z</time>
      </trkpt>
      <trkpt lat="47.34145" lon="6.35566">
        <ele>266.9</ele>
        <time>2019-08-17T10:58:10Z</time>
      </trkpt>
      <trkpt lat="47.34148" lon="6.35568">
        <ele>265.1</ele>
        <time>2019-08-17T10:58:13Z</time>
      </trkpt>
      <trkpt lat="47.34152" lon="6.35566">
        <ele>265</ele>
        <time>2019-08-17T10:58:15Z</time>
      </trkpt>
      <trkpt lat="47.34154" lon="6.35562">
        <ele>264.9</ele>
        <time>2019-08-17T10:58:19Z</time>
      </trkpt>
      <trkpt lat="47.34157" lon="6.35559">
        <ele>264.7</ele>
        <time>2019-08-17T10:58:21Z</time>
      </trkpt>
      <trkpt lat="47.3416" lon="6.35559">
        <ele>264.6</ele>
        <time>2019-08-17T10:58:31Z</time>
      </trkpt>
      <trkpt lat="47.34163" lon="6.35561">
        <ele>264.6</ele>
        <time>2019-08-17T10:58:34Z</time>
      </trkpt>
      <trkpt lat="47.3416" lon="6.35562">
        <ele>264.6</ele>
        <time>2019-08-17T10:58:41Z</time>
      </trkpt>
      <trkpt lat="47.34157" lon="6.3556">
        <ele>264.7</ele>
        <time>2019-08-17T10:58:45Z</time>
      </trkpt>
      <trkpt lat="47.34165" lon="6.3556">
        <ele>265.1</ele>
        <time>2019-08-17T10:59:11Z</time>
      </trkpt>
      <trkpt lat="47.34168" lon="6.35561">
        <ele>265.2</ele>
        <time>2019-08-17T10:59:13Z</time>
      </trkpt>
      <trkpt lat="47.3417" lon="6.35565">
        <ele>265.3</ele>
        <time>2019-08-17T10:59:15Z</time>
      </trkpt>
      <trkpt lat="47.34171" lon="6.35569">
        <ele>265.4</ele>
        <time>2019-08-17T10:59:17Z</time>
      </trkpt>
      <trkpt lat="47.34173" lon="6.35573">
        <ele>265.5</ele>
        <time>2019-08-17T10:59:19Z</time>
      </trkpt>
      <trkpt lat="47.34175" lon="6.35576">
        <ele>265.6</ele>
        <time>2019-08-17T10:59:21Z</time>
      </trkpt>
      <trkpt lat="47.34176" lon="6.35581">
        <ele>265.7</ele>
        <time>2019-08-17T10:59:23Z</time>
      </trkpt>
      <trkpt lat="47.34178" lon="6.35584">
        <ele>265.7</ele>
        <time>2019-08-17T10:59:25Z</time>
      </trkpt>
      <trkpt lat="47.3418" lon="6.35588">
        <ele>265.8</ele>
        <time>2019-08-17T10:59:29Z</time>
      </trkpt>
      <trkpt lat="47.34177" lon="6.3559">
        <ele>265.9</ele>
        <time>2019-08-17T10:59:54Z</time>
      </trkpt>
      <trkpt lat="47.34174" lon="6.3559">
        <ele>266</ele>
        <time>2019-08-17T10:59:59Z</time>
      </trkpt>
      <trkpt lat="47.34172" lon="6.35593">
        <ele>266.1</ele>
        <time>2019-08-17T11:00:06Z</time>
      </trkpt>
      <trkpt lat="47.34175" lon="6.35593">
        <ele>266.2</ele>
        <time>2019-08-17T11:00:12Z</time>
      </trkpt>
      <trkpt lat="47.34178" lon="6.35594">
        <ele>266.3</ele>
        <time>2019-08-17T11:00:19Z</time>
      </trkpt>
      <trkpt lat="47.34174" lon="6.35591">
        <ele>266.4</ele>
        <time>2019-08-17T11:00:33Z</time>
      </trkpt>
      <trkpt lat="47.34176" lon="6.35582">
        <ele>266.6</ele>
        <time>2019-08-17T11:00:42Z</time>
      </trkpt>
      <trkpt lat="47.34176" lon="6.35577">
        <ele>266.7</ele>
        <time>2019-08-17T11:00:46Z</time>
      </trkpt>
      <trkpt lat="47.34175" lon="6.35573">
        <ele>266.4</ele>
        <time>2019-08-17T11:00:47Z</time>
      </trkpt>
      <trkpt lat="47.34175" lon="6.35568">
        <ele>266.2</ele>
        <time>2019-08-17T11:00:49Z</time>
      </trkpt>
      <trkpt lat="47.34173" lon="6.35564">
        <ele>266</ele>
        <time>2019-08-17T11:00:53Z</time>
      </trkpt>
      <trkpt lat="47.3417" lon="6.35561">
        <ele>265.7</ele>
        <time>2019-08-17T11:00:56Z</time>
      </trkpt>
      <trkpt lat="47.34168" lon="6.3556">
        <ele>265.5</ele>
        <time>2019-08-17T11:00:58Z</time>
      </trkpt>
      <trkpt lat="47.34164" lon="6.35561">
        <ele>265.3</ele>
        <time>2019-08-17T11:01:01Z</time>
      </trkpt>
      <trkpt lat="47.34162" lon="6.35563">
        <ele>265.1</ele>
        <time>2019-08-17T11:01:04Z</time>
      </trkpt>
      <trkpt lat="47.34159" lon="6.35566">
        <ele>264.8</ele>
        <time>2019-08-17T11:01:22Z</time>
      </trkpt>
      <trkpt lat="47.34157" lon="6.35569">
        <ele>264.6</ele>
        <time>2019-08-17T11:01:29Z</time>
      </trkpt>
      <trkpt lat="47.34154" lon="6.35566">
        <ele>264.9</ele>
        <time>2019-08-17T11:01:37Z</time>
      </trkpt>
      <trkpt lat="47.34152" lon="6.35565">
        <ele>265</ele>
        <time>2019-08-17T11:01:43Z</time>
      </trkpt>
      <trkpt lat="47.34143" lon="6.35568">
        <ele>265</ele>
        <time>2019-08-17T11:47:09Z</time>
      </trkpt>
      <trkpt lat="47.34143" lon="6.35563">
        <ele>265</ele>
        <time>2019-08-17T11:47:11Z</time>
      </trkpt>
      <trkpt lat="47.34142" lon="6.35559">
        <ele>265</ele>
        <time>2019-08-17T11:47:13Z</time>
      </trkpt>
      <trkpt lat="47.3414" lon="6.35555">
        <ele>265.1</ele>
        <time>2019-08-17T11:47:16Z</time>
      </trkpt>
      <trkpt lat="47.34137" lon="6.35552">
        <ele>265.1</ele>
        <time>2019-08-17T11:47:20Z</time>
      </trkpt>
      <trkpt lat="47.3414" lon="6.35554">
        <ele>265.1</ele>
        <time>2019-08-17T11:47:27Z</time>
      </trkpt>
      <trkpt lat="47.34142" lon="6.35558">
        <ele>265.1</ele>
        <time>2019-08-17T11:47:29Z</time>
      </trkpt>
      <trkpt lat="47.34143" lon="6.35562">
        <ele>265.1</ele>
        <time>2019-08-17T11:47:32Z</time>
      </trkpt>
      <trkpt lat="47.34146" lon="6.35565">
        <ele>265.2</ele>
        <time>2019-08-17T11:47:35Z</time>
      </trkpt>
      <trkpt lat="47.34148" lon="6.35568">
        <ele>265.2</ele>
        <time>2019-08-17T11:47:39Z</time>
      </trkpt>
      <trkpt lat="47.34151" lon="6.35571">
        <ele>265.2</ele>
        <time>2019-08-17T11:47:42Z</time>
      </trkpt>
      <trkpt lat="47.34149" lon="6.35568">
        <ele>265.2</ele>
        <time>2019-08-17T11:49:13Z</time>
      </trkpt>
      <trkpt lat="47.34144" lon="6.35568">
        <ele>265.2</ele>
        <time>2019-08-17T11:49:15Z</time>
      </trkpt>
      <trkpt lat="47.34141" lon="6.35566">
        <ele>266.9</ele>
        <time>2019-08-17T11:49:16Z</time>
      </trkpt>
      <trkpt lat="47.34138" lon="6.35564">
        <ele>266.8</ele>
        <time>2019-08-17T11:49:17Z</time>
      </trkpt>
      <trkpt lat="47.34135" lon="6.35563">
        <ele>266.8</ele>
        <time>2019-08-17T11:49:18Z</time>
      </trkpt>
      <trkpt lat="47.34131" lon="6.35563">
        <ele>267.6</ele>
        <time>2019-08-17T11:49:19Z</time>
      </trkpt>
      <trkpt lat="47.34127" lon="6.3556">
        <ele>267.3</ele>
        <time>2019-08-17T11:49:20Z</time>
      </trkpt>
      <trkpt lat="47.34123" lon="6.35558">
        <ele>267</ele>
        <time>2019-08-17T11:49:21Z</time>
      </trkpt>
      <trkpt lat="47.34121" lon="6.35554">
        <ele>266.8</ele>
        <time>2019-08-17T11:49:22Z</time>
      </trkpt>
      <trkpt lat="47.34119" lon="6.35549">
        <ele>266.1</ele>
        <time>2019-08-17T11:49:23Z</time>
      </trkpt>
      <trkpt lat="47.34117" lon="6.35544">
        <ele>266.1</ele>
        <time>2019-08-17T11:49:24Z</time>
      </trkpt>
      <trkpt lat="47.34115" lon="6.35539">
        <ele>266.1</ele>
        <time>2019-08-17T11:49:25Z</time>
      </trkpt>
      <trkpt lat="47.34113" lon="6.35534">
        <ele>266.1</ele>
        <time>2019-08-17T11:49:26Z</time>
      </trkpt>
      <trkpt lat="47.34111" lon="6.3553">
        <ele>266.1</ele>
        <time>2019-08-17T11:49:27Z</time>
      </trkpt>
      <trkpt lat="47.34109" lon="6.35525">
        <ele>266</ele>
        <time>2019-08-17T11:49:28Z</time>
      </trkpt>
      <trkpt lat="47.34107" lon="6.35519">
        <ele>266</ele>
        <time>2019-08-17T11:49:29Z</time>
      </trkpt>
      <trkpt lat="47.34105" lon="6.35514">
        <ele>266</ele>
        <time>2019-08-17T11:49:30Z</time>
      </trkpt>
      <trkpt lat="47.34102" lon="6.35509">
        <ele>266</ele>
        <time>2019-08-17T11:49:31Z</time>
      </trkpt>
      <trkpt lat="47.341" lon="6.35503">
        <ele>266</ele>
        <time>2019-08-17T11:49:32Z</time>
      </trkpt>
      <trkpt lat="47.34097" lon="6.35498">
        <ele>265.9</ele>
        <time>2019-08-17T11:49:33Z</time>
      </trkpt>
      <trkpt lat="47.34094" lon="6.35493">
        <ele>265.9</ele>
        <time>2019-08-17T11:49:34Z</time>
      </trkpt>
      <trkpt lat="47.34092" lon="6.35489">
        <ele>265.9</ele>
        <time>2019-08-17T11:49:35Z</time>
      </trkpt>
      <trkpt lat="47.34089" lon="6.35484">
        <ele>265.9</ele>
        <time>2019-08-17T11:49:36Z</time>
      </trkpt>
      <trkpt lat="47.34087" lon="6.3548">
        <ele>265.9</ele>
        <time>2019-08-17T11:49:37Z</time>
      </trkpt>
      <trkpt lat="47.34085" lon="6.35475">
        <ele>265.9</ele>
        <time>2019-08-17T11:49:38Z</time>
      </trkpt>
      <trkpt lat="47.34083" lon="6.35471">
        <ele>265.9</ele>
        <time>2019-08-17T11:49:39Z</time>
      </trkpt>
      <trkpt lat="47.34081" lon="6.35467">
        <ele>265.9</ele>
        <time>2019-08-17T11:49:40Z</time>
      </trkpt>
      <trkpt lat="47.34078" lon="6.35462">
        <ele>265.9</ele>
        <time>2019-08-17T11:49:42Z</time>
      </trkpt>
      <trkpt lat="47.34075" lon="6.35462">
        <ele>265.9</ele>
        <time>2019-08-17T11:49:44Z</time>
      </trkpt>
      <trkpt lat="47.34072" lon="6.35459">
        <ele>265.9</ele>
        <time>2019-08-17T11:49:46Z</time>
      </trkpt>
      <trkpt lat="47.34069" lon="6.35455">
        <ele>265.9</ele>
        <time>2019-08-17T11:49:48Z</time>
      </trkpt>
      <trkpt lat="47.34066" lon="6.3545">
        <ele>265.9</ele>
        <time>2019-08-17T11:49:50Z</time>
      </trkpt>
      <trkpt lat="47.34062" lon="6.35446">
        <ele>265.9</ele>
        <time>2019-08-17T11:49:52Z</time>
      </trkpt>
      <trkpt lat="47.34059" lon="6.3544">
        <ele>265.9</ele>
        <time>2019-08-17T11:49:54Z</time>
      </trkpt>
      <trkpt lat="47.34057" lon="6.35435">
        <ele>265.9</ele>
        <time>2019-08-17T11:49:55Z</time>
      </trkpt>
      <trkpt lat="47.34055" lon="6.35432">
        <ele>266</ele>
        <time>2019-08-17T11:49:56Z</time>
      </trkpt>
      <trkpt lat="47.34053" lon="6.35427">
        <ele>266</ele>
        <time>2019-08-17T11:49:57Z</time>
      </trkpt>
      <trkpt lat="47.34051" lon="6.35424">
        <ele>266</ele>
        <time>2019-08-17T11:49:58Z</time>
      </trkpt>
      <trkpt lat="47.34049" lon="6.3542">
        <ele>266</ele>
        <time>2019-08-17T11:49:59Z</time>
      </trkpt>
      <trkpt lat="47.34045" lon="6.35414">
        <ele>266</ele>
        <time>2019-08-17T11:50:01Z</time>
      </trkpt>
      <trkpt lat="47.34042" lon="6.3541">
        <ele>266</ele>
        <time>2019-08-17T11:50:02Z</time>
      </trkpt>
      <trkpt lat="47.3404" lon="6.35404">
        <ele>266</ele>
        <time>2019-08-17T11:50:03Z</time>
      </trkpt>
      <trkpt lat="47.34037" lon="6.35401">
        <ele>266</ele>
        <time>2019-08-17T11:50:04Z</time>
      </trkpt>
      <trkpt lat="47.34035" lon="6.35397">
        <ele>266.1</ele>
        <time>2019-08-17T11:50:05Z</time>
      </trkpt>
      <trkpt lat="47.34033" lon="6.35393">
        <ele>266.1</ele>
        <time>2019-08-17T11:50:06Z</time>
      </trkpt>
      <trkpt lat="47.34031" lon="6.35389">
        <ele>266.1</ele>
        <time>2019-08-17T11:50:07Z</time>
      </trkpt>
      <trkpt lat="47.34029" lon="6.35385">
        <ele>266.2</ele>
        <time>2019-08-17T11:50:08Z</time>
      </trkpt>
      <trkpt lat="47.34026" lon="6.35382">
        <ele>266.2</ele>
        <time>2019-08-17T11:50:09Z</time>
      </trkpt>
      <trkpt lat="47.34023" lon="6.35379">
        <ele>266.3</ele>
        <time>2019-08-17T11:50:10Z</time>
      </trkpt>
      <trkpt lat="47.3402" lon="6.35376">
        <ele>266.3</ele>
        <time>2019-08-17T11:50:11Z</time>
      </trkpt>
      <trkpt lat="47.34018" lon="6.35374">
        <ele>266.4</ele>
        <time>2019-08-17T11:50:12Z</time>
      </trkpt>
      <trkpt lat="47.34015" lon="6.3537">
        <ele>266.5</ele>
        <time>2019-08-17T11:50:13Z</time>
      </trkpt>
      <trkpt lat="47.34012" lon="6.35367">
        <ele>266.5</ele>
        <time>2019-08-17T11:50:14Z</time>
      </trkpt>
      <trkpt lat="47.3401" lon="6.35363">
        <ele>266.6</ele>
        <time>2019-08-17T11:50:15Z</time>
      </trkpt>
      <trkpt lat="47.34007" lon="6.35358">
        <ele>266.7</ele>
        <time>2019-08-17T11:50:16Z</time>
      </trkpt>
      <trkpt lat="47.34004" lon="6.35354">
        <ele>266.8</ele>
        <time>2019-08-17T11:50:17Z</time>
      </trkpt>
      <trkpt lat="47.34001" lon="6.3535">
        <ele>267</ele>
        <time>2019-08-17T11:50:18Z</time>
      </trkpt>
      <trkpt lat="47.33997" lon="6.35346">
        <ele>267.1</ele>
        <time>2019-08-17T11:50:19Z</time>
      </trkpt>
      <trkpt lat="47.33993" lon="6.35342">
        <ele>267.2</ele>
        <time>2019-08-17T11:50:20Z</time>
      </trkpt>
      <trkpt lat="47.3399" lon="6.35339">
        <ele>267.3</ele>
        <time>2019-08-17T11:50:21Z</time>
      </trkpt>
      <trkpt lat="47.33987" lon="6.35337">
        <ele>267.3</ele>
        <time>2019-08-17T11:50:22Z</time>
      </trkpt>
      <trkpt lat="47.33985" lon="6.35333">
        <ele>267.4</ele>
        <time>2019-08-17T11:50:23Z</time>
      </trkpt>
      <trkpt lat="47.33982" lon="6.35331">
        <ele>267.5</ele>
        <time>2019-08-17T11:50:24Z</time>
      </trkpt>
      <trkpt lat="47.33979" lon="6.35328">
        <ele>267.5</ele>
        <time>2019-08-17T11:50:25Z</time>
      </trkpt>
      <trkpt lat="47.33977" lon="6.35325">
        <ele>267.5</ele>
        <time>2019-08-17T11:50:26Z</time>
      </trkpt>
      <trkpt lat="47.33975" lon="6.35322">
        <ele>267.6</ele>
        <time>2019-08-17T11:50:27Z</time>
      </trkpt>
      <trkpt lat="47.33973" lon="6.35319">
        <ele>267.6</ele>
        <time>2019-08-17T11:50:28Z</time>
      </trkpt>
      <trkpt lat="47.3397" lon="6.35315">
        <ele>267.6</ele>
        <time>2019-08-17T11:50:29Z</time>
      </trkpt>
      <trkpt lat="47.33969" lon="6.35313">
        <ele>267.6</ele>
        <time>2019-08-17T11:50:30Z</time>
      </trkpt>
      <trkpt lat="47.33966" lon="6.3531">
        <ele>267.6</ele>
        <time>2019-08-17T11:50:32Z</time>
      </trkpt>
      <trkpt lat="47.33962" lon="6.35308">
        <ele>267.6</ele>
        <time>2019-08-17T11:50:35Z</time>
      </trkpt>
      <trkpt lat="47.33959" lon="6.35303">
        <ele>267.6</ele>
        <time>2019-08-17T11:50:37Z</time>
      </trkpt>
      <trkpt lat="47.33955" lon="6.35298">
        <ele>267.6</ele>
        <time>2019-08-17T11:50:39Z</time>
      </trkpt>
      <trkpt lat="47.33952" lon="6.35295">
        <ele>267.5</ele>
        <time>2019-08-17T11:50:40Z</time>
      </trkpt>
      <trkpt lat="47.33949" lon="6.35292">
        <ele>267.5</ele>
        <time>2019-08-17T11:50:41Z</time>
      </trkpt>
      <trkpt lat="47.33945" lon="6.35289">
        <ele>267.4</ele>
        <time>2019-08-17T11:50:42Z</time>
      </trkpt>
      <trkpt lat="47.33942" lon="6.35286">
        <ele>267.4</ele>
        <time>2019-08-17T11:50:43Z</time>
      </trkpt>
      <trkpt lat="47.33939" lon="6.35284">
        <ele>267.3</ele>
        <time>2019-08-17T11:50:44Z</time>
      </trkpt>
      <trkpt lat="47.33936" lon="6.35281">
        <ele>267.3</ele>
        <time>2019-08-17T11:50:45Z</time>
      </trkpt>
      <trkpt lat="47.33933" lon="6.35279">
        <ele>267.2</ele>
        <time>2019-08-17T11:50:46Z</time>
      </trkpt>
      <trkpt lat="47.33931" lon="6.35277">
        <ele>267.2</ele>
        <time>2019-08-17T11:50:47Z</time>
      </trkpt>
      <trkpt lat="47.33925" lon="6.35272">
        <ele>267.1</ele>
        <time>2019-08-17T11:50:49Z</time>
      </trkpt>
      <trkpt lat="47.33922" lon="6.35269">
        <ele>267</ele>
        <time>2019-08-17T11:50:50Z</time>
      </trkpt>
      <trkpt lat="47.33918" lon="6.35266">
        <ele>267</ele>
        <time>2019-08-17T11:50:51Z</time>
      </trkpt>
      <trkpt lat="47.33915" lon="6.35263">
        <ele>266.9</ele>
        <time>2019-08-17T11:50:52Z</time>
      </trkpt>
      <trkpt lat="47.33912" lon="6.35261">
        <ele>266.9</ele>
        <time>2019-08-17T11:50:53Z</time>
      </trkpt>
      <trkpt lat="47.33909" lon="6.35258">
        <ele>266.9</ele>
        <time>2019-08-17T11:50:54Z</time>
      </trkpt>
      <trkpt lat="47.33907" lon="6.35255">
        <ele>266.9</ele>
        <time>2019-08-17T11:50:55Z</time>
      </trkpt>
      <trkpt lat="47.33904" lon="6.35253">
        <ele>266.9</ele>
        <time>2019-08-17T11:50:56Z</time>
      </trkpt>
      <trkpt lat="47.33902" lon="6.35249">
        <ele>266.9</ele>
        <time>2019-08-17T11:50:57Z</time>
      </trkpt>
      <trkpt lat="47.33899" lon="6.35246">
        <ele>266.9</ele>
        <time>2019-08-17T11:50:58Z</time>
      </trkpt>
      <trkpt lat="47.33895" lon="6.35243">
        <ele>267</ele>
        <time>2019-08-17T11:50:59Z</time>
      </trkpt>
      <trkpt lat="47.33892" lon="6.3524">
        <ele>267</ele>
        <time>2019-08-17T11:51:00Z</time>
      </trkpt>
      <trkpt lat="47.33889" lon="6.35237">
        <ele>267.1</ele>
        <time>2019-08-17T11:51:01Z</time>
      </trkpt>
      <trkpt lat="47.33886" lon="6.35233">
        <ele>267.2</ele>
        <time>2019-08-17T11:51:02Z</time>
      </trkpt>
      <trkpt lat="47.33883" lon="6.3523">
        <ele>267.3</ele>
        <time>2019-08-17T11:51:03Z</time>
      </trkpt>
      <trkpt lat="47.3388" lon="6.35227">
        <ele>267.4</ele>
        <time>2019-08-17T11:51:04Z</time>
      </trkpt>
      <trkpt lat="47.33877" lon="6.35225">
        <ele>267.5</ele>
        <time>2019-08-17T11:51:05Z</time>
      </trkpt>
      <trkpt lat="47.33874" lon="6.35222">
        <ele>267.6</ele>
        <time>2019-08-17T11:51:06Z</time>
      </trkpt>
      <trkpt lat="47.3387" lon="6.35219">
        <ele>267.7</ele>
        <time>2019-08-17T11:51:07Z</time>
      </trkpt>
      <trkpt lat="47.33866" lon="6.35216">
        <ele>267.9</ele>
        <time>2019-08-17T11:51:08Z</time>
      </trkpt>
      <trkpt lat="47.33862" lon="6.35214">
        <ele>268</ele>
        <time>2019-08-17T11:51:09Z</time>
      </trkpt>
      <trkpt lat="47.33859" lon="6.35211">
        <ele>268</ele>
        <time>2019-08-17T11:51:10Z</time>
      </trkpt>
      <trkpt lat="47.33855" lon="6.35208">
        <ele>268.1</ele>
        <time>2019-08-17T11:51:11Z</time>
      </trkpt>
      <trkpt lat="47.33851" lon="6.35205">
        <ele>268.2</ele>
        <time>2019-08-17T11:51:12Z</time>
      </trkpt>
      <trkpt lat="47.33847" lon="6.35202">
        <ele>268.2</ele>
        <time>2019-08-17T11:51:13Z</time>
      </trkpt>
      <trkpt lat="47.33844" lon="6.35198">
        <ele>268.2</ele>
        <time>2019-08-17T11:51:14Z</time>
      </trkpt>
      <trkpt lat="47.3384" lon="6.35194">
        <ele>268.3</ele>
        <time>2019-08-17T11:51:15Z</time>
      </trkpt>
      <trkpt lat="47.33837" lon="6.3519">
        <ele>268.3</ele>
        <time>2019-08-17T11:51:16Z</time>
      </trkpt>
      <trkpt lat="47.33835" lon="6.35186">
        <ele>268.3</ele>
        <time>2019-08-17T11:51:17Z</time>
      </trkpt>
      <trkpt lat="47.33832" lon="6.35182">
        <ele>268.2</ele>
        <time>2019-08-17T11:51:18Z</time>
      </trkpt>
      <trkpt lat="47.33829" lon="6.35179">
        <ele>268.2</ele>
        <time>2019-08-17T11:51:19Z</time>
      </trkpt>
      <trkpt lat="47.33826" lon="6.35175">
        <ele>268.2</ele>
        <time>2019-08-17T11:51:20Z</time>
      </trkpt>
      <trkpt lat="47.33822" lon="6.35171">
        <ele>268.2</ele>
        <time>2019-08-17T11:51:21Z</time>
      </trkpt>
      <trkpt lat="47.33817" lon="6.35167">
        <ele>268.2</ele>
        <time>2019-08-17T11:51:22Z</time>
      </trkpt>
      <trkpt lat="47.33812" lon="6.35163">
        <ele>268.2</ele>
        <time>2019-08-17T11:51:23Z</time>
      </trkpt>
      <trkpt lat="47.33807" lon="6.35159">
        <ele>268.3</ele>
        <time>2019-08-17T11:51:24Z</time>
      </trkpt>
      <trkpt lat="47.33802" lon="6.35155">
        <ele>268.3</ele>
        <time>2019-08-17T11:51:25Z</time>
      </trkpt>
      <trkpt lat="47.33798" lon="6.35153">
        <ele>268.3</ele>
        <time>2019-08-17T11:51:26Z</time>
      </trkpt>
      <trkpt lat="47.33795" lon="6.3515">
        <ele>268.4</ele>
        <time>2019-08-17T11:51:27Z</time>
      </trkpt>
      <trkpt lat="47.33791" lon="6.35147">
        <ele>268.4</ele>
        <time>2019-08-17T11:51:28Z</time>
      </trkpt>
      <trkpt lat="47.33788" lon="6.35145">
        <ele>268.5</ele>
        <time>2019-08-17T11:51:29Z</time>
      </trkpt>
      <trkpt lat="47.33785" lon="6.35138">
        <ele>268.6</ele>
        <time>2019-08-17T11:51:31Z</time>
      </trkpt>
      <trkpt lat="47.33782" lon="6.35135">
        <ele>268.6</ele>
        <time>2019-08-17T11:51:32Z</time>
      </trkpt>
      <trkpt lat="47.3378" lon="6.35132">
        <ele>268.7</ele>
        <time>2019-08-17T11:51:33Z</time>
      </trkpt>
      <trkpt lat="47.33777" lon="6.3513">
        <ele>268.7</ele>
        <time>2019-08-17T11:51:34Z</time>
      </trkpt>
      <trkpt lat="47.33772" lon="6.35127">
        <ele>268.8</ele>
        <time>2019-08-17T11:51:36Z</time>
      </trkpt>
      <trkpt lat="47.33769" lon="6.35125">
        <ele>268.9</ele>
        <time>2019-08-17T11:51:37Z</time>
      </trkpt>
      <trkpt lat="47.33767" lon="6.35122">
        <ele>269</ele>
        <time>2019-08-17T11:51:38Z</time>
      </trkpt>
      <trkpt lat="47.33764" lon="6.35119">
        <ele>269</ele>
        <time>2019-08-17T11:51:39Z</time>
      </trkpt>
      <trkpt lat="47.33762" lon="6.35116">
        <ele>269.1</ele>
        <time>2019-08-17T11:51:40Z</time>
      </trkpt>
      <trkpt lat="47.33759" lon="6.35113">
        <ele>269.1</ele>
        <time>2019-08-17T11:51:41Z</time>
      </trkpt>
      <trkpt lat="47.33756" lon="6.35109">
        <ele>269.2</ele>
        <time>2019-08-17T11:51:42Z</time>
      </trkpt>
      <trkpt lat="47.33753" lon="6.35108">
        <ele>269.3</ele>
        <time>2019-08-17T11:51:43Z</time>
      </trkpt>
      <trkpt lat="47.3375" lon="6.35106">
        <ele>269.3</ele>
        <time>2019-08-17T11:51:44Z</time>
      </trkpt>
      <trkpt lat="47.33747" lon="6.35104">
        <ele>269.4</ele>
        <time>2019-08-17T11:51:45Z</time>
      </trkpt>
      <trkpt lat="47.33744" lon="6.35103">
        <ele>269.4</ele>
        <time>2019-08-17T11:51:46Z</time>
      </trkpt>
      <trkpt lat="47.33741" lon="6.35102">
        <ele>269.5</ele>
        <time>2019-08-17T11:51:47Z</time>
      </trkpt>
      <trkpt lat="47.33738" lon="6.351">
        <ele>269.5</ele>
        <time>2019-08-17T11:51:48Z</time>
      </trkpt>
      <trkpt lat="47.33736" lon="6.35099">
        <ele>269.6</ele>
        <time>2019-08-17T11:51:49Z</time>
      </trkpt>
      <trkpt lat="47.33732" lon="6.35098">
        <ele>269.6</ele>
        <time>2019-08-17T11:51:50Z</time>
      </trkpt>
      <trkpt lat="47.3373" lon="6.35096">
        <ele>269.7</ele>
        <time>2019-08-17T11:51:51Z</time>
      </trkpt>
      <trkpt lat="47.33725" lon="6.35096">
        <ele>269.8</ele>
        <time>2019-08-17T11:51:53Z</time>
      </trkpt>
      <trkpt lat="47.3372" lon="6.35095">
        <ele>269.7</ele>
        <time>2019-08-17T11:51:55Z</time>
      </trkpt>
      <trkpt lat="47.33717" lon="6.35093">
        <ele>269.6</ele>
        <time>2019-08-17T11:51:56Z</time>
      </trkpt>
      <trkpt lat="47.33713" lon="6.35091">
        <ele>269.6</ele>
        <time>2019-08-17T11:51:57Z</time>
      </trkpt>
      <trkpt lat="47.3371" lon="6.35088">
        <ele>269.5</ele>
        <time>2019-08-17T11:51:58Z</time>
      </trkpt>
      <trkpt lat="47.33706" lon="6.35085">
        <ele>269.4</ele>
        <time>2019-08-17T11:51:59Z</time>
      </trkpt>
      <trkpt lat="47.33702" lon="6.35081">
        <ele>269.3</ele>
        <time>2019-08-17T11:52:00Z</time>
      </trkpt>
      <trkpt lat="47.33699" lon="6.35078">
        <ele>269.3</ele>
        <time>2019-08-17T11:52:01Z</time>
      </trkpt>
      <trkpt lat="47.33696" lon="6.35074">
        <ele>269.2</ele>
        <time>2019-08-17T11:52:02Z</time>
      </trkpt>
      <trkpt lat="47.33693" lon="6.3507">
        <ele>269.1</ele>
        <time>2019-08-17T11:52:03Z</time>
      </trkpt>
      <trkpt lat="47.3369" lon="6.35066">
        <ele>269</ele>
        <time>2019-08-17T11:52:04Z</time>
      </trkpt>
      <trkpt lat="47.33687" lon="6.35063">
        <ele>268.9</ele>
        <time>2019-08-17T11:52:05Z</time>
      </trkpt>
      <trkpt lat="47.33684" lon="6.3506">
        <ele>268.8</ele>
        <time>2019-08-17T11:52:06Z</time>
      </trkpt>
      <trkpt lat="47.3368" lon="6.35058">
        <ele>268.7</ele>
        <time>2019-08-17T11:52:07Z</time>
      </trkpt>
      <trkpt lat="47.33677" lon="6.35057">
        <ele>268.6</ele>
        <time>2019-08-17T11:52:08Z</time>
      </trkpt>
      <trkpt lat="47.33674" lon="6.35054">
        <ele>268.5</ele>
        <time>2019-08-17T11:52:09Z</time>
      </trkpt>
      <trkpt lat="47.33671" lon="6.3505">
        <ele>268.4</ele>
        <time>2019-08-17T11:52:10Z</time>
      </trkpt>
      <trkpt lat="47.33668" lon="6.35047">
        <ele>268.3</ele>
        <time>2019-08-17T11:52:11Z</time>
      </trkpt>
      <trkpt lat="47.33664" lon="6.35043">
        <ele>268.3</ele>
        <time>2019-08-17T11:52:12Z</time>
      </trkpt>
      <trkpt lat="47.33661" lon="6.35038">
        <ele>268.1</ele>
        <time>2019-08-17T11:52:14Z</time>
      </trkpt>
      <trkpt lat="47.33657" lon="6.35033">
        <ele>268</ele>
        <time>2019-08-17T11:52:16Z</time>
      </trkpt>
      <trkpt lat="47.33655" lon="6.35029">
        <ele>267.9</ele>
        <time>2019-08-17T11:52:17Z</time>
      </trkpt>
      <trkpt lat="47.33652" lon="6.35027">
        <ele>267.9</ele>
        <time>2019-08-17T11:52:18Z</time>
      </trkpt>
      <trkpt lat="47.33649" lon="6.35024">
        <ele>267.8</ele>
        <time>2019-08-17T11:52:19Z</time>
      </trkpt>
      <trkpt lat="47.33646" lon="6.3502">
        <ele>267.7</ele>
        <time>2019-08-17T11:52:20Z</time>
      </trkpt>
      <trkpt lat="47.33643" lon="6.35015">
        <ele>267.6</ele>
        <time>2019-08-17T11:52:21Z</time>
      </trkpt>
      <trkpt lat="47.3364" lon="6.35009">
        <ele>267.5</ele>
        <time>2019-08-17T11:52:22Z</time>
      </trkpt>
      <trkpt lat="47.33636" lon="6.35003">
        <ele>267.5</ele>
        <time>2019-08-17T11:52:23Z</time>
      </trkpt>
      <trkpt lat="47.33632" lon="6.34997">
        <ele>267.4</ele>
        <time>2019-08-17T11:52:24Z</time>
      </trkpt>
      <trkpt lat="47.33629" lon="6.34991">
        <ele>267.3</ele>
        <time>2019-08-17T11:52:25Z</time>
      </trkpt>
      <trkpt lat="47.33627" lon="6.34986">
        <ele>267.3</ele>
        <time>2019-08-17T11:52:26Z</time>
      </trkpt>
      <trkpt lat="47.33624" lon="6.3498">
        <ele>267.3</ele>
        <time>2019-08-17T11:52:27Z</time>
      </trkpt>
      <trkpt lat="47.33621" lon="6.34975">
        <ele>267.3</ele>
        <time>2019-08-17T11:52:28Z</time>
      </trkpt>
      <trkpt lat="47.33618" lon="6.3497">
        <ele>267.3</ele>
        <time>2019-08-17T11:52:29Z</time>
      </trkpt>
      <trkpt lat="47.33615" lon="6.34967">
        <ele>267.3</ele>
        <time>2019-08-17T11:52:30Z</time>
      </trkpt>
      <trkpt lat="47.33613" lon="6.34964">
        <ele>267.3</ele>
        <time>2019-08-17T11:52:31Z</time>
      </trkpt>
      <trkpt lat="47.3361" lon="6.3496">
        <ele>267.3</ele>
        <time>2019-08-17T11:52:32Z</time>
      </trkpt>
      <trkpt lat="47.33608" lon="6.34957">
        <ele>267.3</ele>
        <time>2019-08-17T11:52:33Z</time>
      </trkpt>
      <trkpt lat="47.33606" lon="6.34953">
        <ele>267.3</ele>
        <time>2019-08-17T11:52:34Z</time>
      </trkpt>
      <trkpt lat="47.33603" lon="6.34949">
        <ele>267.3</ele>
        <time>2019-08-17T11:52:35Z</time>
      </trkpt>
      <trkpt lat="47.336" lon="6.34945">
        <ele>267.3</ele>
        <time>2019-08-17T11:52:36Z</time>
      </trkpt>
      <trkpt lat="47.33598" lon="6.34941">
        <ele>267.3</ele>
        <time>2019-08-17T11:52:37Z</time>
      </trkpt>
      <trkpt lat="47.33595" lon="6.34937">
        <ele>267.3</ele>
        <time>2019-08-17T11:52:38Z</time>
      </trkpt>
      <trkpt lat="47.33592" lon="6.34933">
        <ele>267.3</ele>
        <time>2019-08-17T11:52:39Z</time>
      </trkpt>
      <trkpt lat="47.33589" lon="6.34929">
        <ele>267.3</ele>
        <time>2019-08-17T11:52:40Z</time>
      </trkpt>
      <trkpt lat="47.33586" lon="6.34927">
        <ele>267.3</ele>
        <time>2019-08-17T11:52:41Z</time>
      </trkpt>
      <trkpt lat="47.33583" lon="6.34925">
        <ele>267.3</ele>
        <time>2019-08-17T11:52:42Z</time>
      </trkpt>
      <trkpt lat="47.33579" lon="6.34924">
        <ele>267.3</ele>
        <time>2019-08-17T11:52:43Z</time>
      </trkpt>
      <trkpt lat="47.33576" lon="6.34923">
        <ele>267.4</ele>
        <time>2019-08-17T11:52:44Z</time>
      </trkpt>
      <trkpt lat="47.33573" lon="6.3492">
        <ele>267.4</ele>
        <time>2019-08-17T11:52:45Z</time>
      </trkpt>
      <trkpt lat="47.33569" lon="6.34917">
        <ele>267.4</ele>
        <time>2019-08-17T11:52:46Z</time>
      </trkpt>
      <trkpt lat="47.33566" lon="6.34914">
        <ele>267.4</ele>
        <time>2019-08-17T11:52:47Z</time>
      </trkpt>
      <trkpt lat="47.33563" lon="6.34912">
        <ele>267.4</ele>
        <time>2019-08-17T11:52:48Z</time>
      </trkpt>
      <trkpt lat="47.3356" lon="6.34909">
        <ele>267.4</ele>
        <time>2019-08-17T11:52:49Z</time>
      </trkpt>
      <trkpt lat="47.33557" lon="6.34906">
        <ele>267.4</ele>
        <time>2019-08-17T11:52:50Z</time>
      </trkpt>
      <trkpt lat="47.33554" lon="6.34902">
        <ele>267.4</ele>
        <time>2019-08-17T11:52:51Z</time>
      </trkpt>
      <trkpt lat="47.33551" lon="6.34899">
        <ele>267.5</ele>
        <time>2019-08-17T11:52:52Z</time>
      </trkpt>
      <trkpt lat="47.33548" lon="6.34896">
        <ele>267.5</ele>
        <time>2019-08-17T11:52:53Z</time>
      </trkpt>
      <trkpt lat="47.33545" lon="6.34892">
        <ele>267.5</ele>
        <time>2019-08-17T11:52:54Z</time>
      </trkpt>
      <trkpt lat="47.33542" lon="6.34888">
        <ele>267.6</ele>
        <time>2019-08-17T11:52:55Z</time>
      </trkpt>
      <trkpt lat="47.3354" lon="6.34883">
        <ele>267.6</ele>
        <time>2019-08-17T11:52:56Z</time>
      </trkpt>
      <trkpt lat="47.33542" lon="6.34878">
        <ele>267.4</ele>
        <time>2019-08-17T11:52:58Z</time>
      </trkpt>
      <trkpt lat="47.33543" lon="6.34874">
        <ele>267.4</ele>
        <time>2019-08-17T11:52:59Z</time>
      </trkpt>
      <trkpt lat="47.33544" lon="6.34871">
        <ele>267.3</ele>
        <time>2019-08-17T11:53:00Z</time>
      </trkpt>
      <trkpt lat="47.33548" lon="6.34866">
        <ele>267.2</ele>
        <time>2019-08-17T11:53:02Z</time>
      </trkpt>
      <trkpt lat="47.3355" lon="6.34861">
        <ele>267.1</ele>
        <time>2019-08-17T11:53:04Z</time>
      </trkpt>
      <trkpt lat="47.33551" lon="6.34857">
        <ele>267</ele>
        <time>2019-08-17T11:53:06Z</time>
      </trkpt>
      <trkpt lat="47.33553" lon="6.34851">
        <ele>266.9</ele>
        <time>2019-08-17T11:53:08Z</time>
      </trkpt>
      <trkpt lat="47.33553" lon="6.34846">
        <ele>266.8</ele>
        <time>2019-08-17T11:53:10Z</time>
      </trkpt>
      <trkpt lat="47.33554" lon="6.34842">
        <ele>266.8</ele>
        <time>2019-08-17T11:53:11Z</time>
      </trkpt>
      <trkpt lat="47.33555" lon="6.34835">
        <ele>266.7</ele>
        <time>2019-08-17T11:53:13Z</time>
      </trkpt>
      <trkpt lat="47.33556" lon="6.34829">
        <ele>266.6</ele>
        <time>2019-08-17T11:53:15Z</time>
      </trkpt>
      <trkpt lat="47.33559" lon="6.34825">
        <ele>266.5</ele>
        <time>2019-08-17T11:53:17Z</time>
      </trkpt>
      <trkpt lat="47.33562" lon="6.3482">
        <ele>266.4</ele>
        <time>2019-08-17T11:53:19Z</time>
      </trkpt>
      <trkpt lat="47.33566" lon="6.34815">
        <ele>266.2</ele>
        <time>2019-08-17T11:53:21Z</time>
      </trkpt>
      <trkpt lat="47.33568" lon="6.34809">
        <ele>266.1</ele>
        <time>2019-08-17T11:53:23Z</time>
      </trkpt>
      <trkpt lat="47.33572" lon="6.34805">
        <ele>266</ele>
        <time>2019-08-17T11:53:25Z</time>
      </trkpt>
      <trkpt lat="47.33577" lon="6.34802">
        <ele>266.1</ele>
        <time>2019-08-17T11:53:27Z</time>
      </trkpt>
      <trkpt lat="47.3358" lon="6.34797">
        <ele>266.1</ele>
        <time>2019-08-17T11:53:29Z</time>
      </trkpt>
      <trkpt lat="47.33583" lon="6.34795">
        <ele>266.2</ele>
        <time>2019-08-17T11:53:31Z</time>
      </trkpt>
      <trkpt lat="47.33586" lon="6.3479">
        <ele>266.2</ele>
        <time>2019-08-17T11:53:33Z</time>
      </trkpt>
      <trkpt lat="47.33588" lon="6.34785">
        <ele>266.3</ele>
        <time>2019-08-17T11:53:35Z</time>
      </trkpt>
      <trkpt lat="47.3359" lon="6.34777">
        <ele>266.4</ele>
        <time>2019-08-17T11:53:37Z</time>
      </trkpt>
      <trkpt lat="47.33593" lon="6.34772">
        <ele>266.5</ele>
        <time>2019-08-17T11:53:39Z</time>
      </trkpt>
      <trkpt lat="47.33597" lon="6.34768">
        <ele>266.6</ele>
        <time>2019-08-17T11:53:41Z</time>
      </trkpt>
      <trkpt lat="47.33599" lon="6.34765">
        <ele>266.6</ele>
        <time>2019-08-17T11:53:42Z</time>
      </trkpt>
      <trkpt lat="47.33603" lon="6.3476">
        <ele>266.7</ele>
        <time>2019-08-17T11:53:44Z</time>
      </trkpt>
      <trkpt lat="47.33606" lon="6.34755">
        <ele>266.8</ele>
        <time>2019-08-17T11:53:46Z</time>
      </trkpt>
      <trkpt lat="47.33608" lon="6.34752">
        <ele>266.8</ele>
        <time>2019-08-17T11:53:47Z</time>
      </trkpt>
      <trkpt lat="47.3361" lon="6.34747">
        <ele>266.9</ele>
        <time>2019-08-17T11:53:49Z</time>
      </trkpt>
      <trkpt lat="47.33612" lon="6.34743">
        <ele>267</ele>
        <time>2019-08-17T11:53:50Z</time>
      </trkpt>
      <trkpt lat="47.33615" lon="6.34738">
        <ele>267.1</ele>
        <time>2019-08-17T11:53:52Z</time>
      </trkpt>
      <trkpt lat="47.33618" lon="6.34732">
        <ele>267.2</ele>
        <time>2019-08-17T11:53:54Z</time>
      </trkpt>
      <trkpt lat="47.33621" lon="6.34728">
        <ele>267.2</ele>
        <time>2019-08-17T11:53:55Z</time>
      </trkpt>
      <trkpt lat="47.33623" lon="6.34725">
        <ele>267.3</ele>
        <time>2019-08-17T11:53:56Z</time>
      </trkpt>
      <trkpt lat="47.33626" lon="6.34723">
        <ele>267.3</ele>
        <time>2019-08-17T11:53:57Z</time>
      </trkpt>
      <trkpt lat="47.33628" lon="6.34721">
        <ele>267.4</ele>
        <time>2019-08-17T11:53:58Z</time>
      </trkpt>
      <trkpt lat="47.33632" lon="6.34718">
        <ele>267.4</ele>
        <time>2019-08-17T11:53:59Z</time>
      </trkpt>
      <trkpt lat="47.33634" lon="6.34715">
        <ele>267.5</ele>
        <time>2019-08-17T11:54:00Z</time>
      </trkpt>
      <trkpt lat="47.33637" lon="6.34712">
        <ele>267.6</ele>
        <time>2019-08-17T11:54:01Z</time>
      </trkpt>
      <trkpt lat="47.3364" lon="6.34709">
        <ele>267.6</ele>
        <time>2019-08-17T11:54:02Z</time>
      </trkpt>
      <trkpt lat="47.33644" lon="6.34707">
        <ele>267.7</ele>
        <time>2019-08-17T11:54:03Z</time>
      </trkpt>
      <trkpt lat="47.33648" lon="6.34704">
        <ele>267.7</ele>
        <time>2019-08-17T11:54:04Z</time>
      </trkpt>
      <trkpt lat="47.33654" lon="6.347">
        <ele>267.8</ele>
        <time>2019-08-17T11:54:05Z</time>
      </trkpt>
      <trkpt lat="47.33659" lon="6.34695">
        <ele>267.9</ele>
        <time>2019-08-17T11:54:06Z</time>
      </trkpt>
      <trkpt lat="47.33664" lon="6.3469">
        <ele>268</ele>
        <time>2019-08-17T11:54:07Z</time>
      </trkpt>
      <trkpt lat="47.33671" lon="6.34686">
        <ele>268.1</ele>
        <time>2019-08-17T11:54:08Z</time>
      </trkpt>
      <trkpt lat="47.33677" lon="6.34681">
        <ele>268.1</ele>
        <time>2019-08-17T11:54:09Z</time>
      </trkpt>
      <trkpt lat="47.33685" lon="6.34677">
        <ele>268.2</ele>
        <time>2019-08-17T11:54:10Z</time>
      </trkpt>
      <trkpt lat="47.33691" lon="6.34674">
        <ele>268.3</ele>
        <time>2019-08-17T11:54:11Z</time>
      </trkpt>
      <trkpt lat="47.33699" lon="6.34672">
        <ele>268.3</ele>
        <time>2019-08-17T11:54:12Z</time>
      </trkpt>
      <trkpt lat="47.33706" lon="6.34669">
        <ele>268.4</ele>
        <time>2019-08-17T11:54:13Z</time>
      </trkpt>
      <trkpt lat="47.33711" lon="6.34666">
        <ele>268.4</ele>
        <time>2019-08-17T11:54:14Z</time>
      </trkpt>
      <trkpt lat="47.33716" lon="6.34663">
        <ele>268.5</ele>
        <time>2019-08-17T11:54:15Z</time>
      </trkpt>
      <trkpt lat="47.33721" lon="6.3466">
        <ele>268.5</ele>
        <time>2019-08-17T11:54:16Z</time>
      </trkpt>
      <trkpt lat="47.33725" lon="6.34657">
        <ele>268.6</ele>
        <time>2019-08-17T11:54:17Z</time>
      </trkpt>
      <trkpt lat="47.33729" lon="6.34654">
        <ele>268.6</ele>
        <time>2019-08-17T11:54:18Z</time>
      </trkpt>
      <trkpt lat="47.33731" lon="6.3465">
        <ele>268.6</ele>
        <time>2019-08-17T11:54:19Z</time>
      </trkpt>
      <trkpt lat="47.33734" lon="6.34647">
        <ele>268.7</ele>
        <time>2019-08-17T11:54:20Z</time>
      </trkpt>
      <trkpt lat="47.33737" lon="6.34643">
        <ele>268.7</ele>
        <time>2019-08-17T11:54:21Z</time>
      </trkpt>
      <trkpt lat="47.33739" lon="6.3464">
        <ele>268.8</ele>
        <time>2019-08-17T11:54:22Z</time>
      </trkpt>
      <trkpt lat="47.33742" lon="6.34637">
        <ele>268.8</ele>
        <time>2019-08-17T11:54:23Z</time>
      </trkpt>
      <trkpt lat="47.33745" lon="6.34637">
        <ele>268.8</ele>
        <time>2019-08-17T11:54:24Z</time>
      </trkpt>
      <trkpt lat="47.33747" lon="6.34635">
        <ele>268.9</ele>
        <time>2019-08-17T11:54:25Z</time>
      </trkpt>
      <trkpt lat="47.33752" lon="6.34632">
        <ele>269</ele>
        <time>2019-08-17T11:54:27Z</time>
      </trkpt>
      <trkpt lat="47.33755" lon="6.34628">
        <ele>269</ele>
        <time>2019-08-17T11:54:28Z</time>
      </trkpt>
      <trkpt lat="47.33759" lon="6.34623">
        <ele>269.1</ele>
        <time>2019-08-17T11:54:29Z</time>
      </trkpt>
      <trkpt lat="47.33763" lon="6.34616">
        <ele>269.1</ele>
        <time>2019-08-17T11:54:30Z</time>
      </trkpt>
      <trkpt lat="47.33769" lon="6.34608">
        <ele>269.2</ele>
        <time>2019-08-17T11:54:31Z</time>
      </trkpt>
      <trkpt lat="47.33775" lon="6.34598">
        <ele>269.3</ele>
        <time>2019-08-17T11:54:32Z</time>
      </trkpt>
      <trkpt lat="47.33781" lon="6.34589">
        <ele>269.4</ele>
        <time>2019-08-17T11:54:33Z</time>
      </trkpt>
      <trkpt lat="47.33788" lon="6.34581">
        <ele>269.4</ele>
        <time>2019-08-17T11:54:34Z</time>
      </trkpt>
      <trkpt lat="47.33795" lon="6.34572">
        <ele>269.5</ele>
        <time>2019-08-17T11:54:35Z</time>
      </trkpt>
      <trkpt lat="47.33801" lon="6.34564">
        <ele>269.5</ele>
        <time>2019-08-17T11:54:36Z</time>
      </trkpt>
      <trkpt lat="47.33807" lon="6.34557">
        <ele>269.5</ele>
        <time>2019-08-17T11:54:37Z</time>
      </trkpt>
      <trkpt lat="47.33814" lon="6.34549">
        <ele>269.6</ele>
        <time>2019-08-17T11:54:38Z</time>
      </trkpt>
      <trkpt lat="47.3382" lon="6.34542">
        <ele>269.6</ele>
        <time>2019-08-17T11:54:39Z</time>
      </trkpt>
      <trkpt lat="47.33826" lon="6.34535">
        <ele>269.6</ele>
        <time>2019-08-17T11:54:40Z</time>
      </trkpt>
      <trkpt lat="47.33833" lon="6.34528">
        <ele>269.7</ele>
        <time>2019-08-17T11:54:41Z</time>
      </trkpt>
      <trkpt lat="47.33839" lon="6.3452">
        <ele>269.7</ele>
        <time>2019-08-17T11:54:42Z</time>
      </trkpt>
      <trkpt lat="47.33845" lon="6.34512">
        <ele>269.8</ele>
        <time>2019-08-17T11:54:43Z</time>
      </trkpt>
      <trkpt lat="47.33851" lon="6.34504">
        <ele>269.8</ele>
        <time>2019-08-17T11:54:44Z</time>
      </trkpt>
      <trkpt lat="47.33857" lon="6.34495">
        <ele>269.8</ele>
        <time>2019-08-17T11:54:45Z</time>
      </trkpt>
      <trkpt lat="47.33862" lon="6.34488">
        <ele>269.9</ele>
        <time>2019-08-17T11:54:46Z</time>
      </trkpt>
      <trkpt lat="47.33866" lon="6.3448">
        <ele>269.9</ele>
        <time>2019-08-17T11:54:47Z</time>
      </trkpt>
      <trkpt lat="47.33871" lon="6.34473">
        <ele>269.9</ele>
        <time>2019-08-17T11:54:48Z</time>
      </trkpt>
      <trkpt lat="47.33875" lon="6.34466">
        <ele>270</ele>
        <time>2019-08-17T11:54:49Z</time>
      </trkpt>
      <trkpt lat="47.3388" lon="6.3446">
        <ele>270</ele>
        <time>2019-08-17T11:54:50Z</time>
      </trkpt>
      <trkpt lat="47.33884" lon="6.34453">
        <ele>270</ele>
        <time>2019-08-17T11:54:51Z</time>
      </trkpt>
      <trkpt lat="47.33891" lon="6.34449">
        <ele>270</ele>
        <time>2019-08-17T11:54:52Z</time>
      </trkpt>
      <trkpt lat="47.33896" lon="6.34444">
        <ele>270.1</ele>
        <time>2019-08-17T11:54:53Z</time>
      </trkpt>
      <trkpt lat="47.339" lon="6.34436">
        <ele>270.1</ele>
        <time>2019-08-17T11:54:54Z</time>
      </trkpt>
      <trkpt lat="47.33903" lon="6.34429">
        <ele>269.8</ele>
        <time>2019-08-17T11:54:55Z</time>
      </trkpt>
      <trkpt lat="47.33907" lon="6.34421">
        <ele>269.4</ele>
        <time>2019-08-17T11:54:56Z</time>
      </trkpt>
      <trkpt lat="47.3391" lon="6.34414">
        <ele>269</ele>
        <time>2019-08-17T11:54:57Z</time>
      </trkpt>
      <trkpt lat="47.33915" lon="6.34408">
        <ele>268.5</ele>
        <time>2019-08-17T11:54:58Z</time>
      </trkpt>
      <trkpt lat="47.3392" lon="6.34402">
        <ele>267.9</ele>
        <time>2019-08-17T11:54:59Z</time>
      </trkpt>
      <trkpt lat="47.33925" lon="6.34395">
        <ele>267.2</ele>
        <time>2019-08-17T11:55:00Z</time>
      </trkpt>
      <trkpt lat="47.33929" lon="6.3439">
        <ele>266.6</ele>
        <time>2019-08-17T11:55:01Z</time>
      </trkpt>
      <trkpt lat="47.33934" lon="6.34384">
        <ele>265.9</ele>
        <time>2019-08-17T11:55:02Z</time>
      </trkpt>
      <trkpt lat="47.33938" lon="6.34378">
        <ele>265.3</ele>
        <time>2019-08-17T11:55:03Z</time>
      </trkpt>
      <trkpt lat="47.33942" lon="6.34371">
        <ele>264.6</ele>
        <time>2019-08-17T11:55:04Z</time>
      </trkpt>
      <trkpt lat="47.33945" lon="6.34366">
        <ele>264.1</ele>
        <time>2019-08-17T11:55:05Z</time>
      </trkpt>
      <trkpt lat="47.33948" lon="6.3436">
        <ele>263.7</ele>
        <time>2019-08-17T11:55:06Z</time>
      </trkpt>
      <trkpt lat="47.33951" lon="6.34354">
        <ele>263.4</ele>
        <time>2019-08-17T11:55:07Z</time>
      </trkpt>
      <trkpt lat="47.33954" lon="6.34347">
        <ele>263.1</ele>
        <time>2019-08-17T11:55:08Z</time>
      </trkpt>
      <trkpt lat="47.33957" lon="6.34341">
        <ele>262.9</ele>
        <time>2019-08-17T11:55:09Z</time>
      </trkpt>
      <trkpt lat="47.33961" lon="6.34335">
        <ele>262.7</ele>
        <time>2019-08-17T11:55:10Z</time>
      </trkpt>
      <trkpt lat="47.33965" lon="6.34328">
        <ele>262.5</ele>
        <time>2019-08-17T11:55:11Z</time>
      </trkpt>
      <trkpt lat="47.3397" lon="6.3432">
        <ele>262.4</ele>
        <time>2019-08-17T11:55:12Z</time>
      </trkpt>
      <trkpt lat="47.33975" lon="6.34313">
        <ele>262.2</ele>
        <time>2019-08-17T11:55:13Z</time>
      </trkpt>
      <trkpt lat="47.33979" lon="6.34306">
        <ele>262.1</ele>
        <time>2019-08-17T11:55:14Z</time>
      </trkpt>
      <trkpt lat="47.33983" lon="6.34299">
        <ele>262</ele>
        <time>2019-08-17T11:55:15Z</time>
      </trkpt>
      <trkpt lat="47.33987" lon="6.34293">
        <ele>261.9</ele>
        <time>2019-08-17T11:55:16Z</time>
      </trkpt>
      <trkpt lat="47.33991" lon="6.34287">
        <ele>261.8</ele>
        <time>2019-08-17T11:55:17Z</time>
      </trkpt>
      <trkpt lat="47.33995" lon="6.3428">
        <ele>261.7</ele>
        <time>2019-08-17T11:55:18Z</time>
      </trkpt>
      <trkpt lat="47.33999" lon="6.34274">
        <ele>261.6</ele>
        <time>2019-08-17T11:55:19Z</time>
      </trkpt>
      <trkpt lat="47.34002" lon="6.34268">
        <ele>261.5</ele>
        <time>2019-08-17T11:55:20Z</time>
      </trkpt>
      <trkpt lat="47.34006" lon="6.34262">
        <ele>261.4</ele>
        <time>2019-08-17T11:55:21Z</time>
      </trkpt>
      <trkpt lat="47.34009" lon="6.34255">
        <ele>261.3</ele>
        <time>2019-08-17T11:55:22Z</time>
      </trkpt>
      <trkpt lat="47.34013" lon="6.34248">
        <ele>261.2</ele>
        <time>2019-08-17T11:55:23Z</time>
      </trkpt>
      <trkpt lat="47.34017" lon="6.34241">
        <ele>261.1</ele>
        <time>2019-08-17T11:55:24Z</time>
      </trkpt>
      <trkpt lat="47.34021" lon="6.34234">
        <ele>261</ele>
        <time>2019-08-17T11:55:25Z</time>
      </trkpt>
      <trkpt lat="47.34025" lon="6.34226">
        <ele>260.9</ele>
        <time>2019-08-17T11:55:26Z</time>
      </trkpt>
      <trkpt lat="47.34029" lon="6.34219">
        <ele>260.8</ele>
        <time>2019-08-17T11:55:27Z</time>
      </trkpt>
      <trkpt lat="47.34032" lon="6.3421">
        <ele>260.6</ele>
        <time>2019-08-17T11:55:28Z</time>
      </trkpt>
      <trkpt lat="47.34035" lon="6.34203">
        <ele>260.5</ele>
        <time>2019-08-17T11:55:29Z</time>
      </trkpt>
      <trkpt lat="47.34039" lon="6.34196">
        <ele>260.4</ele>
        <time>2019-08-17T11:55:30Z</time>
      </trkpt>
      <trkpt lat="47.34042" lon="6.34189">
        <ele>260.2</ele>
        <time>2019-08-17T11:55:31Z</time>
      </trkpt>
      <trkpt lat="47.34046" lon="6.34182">
        <ele>260.1</ele>
        <time>2019-08-17T11:55:32Z</time>
      </trkpt>
      <trkpt lat="47.34049" lon="6.34176">
        <ele>259.9</ele>
        <time>2019-08-17T11:55:33Z</time>
      </trkpt>
      <trkpt lat="47.34053" lon="6.34169">
        <ele>259.8</ele>
        <time>2019-08-17T11:55:34Z</time>
      </trkpt>
      <trkpt lat="47.34056" lon="6.34163">
        <ele>259.7</ele>
        <time>2019-08-17T11:55:35Z</time>
      </trkpt>
      <trkpt lat="47.34059" lon="6.34158">
        <ele>259.5</ele>
        <time>2019-08-17T11:55:36Z</time>
      </trkpt>
      <trkpt lat="47.34062" lon="6.34152">
        <ele>259.4</ele>
        <time>2019-08-17T11:55:37Z</time>
      </trkpt>
      <trkpt lat="47.34066" lon="6.34145">
        <ele>259.3</ele>
        <time>2019-08-17T11:55:38Z</time>
      </trkpt>
      <trkpt lat="47.34069" lon="6.34137">
        <ele>259.2</ele>
        <time>2019-08-17T11:55:39Z</time>
      </trkpt>
      <trkpt lat="47.34073" lon="6.3413">
        <ele>259</ele>
        <time>2019-08-17T11:55:40Z</time>
      </trkpt>
      <trkpt lat="47.34076" lon="6.34122">
        <ele>258.9</ele>
        <time>2019-08-17T11:55:41Z</time>
      </trkpt>
      <trkpt lat="47.3408" lon="6.34114">
        <ele>258.8</ele>
        <time>2019-08-17T11:55:42Z</time>
      </trkpt>
      <trkpt lat="47.34084" lon="6.34105">
        <ele>258.7</ele>
        <time>2019-08-17T11:55:43Z</time>
      </trkpt>
      <trkpt lat="47.34087" lon="6.34096">
        <ele>258.5</ele>
        <time>2019-08-17T11:55:44Z</time>
      </trkpt>
      <trkpt lat="47.3409" lon="6.34087">
        <ele>258.4</ele>
        <time>2019-08-17T11:55:45Z</time>
      </trkpt>
      <trkpt lat="47.34092" lon="6.3408">
        <ele>258.3</ele>
        <time>2019-08-17T11:55:46Z</time>
      </trkpt>
      <trkpt lat="47.34093" lon="6.34074">
        <ele>258.2</ele>
        <time>2019-08-17T11:55:47Z</time>
      </trkpt>
      <trkpt lat="47.34095" lon="6.34066">
        <ele>258.2</ele>
        <time>2019-08-17T11:55:48Z</time>
      </trkpt>
      <trkpt lat="47.34098" lon="6.34057">
        <ele>258.1</ele>
        <time>2019-08-17T11:55:49Z</time>
      </trkpt>
      <trkpt lat="47.34101" lon="6.34049">
        <ele>258</ele>
        <time>2019-08-17T11:55:50Z</time>
      </trkpt>
      <trkpt lat="47.34103" lon="6.34041">
        <ele>257.9</ele>
        <time>2019-08-17T11:55:51Z</time>
      </trkpt>
      <trkpt lat="47.34105" lon="6.34035">
        <ele>257.8</ele>
        <time>2019-08-17T11:55:52Z</time>
      </trkpt>
      <trkpt lat="47.34107" lon="6.34029">
        <ele>257.7</ele>
        <time>2019-08-17T11:55:53Z</time>
      </trkpt>
      <trkpt lat="47.34109" lon="6.34022">
        <ele>257.7</ele>
        <time>2019-08-17T11:55:54Z</time>
      </trkpt>
      <trkpt lat="47.34111" lon="6.34015">
        <ele>257.6</ele>
        <time>2019-08-17T11:55:55Z</time>
      </trkpt>
      <trkpt lat="47.34113" lon="6.34006">
        <ele>257.5</ele>
        <time>2019-08-17T11:55:56Z</time>
      </trkpt>
      <trkpt lat="47.34115" lon="6.34">
        <ele>257.4</ele>
        <time>2019-08-17T11:55:57Z</time>
      </trkpt>
      <trkpt lat="47.34116" lon="6.33991">
        <ele>257.3</ele>
        <time>2019-08-17T11:55:58Z</time>
      </trkpt>
      <trkpt lat="47.34116" lon="6.33984">
        <ele>257.6</ele>
        <time>2019-08-17T11:55:59Z</time>
      </trkpt>
      <trkpt lat="47.34117" lon="6.33977">
        <ele>257.8</ele>
        <time>2019-08-17T11:56:00Z</time>
      </trkpt>
      <trkpt lat="47.34117" lon="6.3397">
        <ele>258</ele>
        <time>2019-08-17T11:56:01Z</time>
      </trkpt>
      <trkpt lat="47.34118" lon="6.33965">
        <ele>258.2</ele>
        <time>2019-08-17T11:56:02Z</time>
      </trkpt>
      <trkpt lat="47.34119" lon="6.33956">
        <ele>258.5</ele>
        <time>2019-08-17T11:56:03Z</time>
      </trkpt>
      <trkpt lat="47.3412" lon="6.33948">
        <ele>258.7</ele>
        <time>2019-08-17T11:56:04Z</time>
      </trkpt>
      <trkpt lat="47.3412" lon="6.33939">
        <ele>258.9</ele>
        <time>2019-08-17T11:56:05Z</time>
      </trkpt>
      <trkpt lat="47.34122" lon="6.33928">
        <ele>259.3</ele>
        <time>2019-08-17T11:56:06Z</time>
      </trkpt>
      <trkpt lat="47.34123" lon="6.33919">
        <ele>259.5</ele>
        <time>2019-08-17T11:56:07Z</time>
      </trkpt>
      <trkpt lat="47.34124" lon="6.33909">
        <ele>259.8</ele>
        <time>2019-08-17T11:56:08Z</time>
      </trkpt>
      <trkpt lat="47.34125" lon="6.339">
        <ele>260.1</ele>
        <time>2019-08-17T11:56:09Z</time>
      </trkpt>
      <trkpt lat="47.34126" lon="6.33893">
        <ele>260.3</ele>
        <time>2019-08-17T11:56:10Z</time>
      </trkpt>
      <trkpt lat="47.34128" lon="6.33889">
        <ele>260.5</ele>
        <time>2019-08-17T11:56:11Z</time>
      </trkpt>
      <trkpt lat="47.3413" lon="6.33885">
        <ele>260.6</ele>
        <time>2019-08-17T11:56:12Z</time>
      </trkpt>
      <trkpt lat="47.34131" lon="6.33881">
        <ele>260.8</ele>
        <time>2019-08-17T11:56:13Z</time>
      </trkpt>
      <trkpt lat="47.34133" lon="6.33873">
        <ele>261.1</ele>
        <time>2019-08-17T11:56:14Z</time>
      </trkpt>
      <trkpt lat="47.34132" lon="6.33867">
        <ele>261.3</ele>
        <time>2019-08-17T11:56:15Z</time>
      </trkpt>
      <trkpt lat="47.3413" lon="6.3386">
        <ele>261.5</ele>
        <time>2019-08-17T11:56:16Z</time>
      </trkpt>
      <trkpt lat="47.34129" lon="6.33852">
        <ele>261.7</ele>
        <time>2019-08-17T11:56:17Z</time>
      </trkpt>
      <trkpt lat="47.34128" lon="6.33845">
        <ele>261.8</ele>
        <time>2019-08-17T11:56:18Z</time>
      </trkpt>
      <trkpt lat="47.34128" lon="6.33838">
        <ele>262.1</ele>
        <time>2019-08-17T11:56:19Z</time>
      </trkpt>
      <trkpt lat="47.34128" lon="6.3383">
        <ele>262.4</ele>
        <time>2019-08-17T11:56:20Z</time>
      </trkpt>
      <trkpt lat="47.34128" lon="6.33822">
        <ele>262.8</ele>
        <time>2019-08-17T11:56:21Z</time>
      </trkpt>
      <trkpt lat="47.34127" lon="6.33813">
        <ele>263.3</ele>
        <time>2019-08-17T11:56:22Z</time>
      </trkpt>
      <trkpt lat="47.34126" lon="6.33805">
        <ele>263.6</ele>
        <time>2019-08-17T11:56:23Z</time>
      </trkpt>
      <trkpt lat="47.34124" lon="6.33796">
        <ele>264.1</ele>
        <time>2019-08-17T11:56:24Z</time>
      </trkpt>
      <trkpt lat="47.34124" lon="6.33789">
        <ele>264.5</ele>
        <time>2019-08-17T11:56:25Z</time>
      </trkpt>
      <trkpt lat="47.34124" lon="6.33779">
        <ele>265</ele>
        <time>2019-08-17T11:56:26Z</time>
      </trkpt>
      <trkpt lat="47.34124" lon="6.33771">
        <ele>265.5</ele>
        <time>2019-08-17T11:56:27Z</time>
      </trkpt>
      <trkpt lat="47.34124" lon="6.33761">
        <ele>266</ele>
        <time>2019-08-17T11:56:28Z</time>
      </trkpt>
      <trkpt lat="47.34124" lon="6.33751">
        <ele>266.4</ele>
        <time>2019-08-17T11:56:29Z</time>
      </trkpt>
      <trkpt lat="47.34123" lon="6.33741">
        <ele>266.7</ele>
        <time>2019-08-17T11:56:30Z</time>
      </trkpt>
      <trkpt lat="47.34123" lon="6.33732">
        <ele>267</ele>
        <time>2019-08-17T11:56:31Z</time>
      </trkpt>
      <trkpt lat="47.34124" lon="6.33723">
        <ele>267.3</ele>
        <time>2019-08-17T11:56:32Z</time>
      </trkpt>
      <trkpt lat="47.34124" lon="6.33714">
        <ele>267.6</ele>
        <time>2019-08-17T11:56:33Z</time>
      </trkpt>
      <trkpt lat="47.34125" lon="6.33705">
        <ele>267.9</ele>
        <time>2019-08-17T11:56:34Z</time>
      </trkpt>
      <trkpt lat="47.34126" lon="6.33693">
        <ele>268.2</ele>
        <time>2019-08-17T11:56:35Z</time>
      </trkpt>
      <trkpt lat="47.34128" lon="6.33683">
        <ele>268.5</ele>
        <time>2019-08-17T11:56:36Z</time>
      </trkpt>
      <trkpt lat="47.34129" lon="6.33674">
        <ele>268.8</ele>
        <time>2019-08-17T11:56:37Z</time>
      </trkpt>
      <trkpt lat="47.34131" lon="6.33667">
        <ele>269</ele>
        <time>2019-08-17T11:56:38Z</time>
      </trkpt>
      <trkpt lat="47.34133" lon="6.33658">
        <ele>269.2</ele>
        <time>2019-08-17T11:56:39Z</time>
      </trkpt>
      <trkpt lat="47.34134" lon="6.3365">
        <ele>269.5</ele>
        <time>2019-08-17T11:56:40Z</time>
      </trkpt>
      <trkpt lat="47.34136" lon="6.33642">
        <ele>269.5</ele>
        <time>2019-08-17T11:56:41Z</time>
      </trkpt>
      <trkpt lat="47.34138" lon="6.33636">
        <ele>269.4</ele>
        <time>2019-08-17T11:56:42Z</time>
      </trkpt>
      <trkpt lat="47.34141" lon="6.3363">
        <ele>269.4</ele>
        <time>2019-08-17T11:56:43Z</time>
      </trkpt>
      <trkpt lat="47.34143" lon="6.33624">
        <ele>269.5</ele>
        <time>2019-08-17T11:56:44Z</time>
      </trkpt>
      <trkpt lat="47.34145" lon="6.33617">
        <ele>269.5</ele>
        <time>2019-08-17T11:56:45Z</time>
      </trkpt>
      <trkpt lat="47.34147" lon="6.3361">
        <ele>269.5</ele>
        <time>2019-08-17T11:56:46Z</time>
      </trkpt>
      <trkpt lat="47.34149" lon="6.33602">
        <ele>269.6</ele>
        <time>2019-08-17T11:56:47Z</time>
      </trkpt>
      <trkpt lat="47.34151" lon="6.33593">
        <ele>269.7</ele>
        <time>2019-08-17T11:56:48Z</time>
      </trkpt>
      <trkpt lat="47.34152" lon="6.33585">
        <ele>269.7</ele>
        <time>2019-08-17T11:56:49Z</time>
      </trkpt>
      <trkpt lat="47.34154" lon="6.33576">
        <ele>269.8</ele>
        <time>2019-08-17T11:56:50Z</time>
      </trkpt>
      <trkpt lat="47.34156" lon="6.33568">
        <ele>269.8</ele>
        <time>2019-08-17T11:56:51Z</time>
      </trkpt>
      <trkpt lat="47.34158" lon="6.3356">
        <ele>269.8</ele>
        <time>2019-08-17T11:56:52Z</time>
      </trkpt>
      <trkpt lat="47.34161" lon="6.33554">
        <ele>269.7</ele>
        <time>2019-08-17T11:56:53Z</time>
      </trkpt>
      <trkpt lat="47.34164" lon="6.33545">
        <ele>269.6</ele>
        <time>2019-08-17T11:56:54Z</time>
      </trkpt>
      <trkpt lat="47.34165" lon="6.33537">
        <ele>269.6</ele>
        <time>2019-08-17T11:56:55Z</time>
      </trkpt>
      <trkpt lat="47.34167" lon="6.33528">
        <ele>269.5</ele>
        <time>2019-08-17T11:56:56Z</time>
      </trkpt>
      <trkpt lat="47.34168" lon="6.33518">
        <ele>269.4</ele>
        <time>2019-08-17T11:56:57Z</time>
      </trkpt>
      <trkpt lat="47.3417" lon="6.33509">
        <ele>269.3</ele>
        <time>2019-08-17T11:56:58Z</time>
      </trkpt>
      <trkpt lat="47.34172" lon="6.335">
        <ele>269.3</ele>
        <time>2019-08-17T11:56:59Z</time>
      </trkpt>
      <trkpt lat="47.34174" lon="6.3349">
        <ele>269.2</ele>
        <time>2019-08-17T11:57:00Z</time>
      </trkpt>
      <trkpt lat="47.34175" lon="6.33482">
        <ele>269.1</ele>
        <time>2019-08-17T11:57:01Z</time>
      </trkpt>
      <trkpt lat="47.34176" lon="6.33475">
        <ele>269</ele>
        <time>2019-08-17T11:57:02Z</time>
      </trkpt>
      <trkpt lat="47.34177" lon="6.33466">
        <ele>268.9</ele>
        <time>2019-08-17T11:57:03Z</time>
      </trkpt>
      <trkpt lat="47.34179" lon="6.33458">
        <ele>268.7</ele>
        <time>2019-08-17T11:57:04Z</time>
      </trkpt>
      <trkpt lat="47.34181" lon="6.3345">
        <ele>268.3</ele>
        <time>2019-08-17T11:57:05Z</time>
      </trkpt>
      <trkpt lat="47.34182" lon="6.33441">
        <ele>267.9</ele>
        <time>2019-08-17T11:57:06Z</time>
      </trkpt>
      <trkpt lat="47.34184" lon="6.33434">
        <ele>267.5</ele>
        <time>2019-08-17T11:57:07Z</time>
      </trkpt>
      <trkpt lat="47.34186" lon="6.33428">
        <ele>267.1</ele>
        <time>2019-08-17T11:57:08Z</time>
      </trkpt>
      <trkpt lat="47.34188" lon="6.33425">
        <ele>266.8</ele>
        <time>2019-08-17T11:57:09Z</time>
      </trkpt>
      <trkpt lat="47.34186" lon="6.33428">
        <ele>266.5</ele>
        <time>2019-08-17T11:57:10Z</time>
      </trkpt>
      <trkpt lat="47.34183" lon="6.33431">
        <ele>266.1</ele>
        <time>2019-08-17T11:57:12Z</time>
      </trkpt>
      <trkpt lat="47.34186" lon="6.33428">
        <ele>265.8</ele>
        <time>2019-08-17T11:57:19Z</time>
      </trkpt>
      <trkpt lat="47.34189" lon="6.3343">
        <ele>265.3</ele>
        <time>2019-08-17T11:57:21Z</time>
      </trkpt>
      <trkpt lat="47.34191" lon="6.33434">
        <ele>265</ele>
        <time>2019-08-17T11:57:27Z</time>
      </trkpt>
      <trkpt lat="47.34189" lon="6.33432">
        <ele>264.7</ele>
        <time>2019-08-17T11:57:37Z</time>
      </trkpt>
      <trkpt lat="47.34187" lon="6.33423">
        <ele>264.1</ele>
        <time>2019-08-17T11:58:14Z</time>
      </trkpt>
      <trkpt lat="47.34189" lon="6.33417">
        <ele>263.8</ele>
        <time>2019-08-17T11:58:16Z</time>
      </trkpt>
      <trkpt lat="47.34189" lon="6.33412">
        <ele>263.6</ele>
        <time>2019-08-17T11:58:17Z</time>
      </trkpt>
      <trkpt lat="47.3419" lon="6.33407">
        <ele>263.4</ele>
        <time>2019-08-17T11:58:18Z</time>
      </trkpt>
      <trkpt lat="47.34192" lon="6.33402">
        <ele>263.3</ele>
        <time>2019-08-17T11:58:19Z</time>
      </trkpt>
      <trkpt lat="47.34194" lon="6.33397">
        <ele>263.2</ele>
        <time>2019-08-17T11:58:20Z</time>
      </trkpt>
      <trkpt lat="47.34195" lon="6.33392">
        <ele>263.1</ele>
        <time>2019-08-17T11:58:21Z</time>
      </trkpt>
      <trkpt lat="47.34196" lon="6.33387">
        <ele>263.1</ele>
        <time>2019-08-17T11:58:22Z</time>
      </trkpt>
      <trkpt lat="47.34198" lon="6.33382">
        <ele>263</ele>
        <time>2019-08-17T11:58:23Z</time>
      </trkpt>
      <trkpt lat="47.34199" lon="6.33377">
        <ele>263</ele>
        <time>2019-08-17T11:58:24Z</time>
      </trkpt>
      <trkpt lat="47.342" lon="6.33372">
        <ele>263</ele>
        <time>2019-08-17T11:58:25Z</time>
      </trkpt>
      <trkpt lat="47.34201" lon="6.33367">
        <ele>263</ele>
        <time>2019-08-17T11:58:26Z</time>
      </trkpt>
      <trkpt lat="47.34202" lon="6.33361">
        <ele>261</ele>
        <time>2019-08-17T11:58:27Z</time>
      </trkpt>
      <trkpt lat="47.34203" lon="6.33355">
        <ele>259.4</ele>
        <time>2019-08-17T11:58:28Z</time>
      </trkpt>
      <trkpt lat="47.34204" lon="6.33349">
        <ele>258</ele>
        <time>2019-08-17T11:58:29Z</time>
      </trkpt>
      <trkpt lat="47.34205" lon="6.33342">
        <ele>258.1</ele>
        <time>2019-08-17T11:58:30Z</time>
      </trkpt>
      <trkpt lat="47.34205" lon="6.33336">
        <ele>258.1</ele>
        <time>2019-08-17T11:58:31Z</time>
      </trkpt>
      <trkpt lat="47.34206" lon="6.3333">
        <ele>258.2</ele>
        <time>2019-08-17T11:58:32Z</time>
      </trkpt>
      <trkpt lat="47.34207" lon="6.33323">
        <ele>258.2</ele>
        <time>2019-08-17T11:58:33Z</time>
      </trkpt>
      <trkpt lat="47.34207" lon="6.33316">
        <ele>258.3</ele>
        <time>2019-08-17T11:58:34Z</time>
      </trkpt>
      <trkpt lat="47.34208" lon="6.3331">
        <ele>258.2</ele>
        <time>2019-08-17T11:58:35Z</time>
      </trkpt>
      <trkpt lat="47.34209" lon="6.33304">
        <ele>258.2</ele>
        <time>2019-08-17T11:58:36Z</time>
      </trkpt>
      <trkpt lat="47.3421" lon="6.33298">
        <ele>258.1</ele>
        <time>2019-08-17T11:58:37Z</time>
      </trkpt>
      <trkpt lat="47.3421" lon="6.33292">
        <ele>258.1</ele>
        <time>2019-08-17T11:58:38Z</time>
      </trkpt>
      <trkpt lat="47.34212" lon="6.33285">
        <ele>258</ele>
        <time>2019-08-17T11:58:39Z</time>
      </trkpt>
      <trkpt lat="47.34212" lon="6.33279">
        <ele>258</ele>
        <time>2019-08-17T11:58:40Z</time>
      </trkpt>
      <trkpt lat="47.34213" lon="6.33274">
        <ele>258</ele>
        <time>2019-08-17T11:58:41Z</time>
      </trkpt>
      <trkpt lat="47.34214" lon="6.33268">
        <ele>258</ele>
        <time>2019-08-17T11:58:42Z</time>
      </trkpt>
      <trkpt lat="47.34214" lon="6.33263">
        <ele>258</ele>
        <time>2019-08-17T11:58:43Z</time>
      </trkpt>
      <trkpt lat="47.34215" lon="6.33257">
        <ele>258</ele>
        <time>2019-08-17T11:58:44Z</time>
      </trkpt>
      <trkpt lat="47.34217" lon="6.3325">
        <ele>258.1</ele>
        <time>2019-08-17T11:58:45Z</time>
      </trkpt>
      <trkpt lat="47.34218" lon="6.33245">
        <ele>258.1</ele>
        <time>2019-08-17T11:58:46Z</time>
      </trkpt>
      <trkpt lat="47.34219" lon="6.33239">
        <ele>258.2</ele>
        <time>2019-08-17T11:58:47Z</time>
      </trkpt>
      <trkpt lat="47.34221" lon="6.33233">
        <ele>258.3</ele>
        <time>2019-08-17T11:58:48Z</time>
      </trkpt>
      <trkpt lat="47.34222" lon="6.33228">
        <ele>258.4</ele>
        <time>2019-08-17T11:58:49Z</time>
      </trkpt>
      <trkpt lat="47.34223" lon="6.33223">
        <ele>258.4</ele>
        <time>2019-08-17T11:58:50Z</time>
      </trkpt>
      <trkpt lat="47.34225" lon="6.33217">
        <ele>258.5</ele>
        <time>2019-08-17T11:58:51Z</time>
      </trkpt>
      <trkpt lat="47.34226" lon="6.33212">
        <ele>258.6</ele>
        <time>2019-08-17T11:58:52Z</time>
      </trkpt>
      <trkpt lat="47.34228" lon="6.33206">
        <ele>258.7</ele>
        <time>2019-08-17T11:58:53Z</time>
      </trkpt>
      <trkpt lat="47.34229" lon="6.33199">
        <ele>258.7</ele>
        <time>2019-08-17T11:58:54Z</time>
      </trkpt>
      <trkpt lat="47.34231" lon="6.33193">
        <ele>258.8</ele>
        <time>2019-08-17T11:58:55Z</time>
      </trkpt>
      <trkpt lat="47.34232" lon="6.33186">
        <ele>258.8</ele>
        <time>2019-08-17T11:58:56Z</time>
      </trkpt>
      <trkpt lat="47.34233" lon="6.33178">
        <ele>258.9</ele>
        <time>2019-08-17T11:58:57Z</time>
      </trkpt>
      <trkpt lat="47.34235" lon="6.33171">
        <ele>258.9</ele>
        <time>2019-08-17T11:58:58Z</time>
      </trkpt>
      <trkpt lat="47.34236" lon="6.33164">
        <ele>258.9</ele>
        <time>2019-08-17T11:58:59Z</time>
      </trkpt>
      <trkpt lat="47.34238" lon="6.33157">
        <ele>258.9</ele>
        <time>2019-08-17T11:59:00Z</time>
      </trkpt>
      <trkpt lat="47.34239" lon="6.3315">
        <ele>258.9</ele>
        <time>2019-08-17T11:59:01Z</time>
      </trkpt>
      <trkpt lat="47.34241" lon="6.33143">
        <ele>258.9</ele>
        <time>2019-08-17T11:59:02Z</time>
      </trkpt>
      <trkpt lat="47.34242" lon="6.33136">
        <ele>258.9</ele>
        <time>2019-08-17T11:59:03Z</time>
      </trkpt>
      <trkpt lat="47.34243" lon="6.33129">
        <ele>259</ele>
        <time>2019-08-17T11:59:04Z</time>
      </trkpt>
      <trkpt lat="47.34244" lon="6.33123">
        <ele>259</ele>
        <time>2019-08-17T11:59:05Z</time>
      </trkpt>
      <trkpt lat="47.34245" lon="6.33115">
        <ele>259</ele>
        <time>2019-08-17T11:59:06Z</time>
      </trkpt>
      <trkpt lat="47.34247" lon="6.33108">
        <ele>259.1</ele>
        <time>2019-08-17T11:59:07Z</time>
      </trkpt>
      <trkpt lat="47.34248" lon="6.33101">
        <ele>259.2</ele>
        <time>2019-08-17T11:59:08Z</time>
      </trkpt>
      <trkpt lat="47.3425" lon="6.33094">
        <ele>259.2</ele>
        <time>2019-08-17T11:59:09Z</time>
      </trkpt>
      <trkpt lat="47.34251" lon="6.33087">
        <ele>259.3</ele>
        <time>2019-08-17T11:59:10Z</time>
      </trkpt>
      <trkpt lat="47.34253" lon="6.3308">
        <ele>259.4</ele>
        <time>2019-08-17T11:59:11Z</time>
      </trkpt>
      <trkpt lat="47.34255" lon="6.33073">
        <ele>259.5</ele>
        <time>2019-08-17T11:59:12Z</time>
      </trkpt>
      <trkpt lat="47.34256" lon="6.33066">
        <ele>259.6</ele>
        <time>2019-08-17T11:59:13Z</time>
      </trkpt>
      <trkpt lat="47.34258" lon="6.3306">
        <ele>259.7</ele>
        <time>2019-08-17T11:59:14Z</time>
      </trkpt>
      <trkpt lat="47.3426" lon="6.33053">
        <ele>259.8</ele>
        <time>2019-08-17T11:59:15Z</time>
      </trkpt>
      <trkpt lat="47.34262" lon="6.33047">
        <ele>259.8</ele>
        <time>2019-08-17T11:59:16Z</time>
      </trkpt>
      <trkpt lat="47.34264" lon="6.33041">
        <ele>259.9</ele>
        <time>2019-08-17T11:59:17Z</time>
      </trkpt>
      <trkpt lat="47.34265" lon="6.33035">
        <ele>260</ele>
        <time>2019-08-17T11:59:18Z</time>
      </trkpt>
      <trkpt lat="47.34267" lon="6.33029">
        <ele>260</ele>
        <time>2019-08-17T11:59:19Z</time>
      </trkpt>
      <trkpt lat="47.34268" lon="6.33022">
        <ele>260.1</ele>
        <time>2019-08-17T11:59:20Z</time>
      </trkpt>
      <trkpt lat="47.34269" lon="6.33014">
        <ele>260.1</ele>
        <time>2019-08-17T11:59:21Z</time>
      </trkpt>
      <trkpt lat="47.34271" lon="6.33007">
        <ele>260.1</ele>
        <time>2019-08-17T11:59:22Z</time>
      </trkpt>
      <trkpt lat="47.34272" lon="6.32999">
        <ele>260.1</ele>
        <time>2019-08-17T11:59:23Z</time>
      </trkpt>
      <trkpt lat="47.34274" lon="6.32993">
        <ele>260</ele>
        <time>2019-08-17T11:59:24Z</time>
      </trkpt>
      <trkpt lat="47.34275" lon="6.32986">
        <ele>260</ele>
        <time>2019-08-17T11:59:25Z</time>
      </trkpt>
      <trkpt lat="47.34277" lon="6.32981">
        <ele>259.9</ele>
        <time>2019-08-17T11:59:26Z</time>
      </trkpt>
      <trkpt lat="47.34279" lon="6.32975">
        <ele>259.9</ele>
        <time>2019-08-17T11:59:27Z</time>
      </trkpt>
      <trkpt lat="47.34281" lon="6.32969">
        <ele>259.8</ele>
        <time>2019-08-17T11:59:28Z</time>
      </trkpt>
      <trkpt lat="47.34282" lon="6.32963">
        <ele>259.7</ele>
        <time>2019-08-17T11:59:29Z</time>
      </trkpt>
      <trkpt lat="47.34283" lon="6.32958">
        <ele>259.6</ele>
        <time>2019-08-17T11:59:30Z</time>
      </trkpt>
      <trkpt lat="47.34284" lon="6.32952">
        <ele>259.6</ele>
        <time>2019-08-17T11:59:31Z</time>
      </trkpt>
      <trkpt lat="47.34286" lon="6.32947">
        <ele>259.5</ele>
        <time>2019-08-17T11:59:32Z</time>
      </trkpt>
      <trkpt lat="47.34287" lon="6.32942">
        <ele>259.4</ele>
        <time>2019-08-17T11:59:33Z</time>
      </trkpt>
      <trkpt lat="47.34288" lon="6.32936">
        <ele>259.3</ele>
        <time>2019-08-17T11:59:34Z</time>
      </trkpt>
      <trkpt lat="47.34289" lon="6.32931">
        <ele>259.3</ele>
        <time>2019-08-17T11:59:35Z</time>
      </trkpt>
      <trkpt lat="47.3429" lon="6.32925">
        <ele>259.2</ele>
        <time>2019-08-17T11:59:36Z</time>
      </trkpt>
      <trkpt lat="47.34291" lon="6.32918">
        <ele>259.2</ele>
        <time>2019-08-17T11:59:37Z</time>
      </trkpt>
      <trkpt lat="47.34294" lon="6.3291">
        <ele>259.2</ele>
        <time>2019-08-17T11:59:38Z</time>
      </trkpt>
      <trkpt lat="47.34295" lon="6.32903">
        <ele>259.1</ele>
        <time>2019-08-17T11:59:39Z</time>
      </trkpt>
      <trkpt lat="47.34297" lon="6.32896">
        <ele>259.1</ele>
        <time>2019-08-17T11:59:40Z</time>
      </trkpt>
      <trkpt lat="47.34299" lon="6.32888">
        <ele>259.2</ele>
        <time>2019-08-17T11:59:41Z</time>
      </trkpt>
      <trkpt lat="47.34301" lon="6.3288">
        <ele>259.2</ele>
        <time>2019-08-17T11:59:42Z</time>
      </trkpt>
      <trkpt lat="47.34302" lon="6.32873">
        <ele>259.2</ele>
        <time>2019-08-17T11:59:43Z</time>
      </trkpt>
      <trkpt lat="47.34304" lon="6.32865">
        <ele>259.2</ele>
        <time>2019-08-17T11:59:44Z</time>
      </trkpt>
      <trkpt lat="47.34306" lon="6.32858">
        <ele>259.3</ele>
        <time>2019-08-17T11:59:45Z</time>
      </trkpt>
      <trkpt lat="47.34308" lon="6.3285">
        <ele>259.3</ele>
        <time>2019-08-17T11:59:46Z</time>
      </trkpt>
      <trkpt lat="47.34309" lon="6.32843">
        <ele>259.3</ele>
        <time>2019-08-17T11:59:47Z</time>
      </trkpt>
      <trkpt lat="47.34311" lon="6.32834">
        <ele>259.4</ele>
        <time>2019-08-17T11:59:48Z</time>
      </trkpt>
      <trkpt lat="47.34313" lon="6.32827">
        <ele>259.5</ele>
        <time>2019-08-17T11:59:49Z</time>
      </trkpt>
      <trkpt lat="47.34314" lon="6.3282">
        <ele>259.5</ele>
        <time>2019-08-17T11:59:50Z</time>
      </trkpt>
      <trkpt lat="47.34316" lon="6.32814">
        <ele>259.6</ele>
        <time>2019-08-17T11:59:51Z</time>
      </trkpt>
      <trkpt lat="47.34317" lon="6.32808">
        <ele>259.6</ele>
        <time>2019-08-17T11:59:52Z</time>
      </trkpt>
      <trkpt lat="47.34319" lon="6.32803">
        <ele>259.6</ele>
        <time>2019-08-17T11:59:53Z</time>
      </trkpt>
      <trkpt lat="47.34321" lon="6.32798">
        <ele>259.7</ele>
        <time>2019-08-17T11:59:54Z</time>
      </trkpt>
      <trkpt lat="47.34323" lon="6.32792">
        <ele>259.7</ele>
        <time>2019-08-17T11:59:55Z</time>
      </trkpt>
      <trkpt lat="47.34325" lon="6.32785">
        <ele>259.8</ele>
        <time>2019-08-17T11:59:56Z</time>
      </trkpt>
      <trkpt lat="47.34325" lon="6.32777">
        <ele>259.8</ele>
        <time>2019-08-17T11:59:57Z</time>
      </trkpt>
      <trkpt lat="47.34327" lon="6.3277">
        <ele>259.9</ele>
        <time>2019-08-17T11:59:58Z</time>
      </trkpt>
      <trkpt lat="47.34328" lon="6.32764">
        <ele>259.9</ele>
        <time>2019-08-17T11:59:59Z</time>
      </trkpt>
      <trkpt lat="47.34329" lon="6.32758">
        <ele>259.9</ele>
        <time>2019-08-17T12:00:00Z</time>
      </trkpt>
      <trkpt lat="47.3433" lon="6.32752">
        <ele>260</ele>
        <time>2019-08-17T12:00:01Z</time>
      </trkpt>
      <trkpt lat="47.34332" lon="6.32746">
        <ele>260</ele>
        <time>2019-08-17T12:00:02Z</time>
      </trkpt>
      <trkpt lat="47.34333" lon="6.32739">
        <ele>260</ele>
        <time>2019-08-17T12:00:03Z</time>
      </trkpt>
      <trkpt lat="47.34334" lon="6.32732">
        <ele>260.1</ele>
        <time>2019-08-17T12:00:04Z</time>
      </trkpt>
      <trkpt lat="47.34335" lon="6.32725">
        <ele>260.1</ele>
        <time>2019-08-17T12:00:05Z</time>
      </trkpt>
      <trkpt lat="47.34336" lon="6.32718">
        <ele>260.2</ele>
        <time>2019-08-17T12:00:06Z</time>
      </trkpt>
      <trkpt lat="47.34337" lon="6.32711">
        <ele>260.3</ele>
        <time>2019-08-17T12:00:07Z</time>
      </trkpt>
      <trkpt lat="47.34338" lon="6.32704">
        <ele>260.4</ele>
        <time>2019-08-17T12:00:08Z</time>
      </trkpt>
      <trkpt lat="47.3434" lon="6.32697">
        <ele>260.4</ele>
        <time>2019-08-17T12:00:09Z</time>
      </trkpt>
      <trkpt lat="47.34341" lon="6.3269">
        <ele>260.5</ele>
        <time>2019-08-17T12:00:10Z</time>
      </trkpt>
      <trkpt lat="47.34343" lon="6.32682">
        <ele>260.6</ele>
        <time>2019-08-17T12:00:11Z</time>
      </trkpt>
      <trkpt lat="47.34344" lon="6.32675">
        <ele>260.6</ele>
        <time>2019-08-17T12:00:12Z</time>
      </trkpt>
      <trkpt lat="47.34346" lon="6.32669">
        <ele>260.7</ele>
        <time>2019-08-17T12:00:13Z</time>
      </trkpt>
      <trkpt lat="47.34347" lon="6.32662">
        <ele>260.7</ele>
        <time>2019-08-17T12:00:14Z</time>
      </trkpt>
      <trkpt lat="47.34348" lon="6.32656">
        <ele>260.8</ele>
        <time>2019-08-17T12:00:15Z</time>
      </trkpt>
      <trkpt lat="47.34349" lon="6.32649">
        <ele>260.8</ele>
        <time>2019-08-17T12:00:16Z</time>
      </trkpt>
      <trkpt lat="47.34349" lon="6.32643">
        <ele>260.8</ele>
        <time>2019-08-17T12:00:17Z</time>
      </trkpt>
      <trkpt lat="47.34349" lon="6.32636">
        <ele>260.7</ele>
        <time>2019-08-17T12:00:18Z</time>
      </trkpt>
      <trkpt lat="47.3435" lon="6.3263">
        <ele>260.7</ele>
        <time>2019-08-17T12:00:19Z</time>
      </trkpt>
      <trkpt lat="47.3435" lon="6.32623">
        <ele>260.7</ele>
        <time>2019-08-17T12:00:20Z</time>
      </trkpt>
      <trkpt lat="47.34351" lon="6.32616">
        <ele>260.7</ele>
        <time>2019-08-17T12:00:21Z</time>
      </trkpt>
      <trkpt lat="47.34351" lon="6.32609">
        <ele>260.6</ele>
        <time>2019-08-17T12:00:22Z</time>
      </trkpt>
      <trkpt lat="47.34352" lon="6.32602">
        <ele>260.6</ele>
        <time>2019-08-17T12:00:23Z</time>
      </trkpt>
      <trkpt lat="47.34352" lon="6.32596">
        <ele>260.6</ele>
        <time>2019-08-17T12:00:24Z</time>
      </trkpt>
      <trkpt lat="47.34352" lon="6.3259">
        <ele>260.5</ele>
        <time>2019-08-17T12:00:25Z</time>
      </trkpt>
      <trkpt lat="47.34352" lon="6.32582">
        <ele>260.5</ele>
        <time>2019-08-17T12:00:26Z</time>
      </trkpt>
      <trkpt lat="47.34352" lon="6.32575">
        <ele>260.4</ele>
        <time>2019-08-17T12:00:27Z</time>
      </trkpt>
      <trkpt lat="47.34351" lon="6.32569">
        <ele>260.4</ele>
        <time>2019-08-17T12:00:28Z</time>
      </trkpt>
      <trkpt lat="47.34352" lon="6.32562">
        <ele>260.3</ele>
        <time>2019-08-17T12:00:29Z</time>
      </trkpt>
      <trkpt lat="47.34352" lon="6.32554">
        <ele>260.3</ele>
        <time>2019-08-17T12:00:30Z</time>
      </trkpt>
      <trkpt lat="47.34352" lon="6.32547">
        <ele>260.3</ele>
        <time>2019-08-17T12:00:31Z</time>
      </trkpt>
      <trkpt lat="47.34352" lon="6.32538">
        <ele>260.3</ele>
        <time>2019-08-17T12:00:32Z</time>
      </trkpt>
      <trkpt lat="47.34352" lon="6.32531">
        <ele>260.4</ele>
        <time>2019-08-17T12:00:33Z</time>
      </trkpt>
      <trkpt lat="47.34352" lon="6.32523">
        <ele>260.4</ele>
        <time>2019-08-17T12:00:34Z</time>
      </trkpt>
      <trkpt lat="47.3435" lon="6.32516">
        <ele>260.5</ele>
        <time>2019-08-17T12:00:35Z</time>
      </trkpt>
      <trkpt lat="47.3435" lon="6.32508">
        <ele>260.5</ele>
        <time>2019-08-17T12:00:36Z</time>
      </trkpt>
      <trkpt lat="47.34349" lon="6.325">
        <ele>260.6</ele>
        <time>2019-08-17T12:00:37Z</time>
      </trkpt>
      <trkpt lat="47.34349" lon="6.32492">
        <ele>260.7</ele>
        <time>2019-08-17T12:00:38Z</time>
      </trkpt>
      <trkpt lat="47.34349" lon="6.32486">
        <ele>260.7</ele>
        <time>2019-08-17T12:00:39Z</time>
      </trkpt>
      <trkpt lat="47.34349" lon="6.32479">
        <ele>260.7</ele>
        <time>2019-08-17T12:00:40Z</time>
      </trkpt>
      <trkpt lat="47.34348" lon="6.32472">
        <ele>260.8</ele>
        <time>2019-08-17T12:00:41Z</time>
      </trkpt>
      <trkpt lat="47.34347" lon="6.32466">
        <ele>260.8</ele>
        <time>2019-08-17T12:00:42Z</time>
      </trkpt>
      <trkpt lat="47.34345" lon="6.3246">
        <ele>260.8</ele>
        <time>2019-08-17T12:00:43Z</time>
      </trkpt>
      <trkpt lat="47.34343" lon="6.32454">
        <ele>260.8</ele>
        <time>2019-08-17T12:00:44Z</time>
      </trkpt>
      <trkpt lat="47.34342" lon="6.32447">
        <ele>260.8</ele>
        <time>2019-08-17T12:00:45Z</time>
      </trkpt>
      <trkpt lat="47.34341" lon="6.3244">
        <ele>260.8</ele>
        <time>2019-08-17T12:00:46Z</time>
      </trkpt>
      <trkpt lat="47.34341" lon="6.32433">
        <ele>260.8</ele>
        <time>2019-08-17T12:00:47Z</time>
      </trkpt>
      <trkpt lat="47.3434" lon="6.32427">
        <ele>260.8</ele>
        <time>2019-08-17T12:00:48Z</time>
      </trkpt>
      <trkpt lat="47.34339" lon="6.3242">
        <ele>260.8</ele>
        <time>2019-08-17T12:00:49Z</time>
      </trkpt>
      <trkpt lat="47.34339" lon="6.32413">
        <ele>260.9</ele>
        <time>2019-08-17T12:00:50Z</time>
      </trkpt>
      <trkpt lat="47.34338" lon="6.32408">
        <ele>261</ele>
        <time>2019-08-17T12:00:51Z</time>
      </trkpt>
      <trkpt lat="47.34337" lon="6.324">
        <ele>261.1</ele>
        <time>2019-08-17T12:00:52Z</time>
      </trkpt>
      <trkpt lat="47.34335" lon="6.32393">
        <ele>261.3</ele>
        <time>2019-08-17T12:00:53Z</time>
      </trkpt>
      <trkpt lat="47.34334" lon="6.32385">
        <ele>261.5</ele>
        <time>2019-08-17T12:00:54Z</time>
      </trkpt>
      <trkpt lat="47.34332" lon="6.32378">
        <ele>261.8</ele>
        <time>2019-08-17T12:00:55Z</time>
      </trkpt>
      <trkpt lat="47.34331" lon="6.32371">
        <ele>262.2</ele>
        <time>2019-08-17T12:00:56Z</time>
      </trkpt>
      <trkpt lat="47.3433" lon="6.32364">
        <ele>262.6</ele>
        <time>2019-08-17T12:00:57Z</time>
      </trkpt>
      <trkpt lat="47.34329" lon="6.32357">
        <ele>263</ele>
        <time>2019-08-17T12:00:58Z</time>
      </trkpt>
      <trkpt lat="47.34327" lon="6.32349">
        <ele>263.5</ele>
        <time>2019-08-17T12:00:59Z</time>
      </trkpt>
      <trkpt lat="47.34325" lon="6.32341">
        <ele>264.1</ele>
        <time>2019-08-17T12:01:00Z</time>
      </trkpt>
      <trkpt lat="47.34323" lon="6.32334">
        <ele>264.6</ele>
        <time>2019-08-17T12:01:01Z</time>
      </trkpt>
      <trkpt lat="47.34322" lon="6.32327">
        <ele>265.1</ele>
        <time>2019-08-17T12:01:02Z</time>
      </trkpt>
      <trkpt lat="47.34321" lon="6.32319">
        <ele>265.5</ele>
        <time>2019-08-17T12:01:03Z</time>
      </trkpt>
      <trkpt lat="47.3432" lon="6.32313">
        <ele>265.8</ele>
        <time>2019-08-17T12:01:04Z</time>
      </trkpt>
      <trkpt lat="47.34319" lon="6.32307">
        <ele>266.1</ele>
        <time>2019-08-17T12:01:05Z</time>
      </trkpt>
      <trkpt lat="47.34318" lon="6.323">
        <ele>266.3</ele>
        <time>2019-08-17T12:01:06Z</time>
      </trkpt>
      <trkpt lat="47.34317" lon="6.32293">
        <ele>266.4</ele>
        <time>2019-08-17T12:01:07Z</time>
      </trkpt>
      <trkpt lat="47.34315" lon="6.32287">
        <ele>266.5</ele>
        <time>2019-08-17T12:01:08Z</time>
      </trkpt>
      <trkpt lat="47.34313" lon="6.32281">
        <ele>266.5</ele>
        <time>2019-08-17T12:01:09Z</time>
      </trkpt>
      <trkpt lat="47.34311" lon="6.32275">
        <ele>266.5</ele>
        <time>2019-08-17T12:01:10Z</time>
      </trkpt>
      <trkpt lat="47.34309" lon="6.32268">
        <ele>266.4</ele>
        <time>2019-08-17T12:01:11Z</time>
      </trkpt>
      <trkpt lat="47.34307" lon="6.32262">
        <ele>266.3</ele>
        <time>2019-08-17T12:01:12Z</time>
      </trkpt>
      <trkpt lat="47.34306" lon="6.32255">
        <ele>266.1</ele>
        <time>2019-08-17T12:01:13Z</time>
      </trkpt>
      <trkpt lat="47.34305" lon="6.32249">
        <ele>265.9</ele>
        <time>2019-08-17T12:01:14Z</time>
      </trkpt>
      <trkpt lat="47.34304" lon="6.32242">
        <ele>265.6</ele>
        <time>2019-08-17T12:01:15Z</time>
      </trkpt>
      <trkpt lat="47.34302" lon="6.32234">
        <ele>265.2</ele>
        <time>2019-08-17T12:01:16Z</time>
      </trkpt>
      <trkpt lat="47.343" lon="6.32227">
        <ele>264.8</ele>
        <time>2019-08-17T12:01:17Z</time>
      </trkpt>
      <trkpt lat="47.343" lon="6.32221">
        <ele>264.4</ele>
        <time>2019-08-17T12:01:18Z</time>
      </trkpt>
      <trkpt lat="47.34298" lon="6.32214">
        <ele>264</ele>
        <time>2019-08-17T12:01:19Z</time>
      </trkpt>
      <trkpt lat="47.34297" lon="6.32207">
        <ele>263.6</ele>
        <time>2019-08-17T12:01:20Z</time>
      </trkpt>
      <trkpt lat="47.34294" lon="6.322">
        <ele>263.2</ele>
        <time>2019-08-17T12:01:21Z</time>
      </trkpt>
      <trkpt lat="47.34293" lon="6.32191">
        <ele>262.9</ele>
        <time>2019-08-17T12:01:22Z</time>
      </trkpt>
      <trkpt lat="47.34291" lon="6.32184">
        <ele>262.7</ele>
        <time>2019-08-17T12:01:23Z</time>
      </trkpt>
      <trkpt lat="47.34289" lon="6.32178">
        <ele>262.5</ele>
        <time>2019-08-17T12:01:24Z</time>
      </trkpt>
      <trkpt lat="47.34287" lon="6.32171">
        <ele>262.5</ele>
        <time>2019-08-17T12:01:25Z</time>
      </trkpt>
      <trkpt lat="47.34286" lon="6.32164">
        <ele>262.4</ele>
        <time>2019-08-17T12:01:26Z</time>
      </trkpt>
      <trkpt lat="47.34284" lon="6.32157">
        <ele>262.4</ele>
        <time>2019-08-17T12:01:27Z</time>
      </trkpt>
      <trkpt lat="47.34283" lon="6.3215">
        <ele>262.5</ele>
        <time>2019-08-17T12:01:28Z</time>
      </trkpt>
      <trkpt lat="47.34281" lon="6.32142">
        <ele>262.5</ele>
        <time>2019-08-17T12:01:29Z</time>
      </trkpt>
      <trkpt lat="47.34279" lon="6.32136">
        <ele>262.6</ele>
        <time>2019-08-17T12:01:30Z</time>
      </trkpt>
      <trkpt lat="47.34277" lon="6.3213">
        <ele>262.7</ele>
        <time>2019-08-17T12:01:31Z</time>
      </trkpt>
      <trkpt lat="47.34275" lon="6.32123">
        <ele>262.8</ele>
        <time>2019-08-17T12:01:32Z</time>
      </trkpt>
      <trkpt lat="47.34274" lon="6.32118">
        <ele>262.8</ele>
        <time>2019-08-17T12:01:33Z</time>
      </trkpt>
      <trkpt lat="47.34271" lon="6.32113">
        <ele>262.9</ele>
        <time>2019-08-17T12:01:34Z</time>
      </trkpt>
      <trkpt lat="47.34268" lon="6.32108">
        <ele>263</ele>
        <time>2019-08-17T12:01:35Z</time>
      </trkpt>
      <trkpt lat="47.34265" lon="6.32101">
        <ele>263.1</ele>
        <time>2019-08-17T12:01:36Z</time>
      </trkpt>
      <trkpt lat="47.34263" lon="6.32095">
        <ele>263.2</ele>
        <time>2019-08-17T12:01:37Z</time>
      </trkpt>
      <trkpt lat="47.34261" lon="6.32089">
        <ele>263.3</ele>
        <time>2019-08-17T12:01:38Z</time>
      </trkpt>
      <trkpt lat="47.3426" lon="6.32083">
        <ele>263.4</ele>
        <time>2019-08-17T12:01:39Z</time>
      </trkpt>
      <trkpt lat="47.34259" lon="6.32076">
        <ele>263.5</ele>
        <time>2019-08-17T12:01:40Z</time>
      </trkpt>
      <trkpt lat="47.34257" lon="6.3207">
        <ele>263.6</ele>
        <time>2019-08-17T12:01:41Z</time>
      </trkpt>
      <trkpt lat="47.34255" lon="6.32064">
        <ele>263.6</ele>
        <time>2019-08-17T12:01:42Z</time>
      </trkpt>
      <trkpt lat="47.34253" lon="6.32057">
        <ele>263.7</ele>
        <time>2019-08-17T12:01:43Z</time>
      </trkpt>
      <trkpt lat="47.3425" lon="6.3205">
        <ele>263.7</ele>
        <time>2019-08-17T12:01:44Z</time>
      </trkpt>
      <trkpt lat="47.34248" lon="6.32042">
        <ele>263.8</ele>
        <time>2019-08-17T12:01:45Z</time>
      </trkpt>
      <trkpt lat="47.34246" lon="6.32036">
        <ele>263.8</ele>
        <time>2019-08-17T12:01:46Z</time>
      </trkpt>
      <trkpt lat="47.34243" lon="6.32031">
        <ele>263.8</ele>
        <time>2019-08-17T12:01:47Z</time>
      </trkpt>
      <trkpt lat="47.34239" lon="6.32025">
        <ele>263.8</ele>
        <time>2019-08-17T12:01:48Z</time>
      </trkpt>
      <trkpt lat="47.34236" lon="6.32021">
        <ele>263.8</ele>
        <time>2019-08-17T12:01:49Z</time>
      </trkpt>
      <trkpt lat="47.34232" lon="6.32017">
        <ele>263.8</ele>
        <time>2019-08-17T12:01:50Z</time>
      </trkpt>
      <trkpt lat="47.34229" lon="6.32012">
        <ele>263.8</ele>
        <time>2019-08-17T12:01:51Z</time>
      </trkpt>
      <trkpt lat="47.34225" lon="6.32006">
        <ele>263.9</ele>
        <time>2019-08-17T12:01:52Z</time>
      </trkpt>
      <trkpt lat="47.34221" lon="6.32">
        <ele>264</ele>
        <time>2019-08-17T12:01:53Z</time>
      </trkpt>
      <trkpt lat="47.34216" lon="6.31994">
        <ele>264</ele>
        <time>2019-08-17T12:01:54Z</time>
      </trkpt>
      <trkpt lat="47.34213" lon="6.31988">
        <ele>264.1</ele>
        <time>2019-08-17T12:01:55Z</time>
      </trkpt>
      <trkpt lat="47.34209" lon="6.31981">
        <ele>264.2</ele>
        <time>2019-08-17T12:01:56Z</time>
      </trkpt>
      <trkpt lat="47.34205" lon="6.31975">
        <ele>264.2</ele>
        <time>2019-08-17T12:01:57Z</time>
      </trkpt>
      <trkpt lat="47.34202" lon="6.3197">
        <ele>264.3</ele>
        <time>2019-08-17T12:01:58Z</time>
      </trkpt>
      <trkpt lat="47.34199" lon="6.31964">
        <ele>264.3</ele>
        <time>2019-08-17T12:01:59Z</time>
      </trkpt>
      <trkpt lat="47.34196" lon="6.31958">
        <ele>264.3</ele>
        <time>2019-08-17T12:02:00Z</time>
      </trkpt>
      <trkpt lat="47.34192" lon="6.31952">
        <ele>264.3</ele>
        <time>2019-08-17T12:02:01Z</time>
      </trkpt>
      <trkpt lat="47.34188" lon="6.31946">
        <ele>264.3</ele>
        <time>2019-08-17T12:02:02Z</time>
      </trkpt>
      <trkpt lat="47.34185" lon="6.3194">
        <ele>264.3</ele>
        <time>2019-08-17T12:02:03Z</time>
      </trkpt>
      <trkpt lat="47.34181" lon="6.31934">
        <ele>264.3</ele>
        <time>2019-08-17T12:02:04Z</time>
      </trkpt>
      <trkpt lat="47.34179" lon="6.31929">
        <ele>264.3</ele>
        <time>2019-08-17T12:02:05Z</time>
      </trkpt>
      <trkpt lat="47.34175" lon="6.31924">
        <ele>264.3</ele>
        <time>2019-08-17T12:02:06Z</time>
      </trkpt>
      <trkpt lat="47.34172" lon="6.31918">
        <ele>264.2</ele>
        <time>2019-08-17T12:02:07Z</time>
      </trkpt>
      <trkpt lat="47.34168" lon="6.31912">
        <ele>264.2</ele>
        <time>2019-08-17T12:02:08Z</time>
      </trkpt>
      <trkpt lat="47.34165" lon="6.31907">
        <ele>264.2</ele>
        <time>2019-08-17T12:02:09Z</time>
      </trkpt>
      <trkpt lat="47.34162" lon="6.31901">
        <ele>264.1</ele>
        <time>2019-08-17T12:02:10Z</time>
      </trkpt>
      <trkpt lat="47.34159" lon="6.31895">
        <ele>264.1</ele>
        <time>2019-08-17T12:02:11Z</time>
      </trkpt>
      <trkpt lat="47.34156" lon="6.31889">
        <ele>264.1</ele>
        <time>2019-08-17T12:02:12Z</time>
      </trkpt>
      <trkpt lat="47.34153" lon="6.31884">
        <ele>264.2</ele>
        <time>2019-08-17T12:02:13Z</time>
      </trkpt>
      <trkpt lat="47.3415" lon="6.3188">
        <ele>264.2</ele>
        <time>2019-08-17T12:02:14Z</time>
      </trkpt>
      <trkpt lat="47.34147" lon="6.31875">
        <ele>264.3</ele>
        <time>2019-08-17T12:02:15Z</time>
      </trkpt>
      <trkpt lat="47.34144" lon="6.31871">
        <ele>264.3</ele>
        <time>2019-08-17T12:02:16Z</time>
      </trkpt>
      <trkpt lat="47.34141" lon="6.31865">
        <ele>264.5</ele>
        <time>2019-08-17T12:02:17Z</time>
      </trkpt>
      <trkpt lat="47.34138" lon="6.3186">
        <ele>264.6</ele>
        <time>2019-08-17T12:02:18Z</time>
      </trkpt>
      <trkpt lat="47.34135" lon="6.31854">
        <ele>264.7</ele>
        <time>2019-08-17T12:02:19Z</time>
      </trkpt>
      <trkpt lat="47.34132" lon="6.31848">
        <ele>264.9</ele>
        <time>2019-08-17T12:02:20Z</time>
      </trkpt>
      <trkpt lat="47.34129" lon="6.31841">
        <ele>265.1</ele>
        <time>2019-08-17T12:02:21Z</time>
      </trkpt>
      <trkpt lat="47.34125" lon="6.31834">
        <ele>265.3</ele>
        <time>2019-08-17T12:02:22Z</time>
      </trkpt>
      <trkpt lat="47.34121" lon="6.31827">
        <ele>265.5</ele>
        <time>2019-08-17T12:02:23Z</time>
      </trkpt>
      <trkpt lat="47.34117" lon="6.3182">
        <ele>265.6</ele>
        <time>2019-08-17T12:02:24Z</time>
      </trkpt>
      <trkpt lat="47.34114" lon="6.31814">
        <ele>265.7</ele>
        <time>2019-08-17T12:02:25Z</time>
      </trkpt>
      <trkpt lat="47.34111" lon="6.31807">
        <ele>265.7</ele>
        <time>2019-08-17T12:02:26Z</time>
      </trkpt>
      <trkpt lat="47.34109" lon="6.31801">
        <ele>265.7</ele>
        <time>2019-08-17T12:02:27Z</time>
      </trkpt>
      <trkpt lat="47.34106" lon="6.31796">
        <ele>265.7</ele>
        <time>2019-08-17T12:02:28Z</time>
      </trkpt>
      <trkpt lat="47.34103" lon="6.3179">
        <ele>265.7</ele>
        <time>2019-08-17T12:02:29Z</time>
      </trkpt>
      <trkpt lat="47.341" lon="6.31784">
        <ele>265.7</ele>
        <time>2019-08-17T12:02:30Z</time>
      </trkpt>
      <trkpt lat="47.34096" lon="6.31778">
        <ele>265.7</ele>
        <time>2019-08-17T12:02:31Z</time>
      </trkpt>
      <trkpt lat="47.34093" lon="6.31772">
        <ele>265.7</ele>
        <time>2019-08-17T12:02:32Z</time>
      </trkpt>
      <trkpt lat="47.34089" lon="6.31766">
        <ele>265.7</ele>
        <time>2019-08-17T12:02:33Z</time>
      </trkpt>
      <trkpt lat="47.34086" lon="6.31761">
        <ele>265.7</ele>
        <time>2019-08-17T12:02:34Z</time>
      </trkpt>
      <trkpt lat="47.34082" lon="6.31756">
        <ele>265.7</ele>
        <time>2019-08-17T12:02:35Z</time>
      </trkpt>
      <trkpt lat="47.34079" lon="6.31752">
        <ele>265.7</ele>
        <time>2019-08-17T12:02:36Z</time>
      </trkpt>
      <trkpt lat="47.34075" lon="6.31747">
        <ele>265.7</ele>
        <time>2019-08-17T12:02:37Z</time>
      </trkpt>
      <trkpt lat="47.34072" lon="6.31743">
        <ele>265.7</ele>
        <time>2019-08-17T12:02:38Z</time>
      </trkpt>
      <trkpt lat="47.34068" lon="6.31738">
        <ele>265.7</ele>
        <time>2019-08-17T12:02:39Z</time>
      </trkpt>
      <trkpt lat="47.34065" lon="6.31733">
        <ele>265.7</ele>
        <time>2019-08-17T12:02:40Z</time>
      </trkpt>
      <trkpt lat="47.34062" lon="6.31728">
        <ele>265.7</ele>
        <time>2019-08-17T12:02:41Z</time>
      </trkpt>
      <trkpt lat="47.34059" lon="6.31723">
        <ele>265.7</ele>
        <time>2019-08-17T12:02:42Z</time>
      </trkpt>
      <trkpt lat="47.34056" lon="6.31717">
        <ele>265.7</ele>
        <time>2019-08-17T12:02:43Z</time>
      </trkpt>
      <trkpt lat="47.34052" lon="6.31713">
        <ele>265.7</ele>
        <time>2019-08-17T12:02:44Z</time>
      </trkpt>
      <trkpt lat="47.34048" lon="6.31707">
        <ele>265.6</ele>
        <time>2019-08-17T12:02:45Z</time>
      </trkpt>
      <trkpt lat="47.34044" lon="6.31703">
        <ele>265.6</ele>
        <time>2019-08-17T12:02:46Z</time>
      </trkpt>
      <trkpt lat="47.34041" lon="6.31697">
        <ele>265.6</ele>
        <time>2019-08-17T12:02:47Z</time>
      </trkpt>
      <trkpt lat="47.34037" lon="6.31692">
        <ele>265.6</ele>
        <time>2019-08-17T12:02:48Z</time>
      </trkpt>
      <trkpt lat="47.34033" lon="6.31688">
        <ele>265.6</ele>
        <time>2019-08-17T12:02:49Z</time>
      </trkpt>
      <trkpt lat="47.3403" lon="6.31683">
        <ele>265.6</ele>
        <time>2019-08-17T12:02:50Z</time>
      </trkpt>
      <trkpt lat="47.34026" lon="6.31678">
        <ele>265.5</ele>
        <time>2019-08-17T12:02:51Z</time>
      </trkpt>
      <trkpt lat="47.34023" lon="6.31674">
        <ele>265.5</ele>
        <time>2019-08-17T12:02:52Z</time>
      </trkpt>
      <trkpt lat="47.34019" lon="6.31671">
        <ele>265.5</ele>
        <time>2019-08-17T12:02:53Z</time>
      </trkpt>
      <trkpt lat="47.34015" lon="6.31666">
        <ele>265.5</ele>
        <time>2019-08-17T12:02:54Z</time>
      </trkpt>
      <trkpt lat="47.34011" lon="6.31662">
        <ele>265.5</ele>
        <time>2019-08-17T12:02:55Z</time>
      </trkpt>
      <trkpt lat="47.34007" lon="6.31659">
        <ele>265.5</ele>
        <time>2019-08-17T12:02:56Z</time>
      </trkpt>
      <trkpt lat="47.34003" lon="6.31655">
        <ele>265.5</ele>
        <time>2019-08-17T12:02:57Z</time>
      </trkpt>
      <trkpt lat="47.33999" lon="6.3165">
        <ele>265.5</ele>
        <time>2019-08-17T12:02:58Z</time>
      </trkpt>
      <trkpt lat="47.33995" lon="6.31647">
        <ele>265.5</ele>
        <time>2019-08-17T12:02:59Z</time>
      </trkpt>
      <trkpt lat="47.33991" lon="6.31643">
        <ele>265.5</ele>
        <time>2019-08-17T12:03:00Z</time>
      </trkpt>
      <trkpt lat="47.33986" lon="6.31639">
        <ele>265.5</ele>
        <time>2019-08-17T12:03:01Z</time>
      </trkpt>
      <trkpt lat="47.33982" lon="6.31635">
        <ele>265.5</ele>
        <time>2019-08-17T12:03:02Z</time>
      </trkpt>
      <trkpt lat="47.33978" lon="6.3163">
        <ele>265.5</ele>
        <time>2019-08-17T12:03:03Z</time>
      </trkpt>
      <trkpt lat="47.33974" lon="6.31625">
        <ele>265.4</ele>
        <time>2019-08-17T12:03:04Z</time>
      </trkpt>
      <trkpt lat="47.33969" lon="6.31621">
        <ele>265.4</ele>
        <time>2019-08-17T12:03:05Z</time>
      </trkpt>
      <trkpt lat="47.33964" lon="6.31617">
        <ele>265.4</ele>
        <time>2019-08-17T12:03:06Z</time>
      </trkpt>
      <trkpt lat="47.3396" lon="6.31612">
        <ele>265.4</ele>
        <time>2019-08-17T12:03:07Z</time>
      </trkpt>
      <trkpt lat="47.33955" lon="6.31607">
        <ele>265.4</ele>
        <time>2019-08-17T12:03:08Z</time>
      </trkpt>
      <trkpt lat="47.3395" lon="6.31603">
        <ele>265.3</ele>
        <time>2019-08-17T12:03:09Z</time>
      </trkpt>
      <trkpt lat="47.33946" lon="6.31598">
        <ele>265.3</ele>
        <time>2019-08-17T12:03:10Z</time>
      </trkpt>
      <trkpt lat="47.33941" lon="6.31594">
        <ele>265.3</ele>
        <time>2019-08-17T12:03:11Z</time>
      </trkpt>
      <trkpt lat="47.33937" lon="6.3159">
        <ele>265.3</ele>
        <time>2019-08-17T12:03:12Z</time>
      </trkpt>
      <trkpt lat="47.33932" lon="6.31586">
        <ele>265.3</ele>
        <time>2019-08-17T12:03:13Z</time>
      </trkpt>
      <trkpt lat="47.33927" lon="6.31582">
        <ele>265.3</ele>
        <time>2019-08-17T12:03:14Z</time>
      </trkpt>
      <trkpt lat="47.33922" lon="6.31578">
        <ele>265.3</ele>
        <time>2019-08-17T12:03:15Z</time>
      </trkpt>
      <trkpt lat="47.33916" lon="6.31575">
        <ele>265.3</ele>
        <time>2019-08-17T12:03:16Z</time>
      </trkpt>
      <trkpt lat="47.33911" lon="6.31572">
        <ele>265.3</ele>
        <time>2019-08-17T12:03:17Z</time>
      </trkpt>
      <trkpt lat="47.33906" lon="6.31567">
        <ele>265.3</ele>
        <time>2019-08-17T12:03:18Z</time>
      </trkpt>
      <trkpt lat="47.33902" lon="6.31564">
        <ele>265.3</ele>
        <time>2019-08-17T12:03:19Z</time>
      </trkpt>
      <trkpt lat="47.33898" lon="6.3156">
        <ele>265.3</ele>
        <time>2019-08-17T12:03:20Z</time>
      </trkpt>
      <trkpt lat="47.33893" lon="6.31557">
        <ele>265.3</ele>
        <time>2019-08-17T12:03:21Z</time>
      </trkpt>
      <trkpt lat="47.33888" lon="6.31554">
        <ele>265.3</ele>
        <time>2019-08-17T12:03:22Z</time>
      </trkpt>
      <trkpt lat="47.33885" lon="6.3155">
        <ele>265.3</ele>
        <time>2019-08-17T12:03:23Z</time>
      </trkpt>
      <trkpt lat="47.3388" lon="6.31547">
        <ele>265.3</ele>
        <time>2019-08-17T12:03:24Z</time>
      </trkpt>
      <trkpt lat="47.33876" lon="6.31543">
        <ele>265.3</ele>
        <time>2019-08-17T12:03:25Z</time>
      </trkpt>
      <trkpt lat="47.33872" lon="6.3154">
        <ele>265.3</ele>
        <time>2019-08-17T12:03:26Z</time>
      </trkpt>
      <trkpt lat="47.33869" lon="6.31538">
        <ele>265.3</ele>
        <time>2019-08-17T12:03:27Z</time>
      </trkpt>
      <trkpt lat="47.33864" lon="6.31536">
        <ele>265.3</ele>
        <time>2019-08-17T12:03:28Z</time>
      </trkpt>
      <trkpt lat="47.3386" lon="6.31534">
        <ele>265.3</ele>
        <time>2019-08-17T12:03:29Z</time>
      </trkpt>
      <trkpt lat="47.33855" lon="6.31533">
        <ele>265.3</ele>
        <time>2019-08-17T12:03:30Z</time>
      </trkpt>
      <trkpt lat="47.33851" lon="6.31531">
        <ele>265.3</ele>
        <time>2019-08-17T12:03:31Z</time>
      </trkpt>
      <trkpt lat="47.33846" lon="6.31529">
        <ele>265.3</ele>
        <time>2019-08-17T12:03:32Z</time>
      </trkpt>
      <trkpt lat="47.33842" lon="6.31526">
        <ele>265.3</ele>
        <time>2019-08-17T12:03:33Z</time>
      </trkpt>
      <trkpt lat="47.33839" lon="6.31524">
        <ele>265.3</ele>
        <time>2019-08-17T12:03:34Z</time>
      </trkpt>
      <trkpt lat="47.33835" lon="6.31521">
        <ele>265.3</ele>
        <time>2019-08-17T12:03:35Z</time>
      </trkpt>
      <trkpt lat="47.33832" lon="6.3152">
        <ele>265.3</ele>
        <time>2019-08-17T12:03:36Z</time>
      </trkpt>
      <trkpt lat="47.33828" lon="6.31518">
        <ele>265.3</ele>
        <time>2019-08-17T12:03:37Z</time>
      </trkpt>
      <trkpt lat="47.33823" lon="6.31515">
        <ele>265.3</ele>
        <time>2019-08-17T12:03:38Z</time>
      </trkpt>
      <trkpt lat="47.33818" lon="6.31512">
        <ele>265.3</ele>
        <time>2019-08-17T12:03:39Z</time>
      </trkpt>
      <trkpt lat="47.33812" lon="6.31509">
        <ele>265.3</ele>
        <time>2019-08-17T12:03:40Z</time>
      </trkpt>
      <trkpt lat="47.33807" lon="6.31506">
        <ele>265.3</ele>
        <time>2019-08-17T12:03:41Z</time>
      </trkpt>
      <trkpt lat="47.33803" lon="6.31503">
        <ele>265.3</ele>
        <time>2019-08-17T12:03:42Z</time>
      </trkpt>
      <trkpt lat="47.33798" lon="6.315">
        <ele>265.3</ele>
        <time>2019-08-17T12:03:43Z</time>
      </trkpt>
      <trkpt lat="47.33794" lon="6.31498">
        <ele>265.3</ele>
        <time>2019-08-17T12:03:44Z</time>
      </trkpt>
      <trkpt lat="47.33789" lon="6.31497">
        <ele>265.3</ele>
        <time>2019-08-17T12:03:45Z</time>
      </trkpt>
      <trkpt lat="47.33785" lon="6.31495">
        <ele>265.3</ele>
        <time>2019-08-17T12:03:46Z</time>
      </trkpt>
      <trkpt lat="47.3378" lon="6.31493">
        <ele>265.3</ele>
        <time>2019-08-17T12:03:47Z</time>
      </trkpt>
      <trkpt lat="47.33776" lon="6.31491">
        <ele>265.3</ele>
        <time>2019-08-17T12:03:48Z</time>
      </trkpt>
      <trkpt lat="47.33771" lon="6.31488">
        <ele>265.3</ele>
        <time>2019-08-17T12:03:49Z</time>
      </trkpt>
      <trkpt lat="47.33766" lon="6.31487">
        <ele>265.3</ele>
        <time>2019-08-17T12:03:50Z</time>
      </trkpt>
      <trkpt lat="47.33762" lon="6.31485">
        <ele>265.3</ele>
        <time>2019-08-17T12:03:51Z</time>
      </trkpt>
      <trkpt lat="47.33757" lon="6.31483">
        <ele>265.3</ele>
        <time>2019-08-17T12:03:52Z</time>
      </trkpt>
      <trkpt lat="47.33752" lon="6.31481">
        <ele>265.3</ele>
        <time>2019-08-17T12:03:53Z</time>
      </trkpt>
      <trkpt lat="47.33747" lon="6.3148">
        <ele>265.3</ele>
        <time>2019-08-17T12:03:54Z</time>
      </trkpt>
      <trkpt lat="47.33742" lon="6.31479">
        <ele>265.3</ele>
        <time>2019-08-17T12:03:55Z</time>
      </trkpt>
      <trkpt lat="47.33736" lon="6.31478">
        <ele>265.3</ele>
        <time>2019-08-17T12:03:56Z</time>
      </trkpt>
      <trkpt lat="47.33731" lon="6.31475">
        <ele>265.3</ele>
        <time>2019-08-17T12:03:57Z</time>
      </trkpt>
      <trkpt lat="47.33724" lon="6.31472">
        <ele>265.3</ele>
        <time>2019-08-17T12:03:58Z</time>
      </trkpt>
      <trkpt lat="47.33719" lon="6.31469">
        <ele>265.3</ele>
        <time>2019-08-17T12:03:59Z</time>
      </trkpt>
      <trkpt lat="47.33714" lon="6.31467">
        <ele>265.3</ele>
        <time>2019-08-17T12:04:00Z</time>
      </trkpt>
      <trkpt lat="47.3371" lon="6.31464">
        <ele>265.3</ele>
        <time>2019-08-17T12:04:01Z</time>
      </trkpt>
      <trkpt lat="47.33705" lon="6.31463">
        <ele>265.3</ele>
        <time>2019-08-17T12:04:02Z</time>
      </trkpt>
      <trkpt lat="47.337" lon="6.31461">
        <ele>265.3</ele>
        <time>2019-08-17T12:04:03Z</time>
      </trkpt>
      <trkpt lat="47.33694" lon="6.3146">
        <ele>265.4</ele>
        <time>2019-08-17T12:04:04Z</time>
      </trkpt>
      <trkpt lat="47.3369" lon="6.31459">
        <ele>265.4</ele>
        <time>2019-08-17T12:04:05Z</time>
      </trkpt>
      <trkpt lat="47.33685" lon="6.31457">
        <ele>265.4</ele>
        <time>2019-08-17T12:04:06Z</time>
      </trkpt>
      <trkpt lat="47.3368" lon="6.31456">
        <ele>265.4</ele>
        <time>2019-08-17T12:04:07Z</time>
      </trkpt>
      <trkpt lat="47.33675" lon="6.31454">
        <ele>265.4</ele>
        <time>2019-08-17T12:04:08Z</time>
      </trkpt>
      <trkpt lat="47.33671" lon="6.31453">
        <ele>265.4</ele>
        <time>2019-08-17T12:04:09Z</time>
      </trkpt>
      <trkpt lat="47.33666" lon="6.31451">
        <ele>265.4</ele>
        <time>2019-08-17T12:04:10Z</time>
      </trkpt>
      <trkpt lat="47.33662" lon="6.3145">
        <ele>265.4</ele>
        <time>2019-08-17T12:04:11Z</time>
      </trkpt>
      <trkpt lat="47.33657" lon="6.31448">
        <ele>265.5</ele>
        <time>2019-08-17T12:04:12Z</time>
      </trkpt>
      <trkpt lat="47.33652" lon="6.31446">
        <ele>265.5</ele>
        <time>2019-08-17T12:04:13Z</time>
      </trkpt>
      <trkpt lat="47.33648" lon="6.31444">
        <ele>265.5</ele>
        <time>2019-08-17T12:04:14Z</time>
      </trkpt>
      <trkpt lat="47.33643" lon="6.31441">
        <ele>265.5</ele>
        <time>2019-08-17T12:04:15Z</time>
      </trkpt>
      <trkpt lat="47.33639" lon="6.31439">
        <ele>265.5</ele>
        <time>2019-08-17T12:04:16Z</time>
      </trkpt>
      <trkpt lat="47.33635" lon="6.31437">
        <ele>265.5</ele>
        <time>2019-08-17T12:04:17Z</time>
      </trkpt>
      <trkpt lat="47.3363" lon="6.31437">
        <ele>265.5</ele>
        <time>2019-08-17T12:04:18Z</time>
      </trkpt>
      <trkpt lat="47.33625" lon="6.31438">
        <ele>265.5</ele>
        <time>2019-08-17T12:04:19Z</time>
      </trkpt>
      <trkpt lat="47.33621" lon="6.31438">
        <ele>265.5</ele>
        <time>2019-08-17T12:04:20Z</time>
      </trkpt>
      <trkpt lat="47.33616" lon="6.31435">
        <ele>265.5</ele>
        <time>2019-08-17T12:04:21Z</time>
      </trkpt>
      <trkpt lat="47.3361" lon="6.31433">
        <ele>265.5</ele>
        <time>2019-08-17T12:04:22Z</time>
      </trkpt>
      <trkpt lat="47.33606" lon="6.31431">
        <ele>265.5</ele>
        <time>2019-08-17T12:04:23Z</time>
      </trkpt>
      <trkpt lat="47.33601" lon="6.31429">
        <ele>265.5</ele>
        <time>2019-08-17T12:04:24Z</time>
      </trkpt>
      <trkpt lat="47.33596" lon="6.31426">
        <ele>265.5</ele>
        <time>2019-08-17T12:04:25Z</time>
      </trkpt>
      <trkpt lat="47.33591" lon="6.31424">
        <ele>265.5</ele>
        <time>2019-08-17T12:04:26Z</time>
      </trkpt>
      <trkpt lat="47.33586" lon="6.31422">
        <ele>265.5</ele>
        <time>2019-08-17T12:04:27Z</time>
      </trkpt>
      <trkpt lat="47.33582" lon="6.3142">
        <ele>265.5</ele>
        <time>2019-08-17T12:04:28Z</time>
      </trkpt>
      <trkpt lat="47.33579" lon="6.31418">
        <ele>265.5</ele>
        <time>2019-08-17T12:04:29Z</time>
      </trkpt>
      <trkpt lat="47.33575" lon="6.31416">
        <ele>265.5</ele>
        <time>2019-08-17T12:04:30Z</time>
      </trkpt>
      <trkpt lat="47.33571" lon="6.31415">
        <ele>265.5</ele>
        <time>2019-08-17T12:04:31Z</time>
      </trkpt>
      <trkpt lat="47.33565" lon="6.31414">
        <ele>265.5</ele>
        <time>2019-08-17T12:04:32Z</time>
      </trkpt>
      <trkpt lat="47.3356" lon="6.31413">
        <ele>265.5</ele>
        <time>2019-08-17T12:04:33Z</time>
      </trkpt>
      <trkpt lat="47.33555" lon="6.31413">
        <ele>265.5</ele>
        <time>2019-08-17T12:04:34Z</time>
      </trkpt>
      <trkpt lat="47.33549" lon="6.31411">
        <ele>265.5</ele>
        <time>2019-08-17T12:04:35Z</time>
      </trkpt>
      <trkpt lat="47.33544" lon="6.3141">
        <ele>265.5</ele>
        <time>2019-08-17T12:04:36Z</time>
      </trkpt>
      <trkpt lat="47.33539" lon="6.31408">
        <ele>265.5</ele>
        <time>2019-08-17T12:04:37Z</time>
      </trkpt>
      <trkpt lat="47.33534" lon="6.31407">
        <ele>265.5</ele>
        <time>2019-08-17T12:04:38Z</time>
      </trkpt>
      <trkpt lat="47.33529" lon="6.31405">
        <ele>265.5</ele>
        <time>2019-08-17T12:04:39Z</time>
      </trkpt>
      <trkpt lat="47.33524" lon="6.31403">
        <ele>265.5</ele>
        <time>2019-08-17T12:04:40Z</time>
      </trkpt>
      <trkpt lat="47.33519" lon="6.31401">
        <ele>265.5</ele>
        <time>2019-08-17T12:04:41Z</time>
      </trkpt>
      <trkpt lat="47.33514" lon="6.31401">
        <ele>265.5</ele>
        <time>2019-08-17T12:04:42Z</time>
      </trkpt>
      <trkpt lat="47.3351" lon="6.31399">
        <ele>265.5</ele>
        <time>2019-08-17T12:04:43Z</time>
      </trkpt>
      <trkpt lat="47.33505" lon="6.31398">
        <ele>265.5</ele>
        <time>2019-08-17T12:04:44Z</time>
      </trkpt>
      <trkpt lat="47.33501" lon="6.31397">
        <ele>265.5</ele>
        <time>2019-08-17T12:04:45Z</time>
      </trkpt>
      <trkpt lat="47.33497" lon="6.31395">
        <ele>265.5</ele>
        <time>2019-08-17T12:04:46Z</time>
      </trkpt>
      <trkpt lat="47.33492" lon="6.31393">
        <ele>265.5</ele>
        <time>2019-08-17T12:04:47Z</time>
      </trkpt>
      <trkpt lat="47.33487" lon="6.31391">
        <ele>265.4</ele>
        <time>2019-08-17T12:04:48Z</time>
      </trkpt>
      <trkpt lat="47.33483" lon="6.31389">
        <ele>265.4</ele>
        <time>2019-08-17T12:04:49Z</time>
      </trkpt>
      <trkpt lat="47.33479" lon="6.31386">
        <ele>265.4</ele>
        <time>2019-08-17T12:04:50Z</time>
      </trkpt>
      <trkpt lat="47.33474" lon="6.31385">
        <ele>265.4</ele>
        <time>2019-08-17T12:04:51Z</time>
      </trkpt>
      <trkpt lat="47.33471" lon="6.31385">
        <ele>265.4</ele>
        <time>2019-08-17T12:04:52Z</time>
      </trkpt>
      <trkpt lat="47.33466" lon="6.31384">
        <ele>265.4</ele>
        <time>2019-08-17T12:04:53Z</time>
      </trkpt>
      <trkpt lat="47.33462" lon="6.31384">
        <ele>265.4</ele>
        <time>2019-08-17T12:04:54Z</time>
      </trkpt>
      <trkpt lat="47.33458" lon="6.31384">
        <ele>265.4</ele>
        <time>2019-08-17T12:04:55Z</time>
      </trkpt>
      <trkpt lat="47.33452" lon="6.31382">
        <ele>265.4</ele>
        <time>2019-08-17T12:04:56Z</time>
      </trkpt>
      <trkpt lat="47.33447" lon="6.3138">
        <ele>265.4</ele>
        <time>2019-08-17T12:04:57Z</time>
      </trkpt>
      <trkpt lat="47.33441" lon="6.31378">
        <ele>265.4</ele>
        <time>2019-08-17T12:04:58Z</time>
      </trkpt>
      <trkpt lat="47.33437" lon="6.31376">
        <ele>265.4</ele>
        <time>2019-08-17T12:04:59Z</time>
      </trkpt>
      <trkpt lat="47.33433" lon="6.31374">
        <ele>265.4</ele>
        <time>2019-08-17T12:05:00Z</time>
      </trkpt>
      <trkpt lat="47.33428" lon="6.31372">
        <ele>265.4</ele>
        <time>2019-08-17T12:05:01Z</time>
      </trkpt>
      <trkpt lat="47.33424" lon="6.3137">
        <ele>265.4</ele>
        <time>2019-08-17T12:05:02Z</time>
      </trkpt>
      <trkpt lat="47.3342" lon="6.31369">
        <ele>265.4</ele>
        <time>2019-08-17T12:05:03Z</time>
      </trkpt>
      <trkpt lat="47.33416" lon="6.31367">
        <ele>265.4</ele>
        <time>2019-08-17T12:05:04Z</time>
      </trkpt>
      <trkpt lat="47.33412" lon="6.31365">
        <ele>265.4</ele>
        <time>2019-08-17T12:05:05Z</time>
      </trkpt>
      <trkpt lat="47.33408" lon="6.31364">
        <ele>265.4</ele>
        <time>2019-08-17T12:05:06Z</time>
      </trkpt>
      <trkpt lat="47.33405" lon="6.31363">
        <ele>265.4</ele>
        <time>2019-08-17T12:05:07Z</time>
      </trkpt>
      <trkpt lat="47.33402" lon="6.31362">
        <ele>265.4</ele>
        <time>2019-08-17T12:05:08Z</time>
      </trkpt>
      <trkpt lat="47.33398" lon="6.3136">
        <ele>265.4</ele>
        <time>2019-08-17T12:05:09Z</time>
      </trkpt>
      <trkpt lat="47.33394" lon="6.31358">
        <ele>265.4</ele>
        <time>2019-08-17T12:05:10Z</time>
      </trkpt>
      <trkpt lat="47.33389" lon="6.31355">
        <ele>265.4</ele>
        <time>2019-08-17T12:05:11Z</time>
      </trkpt>
      <trkpt lat="47.33385" lon="6.31351">
        <ele>265.4</ele>
        <time>2019-08-17T12:05:12Z</time>
      </trkpt>
      <trkpt lat="47.3338" lon="6.31347">
        <ele>265.4</ele>
        <time>2019-08-17T12:05:13Z</time>
      </trkpt>
      <trkpt lat="47.33376" lon="6.31343">
        <ele>265.4</ele>
        <time>2019-08-17T12:05:14Z</time>
      </trkpt>
      <trkpt lat="47.33372" lon="6.31339">
        <ele>265.4</ele>
        <time>2019-08-17T12:05:15Z</time>
      </trkpt>
      <trkpt lat="47.33367" lon="6.31335">
        <ele>265.4</ele>
        <time>2019-08-17T12:05:16Z</time>
      </trkpt>
      <trkpt lat="47.33363" lon="6.31331">
        <ele>265.4</ele>
        <time>2019-08-17T12:05:17Z</time>
      </trkpt>
      <trkpt lat="47.33359" lon="6.31329">
        <ele>265.4</ele>
        <time>2019-08-17T12:05:18Z</time>
      </trkpt>
      <trkpt lat="47.33354" lon="6.31326">
        <ele>265.4</ele>
        <time>2019-08-17T12:05:19Z</time>
      </trkpt>
      <trkpt lat="47.3335" lon="6.31323">
        <ele>265.4</ele>
        <time>2019-08-17T12:05:20Z</time>
      </trkpt>
      <trkpt lat="47.33346" lon="6.31321">
        <ele>265.4</ele>
        <time>2019-08-17T12:05:21Z</time>
      </trkpt>
      <trkpt lat="47.33342" lon="6.3132">
        <ele>265.4</ele>
        <time>2019-08-17T12:05:22Z</time>
      </trkpt>
      <trkpt lat="47.33338" lon="6.31317">
        <ele>265.4</ele>
        <time>2019-08-17T12:05:23Z</time>
      </trkpt>
      <trkpt lat="47.33334" lon="6.31315">
        <ele>265.4</ele>
        <time>2019-08-17T12:05:24Z</time>
      </trkpt>
      <trkpt lat="47.33328" lon="6.31312">
        <ele>265.4</ele>
        <time>2019-08-17T12:05:25Z</time>
      </trkpt>
      <trkpt lat="47.33323" lon="6.3131">
        <ele>265.5</ele>
        <time>2019-08-17T12:05:26Z</time>
      </trkpt>
      <trkpt lat="47.33318" lon="6.31309">
        <ele>265.5</ele>
        <time>2019-08-17T12:05:27Z</time>
      </trkpt>
      <trkpt lat="47.33313" lon="6.31309">
        <ele>265.5</ele>
        <time>2019-08-17T12:05:28Z</time>
      </trkpt>
      <trkpt lat="47.33308" lon="6.31307">
        <ele>265.5</ele>
        <time>2019-08-17T12:05:29Z</time>
      </trkpt>
      <trkpt lat="47.33302" lon="6.31306">
        <ele>265.5</ele>
        <time>2019-08-17T12:05:30Z</time>
      </trkpt>
      <trkpt lat="47.33298" lon="6.31306">
        <ele>265.5</ele>
        <time>2019-08-17T12:05:31Z</time>
      </trkpt>
      <trkpt lat="47.33293" lon="6.31306">
        <ele>265.5</ele>
        <time>2019-08-17T12:05:32Z</time>
      </trkpt>
      <trkpt lat="47.33289" lon="6.31306">
        <ele>265.6</ele>
        <time>2019-08-17T12:05:33Z</time>
      </trkpt>
      <trkpt lat="47.33285" lon="6.31306">
        <ele>265.6</ele>
        <time>2019-08-17T12:05:34Z</time>
      </trkpt>
      <trkpt lat="47.33281" lon="6.31304">
        <ele>265.7</ele>
        <time>2019-08-17T12:05:35Z</time>
      </trkpt>
      <trkpt lat="47.33277" lon="6.31303">
        <ele>265.7</ele>
        <time>2019-08-17T12:05:36Z</time>
      </trkpt>
      <trkpt lat="47.33274" lon="6.31302">
        <ele>265.8</ele>
        <time>2019-08-17T12:05:37Z</time>
      </trkpt>
      <trkpt lat="47.3327" lon="6.313">
        <ele>265.8</ele>
        <time>2019-08-17T12:05:38Z</time>
      </trkpt>
      <trkpt lat="47.33267" lon="6.31299">
        <ele>265.9</ele>
        <time>2019-08-17T12:05:39Z</time>
      </trkpt>
      <trkpt lat="47.33263" lon="6.31298">
        <ele>265.9</ele>
        <time>2019-08-17T12:05:40Z</time>
      </trkpt>
      <trkpt lat="47.33258" lon="6.31296">
        <ele>266</ele>
        <time>2019-08-17T12:05:41Z</time>
      </trkpt>
      <trkpt lat="47.33254" lon="6.31294">
        <ele>266.1</ele>
        <time>2019-08-17T12:05:42Z</time>
      </trkpt>
      <trkpt lat="47.33249" lon="6.31291">
        <ele>266.1</ele>
        <time>2019-08-17T12:05:43Z</time>
      </trkpt>
      <trkpt lat="47.33245" lon="6.31289">
        <ele>266.2</ele>
        <time>2019-08-17T12:05:44Z</time>
      </trkpt>
      <trkpt lat="47.33236" lon="6.31283">
        <ele>266.3</ele>
        <time>2019-08-17T12:05:45Z</time>
      </trkpt>
      <trkpt lat="47.3323" lon="6.31278">
        <ele>266.4</ele>
        <time>2019-08-17T12:05:46Z</time>
      </trkpt>
      <trkpt lat="47.33223" lon="6.31274">
        <ele>266.5</ele>
        <time>2019-08-17T12:05:47Z</time>
      </trkpt>
      <trkpt lat="47.33217" lon="6.31271">
        <ele>266.5</ele>
        <time>2019-08-17T12:05:48Z</time>
      </trkpt>
      <trkpt lat="47.33211" lon="6.31266">
        <ele>266.6</ele>
        <time>2019-08-17T12:05:49Z</time>
      </trkpt>
      <trkpt lat="47.33205" lon="6.31263">
        <ele>266.6</ele>
        <time>2019-08-17T12:05:50Z</time>
      </trkpt>
      <trkpt lat="47.332" lon="6.31259">
        <ele>266.6</ele>
        <time>2019-08-17T12:05:51Z</time>
      </trkpt>
      <trkpt lat="47.33195" lon="6.31254">
        <ele>266.7</ele>
        <time>2019-08-17T12:05:52Z</time>
      </trkpt>
      <trkpt lat="47.3319" lon="6.31252">
        <ele>266.7</ele>
        <time>2019-08-17T12:05:53Z</time>
      </trkpt>
      <trkpt lat="47.33186" lon="6.3125">
        <ele>266.7</ele>
        <time>2019-08-17T12:05:54Z</time>
      </trkpt>
      <trkpt lat="47.33182" lon="6.31246">
        <ele>266.8</ele>
        <time>2019-08-17T12:05:55Z</time>
      </trkpt>
      <trkpt lat="47.33177" lon="6.31243">
        <ele>266.8</ele>
        <time>2019-08-17T12:05:56Z</time>
      </trkpt>
      <trkpt lat="47.33172" lon="6.3124">
        <ele>266.9</ele>
        <time>2019-08-17T12:05:57Z</time>
      </trkpt>
      <trkpt lat="47.33167" lon="6.31236">
        <ele>266.9</ele>
        <time>2019-08-17T12:05:58Z</time>
      </trkpt>
      <trkpt lat="47.33163" lon="6.31232">
        <ele>267</ele>
        <time>2019-08-17T12:05:59Z</time>
      </trkpt>
      <trkpt lat="47.33158" lon="6.31229">
        <ele>267</ele>
        <time>2019-08-17T12:06:00Z</time>
      </trkpt>
      <trkpt lat="47.33153" lon="6.31225">
        <ele>267</ele>
        <time>2019-08-17T12:06:01Z</time>
      </trkpt>
      <trkpt lat="47.33149" lon="6.31221">
        <ele>267.1</ele>
        <time>2019-08-17T12:06:02Z</time>
      </trkpt>
      <trkpt lat="47.33145" lon="6.31217">
        <ele>267.1</ele>
        <time>2019-08-17T12:06:03Z</time>
      </trkpt>
      <trkpt lat="47.33141" lon="6.31214">
        <ele>267.1</ele>
        <time>2019-08-17T12:06:04Z</time>
      </trkpt>
      <trkpt lat="47.33136" lon="6.3121">
        <ele>267.2</ele>
        <time>2019-08-17T12:06:05Z</time>
      </trkpt>
      <trkpt lat="47.33131" lon="6.31206">
        <ele>267.2</ele>
        <time>2019-08-17T12:06:06Z</time>
      </trkpt>
      <trkpt lat="47.33127" lon="6.31201">
        <ele>267.2</ele>
        <time>2019-08-17T12:06:07Z</time>
      </trkpt>
      <trkpt lat="47.33122" lon="6.31196">
        <ele>267.2</ele>
        <time>2019-08-17T12:06:08Z</time>
      </trkpt>
      <trkpt lat="47.33118" lon="6.31192">
        <ele>267.2</ele>
        <time>2019-08-17T12:06:09Z</time>
      </trkpt>
      <trkpt lat="47.33113" lon="6.31187">
        <ele>267.2</ele>
        <time>2019-08-17T12:06:10Z</time>
      </trkpt>
      <trkpt lat="47.33109" lon="6.31183">
        <ele>267.2</ele>
        <time>2019-08-17T12:06:11Z</time>
      </trkpt>
      <trkpt lat="47.33105" lon="6.31178">
        <ele>267.2</ele>
        <time>2019-08-17T12:06:12Z</time>
      </trkpt>
      <trkpt lat="47.331" lon="6.31174">
        <ele>267.2</ele>
        <time>2019-08-17T12:06:13Z</time>
      </trkpt>
      <trkpt lat="47.33095" lon="6.31169">
        <ele>267.2</ele>
        <time>2019-08-17T12:06:14Z</time>
      </trkpt>
      <trkpt lat="47.33091" lon="6.31164">
        <ele>267.2</ele>
        <time>2019-08-17T12:06:15Z</time>
      </trkpt>
      <trkpt lat="47.33086" lon="6.31159">
        <ele>267.2</ele>
        <time>2019-08-17T12:06:16Z</time>
      </trkpt>
      <trkpt lat="47.33082" lon="6.31154">
        <ele>267.2</ele>
        <time>2019-08-17T12:06:17Z</time>
      </trkpt>
      <trkpt lat="47.33078" lon="6.31148">
        <ele>267.2</ele>
        <time>2019-08-17T12:06:18Z</time>
      </trkpt>
      <trkpt lat="47.33074" lon="6.31143">
        <ele>267.2</ele>
        <time>2019-08-17T12:06:19Z</time>
      </trkpt>
      <trkpt lat="47.3307" lon="6.31137">
        <ele>267.2</ele>
        <time>2019-08-17T12:06:20Z</time>
      </trkpt>
      <trkpt lat="47.33066" lon="6.31131">
        <ele>267.1</ele>
        <time>2019-08-17T12:06:21Z</time>
      </trkpt>
      <trkpt lat="47.33062" lon="6.31125">
        <ele>267.1</ele>
        <time>2019-08-17T12:06:22Z</time>
      </trkpt>
      <trkpt lat="47.33058" lon="6.31118">
        <ele>267.1</ele>
        <time>2019-08-17T12:06:23Z</time>
      </trkpt>
      <trkpt lat="47.33055" lon="6.31112">
        <ele>267</ele>
        <time>2019-08-17T12:06:24Z</time>
      </trkpt>
      <trkpt lat="47.33052" lon="6.31106">
        <ele>267</ele>
        <time>2019-08-17T12:06:25Z</time>
      </trkpt>
      <trkpt lat="47.33048" lon="6.31099">
        <ele>267</ele>
        <time>2019-08-17T12:06:26Z</time>
      </trkpt>
      <trkpt lat="47.33045" lon="6.31092">
        <ele>266.9</ele>
        <time>2019-08-17T12:06:27Z</time>
      </trkpt>
      <trkpt lat="47.33042" lon="6.31086">
        <ele>266.9</ele>
        <time>2019-08-17T12:06:28Z</time>
      </trkpt>
      <trkpt lat="47.3304" lon="6.31079">
        <ele>266.9</ele>
        <time>2019-08-17T12:06:29Z</time>
      </trkpt>
      <trkpt lat="47.33037" lon="6.31073">
        <ele>266.8</ele>
        <time>2019-08-17T12:06:30Z</time>
      </trkpt>
      <trkpt lat="47.33035" lon="6.31068">
        <ele>266.8</ele>
        <time>2019-08-17T12:06:31Z</time>
      </trkpt>
      <trkpt lat="47.33033" lon="6.31062">
        <ele>266.8</ele>
        <time>2019-08-17T12:06:32Z</time>
      </trkpt>
      <trkpt lat="47.33032" lon="6.31056">
        <ele>266.8</ele>
        <time>2019-08-17T12:06:33Z</time>
      </trkpt>
      <trkpt lat="47.33029" lon="6.3105">
        <ele>266.8</ele>
        <time>2019-08-17T12:06:34Z</time>
      </trkpt>
      <trkpt lat="47.33027" lon="6.31043">
        <ele>266.8</ele>
        <time>2019-08-17T12:06:35Z</time>
      </trkpt>
      <trkpt lat="47.33024" lon="6.31035">
        <ele>266.8</ele>
        <time>2019-08-17T12:06:36Z</time>
      </trkpt>
      <trkpt lat="47.33022" lon="6.31028">
        <ele>266.8</ele>
        <time>2019-08-17T12:06:37Z</time>
      </trkpt>
      <trkpt lat="47.33021" lon="6.31021">
        <ele>266.8</ele>
        <time>2019-08-17T12:06:38Z</time>
      </trkpt>
      <trkpt lat="47.33019" lon="6.31014">
        <ele>266.8</ele>
        <time>2019-08-17T12:06:39Z</time>
      </trkpt>
      <trkpt lat="47.33017" lon="6.31008">
        <ele>266.8</ele>
        <time>2019-08-17T12:06:40Z</time>
      </trkpt>
      <trkpt lat="47.33015" lon="6.31002">
        <ele>266.8</ele>
        <time>2019-08-17T12:06:41Z</time>
      </trkpt>
      <trkpt lat="47.33014" lon="6.30995">
        <ele>266.8</ele>
        <time>2019-08-17T12:06:42Z</time>
      </trkpt>
      <trkpt lat="47.33012" lon="6.30989">
        <ele>266.8</ele>
        <time>2019-08-17T12:06:43Z</time>
      </trkpt>
      <trkpt lat="47.33011" lon="6.30983">
        <ele>266.8</ele>
        <time>2019-08-17T12:06:44Z</time>
      </trkpt>
      <trkpt lat="47.33009" lon="6.30977">
        <ele>266.8</ele>
        <time>2019-08-17T12:06:45Z</time>
      </trkpt>
      <trkpt lat="47.33007" lon="6.30971">
        <ele>266.8</ele>
        <time>2019-08-17T12:06:46Z</time>
      </trkpt>
      <trkpt lat="47.33005" lon="6.30964">
        <ele>266.8</ele>
        <time>2019-08-17T12:06:47Z</time>
      </trkpt>
      <trkpt lat="47.33003" lon="6.30957">
        <ele>266.9</ele>
        <time>2019-08-17T12:06:48Z</time>
      </trkpt>
      <trkpt lat="47.33001" lon="6.3095">
        <ele>266.9</ele>
        <time>2019-08-17T12:06:49Z</time>
      </trkpt>
      <trkpt lat="47.32998" lon="6.30943">
        <ele>267</ele>
        <time>2019-08-17T12:06:50Z</time>
      </trkpt>
      <trkpt lat="47.32997" lon="6.30936">
        <ele>267</ele>
        <time>2019-08-17T12:06:51Z</time>
      </trkpt>
      <trkpt lat="47.32995" lon="6.30929">
        <ele>267</ele>
        <time>2019-08-17T12:06:52Z</time>
      </trkpt>
      <trkpt lat="47.32994" lon="6.30922">
        <ele>267</ele>
        <time>2019-08-17T12:06:53Z</time>
      </trkpt>
      <trkpt lat="47.32992" lon="6.30915">
        <ele>267.1</ele>
        <time>2019-08-17T12:06:54Z</time>
      </trkpt>
      <trkpt lat="47.32992" lon="6.30908">
        <ele>267.1</ele>
        <time>2019-08-17T12:06:55Z</time>
      </trkpt>
      <trkpt lat="47.32991" lon="6.30902">
        <ele>267.1</ele>
        <time>2019-08-17T12:06:56Z</time>
      </trkpt>
      <trkpt lat="47.3299" lon="6.30895">
        <ele>267.1</ele>
        <time>2019-08-17T12:06:57Z</time>
      </trkpt>
      <trkpt lat="47.3299" lon="6.30888">
        <ele>267.1</ele>
        <time>2019-08-17T12:06:58Z</time>
      </trkpt>
      <trkpt lat="47.32989" lon="6.30882">
        <ele>267.1</ele>
        <time>2019-08-17T12:06:59Z</time>
      </trkpt>
      <trkpt lat="47.32988" lon="6.30876">
        <ele>267.1</ele>
        <time>2019-08-17T12:07:00Z</time>
      </trkpt>
      <trkpt lat="47.32987" lon="6.3087">
        <ele>267.2</ele>
        <time>2019-08-17T12:07:01Z</time>
      </trkpt>
      <trkpt lat="47.32988" lon="6.30863">
        <ele>267.2</ele>
        <time>2019-08-17T12:07:02Z</time>
      </trkpt>
      <trkpt lat="47.32988" lon="6.30856">
        <ele>267.2</ele>
        <time>2019-08-17T12:07:03Z</time>
      </trkpt>
      <trkpt lat="47.32988" lon="6.30849">
        <ele>267.3</ele>
        <time>2019-08-17T12:07:04Z</time>
      </trkpt>
      <trkpt lat="47.32989" lon="6.30842">
        <ele>267.3</ele>
        <time>2019-08-17T12:07:05Z</time>
      </trkpt>
      <trkpt lat="47.32989" lon="6.30834">
        <ele>267.4</ele>
        <time>2019-08-17T12:07:06Z</time>
      </trkpt>
      <trkpt lat="47.32988" lon="6.30826">
        <ele>267.4</ele>
        <time>2019-08-17T12:07:07Z</time>
      </trkpt>
      <trkpt lat="47.32988" lon="6.30817">
        <ele>267.4</ele>
        <time>2019-08-17T12:07:08Z</time>
      </trkpt>
      <trkpt lat="47.32988" lon="6.30808">
        <ele>267.5</ele>
        <time>2019-08-17T12:07:09Z</time>
      </trkpt>
      <trkpt lat="47.32987" lon="6.30801">
        <ele>267.5</ele>
        <time>2019-08-17T12:07:10Z</time>
      </trkpt>
      <trkpt lat="47.32986" lon="6.30793">
        <ele>267.6</ele>
        <time>2019-08-17T12:07:11Z</time>
      </trkpt>
      <trkpt lat="47.32985" lon="6.30787">
        <ele>267.6</ele>
        <time>2019-08-17T12:07:12Z</time>
      </trkpt>
      <trkpt lat="47.32985" lon="6.30779">
        <ele>267.7</ele>
        <time>2019-08-17T12:07:13Z</time>
      </trkpt>
      <trkpt lat="47.32984" lon="6.30772">
        <ele>267.7</ele>
        <time>2019-08-17T12:07:14Z</time>
      </trkpt>
      <trkpt lat="47.32984" lon="6.30765">
        <ele>267.8</ele>
        <time>2019-08-17T12:07:15Z</time>
      </trkpt>
      <trkpt lat="47.32984" lon="6.30759">
        <ele>267.9</ele>
        <time>2019-08-17T12:07:16Z</time>
      </trkpt>
      <trkpt lat="47.32984" lon="6.30752">
        <ele>268</ele>
        <time>2019-08-17T12:07:17Z</time>
      </trkpt>
      <trkpt lat="47.32984" lon="6.30745">
        <ele>268.1</ele>
        <time>2019-08-17T12:07:18Z</time>
      </trkpt>
      <trkpt lat="47.32984" lon="6.30738">
        <ele>268.2</ele>
        <time>2019-08-17T12:07:19Z</time>
      </trkpt>
      <trkpt lat="47.32984" lon="6.30729">
        <ele>268.3</ele>
        <time>2019-08-17T12:07:20Z</time>
      </trkpt>
      <trkpt lat="47.32984" lon="6.30722">
        <ele>268.4</ele>
        <time>2019-08-17T12:07:21Z</time>
      </trkpt>
      <trkpt lat="47.32984" lon="6.30715">
        <ele>268.5</ele>
        <time>2019-08-17T12:07:22Z</time>
      </trkpt>
      <trkpt lat="47.32983" lon="6.30708">
        <ele>268.5</ele>
        <time>2019-08-17T12:07:23Z</time>
      </trkpt>
      <trkpt lat="47.32983" lon="6.307">
        <ele>268.6</ele>
        <time>2019-08-17T12:07:24Z</time>
      </trkpt>
      <trkpt lat="47.32982" lon="6.30693">
        <ele>268.7</ele>
        <time>2019-08-17T12:07:25Z</time>
      </trkpt>
      <trkpt lat="47.32982" lon="6.30686">
        <ele>268.7</ele>
        <time>2019-08-17T12:07:26Z</time>
      </trkpt>
      <trkpt lat="47.32981" lon="6.30678">
        <ele>268.8</ele>
        <time>2019-08-17T12:07:27Z</time>
      </trkpt>
      <trkpt lat="47.32981" lon="6.3067">
        <ele>268.4</ele>
        <time>2019-08-17T12:07:28Z</time>
      </trkpt>
      <trkpt lat="47.3298" lon="6.30662">
        <ele>268.1</ele>
        <time>2019-08-17T12:07:29Z</time>
      </trkpt>
      <trkpt lat="47.32979" lon="6.30654">
        <ele>267.8</ele>
        <time>2019-08-17T12:07:30Z</time>
      </trkpt>
      <trkpt lat="47.32978" lon="6.30647">
        <ele>267.5</ele>
        <time>2019-08-17T12:07:31Z</time>
      </trkpt>
      <trkpt lat="47.32977" lon="6.3064">
        <ele>267.3</ele>
        <time>2019-08-17T12:07:32Z</time>
      </trkpt>
      <trkpt lat="47.32976" lon="6.30634">
        <ele>267</ele>
        <time>2019-08-17T12:07:33Z</time>
      </trkpt>
      <trkpt lat="47.32975" lon="6.30627">
        <ele>266.6</ele>
        <time>2019-08-17T12:07:34Z</time>
      </trkpt>
      <trkpt lat="47.32974" lon="6.30619">
        <ele>266.2</ele>
        <time>2019-08-17T12:07:35Z</time>
      </trkpt>
      <trkpt lat="47.32974" lon="6.30611">
        <ele>265.9</ele>
        <time>2019-08-17T12:07:36Z</time>
      </trkpt>
      <trkpt lat="47.32974" lon="6.30602">
        <ele>265.4</ele>
        <time>2019-08-17T12:07:37Z</time>
      </trkpt>
      <trkpt lat="47.32974" lon="6.30595">
        <ele>265</ele>
        <time>2019-08-17T12:07:38Z</time>
      </trkpt>
      <trkpt lat="47.32974" lon="6.30589">
        <ele>264.6</ele>
        <time>2019-08-17T12:07:39Z</time>
      </trkpt>
      <trkpt lat="47.32974" lon="6.30582">
        <ele>264.2</ele>
        <time>2019-08-17T12:07:40Z</time>
      </trkpt>
      <trkpt lat="47.32974" lon="6.30574">
        <ele>263.6</ele>
        <time>2019-08-17T12:07:41Z</time>
      </trkpt>
      <trkpt lat="47.32974" lon="6.30567">
        <ele>263</ele>
        <time>2019-08-17T12:07:42Z</time>
      </trkpt>
      <trkpt lat="47.32974" lon="6.30559">
        <ele>262.6</ele>
        <time>2019-08-17T12:07:43Z</time>
      </trkpt>
      <trkpt lat="47.32974" lon="6.30551">
        <ele>262.2</ele>
        <time>2019-08-17T12:07:44Z</time>
      </trkpt>
      <trkpt lat="47.32974" lon="6.30543">
        <ele>261.9</ele>
        <time>2019-08-17T12:07:45Z</time>
      </trkpt>
      <trkpt lat="47.32974" lon="6.30537">
        <ele>261.6</ele>
        <time>2019-08-17T12:07:46Z</time>
      </trkpt>
      <trkpt lat="47.32974" lon="6.30529">
        <ele>261.3</ele>
        <time>2019-08-17T12:07:47Z</time>
      </trkpt>
      <trkpt lat="47.32974" lon="6.30522">
        <ele>261.1</ele>
        <time>2019-08-17T12:07:48Z</time>
      </trkpt>
      <trkpt lat="47.32974" lon="6.30514">
        <ele>260.8</ele>
        <time>2019-08-17T12:07:49Z</time>
      </trkpt>
      <trkpt lat="47.32974" lon="6.30507">
        <ele>260.6</ele>
        <time>2019-08-17T12:07:50Z</time>
      </trkpt>
      <trkpt lat="47.32973" lon="6.305">
        <ele>260.5</ele>
        <time>2019-08-17T12:07:51Z</time>
      </trkpt>
      <trkpt lat="47.32973" lon="6.30494">
        <ele>260.3</ele>
        <time>2019-08-17T12:07:52Z</time>
      </trkpt>
      <trkpt lat="47.32973" lon="6.30487">
        <ele>260.2</ele>
        <time>2019-08-17T12:07:53Z</time>
      </trkpt>
      <trkpt lat="47.32974" lon="6.30481">
        <ele>260</ele>
        <time>2019-08-17T12:07:54Z</time>
      </trkpt>
      <trkpt lat="47.32974" lon="6.30475">
        <ele>259.8</ele>
        <time>2019-08-17T12:07:55Z</time>
      </trkpt>
      <trkpt lat="47.32974" lon="6.30468">
        <ele>259.5</ele>
        <time>2019-08-17T12:07:56Z</time>
      </trkpt>
      <trkpt lat="47.32974" lon="6.3046">
        <ele>259.2</ele>
        <time>2019-08-17T12:07:57Z</time>
      </trkpt>
      <trkpt lat="47.32973" lon="6.30453">
        <ele>258.6</ele>
        <time>2019-08-17T12:07:58Z</time>
      </trkpt>
      <trkpt lat="47.32973" lon="6.30446">
        <ele>258.6</ele>
        <time>2019-08-17T12:07:59Z</time>
      </trkpt>
      <trkpt lat="47.32973" lon="6.30439">
        <ele>258.6</ele>
        <time>2019-08-17T12:08:00Z</time>
      </trkpt>
      <trkpt lat="47.32974" lon="6.30432">
        <ele>258.6</ele>
        <time>2019-08-17T12:08:01Z</time>
      </trkpt>
      <trkpt lat="47.32975" lon="6.30426">
        <ele>258.6</ele>
        <time>2019-08-17T12:08:02Z</time>
      </trkpt>
      <trkpt lat="47.32975" lon="6.3042">
        <ele>258.6</ele>
        <time>2019-08-17T12:08:03Z</time>
      </trkpt>
      <trkpt lat="47.32974" lon="6.30413">
        <ele>258.6</ele>
        <time>2019-08-17T12:08:04Z</time>
      </trkpt>
      <trkpt lat="47.32974" lon="6.30406">
        <ele>258.6</ele>
        <time>2019-08-17T12:08:05Z</time>
      </trkpt>
      <trkpt lat="47.32972" lon="6.30401">
        <ele>258.5</ele>
        <time>2019-08-17T12:08:06Z</time>
      </trkpt>
      <trkpt lat="47.32972" lon="6.30395">
        <ele>258.5</ele>
        <time>2019-08-17T12:08:07Z</time>
      </trkpt>
      <trkpt lat="47.32972" lon="6.30389">
        <ele>258.5</ele>
        <time>2019-08-17T12:08:08Z</time>
      </trkpt>
      <trkpt lat="47.32972" lon="6.30383">
        <ele>258.4</ele>
        <time>2019-08-17T12:08:09Z</time>
      </trkpt>
      <trkpt lat="47.32971" lon="6.30375">
        <ele>258.2</ele>
        <time>2019-08-17T12:08:10Z</time>
      </trkpt>
      <trkpt lat="47.32973" lon="6.30368">
        <ele>258</ele>
        <time>2019-08-17T12:08:11Z</time>
      </trkpt>
      <trkpt lat="47.32975" lon="6.30359">
        <ele>257.6</ele>
        <time>2019-08-17T12:08:12Z</time>
      </trkpt>
      <trkpt lat="47.32977" lon="6.30348">
        <ele>257.5</ele>
        <time>2019-08-17T12:08:13Z</time>
      </trkpt>
      <trkpt lat="47.32977" lon="6.30338">
        <ele>257.5</ele>
        <time>2019-08-17T12:08:14Z</time>
      </trkpt>
      <trkpt lat="47.32978" lon="6.3033">
        <ele>257.6</ele>
        <time>2019-08-17T12:08:15Z</time>
      </trkpt>
      <trkpt lat="47.32978" lon="6.30321">
        <ele>257.6</ele>
        <time>2019-08-17T12:08:16Z</time>
      </trkpt>
      <trkpt lat="47.32979" lon="6.30313">
        <ele>257.6</ele>
        <time>2019-08-17T12:08:17Z</time>
      </trkpt>
      <trkpt lat="47.32979" lon="6.30305">
        <ele>257.6</ele>
        <time>2019-08-17T12:08:18Z</time>
      </trkpt>
      <trkpt lat="47.3298" lon="6.30298">
        <ele>257.7</ele>
        <time>2019-08-17T12:08:19Z</time>
      </trkpt>
      <trkpt lat="47.32981" lon="6.3029">
        <ele>257.8</ele>
        <time>2019-08-17T12:08:20Z</time>
      </trkpt>
      <trkpt lat="47.32982" lon="6.30282">
        <ele>257.8</ele>
        <time>2019-08-17T12:08:21Z</time>
      </trkpt>
      <trkpt lat="47.32983" lon="6.30274">
        <ele>257.9</ele>
        <time>2019-08-17T12:08:22Z</time>
      </trkpt>
      <trkpt lat="47.32984" lon="6.30266">
        <ele>258</ele>
        <time>2019-08-17T12:08:23Z</time>
      </trkpt>
      <trkpt lat="47.32985" lon="6.30258">
        <ele>258.1</ele>
        <time>2019-08-17T12:08:24Z</time>
      </trkpt>
      <trkpt lat="47.32986" lon="6.30251">
        <ele>258.2</ele>
        <time>2019-08-17T12:08:25Z</time>
      </trkpt>
      <trkpt lat="47.32987" lon="6.30244">
        <ele>258.2</ele>
        <time>2019-08-17T12:08:26Z</time>
      </trkpt>
      <trkpt lat="47.32989" lon="6.30238">
        <ele>258.3</ele>
        <time>2019-08-17T12:08:27Z</time>
      </trkpt>
      <trkpt lat="47.3299" lon="6.3023">
        <ele>258.3</ele>
        <time>2019-08-17T12:08:28Z</time>
      </trkpt>
      <trkpt lat="47.32992" lon="6.30223">
        <ele>258.3</ele>
        <time>2019-08-17T12:08:29Z</time>
      </trkpt>
      <trkpt lat="47.32992" lon="6.30218">
        <ele>258.3</ele>
        <time>2019-08-17T12:08:30Z</time>
      </trkpt>
      <trkpt lat="47.32993" lon="6.30211">
        <ele>258.4</ele>
        <time>2019-08-17T12:08:31Z</time>
      </trkpt>
      <trkpt lat="47.32994" lon="6.30205">
        <ele>258.4</ele>
        <time>2019-08-17T12:08:32Z</time>
      </trkpt>
      <trkpt lat="47.32995" lon="6.30198">
        <ele>258.4</ele>
        <time>2019-08-17T12:08:33Z</time>
      </trkpt>
      <trkpt lat="47.32996" lon="6.30192">
        <ele>258.4</ele>
        <time>2019-08-17T12:08:34Z</time>
      </trkpt>
      <trkpt lat="47.32996" lon="6.30187">
        <ele>258.4</ele>
        <time>2019-08-17T12:08:35Z</time>
      </trkpt>
      <trkpt lat="47.32998" lon="6.3018">
        <ele>258.4</ele>
        <time>2019-08-17T12:08:36Z</time>
      </trkpt>
      <trkpt lat="47.32998" lon="6.30174">
        <ele>258.4</ele>
        <time>2019-08-17T12:08:37Z</time>
      </trkpt>
      <trkpt lat="47.32999" lon="6.30168">
        <ele>258.4</ele>
        <time>2019-08-17T12:08:38Z</time>
      </trkpt>
      <trkpt lat="47.33" lon="6.30162">
        <ele>258.4</ele>
        <time>2019-08-17T12:08:39Z</time>
      </trkpt>
      <trkpt lat="47.33001" lon="6.30155">
        <ele>258.4</ele>
        <time>2019-08-17T12:08:40Z</time>
      </trkpt>
      <trkpt lat="47.33002" lon="6.30147">
        <ele>258.4</ele>
        <time>2019-08-17T12:08:41Z</time>
      </trkpt>
      <trkpt lat="47.33003" lon="6.3014">
        <ele>258.4</ele>
        <time>2019-08-17T12:08:42Z</time>
      </trkpt>
      <trkpt lat="47.33005" lon="6.30133">
        <ele>258.5</ele>
        <time>2019-08-17T12:08:43Z</time>
      </trkpt>
      <trkpt lat="47.33006" lon="6.30126">
        <ele>258.5</ele>
        <time>2019-08-17T12:08:44Z</time>
      </trkpt>
      <trkpt lat="47.33007" lon="6.30119">
        <ele>258.5</ele>
        <time>2019-08-17T12:08:45Z</time>
      </trkpt>
      <trkpt lat="47.33008" lon="6.30112">
        <ele>258.5</ele>
        <time>2019-08-17T12:08:46Z</time>
      </trkpt>
      <trkpt lat="47.33009" lon="6.30106">
        <ele>258.5</ele>
        <time>2019-08-17T12:08:47Z</time>
      </trkpt>
      <trkpt lat="47.3301" lon="6.30099">
        <ele>258.5</ele>
        <time>2019-08-17T12:08:48Z</time>
      </trkpt>
      <trkpt lat="47.33011" lon="6.30091">
        <ele>258.5</ele>
        <time>2019-08-17T12:08:49Z</time>
      </trkpt>
      <trkpt lat="47.33011" lon="6.30086">
        <ele>258.5</ele>
        <time>2019-08-17T12:08:50Z</time>
      </trkpt>
      <trkpt lat="47.33011" lon="6.30079">
        <ele>258.5</ele>
        <time>2019-08-17T12:08:51Z</time>
      </trkpt>
      <trkpt lat="47.33012" lon="6.30072">
        <ele>258.5</ele>
        <time>2019-08-17T12:08:52Z</time>
      </trkpt>
      <trkpt lat="47.33012" lon="6.30066">
        <ele>258.5</ele>
        <time>2019-08-17T12:08:53Z</time>
      </trkpt>
      <trkpt lat="47.33012" lon="6.3006">
        <ele>258.5</ele>
        <time>2019-08-17T12:08:54Z</time>
      </trkpt>
      <trkpt lat="47.33012" lon="6.30053">
        <ele>258.5</ele>
        <time>2019-08-17T12:08:55Z</time>
      </trkpt>
      <trkpt lat="47.33012" lon="6.30046">
        <ele>258.5</ele>
        <time>2019-08-17T12:08:56Z</time>
      </trkpt>
      <trkpt lat="47.33013" lon="6.30038">
        <ele>258.5</ele>
        <time>2019-08-17T12:08:57Z</time>
      </trkpt>
      <trkpt lat="47.33013" lon="6.30031">
        <ele>258.5</ele>
        <time>2019-08-17T12:08:58Z</time>
      </trkpt>
      <trkpt lat="47.33013" lon="6.30023">
        <ele>258.5</ele>
        <time>2019-08-17T12:08:59Z</time>
      </trkpt>
      <trkpt lat="47.33013" lon="6.30017">
        <ele>258.5</ele>
        <time>2019-08-17T12:09:00Z</time>
      </trkpt>
      <trkpt lat="47.33013" lon="6.3001">
        <ele>258.5</ele>
        <time>2019-08-17T12:09:01Z</time>
      </trkpt>
      <trkpt lat="47.33014" lon="6.30003">
        <ele>258.5</ele>
        <time>2019-08-17T12:09:02Z</time>
      </trkpt>
      <trkpt lat="47.33014" lon="6.29997">
        <ele>258.5</ele>
        <time>2019-08-17T12:09:03Z</time>
      </trkpt>
      <trkpt lat="47.33015" lon="6.29989">
        <ele>258.5</ele>
        <time>2019-08-17T12:09:04Z</time>
      </trkpt>
      <trkpt lat="47.33015" lon="6.29981">
        <ele>258.5</ele>
        <time>2019-08-17T12:09:05Z</time>
      </trkpt>
      <trkpt lat="47.33015" lon="6.29974">
        <ele>258.5</ele>
        <time>2019-08-17T12:09:06Z</time>
      </trkpt>
      <trkpt lat="47.33015" lon="6.29967">
        <ele>258.5</ele>
        <time>2019-08-17T12:09:07Z</time>
      </trkpt>
      <trkpt lat="47.33015" lon="6.2996">
        <ele>258.5</ele>
        <time>2019-08-17T12:09:08Z</time>
      </trkpt>
      <trkpt lat="47.33016" lon="6.29953">
        <ele>258.5</ele>
        <time>2019-08-17T12:09:09Z</time>
      </trkpt>
      <trkpt lat="47.33016" lon="6.29947">
        <ele>258.5</ele>
        <time>2019-08-17T12:09:10Z</time>
      </trkpt>
      <trkpt lat="47.33016" lon="6.29939">
        <ele>258.5</ele>
        <time>2019-08-17T12:09:11Z</time>
      </trkpt>
      <trkpt lat="47.33017" lon="6.29932">
        <ele>258.5</ele>
        <time>2019-08-17T12:09:12Z</time>
      </trkpt>
      <trkpt lat="47.33017" lon="6.29925">
        <ele>258.5</ele>
        <time>2019-08-17T12:09:13Z</time>
      </trkpt>
      <trkpt lat="47.33017" lon="6.29917">
        <ele>258.6</ele>
        <time>2019-08-17T12:09:14Z</time>
      </trkpt>
      <trkpt lat="47.33017" lon="6.2991">
        <ele>258.6</ele>
        <time>2019-08-17T12:09:15Z</time>
      </trkpt>
      <trkpt lat="47.33017" lon="6.29903">
        <ele>258.6</ele>
        <time>2019-08-17T12:09:16Z</time>
      </trkpt>
      <trkpt lat="47.33018" lon="6.29896">
        <ele>258.6</ele>
        <time>2019-08-17T12:09:17Z</time>
      </trkpt>
      <trkpt lat="47.33018" lon="6.29889">
        <ele>258.7</ele>
        <time>2019-08-17T12:09:18Z</time>
      </trkpt>
      <trkpt lat="47.33019" lon="6.29882">
        <ele>258.7</ele>
        <time>2019-08-17T12:09:19Z</time>
      </trkpt>
      <trkpt lat="47.33019" lon="6.29875">
        <ele>258.7</ele>
        <time>2019-08-17T12:09:20Z</time>
      </trkpt>
      <trkpt lat="47.33019" lon="6.29869">
        <ele>258.8</ele>
        <time>2019-08-17T12:09:21Z</time>
      </trkpt>
      <trkpt lat="47.33019" lon="6.29863">
        <ele>258.8</ele>
        <time>2019-08-17T12:09:22Z</time>
      </trkpt>
      <trkpt lat="47.33019" lon="6.29856">
        <ele>258.8</ele>
        <time>2019-08-17T12:09:23Z</time>
      </trkpt>
      <trkpt lat="47.33019" lon="6.29848">
        <ele>258.9</ele>
        <time>2019-08-17T12:09:24Z</time>
      </trkpt>
      <trkpt lat="47.3302" lon="6.29843">
        <ele>258.9</ele>
        <time>2019-08-17T12:09:25Z</time>
      </trkpt>
      <trkpt lat="47.33021" lon="6.29837">
        <ele>258.9</ele>
        <time>2019-08-17T12:09:26Z</time>
      </trkpt>
      <trkpt lat="47.33021" lon="6.2983">
        <ele>258.9</ele>
        <time>2019-08-17T12:09:27Z</time>
      </trkpt>
      <trkpt lat="47.33021" lon="6.29822">
        <ele>258.9</ele>
        <time>2019-08-17T12:09:28Z</time>
      </trkpt>
      <trkpt lat="47.33021" lon="6.29815">
        <ele>258.9</ele>
        <time>2019-08-17T12:09:29Z</time>
      </trkpt>
      <trkpt lat="47.33022" lon="6.29807">
        <ele>258.9</ele>
        <time>2019-08-17T12:09:30Z</time>
      </trkpt>
      <trkpt lat="47.33023" lon="6.298">
        <ele>258.9</ele>
        <time>2019-08-17T12:09:31Z</time>
      </trkpt>
      <trkpt lat="47.33023" lon="6.29793">
        <ele>258.9</ele>
        <time>2019-08-17T12:09:32Z</time>
      </trkpt>
      <trkpt lat="47.33023" lon="6.29787">
        <ele>258.9</ele>
        <time>2019-08-17T12:09:33Z</time>
      </trkpt>
      <trkpt lat="47.33022" lon="6.29781">
        <ele>258.9</ele>
        <time>2019-08-17T12:09:34Z</time>
      </trkpt>
      <trkpt lat="47.33022" lon="6.29774">
        <ele>258.9</ele>
        <time>2019-08-17T12:09:35Z</time>
      </trkpt>
      <trkpt lat="47.33021" lon="6.29767">
        <ele>258.8</ele>
        <time>2019-08-17T12:09:36Z</time>
      </trkpt>
      <trkpt lat="47.33021" lon="6.2976">
        <ele>258.8</ele>
        <time>2019-08-17T12:09:37Z</time>
      </trkpt>
      <trkpt lat="47.33022" lon="6.29753">
        <ele>258.9</ele>
        <time>2019-08-17T12:09:38Z</time>
      </trkpt>
      <trkpt lat="47.33021" lon="6.29745">
        <ele>259</ele>
        <time>2019-08-17T12:09:39Z</time>
      </trkpt>
      <trkpt lat="47.33021" lon="6.29737">
        <ele>259.1</ele>
        <time>2019-08-17T12:09:40Z</time>
      </trkpt>
      <trkpt lat="47.33021" lon="6.29729">
        <ele>259</ele>
        <time>2019-08-17T12:09:41Z</time>
      </trkpt>
      <trkpt lat="47.3302" lon="6.29721">
        <ele>259</ele>
        <time>2019-08-17T12:09:42Z</time>
      </trkpt>
      <trkpt lat="47.33021" lon="6.29714">
        <ele>259</ele>
        <time>2019-08-17T12:09:43Z</time>
      </trkpt>
      <trkpt lat="47.33021" lon="6.29707">
        <ele>258.9</ele>
        <time>2019-08-17T12:09:44Z</time>
      </trkpt>
      <trkpt lat="47.33021" lon="6.29699">
        <ele>258.9</ele>
        <time>2019-08-17T12:09:45Z</time>
      </trkpt>
      <trkpt lat="47.33021" lon="6.29691">
        <ele>258.9</ele>
        <time>2019-08-17T12:09:46Z</time>
      </trkpt>
      <trkpt lat="47.33022" lon="6.29682">
        <ele>258.8</ele>
        <time>2019-08-17T12:09:47Z</time>
      </trkpt>
      <trkpt lat="47.33021" lon="6.29674">
        <ele>258.8</ele>
        <time>2019-08-17T12:09:48Z</time>
      </trkpt>
      <trkpt lat="47.33021" lon="6.29666">
        <ele>258.7</ele>
        <time>2019-08-17T12:09:49Z</time>
      </trkpt>
      <trkpt lat="47.33021" lon="6.29659">
        <ele>258.7</ele>
        <time>2019-08-17T12:09:50Z</time>
      </trkpt>
      <trkpt lat="47.3302" lon="6.29651">
        <ele>258.6</ele>
        <time>2019-08-17T12:09:51Z</time>
      </trkpt>
      <trkpt lat="47.3302" lon="6.29644">
        <ele>258.5</ele>
        <time>2019-08-17T12:09:52Z</time>
      </trkpt>
      <trkpt lat="47.3302" lon="6.29638">
        <ele>258.5</ele>
        <time>2019-08-17T12:09:53Z</time>
      </trkpt>
      <trkpt lat="47.33019" lon="6.29629">
        <ele>258.4</ele>
        <time>2019-08-17T12:09:54Z</time>
      </trkpt>
      <trkpt lat="47.33018" lon="6.2962">
        <ele>258.3</ele>
        <time>2019-08-17T12:09:55Z</time>
      </trkpt>
      <trkpt lat="47.33018" lon="6.29612">
        <ele>258.2</ele>
        <time>2019-08-17T12:09:56Z</time>
      </trkpt>
      <trkpt lat="47.33017" lon="6.29604">
        <ele>258.1</ele>
        <time>2019-08-17T12:09:57Z</time>
      </trkpt>
      <trkpt lat="47.33015" lon="6.29597">
        <ele>258.1</ele>
        <time>2019-08-17T12:09:58Z</time>
      </trkpt>
      <trkpt lat="47.33014" lon="6.29589">
        <ele>258</ele>
        <time>2019-08-17T12:09:59Z</time>
      </trkpt>
      <trkpt lat="47.33012" lon="6.29583">
        <ele>257.9</ele>
        <time>2019-08-17T12:10:00Z</time>
      </trkpt>
      <trkpt lat="47.33011" lon="6.29576">
        <ele>257.9</ele>
        <time>2019-08-17T12:10:01Z</time>
      </trkpt>
      <trkpt lat="47.33011" lon="6.29568">
        <ele>257.8</ele>
        <time>2019-08-17T12:10:02Z</time>
      </trkpt>
      <trkpt lat="47.3301" lon="6.29561">
        <ele>257.8</ele>
        <time>2019-08-17T12:10:03Z</time>
      </trkpt>
      <trkpt lat="47.3301" lon="6.29553">
        <ele>257.8</ele>
        <time>2019-08-17T12:10:04Z</time>
      </trkpt>
      <trkpt lat="47.33009" lon="6.29546">
        <ele>257.8</ele>
        <time>2019-08-17T12:10:05Z</time>
      </trkpt>
      <trkpt lat="47.33008" lon="6.2954">
        <ele>257.8</ele>
        <time>2019-08-17T12:10:06Z</time>
      </trkpt>
      <trkpt lat="47.33008" lon="6.29533">
        <ele>257.8</ele>
        <time>2019-08-17T12:10:07Z</time>
      </trkpt>
      <trkpt lat="47.33007" lon="6.29525">
        <ele>257.9</ele>
        <time>2019-08-17T12:10:08Z</time>
      </trkpt>
      <trkpt lat="47.33007" lon="6.29518">
        <ele>258</ele>
        <time>2019-08-17T12:10:09Z</time>
      </trkpt>
      <trkpt lat="47.33007" lon="6.29512">
        <ele>258.1</ele>
        <time>2019-08-17T12:10:10Z</time>
      </trkpt>
      <trkpt lat="47.33006" lon="6.29505">
        <ele>258.2</ele>
        <time>2019-08-17T12:10:11Z</time>
      </trkpt>
      <trkpt lat="47.33005" lon="6.29499">
        <ele>258.3</ele>
        <time>2019-08-17T12:10:12Z</time>
      </trkpt>
      <trkpt lat="47.33004" lon="6.29492">
        <ele>258.4</ele>
        <time>2019-08-17T12:10:13Z</time>
      </trkpt>
      <trkpt lat="47.33004" lon="6.29485">
        <ele>258.5</ele>
        <time>2019-08-17T12:10:14Z</time>
      </trkpt>
      <trkpt lat="47.33003" lon="6.2948">
        <ele>258.6</ele>
        <time>2019-08-17T12:10:15Z</time>
      </trkpt>
      <trkpt lat="47.33002" lon="6.29474">
        <ele>258.7</ele>
        <time>2019-08-17T12:10:16Z</time>
      </trkpt>
      <trkpt lat="47.33001" lon="6.29469">
        <ele>258.8</ele>
        <time>2019-08-17T12:10:17Z</time>
      </trkpt>
      <trkpt lat="47.33001" lon="6.29463">
        <ele>258.8</ele>
        <time>2019-08-17T12:10:18Z</time>
      </trkpt>
      <trkpt lat="47.32999" lon="6.29457">
        <ele>258.9</ele>
        <time>2019-08-17T12:10:19Z</time>
      </trkpt>
      <trkpt lat="47.32999" lon="6.29451">
        <ele>258.9</ele>
        <time>2019-08-17T12:10:20Z</time>
      </trkpt>
      <trkpt lat="47.32998" lon="6.29446">
        <ele>258.9</ele>
        <time>2019-08-17T12:10:21Z</time>
      </trkpt>
      <trkpt lat="47.32996" lon="6.2944">
        <ele>258.9</ele>
        <time>2019-08-17T12:10:22Z</time>
      </trkpt>
      <trkpt lat="47.32996" lon="6.29434">
        <ele>258.8</ele>
        <time>2019-08-17T12:10:23Z</time>
      </trkpt>
      <trkpt lat="47.32994" lon="6.29428">
        <ele>258.7</ele>
        <time>2019-08-17T12:10:24Z</time>
      </trkpt>
      <trkpt lat="47.32992" lon="6.29421">
        <ele>258.6</ele>
        <time>2019-08-17T12:10:25Z</time>
      </trkpt>
      <trkpt lat="47.3299" lon="6.29413">
        <ele>258.4</ele>
        <time>2019-08-17T12:10:26Z</time>
      </trkpt>
      <trkpt lat="47.32988" lon="6.29407">
        <ele>258.3</ele>
        <time>2019-08-17T12:10:27Z</time>
      </trkpt>
      <trkpt lat="47.32986" lon="6.29401">
        <ele>258.2</ele>
        <time>2019-08-17T12:10:28Z</time>
      </trkpt>
      <trkpt lat="47.32984" lon="6.29395">
        <ele>258.1</ele>
        <time>2019-08-17T12:10:29Z</time>
      </trkpt>
      <trkpt lat="47.32981" lon="6.29388">
        <ele>258</ele>
        <time>2019-08-17T12:10:30Z</time>
      </trkpt>
      <trkpt lat="47.32979" lon="6.29382">
        <ele>258</ele>
        <time>2019-08-17T12:10:31Z</time>
      </trkpt>
      <trkpt lat="47.32977" lon="6.29376">
        <ele>258</ele>
        <time>2019-08-17T12:10:32Z</time>
      </trkpt>
      <trkpt lat="47.32975" lon="6.2937">
        <ele>258</ele>
        <time>2019-08-17T12:10:33Z</time>
      </trkpt>
      <trkpt lat="47.32974" lon="6.29363">
        <ele>258.1</ele>
        <time>2019-08-17T12:10:34Z</time>
      </trkpt>
      <trkpt lat="47.32972" lon="6.29356">
        <ele>258.2</ele>
        <time>2019-08-17T12:10:35Z</time>
      </trkpt>
      <trkpt lat="47.3297" lon="6.2935">
        <ele>258.2</ele>
        <time>2019-08-17T12:10:36Z</time>
      </trkpt>
      <trkpt lat="47.32968" lon="6.29344">
        <ele>258.3</ele>
        <time>2019-08-17T12:10:37Z</time>
      </trkpt>
      <trkpt lat="47.32965" lon="6.29337">
        <ele>258.3</ele>
        <time>2019-08-17T12:10:38Z</time>
      </trkpt>
      <trkpt lat="47.32963" lon="6.29329">
        <ele>258.4</ele>
        <time>2019-08-17T12:10:39Z</time>
      </trkpt>
      <trkpt lat="47.3296" lon="6.29323">
        <ele>258.4</ele>
        <time>2019-08-17T12:10:40Z</time>
      </trkpt>
      <trkpt lat="47.32958" lon="6.29316">
        <ele>258.3</ele>
        <time>2019-08-17T12:10:41Z</time>
      </trkpt>
      <trkpt lat="47.32955" lon="6.29309">
        <ele>258.3</ele>
        <time>2019-08-17T12:10:42Z</time>
      </trkpt>
      <trkpt lat="47.32953" lon="6.29302">
        <ele>258.3</ele>
        <time>2019-08-17T12:10:43Z</time>
      </trkpt>
      <trkpt lat="47.32951" lon="6.29294">
        <ele>258.3</ele>
        <time>2019-08-17T12:10:44Z</time>
      </trkpt>
      <trkpt lat="47.32949" lon="6.29288">
        <ele>258.2</ele>
        <time>2019-08-17T12:10:45Z</time>
      </trkpt>
      <trkpt lat="47.32946" lon="6.29282">
        <ele>258.2</ele>
        <time>2019-08-17T12:10:46Z</time>
      </trkpt>
      <trkpt lat="47.32943" lon="6.29276">
        <ele>258.2</ele>
        <time>2019-08-17T12:10:47Z</time>
      </trkpt>
      <trkpt lat="47.32941" lon="6.29269">
        <ele>258.2</ele>
        <time>2019-08-17T12:10:48Z</time>
      </trkpt>
      <trkpt lat="47.32938" lon="6.29264">
        <ele>258.2</ele>
        <time>2019-08-17T12:10:49Z</time>
      </trkpt>
      <trkpt lat="47.32936" lon="6.29258">
        <ele>258.2</ele>
        <time>2019-08-17T12:10:50Z</time>
      </trkpt>
      <trkpt lat="47.32933" lon="6.29253">
        <ele>258.2</ele>
        <time>2019-08-17T12:10:51Z</time>
      </trkpt>
      <trkpt lat="47.32929" lon="6.29249">
        <ele>258.2</ele>
        <time>2019-08-17T12:10:52Z</time>
      </trkpt>
      <trkpt lat="47.32926" lon="6.29245">
        <ele>258.2</ele>
        <time>2019-08-17T12:10:53Z</time>
      </trkpt>
      <trkpt lat="47.32923" lon="6.2924">
        <ele>258.2</ele>
        <time>2019-08-17T12:10:54Z</time>
      </trkpt>
      <trkpt lat="47.3292" lon="6.29235">
        <ele>258.2</ele>
        <time>2019-08-17T12:10:55Z</time>
      </trkpt>
      <trkpt lat="47.32917" lon="6.29231">
        <ele>258.2</ele>
        <time>2019-08-17T12:10:56Z</time>
      </trkpt>
      <trkpt lat="47.32914" lon="6.29226">
        <ele>258.2</ele>
        <time>2019-08-17T12:10:57Z</time>
      </trkpt>
      <trkpt lat="47.32911" lon="6.29221">
        <ele>258.2</ele>
        <time>2019-08-17T12:10:58Z</time>
      </trkpt>
      <trkpt lat="47.32908" lon="6.29216">
        <ele>258.2</ele>
        <time>2019-08-17T12:10:59Z</time>
      </trkpt>
      <trkpt lat="47.32905" lon="6.29212">
        <ele>258.2</ele>
        <time>2019-08-17T12:11:00Z</time>
      </trkpt>
      <trkpt lat="47.32902" lon="6.29208">
        <ele>258.2</ele>
        <time>2019-08-17T12:11:01Z</time>
      </trkpt>
      <trkpt lat="47.32899" lon="6.29203">
        <ele>258.2</ele>
        <time>2019-08-17T12:11:02Z</time>
      </trkpt>
      <trkpt lat="47.32896" lon="6.29198">
        <ele>258.2</ele>
        <time>2019-08-17T12:11:03Z</time>
      </trkpt>
      <trkpt lat="47.32894" lon="6.2919">
        <ele>258.2</ele>
        <time>2019-08-17T12:11:04Z</time>
      </trkpt>
      <trkpt lat="47.32891" lon="6.29184">
        <ele>258.1</ele>
        <time>2019-08-17T12:11:05Z</time>
      </trkpt>
      <trkpt lat="47.32886" lon="6.29178">
        <ele>258.1</ele>
        <time>2019-08-17T12:11:06Z</time>
      </trkpt>
      <trkpt lat="47.32882" lon="6.29172">
        <ele>258.1</ele>
        <time>2019-08-17T12:11:07Z</time>
      </trkpt>
      <trkpt lat="47.32879" lon="6.29166">
        <ele>258</ele>
        <time>2019-08-17T12:11:08Z</time>
      </trkpt>
      <trkpt lat="47.32876" lon="6.29161">
        <ele>257.9</ele>
        <time>2019-08-17T12:11:09Z</time>
      </trkpt>
      <trkpt lat="47.32874" lon="6.29155">
        <ele>257.9</ele>
        <time>2019-08-17T12:11:10Z</time>
      </trkpt>
      <trkpt lat="47.32872" lon="6.29151">
        <ele>257.9</ele>
        <time>2019-08-17T12:11:11Z</time>
      </trkpt>
      <trkpt lat="47.32869" lon="6.29145">
        <ele>257.8</ele>
        <time>2019-08-17T12:11:12Z</time>
      </trkpt>
      <trkpt lat="47.32867" lon="6.29139">
        <ele>257.8</ele>
        <time>2019-08-17T12:11:13Z</time>
      </trkpt>
      <trkpt lat="47.32864" lon="6.29134">
        <ele>257.7</ele>
        <time>2019-08-17T12:11:14Z</time>
      </trkpt>
      <trkpt lat="47.32861" lon="6.29127">
        <ele>257.7</ele>
        <time>2019-08-17T12:11:15Z</time>
      </trkpt>
      <trkpt lat="47.32858" lon="6.29121">
        <ele>257.7</ele>
        <time>2019-08-17T12:11:16Z</time>
      </trkpt>
      <trkpt lat="47.32855" lon="6.29113">
        <ele>257.7</ele>
        <time>2019-08-17T12:11:17Z</time>
      </trkpt>
      <trkpt lat="47.32851" lon="6.29106">
        <ele>257.7</ele>
        <time>2019-08-17T12:11:18Z</time>
      </trkpt>
      <trkpt lat="47.32848" lon="6.29098">
        <ele>257.8</ele>
        <time>2019-08-17T12:11:19Z</time>
      </trkpt>
      <trkpt lat="47.32844" lon="6.29091">
        <ele>257.9</ele>
        <time>2019-08-17T12:11:20Z</time>
      </trkpt>
      <trkpt lat="47.32841" lon="6.29084">
        <ele>258</ele>
        <time>2019-08-17T12:11:21Z</time>
      </trkpt>
      <trkpt lat="47.32838" lon="6.29079">
        <ele>258.1</ele>
        <time>2019-08-17T12:11:22Z</time>
      </trkpt>
      <trkpt lat="47.32836" lon="6.29074">
        <ele>258.2</ele>
        <time>2019-08-17T12:11:23Z</time>
      </trkpt>
      <trkpt lat="47.32833" lon="6.29067">
        <ele>258.3</ele>
        <time>2019-08-17T12:11:24Z</time>
      </trkpt>
      <trkpt lat="47.3283" lon="6.29062">
        <ele>258.5</ele>
        <time>2019-08-17T12:11:25Z</time>
      </trkpt>
      <trkpt lat="47.32827" lon="6.29056">
        <ele>258.6</ele>
        <time>2019-08-17T12:11:26Z</time>
      </trkpt>
      <trkpt lat="47.32823" lon="6.2905">
        <ele>258.8</ele>
        <time>2019-08-17T12:11:27Z</time>
      </trkpt>
      <trkpt lat="47.32819" lon="6.29044">
        <ele>259</ele>
        <time>2019-08-17T12:11:28Z</time>
      </trkpt>
      <trkpt lat="47.32815" lon="6.29039">
        <ele>259.2</ele>
        <time>2019-08-17T12:11:29Z</time>
      </trkpt>
      <trkpt lat="47.32812" lon="6.29033">
        <ele>259.3</ele>
        <time>2019-08-17T12:11:30Z</time>
      </trkpt>
      <trkpt lat="47.32808" lon="6.29026">
        <ele>259.4</ele>
        <time>2019-08-17T12:11:31Z</time>
      </trkpt>
      <trkpt lat="47.32805" lon="6.29021">
        <ele>259.5</ele>
        <time>2019-08-17T12:11:32Z</time>
      </trkpt>
      <trkpt lat="47.32802" lon="6.29015">
        <ele>259.5</ele>
        <time>2019-08-17T12:11:33Z</time>
      </trkpt>
      <trkpt lat="47.32799" lon="6.2901">
        <ele>259.5</ele>
        <time>2019-08-17T12:11:34Z</time>
      </trkpt>
      <trkpt lat="47.32796" lon="6.29004">
        <ele>259.4</ele>
        <time>2019-08-17T12:11:35Z</time>
      </trkpt>
      <trkpt lat="47.32793" lon="6.28999">
        <ele>259.3</ele>
        <time>2019-08-17T12:11:36Z</time>
      </trkpt>
      <trkpt lat="47.3279" lon="6.28992">
        <ele>259.2</ele>
        <time>2019-08-17T12:11:37Z</time>
      </trkpt>
      <trkpt lat="47.32788" lon="6.28987">
        <ele>259.1</ele>
        <time>2019-08-17T12:11:38Z</time>
      </trkpt>
      <trkpt lat="47.32785" lon="6.28982">
        <ele>258.9</ele>
        <time>2019-08-17T12:11:39Z</time>
      </trkpt>
      <trkpt lat="47.32782" lon="6.28977">
        <ele>258.7</ele>
        <time>2019-08-17T12:11:40Z</time>
      </trkpt>
      <trkpt lat="47.3278" lon="6.28972">
        <ele>258.5</ele>
        <time>2019-08-17T12:11:41Z</time>
      </trkpt>
      <trkpt lat="47.32776" lon="6.28966">
        <ele>258.2</ele>
        <time>2019-08-17T12:11:42Z</time>
      </trkpt>
      <trkpt lat="47.32774" lon="6.28961">
        <ele>258</ele>
        <time>2019-08-17T12:11:43Z</time>
      </trkpt>
      <trkpt lat="47.32771" lon="6.28955">
        <ele>257.8</ele>
        <time>2019-08-17T12:11:44Z</time>
      </trkpt>
      <trkpt lat="47.32768" lon="6.28949">
        <ele>257.6</ele>
        <time>2019-08-17T12:11:45Z</time>
      </trkpt>
      <trkpt lat="47.32764" lon="6.28944">
        <ele>257.5</ele>
        <time>2019-08-17T12:11:46Z</time>
      </trkpt>
      <trkpt lat="47.3276" lon="6.28939">
        <ele>257.5</ele>
        <time>2019-08-17T12:11:47Z</time>
      </trkpt>
      <trkpt lat="47.32756" lon="6.28934">
        <ele>257.5</ele>
        <time>2019-08-17T12:11:48Z</time>
      </trkpt>
      <trkpt lat="47.32752" lon="6.28929">
        <ele>257.5</ele>
        <time>2019-08-17T12:11:49Z</time>
      </trkpt>
      <trkpt lat="47.32748" lon="6.28923">
        <ele>257.6</ele>
        <time>2019-08-17T12:11:50Z</time>
      </trkpt>
      <trkpt lat="47.32743" lon="6.28916">
        <ele>257.7</ele>
        <time>2019-08-17T12:11:51Z</time>
      </trkpt>
      <trkpt lat="47.32739" lon="6.28909">
        <ele>257.9</ele>
        <time>2019-08-17T12:11:52Z</time>
      </trkpt>
      <trkpt lat="47.32735" lon="6.28903">
        <ele>258</ele>
        <time>2019-08-17T12:11:53Z</time>
      </trkpt>
      <trkpt lat="47.32731" lon="6.28897">
        <ele>258.2</ele>
        <time>2019-08-17T12:11:54Z</time>
      </trkpt>
      <trkpt lat="47.32727" lon="6.28891">
        <ele>258.3</ele>
        <time>2019-08-17T12:11:55Z</time>
      </trkpt>
      <trkpt lat="47.32723" lon="6.28887">
        <ele>258.4</ele>
        <time>2019-08-17T12:11:56Z</time>
      </trkpt>
      <trkpt lat="47.32719" lon="6.28882">
        <ele>258.5</ele>
        <time>2019-08-17T12:11:57Z</time>
      </trkpt>
      <trkpt lat="47.32716" lon="6.28876">
        <ele>258.6</ele>
        <time>2019-08-17T12:11:58Z</time>
      </trkpt>
      <trkpt lat="47.32712" lon="6.28871">
        <ele>258.8</ele>
        <time>2019-08-17T12:11:59Z</time>
      </trkpt>
      <trkpt lat="47.32709" lon="6.28866">
        <ele>258.8</ele>
        <time>2019-08-17T12:12:00Z</time>
      </trkpt>
      <trkpt lat="47.32705" lon="6.28859">
        <ele>258.9</ele>
        <time>2019-08-17T12:12:01Z</time>
      </trkpt>
      <trkpt lat="47.32701" lon="6.28853">
        <ele>258.9</ele>
        <time>2019-08-17T12:12:02Z</time>
      </trkpt>
      <trkpt lat="47.32697" lon="6.28848">
        <ele>258.9</ele>
        <time>2019-08-17T12:12:03Z</time>
      </trkpt>
      <trkpt lat="47.32693" lon="6.28842">
        <ele>258.8</ele>
        <time>2019-08-17T12:12:04Z</time>
      </trkpt>
      <trkpt lat="47.32689" lon="6.28836">
        <ele>258.7</ele>
        <time>2019-08-17T12:12:05Z</time>
      </trkpt>
      <trkpt lat="47.32685" lon="6.28829">
        <ele>258.6</ele>
        <time>2019-08-17T12:12:06Z</time>
      </trkpt>
      <trkpt lat="47.32681" lon="6.28824">
        <ele>258.6</ele>
        <time>2019-08-17T12:12:07Z</time>
      </trkpt>
      <trkpt lat="47.32677" lon="6.28818">
        <ele>258.5</ele>
        <time>2019-08-17T12:12:08Z</time>
      </trkpt>
      <trkpt lat="47.32673" lon="6.28813">
        <ele>258.4</ele>
        <time>2019-08-17T12:12:09Z</time>
      </trkpt>
      <trkpt lat="47.3267" lon="6.28807">
        <ele>258.4</ele>
        <time>2019-08-17T12:12:10Z</time>
      </trkpt>
      <trkpt lat="47.32667" lon="6.28802">
        <ele>258.4</ele>
        <time>2019-08-17T12:12:11Z</time>
      </trkpt>
      <trkpt lat="47.32664" lon="6.28797">
        <ele>258.5</ele>
        <time>2019-08-17T12:12:12Z</time>
      </trkpt>
      <trkpt lat="47.3266" lon="6.28791">
        <ele>258.5</ele>
        <time>2019-08-17T12:12:13Z</time>
      </trkpt>
      <trkpt lat="47.32656" lon="6.28788">
        <ele>258.6</ele>
        <time>2019-08-17T12:12:14Z</time>
      </trkpt>
      <trkpt lat="47.32652" lon="6.28783">
        <ele>258.7</ele>
        <time>2019-08-17T12:12:15Z</time>
      </trkpt>
      <trkpt lat="47.32647" lon="6.28779">
        <ele>258.8</ele>
        <time>2019-08-17T12:12:16Z</time>
      </trkpt>
      <trkpt lat="47.32643" lon="6.28775">
        <ele>258.8</ele>
        <time>2019-08-17T12:12:17Z</time>
      </trkpt>
      <trkpt lat="47.32639" lon="6.2877">
        <ele>258.9</ele>
        <time>2019-08-17T12:12:18Z</time>
      </trkpt>
      <trkpt lat="47.32636" lon="6.28766">
        <ele>258.9</ele>
        <time>2019-08-17T12:12:19Z</time>
      </trkpt>
      <trkpt lat="47.32633" lon="6.28763">
        <ele>258.9</ele>
        <time>2019-08-17T12:12:20Z</time>
      </trkpt>
      <trkpt lat="47.32629" lon="6.28759">
        <ele>258.8</ele>
        <time>2019-08-17T12:12:21Z</time>
      </trkpt>
      <trkpt lat="47.32626" lon="6.28754">
        <ele>258.8</ele>
        <time>2019-08-17T12:12:22Z</time>
      </trkpt>
      <trkpt lat="47.32622" lon="6.28751">
        <ele>258.7</ele>
        <time>2019-08-17T12:12:23Z</time>
      </trkpt>
      <trkpt lat="47.32617" lon="6.28747">
        <ele>258.6</ele>
        <time>2019-08-17T12:12:24Z</time>
      </trkpt>
      <trkpt lat="47.32612" lon="6.28743">
        <ele>258.5</ele>
        <time>2019-08-17T12:12:25Z</time>
      </trkpt>
      <trkpt lat="47.32607" lon="6.28739">
        <ele>258.4</ele>
        <time>2019-08-17T12:12:26Z</time>
      </trkpt>
      <trkpt lat="47.32603" lon="6.28734">
        <ele>258.3</ele>
        <time>2019-08-17T12:12:27Z</time>
      </trkpt>
      <trkpt lat="47.32598" lon="6.28729">
        <ele>258.2</ele>
        <time>2019-08-17T12:12:28Z</time>
      </trkpt>
      <trkpt lat="47.32594" lon="6.28725">
        <ele>258.2</ele>
        <time>2019-08-17T12:12:29Z</time>
      </trkpt>
      <trkpt lat="47.3259" lon="6.28719">
        <ele>258.2</ele>
        <time>2019-08-17T12:12:30Z</time>
      </trkpt>
      <trkpt lat="47.32587" lon="6.28714">
        <ele>258.3</ele>
        <time>2019-08-17T12:12:31Z</time>
      </trkpt>
      <trkpt lat="47.32584" lon="6.28708">
        <ele>258.4</ele>
        <time>2019-08-17T12:12:32Z</time>
      </trkpt>
      <trkpt lat="47.32581" lon="6.28703">
        <ele>258.5</ele>
        <time>2019-08-17T12:12:33Z</time>
      </trkpt>
      <trkpt lat="47.32577" lon="6.28698">
        <ele>258.7</ele>
        <time>2019-08-17T12:12:34Z</time>
      </trkpt>
      <trkpt lat="47.32573" lon="6.28694">
        <ele>258.9</ele>
        <time>2019-08-17T12:12:35Z</time>
      </trkpt>
      <trkpt lat="47.32569" lon="6.2869">
        <ele>259.1</ele>
        <time>2019-08-17T12:12:36Z</time>
      </trkpt>
      <trkpt lat="47.32565" lon="6.28686">
        <ele>259.2</ele>
        <time>2019-08-17T12:12:37Z</time>
      </trkpt>
      <trkpt lat="47.32561" lon="6.28683">
        <ele>259.3</ele>
        <time>2019-08-17T12:12:38Z</time>
      </trkpt>
      <trkpt lat="47.32558" lon="6.2868">
        <ele>259.4</ele>
        <time>2019-08-17T12:12:39Z</time>
      </trkpt>
      <trkpt lat="47.32554" lon="6.28676">
        <ele>259.4</ele>
        <time>2019-08-17T12:12:40Z</time>
      </trkpt>
      <trkpt lat="47.3255" lon="6.28672">
        <ele>259.4</ele>
        <time>2019-08-17T12:12:41Z</time>
      </trkpt>
      <trkpt lat="47.32546" lon="6.28668">
        <ele>259.3</ele>
        <time>2019-08-17T12:12:42Z</time>
      </trkpt>
      <trkpt lat="47.32542" lon="6.28663">
        <ele>259.2</ele>
        <time>2019-08-17T12:12:43Z</time>
      </trkpt>
      <trkpt lat="47.32538" lon="6.28658">
        <ele>259.1</ele>
        <time>2019-08-17T12:12:44Z</time>
      </trkpt>
      <trkpt lat="47.32534" lon="6.28652">
        <ele>258.8</ele>
        <time>2019-08-17T12:12:45Z</time>
      </trkpt>
      <trkpt lat="47.32529" lon="6.28647">
        <ele>258.6</ele>
        <time>2019-08-17T12:12:46Z</time>
      </trkpt>
      <trkpt lat="47.32525" lon="6.28643">
        <ele>258.4</ele>
        <time>2019-08-17T12:12:47Z</time>
      </trkpt>
      <trkpt lat="47.3252" lon="6.28639">
        <ele>258.3</ele>
        <time>2019-08-17T12:12:48Z</time>
      </trkpt>
      <trkpt lat="47.32516" lon="6.28634">
        <ele>258.3</ele>
        <time>2019-08-17T12:12:49Z</time>
      </trkpt>
      <trkpt lat="47.32511" lon="6.28631">
        <ele>258.2</ele>
        <time>2019-08-17T12:12:50Z</time>
      </trkpt>
      <trkpt lat="47.32508" lon="6.28628">
        <ele>258.2</ele>
        <time>2019-08-17T12:12:51Z</time>
      </trkpt>
      <trkpt lat="47.32504" lon="6.28624">
        <ele>258.2</ele>
        <time>2019-08-17T12:12:52Z</time>
      </trkpt>
      <trkpt lat="47.325" lon="6.28621">
        <ele>258.3</ele>
        <time>2019-08-17T12:12:53Z</time>
      </trkpt>
      <trkpt lat="47.32497" lon="6.28616">
        <ele>258.3</ele>
        <time>2019-08-17T12:12:54Z</time>
      </trkpt>
      <trkpt lat="47.32492" lon="6.28611">
        <ele>258.3</ele>
        <time>2019-08-17T12:12:55Z</time>
      </trkpt>
      <trkpt lat="47.32488" lon="6.28606">
        <ele>258.3</ele>
        <time>2019-08-17T12:12:56Z</time>
      </trkpt>
      <trkpt lat="47.32483" lon="6.28602">
        <ele>258.3</ele>
        <time>2019-08-17T12:12:57Z</time>
      </trkpt>
      <trkpt lat="47.32479" lon="6.28599">
        <ele>258.2</ele>
        <time>2019-08-17T12:12:58Z</time>
      </trkpt>
      <trkpt lat="47.32475" lon="6.28595">
        <ele>258.1</ele>
        <time>2019-08-17T12:12:59Z</time>
      </trkpt>
      <trkpt lat="47.32471" lon="6.28592">
        <ele>258.1</ele>
        <time>2019-08-17T12:13:00Z</time>
      </trkpt>
      <trkpt lat="47.32467" lon="6.28588">
        <ele>258</ele>
        <time>2019-08-17T12:13:01Z</time>
      </trkpt>
      <trkpt lat="47.32463" lon="6.28583">
        <ele>258</ele>
        <time>2019-08-17T12:13:02Z</time>
      </trkpt>
      <trkpt lat="47.32458" lon="6.28579">
        <ele>257.9</ele>
        <time>2019-08-17T12:13:03Z</time>
      </trkpt>
      <trkpt lat="47.32454" lon="6.28575">
        <ele>257.9</ele>
        <time>2019-08-17T12:13:04Z</time>
      </trkpt>
      <trkpt lat="47.3245" lon="6.28571">
        <ele>257.9</ele>
        <time>2019-08-17T12:13:05Z</time>
      </trkpt>
      <trkpt lat="47.32446" lon="6.28567">
        <ele>258</ele>
        <time>2019-08-17T12:13:06Z</time>
      </trkpt>
      <trkpt lat="47.32441" lon="6.28563">
        <ele>258.1</ele>
        <time>2019-08-17T12:13:07Z</time>
      </trkpt>
      <trkpt lat="47.32437" lon="6.28559">
        <ele>258.1</ele>
        <time>2019-08-17T12:13:08Z</time>
      </trkpt>
      <trkpt lat="47.32433" lon="6.28555">
        <ele>258.3</ele>
        <time>2019-08-17T12:13:09Z</time>
      </trkpt>
      <trkpt lat="47.32428" lon="6.28551">
        <ele>258.4</ele>
        <time>2019-08-17T12:13:10Z</time>
      </trkpt>
      <trkpt lat="47.32424" lon="6.28546">
        <ele>258.6</ele>
        <time>2019-08-17T12:13:11Z</time>
      </trkpt>
      <trkpt lat="47.32421" lon="6.28542">
        <ele>258.7</ele>
        <time>2019-08-17T12:13:12Z</time>
      </trkpt>
      <trkpt lat="47.32417" lon="6.28539">
        <ele>258.8</ele>
        <time>2019-08-17T12:13:13Z</time>
      </trkpt>
      <trkpt lat="47.32413" lon="6.28535">
        <ele>259</ele>
        <time>2019-08-17T12:13:14Z</time>
      </trkpt>
      <trkpt lat="47.32409" lon="6.28533">
        <ele>259.1</ele>
        <time>2019-08-17T12:13:15Z</time>
      </trkpt>
      <trkpt lat="47.32405" lon="6.28529">
        <ele>259.1</ele>
        <time>2019-08-17T12:13:16Z</time>
      </trkpt>
      <trkpt lat="47.32401" lon="6.28525">
        <ele>259.2</ele>
        <time>2019-08-17T12:13:17Z</time>
      </trkpt>
      <trkpt lat="47.32397" lon="6.2852">
        <ele>259.2</ele>
        <time>2019-08-17T12:13:18Z</time>
      </trkpt>
      <trkpt lat="47.32393" lon="6.28515">
        <ele>259.1</ele>
        <time>2019-08-17T12:13:19Z</time>
      </trkpt>
      <trkpt lat="47.32389" lon="6.28511">
        <ele>259.1</ele>
        <time>2019-08-17T12:13:20Z</time>
      </trkpt>
      <trkpt lat="47.32384" lon="6.28509">
        <ele>258.9</ele>
        <time>2019-08-17T12:13:21Z</time>
      </trkpt>
      <trkpt lat="47.32381" lon="6.28506">
        <ele>258.8</ele>
        <time>2019-08-17T12:13:22Z</time>
      </trkpt>
      <trkpt lat="47.32377" lon="6.28503">
        <ele>258.7</ele>
        <time>2019-08-17T12:13:23Z</time>
      </trkpt>
      <trkpt lat="47.32373" lon="6.285">
        <ele>258.6</ele>
        <time>2019-08-17T12:13:24Z</time>
      </trkpt>
      <trkpt lat="47.3237" lon="6.28497">
        <ele>258.4</ele>
        <time>2019-08-17T12:13:25Z</time>
      </trkpt>
      <trkpt lat="47.32367" lon="6.28494">
        <ele>258.3</ele>
        <time>2019-08-17T12:13:26Z</time>
      </trkpt>
      <trkpt lat="47.32363" lon="6.28491">
        <ele>258.2</ele>
        <time>2019-08-17T12:13:27Z</time>
      </trkpt>
      <trkpt lat="47.3236" lon="6.28487">
        <ele>258.1</ele>
        <time>2019-08-17T12:13:28Z</time>
      </trkpt>
      <trkpt lat="47.32357" lon="6.28483">
        <ele>257.9</ele>
        <time>2019-08-17T12:13:29Z</time>
      </trkpt>
      <trkpt lat="47.32352" lon="6.28479">
        <ele>257.8</ele>
        <time>2019-08-17T12:13:30Z</time>
      </trkpt>
      <trkpt lat="47.32348" lon="6.28474">
        <ele>257.7</ele>
        <time>2019-08-17T12:13:31Z</time>
      </trkpt>
      <trkpt lat="47.32344" lon="6.2847">
        <ele>257.7</ele>
        <time>2019-08-17T12:13:32Z</time>
      </trkpt>
      <trkpt lat="47.32341" lon="6.28464">
        <ele>257.6</ele>
        <time>2019-08-17T12:13:33Z</time>
      </trkpt>
      <trkpt lat="47.32337" lon="6.28459">
        <ele>257.6</ele>
        <time>2019-08-17T12:13:34Z</time>
      </trkpt>
      <trkpt lat="47.32332" lon="6.28452">
        <ele>257.6</ele>
        <time>2019-08-17T12:13:35Z</time>
      </trkpt>
      <trkpt lat="47.32328" lon="6.28444">
        <ele>257.6</ele>
        <time>2019-08-17T12:13:36Z</time>
      </trkpt>
      <trkpt lat="47.32325" lon="6.2844">
        <ele>257.6</ele>
        <time>2019-08-17T12:13:37Z</time>
      </trkpt>
      <trkpt lat="47.32321" lon="6.28435">
        <ele>257.6</ele>
        <time>2019-08-17T12:13:38Z</time>
      </trkpt>
      <trkpt lat="47.32317" lon="6.2843">
        <ele>257.6</ele>
        <time>2019-08-17T12:13:39Z</time>
      </trkpt>
      <trkpt lat="47.32313" lon="6.28424">
        <ele>257.7</ele>
        <time>2019-08-17T12:13:40Z</time>
      </trkpt>
      <trkpt lat="47.32309" lon="6.28419">
        <ele>257.7</ele>
        <time>2019-08-17T12:13:41Z</time>
      </trkpt>
      <trkpt lat="47.32305" lon="6.28412">
        <ele>257.8</ele>
        <time>2019-08-17T12:13:42Z</time>
      </trkpt>
      <trkpt lat="47.32301" lon="6.28407">
        <ele>257.9</ele>
        <time>2019-08-17T12:13:43Z</time>
      </trkpt>
      <trkpt lat="47.32298" lon="6.28403">
        <ele>258</ele>
        <time>2019-08-17T12:13:44Z</time>
      </trkpt>
      <trkpt lat="47.32295" lon="6.28398">
        <ele>258.2</ele>
        <time>2019-08-17T12:13:45Z</time>
      </trkpt>
      <trkpt lat="47.32292" lon="6.28394">
        <ele>258.3</ele>
        <time>2019-08-17T12:13:46Z</time>
      </trkpt>
      <trkpt lat="47.32289" lon="6.2839">
        <ele>258.5</ele>
        <time>2019-08-17T12:13:47Z</time>
      </trkpt>
      <trkpt lat="47.32286" lon="6.28386">
        <ele>258.7</ele>
        <time>2019-08-17T12:13:48Z</time>
      </trkpt>
      <trkpt lat="47.32283" lon="6.28383">
        <ele>258.9</ele>
        <time>2019-08-17T12:13:49Z</time>
      </trkpt>
      <trkpt lat="47.32279" lon="6.28379">
        <ele>259.1</ele>
        <time>2019-08-17T12:13:50Z</time>
      </trkpt>
      <trkpt lat="47.32276" lon="6.28376">
        <ele>259.3</ele>
        <time>2019-08-17T12:13:51Z</time>
      </trkpt>
      <trkpt lat="47.32273" lon="6.28373">
        <ele>259.5</ele>
        <time>2019-08-17T12:13:52Z</time>
      </trkpt>
      <trkpt lat="47.32269" lon="6.28371">
        <ele>259.7</ele>
        <time>2019-08-17T12:13:53Z</time>
      </trkpt>
      <trkpt lat="47.32266" lon="6.28368">
        <ele>259.8</ele>
        <time>2019-08-17T12:13:54Z</time>
      </trkpt>
      <trkpt lat="47.32264" lon="6.28364">
        <ele>259.9</ele>
        <time>2019-08-17T12:13:55Z</time>
      </trkpt>
      <trkpt lat="47.3226" lon="6.2836">
        <ele>259.9</ele>
        <time>2019-08-17T12:13:56Z</time>
      </trkpt>
      <trkpt lat="47.32256" lon="6.28355">
        <ele>259.9</ele>
        <time>2019-08-17T12:13:57Z</time>
      </trkpt>
      <trkpt lat="47.32251" lon="6.28347">
        <ele>259.8</ele>
        <time>2019-08-17T12:13:58Z</time>
      </trkpt>
      <trkpt lat="47.32247" lon="6.28342">
        <ele>259.7</ele>
        <time>2019-08-17T12:13:59Z</time>
      </trkpt>
      <trkpt lat="47.32242" lon="6.28338">
        <ele>259.6</ele>
        <time>2019-08-17T12:14:00Z</time>
      </trkpt>
      <trkpt lat="47.32237" lon="6.28333">
        <ele>259.4</ele>
        <time>2019-08-17T12:14:01Z</time>
      </trkpt>
      <trkpt lat="47.32233" lon="6.28327">
        <ele>259.2</ele>
        <time>2019-08-17T12:14:02Z</time>
      </trkpt>
      <trkpt lat="47.32228" lon="6.28321">
        <ele>259</ele>
        <time>2019-08-17T12:14:03Z</time>
      </trkpt>
      <trkpt lat="47.32223" lon="6.28316">
        <ele>258.7</ele>
        <time>2019-08-17T12:14:04Z</time>
      </trkpt>
      <trkpt lat="47.32218" lon="6.2831">
        <ele>258.5</ele>
        <time>2019-08-17T12:14:05Z</time>
      </trkpt>
      <trkpt lat="47.32213" lon="6.28307">
        <ele>258.3</ele>
        <time>2019-08-17T12:14:06Z</time>
      </trkpt>
      <trkpt lat="47.3221" lon="6.28302">
        <ele>258.1</ele>
        <time>2019-08-17T12:14:07Z</time>
      </trkpt>
      <trkpt lat="47.32206" lon="6.28296">
        <ele>257.9</ele>
        <time>2019-08-17T12:14:08Z</time>
      </trkpt>
      <trkpt lat="47.32202" lon="6.28292">
        <ele>257.7</ele>
        <time>2019-08-17T12:14:09Z</time>
      </trkpt>
      <trkpt lat="47.32199" lon="6.28285">
        <ele>257.6</ele>
        <time>2019-08-17T12:14:10Z</time>
      </trkpt>
      <trkpt lat="47.32195" lon="6.28279">
        <ele>257.5</ele>
        <time>2019-08-17T12:14:11Z</time>
      </trkpt>
      <trkpt lat="47.32192" lon="6.28272">
        <ele>257.5</ele>
        <time>2019-08-17T12:14:12Z</time>
      </trkpt>
      <trkpt lat="47.32189" lon="6.28267">
        <ele>257.5</ele>
        <time>2019-08-17T12:14:13Z</time>
      </trkpt>
      <trkpt lat="47.32185" lon="6.28261">
        <ele>257.5</ele>
        <time>2019-08-17T12:14:14Z</time>
      </trkpt>
      <trkpt lat="47.32182" lon="6.28255">
        <ele>257.5</ele>
        <time>2019-08-17T12:14:15Z</time>
      </trkpt>
      <trkpt lat="47.32178" lon="6.28249">
        <ele>257.5</ele>
        <time>2019-08-17T12:14:16Z</time>
      </trkpt>
      <trkpt lat="47.32175" lon="6.28244">
        <ele>257.5</ele>
        <time>2019-08-17T12:14:17Z</time>
      </trkpt>
      <trkpt lat="47.32172" lon="6.2824">
        <ele>257.6</ele>
        <time>2019-08-17T12:14:18Z</time>
      </trkpt>
      <trkpt lat="47.32169" lon="6.28235">
        <ele>257.6</ele>
        <time>2019-08-17T12:14:19Z</time>
      </trkpt>
      <trkpt lat="47.32167" lon="6.28229">
        <ele>257.7</ele>
        <time>2019-08-17T12:14:20Z</time>
      </trkpt>
      <trkpt lat="47.32165" lon="6.28224">
        <ele>257.7</ele>
        <time>2019-08-17T12:14:21Z</time>
      </trkpt>
      <trkpt lat="47.32163" lon="6.28218">
        <ele>257.8</ele>
        <time>2019-08-17T12:14:22Z</time>
      </trkpt>
      <trkpt lat="47.32161" lon="6.2821">
        <ele>257.8</ele>
        <time>2019-08-17T12:14:23Z</time>
      </trkpt>
      <trkpt lat="47.32159" lon="6.28203">
        <ele>257.8</ele>
        <time>2019-08-17T12:14:24Z</time>
      </trkpt>
      <trkpt lat="47.32158" lon="6.28195">
        <ele>257.8</ele>
        <time>2019-08-17T12:14:25Z</time>
      </trkpt>
      <trkpt lat="47.32157" lon="6.28187">
        <ele>257.8</ele>
        <time>2019-08-17T12:14:26Z</time>
      </trkpt>
      <trkpt lat="47.32156" lon="6.2818">
        <ele>257.7</ele>
        <time>2019-08-17T12:14:27Z</time>
      </trkpt>
      <trkpt lat="47.32156" lon="6.28173">
        <ele>257.7</ele>
        <time>2019-08-17T12:14:28Z</time>
      </trkpt>
      <trkpt lat="47.32155" lon="6.28167">
        <ele>257.6</ele>
        <time>2019-08-17T12:14:29Z</time>
      </trkpt>
      <trkpt lat="47.32156" lon="6.28161">
        <ele>257.5</ele>
        <time>2019-08-17T12:14:30Z</time>
      </trkpt>
      <trkpt lat="47.32156" lon="6.28156">
        <ele>257.5</ele>
        <time>2019-08-17T12:14:31Z</time>
      </trkpt>
      <trkpt lat="47.32156" lon="6.2815">
        <ele>257.5</ele>
        <time>2019-08-17T12:14:32Z</time>
      </trkpt>
      <trkpt lat="47.32155" lon="6.28142">
        <ele>257.6</ele>
        <time>2019-08-17T12:14:33Z</time>
      </trkpt>
      <trkpt lat="47.32155" lon="6.28135">
        <ele>257.7</ele>
        <time>2019-08-17T12:14:34Z</time>
      </trkpt>
      <trkpt lat="47.32155" lon="6.28127">
        <ele>257.9</ele>
        <time>2019-08-17T12:14:35Z</time>
      </trkpt>
      <trkpt lat="47.32156" lon="6.28119">
        <ele>258.1</ele>
        <time>2019-08-17T12:14:36Z</time>
      </trkpt>
      <trkpt lat="47.32157" lon="6.28112">
        <ele>258.4</ele>
        <time>2019-08-17T12:14:37Z</time>
      </trkpt>
      <trkpt lat="47.32156" lon="6.28105">
        <ele>258.6</ele>
        <time>2019-08-17T12:14:38Z</time>
      </trkpt>
      <trkpt lat="47.32156" lon="6.28099">
        <ele>258.9</ele>
        <time>2019-08-17T12:14:39Z</time>
      </trkpt>
      <trkpt lat="47.32155" lon="6.28093">
        <ele>259.2</ele>
        <time>2019-08-17T12:14:40Z</time>
      </trkpt>
      <trkpt lat="47.32154" lon="6.28087">
        <ele>259.4</ele>
        <time>2019-08-17T12:14:41Z</time>
      </trkpt>
      <trkpt lat="47.32153" lon="6.28082">
        <ele>259.7</ele>
        <time>2019-08-17T12:14:42Z</time>
      </trkpt>
      <trkpt lat="47.32153" lon="6.28076">
        <ele>259.9</ele>
        <time>2019-08-17T12:14:43Z</time>
      </trkpt>
      <trkpt lat="47.32152" lon="6.28068">
        <ele>260.1</ele>
        <time>2019-08-17T12:14:44Z</time>
      </trkpt>
      <trkpt lat="47.32151" lon="6.28062">
        <ele>260.3</ele>
        <time>2019-08-17T12:14:45Z</time>
      </trkpt>
      <trkpt lat="47.3215" lon="6.28055">
        <ele>260.4</ele>
        <time>2019-08-17T12:14:46Z</time>
      </trkpt>
      <trkpt lat="47.32149" lon="6.28048">
        <ele>260.4</ele>
        <time>2019-08-17T12:14:47Z</time>
      </trkpt>
      <trkpt lat="47.32149" lon="6.28042">
        <ele>260.3</ele>
        <time>2019-08-17T12:14:48Z</time>
      </trkpt>
      <trkpt lat="47.32148" lon="6.28038">
        <ele>260.3</ele>
        <time>2019-08-17T12:14:49Z</time>
      </trkpt>
      <trkpt lat="47.32148" lon="6.28032">
        <ele>260.1</ele>
        <time>2019-08-17T12:14:50Z</time>
      </trkpt>
      <trkpt lat="47.32147" lon="6.28027">
        <ele>259.9</ele>
        <time>2019-08-17T12:14:51Z</time>
      </trkpt>
      <trkpt lat="47.32146" lon="6.28023">
        <ele>259.7</ele>
        <time>2019-08-17T12:14:52Z</time>
      </trkpt>
      <trkpt lat="47.32144" lon="6.28016">
        <ele>259.2</ele>
        <time>2019-08-17T12:14:54Z</time>
      </trkpt>
      <trkpt lat="47.32144" lon="6.2801">
        <ele>258.9</ele>
        <time>2019-08-17T12:14:56Z</time>
      </trkpt>
      <trkpt lat="47.32143" lon="6.28002">
        <ele>258.5</ele>
        <time>2019-08-17T12:14:58Z</time>
      </trkpt>
      <trkpt lat="47.32143" lon="6.27995">
        <ele>258.2</ele>
        <time>2019-08-17T12:14:59Z</time>
      </trkpt>
      <trkpt lat="47.32142" lon="6.27988">
        <ele>257.8</ele>
        <time>2019-08-17T12:15:00Z</time>
      </trkpt>
      <trkpt lat="47.32142" lon="6.27981">
        <ele>257.4</ele>
        <time>2019-08-17T12:15:01Z</time>
      </trkpt>
      <trkpt lat="47.32141" lon="6.27974">
        <ele>257</ele>
        <time>2019-08-17T12:15:02Z</time>
      </trkpt>
      <trkpt lat="47.3214" lon="6.27965">
        <ele>256.7</ele>
        <time>2019-08-17T12:15:03Z</time>
      </trkpt>
      <trkpt lat="47.3214" lon="6.27956">
        <ele>256.5</ele>
        <time>2019-08-17T12:15:04Z</time>
      </trkpt>
      <trkpt lat="47.3214" lon="6.27946">
        <ele>256.4</ele>
        <time>2019-08-17T12:15:05Z</time>
      </trkpt>
      <trkpt lat="47.32139" lon="6.27936">
        <ele>256.3</ele>
        <time>2019-08-17T12:15:06Z</time>
      </trkpt>
      <trkpt lat="47.32138" lon="6.27925">
        <ele>256.4</ele>
        <time>2019-08-17T12:15:07Z</time>
      </trkpt>
      <trkpt lat="47.32138" lon="6.27917">
        <ele>256.7</ele>
        <time>2019-08-17T12:15:08Z</time>
      </trkpt>
      <trkpt lat="47.32138" lon="6.27909">
        <ele>257</ele>
        <time>2019-08-17T12:15:09Z</time>
      </trkpt>
      <trkpt lat="47.32139" lon="6.27903">
        <ele>257.3</ele>
        <time>2019-08-17T12:15:10Z</time>
      </trkpt>
      <trkpt lat="47.32139" lon="6.27897">
        <ele>257.5</ele>
        <time>2019-08-17T12:15:11Z</time>
      </trkpt>
      <trkpt lat="47.3214" lon="6.27891">
        <ele>257.6</ele>
        <time>2019-08-17T12:15:12Z</time>
      </trkpt>
      <trkpt lat="47.32141" lon="6.27885">
        <ele>257.6</ele>
        <time>2019-08-17T12:15:13Z</time>
      </trkpt>
      <trkpt lat="47.32142" lon="6.27879">
        <ele>257.6</ele>
        <time>2019-08-17T12:15:14Z</time>
      </trkpt>
      <trkpt lat="47.32143" lon="6.27873">
        <ele>257.7</ele>
        <time>2019-08-17T12:15:15Z</time>
      </trkpt>
      <trkpt lat="47.32144" lon="6.27867">
        <ele>257.7</ele>
        <time>2019-08-17T12:15:16Z</time>
      </trkpt>
      <trkpt lat="47.32145" lon="6.2786">
        <ele>257.7</ele>
        <time>2019-08-17T12:15:17Z</time>
      </trkpt>
      <trkpt lat="47.32147" lon="6.27853">
        <ele>257.8</ele>
        <time>2019-08-17T12:15:18Z</time>
      </trkpt>
      <trkpt lat="47.32148" lon="6.27847">
        <ele>257.8</ele>
        <time>2019-08-17T12:15:19Z</time>
      </trkpt>
      <trkpt lat="47.32149" lon="6.27841">
        <ele>257.8</ele>
        <time>2019-08-17T12:15:20Z</time>
      </trkpt>
      <trkpt lat="47.3215" lon="6.27835">
        <ele>257.8</ele>
        <time>2019-08-17T12:15:21Z</time>
      </trkpt>
      <trkpt lat="47.3215" lon="6.27829">
        <ele>257.9</ele>
        <time>2019-08-17T12:15:22Z</time>
      </trkpt>
      <trkpt lat="47.3215" lon="6.27822">
        <ele>257.9</ele>
        <time>2019-08-17T12:15:23Z</time>
      </trkpt>
      <trkpt lat="47.32151" lon="6.27816">
        <ele>257.9</ele>
        <time>2019-08-17T12:15:24Z</time>
      </trkpt>
      <trkpt lat="47.32151" lon="6.27811">
        <ele>258</ele>
        <time>2019-08-17T12:15:25Z</time>
      </trkpt>
      <trkpt lat="47.32152" lon="6.27804">
        <ele>258</ele>
        <time>2019-08-17T12:15:26Z</time>
      </trkpt>
      <trkpt lat="47.32153" lon="6.27798">
        <ele>258</ele>
        <time>2019-08-17T12:15:27Z</time>
      </trkpt>
      <trkpt lat="47.32154" lon="6.27791">
        <ele>258</ele>
        <time>2019-08-17T12:15:28Z</time>
      </trkpt>
      <trkpt lat="47.32154" lon="6.27783">
        <ele>258</ele>
        <time>2019-08-17T12:15:29Z</time>
      </trkpt>
      <trkpt lat="47.32155" lon="6.27775">
        <ele>258.1</ele>
        <time>2019-08-17T12:15:30Z</time>
      </trkpt>
      <trkpt lat="47.32156" lon="6.27767">
        <ele>258.1</ele>
        <time>2019-08-17T12:15:31Z</time>
      </trkpt>
      <trkpt lat="47.32156" lon="6.27759">
        <ele>258.1</ele>
        <time>2019-08-17T12:15:32Z</time>
      </trkpt>
      <trkpt lat="47.32157" lon="6.27752">
        <ele>258.1</ele>
        <time>2019-08-17T12:15:33Z</time>
      </trkpt>
      <trkpt lat="47.32158" lon="6.27745">
        <ele>258.1</ele>
        <time>2019-08-17T12:15:34Z</time>
      </trkpt>
      <trkpt lat="47.32157" lon="6.27738">
        <ele>258.1</ele>
        <time>2019-08-17T12:15:35Z</time>
      </trkpt>
      <trkpt lat="47.32158" lon="6.27731">
        <ele>258.1</ele>
        <time>2019-08-17T12:15:36Z</time>
      </trkpt>
      <trkpt lat="47.32158" lon="6.27724">
        <ele>258.1</ele>
        <time>2019-08-17T12:15:37Z</time>
      </trkpt>
      <trkpt lat="47.32159" lon="6.27715">
        <ele>258.1</ele>
        <time>2019-08-17T12:15:38Z</time>
      </trkpt>
      <trkpt lat="47.32159" lon="6.27708">
        <ele>258.1</ele>
        <time>2019-08-17T12:15:39Z</time>
      </trkpt>
      <trkpt lat="47.32159" lon="6.27699">
        <ele>258.1</ele>
        <time>2019-08-17T12:15:40Z</time>
      </trkpt>
      <trkpt lat="47.32159" lon="6.27691">
        <ele>258.1</ele>
        <time>2019-08-17T12:15:41Z</time>
      </trkpt>
      <trkpt lat="47.32159" lon="6.27683">
        <ele>258</ele>
        <time>2019-08-17T12:15:42Z</time>
      </trkpt>
      <trkpt lat="47.32159" lon="6.27677">
        <ele>258</ele>
        <time>2019-08-17T12:15:43Z</time>
      </trkpt>
      <trkpt lat="47.32159" lon="6.2767">
        <ele>257.9</ele>
        <time>2019-08-17T12:15:44Z</time>
      </trkpt>
      <trkpt lat="47.32159" lon="6.27662">
        <ele>257.9</ele>
        <time>2019-08-17T12:15:45Z</time>
      </trkpt>
      <trkpt lat="47.32159" lon="6.27655">
        <ele>257.8</ele>
        <time>2019-08-17T12:15:46Z</time>
      </trkpt>
      <trkpt lat="47.32159" lon="6.27648">
        <ele>257.8</ele>
        <time>2019-08-17T12:15:47Z</time>
      </trkpt>
      <trkpt lat="47.32159" lon="6.27641">
        <ele>257.8</ele>
        <time>2019-08-17T12:15:48Z</time>
      </trkpt>
      <trkpt lat="47.32158" lon="6.27634">
        <ele>257.7</ele>
        <time>2019-08-17T12:15:49Z</time>
      </trkpt>
      <trkpt lat="47.32158" lon="6.27627">
        <ele>257.7</ele>
        <time>2019-08-17T12:15:50Z</time>
      </trkpt>
      <trkpt lat="47.32157" lon="6.2762">
        <ele>257.7</ele>
        <time>2019-08-17T12:15:51Z</time>
      </trkpt>
      <trkpt lat="47.32156" lon="6.27612">
        <ele>257.6</ele>
        <time>2019-08-17T12:15:52Z</time>
      </trkpt>
      <trkpt lat="47.32154" lon="6.27605">
        <ele>257.6</ele>
        <time>2019-08-17T12:15:53Z</time>
      </trkpt>
      <trkpt lat="47.32153" lon="6.27598">
        <ele>257.7</ele>
        <time>2019-08-17T12:15:54Z</time>
      </trkpt>
      <trkpt lat="47.32152" lon="6.27591">
        <ele>257.7</ele>
        <time>2019-08-17T12:15:55Z</time>
      </trkpt>
      <trkpt lat="47.32151" lon="6.27584">
        <ele>257.7</ele>
        <time>2019-08-17T12:15:56Z</time>
      </trkpt>
      <trkpt lat="47.32149" lon="6.27577">
        <ele>257.7</ele>
        <time>2019-08-17T12:15:57Z</time>
      </trkpt>
      <trkpt lat="47.32148" lon="6.2757">
        <ele>257.8</ele>
        <time>2019-08-17T12:15:58Z</time>
      </trkpt>
      <trkpt lat="47.32147" lon="6.27564">
        <ele>257.9</ele>
        <time>2019-08-17T12:15:59Z</time>
      </trkpt>
      <trkpt lat="47.32145" lon="6.27557">
        <ele>258</ele>
        <time>2019-08-17T12:16:00Z</time>
      </trkpt>
      <trkpt lat="47.32143" lon="6.2755">
        <ele>258</ele>
        <time>2019-08-17T12:16:01Z</time>
      </trkpt>
      <trkpt lat="47.32142" lon="6.27544">
        <ele>258</ele>
        <time>2019-08-17T12:16:02Z</time>
      </trkpt>
      <trkpt lat="47.32139" lon="6.27538">
        <ele>258.1</ele>
        <time>2019-08-17T12:16:03Z</time>
      </trkpt>
      <trkpt lat="47.32137" lon="6.27532">
        <ele>258.1</ele>
        <time>2019-08-17T12:16:04Z</time>
      </trkpt>
      <trkpt lat="47.32136" lon="6.27525">
        <ele>258.1</ele>
        <time>2019-08-17T12:16:05Z</time>
      </trkpt>
      <trkpt lat="47.32134" lon="6.2752">
        <ele>258.1</ele>
        <time>2019-08-17T12:16:06Z</time>
      </trkpt>
      <trkpt lat="47.32131" lon="6.27513">
        <ele>258.1</ele>
        <time>2019-08-17T12:16:07Z</time>
      </trkpt>
      <trkpt lat="47.32129" lon="6.27506">
        <ele>258.1</ele>
        <time>2019-08-17T12:16:08Z</time>
      </trkpt>
      <trkpt lat="47.32128" lon="6.27498">
        <ele>258.1</ele>
        <time>2019-08-17T12:16:09Z</time>
      </trkpt>
      <trkpt lat="47.32127" lon="6.27492">
        <ele>258</ele>
        <time>2019-08-17T12:16:10Z</time>
      </trkpt>
      <trkpt lat="47.32126" lon="6.27485">
        <ele>258</ele>
        <time>2019-08-17T12:16:11Z</time>
      </trkpt>
      <trkpt lat="47.32126" lon="6.27479">
        <ele>257.9</ele>
        <time>2019-08-17T12:16:12Z</time>
      </trkpt>
      <trkpt lat="47.32127" lon="6.27472">
        <ele>257.9</ele>
        <time>2019-08-17T12:16:13Z</time>
      </trkpt>
      <trkpt lat="47.32127" lon="6.27467">
        <ele>257.8</ele>
        <time>2019-08-17T12:16:14Z</time>
      </trkpt>
      <trkpt lat="47.32127" lon="6.27462">
        <ele>257.8</ele>
        <time>2019-08-17T12:16:15Z</time>
      </trkpt>
      <trkpt lat="47.32126" lon="6.27457">
        <ele>257.8</ele>
        <time>2019-08-17T12:16:16Z</time>
      </trkpt>
      <trkpt lat="47.32125" lon="6.27451">
        <ele>257.8</ele>
        <time>2019-08-17T12:16:17Z</time>
      </trkpt>
      <trkpt lat="47.32125" lon="6.27445">
        <ele>257.8</ele>
        <time>2019-08-17T12:16:18Z</time>
      </trkpt>
      <trkpt lat="47.32123" lon="6.27437">
        <ele>257.9</ele>
        <time>2019-08-17T12:16:19Z</time>
      </trkpt>
      <trkpt lat="47.32121" lon="6.2743">
        <ele>257.9</ele>
        <time>2019-08-17T12:16:20Z</time>
      </trkpt>
      <trkpt lat="47.3212" lon="6.27423">
        <ele>257.9</ele>
        <time>2019-08-17T12:16:21Z</time>
      </trkpt>
      <trkpt lat="47.32119" lon="6.27417">
        <ele>257.9</ele>
        <time>2019-08-17T12:16:22Z</time>
      </trkpt>
      <trkpt lat="47.32118" lon="6.27411">
        <ele>258</ele>
        <time>2019-08-17T12:16:23Z</time>
      </trkpt>
      <trkpt lat="47.32116" lon="6.27403">
        <ele>258</ele>
        <time>2019-08-17T12:16:24Z</time>
      </trkpt>
      <trkpt lat="47.32114" lon="6.27396">
        <ele>257.9</ele>
        <time>2019-08-17T12:16:25Z</time>
      </trkpt>
      <trkpt lat="47.32112" lon="6.2739">
        <ele>257.9</ele>
        <time>2019-08-17T12:16:26Z</time>
      </trkpt>
      <trkpt lat="47.32111" lon="6.27383">
        <ele>257.9</ele>
        <time>2019-08-17T12:16:27Z</time>
      </trkpt>
      <trkpt lat="47.3211" lon="6.27377">
        <ele>257.8</ele>
        <time>2019-08-17T12:16:28Z</time>
      </trkpt>
      <trkpt lat="47.32109" lon="6.27371">
        <ele>257.7</ele>
        <time>2019-08-17T12:16:29Z</time>
      </trkpt>
      <trkpt lat="47.32107" lon="6.27364">
        <ele>257.7</ele>
        <time>2019-08-17T12:16:30Z</time>
      </trkpt>
      <trkpt lat="47.32106" lon="6.27357">
        <ele>257.5</ele>
        <time>2019-08-17T12:16:31Z</time>
      </trkpt>
      <trkpt lat="47.32105" lon="6.2735">
        <ele>257.4</ele>
        <time>2019-08-17T12:16:32Z</time>
      </trkpt>
      <trkpt lat="47.32104" lon="6.27343">
        <ele>257.3</ele>
        <time>2019-08-17T12:16:33Z</time>
      </trkpt>
      <trkpt lat="47.32103" lon="6.27336">
        <ele>257.2</ele>
        <time>2019-08-17T12:16:34Z</time>
      </trkpt>
      <trkpt lat="47.32101" lon="6.27329">
        <ele>257</ele>
        <time>2019-08-17T12:16:35Z</time>
      </trkpt>
      <trkpt lat="47.321" lon="6.27322">
        <ele>256.9</ele>
        <time>2019-08-17T12:16:36Z</time>
      </trkpt>
      <trkpt lat="47.32098" lon="6.27315">
        <ele>256.8</ele>
        <time>2019-08-17T12:16:37Z</time>
      </trkpt>
      <trkpt lat="47.32097" lon="6.27307">
        <ele>256.7</ele>
        <time>2019-08-17T12:16:38Z</time>
      </trkpt>
      <trkpt lat="47.32096" lon="6.273">
        <ele>256.6</ele>
        <time>2019-08-17T12:16:39Z</time>
      </trkpt>
      <trkpt lat="47.32095" lon="6.27293">
        <ele>256.5</ele>
        <time>2019-08-17T12:16:40Z</time>
      </trkpt>
      <trkpt lat="47.32095" lon="6.27286">
        <ele>256.4</ele>
        <time>2019-08-17T12:16:41Z</time>
      </trkpt>
      <trkpt lat="47.32094" lon="6.27279">
        <ele>256.3</ele>
        <time>2019-08-17T12:16:42Z</time>
      </trkpt>
      <trkpt lat="47.32093" lon="6.27272">
        <ele>256.3</ele>
        <time>2019-08-17T12:16:43Z</time>
      </trkpt>
      <trkpt lat="47.32092" lon="6.27265">
        <ele>256.2</ele>
        <time>2019-08-17T12:16:44Z</time>
      </trkpt>
      <trkpt lat="47.32092" lon="6.27258">
        <ele>256.2</ele>
        <time>2019-08-17T12:16:45Z</time>
      </trkpt>
      <trkpt lat="47.32091" lon="6.2725">
        <ele>256.1</ele>
        <time>2019-08-17T12:16:46Z</time>
      </trkpt>
      <trkpt lat="47.3209" lon="6.27244">
        <ele>256.1</ele>
        <time>2019-08-17T12:16:47Z</time>
      </trkpt>
      <trkpt lat="47.32089" lon="6.27238">
        <ele>256.1</ele>
        <time>2019-08-17T12:16:48Z</time>
      </trkpt>
      <trkpt lat="47.32089" lon="6.27231">
        <ele>256.1</ele>
        <time>2019-08-17T12:16:49Z</time>
      </trkpt>
      <trkpt lat="47.32088" lon="6.27225">
        <ele>256.1</ele>
        <time>2019-08-17T12:16:50Z</time>
      </trkpt>
      <trkpt lat="47.32088" lon="6.27219">
        <ele>256.1</ele>
        <time>2019-08-17T12:16:51Z</time>
      </trkpt>
      <trkpt lat="47.32088" lon="6.27212">
        <ele>256.1</ele>
        <time>2019-08-17T12:16:52Z</time>
      </trkpt>
      <trkpt lat="47.32088" lon="6.27204">
        <ele>256.1</ele>
        <time>2019-08-17T12:16:53Z</time>
      </trkpt>
      <trkpt lat="47.32087" lon="6.27197">
        <ele>256.1</ele>
        <time>2019-08-17T12:16:54Z</time>
      </trkpt>
      <trkpt lat="47.32086" lon="6.2719">
        <ele>256.1</ele>
        <time>2019-08-17T12:16:55Z</time>
      </trkpt>
      <trkpt lat="47.32085" lon="6.27182">
        <ele>256.1</ele>
        <time>2019-08-17T12:16:56Z</time>
      </trkpt>
      <trkpt lat="47.32084" lon="6.27174">
        <ele>256.1</ele>
        <time>2019-08-17T12:16:57Z</time>
      </trkpt>
      <trkpt lat="47.32083" lon="6.27166">
        <ele>256.1</ele>
        <time>2019-08-17T12:16:58Z</time>
      </trkpt>
      <trkpt lat="47.32082" lon="6.27159">
        <ele>256.1</ele>
        <time>2019-08-17T12:16:59Z</time>
      </trkpt>
      <trkpt lat="47.32081" lon="6.27152">
        <ele>256.1</ele>
        <time>2019-08-17T12:17:00Z</time>
      </trkpt>
      <trkpt lat="47.32079" lon="6.27146">
        <ele>256.1</ele>
        <time>2019-08-17T12:17:01Z</time>
      </trkpt>
      <trkpt lat="47.32079" lon="6.2714">
        <ele>256.1</ele>
        <time>2019-08-17T12:17:02Z</time>
      </trkpt>
      <trkpt lat="47.32079" lon="6.27134">
        <ele>256.1</ele>
        <time>2019-08-17T12:17:03Z</time>
      </trkpt>
      <trkpt lat="47.32079" lon="6.27127">
        <ele>256.1</ele>
        <time>2019-08-17T12:17:04Z</time>
      </trkpt>
      <trkpt lat="47.32079" lon="6.2712">
        <ele>256.1</ele>
        <time>2019-08-17T12:17:05Z</time>
      </trkpt>
      <trkpt lat="47.32079" lon="6.27114">
        <ele>256.1</ele>
        <time>2019-08-17T12:17:06Z</time>
      </trkpt>
      <trkpt lat="47.32079" lon="6.27105">
        <ele>256.1</ele>
        <time>2019-08-17T12:17:07Z</time>
      </trkpt>
      <trkpt lat="47.32078" lon="6.27098">
        <ele>256</ele>
        <time>2019-08-17T12:17:08Z</time>
      </trkpt>
      <trkpt lat="47.32078" lon="6.27091">
        <ele>256</ele>
        <time>2019-08-17T12:17:09Z</time>
      </trkpt>
      <trkpt lat="47.32078" lon="6.27083">
        <ele>255.9</ele>
        <time>2019-08-17T12:17:10Z</time>
      </trkpt>
      <trkpt lat="47.32078" lon="6.27076">
        <ele>255.9</ele>
        <time>2019-08-17T12:17:11Z</time>
      </trkpt>
      <trkpt lat="47.32077" lon="6.27069">
        <ele>255.8</ele>
        <time>2019-08-17T12:17:12Z</time>
      </trkpt>
      <trkpt lat="47.32076" lon="6.27062">
        <ele>255.8</ele>
        <time>2019-08-17T12:17:13Z</time>
      </trkpt>
      <trkpt lat="47.32076" lon="6.27055">
        <ele>255.7</ele>
        <time>2019-08-17T12:17:14Z</time>
      </trkpt>
      <trkpt lat="47.32076" lon="6.27048">
        <ele>255.7</ele>
        <time>2019-08-17T12:17:15Z</time>
      </trkpt>
      <trkpt lat="47.32076" lon="6.27041">
        <ele>255.6</ele>
        <time>2019-08-17T12:17:16Z</time>
      </trkpt>
      <trkpt lat="47.32075" lon="6.27034">
        <ele>255.6</ele>
        <time>2019-08-17T12:17:17Z</time>
      </trkpt>
      <trkpt lat="47.32074" lon="6.27026">
        <ele>255.6</ele>
        <time>2019-08-17T12:17:18Z</time>
      </trkpt>
      <trkpt lat="47.32075" lon="6.27019">
        <ele>255.6</ele>
        <time>2019-08-17T12:17:19Z</time>
      </trkpt>
      <trkpt lat="47.32074" lon="6.27012">
        <ele>255.6</ele>
        <time>2019-08-17T12:17:20Z</time>
      </trkpt>
      <trkpt lat="47.32074" lon="6.27004">
        <ele>255.6</ele>
        <time>2019-08-17T12:17:21Z</time>
      </trkpt>
      <trkpt lat="47.32072" lon="6.26997">
        <ele>255.7</ele>
        <time>2019-08-17T12:17:22Z</time>
      </trkpt>
      <trkpt lat="47.32072" lon="6.2699">
        <ele>255.7</ele>
        <time>2019-08-17T12:17:23Z</time>
      </trkpt>
      <trkpt lat="47.32072" lon="6.26983">
        <ele>255.7</ele>
        <time>2019-08-17T12:17:24Z</time>
      </trkpt>
      <trkpt lat="47.32071" lon="6.26976">
        <ele>255.8</ele>
        <time>2019-08-17T12:17:25Z</time>
      </trkpt>
      <trkpt lat="47.32072" lon="6.26969">
        <ele>255.8</ele>
        <time>2019-08-17T12:17:26Z</time>
      </trkpt>
      <trkpt lat="47.32072" lon="6.26962">
        <ele>255.9</ele>
        <time>2019-08-17T12:17:27Z</time>
      </trkpt>
      <trkpt lat="47.32072" lon="6.26955">
        <ele>255.9</ele>
        <time>2019-08-17T12:17:28Z</time>
      </trkpt>
      <trkpt lat="47.32073" lon="6.26948">
        <ele>255.9</ele>
        <time>2019-08-17T12:17:29Z</time>
      </trkpt>
      <trkpt lat="47.32073" lon="6.26941">
        <ele>255.9</ele>
        <time>2019-08-17T12:17:30Z</time>
      </trkpt>
      <trkpt lat="47.32073" lon="6.26935">
        <ele>256</ele>
        <time>2019-08-17T12:17:31Z</time>
      </trkpt>
      <trkpt lat="47.32073" lon="6.26928">
        <ele>256</ele>
        <time>2019-08-17T12:17:32Z</time>
      </trkpt>
      <trkpt lat="47.32073" lon="6.26922">
        <ele>256</ele>
        <time>2019-08-17T12:17:33Z</time>
      </trkpt>
      <trkpt lat="47.32073" lon="6.26915">
        <ele>256.1</ele>
        <time>2019-08-17T12:17:34Z</time>
      </trkpt>
      <trkpt lat="47.32073" lon="6.26909">
        <ele>256.1</ele>
        <time>2019-08-17T12:17:35Z</time>
      </trkpt>
      <trkpt lat="47.32074" lon="6.26902">
        <ele>256.1</ele>
        <time>2019-08-17T12:17:36Z</time>
      </trkpt>
      <trkpt lat="47.32075" lon="6.26894">
        <ele>256.1</ele>
        <time>2019-08-17T12:17:37Z</time>
      </trkpt>
      <trkpt lat="47.32075" lon="6.26887">
        <ele>256.2</ele>
        <time>2019-08-17T12:17:38Z</time>
      </trkpt>
      <trkpt lat="47.32076" lon="6.2688">
        <ele>256.2</ele>
        <time>2019-08-17T12:17:39Z</time>
      </trkpt>
      <trkpt lat="47.32076" lon="6.26872">
        <ele>256.3</ele>
        <time>2019-08-17T12:17:40Z</time>
      </trkpt>
      <trkpt lat="47.32077" lon="6.26864">
        <ele>256.3</ele>
        <time>2019-08-17T12:17:41Z</time>
      </trkpt>
      <trkpt lat="47.32078" lon="6.26857">
        <ele>256.3</ele>
        <time>2019-08-17T12:17:42Z</time>
      </trkpt>
      <trkpt lat="47.32078" lon="6.26849">
        <ele>256.4</ele>
        <time>2019-08-17T12:17:43Z</time>
      </trkpt>
      <trkpt lat="47.32078" lon="6.26842">
        <ele>256.4</ele>
        <time>2019-08-17T12:17:44Z</time>
      </trkpt>
      <trkpt lat="47.32078" lon="6.26833">
        <ele>256.5</ele>
        <time>2019-08-17T12:17:45Z</time>
      </trkpt>
      <trkpt lat="47.32079" lon="6.26825">
        <ele>256.5</ele>
        <time>2019-08-17T12:17:46Z</time>
      </trkpt>
      <trkpt lat="47.3208" lon="6.26816">
        <ele>256.5</ele>
        <time>2019-08-17T12:17:47Z</time>
      </trkpt>
      <trkpt lat="47.3208" lon="6.26808">
        <ele>256.5</ele>
        <time>2019-08-17T12:17:48Z</time>
      </trkpt>
      <trkpt lat="47.32081" lon="6.268">
        <ele>256.5</ele>
        <time>2019-08-17T12:17:49Z</time>
      </trkpt>
      <trkpt lat="47.32081" lon="6.26792">
        <ele>256.5</ele>
        <time>2019-08-17T12:17:50Z</time>
      </trkpt>
      <trkpt lat="47.32081" lon="6.26783">
        <ele>256.5</ele>
        <time>2019-08-17T12:17:51Z</time>
      </trkpt>
      <trkpt lat="47.32081" lon="6.26776">
        <ele>256.5</ele>
        <time>2019-08-17T12:17:52Z</time>
      </trkpt>
      <trkpt lat="47.32081" lon="6.26768">
        <ele>256.5</ele>
        <time>2019-08-17T12:17:53Z</time>
      </trkpt>
      <trkpt lat="47.3208" lon="6.2676">
        <ele>256.5</ele>
        <time>2019-08-17T12:17:54Z</time>
      </trkpt>
      <trkpt lat="47.3208" lon="6.26753">
        <ele>256.5</ele>
        <time>2019-08-17T12:17:55Z</time>
      </trkpt>
      <trkpt lat="47.32079" lon="6.26746">
        <ele>256.5</ele>
        <time>2019-08-17T12:17:56Z</time>
      </trkpt>
      <trkpt lat="47.32079" lon="6.26739">
        <ele>256.4</ele>
        <time>2019-08-17T12:17:57Z</time>
      </trkpt>
      <trkpt lat="47.32078" lon="6.26732">
        <ele>256.4</ele>
        <time>2019-08-17T12:17:58Z</time>
      </trkpt>
      <trkpt lat="47.32078" lon="6.26725">
        <ele>256.3</ele>
        <time>2019-08-17T12:17:59Z</time>
      </trkpt>
      <trkpt lat="47.32078" lon="6.26717">
        <ele>256.3</ele>
        <time>2019-08-17T12:18:00Z</time>
      </trkpt>
      <trkpt lat="47.32079" lon="6.26709">
        <ele>256.2</ele>
        <time>2019-08-17T12:18:01Z</time>
      </trkpt>
      <trkpt lat="47.32079" lon="6.26701">
        <ele>256.1</ele>
        <time>2019-08-17T12:18:02Z</time>
      </trkpt>
      <trkpt lat="47.32078" lon="6.26693">
        <ele>256.1</ele>
        <time>2019-08-17T12:18:03Z</time>
      </trkpt>
      <trkpt lat="47.32078" lon="6.26685">
        <ele>256</ele>
        <time>2019-08-17T12:18:04Z</time>
      </trkpt>
      <trkpt lat="47.32077" lon="6.26678">
        <ele>255.9</ele>
        <time>2019-08-17T12:18:05Z</time>
      </trkpt>
      <trkpt lat="47.32076" lon="6.26671">
        <ele>255.8</ele>
        <time>2019-08-17T12:18:06Z</time>
      </trkpt>
      <trkpt lat="47.32075" lon="6.26664">
        <ele>255.7</ele>
        <time>2019-08-17T12:18:07Z</time>
      </trkpt>
      <trkpt lat="47.32074" lon="6.26657">
        <ele>255.6</ele>
        <time>2019-08-17T12:18:08Z</time>
      </trkpt>
      <trkpt lat="47.32071" lon="6.2665">
        <ele>255.5</ele>
        <time>2019-08-17T12:18:09Z</time>
      </trkpt>
      <trkpt lat="47.3207" lon="6.26643">
        <ele>255.3</ele>
        <time>2019-08-17T12:18:10Z</time>
      </trkpt>
      <trkpt lat="47.32068" lon="6.26636">
        <ele>255.2</ele>
        <time>2019-08-17T12:18:11Z</time>
      </trkpt>
      <trkpt lat="47.32066" lon="6.26629">
        <ele>255.1</ele>
        <time>2019-08-17T12:18:12Z</time>
      </trkpt>
      <trkpt lat="47.32064" lon="6.26622">
        <ele>255</ele>
        <time>2019-08-17T12:18:13Z</time>
      </trkpt>
      <trkpt lat="47.32062" lon="6.26617">
        <ele>255</ele>
        <time>2019-08-17T12:18:14Z</time>
      </trkpt>
      <trkpt lat="47.3206" lon="6.26612">
        <ele>254.9</ele>
        <time>2019-08-17T12:18:15Z</time>
      </trkpt>
      <trkpt lat="47.32057" lon="6.26607">
        <ele>254.9</ele>
        <time>2019-08-17T12:18:16Z</time>
      </trkpt>
      <trkpt lat="47.32054" lon="6.26602">
        <ele>254.8</ele>
        <time>2019-08-17T12:18:17Z</time>
      </trkpt>
      <trkpt lat="47.3205" lon="6.26599">
        <ele>254.8</ele>
        <time>2019-08-17T12:18:18Z</time>
      </trkpt>
      <trkpt lat="47.32047" lon="6.26593">
        <ele>254.7</ele>
        <time>2019-08-17T12:18:19Z</time>
      </trkpt>
      <trkpt lat="47.32044" lon="6.26588">
        <ele>254.7</ele>
        <time>2019-08-17T12:18:20Z</time>
      </trkpt>
      <trkpt lat="47.3204" lon="6.26583">
        <ele>254.7</ele>
        <time>2019-08-17T12:18:21Z</time>
      </trkpt>
      <trkpt lat="47.32036" lon="6.26578">
        <ele>254.7</ele>
        <time>2019-08-17T12:18:22Z</time>
      </trkpt>
      <trkpt lat="47.32032" lon="6.26574">
        <ele>254.6</ele>
        <time>2019-08-17T12:18:23Z</time>
      </trkpt>
      <trkpt lat="47.32029" lon="6.26569">
        <ele>254.6</ele>
        <time>2019-08-17T12:18:24Z</time>
      </trkpt>
      <trkpt lat="47.32024" lon="6.26564">
        <ele>254.6</ele>
        <time>2019-08-17T12:18:25Z</time>
      </trkpt>
      <trkpt lat="47.3202" lon="6.26559">
        <ele>254.6</ele>
        <time>2019-08-17T12:18:26Z</time>
      </trkpt>
      <trkpt lat="47.32016" lon="6.26555">
        <ele>254.6</ele>
        <time>2019-08-17T12:18:27Z</time>
      </trkpt>
      <trkpt lat="47.32011" lon="6.2655">
        <ele>254.6</ele>
        <time>2019-08-17T12:18:28Z</time>
      </trkpt>
      <trkpt lat="47.32006" lon="6.26547">
        <ele>254.6</ele>
        <time>2019-08-17T12:18:29Z</time>
      </trkpt>
      <trkpt lat="47.32002" lon="6.26543">
        <ele>254.6</ele>
        <time>2019-08-17T12:18:30Z</time>
      </trkpt>
      <trkpt lat="47.31998" lon="6.26538">
        <ele>254.6</ele>
        <time>2019-08-17T12:18:31Z</time>
      </trkpt>
      <trkpt lat="47.31994" lon="6.26534">
        <ele>254.7</ele>
        <time>2019-08-17T12:18:32Z</time>
      </trkpt>
      <trkpt lat="47.31989" lon="6.26529">
        <ele>254.7</ele>
        <time>2019-08-17T12:18:33Z</time>
      </trkpt>
      <trkpt lat="47.31985" lon="6.26524">
        <ele>254.8</ele>
        <time>2019-08-17T12:18:34Z</time>
      </trkpt>
      <trkpt lat="47.31981" lon="6.26519">
        <ele>254.9</ele>
        <time>2019-08-17T12:18:35Z</time>
      </trkpt>
      <trkpt lat="47.31977" lon="6.26515">
        <ele>254.9</ele>
        <time>2019-08-17T12:18:36Z</time>
      </trkpt>
      <trkpt lat="47.31973" lon="6.26511">
        <ele>255</ele>
        <time>2019-08-17T12:18:37Z</time>
      </trkpt>
      <trkpt lat="47.31969" lon="6.26507">
        <ele>255.1</ele>
        <time>2019-08-17T12:18:38Z</time>
      </trkpt>
      <trkpt lat="47.31965" lon="6.26502">
        <ele>255.2</ele>
        <time>2019-08-17T12:18:39Z</time>
      </trkpt>
      <trkpt lat="47.31961" lon="6.26499">
        <ele>255.2</ele>
        <time>2019-08-17T12:18:40Z</time>
      </trkpt>
      <trkpt lat="47.31956" lon="6.26494">
        <ele>255.3</ele>
        <time>2019-08-17T12:18:41Z</time>
      </trkpt>
      <trkpt lat="47.31952" lon="6.26489">
        <ele>255.3</ele>
        <time>2019-08-17T12:18:42Z</time>
      </trkpt>
      <trkpt lat="47.31947" lon="6.26484">
        <ele>255.3</ele>
        <time>2019-08-17T12:18:43Z</time>
      </trkpt>
      <trkpt lat="47.31943" lon="6.2648">
        <ele>255.3</ele>
        <time>2019-08-17T12:18:44Z</time>
      </trkpt>
      <trkpt lat="47.31938" lon="6.26476">
        <ele>255.4</ele>
        <time>2019-08-17T12:18:45Z</time>
      </trkpt>
      <trkpt lat="47.31934" lon="6.26472">
        <ele>255.4</ele>
        <time>2019-08-17T12:18:46Z</time>
      </trkpt>
      <trkpt lat="47.31929" lon="6.2647">
        <ele>255.4</ele>
        <time>2019-08-17T12:18:47Z</time>
      </trkpt>
      <trkpt lat="47.31925" lon="6.26467">
        <ele>255.4</ele>
        <time>2019-08-17T12:18:48Z</time>
      </trkpt>
      <trkpt lat="47.3192" lon="6.26464">
        <ele>255.4</ele>
        <time>2019-08-17T12:18:49Z</time>
      </trkpt>
      <trkpt lat="47.31916" lon="6.26461">
        <ele>255.4</ele>
        <time>2019-08-17T12:18:50Z</time>
      </trkpt>
      <trkpt lat="47.31912" lon="6.26458">
        <ele>255.4</ele>
        <time>2019-08-17T12:18:51Z</time>
      </trkpt>
      <trkpt lat="47.31908" lon="6.26456">
        <ele>255.4</ele>
        <time>2019-08-17T12:18:52Z</time>
      </trkpt>
      <trkpt lat="47.31903" lon="6.26454">
        <ele>255.4</ele>
        <time>2019-08-17T12:18:53Z</time>
      </trkpt>
      <trkpt lat="47.31899" lon="6.26453">
        <ele>255.4</ele>
        <time>2019-08-17T12:18:54Z</time>
      </trkpt>
      <trkpt lat="47.31894" lon="6.26452">
        <ele>255.4</ele>
        <time>2019-08-17T12:18:55Z</time>
      </trkpt>
      <trkpt lat="47.3189" lon="6.26449">
        <ele>255.4</ele>
        <time>2019-08-17T12:18:56Z</time>
      </trkpt>
      <trkpt lat="47.31886" lon="6.26447">
        <ele>255.4</ele>
        <time>2019-08-17T12:18:57Z</time>
      </trkpt>
      <trkpt lat="47.31882" lon="6.26444">
        <ele>255.4</ele>
        <time>2019-08-17T12:18:58Z</time>
      </trkpt>
      <trkpt lat="47.31877" lon="6.2644">
        <ele>255.4</ele>
        <time>2019-08-17T12:18:59Z</time>
      </trkpt>
      <trkpt lat="47.31873" lon="6.26436">
        <ele>255.3</ele>
        <time>2019-08-17T12:19:00Z</time>
      </trkpt>
      <trkpt lat="47.31869" lon="6.26433">
        <ele>255.3</ele>
        <time>2019-08-17T12:19:01Z</time>
      </trkpt>
      <trkpt lat="47.31864" lon="6.26431">
        <ele>255.2</ele>
        <time>2019-08-17T12:19:02Z</time>
      </trkpt>
      <trkpt lat="47.3186" lon="6.26428">
        <ele>255.2</ele>
        <time>2019-08-17T12:19:03Z</time>
      </trkpt>
      <trkpt lat="47.31855" lon="6.26426">
        <ele>255.2</ele>
        <time>2019-08-17T12:19:04Z</time>
      </trkpt>
      <trkpt lat="47.31851" lon="6.26424">
        <ele>255.2</ele>
        <time>2019-08-17T12:19:05Z</time>
      </trkpt>
      <trkpt lat="47.31846" lon="6.26423">
        <ele>255.2</ele>
        <time>2019-08-17T12:19:06Z</time>
      </trkpt>
      <trkpt lat="47.31841" lon="6.26421">
        <ele>255.1</ele>
        <time>2019-08-17T12:19:07Z</time>
      </trkpt>
      <trkpt lat="47.31836" lon="6.26418">
        <ele>255.1</ele>
        <time>2019-08-17T12:19:08Z</time>
      </trkpt>
      <trkpt lat="47.31831" lon="6.26416">
        <ele>255.1</ele>
        <time>2019-08-17T12:19:09Z</time>
      </trkpt>
      <trkpt lat="47.31826" lon="6.26413">
        <ele>255.1</ele>
        <time>2019-08-17T12:19:10Z</time>
      </trkpt>
      <trkpt lat="47.31821" lon="6.26411">
        <ele>255.1</ele>
        <time>2019-08-17T12:19:11Z</time>
      </trkpt>
      <trkpt lat="47.31817" lon="6.26409">
        <ele>255</ele>
        <time>2019-08-17T12:19:12Z</time>
      </trkpt>
      <trkpt lat="47.31813" lon="6.26407">
        <ele>255</ele>
        <time>2019-08-17T12:19:13Z</time>
      </trkpt>
      <trkpt lat="47.31808" lon="6.26405">
        <ele>254.9</ele>
        <time>2019-08-17T12:19:14Z</time>
      </trkpt>
      <trkpt lat="47.31804" lon="6.26403">
        <ele>254.8</ele>
        <time>2019-08-17T12:19:15Z</time>
      </trkpt>
      <trkpt lat="47.318" lon="6.26401">
        <ele>254.7</ele>
        <time>2019-08-17T12:19:16Z</time>
      </trkpt>
      <trkpt lat="47.31796" lon="6.26398">
        <ele>254.6</ele>
        <time>2019-08-17T12:19:17Z</time>
      </trkpt>
      <trkpt lat="47.31791" lon="6.26396">
        <ele>254.5</ele>
        <time>2019-08-17T12:19:18Z</time>
      </trkpt>
      <trkpt lat="47.31786" lon="6.26394">
        <ele>254.3</ele>
        <time>2019-08-17T12:19:19Z</time>
      </trkpt>
      <trkpt lat="47.31781" lon="6.26392">
        <ele>254.2</ele>
        <time>2019-08-17T12:19:20Z</time>
      </trkpt>
      <trkpt lat="47.31776" lon="6.2639">
        <ele>254.1</ele>
        <time>2019-08-17T12:19:21Z</time>
      </trkpt>
      <trkpt lat="47.31771" lon="6.26387">
        <ele>254</ele>
        <time>2019-08-17T12:19:22Z</time>
      </trkpt>
      <trkpt lat="47.31767" lon="6.26384">
        <ele>253.9</ele>
        <time>2019-08-17T12:19:23Z</time>
      </trkpt>
      <trkpt lat="47.31762" lon="6.2638">
        <ele>253.9</ele>
        <time>2019-08-17T12:19:24Z</time>
      </trkpt>
      <trkpt lat="47.31758" lon="6.26377">
        <ele>253.8</ele>
        <time>2019-08-17T12:19:25Z</time>
      </trkpt>
      <trkpt lat="47.31753" lon="6.26374">
        <ele>253.9</ele>
        <time>2019-08-17T12:19:26Z</time>
      </trkpt>
      <trkpt lat="47.3175" lon="6.2637">
        <ele>253.9</ele>
        <time>2019-08-17T12:19:27Z</time>
      </trkpt>
      <trkpt lat="47.31746" lon="6.26367">
        <ele>253.9</ele>
        <time>2019-08-17T12:19:28Z</time>
      </trkpt>
      <trkpt lat="47.31743" lon="6.26364">
        <ele>254</ele>
        <time>2019-08-17T12:19:29Z</time>
      </trkpt>
      <trkpt lat="47.31739" lon="6.26361">
        <ele>254</ele>
        <time>2019-08-17T12:19:30Z</time>
      </trkpt>
      <trkpt lat="47.31736" lon="6.26358">
        <ele>254.1</ele>
        <time>2019-08-17T12:19:31Z</time>
      </trkpt>
      <trkpt lat="47.31732" lon="6.26356">
        <ele>254.1</ele>
        <time>2019-08-17T12:19:32Z</time>
      </trkpt>
      <trkpt lat="47.31727" lon="6.26353">
        <ele>254.2</ele>
        <time>2019-08-17T12:19:33Z</time>
      </trkpt>
      <trkpt lat="47.31723" lon="6.26351">
        <ele>254.3</ele>
        <time>2019-08-17T12:19:34Z</time>
      </trkpt>
      <trkpt lat="47.31718" lon="6.26349">
        <ele>254.4</ele>
        <time>2019-08-17T12:19:35Z</time>
      </trkpt>
      <trkpt lat="47.31714" lon="6.26346">
        <ele>254.5</ele>
        <time>2019-08-17T12:19:36Z</time>
      </trkpt>
      <trkpt lat="47.31708" lon="6.26343">
        <ele>254.5</ele>
        <time>2019-08-17T12:19:37Z</time>
      </trkpt>
      <trkpt lat="47.31703" lon="6.26341">
        <ele>254.6</ele>
        <time>2019-08-17T12:19:38Z</time>
      </trkpt>
      <trkpt lat="47.31699" lon="6.26338">
        <ele>254.7</ele>
        <time>2019-08-17T12:19:39Z</time>
      </trkpt>
      <trkpt lat="47.31694" lon="6.26335">
        <ele>254.7</ele>
        <time>2019-08-17T12:19:40Z</time>
      </trkpt>
      <trkpt lat="47.31689" lon="6.26332">
        <ele>254.8</ele>
        <time>2019-08-17T12:19:41Z</time>
      </trkpt>
      <trkpt lat="47.31684" lon="6.2633">
        <ele>254.8</ele>
        <time>2019-08-17T12:19:42Z</time>
      </trkpt>
      <trkpt lat="47.31679" lon="6.26327">
        <ele>254.8</ele>
        <time>2019-08-17T12:19:43Z</time>
      </trkpt>
      <trkpt lat="47.31675" lon="6.26324">
        <ele>254.8</ele>
        <time>2019-08-17T12:19:44Z</time>
      </trkpt>
      <trkpt lat="47.3167" lon="6.2632">
        <ele>254.9</ele>
        <time>2019-08-17T12:19:45Z</time>
      </trkpt>
      <trkpt lat="47.31666" lon="6.26316">
        <ele>254.9</ele>
        <time>2019-08-17T12:19:46Z</time>
      </trkpt>
      <trkpt lat="47.31661" lon="6.26313">
        <ele>254.8</ele>
        <time>2019-08-17T12:19:47Z</time>
      </trkpt>
      <trkpt lat="47.31656" lon="6.26311">
        <ele>254.8</ele>
        <time>2019-08-17T12:19:48Z</time>
      </trkpt>
      <trkpt lat="47.31651" lon="6.26308">
        <ele>254.7</ele>
        <time>2019-08-17T12:19:49Z</time>
      </trkpt>
      <trkpt lat="47.31646" lon="6.26305">
        <ele>254.6</ele>
        <time>2019-08-17T12:19:50Z</time>
      </trkpt>
      <trkpt lat="47.31641" lon="6.26302">
        <ele>254.5</ele>
        <time>2019-08-17T12:19:51Z</time>
      </trkpt>
      <trkpt lat="47.31636" lon="6.263">
        <ele>254.3</ele>
        <time>2019-08-17T12:19:52Z</time>
      </trkpt>
      <trkpt lat="47.31632" lon="6.26299">
        <ele>254.2</ele>
        <time>2019-08-17T12:19:53Z</time>
      </trkpt>
      <trkpt lat="47.31627" lon="6.26296">
        <ele>254.1</ele>
        <time>2019-08-17T12:19:54Z</time>
      </trkpt>
      <trkpt lat="47.31623" lon="6.26293">
        <ele>254.1</ele>
        <time>2019-08-17T12:19:55Z</time>
      </trkpt>
      <trkpt lat="47.31619" lon="6.26289">
        <ele>254.1</ele>
        <time>2019-08-17T12:19:56Z</time>
      </trkpt>
      <trkpt lat="47.31614" lon="6.26286">
        <ele>254.1</ele>
        <time>2019-08-17T12:19:57Z</time>
      </trkpt>
      <trkpt lat="47.31609" lon="6.26282">
        <ele>254.1</ele>
        <time>2019-08-17T12:19:58Z</time>
      </trkpt>
      <trkpt lat="47.31605" lon="6.26278">
        <ele>254.1</ele>
        <time>2019-08-17T12:19:59Z</time>
      </trkpt>
      <trkpt lat="47.31601" lon="6.26274">
        <ele>254.2</ele>
        <time>2019-08-17T12:20:00Z</time>
      </trkpt>
      <trkpt lat="47.31596" lon="6.2627">
        <ele>254.2</ele>
        <time>2019-08-17T12:20:01Z</time>
      </trkpt>
      <trkpt lat="47.31592" lon="6.26267">
        <ele>254.3</ele>
        <time>2019-08-17T12:20:02Z</time>
      </trkpt>
      <trkpt lat="47.31588" lon="6.26264">
        <ele>254.3</ele>
        <time>2019-08-17T12:20:03Z</time>
      </trkpt>
      <trkpt lat="47.31584" lon="6.26262">
        <ele>254.3</ele>
        <time>2019-08-17T12:20:04Z</time>
      </trkpt>
      <trkpt lat="47.3158" lon="6.2626">
        <ele>254.3</ele>
        <time>2019-08-17T12:20:05Z</time>
      </trkpt>
      <trkpt lat="47.31575" lon="6.26258">
        <ele>254.4</ele>
        <time>2019-08-17T12:20:06Z</time>
      </trkpt>
      <trkpt lat="47.31571" lon="6.26256">
        <ele>254.4</ele>
        <time>2019-08-17T12:20:07Z</time>
      </trkpt>
      <trkpt lat="47.31565" lon="6.26254">
        <ele>254.4</ele>
        <time>2019-08-17T12:20:08Z</time>
      </trkpt>
      <trkpt lat="47.31559" lon="6.26251">
        <ele>254.5</ele>
        <time>2019-08-17T12:20:09Z</time>
      </trkpt>
      <trkpt lat="47.31554" lon="6.26248">
        <ele>254.6</ele>
        <time>2019-08-17T12:20:10Z</time>
      </trkpt>
      <trkpt lat="47.31549" lon="6.26244">
        <ele>254.7</ele>
        <time>2019-08-17T12:20:11Z</time>
      </trkpt>
      <trkpt lat="47.31545" lon="6.2624">
        <ele>254.7</ele>
        <time>2019-08-17T12:20:12Z</time>
      </trkpt>
      <trkpt lat="47.3154" lon="6.26235">
        <ele>254.8</ele>
        <time>2019-08-17T12:20:13Z</time>
      </trkpt>
      <trkpt lat="47.31536" lon="6.26233">
        <ele>254.9</ele>
        <time>2019-08-17T12:20:14Z</time>
      </trkpt>
      <trkpt lat="47.31532" lon="6.2623">
        <ele>255</ele>
        <time>2019-08-17T12:20:15Z</time>
      </trkpt>
      <trkpt lat="47.31528" lon="6.26227">
        <ele>255</ele>
        <time>2019-08-17T12:20:16Z</time>
      </trkpt>
      <trkpt lat="47.31523" lon="6.26225">
        <ele>255</ele>
        <time>2019-08-17T12:20:17Z</time>
      </trkpt>
      <trkpt lat="47.31518" lon="6.26221">
        <ele>255</ele>
        <time>2019-08-17T12:20:18Z</time>
      </trkpt>
      <trkpt lat="47.31513" lon="6.26218">
        <ele>255</ele>
        <time>2019-08-17T12:20:19Z</time>
      </trkpt>
      <trkpt lat="47.31509" lon="6.26214">
        <ele>255</ele>
        <time>2019-08-17T12:20:20Z</time>
      </trkpt>
      <trkpt lat="47.31504" lon="6.26211">
        <ele>254.9</ele>
        <time>2019-08-17T12:20:21Z</time>
      </trkpt>
      <trkpt lat="47.31499" lon="6.26205">
        <ele>254.9</ele>
        <time>2019-08-17T12:20:22Z</time>
      </trkpt>
      <trkpt lat="47.31494" lon="6.262">
        <ele>254.8</ele>
        <time>2019-08-17T12:20:23Z</time>
      </trkpt>
      <trkpt lat="47.3149" lon="6.26196">
        <ele>254.7</ele>
        <time>2019-08-17T12:20:24Z</time>
      </trkpt>
      <trkpt lat="47.31485" lon="6.26193">
        <ele>254.7</ele>
        <time>2019-08-17T12:20:25Z</time>
      </trkpt>
      <trkpt lat="47.31481" lon="6.26189">
        <ele>254.6</ele>
        <time>2019-08-17T12:20:26Z</time>
      </trkpt>
      <trkpt lat="47.31477" lon="6.26185">
        <ele>254.6</ele>
        <time>2019-08-17T12:20:27Z</time>
      </trkpt>
      <trkpt lat="47.31472" lon="6.26182">
        <ele>254.6</ele>
        <time>2019-08-17T12:20:28Z</time>
      </trkpt>
      <trkpt lat="47.31467" lon="6.26178">
        <ele>254.6</ele>
        <time>2019-08-17T12:20:29Z</time>
      </trkpt>
      <trkpt lat="47.31463" lon="6.26175">
        <ele>254.6</ele>
        <time>2019-08-17T12:20:30Z</time>
      </trkpt>
      <trkpt lat="47.31459" lon="6.26171">
        <ele>254.6</ele>
        <time>2019-08-17T12:20:31Z</time>
      </trkpt>
      <trkpt lat="47.31455" lon="6.26167">
        <ele>254.6</ele>
        <time>2019-08-17T12:20:32Z</time>
      </trkpt>
      <trkpt lat="47.31451" lon="6.26164">
        <ele>254.6</ele>
        <time>2019-08-17T12:20:33Z</time>
      </trkpt>
      <trkpt lat="47.31447" lon="6.2616">
        <ele>254.7</ele>
        <time>2019-08-17T12:20:34Z</time>
      </trkpt>
      <trkpt lat="47.31443" lon="6.26156">
        <ele>254.7</ele>
        <time>2019-08-17T12:20:35Z</time>
      </trkpt>
      <trkpt lat="47.31439" lon="6.26151">
        <ele>254.8</ele>
        <time>2019-08-17T12:20:36Z</time>
      </trkpt>
      <trkpt lat="47.31434" lon="6.26148">
        <ele>254.9</ele>
        <time>2019-08-17T12:20:37Z</time>
      </trkpt>
      <trkpt lat="47.3143" lon="6.26143">
        <ele>255</ele>
        <time>2019-08-17T12:20:38Z</time>
      </trkpt>
      <trkpt lat="47.31427" lon="6.26138">
        <ele>255.1</ele>
        <time>2019-08-17T12:20:39Z</time>
      </trkpt>
      <trkpt lat="47.31422" lon="6.26135">
        <ele>255.1</ele>
        <time>2019-08-17T12:20:40Z</time>
      </trkpt>
      <trkpt lat="47.31418" lon="6.26132">
        <ele>255.2</ele>
        <time>2019-08-17T12:20:41Z</time>
      </trkpt>
      <trkpt lat="47.31414" lon="6.26128">
        <ele>255.2</ele>
        <time>2019-08-17T12:20:42Z</time>
      </trkpt>
      <trkpt lat="47.3141" lon="6.26125">
        <ele>255.2</ele>
        <time>2019-08-17T12:20:43Z</time>
      </trkpt>
      <trkpt lat="47.31406" lon="6.26122">
        <ele>255.2</ele>
        <time>2019-08-17T12:20:44Z</time>
      </trkpt>
      <trkpt lat="47.31402" lon="6.26118">
        <ele>255.2</ele>
        <time>2019-08-17T12:20:45Z</time>
      </trkpt>
      <trkpt lat="47.31398" lon="6.26114">
        <ele>255.2</ele>
        <time>2019-08-17T12:20:46Z</time>
      </trkpt>
      <trkpt lat="47.31394" lon="6.2611">
        <ele>255.2</ele>
        <time>2019-08-17T12:20:47Z</time>
      </trkpt>
      <trkpt lat="47.3139" lon="6.26108">
        <ele>255.1</ele>
        <time>2019-08-17T12:20:48Z</time>
      </trkpt>
      <trkpt lat="47.31385" lon="6.26106">
        <ele>255.1</ele>
        <time>2019-08-17T12:20:49Z</time>
      </trkpt>
      <trkpt lat="47.31379" lon="6.26103">
        <ele>255.1</ele>
        <time>2019-08-17T12:20:50Z</time>
      </trkpt>
      <trkpt lat="47.31374" lon="6.26101">
        <ele>255</ele>
        <time>2019-08-17T12:20:51Z</time>
      </trkpt>
      <trkpt lat="47.3137" lon="6.26098">
        <ele>255</ele>
        <time>2019-08-17T12:20:52Z</time>
      </trkpt>
      <trkpt lat="47.31366" lon="6.26096">
        <ele>255</ele>
        <time>2019-08-17T12:20:53Z</time>
      </trkpt>
      <trkpt lat="47.31362" lon="6.26093">
        <ele>254.9</ele>
        <time>2019-08-17T12:20:54Z</time>
      </trkpt>
      <trkpt lat="47.31358" lon="6.26091">
        <ele>254.9</ele>
        <time>2019-08-17T12:20:55Z</time>
      </trkpt>
      <trkpt lat="47.31354" lon="6.2609">
        <ele>254.9</ele>
        <time>2019-08-17T12:20:56Z</time>
      </trkpt>
      <trkpt lat="47.31349" lon="6.26087">
        <ele>254.8</ele>
        <time>2019-08-17T12:20:57Z</time>
      </trkpt>
      <trkpt lat="47.31345" lon="6.26085">
        <ele>254.8</ele>
        <time>2019-08-17T12:20:58Z</time>
      </trkpt>
      <trkpt lat="47.3134" lon="6.26083">
        <ele>254.7</ele>
        <time>2019-08-17T12:20:59Z</time>
      </trkpt>
      <trkpt lat="47.31336" lon="6.26081">
        <ele>254.7</ele>
        <time>2019-08-17T12:21:00Z</time>
      </trkpt>
      <trkpt lat="47.31331" lon="6.26079">
        <ele>254.6</ele>
        <time>2019-08-17T12:21:01Z</time>
      </trkpt>
      <trkpt lat="47.31326" lon="6.26077">
        <ele>254.6</ele>
        <time>2019-08-17T12:21:02Z</time>
      </trkpt>
      <trkpt lat="47.31322" lon="6.26075">
        <ele>254.6</ele>
        <time>2019-08-17T12:21:03Z</time>
      </trkpt>
      <trkpt lat="47.31317" lon="6.26074">
        <ele>254.5</ele>
        <time>2019-08-17T12:21:04Z</time>
      </trkpt>
      <trkpt lat="47.31313" lon="6.26072">
        <ele>254.5</ele>
        <time>2019-08-17T12:21:05Z</time>
      </trkpt>
      <trkpt lat="47.31309" lon="6.26069">
        <ele>254.4</ele>
        <time>2019-08-17T12:21:06Z</time>
      </trkpt>
      <trkpt lat="47.31305" lon="6.26067">
        <ele>254.4</ele>
        <time>2019-08-17T12:21:07Z</time>
      </trkpt>
      <trkpt lat="47.313" lon="6.26064">
        <ele>254.4</ele>
        <time>2019-08-17T12:21:08Z</time>
      </trkpt>
      <trkpt lat="47.31295" lon="6.26062">
        <ele>254.3</ele>
        <time>2019-08-17T12:21:09Z</time>
      </trkpt>
      <trkpt lat="47.3129" lon="6.26059">
        <ele>254.8</ele>
        <time>2019-08-17T12:21:10Z</time>
      </trkpt>
      <trkpt lat="47.31285" lon="6.26055">
        <ele>255.2</ele>
        <time>2019-08-17T12:21:11Z</time>
      </trkpt>
      <trkpt lat="47.3128" lon="6.26051">
        <ele>255.6</ele>
        <time>2019-08-17T12:21:12Z</time>
      </trkpt>
      <trkpt lat="47.31276" lon="6.26048">
        <ele>255.9</ele>
        <time>2019-08-17T12:21:13Z</time>
      </trkpt>
      <trkpt lat="47.31272" lon="6.26045">
        <ele>256.3</ele>
        <time>2019-08-17T12:21:14Z</time>
      </trkpt>
      <trkpt lat="47.31267" lon="6.26041">
        <ele>256.6</ele>
        <time>2019-08-17T12:21:15Z</time>
      </trkpt>
      <trkpt lat="47.31262" lon="6.2604">
        <ele>256.8</ele>
        <time>2019-08-17T12:21:16Z</time>
      </trkpt>
      <trkpt lat="47.31258" lon="6.26038">
        <ele>257</ele>
        <time>2019-08-17T12:21:17Z</time>
      </trkpt>
      <trkpt lat="47.31254" lon="6.26036">
        <ele>257.3</ele>
        <time>2019-08-17T12:21:18Z</time>
      </trkpt>
      <trkpt lat="47.31249" lon="6.26034">
        <ele>257.4</ele>
        <time>2019-08-17T12:21:19Z</time>
      </trkpt>
      <trkpt lat="47.31244" lon="6.26032">
        <ele>257.4</ele>
        <time>2019-08-17T12:21:20Z</time>
      </trkpt>
      <trkpt lat="47.3124" lon="6.2603">
        <ele>257.5</ele>
        <time>2019-08-17T12:21:21Z</time>
      </trkpt>
      <trkpt lat="47.31236" lon="6.26028">
        <ele>257.5</ele>
        <time>2019-08-17T12:21:22Z</time>
      </trkpt>
      <trkpt lat="47.31232" lon="6.26026">
        <ele>257.5</ele>
        <time>2019-08-17T12:21:23Z</time>
      </trkpt>
      <trkpt lat="47.31227" lon="6.26025">
        <ele>257.6</ele>
        <time>2019-08-17T12:21:24Z</time>
      </trkpt>
      <trkpt lat="47.31224" lon="6.26022">
        <ele>257.6</ele>
        <time>2019-08-17T12:21:25Z</time>
      </trkpt>
      <trkpt lat="47.3122" lon="6.26019">
        <ele>257.7</ele>
        <time>2019-08-17T12:21:26Z</time>
      </trkpt>
      <trkpt lat="47.31215" lon="6.26016">
        <ele>257.8</ele>
        <time>2019-08-17T12:21:27Z</time>
      </trkpt>
      <trkpt lat="47.31211" lon="6.26013">
        <ele>257.9</ele>
        <time>2019-08-17T12:21:28Z</time>
      </trkpt>
      <trkpt lat="47.31206" lon="6.26009">
        <ele>258</ele>
        <time>2019-08-17T12:21:29Z</time>
      </trkpt>
      <trkpt lat="47.31201" lon="6.26005">
        <ele>258.1</ele>
        <time>2019-08-17T12:21:30Z</time>
      </trkpt>
      <trkpt lat="47.31197" lon="6.26001">
        <ele>258.3</ele>
        <time>2019-08-17T12:21:31Z</time>
      </trkpt>
      <trkpt lat="47.31193" lon="6.25998">
        <ele>258.4</ele>
        <time>2019-08-17T12:21:32Z</time>
      </trkpt>
      <trkpt lat="47.31189" lon="6.25994">
        <ele>258.6</ele>
        <time>2019-08-17T12:21:33Z</time>
      </trkpt>
      <trkpt lat="47.31185" lon="6.25989">
        <ele>257.9</ele>
        <time>2019-08-17T12:21:34Z</time>
      </trkpt>
      <trkpt lat="47.31181" lon="6.25985">
        <ele>257.5</ele>
        <time>2019-08-17T12:21:35Z</time>
      </trkpt>
      <trkpt lat="47.31176" lon="6.25981">
        <ele>257</ele>
        <time>2019-08-17T12:21:36Z</time>
      </trkpt>
      <trkpt lat="47.31172" lon="6.25977">
        <ele>256.6</ele>
        <time>2019-08-17T12:21:37Z</time>
      </trkpt>
      <trkpt lat="47.31168" lon="6.25972">
        <ele>256.1</ele>
        <time>2019-08-17T12:21:38Z</time>
      </trkpt>
      <trkpt lat="47.31165" lon="6.25966">
        <ele>255.6</ele>
        <time>2019-08-17T12:21:39Z</time>
      </trkpt>
      <trkpt lat="47.31162" lon="6.2596">
        <ele>254.9</ele>
        <time>2019-08-17T12:21:40Z</time>
      </trkpt>
      <trkpt lat="47.31159" lon="6.25954">
        <ele>254.3</ele>
        <time>2019-08-17T12:21:41Z</time>
      </trkpt>
      <trkpt lat="47.31157" lon="6.2595">
        <ele>253.8</ele>
        <time>2019-08-17T12:21:42Z</time>
      </trkpt>
      <trkpt lat="47.31155" lon="6.25945">
        <ele>254</ele>
        <time>2019-08-17T12:21:43Z</time>
      </trkpt>
      <trkpt lat="47.31153" lon="6.25941">
        <ele>254.1</ele>
        <time>2019-08-17T12:21:44Z</time>
      </trkpt>
      <trkpt lat="47.31151" lon="6.25938">
        <ele>254.3</ele>
        <time>2019-08-17T12:21:45Z</time>
      </trkpt>
      <trkpt lat="47.31148" lon="6.25934">
        <ele>254.4</ele>
        <time>2019-08-17T12:21:46Z</time>
      </trkpt>
      <trkpt lat="47.31146" lon="6.25931">
        <ele>254.6</ele>
        <time>2019-08-17T12:21:47Z</time>
      </trkpt>
      <trkpt lat="47.31145" lon="6.25927">
        <ele>254.8</ele>
        <time>2019-08-17T12:21:48Z</time>
      </trkpt>
      <trkpt lat="47.31143" lon="6.25923">
        <ele>255</ele>
        <time>2019-08-17T12:21:49Z</time>
      </trkpt>
      <trkpt lat="47.31141" lon="6.2592">
        <ele>255.2</ele>
        <time>2019-08-17T12:21:50Z</time>
      </trkpt>
      <trkpt lat="47.31139" lon="6.25916">
        <ele>255.4</ele>
        <time>2019-08-17T12:21:51Z</time>
      </trkpt>
      <trkpt lat="47.31137" lon="6.25912">
        <ele>255.7</ele>
        <time>2019-08-17T12:21:52Z</time>
      </trkpt>
      <trkpt lat="47.31135" lon="6.25907">
        <ele>256</ele>
        <time>2019-08-17T12:21:53Z</time>
      </trkpt>
      <trkpt lat="47.31132" lon="6.25902">
        <ele>256.4</ele>
        <time>2019-08-17T12:21:54Z</time>
      </trkpt>
      <trkpt lat="47.31129" lon="6.25896">
        <ele>256.8</ele>
        <time>2019-08-17T12:21:55Z</time>
      </trkpt>
      <trkpt lat="47.31126" lon="6.25892">
        <ele>257.1</ele>
        <time>2019-08-17T12:21:56Z</time>
      </trkpt>
      <trkpt lat="47.31123" lon="6.25887">
        <ele>257.5</ele>
        <time>2019-08-17T12:21:57Z</time>
      </trkpt>
      <trkpt lat="47.31122" lon="6.25882">
        <ele>257.9</ele>
        <time>2019-08-17T12:21:58Z</time>
      </trkpt>
      <trkpt lat="47.3112" lon="6.25878">
        <ele>258.2</ele>
        <time>2019-08-17T12:21:59Z</time>
      </trkpt>
      <trkpt lat="47.31117" lon="6.25872">
        <ele>258.4</ele>
        <time>2019-08-17T12:22:00Z</time>
      </trkpt>
      <trkpt lat="47.31115" lon="6.25866">
        <ele>258.5</ele>
        <time>2019-08-17T12:22:01Z</time>
      </trkpt>
      <trkpt lat="47.31113" lon="6.25862">
        <ele>258.5</ele>
        <time>2019-08-17T12:22:02Z</time>
      </trkpt>
      <trkpt lat="47.3111" lon="6.25857">
        <ele>258.4</ele>
        <time>2019-08-17T12:22:03Z</time>
      </trkpt>
      <trkpt lat="47.31107" lon="6.25852">
        <ele>258.3</ele>
        <time>2019-08-17T12:22:04Z</time>
      </trkpt>
      <trkpt lat="47.31104" lon="6.25846">
        <ele>257.9</ele>
        <time>2019-08-17T12:22:05Z</time>
      </trkpt>
      <trkpt lat="47.31102" lon="6.2584">
        <ele>257.9</ele>
        <time>2019-08-17T12:22:06Z</time>
      </trkpt>
      <trkpt lat="47.31099" lon="6.25835">
        <ele>257.9</ele>
        <time>2019-08-17T12:22:07Z</time>
      </trkpt>
      <trkpt lat="47.31096" lon="6.2583">
        <ele>257.9</ele>
        <time>2019-08-17T12:22:08Z</time>
      </trkpt>
      <trkpt lat="47.31093" lon="6.25825">
        <ele>257.9</ele>
        <time>2019-08-17T12:22:09Z</time>
      </trkpt>
      <trkpt lat="47.31089" lon="6.2582">
        <ele>258</ele>
        <time>2019-08-17T12:22:10Z</time>
      </trkpt>
      <trkpt lat="47.31085" lon="6.25815">
        <ele>258</ele>
        <time>2019-08-17T12:22:11Z</time>
      </trkpt>
      <trkpt lat="47.31081" lon="6.2581">
        <ele>258</ele>
        <time>2019-08-17T12:22:12Z</time>
      </trkpt>
      <trkpt lat="47.31078" lon="6.25806">
        <ele>258</ele>
        <time>2019-08-17T12:22:13Z</time>
      </trkpt>
      <trkpt lat="47.31075" lon="6.25801">
        <ele>258.1</ele>
        <time>2019-08-17T12:22:14Z</time>
      </trkpt>
      <trkpt lat="47.31072" lon="6.25798">
        <ele>258.1</ele>
        <time>2019-08-17T12:22:15Z</time>
      </trkpt>
      <trkpt lat="47.3107" lon="6.25793">
        <ele>258.1</ele>
        <time>2019-08-17T12:22:16Z</time>
      </trkpt>
      <trkpt lat="47.31068" lon="6.25787">
        <ele>258.2</ele>
        <time>2019-08-17T12:22:17Z</time>
      </trkpt>
      <trkpt lat="47.31065" lon="6.25782">
        <ele>258.3</ele>
        <time>2019-08-17T12:22:18Z</time>
      </trkpt>
      <trkpt lat="47.31061" lon="6.25778">
        <ele>258.4</ele>
        <time>2019-08-17T12:22:19Z</time>
      </trkpt>
      <trkpt lat="47.31058" lon="6.25773">
        <ele>258.6</ele>
        <time>2019-08-17T12:22:20Z</time>
      </trkpt>
      <trkpt lat="47.31056" lon="6.25769">
        <ele>258.7</ele>
        <time>2019-08-17T12:22:21Z</time>
      </trkpt>
      <trkpt lat="47.31053" lon="6.25765">
        <ele>258.8</ele>
        <time>2019-08-17T12:22:22Z</time>
      </trkpt>
      <trkpt lat="47.31051" lon="6.25761">
        <ele>258.9</ele>
        <time>2019-08-17T12:22:23Z</time>
      </trkpt>
      <trkpt lat="47.31049" lon="6.25758">
        <ele>259</ele>
        <time>2019-08-17T12:22:24Z</time>
      </trkpt>
      <trkpt lat="47.31049" lon="6.25754">
        <ele>259.1</ele>
        <time>2019-08-17T12:22:25Z</time>
      </trkpt>
      <trkpt lat="47.31047" lon="6.2575">
        <ele>259.2</ele>
        <time>2019-08-17T12:22:26Z</time>
      </trkpt>
      <trkpt lat="47.31045" lon="6.25746">
        <ele>259.3</ele>
        <time>2019-08-17T12:22:27Z</time>
      </trkpt>
      <trkpt lat="47.31043" lon="6.25741">
        <ele>259.3</ele>
        <time>2019-08-17T12:22:28Z</time>
      </trkpt>
      <trkpt lat="47.3104" lon="6.25737">
        <ele>258.5</ele>
        <time>2019-08-17T12:22:29Z</time>
      </trkpt>
      <trkpt lat="47.31036" lon="6.25731">
        <ele>257.4</ele>
        <time>2019-08-17T12:22:30Z</time>
      </trkpt>
      <trkpt lat="47.31032" lon="6.25727">
        <ele>256.4</ele>
        <time>2019-08-17T12:22:31Z</time>
      </trkpt>
      <trkpt lat="47.31029" lon="6.2572">
        <ele>255.3</ele>
        <time>2019-08-17T12:22:32Z</time>
      </trkpt>
      <trkpt lat="47.31025" lon="6.25713">
        <ele>254.1</ele>
        <time>2019-08-17T12:22:33Z</time>
      </trkpt>
      <trkpt lat="47.31021" lon="6.25704">
        <ele>253</ele>
        <time>2019-08-17T12:22:34Z</time>
      </trkpt>
      <trkpt lat="47.31019" lon="6.25694">
        <ele>251.5</ele>
        <time>2019-08-17T12:22:35Z</time>
      </trkpt>
      <trkpt lat="47.31018" lon="6.25685">
        <ele>251.7</ele>
        <time>2019-08-17T12:22:36Z</time>
      </trkpt>
      <trkpt lat="47.31016" lon="6.25675">
        <ele>251.8</ele>
        <time>2019-08-17T12:22:37Z</time>
      </trkpt>
      <trkpt lat="47.31014" lon="6.25665">
        <ele>252.1</ele>
        <time>2019-08-17T12:22:38Z</time>
      </trkpt>
      <trkpt lat="47.31013" lon="6.25656">
        <ele>252.3</ele>
        <time>2019-08-17T12:22:39Z</time>
      </trkpt>
      <trkpt lat="47.31011" lon="6.25646">
        <ele>252.4</ele>
        <time>2019-08-17T12:22:40Z</time>
      </trkpt>
      <trkpt lat="47.31011" lon="6.2564">
        <ele>252.5</ele>
        <time>2019-08-17T12:22:41Z</time>
      </trkpt>
      <trkpt lat="47.3101" lon="6.25634">
        <ele>252.6</ele>
        <time>2019-08-17T12:22:42Z</time>
      </trkpt>
      <trkpt lat="47.31009" lon="6.25627">
        <ele>252.6</ele>
        <time>2019-08-17T12:22:43Z</time>
      </trkpt>
      <trkpt lat="47.31008" lon="6.25619">
        <ele>252.1</ele>
        <time>2019-08-17T12:22:44Z</time>
      </trkpt>
      <trkpt lat="47.31007" lon="6.25612">
        <ele>252.7</ele>
        <time>2019-08-17T12:22:45Z</time>
      </trkpt>
      <trkpt lat="47.31006" lon="6.25603">
        <ele>253.5</ele>
        <time>2019-08-17T12:22:46Z</time>
      </trkpt>
      <trkpt lat="47.31005" lon="6.25595">
        <ele>253.2</ele>
        <time>2019-08-17T12:22:47Z</time>
      </trkpt>
      <trkpt lat="47.31003" lon="6.25587">
        <ele>254</ele>
        <time>2019-08-17T12:22:48Z</time>
      </trkpt>
      <trkpt lat="47.31002" lon="6.25578">
        <ele>253.5</ele>
        <time>2019-08-17T12:22:49Z</time>
      </trkpt>
      <trkpt lat="47.31001" lon="6.25571">
        <ele>253.7</ele>
        <time>2019-08-17T12:22:50Z</time>
      </trkpt>
      <trkpt lat="47.31" lon="6.25563">
        <ele>253.8</ele>
        <time>2019-08-17T12:22:51Z</time>
      </trkpt>
      <trkpt lat="47.30999" lon="6.25554">
        <ele>253.9</ele>
        <time>2019-08-17T12:22:52Z</time>
      </trkpt>
      <trkpt lat="47.30998" lon="6.25547">
        <ele>254</ele>
        <time>2019-08-17T12:22:53Z</time>
      </trkpt>
      <trkpt lat="47.30996" lon="6.25539">
        <ele>254.1</ele>
        <time>2019-08-17T12:22:54Z</time>
      </trkpt>
      <trkpt lat="47.30995" lon="6.25531">
        <ele>254.1</ele>
        <time>2019-08-17T12:22:55Z</time>
      </trkpt>
      <trkpt lat="47.30994" lon="6.25524">
        <ele>254.1</ele>
        <time>2019-08-17T12:22:56Z</time>
      </trkpt>
      <trkpt lat="47.30994" lon="6.25517">
        <ele>254.1</ele>
        <time>2019-08-17T12:22:57Z</time>
      </trkpt>
      <trkpt lat="47.30993" lon="6.2551">
        <ele>254.2</ele>
        <time>2019-08-17T12:22:58Z</time>
      </trkpt>
      <trkpt lat="47.30992" lon="6.25503">
        <ele>254.2</ele>
        <time>2019-08-17T12:22:59Z</time>
      </trkpt>
      <trkpt lat="47.30992" lon="6.25496">
        <ele>254.2</ele>
        <time>2019-08-17T12:23:00Z</time>
      </trkpt>
      <trkpt lat="47.3099" lon="6.25488">
        <ele>254.3</ele>
        <time>2019-08-17T12:23:01Z</time>
      </trkpt>
      <trkpt lat="47.30989" lon="6.25481">
        <ele>254.3</ele>
        <time>2019-08-17T12:23:02Z</time>
      </trkpt>
      <trkpt lat="47.30988" lon="6.25475">
        <ele>254.3</ele>
        <time>2019-08-17T12:23:03Z</time>
      </trkpt>
      <trkpt lat="47.30986" lon="6.25468">
        <ele>254.4</ele>
        <time>2019-08-17T12:23:04Z</time>
      </trkpt>
      <trkpt lat="47.30984" lon="6.25458">
        <ele>254.4</ele>
        <time>2019-08-17T12:23:05Z</time>
      </trkpt>
      <trkpt lat="47.30983" lon="6.25448">
        <ele>254.5</ele>
        <time>2019-08-17T12:23:06Z</time>
      </trkpt>
      <trkpt lat="47.30981" lon="6.2544">
        <ele>254.6</ele>
        <time>2019-08-17T12:23:07Z</time>
      </trkpt>
      <trkpt lat="47.3098" lon="6.25431">
        <ele>254.8</ele>
        <time>2019-08-17T12:23:08Z</time>
      </trkpt>
      <trkpt lat="47.30978" lon="6.25422">
        <ele>254.9</ele>
        <time>2019-08-17T12:23:09Z</time>
      </trkpt>
      <trkpt lat="47.30977" lon="6.25415">
        <ele>255</ele>
        <time>2019-08-17T12:23:10Z</time>
      </trkpt>
      <trkpt lat="47.30976" lon="6.25408">
        <ele>255.1</ele>
        <time>2019-08-17T12:23:11Z</time>
      </trkpt>
      <trkpt lat="47.30974" lon="6.254">
        <ele>255</ele>
        <time>2019-08-17T12:23:12Z</time>
      </trkpt>
      <trkpt lat="47.30973" lon="6.25394">
        <ele>255</ele>
        <time>2019-08-17T12:23:13Z</time>
      </trkpt>
      <trkpt lat="47.30971" lon="6.25387">
        <ele>254.9</ele>
        <time>2019-08-17T12:23:14Z</time>
      </trkpt>
      <trkpt lat="47.30969" lon="6.2538">
        <ele>254.8</ele>
        <time>2019-08-17T12:23:15Z</time>
      </trkpt>
      <trkpt lat="47.30968" lon="6.25373">
        <ele>254.8</ele>
        <time>2019-08-17T12:23:16Z</time>
      </trkpt>
      <trkpt lat="47.30966" lon="6.25365">
        <ele>254.7</ele>
        <time>2019-08-17T12:23:17Z</time>
      </trkpt>
      <trkpt lat="47.30964" lon="6.25356">
        <ele>253.6</ele>
        <time>2019-08-17T12:23:18Z</time>
      </trkpt>
      <trkpt lat="47.30962" lon="6.25348">
        <ele>252.8</ele>
        <time>2019-08-17T12:23:19Z</time>
      </trkpt>
      <trkpt lat="47.30961" lon="6.25341">
        <ele>252.1</ele>
        <time>2019-08-17T12:23:20Z</time>
      </trkpt>
      <trkpt lat="47.30959" lon="6.25333">
        <ele>251.5</ele>
        <time>2019-08-17T12:23:21Z</time>
      </trkpt>
      <trkpt lat="47.30959" lon="6.25326">
        <ele>251.8</ele>
        <time>2019-08-17T12:23:22Z</time>
      </trkpt>
      <trkpt lat="47.30957" lon="6.25318">
        <ele>252</ele>
        <time>2019-08-17T12:23:23Z</time>
      </trkpt>
      <trkpt lat="47.30957" lon="6.25311">
        <ele>252.3</ele>
        <time>2019-08-17T12:23:24Z</time>
      </trkpt>
      <trkpt lat="47.30956" lon="6.25303">
        <ele>252.5</ele>
        <time>2019-08-17T12:23:25Z</time>
      </trkpt>
      <trkpt lat="47.30955" lon="6.25295">
        <ele>252.6</ele>
        <time>2019-08-17T12:23:26Z</time>
      </trkpt>
      <trkpt lat="47.30955" lon="6.25288">
        <ele>252.8</ele>
        <time>2019-08-17T12:23:27Z</time>
      </trkpt>
      <trkpt lat="47.30954" lon="6.25278">
        <ele>252.9</ele>
        <time>2019-08-17T12:23:28Z</time>
      </trkpt>
      <trkpt lat="47.30953" lon="6.2527">
        <ele>253</ele>
        <time>2019-08-17T12:23:29Z</time>
      </trkpt>
      <trkpt lat="47.30952" lon="6.25262">
        <ele>253.1</ele>
        <time>2019-08-17T12:23:30Z</time>
      </trkpt>
      <trkpt lat="47.30951" lon="6.25254">
        <ele>253.2</ele>
        <time>2019-08-17T12:23:31Z</time>
      </trkpt>
      <trkpt lat="47.30951" lon="6.25246">
        <ele>253.2</ele>
        <time>2019-08-17T12:23:32Z</time>
      </trkpt>
      <trkpt lat="47.3095" lon="6.25239">
        <ele>253.3</ele>
        <time>2019-08-17T12:23:33Z</time>
      </trkpt>
      <trkpt lat="47.30949" lon="6.25234">
        <ele>253.3</ele>
        <time>2019-08-17T12:23:34Z</time>
      </trkpt>
      <trkpt lat="47.30947" lon="6.25227">
        <ele>253.4</ele>
        <time>2019-08-17T12:23:35Z</time>
      </trkpt>
      <trkpt lat="47.30946" lon="6.25222">
        <ele>253.4</ele>
        <time>2019-08-17T12:23:36Z</time>
      </trkpt>
      <trkpt lat="47.30945" lon="6.25216">
        <ele>253.5</ele>
        <time>2019-08-17T12:23:37Z</time>
      </trkpt>
      <trkpt lat="47.30944" lon="6.2521">
        <ele>253.6</ele>
        <time>2019-08-17T12:23:38Z</time>
      </trkpt>
      <trkpt lat="47.30943" lon="6.25203">
        <ele>253.6</ele>
        <time>2019-08-17T12:23:39Z</time>
      </trkpt>
      <trkpt lat="47.30943" lon="6.25194">
        <ele>253.7</ele>
        <time>2019-08-17T12:23:40Z</time>
      </trkpt>
      <trkpt lat="47.30942" lon="6.25185">
        <ele>253.9</ele>
        <time>2019-08-17T12:23:41Z</time>
      </trkpt>
      <trkpt lat="47.30941" lon="6.25177">
        <ele>254</ele>
        <time>2019-08-17T12:23:42Z</time>
      </trkpt>
      <trkpt lat="47.3094" lon="6.25169">
        <ele>254.2</ele>
        <time>2019-08-17T12:23:43Z</time>
      </trkpt>
      <trkpt lat="47.30939" lon="6.25162">
        <ele>254.3</ele>
        <time>2019-08-17T12:23:44Z</time>
      </trkpt>
      <trkpt lat="47.30938" lon="6.25155">
        <ele>254.5</ele>
        <time>2019-08-17T12:23:45Z</time>
      </trkpt>
      <trkpt lat="47.30936" lon="6.25148">
        <ele>254.7</ele>
        <time>2019-08-17T12:23:46Z</time>
      </trkpt>
      <trkpt lat="47.30935" lon="6.25142">
        <ele>254.8</ele>
        <time>2019-08-17T12:23:47Z</time>
      </trkpt>
      <trkpt lat="47.30934" lon="6.25136">
        <ele>255</ele>
        <time>2019-08-17T12:23:48Z</time>
      </trkpt>
      <trkpt lat="47.30933" lon="6.25129">
        <ele>255.1</ele>
        <time>2019-08-17T12:23:49Z</time>
      </trkpt>
      <trkpt lat="47.30931" lon="6.25122">
        <ele>255.2</ele>
        <time>2019-08-17T12:23:50Z</time>
      </trkpt>
      <trkpt lat="47.3093" lon="6.25115">
        <ele>255.3</ele>
        <time>2019-08-17T12:23:51Z</time>
      </trkpt>
      <trkpt lat="47.30928" lon="6.25108">
        <ele>255.4</ele>
        <time>2019-08-17T12:23:52Z</time>
      </trkpt>
      <trkpt lat="47.30927" lon="6.25101">
        <ele>255.4</ele>
        <time>2019-08-17T12:23:53Z</time>
      </trkpt>
      <trkpt lat="47.30926" lon="6.25094">
        <ele>255.5</ele>
        <time>2019-08-17T12:23:54Z</time>
      </trkpt>
      <trkpt lat="47.30926" lon="6.25088">
        <ele>255.6</ele>
        <time>2019-08-17T12:23:55Z</time>
      </trkpt>
      <trkpt lat="47.30925" lon="6.25082">
        <ele>255.6</ele>
        <time>2019-08-17T12:23:56Z</time>
      </trkpt>
      <trkpt lat="47.30924" lon="6.25075">
        <ele>255.7</ele>
        <time>2019-08-17T12:23:57Z</time>
      </trkpt>
      <trkpt lat="47.30923" lon="6.25068">
        <ele>255.7</ele>
        <time>2019-08-17T12:23:58Z</time>
      </trkpt>
      <trkpt lat="47.30922" lon="6.25059">
        <ele>255.8</ele>
        <time>2019-08-17T12:23:59Z</time>
      </trkpt>
      <trkpt lat="47.30922" lon="6.25053">
        <ele>255.9</ele>
        <time>2019-08-17T12:24:00Z</time>
      </trkpt>
      <trkpt lat="47.30922" lon="6.25048">
        <ele>255.9</ele>
        <time>2019-08-17T12:24:01Z</time>
      </trkpt>
      <trkpt lat="47.30922" lon="6.2504">
        <ele>256</ele>
        <time>2019-08-17T12:24:02Z</time>
      </trkpt>
      <trkpt lat="47.30921" lon="6.25033">
        <ele>256.1</ele>
        <time>2019-08-17T12:24:03Z</time>
      </trkpt>
      <trkpt lat="47.3092" lon="6.25026">
        <ele>256.3</ele>
        <time>2019-08-17T12:24:04Z</time>
      </trkpt>
      <trkpt lat="47.3092" lon="6.25019">
        <ele>256.4</ele>
        <time>2019-08-17T12:24:05Z</time>
      </trkpt>
      <trkpt lat="47.30919" lon="6.25012">
        <ele>256.6</ele>
        <time>2019-08-17T12:24:06Z</time>
      </trkpt>
      <trkpt lat="47.30919" lon="6.25006">
        <ele>256.7</ele>
        <time>2019-08-17T12:24:07Z</time>
      </trkpt>
      <trkpt lat="47.30919" lon="6.24998">
        <ele>256.9</ele>
        <time>2019-08-17T12:24:08Z</time>
      </trkpt>
      <trkpt lat="47.30919" lon="6.24992">
        <ele>257</ele>
        <time>2019-08-17T12:24:09Z</time>
      </trkpt>
      <trkpt lat="47.30919" lon="6.24986">
        <ele>257.2</ele>
        <time>2019-08-17T12:24:10Z</time>
      </trkpt>
      <trkpt lat="47.30919" lon="6.24981">
        <ele>257.3</ele>
        <time>2019-08-17T12:24:11Z</time>
      </trkpt>
      <trkpt lat="47.30918" lon="6.24974">
        <ele>257.4</ele>
        <time>2019-08-17T12:24:12Z</time>
      </trkpt>
      <trkpt lat="47.30918" lon="6.24968">
        <ele>257.5</ele>
        <time>2019-08-17T12:24:13Z</time>
      </trkpt>
      <trkpt lat="47.30915" lon="6.2496">
        <ele>257.6</ele>
        <time>2019-08-17T12:24:14Z</time>
      </trkpt>
      <trkpt lat="47.30914" lon="6.24955">
        <ele>257.7</ele>
        <time>2019-08-17T12:24:15Z</time>
      </trkpt>
      <trkpt lat="47.30914" lon="6.24948">
        <ele>257.7</ele>
        <time>2019-08-17T12:24:16Z</time>
      </trkpt>
      <trkpt lat="47.30913" lon="6.24942">
        <ele>257.8</ele>
        <time>2019-08-17T12:24:17Z</time>
      </trkpt>
      <trkpt lat="47.30913" lon="6.24935">
        <ele>257.8</ele>
        <time>2019-08-17T12:24:18Z</time>
      </trkpt>
      <trkpt lat="47.30912" lon="6.24927">
        <ele>257.9</ele>
        <time>2019-08-17T12:24:19Z</time>
      </trkpt>
      <trkpt lat="47.30911" lon="6.24919">
        <ele>258</ele>
        <time>2019-08-17T12:24:20Z</time>
      </trkpt>
      <trkpt lat="47.3091" lon="6.2491">
        <ele>258.1</ele>
        <time>2019-08-17T12:24:21Z</time>
      </trkpt>
      <trkpt lat="47.3091" lon="6.24902">
        <ele>258.1</ele>
        <time>2019-08-17T12:24:22Z</time>
      </trkpt>
      <trkpt lat="47.30909" lon="6.24895">
        <ele>258.2</ele>
        <time>2019-08-17T12:24:23Z</time>
      </trkpt>
      <trkpt lat="47.30908" lon="6.24888">
        <ele>258.3</ele>
        <time>2019-08-17T12:24:24Z</time>
      </trkpt>
      <trkpt lat="47.30907" lon="6.24882">
        <ele>258.5</ele>
        <time>2019-08-17T12:24:25Z</time>
      </trkpt>
      <trkpt lat="47.30906" lon="6.24874">
        <ele>258.6</ele>
        <time>2019-08-17T12:24:26Z</time>
      </trkpt>
      <trkpt lat="47.30906" lon="6.24867">
        <ele>258.8</ele>
        <time>2019-08-17T12:24:27Z</time>
      </trkpt>
      <trkpt lat="47.30905" lon="6.24859">
        <ele>259</ele>
        <time>2019-08-17T12:24:28Z</time>
      </trkpt>
      <trkpt lat="47.30904" lon="6.2485">
        <ele>259.2</ele>
        <time>2019-08-17T12:24:29Z</time>
      </trkpt>
      <trkpt lat="47.30903" lon="6.24844">
        <ele>259.3</ele>
        <time>2019-08-17T12:24:30Z</time>
      </trkpt>
      <trkpt lat="47.30901" lon="6.24836">
        <ele>259.5</ele>
        <time>2019-08-17T12:24:31Z</time>
      </trkpt>
      <trkpt lat="47.30899" lon="6.24829">
        <ele>259.6</ele>
        <time>2019-08-17T12:24:32Z</time>
      </trkpt>
      <trkpt lat="47.30898" lon="6.24823">
        <ele>259.7</ele>
        <time>2019-08-17T12:24:33Z</time>
      </trkpt>
      <trkpt lat="47.30896" lon="6.24818">
        <ele>259.8</ele>
        <time>2019-08-17T12:24:34Z</time>
      </trkpt>
      <trkpt lat="47.30895" lon="6.24811">
        <ele>259.9</ele>
        <time>2019-08-17T12:24:35Z</time>
      </trkpt>
      <trkpt lat="47.30893" lon="6.24804">
        <ele>259.9</ele>
        <time>2019-08-17T12:24:36Z</time>
      </trkpt>
      <trkpt lat="47.30891" lon="6.24797">
        <ele>260</ele>
        <time>2019-08-17T12:24:37Z</time>
      </trkpt>
      <trkpt lat="47.3089" lon="6.2479">
        <ele>260.1</ele>
        <time>2019-08-17T12:24:38Z</time>
      </trkpt>
      <trkpt lat="47.30888" lon="6.24782">
        <ele>260.1</ele>
        <time>2019-08-17T12:24:39Z</time>
      </trkpt>
      <trkpt lat="47.30886" lon="6.24775">
        <ele>260.2</ele>
        <time>2019-08-17T12:24:40Z</time>
      </trkpt>
      <trkpt lat="47.30885" lon="6.24767">
        <ele>260.3</ele>
        <time>2019-08-17T12:24:41Z</time>
      </trkpt>
      <trkpt lat="47.30884" lon="6.2476">
        <ele>260.3</ele>
        <time>2019-08-17T12:24:42Z</time>
      </trkpt>
      <trkpt lat="47.30884" lon="6.24753">
        <ele>260.4</ele>
        <time>2019-08-17T12:24:43Z</time>
      </trkpt>
      <trkpt lat="47.30883" lon="6.24746">
        <ele>260.4</ele>
        <time>2019-08-17T12:24:44Z</time>
      </trkpt>
      <trkpt lat="47.30882" lon="6.24737">
        <ele>260.5</ele>
        <time>2019-08-17T12:24:45Z</time>
      </trkpt>
      <trkpt lat="47.30881" lon="6.24728">
        <ele>260.6</ele>
        <time>2019-08-17T12:24:46Z</time>
      </trkpt>
      <trkpt lat="47.3088" lon="6.24719">
        <ele>260.6</ele>
        <time>2019-08-17T12:24:47Z</time>
      </trkpt>
      <trkpt lat="47.30878" lon="6.24712">
        <ele>260.6</ele>
        <time>2019-08-17T12:24:48Z</time>
      </trkpt>
      <trkpt lat="47.30877" lon="6.24703">
        <ele>260.6</ele>
        <time>2019-08-17T12:24:49Z</time>
      </trkpt>
      <trkpt lat="47.30875" lon="6.24695">
        <ele>260.6</ele>
        <time>2019-08-17T12:24:50Z</time>
      </trkpt>
      <trkpt lat="47.30874" lon="6.24688">
        <ele>260.7</ele>
        <time>2019-08-17T12:24:51Z</time>
      </trkpt>
      <trkpt lat="47.30873" lon="6.24682">
        <ele>260.7</ele>
        <time>2019-08-17T12:24:52Z</time>
      </trkpt>
      <trkpt lat="47.30871" lon="6.24674">
        <ele>260.7</ele>
        <time>2019-08-17T12:24:54Z</time>
      </trkpt>
      <trkpt lat="47.30869" lon="6.24669">
        <ele>260.7</ele>
        <time>2019-08-17T12:24:55Z</time>
      </trkpt>
      <trkpt lat="47.30868" lon="6.24662">
        <ele>259.3</ele>
        <time>2019-08-17T12:24:56Z</time>
      </trkpt>
      <trkpt lat="47.30866" lon="6.24653">
        <ele>259.3</ele>
        <time>2019-08-17T12:24:57Z</time>
      </trkpt>
      <trkpt lat="47.30865" lon="6.24644">
        <ele>257.6</ele>
        <time>2019-08-17T12:24:58Z</time>
      </trkpt>
      <trkpt lat="47.30863" lon="6.24637">
        <ele>257.6</ele>
        <time>2019-08-17T12:24:59Z</time>
      </trkpt>
      <trkpt lat="47.30862" lon="6.24631">
        <ele>256.1</ele>
        <time>2019-08-17T12:25:00Z</time>
      </trkpt>
      <trkpt lat="47.30861" lon="6.24624">
        <ele>256.6</ele>
        <time>2019-08-17T12:25:01Z</time>
      </trkpt>
      <trkpt lat="47.3086" lon="6.24618">
        <ele>256.9</ele>
        <time>2019-08-17T12:25:02Z</time>
      </trkpt>
      <trkpt lat="47.30858" lon="6.24611">
        <ele>259.6</ele>
        <time>2019-08-17T12:25:03Z</time>
      </trkpt>
      <trkpt lat="47.30857" lon="6.24604">
        <ele>261</ele>
        <time>2019-08-17T12:25:04Z</time>
      </trkpt>
      <trkpt lat="47.30856" lon="6.24597">
        <ele>261.1</ele>
        <time>2019-08-17T12:25:05Z</time>
      </trkpt>
      <trkpt lat="47.30855" lon="6.24589">
        <ele>261.2</ele>
        <time>2019-08-17T12:25:06Z</time>
      </trkpt>
      <trkpt lat="47.30853" lon="6.24581">
        <ele>261.4</ele>
        <time>2019-08-17T12:25:07Z</time>
      </trkpt>
      <trkpt lat="47.30851" lon="6.24573">
        <ele>261.6</ele>
        <time>2019-08-17T12:25:08Z</time>
      </trkpt>
      <trkpt lat="47.30849" lon="6.24566">
        <ele>261.7</ele>
        <time>2019-08-17T12:25:09Z</time>
      </trkpt>
      <trkpt lat="47.30847" lon="6.24558">
        <ele>261.8</ele>
        <time>2019-08-17T12:25:10Z</time>
      </trkpt>
      <trkpt lat="47.30846" lon="6.2455">
        <ele>261.8</ele>
        <time>2019-08-17T12:25:11Z</time>
      </trkpt>
      <trkpt lat="47.30844" lon="6.24543">
        <ele>261.9</ele>
        <time>2019-08-17T12:25:12Z</time>
      </trkpt>
      <trkpt lat="47.30842" lon="6.24536">
        <ele>261.9</ele>
        <time>2019-08-17T12:25:13Z</time>
      </trkpt>
      <trkpt lat="47.30841" lon="6.24528">
        <ele>261.9</ele>
        <time>2019-08-17T12:25:14Z</time>
      </trkpt>
      <trkpt lat="47.30838" lon="6.24521">
        <ele>262</ele>
        <time>2019-08-17T12:25:15Z</time>
      </trkpt>
      <trkpt lat="47.30837" lon="6.24515">
        <ele>262</ele>
        <time>2019-08-17T12:25:16Z</time>
      </trkpt>
      <trkpt lat="47.30836" lon="6.24509">
        <ele>262</ele>
        <time>2019-08-17T12:25:17Z</time>
      </trkpt>
      <trkpt lat="47.30834" lon="6.24501">
        <ele>262.1</ele>
        <time>2019-08-17T12:25:18Z</time>
      </trkpt>
      <trkpt lat="47.30832" lon="6.24494">
        <ele>262.1</ele>
        <time>2019-08-17T12:25:19Z</time>
      </trkpt>
      <trkpt lat="47.30831" lon="6.24487">
        <ele>262.2</ele>
        <time>2019-08-17T12:25:20Z</time>
      </trkpt>
      <trkpt lat="47.3083" lon="6.24482">
        <ele>262.3</ele>
        <time>2019-08-17T12:25:21Z</time>
      </trkpt>
      <trkpt lat="47.30828" lon="6.24476">
        <ele>262.4</ele>
        <time>2019-08-17T12:25:22Z</time>
      </trkpt>
      <trkpt lat="47.30827" lon="6.24466">
        <ele>262.6</ele>
        <time>2019-08-17T12:25:23Z</time>
      </trkpt>
      <trkpt lat="47.30825" lon="6.24458">
        <ele>262.7</ele>
        <time>2019-08-17T12:25:24Z</time>
      </trkpt>
      <trkpt lat="47.30824" lon="6.24451">
        <ele>262.8</ele>
        <time>2019-08-17T12:25:25Z</time>
      </trkpt>
      <trkpt lat="47.30821" lon="6.24443">
        <ele>263</ele>
        <time>2019-08-17T12:25:26Z</time>
      </trkpt>
      <trkpt lat="47.30818" lon="6.24433">
        <ele>263</ele>
        <time>2019-08-17T12:25:27Z</time>
      </trkpt>
      <trkpt lat="47.30816" lon="6.24425">
        <ele>263.1</ele>
        <time>2019-08-17T12:25:28Z</time>
      </trkpt>
      <trkpt lat="47.30813" lon="6.24416">
        <ele>263.1</ele>
        <time>2019-08-17T12:25:29Z</time>
      </trkpt>
      <trkpt lat="47.30812" lon="6.2441">
        <ele>263.1</ele>
        <time>2019-08-17T12:25:30Z</time>
      </trkpt>
      <trkpt lat="47.30809" lon="6.24403">
        <ele>263.2</ele>
        <time>2019-08-17T12:25:31Z</time>
      </trkpt>
      <trkpt lat="47.30808" lon="6.24399">
        <ele>263.2</ele>
        <time>2019-08-17T12:25:32Z</time>
      </trkpt>
      <trkpt lat="47.30805" lon="6.24393">
        <ele>263.2</ele>
        <time>2019-08-17T12:25:33Z</time>
      </trkpt>
      <trkpt lat="47.30803" lon="6.24385">
        <ele>263.3</ele>
        <time>2019-08-17T12:25:34Z</time>
      </trkpt>
      <trkpt lat="47.30801" lon="6.24378">
        <ele>263.3</ele>
        <time>2019-08-17T12:25:35Z</time>
      </trkpt>
      <trkpt lat="47.30799" lon="6.24372">
        <ele>263.4</ele>
        <time>2019-08-17T12:25:36Z</time>
      </trkpt>
      <trkpt lat="47.30797" lon="6.24362">
        <ele>263.6</ele>
        <time>2019-08-17T12:25:37Z</time>
      </trkpt>
      <trkpt lat="47.30796" lon="6.24355">
        <ele>263.7</ele>
        <time>2019-08-17T12:25:38Z</time>
      </trkpt>
      <trkpt lat="47.30794" lon="6.24347">
        <ele>263.8</ele>
        <time>2019-08-17T12:25:39Z</time>
      </trkpt>
      <trkpt lat="47.30792" lon="6.2434">
        <ele>264</ele>
        <time>2019-08-17T12:25:40Z</time>
      </trkpt>
      <trkpt lat="47.30788" lon="6.24331">
        <ele>264.1</ele>
        <time>2019-08-17T12:25:42Z</time>
      </trkpt>
      <trkpt lat="47.30786" lon="6.24324">
        <ele>264.2</ele>
        <time>2019-08-17T12:25:43Z</time>
      </trkpt>
      <trkpt lat="47.30784" lon="6.24317">
        <ele>264.2</ele>
        <time>2019-08-17T12:25:44Z</time>
      </trkpt>
      <trkpt lat="47.30782" lon="6.24309">
        <ele>264.3</ele>
        <time>2019-08-17T12:25:45Z</time>
      </trkpt>
      <trkpt lat="47.3078" lon="6.24301">
        <ele>264.3</ele>
        <time>2019-08-17T12:25:46Z</time>
      </trkpt>
      <trkpt lat="47.30778" lon="6.24293">
        <ele>264.3</ele>
        <time>2019-08-17T12:25:47Z</time>
      </trkpt>
      <trkpt lat="47.30776" lon="6.24285">
        <ele>264.4</ele>
        <time>2019-08-17T12:25:48Z</time>
      </trkpt>
      <trkpt lat="47.30773" lon="6.24277">
        <ele>264.4</ele>
        <time>2019-08-17T12:25:49Z</time>
      </trkpt>
      <trkpt lat="47.30771" lon="6.24268">
        <ele>264.4</ele>
        <time>2019-08-17T12:25:50Z</time>
      </trkpt>
      <trkpt lat="47.30769" lon="6.24261">
        <ele>264.5</ele>
        <time>2019-08-17T12:25:51Z</time>
      </trkpt>
      <trkpt lat="47.30767" lon="6.24252">
        <ele>264.5</ele>
        <time>2019-08-17T12:25:52Z</time>
      </trkpt>
      <trkpt lat="47.30765" lon="6.24246">
        <ele>264.6</ele>
        <time>2019-08-17T12:25:53Z</time>
      </trkpt>
      <trkpt lat="47.30763" lon="6.24238">
        <ele>264.7</ele>
        <time>2019-08-17T12:25:54Z</time>
      </trkpt>
      <trkpt lat="47.30761" lon="6.2423">
        <ele>264.8</ele>
        <time>2019-08-17T12:25:55Z</time>
      </trkpt>
      <trkpt lat="47.30759" lon="6.24224">
        <ele>265</ele>
        <time>2019-08-17T12:25:56Z</time>
      </trkpt>
      <trkpt lat="47.30757" lon="6.24218">
        <ele>265.1</ele>
        <time>2019-08-17T12:25:57Z</time>
      </trkpt>
      <trkpt lat="47.30755" lon="6.24212">
        <ele>265.2</ele>
        <time>2019-08-17T12:25:58Z</time>
      </trkpt>
      <trkpt lat="47.30753" lon="6.24204">
        <ele>265.3</ele>
        <time>2019-08-17T12:25:59Z</time>
      </trkpt>
      <trkpt lat="47.30752" lon="6.24197">
        <ele>265.4</ele>
        <time>2019-08-17T12:26:00Z</time>
      </trkpt>
      <trkpt lat="47.3075" lon="6.2419">
        <ele>265.5</ele>
        <time>2019-08-17T12:26:01Z</time>
      </trkpt>
      <trkpt lat="47.30748" lon="6.24184">
        <ele>265.5</ele>
        <time>2019-08-17T12:26:02Z</time>
      </trkpt>
      <trkpt lat="47.30746" lon="6.24177">
        <ele>265.5</ele>
        <time>2019-08-17T12:26:03Z</time>
      </trkpt>
      <trkpt lat="47.30744" lon="6.2417">
        <ele>265.6</ele>
        <time>2019-08-17T12:26:04Z</time>
      </trkpt>
      <trkpt lat="47.30742" lon="6.24163">
        <ele>265.6</ele>
        <time>2019-08-17T12:26:05Z</time>
      </trkpt>
      <trkpt lat="47.3074" lon="6.24156">
        <ele>265.6</ele>
        <time>2019-08-17T12:26:06Z</time>
      </trkpt>
      <trkpt lat="47.30738" lon="6.24148">
        <ele>265.6</ele>
        <time>2019-08-17T12:26:07Z</time>
      </trkpt>
      <trkpt lat="47.30736" lon="6.24141">
        <ele>265.7</ele>
        <time>2019-08-17T12:26:08Z</time>
      </trkpt>
      <trkpt lat="47.30735" lon="6.24133">
        <ele>265.8</ele>
        <time>2019-08-17T12:26:09Z</time>
      </trkpt>
      <trkpt lat="47.30734" lon="6.24126">
        <ele>265.9</ele>
        <time>2019-08-17T12:26:10Z</time>
      </trkpt>
      <trkpt lat="47.30732" lon="6.24119">
        <ele>266</ele>
        <time>2019-08-17T12:26:11Z</time>
      </trkpt>
      <trkpt lat="47.3073" lon="6.2411">
        <ele>266.1</ele>
        <time>2019-08-17T12:26:12Z</time>
      </trkpt>
      <trkpt lat="47.30728" lon="6.24103">
        <ele>266.3</ele>
        <time>2019-08-17T12:26:13Z</time>
      </trkpt>
      <trkpt lat="47.30727" lon="6.24097">
        <ele>266.4</ele>
        <time>2019-08-17T12:26:14Z</time>
      </trkpt>
      <trkpt lat="47.30725" lon="6.24091">
        <ele>266.5</ele>
        <time>2019-08-17T12:26:15Z</time>
      </trkpt>
      <trkpt lat="47.30723" lon="6.24083">
        <ele>266.6</ele>
        <time>2019-08-17T12:26:16Z</time>
      </trkpt>
      <trkpt lat="47.30722" lon="6.24075">
        <ele>266.7</ele>
        <time>2019-08-17T12:26:17Z</time>
      </trkpt>
      <trkpt lat="47.3072" lon="6.24066">
        <ele>266.7</ele>
        <time>2019-08-17T12:26:18Z</time>
      </trkpt>
      <trkpt lat="47.30718" lon="6.24059">
        <ele>266.7</ele>
        <time>2019-08-17T12:26:19Z</time>
      </trkpt>
      <trkpt lat="47.30717" lon="6.2405">
        <ele>266.8</ele>
        <time>2019-08-17T12:26:20Z</time>
      </trkpt>
      <trkpt lat="47.30715" lon="6.24043">
        <ele>266.8</ele>
        <time>2019-08-17T12:26:21Z</time>
      </trkpt>
      <trkpt lat="47.30714" lon="6.24034">
        <ele>266.8</ele>
        <time>2019-08-17T12:26:22Z</time>
      </trkpt>
      <trkpt lat="47.30712" lon="6.24025">
        <ele>266.9</ele>
        <time>2019-08-17T12:26:23Z</time>
      </trkpt>
      <trkpt lat="47.3071" lon="6.24018">
        <ele>267</ele>
        <time>2019-08-17T12:26:24Z</time>
      </trkpt>
      <trkpt lat="47.30708" lon="6.24011">
        <ele>267.1</ele>
        <time>2019-08-17T12:26:25Z</time>
      </trkpt>
      <trkpt lat="47.30706" lon="6.24002">
        <ele>267.2</ele>
        <time>2019-08-17T12:26:26Z</time>
      </trkpt>
      <trkpt lat="47.30704" lon="6.23995">
        <ele>267.4</ele>
        <time>2019-08-17T12:26:27Z</time>
      </trkpt>
      <trkpt lat="47.30702" lon="6.23987">
        <ele>267.5</ele>
        <time>2019-08-17T12:26:28Z</time>
      </trkpt>
      <trkpt lat="47.30699" lon="6.2398">
        <ele>267.7</ele>
        <time>2019-08-17T12:26:29Z</time>
      </trkpt>
      <trkpt lat="47.30697" lon="6.23972">
        <ele>267.8</ele>
        <time>2019-08-17T12:26:30Z</time>
      </trkpt>
      <trkpt lat="47.30695" lon="6.23964">
        <ele>267.8</ele>
        <time>2019-08-17T12:26:31Z</time>
      </trkpt>
      <trkpt lat="47.30692" lon="6.23957">
        <ele>267.9</ele>
        <time>2019-08-17T12:26:32Z</time>
      </trkpt>
      <trkpt lat="47.30692" lon="6.23951">
        <ele>267.9</ele>
        <time>2019-08-17T12:26:33Z</time>
      </trkpt>
      <trkpt lat="47.3069" lon="6.23944">
        <ele>268</ele>
        <time>2019-08-17T12:26:34Z</time>
      </trkpt>
      <trkpt lat="47.30687" lon="6.23936">
        <ele>268</ele>
        <time>2019-08-17T12:26:35Z</time>
      </trkpt>
      <trkpt lat="47.30685" lon="6.23929">
        <ele>268</ele>
        <time>2019-08-17T12:26:36Z</time>
      </trkpt>
      <trkpt lat="47.30684" lon="6.23924">
        <ele>268.1</ele>
        <time>2019-08-17T12:26:37Z</time>
      </trkpt>
      <trkpt lat="47.30682" lon="6.23917">
        <ele>268.2</ele>
        <time>2019-08-17T12:26:38Z</time>
      </trkpt>
      <trkpt lat="47.3068" lon="6.2391">
        <ele>268.3</ele>
        <time>2019-08-17T12:26:39Z</time>
      </trkpt>
      <trkpt lat="47.30678" lon="6.23902">
        <ele>268.4</ele>
        <time>2019-08-17T12:26:40Z</time>
      </trkpt>
      <trkpt lat="47.30675" lon="6.23895">
        <ele>268.5</ele>
        <time>2019-08-17T12:26:41Z</time>
      </trkpt>
      <trkpt lat="47.30674" lon="6.23887">
        <ele>268.7</ele>
        <time>2019-08-17T12:26:42Z</time>
      </trkpt>
      <trkpt lat="47.30672" lon="6.2388">
        <ele>268.8</ele>
        <time>2019-08-17T12:26:43Z</time>
      </trkpt>
      <trkpt lat="47.3067" lon="6.23873">
        <ele>268.9</ele>
        <time>2019-08-17T12:26:44Z</time>
      </trkpt>
      <trkpt lat="47.30668" lon="6.23867">
        <ele>269</ele>
        <time>2019-08-17T12:26:45Z</time>
      </trkpt>
      <trkpt lat="47.30666" lon="6.23861">
        <ele>269</ele>
        <time>2019-08-17T12:26:46Z</time>
      </trkpt>
      <trkpt lat="47.30663" lon="6.23854">
        <ele>269.1</ele>
        <time>2019-08-17T12:26:47Z</time>
      </trkpt>
      <trkpt lat="47.3066" lon="6.23847">
        <ele>269.1</ele>
        <time>2019-08-17T12:26:48Z</time>
      </trkpt>
      <trkpt lat="47.30658" lon="6.23841">
        <ele>269.2</ele>
        <time>2019-08-17T12:26:49Z</time>
      </trkpt>
      <trkpt lat="47.30656" lon="6.23835">
        <ele>269.2</ele>
        <time>2019-08-17T12:26:50Z</time>
      </trkpt>
      <trkpt lat="47.30654" lon="6.23828">
        <ele>269.2</ele>
        <time>2019-08-17T12:26:51Z</time>
      </trkpt>
      <trkpt lat="47.30651" lon="6.23821">
        <ele>269.3</ele>
        <time>2019-08-17T12:26:52Z</time>
      </trkpt>
      <trkpt lat="47.30648" lon="6.23814">
        <ele>269.4</ele>
        <time>2019-08-17T12:26:53Z</time>
      </trkpt>
      <trkpt lat="47.30645" lon="6.23808">
        <ele>269.6</ele>
        <time>2019-08-17T12:26:54Z</time>
      </trkpt>
      <trkpt lat="47.30642" lon="6.23801">
        <ele>269.7</ele>
        <time>2019-08-17T12:26:55Z</time>
      </trkpt>
      <trkpt lat="47.30639" lon="6.23793">
        <ele>269.9</ele>
        <time>2019-08-17T12:26:56Z</time>
      </trkpt>
      <trkpt lat="47.30636" lon="6.23786">
        <ele>270</ele>
        <time>2019-08-17T12:26:57Z</time>
      </trkpt>
      <trkpt lat="47.30632" lon="6.2378">
        <ele>270.1</ele>
        <time>2019-08-17T12:26:58Z</time>
      </trkpt>
      <trkpt lat="47.3063" lon="6.23775">
        <ele>270.2</ele>
        <time>2019-08-17T12:26:59Z</time>
      </trkpt>
      <trkpt lat="47.30627" lon="6.23769">
        <ele>270.2</ele>
        <time>2019-08-17T12:27:00Z</time>
      </trkpt>
      <trkpt lat="47.30624" lon="6.23762">
        <ele>270.3</ele>
        <time>2019-08-17T12:27:01Z</time>
      </trkpt>
      <trkpt lat="47.3062" lon="6.23755">
        <ele>270.3</ele>
        <time>2019-08-17T12:27:02Z</time>
      </trkpt>
      <trkpt lat="47.30618" lon="6.23749">
        <ele>270.3</ele>
        <time>2019-08-17T12:27:03Z</time>
      </trkpt>
      <trkpt lat="47.30615" lon="6.23742">
        <ele>270.4</ele>
        <time>2019-08-17T12:27:04Z</time>
      </trkpt>
      <trkpt lat="47.30611" lon="6.23734">
        <ele>270.5</ele>
        <time>2019-08-17T12:27:05Z</time>
      </trkpt>
      <trkpt lat="47.30608" lon="6.23726">
        <ele>270.6</ele>
        <time>2019-08-17T12:27:06Z</time>
      </trkpt>
      <trkpt lat="47.30605" lon="6.2372">
        <ele>270.7</ele>
        <time>2019-08-17T12:27:07Z</time>
      </trkpt>
      <trkpt lat="47.30602" lon="6.23714">
        <ele>270.8</ele>
        <time>2019-08-17T12:27:08Z</time>
      </trkpt>
      <trkpt lat="47.306" lon="6.23706">
        <ele>271</ele>
        <time>2019-08-17T12:27:09Z</time>
      </trkpt>
      <trkpt lat="47.30597" lon="6.23701">
        <ele>271.1</ele>
        <time>2019-08-17T12:27:10Z</time>
      </trkpt>
      <trkpt lat="47.30593" lon="6.23694">
        <ele>271.2</ele>
        <time>2019-08-17T12:27:11Z</time>
      </trkpt>
      <trkpt lat="47.3059" lon="6.23688">
        <ele>271.3</ele>
        <time>2019-08-17T12:27:12Z</time>
      </trkpt>
      <trkpt lat="47.30588" lon="6.23683">
        <ele>271.4</ele>
        <time>2019-08-17T12:27:13Z</time>
      </trkpt>
      <trkpt lat="47.30585" lon="6.23678">
        <ele>271.4</ele>
        <time>2019-08-17T12:27:14Z</time>
      </trkpt>
      <trkpt lat="47.30582" lon="6.23672">
        <ele>271.4</ele>
        <time>2019-08-17T12:27:15Z</time>
      </trkpt>
      <trkpt lat="47.30579" lon="6.23666">
        <ele>271.5</ele>
        <time>2019-08-17T12:27:16Z</time>
      </trkpt>
      <trkpt lat="47.30575" lon="6.2366">
        <ele>271.5</ele>
        <time>2019-08-17T12:27:17Z</time>
      </trkpt>
      <trkpt lat="47.30571" lon="6.23656">
        <ele>271.6</ele>
        <time>2019-08-17T12:27:18Z</time>
      </trkpt>
      <trkpt lat="47.30567" lon="6.2365">
        <ele>271.6</ele>
        <time>2019-08-17T12:27:19Z</time>
      </trkpt>
      <trkpt lat="47.30563" lon="6.23645">
        <ele>271.7</ele>
        <time>2019-08-17T12:27:20Z</time>
      </trkpt>
      <trkpt lat="47.30559" lon="6.23641">
        <ele>271.8</ele>
        <time>2019-08-17T12:27:21Z</time>
      </trkpt>
      <trkpt lat="47.30554" lon="6.23639">
        <ele>271.9</ele>
        <time>2019-08-17T12:27:22Z</time>
      </trkpt>
      <trkpt lat="47.30549" lon="6.23636">
        <ele>272</ele>
        <time>2019-08-17T12:27:23Z</time>
      </trkpt>
      <trkpt lat="47.30544" lon="6.23634">
        <ele>272.2</ele>
        <time>2019-08-17T12:27:24Z</time>
      </trkpt>
      <trkpt lat="47.30538" lon="6.23632">
        <ele>272.3</ele>
        <time>2019-08-17T12:27:25Z</time>
      </trkpt>
      <trkpt lat="47.30533" lon="6.2363">
        <ele>272.4</ele>
        <time>2019-08-17T12:27:26Z</time>
      </trkpt>
      <trkpt lat="47.30528" lon="6.23628">
        <ele>272.5</ele>
        <time>2019-08-17T12:27:27Z</time>
      </trkpt>
      <trkpt lat="47.30523" lon="6.23627">
        <ele>272.5</ele>
        <time>2019-08-17T12:27:28Z</time>
      </trkpt>
      <trkpt lat="47.30519" lon="6.23627">
        <ele>272.6</ele>
        <time>2019-08-17T12:27:29Z</time>
      </trkpt>
      <trkpt lat="47.30515" lon="6.23626">
        <ele>272.6</ele>
        <time>2019-08-17T12:27:30Z</time>
      </trkpt>
      <trkpt lat="47.3051" lon="6.23626">
        <ele>272.7</ele>
        <time>2019-08-17T12:27:31Z</time>
      </trkpt>
      <trkpt lat="47.30505" lon="6.23626">
        <ele>272.7</ele>
        <time>2019-08-17T12:27:32Z</time>
      </trkpt>
      <trkpt lat="47.305" lon="6.23625">
        <ele>272.8</ele>
        <time>2019-08-17T12:27:33Z</time>
      </trkpt>
      <trkpt lat="47.30496" lon="6.23624">
        <ele>272.8</ele>
        <time>2019-08-17T12:27:34Z</time>
      </trkpt>
      <trkpt lat="47.30491" lon="6.23623">
        <ele>272.9</ele>
        <time>2019-08-17T12:27:35Z</time>
      </trkpt>
      <trkpt lat="47.30487" lon="6.23622">
        <ele>273</ele>
        <time>2019-08-17T12:27:36Z</time>
      </trkpt>
      <trkpt lat="47.30483" lon="6.2362">
        <ele>273.1</ele>
        <time>2019-08-17T12:27:37Z</time>
      </trkpt>
      <trkpt lat="47.30478" lon="6.23619">
        <ele>273.3</ele>
        <time>2019-08-17T12:27:38Z</time>
      </trkpt>
      <trkpt lat="47.30474" lon="6.23618">
        <ele>273.4</ele>
        <time>2019-08-17T12:27:39Z</time>
      </trkpt>
      <trkpt lat="47.30469" lon="6.23617">
        <ele>273.5</ele>
        <time>2019-08-17T12:27:40Z</time>
      </trkpt>
      <trkpt lat="47.30465" lon="6.23616">
        <ele>273.6</ele>
        <time>2019-08-17T12:27:41Z</time>
      </trkpt>
      <trkpt lat="47.30459" lon="6.23614">
        <ele>273.7</ele>
        <time>2019-08-17T12:27:42Z</time>
      </trkpt>
      <trkpt lat="47.30454" lon="6.23612">
        <ele>273.7</ele>
        <time>2019-08-17T12:27:43Z</time>
      </trkpt>
      <trkpt lat="47.30451" lon="6.23611">
        <ele>273.8</ele>
        <time>2019-08-17T12:27:44Z</time>
      </trkpt>
      <trkpt lat="47.30448" lon="6.23609">
        <ele>273.8</ele>
        <time>2019-08-17T12:27:45Z</time>
      </trkpt>
      <trkpt lat="47.30444" lon="6.23608">
        <ele>273.8</ele>
        <time>2019-08-17T12:27:46Z</time>
      </trkpt>
      <trkpt lat="47.30439" lon="6.23606">
        <ele>273.9</ele>
        <time>2019-08-17T12:27:47Z</time>
      </trkpt>
      <trkpt lat="47.30435" lon="6.23605">
        <ele>273.9</ele>
        <time>2019-08-17T12:27:48Z</time>
      </trkpt>
      <trkpt lat="47.30431" lon="6.23603">
        <ele>273.9</ele>
        <time>2019-08-17T12:27:49Z</time>
      </trkpt>
      <trkpt lat="47.30426" lon="6.23602">
        <ele>274</ele>
        <time>2019-08-17T12:27:50Z</time>
      </trkpt>
      <trkpt lat="47.30422" lon="6.23601">
        <ele>274.1</ele>
        <time>2019-08-17T12:27:51Z</time>
      </trkpt>
      <trkpt lat="47.30417" lon="6.23599">
        <ele>274.2</ele>
        <time>2019-08-17T12:27:52Z</time>
      </trkpt>
      <trkpt lat="47.30412" lon="6.23598">
        <ele>274.3</ele>
        <time>2019-08-17T12:27:53Z</time>
      </trkpt>
      <trkpt lat="47.30407" lon="6.23596">
        <ele>274.5</ele>
        <time>2019-08-17T12:27:54Z</time>
      </trkpt>
      <trkpt lat="47.30403" lon="6.23593">
        <ele>274.6</ele>
        <time>2019-08-17T12:27:55Z</time>
      </trkpt>
      <trkpt lat="47.30399" lon="6.2359">
        <ele>274.7</ele>
        <time>2019-08-17T12:27:56Z</time>
      </trkpt>
      <trkpt lat="47.30395" lon="6.23587">
        <ele>274.8</ele>
        <time>2019-08-17T12:27:57Z</time>
      </trkpt>
      <trkpt lat="47.30391" lon="6.23584">
        <ele>274.9</ele>
        <time>2019-08-17T12:27:58Z</time>
      </trkpt>
      <trkpt lat="47.30386" lon="6.2358">
        <ele>274.9</ele>
        <time>2019-08-17T12:27:59Z</time>
      </trkpt>
      <trkpt lat="47.30382" lon="6.23577">
        <ele>275</ele>
        <time>2019-08-17T12:28:00Z</time>
      </trkpt>
      <trkpt lat="47.30377" lon="6.23572">
        <ele>275</ele>
        <time>2019-08-17T12:28:01Z</time>
      </trkpt>
      <trkpt lat="47.3037" lon="6.23565">
        <ele>275.1</ele>
        <time>2019-08-17T12:28:02Z</time>
      </trkpt>
      <trkpt lat="47.30365" lon="6.23559">
        <ele>275.2</ele>
        <time>2019-08-17T12:28:03Z</time>
      </trkpt>
      <trkpt lat="47.3036" lon="6.23554">
        <ele>275.4</ele>
        <time>2019-08-17T12:28:04Z</time>
      </trkpt>
      <trkpt lat="47.30356" lon="6.2355">
        <ele>275.5</ele>
        <time>2019-08-17T12:28:05Z</time>
      </trkpt>
      <trkpt lat="47.30351" lon="6.23546">
        <ele>275.7</ele>
        <time>2019-08-17T12:28:06Z</time>
      </trkpt>
      <trkpt lat="47.30347" lon="6.23541">
        <ele>275.8</ele>
        <time>2019-08-17T12:28:07Z</time>
      </trkpt>
      <trkpt lat="47.30342" lon="6.23538">
        <ele>275.9</ele>
        <time>2019-08-17T12:28:08Z</time>
      </trkpt>
      <trkpt lat="47.30338" lon="6.23535">
        <ele>276</ele>
        <time>2019-08-17T12:28:09Z</time>
      </trkpt>
      <trkpt lat="47.30335" lon="6.23532">
        <ele>276.1</ele>
        <time>2019-08-17T12:28:10Z</time>
      </trkpt>
      <trkpt lat="47.30332" lon="6.2353">
        <ele>276.1</ele>
        <time>2019-08-17T12:28:11Z</time>
      </trkpt>
      <trkpt lat="47.30328" lon="6.23528">
        <ele>276.2</ele>
        <time>2019-08-17T12:28:12Z</time>
      </trkpt>
      <trkpt lat="47.30324" lon="6.23526">
        <ele>276.3</ele>
        <time>2019-08-17T12:28:13Z</time>
      </trkpt>
      <trkpt lat="47.3032" lon="6.23524">
        <ele>276.4</ele>
        <time>2019-08-17T12:28:14Z</time>
      </trkpt>
      <trkpt lat="47.30315" lon="6.23522">
        <ele>276.5</ele>
        <time>2019-08-17T12:28:15Z</time>
      </trkpt>
      <trkpt lat="47.3031" lon="6.2352">
        <ele>276.6</ele>
        <time>2019-08-17T12:28:16Z</time>
      </trkpt>
      <trkpt lat="47.30305" lon="6.23519">
        <ele>276.8</ele>
        <time>2019-08-17T12:28:17Z</time>
      </trkpt>
      <trkpt lat="47.30299" lon="6.23518">
        <ele>276.9</ele>
        <time>2019-08-17T12:28:18Z</time>
      </trkpt>
      <trkpt lat="47.30294" lon="6.23517">
        <ele>277</ele>
        <time>2019-08-17T12:28:19Z</time>
      </trkpt>
      <trkpt lat="47.30289" lon="6.23517">
        <ele>277.1</ele>
        <time>2019-08-17T12:28:20Z</time>
      </trkpt>
      <trkpt lat="47.30283" lon="6.23517">
        <ele>277.2</ele>
        <time>2019-08-17T12:28:21Z</time>
      </trkpt>
      <trkpt lat="47.30278" lon="6.23516">
        <ele>277.2</ele>
        <time>2019-08-17T12:28:22Z</time>
      </trkpt>
      <trkpt lat="47.30272" lon="6.23516">
        <ele>277.3</ele>
        <time>2019-08-17T12:28:23Z</time>
      </trkpt>
      <trkpt lat="47.30267" lon="6.23515">
        <ele>277.4</ele>
        <time>2019-08-17T12:28:24Z</time>
      </trkpt>
      <trkpt lat="47.30263" lon="6.23515">
        <ele>277.4</ele>
        <time>2019-08-17T12:28:25Z</time>
      </trkpt>
      <trkpt lat="47.30258" lon="6.23515">
        <ele>277.5</ele>
        <time>2019-08-17T12:28:26Z</time>
      </trkpt>
      <trkpt lat="47.30254" lon="6.23515">
        <ele>277.6</ele>
        <time>2019-08-17T12:28:27Z</time>
      </trkpt>
      <trkpt lat="47.30251" lon="6.23514">
        <ele>277.7</ele>
        <time>2019-08-17T12:28:28Z</time>
      </trkpt>
      <trkpt lat="47.30247" lon="6.23513">
        <ele>277.8</ele>
        <time>2019-08-17T12:28:29Z</time>
      </trkpt>
      <trkpt lat="47.30243" lon="6.23513">
        <ele>277.9</ele>
        <time>2019-08-17T12:28:30Z</time>
      </trkpt>
      <trkpt lat="47.30238" lon="6.23513">
        <ele>278</ele>
        <time>2019-08-17T12:28:31Z</time>
      </trkpt>
      <trkpt lat="47.30233" lon="6.23514">
        <ele>278.2</ele>
        <time>2019-08-17T12:28:32Z</time>
      </trkpt>
      <trkpt lat="47.30226" lon="6.23515">
        <ele>278.3</ele>
        <time>2019-08-17T12:28:33Z</time>
      </trkpt>
      <trkpt lat="47.3022" lon="6.23516">
        <ele>278.3</ele>
        <time>2019-08-17T12:28:34Z</time>
      </trkpt>
      <trkpt lat="47.30214" lon="6.23517">
        <ele>278.4</ele>
        <time>2019-08-17T12:28:35Z</time>
      </trkpt>
      <trkpt lat="47.30209" lon="6.23517">
        <ele>278.4</ele>
        <time>2019-08-17T12:28:36Z</time>
      </trkpt>
      <trkpt lat="47.30204" lon="6.23516">
        <ele>278.4</ele>
        <time>2019-08-17T12:28:37Z</time>
      </trkpt>
      <trkpt lat="47.30199" lon="6.23515">
        <ele>278.4</ele>
        <time>2019-08-17T12:28:38Z</time>
      </trkpt>
      <trkpt lat="47.30195" lon="6.23515">
        <ele>278.4</ele>
        <time>2019-08-17T12:28:39Z</time>
      </trkpt>
      <trkpt lat="47.30191" lon="6.23515">
        <ele>278.4</ele>
        <time>2019-08-17T12:28:40Z</time>
      </trkpt>
      <trkpt lat="47.30188" lon="6.23517">
        <ele>278.4</ele>
        <time>2019-08-17T12:28:41Z</time>
      </trkpt>
      <trkpt lat="47.30185" lon="6.23518">
        <ele>278.5</ele>
        <time>2019-08-17T12:28:42Z</time>
      </trkpt>
      <trkpt lat="47.30183" lon="6.2352">
        <ele>278.5</ele>
        <time>2019-08-17T12:28:43Z</time>
      </trkpt>
      <trkpt lat="47.3018" lon="6.23521">
        <ele>278.5</ele>
        <time>2019-08-17T12:28:44Z</time>
      </trkpt>
      <trkpt lat="47.30176" lon="6.23521">
        <ele>278.5</ele>
        <time>2019-08-17T12:28:45Z</time>
      </trkpt>
      <trkpt lat="47.30173" lon="6.23522">
        <ele>278.5</ele>
        <time>2019-08-17T12:28:46Z</time>
      </trkpt>
      <trkpt lat="47.30168" lon="6.23523">
        <ele>278.5</ele>
        <time>2019-08-17T12:28:48Z</time>
      </trkpt>
      <trkpt lat="47.30165" lon="6.23525">
        <ele>278.5</ele>
        <time>2019-08-17T12:28:49Z</time>
      </trkpt>
      <trkpt lat="47.30162" lon="6.23525">
        <ele>278.5</ele>
        <time>2019-08-17T12:28:50Z</time>
      </trkpt>
      <trkpt lat="47.30158" lon="6.23526">
        <ele>278.5</ele>
        <time>2019-08-17T12:28:51Z</time>
      </trkpt>
      <trkpt lat="47.30154" lon="6.23527">
        <ele>278.5</ele>
        <time>2019-08-17T12:28:52Z</time>
      </trkpt>
      <trkpt lat="47.30151" lon="6.23527">
        <ele>278.5</ele>
        <time>2019-08-17T12:28:53Z</time>
      </trkpt>
      <trkpt lat="47.30146" lon="6.23526">
        <ele>278.6</ele>
        <time>2019-08-17T12:28:54Z</time>
      </trkpt>
      <trkpt lat="47.30142" lon="6.23525">
        <ele>278.6</ele>
        <time>2019-08-17T12:28:55Z</time>
      </trkpt>
      <trkpt lat="47.30137" lon="6.23525">
        <ele>278.6</ele>
        <time>2019-08-17T12:28:56Z</time>
      </trkpt>
      <trkpt lat="47.30133" lon="6.23525">
        <ele>278.6</ele>
        <time>2019-08-17T12:28:57Z</time>
      </trkpt>
      <trkpt lat="47.30129" lon="6.23525">
        <ele>278.6</ele>
        <time>2019-08-17T12:28:58Z</time>
      </trkpt>
      <trkpt lat="47.30125" lon="6.23527">
        <ele>278.6</ele>
        <time>2019-08-17T12:28:59Z</time>
      </trkpt>
      <trkpt lat="47.30121" lon="6.23527">
        <ele>278.6</ele>
        <time>2019-08-17T12:29:00Z</time>
      </trkpt>
      <trkpt lat="47.30117" lon="6.23528">
        <ele>278.6</ele>
        <time>2019-08-17T12:29:01Z</time>
      </trkpt>
      <trkpt lat="47.30114" lon="6.23528">
        <ele>278.6</ele>
        <time>2019-08-17T12:29:02Z</time>
      </trkpt>
      <trkpt lat="47.30111" lon="6.23528">
        <ele>278.6</ele>
        <time>2019-08-17T12:29:04Z</time>
      </trkpt>
      <trkpt lat="47.30108" lon="6.23527">
        <ele>278.6</ele>
        <time>2019-08-17T12:29:07Z</time>
      </trkpt>
      <trkpt lat="47.30105" lon="6.23531">
        <ele>278.7</ele>
        <time>2019-08-17T12:29:13Z</time>
      </trkpt>
      <trkpt lat="47.30101" lon="6.23526">
        <ele>278.7</ele>
        <time>2019-08-17T12:29:32Z</time>
      </trkpt>
      <trkpt lat="47.30098" lon="6.23526">
        <ele>278.7</ele>
        <time>2019-08-17T12:29:34Z</time>
      </trkpt>
      <trkpt lat="47.30093" lon="6.23528">
        <ele>278.7</ele>
        <time>2019-08-17T12:29:36Z</time>
      </trkpt>
      <trkpt lat="47.30088" lon="6.23528">
        <ele>279.2</ele>
        <time>2019-08-17T12:29:38Z</time>
      </trkpt>
      <trkpt lat="47.30085" lon="6.23529">
        <ele>279.5</ele>
        <time>2019-08-17T12:29:39Z</time>
      </trkpt>
      <trkpt lat="47.30082" lon="6.23529">
        <ele>279.8</ele>
        <time>2019-08-17T12:29:40Z</time>
      </trkpt>
      <trkpt lat="47.30079" lon="6.23529">
        <ele>280.1</ele>
        <time>2019-08-17T12:29:41Z</time>
      </trkpt>
      <trkpt lat="47.30077" lon="6.23528">
        <ele>280.3</ele>
        <time>2019-08-17T12:29:42Z</time>
      </trkpt>
      <trkpt lat="47.30072" lon="6.23524">
        <ele>280.7</ele>
        <time>2019-08-17T12:29:43Z</time>
      </trkpt>
      <trkpt lat="47.30069" lon="6.23522">
        <ele>280.9</ele>
        <time>2019-08-17T12:29:44Z</time>
      </trkpt>
      <trkpt lat="47.30066" lon="6.2352">
        <ele>281.2</ele>
        <time>2019-08-17T12:29:45Z</time>
      </trkpt>
      <trkpt lat="47.30063" lon="6.2352">
        <ele>281.3</ele>
        <time>2019-08-17T12:29:46Z</time>
      </trkpt>
      <trkpt lat="47.3006" lon="6.23519">
        <ele>281.5</ele>
        <time>2019-08-17T12:29:47Z</time>
      </trkpt>
      <trkpt lat="47.30056" lon="6.23518">
        <ele>281.8</ele>
        <time>2019-08-17T12:29:48Z</time>
      </trkpt>
      <trkpt lat="47.30053" lon="6.23517">
        <ele>282</ele>
        <time>2019-08-17T12:29:49Z</time>
      </trkpt>
      <trkpt lat="47.30048" lon="6.23516">
        <ele>282.2</ele>
        <time>2019-08-17T12:29:50Z</time>
      </trkpt>
      <trkpt lat="47.30045" lon="6.23516">
        <ele>282.5</ele>
        <time>2019-08-17T12:29:51Z</time>
      </trkpt>
      <trkpt lat="47.30041" lon="6.23515">
        <ele>282.7</ele>
        <time>2019-08-17T12:29:52Z</time>
      </trkpt>
      <trkpt lat="47.30038" lon="6.23515">
        <ele>282.8</ele>
        <time>2019-08-17T12:29:53Z</time>
      </trkpt>
      <trkpt lat="47.30032" lon="6.23514">
        <ele>283.2</ele>
        <time>2019-08-17T12:29:55Z</time>
      </trkpt>
      <trkpt lat="47.30029" lon="6.23513">
        <ele>283.4</ele>
        <time>2019-08-17T12:29:56Z</time>
      </trkpt>
      <trkpt lat="47.30026" lon="6.23511">
        <ele>283.4</ele>
        <time>2019-08-17T12:29:57Z</time>
      </trkpt>
      <trkpt lat="47.30024" lon="6.2351">
        <ele>283.3</ele>
        <time>2019-08-17T12:29:58Z</time>
      </trkpt>
      <trkpt lat="47.30021" lon="6.23508">
        <ele>283.3</ele>
        <time>2019-08-17T12:29:59Z</time>
      </trkpt>
      <trkpt lat="47.30018" lon="6.23506">
        <ele>283.3</ele>
        <time>2019-08-17T12:30:00Z</time>
      </trkpt>
      <trkpt lat="47.30015" lon="6.23504">
        <ele>283.3</ele>
        <time>2019-08-17T12:30:01Z</time>
      </trkpt>
      <trkpt lat="47.30013" lon="6.23502">
        <ele>283.2</ele>
        <time>2019-08-17T12:30:02Z</time>
      </trkpt>
      <trkpt lat="47.30009" lon="6.23498">
        <ele>283.2</ele>
        <time>2019-08-17T12:30:04Z</time>
      </trkpt>
      <trkpt lat="47.30005" lon="6.23495">
        <ele>283.1</ele>
        <time>2019-08-17T12:30:06Z</time>
      </trkpt>
      <trkpt lat="47.30001" lon="6.23492">
        <ele>283.1</ele>
        <time>2019-08-17T12:30:08Z</time>
      </trkpt>
      <trkpt lat="47.29998" lon="6.23487">
        <ele>283</ele>
        <time>2019-08-17T12:30:10Z</time>
      </trkpt>
      <trkpt lat="47.29995" lon="6.23481">
        <ele>283</ele>
        <time>2019-08-17T12:30:12Z</time>
      </trkpt>
      <trkpt lat="47.29991" lon="6.23477">
        <ele>282.9</ele>
        <time>2019-08-17T12:30:14Z</time>
      </trkpt>
      <trkpt lat="47.29987" lon="6.23474">
        <ele>282.9</ele>
        <time>2019-08-17T12:30:16Z</time>
      </trkpt>
      <trkpt lat="47.29983" lon="6.23471">
        <ele>282.8</ele>
        <time>2019-08-17T12:30:18Z</time>
      </trkpt>
      <trkpt lat="47.2998" lon="6.23466">
        <ele>282.8</ele>
        <time>2019-08-17T12:30:20Z</time>
      </trkpt>
      <trkpt lat="47.29977" lon="6.23464">
        <ele>282.7</ele>
        <time>2019-08-17T12:30:21Z</time>
      </trkpt>
      <trkpt lat="47.29975" lon="6.23461">
        <ele>282.7</ele>
        <time>2019-08-17T12:30:22Z</time>
      </trkpt>
      <trkpt lat="47.29973" lon="6.23458">
        <ele>282.7</ele>
        <time>2019-08-17T12:30:23Z</time>
      </trkpt>
      <trkpt lat="47.2997" lon="6.23456">
        <ele>282.7</ele>
        <time>2019-08-17T12:30:24Z</time>
      </trkpt>
      <trkpt lat="47.29966" lon="6.23452">
        <ele>282.6</ele>
        <time>2019-08-17T12:30:26Z</time>
      </trkpt>
      <trkpt lat="47.29963" lon="6.2345">
        <ele>282.6</ele>
        <time>2019-08-17T12:30:27Z</time>
      </trkpt>
      <trkpt lat="47.29961" lon="6.23447">
        <ele>282.5</ele>
        <time>2019-08-17T12:30:28Z</time>
      </trkpt>
      <trkpt lat="47.29959" lon="6.23443">
        <ele>282.5</ele>
        <time>2019-08-17T12:30:29Z</time>
      </trkpt>
      <trkpt lat="47.29956" lon="6.23439">
        <ele>282.5</ele>
        <time>2019-08-17T12:30:30Z</time>
      </trkpt>
      <trkpt lat="47.29954" lon="6.23436">
        <ele>282.4</ele>
        <time>2019-08-17T12:30:31Z</time>
      </trkpt>
      <trkpt lat="47.29952" lon="6.23433">
        <ele>282.4</ele>
        <time>2019-08-17T12:30:32Z</time>
      </trkpt>
      <trkpt lat="47.29949" lon="6.2343">
        <ele>282.4</ele>
        <time>2019-08-17T12:30:33Z</time>
      </trkpt>
      <trkpt lat="47.29948" lon="6.23427">
        <ele>282.2</ele>
        <time>2019-08-17T12:30:34Z</time>
      </trkpt>
      <trkpt lat="47.29944" lon="6.23423">
        <ele>282</ele>
        <time>2019-08-17T12:30:35Z</time>
      </trkpt>
      <trkpt lat="47.2994" lon="6.23419">
        <ele>281.8</ele>
        <time>2019-08-17T12:30:37Z</time>
      </trkpt>
      <trkpt lat="47.29937" lon="6.23417">
        <ele>281.7</ele>
        <time>2019-08-17T12:30:38Z</time>
      </trkpt>
      <trkpt lat="47.29934" lon="6.23414">
        <ele>281.5</ele>
        <time>2019-08-17T12:30:39Z</time>
      </trkpt>
      <trkpt lat="47.29931" lon="6.23412">
        <ele>281.3</ele>
        <time>2019-08-17T12:30:40Z</time>
      </trkpt>
      <trkpt lat="47.29928" lon="6.23411">
        <ele>281.2</ele>
        <time>2019-08-17T12:30:41Z</time>
      </trkpt>
      <trkpt lat="47.29925" lon="6.2341">
        <ele>281</ele>
        <time>2019-08-17T12:30:42Z</time>
      </trkpt>
      <trkpt lat="47.29921" lon="6.2341">
        <ele>280.7</ele>
        <time>2019-08-17T12:30:43Z</time>
      </trkpt>
      <trkpt lat="47.29918" lon="6.23409">
        <ele>280.4</ele>
        <time>2019-08-17T12:30:44Z</time>
      </trkpt>
      <trkpt lat="47.29914" lon="6.23409">
        <ele>280.1</ele>
        <time>2019-08-17T12:30:45Z</time>
      </trkpt>
      <trkpt lat="47.29911" lon="6.23408">
        <ele>279.8</ele>
        <time>2019-08-17T12:30:46Z</time>
      </trkpt>
      <trkpt lat="47.29907" lon="6.23406">
        <ele>279.4</ele>
        <time>2019-08-17T12:30:47Z</time>
      </trkpt>
      <trkpt lat="47.29903" lon="6.23404">
        <ele>278.9</ele>
        <time>2019-08-17T12:30:48Z</time>
      </trkpt>
      <trkpt lat="47.29899" lon="6.23402">
        <ele>278.4</ele>
        <time>2019-08-17T12:30:49Z</time>
      </trkpt>
      <trkpt lat="47.29896" lon="6.23401">
        <ele>278.1</ele>
        <time>2019-08-17T12:30:50Z</time>
      </trkpt>
      <trkpt lat="47.29894" lon="6.234">
        <ele>277.7</ele>
        <time>2019-08-17T12:30:51Z</time>
      </trkpt>
      <trkpt lat="47.29891" lon="6.23398">
        <ele>276</ele>
        <time>2019-08-17T12:30:52Z</time>
      </trkpt>
      <trkpt lat="47.29886" lon="6.23397">
        <ele>275.8</ele>
        <time>2019-08-17T12:30:54Z</time>
      </trkpt>
      <trkpt lat="47.29883" lon="6.23397">
        <ele>275.7</ele>
        <time>2019-08-17T12:30:55Z</time>
      </trkpt>
      <trkpt lat="47.2988" lon="6.23398">
        <ele>275.6</ele>
        <time>2019-08-17T12:30:56Z</time>
      </trkpt>
      <trkpt lat="47.29877" lon="6.23401">
        <ele>275</ele>
        <time>2019-08-17T12:30:57Z</time>
      </trkpt>
      <trkpt lat="47.29874" lon="6.23403">
        <ele>274.7</ele>
        <time>2019-08-17T12:30:58Z</time>
      </trkpt>
      <trkpt lat="47.2987" lon="6.23408">
        <ele>274.1</ele>
        <time>2019-08-17T12:31:00Z</time>
      </trkpt>
      <trkpt lat="47.29866" lon="6.2341">
        <ele>274</ele>
        <time>2019-08-17T12:31:01Z</time>
      </trkpt>
      <trkpt lat="47.29861" lon="6.23411">
        <ele>274</ele>
        <time>2019-08-17T12:31:02Z</time>
      </trkpt>
      <trkpt lat="47.29855" lon="6.23414">
        <ele>273.9</ele>
        <time>2019-08-17T12:31:03Z</time>
      </trkpt>
      <trkpt lat="47.2985" lon="6.23416">
        <ele>273.8</ele>
        <time>2019-08-17T12:31:04Z</time>
      </trkpt>
      <trkpt lat="47.29844" lon="6.23418">
        <ele>273.8</ele>
        <time>2019-08-17T12:31:05Z</time>
      </trkpt>
      <trkpt lat="47.29838" lon="6.23421">
        <ele>273.7</ele>
        <time>2019-08-17T12:31:06Z</time>
      </trkpt>
      <trkpt lat="47.29833" lon="6.23424">
        <ele>273.6</ele>
        <time>2019-08-17T12:31:07Z</time>
      </trkpt>
      <trkpt lat="47.29828" lon="6.23426">
        <ele>273.5</ele>
        <time>2019-08-17T12:31:08Z</time>
      </trkpt>
      <trkpt lat="47.29823" lon="6.23428">
        <ele>273.4</ele>
        <time>2019-08-17T12:31:09Z</time>
      </trkpt>
      <trkpt lat="47.29818" lon="6.23429">
        <ele>273.3</ele>
        <time>2019-08-17T12:31:10Z</time>
      </trkpt>
      <trkpt lat="47.29814" lon="6.2343">
        <ele>273.1</ele>
        <time>2019-08-17T12:31:11Z</time>
      </trkpt>
      <trkpt lat="47.29809" lon="6.23432">
        <ele>272.9</ele>
        <time>2019-08-17T12:31:12Z</time>
      </trkpt>
      <trkpt lat="47.29803" lon="6.23432">
        <ele>272.5</ele>
        <time>2019-08-17T12:31:13Z</time>
      </trkpt>
      <trkpt lat="47.29799" lon="6.23432">
        <ele>272.2</ele>
        <time>2019-08-17T12:31:14Z</time>
      </trkpt>
      <trkpt lat="47.29793" lon="6.23427">
        <ele>271.6</ele>
        <time>2019-08-17T12:31:15Z</time>
      </trkpt>
      <trkpt lat="47.29789" lon="6.23418">
        <ele>270.8</ele>
        <time>2019-08-17T12:31:16Z</time>
      </trkpt>
      <trkpt lat="47.29784" lon="6.23411">
        <ele>270</ele>
        <time>2019-08-17T12:31:17Z</time>
      </trkpt>
      <trkpt lat="47.2978" lon="6.23405">
        <ele>269.3</ele>
        <time>2019-08-17T12:31:18Z</time>
      </trkpt>
      <trkpt lat="47.29777" lon="6.234">
        <ele>268.7</ele>
        <time>2019-08-17T12:31:19Z</time>
      </trkpt>
      <trkpt lat="47.29774" lon="6.23395">
        <ele>268</ele>
        <time>2019-08-17T12:31:20Z</time>
      </trkpt>
      <trkpt lat="47.29771" lon="6.23391">
        <ele>267.3</ele>
        <time>2019-08-17T12:31:21Z</time>
      </trkpt>
      <trkpt lat="47.29767" lon="6.23385">
        <ele>266.6</ele>
        <time>2019-08-17T12:31:22Z</time>
      </trkpt>
      <trkpt lat="47.29763" lon="6.2338">
        <ele>265.9</ele>
        <time>2019-08-17T12:31:23Z</time>
      </trkpt>
      <trkpt lat="47.2976" lon="6.23375">
        <ele>265.3</ele>
        <time>2019-08-17T12:31:24Z</time>
      </trkpt>
      <trkpt lat="47.29756" lon="6.2337">
        <ele>264.8</ele>
        <time>2019-08-17T12:31:25Z</time>
      </trkpt>
      <trkpt lat="47.29753" lon="6.23366">
        <ele>264.4</ele>
        <time>2019-08-17T12:31:26Z</time>
      </trkpt>
      <trkpt lat="47.2975" lon="6.23361">
        <ele>264.1</ele>
        <time>2019-08-17T12:31:27Z</time>
      </trkpt>
      <trkpt lat="47.29748" lon="6.23354">
        <ele>263.7</ele>
        <time>2019-08-17T12:31:28Z</time>
      </trkpt>
      <trkpt lat="47.29745" lon="6.23349">
        <ele>263.5</ele>
        <time>2019-08-17T12:31:29Z</time>
      </trkpt>
      <trkpt lat="47.29742" lon="6.23344">
        <ele>263.3</ele>
        <time>2019-08-17T12:31:30Z</time>
      </trkpt>
      <trkpt lat="47.2974" lon="6.2334">
        <ele>263.2</ele>
        <time>2019-08-17T12:31:31Z</time>
      </trkpt>
      <trkpt lat="47.29737" lon="6.23335">
        <ele>263.1</ele>
        <time>2019-08-17T12:31:32Z</time>
      </trkpt>
      <trkpt lat="47.29735" lon="6.2333">
        <ele>263</ele>
        <time>2019-08-17T12:31:33Z</time>
      </trkpt>
      <trkpt lat="47.29732" lon="6.23325">
        <ele>263</ele>
        <time>2019-08-17T12:31:34Z</time>
      </trkpt>
      <trkpt lat="47.29731" lon="6.23319">
        <ele>263</ele>
        <time>2019-08-17T12:31:35Z</time>
      </trkpt>
      <trkpt lat="47.29728" lon="6.23314">
        <ele>262.9</ele>
        <time>2019-08-17T12:31:36Z</time>
      </trkpt>
      <trkpt lat="47.29727" lon="6.23309">
        <ele>262.9</ele>
        <time>2019-08-17T12:31:37Z</time>
      </trkpt>
      <trkpt lat="47.29727" lon="6.23304">
        <ele>262.9</ele>
        <time>2019-08-17T12:31:38Z</time>
      </trkpt>
      <trkpt lat="47.29724" lon="6.233">
        <ele>262.9</ele>
        <time>2019-08-17T12:31:39Z</time>
      </trkpt>
      <trkpt lat="47.29721" lon="6.23299">
        <ele>262.6</ele>
        <time>2019-08-17T12:31:40Z</time>
      </trkpt>
      <trkpt lat="47.29718" lon="6.23302">
        <ele>262.2</ele>
        <time>2019-08-17T12:31:41Z</time>
      </trkpt>
      <trkpt lat="47.29714" lon="6.23306">
        <ele>261.9</ele>
        <time>2019-08-17T12:31:42Z</time>
      </trkpt>
      <trkpt lat="47.2971" lon="6.23309">
        <ele>261.5</ele>
        <time>2019-08-17T12:31:43Z</time>
      </trkpt>
      <trkpt lat="47.29706" lon="6.23312">
        <ele>261.2</ele>
        <time>2019-08-17T12:31:44Z</time>
      </trkpt>
      <trkpt lat="47.29701" lon="6.23317">
        <ele>260.9</ele>
        <time>2019-08-17T12:31:45Z</time>
      </trkpt>
      <trkpt lat="47.29696" lon="6.23322">
        <ele>260.7</ele>
        <time>2019-08-17T12:31:46Z</time>
      </trkpt>
      <trkpt lat="47.29691" lon="6.23326">
        <ele>260.5</ele>
        <time>2019-08-17T12:31:47Z</time>
      </trkpt>
      <trkpt lat="47.29686" lon="6.23327">
        <ele>260.4</ele>
        <time>2019-08-17T12:31:48Z</time>
      </trkpt>
      <trkpt lat="47.29679" lon="6.23331">
        <ele>260.2</ele>
        <time>2019-08-17T12:31:49Z</time>
      </trkpt>
      <trkpt lat="47.29673" lon="6.23335">
        <ele>260</ele>
        <time>2019-08-17T12:31:50Z</time>
      </trkpt>
      <trkpt lat="47.29666" lon="6.23339">
        <ele>259.7</ele>
        <time>2019-08-17T12:31:51Z</time>
      </trkpt>
      <trkpt lat="47.2966" lon="6.23344">
        <ele>259.4</ele>
        <time>2019-08-17T12:31:52Z</time>
      </trkpt>
      <trkpt lat="47.29654" lon="6.23348">
        <ele>258.9</ele>
        <time>2019-08-17T12:31:53Z</time>
      </trkpt>
      <trkpt lat="47.2965" lon="6.23352">
        <ele>258.6</ele>
        <time>2019-08-17T12:31:54Z</time>
      </trkpt>
      <trkpt lat="47.29644" lon="6.23358">
        <ele>258</ele>
        <time>2019-08-17T12:31:55Z</time>
      </trkpt>
      <trkpt lat="47.29639" lon="6.23359">
        <ele>257.4</ele>
        <time>2019-08-17T12:31:56Z</time>
      </trkpt>
      <trkpt lat="47.29634" lon="6.23356">
        <ele>256.9</ele>
        <time>2019-08-17T12:31:57Z</time>
      </trkpt>
      <trkpt lat="47.2963" lon="6.23349">
        <ele>256.3</ele>
        <time>2019-08-17T12:31:58Z</time>
      </trkpt>
      <trkpt lat="47.29626" lon="6.2334">
        <ele>255.7</ele>
        <time>2019-08-17T12:31:59Z</time>
      </trkpt>
      <trkpt lat="47.29622" lon="6.23332">
        <ele>255.1</ele>
        <time>2019-08-17T12:32:00Z</time>
      </trkpt>
      <trkpt lat="47.29618" lon="6.23324">
        <ele>254.8</ele>
        <time>2019-08-17T12:32:01Z</time>
      </trkpt>
      <trkpt lat="47.29616" lon="6.23317">
        <ele>254.6</ele>
        <time>2019-08-17T12:32:02Z</time>
      </trkpt>
      <trkpt lat="47.29614" lon="6.2331">
        <ele>254.5</ele>
        <time>2019-08-17T12:32:03Z</time>
      </trkpt>
      <trkpt lat="47.29612" lon="6.23303">
        <ele>254.3</ele>
        <time>2019-08-17T12:32:04Z</time>
      </trkpt>
      <trkpt lat="47.29611" lon="6.23296">
        <ele>254.2</ele>
        <time>2019-08-17T12:32:05Z</time>
      </trkpt>
      <trkpt lat="47.29609" lon="6.23288">
        <ele>254.1</ele>
        <time>2019-08-17T12:32:06Z</time>
      </trkpt>
      <trkpt lat="47.29607" lon="6.2328">
        <ele>254</ele>
        <time>2019-08-17T12:32:07Z</time>
      </trkpt>
      <trkpt lat="47.29604" lon="6.2327">
        <ele>253.9</ele>
        <time>2019-08-17T12:32:08Z</time>
      </trkpt>
      <trkpt lat="47.29603" lon="6.23263">
        <ele>253.8</ele>
        <time>2019-08-17T12:32:09Z</time>
      </trkpt>
      <trkpt lat="47.29602" lon="6.23256">
        <ele>253.7</ele>
        <time>2019-08-17T12:32:10Z</time>
      </trkpt>
      <trkpt lat="47.29601" lon="6.23249">
        <ele>253.7</ele>
        <time>2019-08-17T12:32:11Z</time>
      </trkpt>
      <trkpt lat="47.29599" lon="6.23244">
        <ele>253.6</ele>
        <time>2019-08-17T12:32:12Z</time>
      </trkpt>
      <trkpt lat="47.29598" lon="6.23237">
        <ele>253.5</ele>
        <time>2019-08-17T12:32:13Z</time>
      </trkpt>
      <trkpt lat="47.29596" lon="6.23231">
        <ele>253.4</ele>
        <time>2019-08-17T12:32:14Z</time>
      </trkpt>
      <trkpt lat="47.29594" lon="6.23224">
        <ele>253.3</ele>
        <time>2019-08-17T12:32:15Z</time>
      </trkpt>
      <trkpt lat="47.29592" lon="6.23216">
        <ele>253.2</ele>
        <time>2019-08-17T12:32:16Z</time>
      </trkpt>
      <trkpt lat="47.2959" lon="6.23208">
        <ele>253.1</ele>
        <time>2019-08-17T12:32:17Z</time>
      </trkpt>
      <trkpt lat="47.29589" lon="6.23201">
        <ele>253</ele>
        <time>2019-08-17T12:32:18Z</time>
      </trkpt>
      <trkpt lat="47.29588" lon="6.23192">
        <ele>252.8</ele>
        <time>2019-08-17T12:32:19Z</time>
      </trkpt>
      <trkpt lat="47.29588" lon="6.23183">
        <ele>252.7</ele>
        <time>2019-08-17T12:32:20Z</time>
      </trkpt>
      <trkpt lat="47.29587" lon="6.23175">
        <ele>252.6</ele>
        <time>2019-08-17T12:32:21Z</time>
      </trkpt>
      <trkpt lat="47.29587" lon="6.23167">
        <ele>252.5</ele>
        <time>2019-08-17T12:32:22Z</time>
      </trkpt>
      <trkpt lat="47.29586" lon="6.23159">
        <ele>252.3</ele>
        <time>2019-08-17T12:32:23Z</time>
      </trkpt>
      <trkpt lat="47.29587" lon="6.23151">
        <ele>252.2</ele>
        <time>2019-08-17T12:32:24Z</time>
      </trkpt>
      <trkpt lat="47.29588" lon="6.23143">
        <ele>252</ele>
        <time>2019-08-17T12:32:25Z</time>
      </trkpt>
      <trkpt lat="47.29588" lon="6.23134">
        <ele>251.8</ele>
        <time>2019-08-17T12:32:26Z</time>
      </trkpt>
      <trkpt lat="47.29589" lon="6.23126">
        <ele>251.7</ele>
        <time>2019-08-17T12:32:27Z</time>
      </trkpt>
      <trkpt lat="47.2959" lon="6.23117">
        <ele>251.4</ele>
        <time>2019-08-17T12:32:28Z</time>
      </trkpt>
      <trkpt lat="47.29591" lon="6.2311">
        <ele>251.2</ele>
        <time>2019-08-17T12:32:29Z</time>
      </trkpt>
      <trkpt lat="47.29593" lon="6.23101">
        <ele>251.6</ele>
        <time>2019-08-17T12:32:30Z</time>
      </trkpt>
      <trkpt lat="47.29594" lon="6.23095">
        <ele>251.7</ele>
        <time>2019-08-17T12:32:31Z</time>
      </trkpt>
      <trkpt lat="47.29594" lon="6.23089">
        <ele>251.8</ele>
        <time>2019-08-17T12:32:32Z</time>
      </trkpt>
      <trkpt lat="47.29595" lon="6.23081">
        <ele>252</ele>
        <time>2019-08-17T12:32:33Z</time>
      </trkpt>
      <trkpt lat="47.29596" lon="6.23075">
        <ele>252.1</ele>
        <time>2019-08-17T12:32:34Z</time>
      </trkpt>
      <trkpt lat="47.29597" lon="6.2307">
        <ele>252.2</ele>
        <time>2019-08-17T12:32:35Z</time>
      </trkpt>
      <trkpt lat="47.29597" lon="6.23062">
        <ele>252.3</ele>
        <time>2019-08-17T12:32:36Z</time>
      </trkpt>
      <trkpt lat="47.29597" lon="6.23056">
        <ele>252.4</ele>
        <time>2019-08-17T12:32:37Z</time>
      </trkpt>
      <trkpt lat="47.29597" lon="6.2305">
        <ele>252.5</ele>
        <time>2019-08-17T12:32:38Z</time>
      </trkpt>
      <trkpt lat="47.29598" lon="6.23044">
        <ele>252.6</ele>
        <time>2019-08-17T12:32:39Z</time>
      </trkpt>
      <trkpt lat="47.29599" lon="6.23036">
        <ele>252.7</ele>
        <time>2019-08-17T12:32:40Z</time>
      </trkpt>
      <trkpt lat="47.296" lon="6.23029">
        <ele>252.8</ele>
        <time>2019-08-17T12:32:41Z</time>
      </trkpt>
      <trkpt lat="47.29601" lon="6.23021">
        <ele>252.9</ele>
        <time>2019-08-17T12:32:42Z</time>
      </trkpt>
      <trkpt lat="47.29602" lon="6.23014">
        <ele>253</ele>
        <time>2019-08-17T12:32:43Z</time>
      </trkpt>
      <trkpt lat="47.29602" lon="6.23007">
        <ele>253.2</ele>
        <time>2019-08-17T12:32:44Z</time>
      </trkpt>
      <trkpt lat="47.29602" lon="6.23001">
        <ele>253.2</ele>
        <time>2019-08-17T12:32:45Z</time>
      </trkpt>
      <trkpt lat="47.29603" lon="6.22996">
        <ele>253.3</ele>
        <time>2019-08-17T12:32:46Z</time>
      </trkpt>
      <trkpt lat="47.29604" lon="6.2299">
        <ele>253.4</ele>
        <time>2019-08-17T12:32:47Z</time>
      </trkpt>
      <trkpt lat="47.29603" lon="6.22984">
        <ele>253.5</ele>
        <time>2019-08-17T12:32:48Z</time>
      </trkpt>
      <trkpt lat="47.29604" lon="6.22979">
        <ele>253.6</ele>
        <time>2019-08-17T12:32:49Z</time>
      </trkpt>
      <trkpt lat="47.29604" lon="6.22973">
        <ele>253.6</ele>
        <time>2019-08-17T12:32:50Z</time>
      </trkpt>
      <trkpt lat="47.29605" lon="6.22967">
        <ele>253.7</ele>
        <time>2019-08-17T12:32:51Z</time>
      </trkpt>
      <trkpt lat="47.29606" lon="6.22961">
        <ele>253.8</ele>
        <time>2019-08-17T12:32:52Z</time>
      </trkpt>
      <trkpt lat="47.29607" lon="6.22956">
        <ele>253.9</ele>
        <time>2019-08-17T12:32:53Z</time>
      </trkpt>
      <trkpt lat="47.29608" lon="6.2295">
        <ele>254</ele>
        <time>2019-08-17T12:32:54Z</time>
      </trkpt>
      <trkpt lat="47.2961" lon="6.22942">
        <ele>254.1</ele>
        <time>2019-08-17T12:32:55Z</time>
      </trkpt>
      <trkpt lat="47.29611" lon="6.22936">
        <ele>254.2</ele>
        <time>2019-08-17T12:32:56Z</time>
      </trkpt>
      <trkpt lat="47.29614" lon="6.22929">
        <ele>254.3</ele>
        <time>2019-08-17T12:32:57Z</time>
      </trkpt>
      <trkpt lat="47.29617" lon="6.22922">
        <ele>254.5</ele>
        <time>2019-08-17T12:32:58Z</time>
      </trkpt>
      <trkpt lat="47.29621" lon="6.22914">
        <ele>254.6</ele>
        <time>2019-08-17T12:32:59Z</time>
      </trkpt>
      <trkpt lat="47.29623" lon="6.22907">
        <ele>254.7</ele>
        <time>2019-08-17T12:33:00Z</time>
      </trkpt>
      <trkpt lat="47.29624" lon="6.229">
        <ele>254.9</ele>
        <time>2019-08-17T12:33:01Z</time>
      </trkpt>
      <trkpt lat="47.29626" lon="6.22894">
        <ele>255</ele>
        <time>2019-08-17T12:33:02Z</time>
      </trkpt>
      <trkpt lat="47.29627" lon="6.22889">
        <ele>255</ele>
        <time>2019-08-17T12:33:03Z</time>
      </trkpt>
      <trkpt lat="47.29631" lon="6.22885">
        <ele>255.1</ele>
        <time>2019-08-17T12:33:04Z</time>
      </trkpt>
      <trkpt lat="47.29635" lon="6.2288">
        <ele>255.3</ele>
        <time>2019-08-17T12:33:05Z</time>
      </trkpt>
      <trkpt lat="47.2964" lon="6.22875">
        <ele>255.4</ele>
        <time>2019-08-17T12:33:06Z</time>
      </trkpt>
      <trkpt lat="47.29643" lon="6.22868">
        <ele>255.5</ele>
        <time>2019-08-17T12:33:07Z</time>
      </trkpt>
      <trkpt lat="47.29647" lon="6.22861">
        <ele>255.5</ele>
        <time>2019-08-17T12:33:08Z</time>
      </trkpt>
      <trkpt lat="47.2965" lon="6.22854">
        <ele>255.5</ele>
        <time>2019-08-17T12:33:09Z</time>
      </trkpt>
      <trkpt lat="47.29653" lon="6.22848">
        <ele>255.6</ele>
        <time>2019-08-17T12:33:10Z</time>
      </trkpt>
      <trkpt lat="47.29657" lon="6.22842">
        <ele>255.6</ele>
        <time>2019-08-17T12:33:11Z</time>
      </trkpt>
      <trkpt lat="47.2966" lon="6.22839">
        <ele>255.6</ele>
        <time>2019-08-17T12:33:12Z</time>
      </trkpt>
      <trkpt lat="47.29663" lon="6.22834">
        <ele>255.7</ele>
        <time>2019-08-17T12:33:13Z</time>
      </trkpt>
      <trkpt lat="47.29666" lon="6.22829">
        <ele>255.7</ele>
        <time>2019-08-17T12:33:14Z</time>
      </trkpt>
      <trkpt lat="47.29668" lon="6.22824">
        <ele>255.7</ele>
        <time>2019-08-17T12:33:15Z</time>
      </trkpt>
      <trkpt lat="47.29671" lon="6.22818">
        <ele>255.7</ele>
        <time>2019-08-17T12:33:16Z</time>
      </trkpt>
      <trkpt lat="47.29673" lon="6.22812">
        <ele>255.8</ele>
        <time>2019-08-17T12:33:17Z</time>
      </trkpt>
      <trkpt lat="47.29676" lon="6.22806">
        <ele>255.8</ele>
        <time>2019-08-17T12:33:18Z</time>
      </trkpt>
      <trkpt lat="47.29678" lon="6.22801">
        <ele>255.8</ele>
        <time>2019-08-17T12:33:19Z</time>
      </trkpt>
      <trkpt lat="47.2968" lon="6.22796">
        <ele>255.8</ele>
        <time>2019-08-17T12:33:20Z</time>
      </trkpt>
      <trkpt lat="47.29682" lon="6.22792">
        <ele>255.8</ele>
        <time>2019-08-17T12:33:21Z</time>
      </trkpt>
      <trkpt lat="47.29684" lon="6.22787">
        <ele>255.8</ele>
        <time>2019-08-17T12:33:22Z</time>
      </trkpt>
      <trkpt lat="47.29687" lon="6.22783">
        <ele>255.8</ele>
        <time>2019-08-17T12:33:23Z</time>
      </trkpt>
      <trkpt lat="47.29689" lon="6.22779">
        <ele>255.8</ele>
        <time>2019-08-17T12:33:24Z</time>
      </trkpt>
      <trkpt lat="47.29692" lon="6.22775">
        <ele>255.8</ele>
        <time>2019-08-17T12:33:25Z</time>
      </trkpt>
      <trkpt lat="47.29694" lon="6.2277">
        <ele>255.9</ele>
        <time>2019-08-17T12:33:26Z</time>
      </trkpt>
      <trkpt lat="47.29697" lon="6.22764">
        <ele>255.9</ele>
        <time>2019-08-17T12:33:27Z</time>
      </trkpt>
      <trkpt lat="47.297" lon="6.22758">
        <ele>255.9</ele>
        <time>2019-08-17T12:33:28Z</time>
      </trkpt>
      <trkpt lat="47.29702" lon="6.22753">
        <ele>255.9</ele>
        <time>2019-08-17T12:33:29Z</time>
      </trkpt>
      <trkpt lat="47.29706" lon="6.22746">
        <ele>255.9</ele>
        <time>2019-08-17T12:33:30Z</time>
      </trkpt>
      <trkpt lat="47.29708" lon="6.22741">
        <ele>255.9</ele>
        <time>2019-08-17T12:33:31Z</time>
      </trkpt>
      <trkpt lat="47.29712" lon="6.22736">
        <ele>256</ele>
        <time>2019-08-17T12:33:32Z</time>
      </trkpt>
      <trkpt lat="47.29715" lon="6.2273">
        <ele>256</ele>
        <time>2019-08-17T12:33:33Z</time>
      </trkpt>
      <trkpt lat="47.29717" lon="6.22725">
        <ele>256</ele>
        <time>2019-08-17T12:33:34Z</time>
      </trkpt>
      <trkpt lat="47.2972" lon="6.22719">
        <ele>256</ele>
        <time>2019-08-17T12:33:35Z</time>
      </trkpt>
      <trkpt lat="47.29722" lon="6.22712">
        <ele>256</ele>
        <time>2019-08-17T12:33:36Z</time>
      </trkpt>
      <trkpt lat="47.29725" lon="6.22706">
        <ele>256.1</ele>
        <time>2019-08-17T12:33:37Z</time>
      </trkpt>
      <trkpt lat="47.29726" lon="6.227">
        <ele>256.1</ele>
        <time>2019-08-17T12:33:38Z</time>
      </trkpt>
      <trkpt lat="47.29728" lon="6.22694">
        <ele>256.2</ele>
        <time>2019-08-17T12:33:39Z</time>
      </trkpt>
      <trkpt lat="47.2973" lon="6.22687">
        <ele>256.2</ele>
        <time>2019-08-17T12:33:40Z</time>
      </trkpt>
      <trkpt lat="47.29733" lon="6.22681">
        <ele>256.3</ele>
        <time>2019-08-17T12:33:41Z</time>
      </trkpt>
      <trkpt lat="47.29735" lon="6.22675">
        <ele>256.4</ele>
        <time>2019-08-17T12:33:42Z</time>
      </trkpt>
      <trkpt lat="47.29738" lon="6.2267">
        <ele>256.5</ele>
        <time>2019-08-17T12:33:43Z</time>
      </trkpt>
      <trkpt lat="47.2974" lon="6.22664">
        <ele>256.7</ele>
        <time>2019-08-17T12:33:44Z</time>
      </trkpt>
      <trkpt lat="47.29743" lon="6.22658">
        <ele>256.9</ele>
        <time>2019-08-17T12:33:45Z</time>
      </trkpt>
      <trkpt lat="47.29745" lon="6.22652">
        <ele>257</ele>
        <time>2019-08-17T12:33:46Z</time>
      </trkpt>
      <trkpt lat="47.29747" lon="6.22645">
        <ele>257.3</ele>
        <time>2019-08-17T12:33:47Z</time>
      </trkpt>
      <trkpt lat="47.29749" lon="6.22639">
        <ele>257.5</ele>
        <time>2019-08-17T12:33:48Z</time>
      </trkpt>
      <trkpt lat="47.29751" lon="6.22633">
        <ele>257.6</ele>
        <time>2019-08-17T12:33:49Z</time>
      </trkpt>
      <trkpt lat="47.29753" lon="6.22628">
        <ele>257.8</ele>
        <time>2019-08-17T12:33:50Z</time>
      </trkpt>
      <trkpt lat="47.29755" lon="6.22622">
        <ele>257.9</ele>
        <time>2019-08-17T12:33:51Z</time>
      </trkpt>
      <trkpt lat="47.29758" lon="6.22616">
        <ele>258</ele>
        <time>2019-08-17T12:33:52Z</time>
      </trkpt>
      <trkpt lat="47.29761" lon="6.2261">
        <ele>258.2</ele>
        <time>2019-08-17T12:33:53Z</time>
      </trkpt>
      <trkpt lat="47.29763" lon="6.22605">
        <ele>258.2</ele>
        <time>2019-08-17T12:33:54Z</time>
      </trkpt>
      <trkpt lat="47.29765" lon="6.22597">
        <ele>258.3</ele>
        <time>2019-08-17T12:33:55Z</time>
      </trkpt>
      <trkpt lat="47.29767" lon="6.2259">
        <ele>258.3</ele>
        <time>2019-08-17T12:33:56Z</time>
      </trkpt>
      <trkpt lat="47.29769" lon="6.22583">
        <ele>258.3</ele>
        <time>2019-08-17T12:33:57Z</time>
      </trkpt>
      <trkpt lat="47.29771" lon="6.22576">
        <ele>258.3</ele>
        <time>2019-08-17T12:33:58Z</time>
      </trkpt>
      <trkpt lat="47.29772" lon="6.22571">
        <ele>258.3</ele>
        <time>2019-08-17T12:33:59Z</time>
      </trkpt>
      <trkpt lat="47.29773" lon="6.22564">
        <ele>258.3</ele>
        <time>2019-08-17T12:34:00Z</time>
      </trkpt>
      <trkpt lat="47.29775" lon="6.22559">
        <ele>258.3</ele>
        <time>2019-08-17T12:34:01Z</time>
      </trkpt>
      <trkpt lat="47.29776" lon="6.22553">
        <ele>258.2</ele>
        <time>2019-08-17T12:34:02Z</time>
      </trkpt>
      <trkpt lat="47.29777" lon="6.22547">
        <ele>258.2</ele>
        <time>2019-08-17T12:34:03Z</time>
      </trkpt>
      <trkpt lat="47.29778" lon="6.2254">
        <ele>258.1</ele>
        <time>2019-08-17T12:34:04Z</time>
      </trkpt>
      <trkpt lat="47.29779" lon="6.22534">
        <ele>258.1</ele>
        <time>2019-08-17T12:34:05Z</time>
      </trkpt>
      <trkpt lat="47.29781" lon="6.22527">
        <ele>258</ele>
        <time>2019-08-17T12:34:06Z</time>
      </trkpt>
      <trkpt lat="47.29782" lon="6.2252">
        <ele>258</ele>
        <time>2019-08-17T12:34:07Z</time>
      </trkpt>
      <trkpt lat="47.29784" lon="6.22512">
        <ele>257.9</ele>
        <time>2019-08-17T12:34:08Z</time>
      </trkpt>
      <trkpt lat="47.29787" lon="6.22505">
        <ele>257.9</ele>
        <time>2019-08-17T12:34:09Z</time>
      </trkpt>
      <trkpt lat="47.29789" lon="6.22497">
        <ele>257.9</ele>
        <time>2019-08-17T12:34:10Z</time>
      </trkpt>
      <trkpt lat="47.29791" lon="6.2249">
        <ele>257.9</ele>
        <time>2019-08-17T12:34:11Z</time>
      </trkpt>
      <trkpt lat="47.29793" lon="6.22482">
        <ele>257.9</ele>
        <time>2019-08-17T12:34:12Z</time>
      </trkpt>
      <trkpt lat="47.29795" lon="6.22473">
        <ele>258</ele>
        <time>2019-08-17T12:34:13Z</time>
      </trkpt>
      <trkpt lat="47.29799" lon="6.22464">
        <ele>258.1</ele>
        <time>2019-08-17T12:34:14Z</time>
      </trkpt>
      <trkpt lat="47.29802" lon="6.22455">
        <ele>258.1</ele>
        <time>2019-08-17T12:34:15Z</time>
      </trkpt>
      <trkpt lat="47.29805" lon="6.22447">
        <ele>258.2</ele>
        <time>2019-08-17T12:34:16Z</time>
      </trkpt>
      <trkpt lat="47.29808" lon="6.22439">
        <ele>258.3</ele>
        <time>2019-08-17T12:34:17Z</time>
      </trkpt>
      <trkpt lat="47.29809" lon="6.22431">
        <ele>258.4</ele>
        <time>2019-08-17T12:34:18Z</time>
      </trkpt>
      <trkpt lat="47.29812" lon="6.22424">
        <ele>258.6</ele>
        <time>2019-08-17T12:34:19Z</time>
      </trkpt>
      <trkpt lat="47.29815" lon="6.22416">
        <ele>258.7</ele>
        <time>2019-08-17T12:34:20Z</time>
      </trkpt>
      <trkpt lat="47.29816" lon="6.22409">
        <ele>258.8</ele>
        <time>2019-08-17T12:34:21Z</time>
      </trkpt>
      <trkpt lat="47.29819" lon="6.22402">
        <ele>258.9</ele>
        <time>2019-08-17T12:34:22Z</time>
      </trkpt>
      <trkpt lat="47.29821" lon="6.22395">
        <ele>259</ele>
        <time>2019-08-17T12:34:23Z</time>
      </trkpt>
      <trkpt lat="47.29824" lon="6.22387">
        <ele>259.1</ele>
        <time>2019-08-17T12:34:24Z</time>
      </trkpt>
      <trkpt lat="47.29826" lon="6.22381">
        <ele>259.2</ele>
        <time>2019-08-17T12:34:25Z</time>
      </trkpt>
      <trkpt lat="47.29828" lon="6.22374">
        <ele>259.2</ele>
        <time>2019-08-17T12:34:26Z</time>
      </trkpt>
      <trkpt lat="47.29829" lon="6.22369">
        <ele>259.2</ele>
        <time>2019-08-17T12:34:27Z</time>
      </trkpt>
      <trkpt lat="47.29831" lon="6.22361">
        <ele>259.2</ele>
        <time>2019-08-17T12:34:28Z</time>
      </trkpt>
      <trkpt lat="47.29832" lon="6.22355">
        <ele>259.2</ele>
        <time>2019-08-17T12:34:29Z</time>
      </trkpt>
      <trkpt lat="47.29834" lon="6.22348">
        <ele>259.2</ele>
        <time>2019-08-17T12:34:30Z</time>
      </trkpt>
      <trkpt lat="47.29836" lon="6.22342">
        <ele>259.2</ele>
        <time>2019-08-17T12:34:31Z</time>
      </trkpt>
      <trkpt lat="47.29837" lon="6.22336">
        <ele>259.1</ele>
        <time>2019-08-17T12:34:32Z</time>
      </trkpt>
      <trkpt lat="47.29838" lon="6.22329">
        <ele>259.1</ele>
        <time>2019-08-17T12:34:33Z</time>
      </trkpt>
      <trkpt lat="47.2984" lon="6.22323">
        <ele>259.1</ele>
        <time>2019-08-17T12:34:34Z</time>
      </trkpt>
      <trkpt lat="47.29841" lon="6.22318">
        <ele>259</ele>
        <time>2019-08-17T12:34:35Z</time>
      </trkpt>
      <trkpt lat="47.29843" lon="6.22312">
        <ele>259</ele>
        <time>2019-08-17T12:34:36Z</time>
      </trkpt>
      <trkpt lat="47.29845" lon="6.22306">
        <ele>258.9</ele>
        <time>2019-08-17T12:34:37Z</time>
      </trkpt>
      <trkpt lat="47.29847" lon="6.22299">
        <ele>258.9</ele>
        <time>2019-08-17T12:34:38Z</time>
      </trkpt>
      <trkpt lat="47.29849" lon="6.22292">
        <ele>258.8</ele>
        <time>2019-08-17T12:34:39Z</time>
      </trkpt>
      <trkpt lat="47.29851" lon="6.22285">
        <ele>258.7</ele>
        <time>2019-08-17T12:34:40Z</time>
      </trkpt>
      <trkpt lat="47.29853" lon="6.22278">
        <ele>258.7</ele>
        <time>2019-08-17T12:34:41Z</time>
      </trkpt>
      <trkpt lat="47.29854" lon="6.22271">
        <ele>258.6</ele>
        <time>2019-08-17T12:34:42Z</time>
      </trkpt>
      <trkpt lat="47.29855" lon="6.22264">
        <ele>258.6</ele>
        <time>2019-08-17T12:34:43Z</time>
      </trkpt>
      <trkpt lat="47.29858" lon="6.22258">
        <ele>258.6</ele>
        <time>2019-08-17T12:34:44Z</time>
      </trkpt>
      <trkpt lat="47.2986" lon="6.22252">
        <ele>258.6</ele>
        <time>2019-08-17T12:34:45Z</time>
      </trkpt>
      <trkpt lat="47.29862" lon="6.22245">
        <ele>258.6</ele>
        <time>2019-08-17T12:34:46Z</time>
      </trkpt>
      <trkpt lat="47.29864" lon="6.22237">
        <ele>258.6</ele>
        <time>2019-08-17T12:34:47Z</time>
      </trkpt>
      <trkpt lat="47.29866" lon="6.22231">
        <ele>258.6</ele>
        <time>2019-08-17T12:34:48Z</time>
      </trkpt>
      <trkpt lat="47.29867" lon="6.22224">
        <ele>258.6</ele>
        <time>2019-08-17T12:34:49Z</time>
      </trkpt>
      <trkpt lat="47.29868" lon="6.22217">
        <ele>258.7</ele>
        <time>2019-08-17T12:34:50Z</time>
      </trkpt>
      <trkpt lat="47.29871" lon="6.2221">
        <ele>258.7</ele>
        <time>2019-08-17T12:34:51Z</time>
      </trkpt>
      <trkpt lat="47.29872" lon="6.22203">
        <ele>258.7</ele>
        <time>2019-08-17T12:34:52Z</time>
      </trkpt>
      <trkpt lat="47.29873" lon="6.22197">
        <ele>258.7</ele>
        <time>2019-08-17T12:34:53Z</time>
      </trkpt>
      <trkpt lat="47.29874" lon="6.22191">
        <ele>258.8</ele>
        <time>2019-08-17T12:34:54Z</time>
      </trkpt>
      <trkpt lat="47.29876" lon="6.22185">
        <ele>258.8</ele>
        <time>2019-08-17T12:34:55Z</time>
      </trkpt>
      <trkpt lat="47.29878" lon="6.22179">
        <ele>258.8</ele>
        <time>2019-08-17T12:34:56Z</time>
      </trkpt>
      <trkpt lat="47.29879" lon="6.22173">
        <ele>258.9</ele>
        <time>2019-08-17T12:34:57Z</time>
      </trkpt>
      <trkpt lat="47.29881" lon="6.22168">
        <ele>258.9</ele>
        <time>2019-08-17T12:34:58Z</time>
      </trkpt>
      <trkpt lat="47.29883" lon="6.22163">
        <ele>258.9</ele>
        <time>2019-08-17T12:34:59Z</time>
      </trkpt>
      <trkpt lat="47.29885" lon="6.22157">
        <ele>259</ele>
        <time>2019-08-17T12:35:00Z</time>
      </trkpt>
      <trkpt lat="47.29887" lon="6.22153">
        <ele>259</ele>
        <time>2019-08-17T12:35:01Z</time>
      </trkpt>
      <trkpt lat="47.29891" lon="6.2215">
        <ele>259</ele>
        <time>2019-08-17T12:35:02Z</time>
      </trkpt>
      <trkpt lat="47.29894" lon="6.22149">
        <ele>259.1</ele>
        <time>2019-08-17T12:35:03Z</time>
      </trkpt>
      <trkpt lat="47.29896" lon="6.22146">
        <ele>259.1</ele>
        <time>2019-08-17T12:35:04Z</time>
      </trkpt>
      <trkpt lat="47.29898" lon="6.2214">
        <ele>259.1</ele>
        <time>2019-08-17T12:35:05Z</time>
      </trkpt>
      <trkpt lat="47.29899" lon="6.22136">
        <ele>259.1</ele>
        <time>2019-08-17T12:35:06Z</time>
      </trkpt>
      <trkpt lat="47.29901" lon="6.22131">
        <ele>259.1</ele>
        <time>2019-08-17T12:35:07Z</time>
      </trkpt>
      <trkpt lat="47.29904" lon="6.22126">
        <ele>259.1</ele>
        <time>2019-08-17T12:35:08Z</time>
      </trkpt>
      <trkpt lat="47.29906" lon="6.22122">
        <ele>259.1</ele>
        <time>2019-08-17T12:35:09Z</time>
      </trkpt>
      <trkpt lat="47.29909" lon="6.22119">
        <ele>259.1</ele>
        <time>2019-08-17T12:35:10Z</time>
      </trkpt>
      <trkpt lat="47.29912" lon="6.22114">
        <ele>259.1</ele>
        <time>2019-08-17T12:35:11Z</time>
      </trkpt>
      <trkpt lat="47.29914" lon="6.22108">
        <ele>259.1</ele>
        <time>2019-08-17T12:35:12Z</time>
      </trkpt>
      <trkpt lat="47.29917" lon="6.22102">
        <ele>259.1</ele>
        <time>2019-08-17T12:35:13Z</time>
      </trkpt>
      <trkpt lat="47.2992" lon="6.22097">
        <ele>259.1</ele>
        <time>2019-08-17T12:35:14Z</time>
      </trkpt>
      <trkpt lat="47.29923" lon="6.22092">
        <ele>259</ele>
        <time>2019-08-17T12:35:15Z</time>
      </trkpt>
      <trkpt lat="47.29926" lon="6.22085">
        <ele>259</ele>
        <time>2019-08-17T12:35:16Z</time>
      </trkpt>
      <trkpt lat="47.2993" lon="6.2208">
        <ele>259</ele>
        <time>2019-08-17T12:35:17Z</time>
      </trkpt>
      <trkpt lat="47.29934" lon="6.22074">
        <ele>259</ele>
        <time>2019-08-17T12:35:18Z</time>
      </trkpt>
      <trkpt lat="47.29938" lon="6.22068">
        <ele>259</ele>
        <time>2019-08-17T12:35:19Z</time>
      </trkpt>
      <trkpt lat="47.29941" lon="6.22063">
        <ele>259</ele>
        <time>2019-08-17T12:35:20Z</time>
      </trkpt>
      <trkpt lat="47.29944" lon="6.22057">
        <ele>258.9</ele>
        <time>2019-08-17T12:35:21Z</time>
      </trkpt>
      <trkpt lat="47.29947" lon="6.22052">
        <ele>258.9</ele>
        <time>2019-08-17T12:35:22Z</time>
      </trkpt>
      <trkpt lat="47.29949" lon="6.22047">
        <ele>258.9</ele>
        <time>2019-08-17T12:35:23Z</time>
      </trkpt>
      <trkpt lat="47.29952" lon="6.22043">
        <ele>258.9</ele>
        <time>2019-08-17T12:35:24Z</time>
      </trkpt>
      <trkpt lat="47.29954" lon="6.22038">
        <ele>258.9</ele>
        <time>2019-08-17T12:35:25Z</time>
      </trkpt>
      <trkpt lat="47.29956" lon="6.22034">
        <ele>258.9</ele>
        <time>2019-08-17T12:35:26Z</time>
      </trkpt>
      <trkpt lat="47.2996" lon="6.22029">
        <ele>258.9</ele>
        <time>2019-08-17T12:35:27Z</time>
      </trkpt>
      <trkpt lat="47.29963" lon="6.22024">
        <ele>258.9</ele>
        <time>2019-08-17T12:35:28Z</time>
      </trkpt>
      <trkpt lat="47.29965" lon="6.22019">
        <ele>258.9</ele>
        <time>2019-08-17T12:35:29Z</time>
      </trkpt>
      <trkpt lat="47.29968" lon="6.22015">
        <ele>258.9</ele>
        <time>2019-08-17T12:35:30Z</time>
      </trkpt>
      <trkpt lat="47.2997" lon="6.22011">
        <ele>258.9</ele>
        <time>2019-08-17T12:35:31Z</time>
      </trkpt>
      <trkpt lat="47.29972" lon="6.22008">
        <ele>258.9</ele>
        <time>2019-08-17T12:35:32Z</time>
      </trkpt>
      <trkpt lat="47.29974" lon="6.22005">
        <ele>258.9</ele>
        <time>2019-08-17T12:35:33Z</time>
      </trkpt>
      <trkpt lat="47.29977" lon="6.22003">
        <ele>258.9</ele>
        <time>2019-08-17T12:35:34Z</time>
      </trkpt>
      <trkpt lat="47.2998" lon="6.22">
        <ele>258.9</ele>
        <time>2019-08-17T12:35:35Z</time>
      </trkpt>
      <trkpt lat="47.29984" lon="6.21999">
        <ele>258.9</ele>
        <time>2019-08-17T12:35:36Z</time>
      </trkpt>
      <trkpt lat="47.29989" lon="6.21998">
        <ele>258.9</ele>
        <time>2019-08-17T12:35:38Z</time>
      </trkpt>
      <trkpt lat="47.29992" lon="6.21998">
        <ele>258.9</ele>
        <time>2019-08-17T12:35:39Z</time>
      </trkpt>
      <trkpt lat="47.29997" lon="6.21991">
        <ele>258.9</ele>
        <time>2019-08-17T12:35:41Z</time>
      </trkpt>
      <trkpt lat="47.3" lon="6.21986">
        <ele>258.9</ele>
        <time>2019-08-17T12:35:42Z</time>
      </trkpt>
      <trkpt lat="47.30002" lon="6.21981">
        <ele>258.9</ele>
        <time>2019-08-17T12:35:43Z</time>
      </trkpt>
      <trkpt lat="47.30005" lon="6.21976">
        <ele>258.9</ele>
        <time>2019-08-17T12:35:44Z</time>
      </trkpt>
      <trkpt lat="47.30008" lon="6.2197">
        <ele>258.9</ele>
        <time>2019-08-17T12:35:45Z</time>
      </trkpt>
      <trkpt lat="47.30011" lon="6.21965">
        <ele>258.9</ele>
        <time>2019-08-17T12:35:46Z</time>
      </trkpt>
      <trkpt lat="47.30015" lon="6.2196">
        <ele>258.9</ele>
        <time>2019-08-17T12:35:47Z</time>
      </trkpt>
      <trkpt lat="47.30018" lon="6.21955">
        <ele>258.9</ele>
        <time>2019-08-17T12:35:48Z</time>
      </trkpt>
      <trkpt lat="47.30021" lon="6.2195">
        <ele>258.8</ele>
        <time>2019-08-17T12:35:49Z</time>
      </trkpt>
      <trkpt lat="47.30024" lon="6.21944">
        <ele>258.8</ele>
        <time>2019-08-17T12:35:50Z</time>
      </trkpt>
      <trkpt lat="47.30028" lon="6.21938">
        <ele>258.8</ele>
        <time>2019-08-17T12:35:51Z</time>
      </trkpt>
      <trkpt lat="47.3003" lon="6.21932">
        <ele>258.8</ele>
        <time>2019-08-17T12:35:52Z</time>
      </trkpt>
      <trkpt lat="47.30032" lon="6.21927">
        <ele>258.7</ele>
        <time>2019-08-17T12:35:53Z</time>
      </trkpt>
      <trkpt lat="47.30035" lon="6.21921">
        <ele>258.7</ele>
        <time>2019-08-17T12:35:54Z</time>
      </trkpt>
      <trkpt lat="47.30038" lon="6.21917">
        <ele>258.7</ele>
        <time>2019-08-17T12:35:55Z</time>
      </trkpt>
      <trkpt lat="47.3004" lon="6.21913">
        <ele>258.7</ele>
        <time>2019-08-17T12:35:56Z</time>
      </trkpt>
      <trkpt lat="47.30043" lon="6.21909">
        <ele>258.6</ele>
        <time>2019-08-17T12:35:57Z</time>
      </trkpt>
      <trkpt lat="47.30046" lon="6.21905">
        <ele>258.6</ele>
        <time>2019-08-17T12:35:58Z</time>
      </trkpt>
      <trkpt lat="47.30048" lon="6.21901">
        <ele>258.6</ele>
        <time>2019-08-17T12:35:59Z</time>
      </trkpt>
      <trkpt lat="47.30051" lon="6.21897">
        <ele>258.6</ele>
        <time>2019-08-17T12:36:00Z</time>
      </trkpt>
      <trkpt lat="47.30054" lon="6.21892">
        <ele>258.6</ele>
        <time>2019-08-17T12:36:01Z</time>
      </trkpt>
      <trkpt lat="47.30057" lon="6.21888">
        <ele>258.5</ele>
        <time>2019-08-17T12:36:02Z</time>
      </trkpt>
      <trkpt lat="47.3006" lon="6.21883">
        <ele>258.5</ele>
        <time>2019-08-17T12:36:03Z</time>
      </trkpt>
      <trkpt lat="47.30063" lon="6.21877">
        <ele>258.5</ele>
        <time>2019-08-17T12:36:04Z</time>
      </trkpt>
      <trkpt lat="47.30066" lon="6.21871">
        <ele>258.5</ele>
        <time>2019-08-17T12:36:05Z</time>
      </trkpt>
      <trkpt lat="47.30069" lon="6.21865">
        <ele>258.5</ele>
        <time>2019-08-17T12:36:06Z</time>
      </trkpt>
      <trkpt lat="47.30072" lon="6.2186">
        <ele>258.5</ele>
        <time>2019-08-17T12:36:07Z</time>
      </trkpt>
      <trkpt lat="47.30076" lon="6.21854">
        <ele>258.5</ele>
        <time>2019-08-17T12:36:08Z</time>
      </trkpt>
      <trkpt lat="47.30079" lon="6.21849">
        <ele>258.5</ele>
        <time>2019-08-17T12:36:09Z</time>
      </trkpt>
      <trkpt lat="47.30082" lon="6.21844">
        <ele>258.5</ele>
        <time>2019-08-17T12:36:10Z</time>
      </trkpt>
      <trkpt lat="47.30085" lon="6.21838">
        <ele>258.5</ele>
        <time>2019-08-17T12:36:11Z</time>
      </trkpt>
      <trkpt lat="47.30089" lon="6.21832">
        <ele>258.5</ele>
        <time>2019-08-17T12:36:12Z</time>
      </trkpt>
      <trkpt lat="47.30092" lon="6.21825">
        <ele>258.5</ele>
        <time>2019-08-17T12:36:13Z</time>
      </trkpt>
      <trkpt lat="47.30095" lon="6.21818">
        <ele>258.5</ele>
        <time>2019-08-17T12:36:14Z</time>
      </trkpt>
      <trkpt lat="47.30098" lon="6.21812">
        <ele>258.5</ele>
        <time>2019-08-17T12:36:15Z</time>
      </trkpt>
      <trkpt lat="47.30102" lon="6.21806">
        <ele>258.5</ele>
        <time>2019-08-17T12:36:16Z</time>
      </trkpt>
      <trkpt lat="47.30105" lon="6.218">
        <ele>258.5</ele>
        <time>2019-08-17T12:36:17Z</time>
      </trkpt>
      <trkpt lat="47.30107" lon="6.21794">
        <ele>258.5</ele>
        <time>2019-08-17T12:36:18Z</time>
      </trkpt>
      <trkpt lat="47.3011" lon="6.21789">
        <ele>258.5</ele>
        <time>2019-08-17T12:36:19Z</time>
      </trkpt>
      <trkpt lat="47.30113" lon="6.21782">
        <ele>258.5</ele>
        <time>2019-08-17T12:36:20Z</time>
      </trkpt>
      <trkpt lat="47.30116" lon="6.21776">
        <ele>258.5</ele>
        <time>2019-08-17T12:36:21Z</time>
      </trkpt>
      <trkpt lat="47.30118" lon="6.21771">
        <ele>258.5</ele>
        <time>2019-08-17T12:36:22Z</time>
      </trkpt>
      <trkpt lat="47.30121" lon="6.21765">
        <ele>258.5</ele>
        <time>2019-08-17T12:36:23Z</time>
      </trkpt>
      <trkpt lat="47.30124" lon="6.2176">
        <ele>258.5</ele>
        <time>2019-08-17T12:36:24Z</time>
      </trkpt>
      <trkpt lat="47.30127" lon="6.21754">
        <ele>258.5</ele>
        <time>2019-08-17T12:36:25Z</time>
      </trkpt>
      <trkpt lat="47.30129" lon="6.21749">
        <ele>258.5</ele>
        <time>2019-08-17T12:36:26Z</time>
      </trkpt>
      <trkpt lat="47.30132" lon="6.21744">
        <ele>258.5</ele>
        <time>2019-08-17T12:36:27Z</time>
      </trkpt>
      <trkpt lat="47.30134" lon="6.21739">
        <ele>258.5</ele>
        <time>2019-08-17T12:36:28Z</time>
      </trkpt>
      <trkpt lat="47.30138" lon="6.21734">
        <ele>258.5</ele>
        <time>2019-08-17T12:36:29Z</time>
      </trkpt>
      <trkpt lat="47.30141" lon="6.2173">
        <ele>258.5</ele>
        <time>2019-08-17T12:36:30Z</time>
      </trkpt>
      <trkpt lat="47.30144" lon="6.21725">
        <ele>258.5</ele>
        <time>2019-08-17T12:36:31Z</time>
      </trkpt>
      <trkpt lat="47.30147" lon="6.21719">
        <ele>258.5</ele>
        <time>2019-08-17T12:36:32Z</time>
      </trkpt>
      <trkpt lat="47.3015" lon="6.21715">
        <ele>258.5</ele>
        <time>2019-08-17T12:36:33Z</time>
      </trkpt>
      <trkpt lat="47.30153" lon="6.2171">
        <ele>258.5</ele>
        <time>2019-08-17T12:36:34Z</time>
      </trkpt>
      <trkpt lat="47.30157" lon="6.21705">
        <ele>258.5</ele>
        <time>2019-08-17T12:36:35Z</time>
      </trkpt>
      <trkpt lat="47.3016" lon="6.21699">
        <ele>258.5</ele>
        <time>2019-08-17T12:36:36Z</time>
      </trkpt>
      <trkpt lat="47.30164" lon="6.21695">
        <ele>258.5</ele>
        <time>2019-08-17T12:36:37Z</time>
      </trkpt>
      <trkpt lat="47.30167" lon="6.21691">
        <ele>258.5</ele>
        <time>2019-08-17T12:36:38Z</time>
      </trkpt>
      <trkpt lat="47.30171" lon="6.21686">
        <ele>258.4</ele>
        <time>2019-08-17T12:36:39Z</time>
      </trkpt>
      <trkpt lat="47.30175" lon="6.21682">
        <ele>258.4</ele>
        <time>2019-08-17T12:36:40Z</time>
      </trkpt>
      <trkpt lat="47.30179" lon="6.21677">
        <ele>258.4</ele>
        <time>2019-08-17T12:36:41Z</time>
      </trkpt>
      <trkpt lat="47.30182" lon="6.21672">
        <ele>258.4</ele>
        <time>2019-08-17T12:36:42Z</time>
      </trkpt>
      <trkpt lat="47.30186" lon="6.21666">
        <ele>258.4</ele>
        <time>2019-08-17T12:36:43Z</time>
      </trkpt>
      <trkpt lat="47.3019" lon="6.21661">
        <ele>258.4</ele>
        <time>2019-08-17T12:36:44Z</time>
      </trkpt>
      <trkpt lat="47.30194" lon="6.21655">
        <ele>258.3</ele>
        <time>2019-08-17T12:36:45Z</time>
      </trkpt>
      <trkpt lat="47.30197" lon="6.2165">
        <ele>258.3</ele>
        <time>2019-08-17T12:36:46Z</time>
      </trkpt>
      <trkpt lat="47.30201" lon="6.21644">
        <ele>258.3</ele>
        <time>2019-08-17T12:36:47Z</time>
      </trkpt>
      <trkpt lat="47.30206" lon="6.2164">
        <ele>258.2</ele>
        <time>2019-08-17T12:36:48Z</time>
      </trkpt>
      <trkpt lat="47.3021" lon="6.21636">
        <ele>258.2</ele>
        <time>2019-08-17T12:36:49Z</time>
      </trkpt>
      <trkpt lat="47.30215" lon="6.21631">
        <ele>258.1</ele>
        <time>2019-08-17T12:36:50Z</time>
      </trkpt>
      <trkpt lat="47.30218" lon="6.21625">
        <ele>258.1</ele>
        <time>2019-08-17T12:36:51Z</time>
      </trkpt>
      <trkpt lat="47.30223" lon="6.2162">
        <ele>258.1</ele>
        <time>2019-08-17T12:36:52Z</time>
      </trkpt>
      <trkpt lat="47.30227" lon="6.21615">
        <ele>258</ele>
        <time>2019-08-17T12:36:53Z</time>
      </trkpt>
      <trkpt lat="47.30231" lon="6.2161">
        <ele>258</ele>
        <time>2019-08-17T12:36:54Z</time>
      </trkpt>
      <trkpt lat="47.30235" lon="6.21604">
        <ele>258</ele>
        <time>2019-08-17T12:36:55Z</time>
      </trkpt>
      <trkpt lat="47.30239" lon="6.21598">
        <ele>258</ele>
        <time>2019-08-17T12:36:56Z</time>
      </trkpt>
      <trkpt lat="47.30244" lon="6.21593">
        <ele>257.9</ele>
        <time>2019-08-17T12:36:57Z</time>
      </trkpt>
      <trkpt lat="47.30248" lon="6.21587">
        <ele>257.9</ele>
        <time>2019-08-17T12:36:58Z</time>
      </trkpt>
      <trkpt lat="47.30252" lon="6.21581">
        <ele>257.9</ele>
        <time>2019-08-17T12:36:59Z</time>
      </trkpt>
      <trkpt lat="47.30256" lon="6.21576">
        <ele>257.9</ele>
        <time>2019-08-17T12:37:00Z</time>
      </trkpt>
      <trkpt lat="47.3026" lon="6.2157">
        <ele>257.9</ele>
        <time>2019-08-17T12:37:01Z</time>
      </trkpt>
      <trkpt lat="47.30264" lon="6.21563">
        <ele>257.9</ele>
        <time>2019-08-17T12:37:02Z</time>
      </trkpt>
      <trkpt lat="47.30268" lon="6.21557">
        <ele>257.9</ele>
        <time>2019-08-17T12:37:03Z</time>
      </trkpt>
      <trkpt lat="47.30272" lon="6.21551">
        <ele>257.8</ele>
        <time>2019-08-17T12:37:04Z</time>
      </trkpt>
      <trkpt lat="47.30277" lon="6.21545">
        <ele>257.8</ele>
        <time>2019-08-17T12:37:05Z</time>
      </trkpt>
      <trkpt lat="47.30281" lon="6.21539">
        <ele>257.8</ele>
        <time>2019-08-17T12:37:06Z</time>
      </trkpt>
      <trkpt lat="47.30286" lon="6.21533">
        <ele>257.8</ele>
        <time>2019-08-17T12:37:07Z</time>
      </trkpt>
      <trkpt lat="47.3029" lon="6.21527">
        <ele>257.8</ele>
        <time>2019-08-17T12:37:08Z</time>
      </trkpt>
      <trkpt lat="47.30294" lon="6.2152">
        <ele>257.7</ele>
        <time>2019-08-17T12:37:09Z</time>
      </trkpt>
      <trkpt lat="47.30299" lon="6.21514">
        <ele>257.7</ele>
        <time>2019-08-17T12:37:10Z</time>
      </trkpt>
      <trkpt lat="47.30303" lon="6.21508">
        <ele>257.7</ele>
        <time>2019-08-17T12:37:11Z</time>
      </trkpt>
      <trkpt lat="47.30306" lon="6.21502">
        <ele>257.7</ele>
        <time>2019-08-17T12:37:12Z</time>
      </trkpt>
      <trkpt lat="47.3031" lon="6.21495">
        <ele>257.7</ele>
        <time>2019-08-17T12:37:13Z</time>
      </trkpt>
      <trkpt lat="47.30313" lon="6.21488">
        <ele>257.7</ele>
        <time>2019-08-17T12:37:14Z</time>
      </trkpt>
      <trkpt lat="47.30317" lon="6.21481">
        <ele>257.7</ele>
        <time>2019-08-17T12:37:15Z</time>
      </trkpt>
      <trkpt lat="47.3032" lon="6.21473">
        <ele>257.7</ele>
        <time>2019-08-17T12:37:16Z</time>
      </trkpt>
      <trkpt lat="47.30323" lon="6.21466">
        <ele>257.7</ele>
        <time>2019-08-17T12:37:17Z</time>
      </trkpt>
      <trkpt lat="47.30327" lon="6.21459">
        <ele>257.7</ele>
        <time>2019-08-17T12:37:18Z</time>
      </trkpt>
      <trkpt lat="47.30331" lon="6.21451">
        <ele>257.7</ele>
        <time>2019-08-17T12:37:19Z</time>
      </trkpt>
      <trkpt lat="47.30335" lon="6.21443">
        <ele>257.6</ele>
        <time>2019-08-17T12:37:20Z</time>
      </trkpt>
      <trkpt lat="47.30338" lon="6.21436">
        <ele>257.6</ele>
        <time>2019-08-17T12:37:21Z</time>
      </trkpt>
      <trkpt lat="47.30342" lon="6.21429">
        <ele>257.6</ele>
        <time>2019-08-17T12:37:22Z</time>
      </trkpt>
      <trkpt lat="47.30344" lon="6.21421">
        <ele>257.5</ele>
        <time>2019-08-17T12:37:23Z</time>
      </trkpt>
      <trkpt lat="47.30346" lon="6.21413">
        <ele>257.5</ele>
        <time>2019-08-17T12:37:24Z</time>
      </trkpt>
      <trkpt lat="47.30348" lon="6.21402">
        <ele>257.5</ele>
        <time>2019-08-17T12:37:25Z</time>
      </trkpt>
      <trkpt lat="47.3035" lon="6.21392">
        <ele>257.5</ele>
        <time>2019-08-17T12:37:26Z</time>
      </trkpt>
      <trkpt lat="47.30352" lon="6.21382">
        <ele>257.4</ele>
        <time>2019-08-17T12:37:27Z</time>
      </trkpt>
      <trkpt lat="47.30354" lon="6.21373">
        <ele>257.4</ele>
        <time>2019-08-17T12:37:28Z</time>
      </trkpt>
      <trkpt lat="47.30355" lon="6.21363">
        <ele>257.4</ele>
        <time>2019-08-17T12:37:29Z</time>
      </trkpt>
      <trkpt lat="47.30356" lon="6.21356">
        <ele>257.3</ele>
        <time>2019-08-17T12:37:30Z</time>
      </trkpt>
      <trkpt lat="47.30358" lon="6.21348">
        <ele>257.3</ele>
        <time>2019-08-17T12:37:31Z</time>
      </trkpt>
      <trkpt lat="47.30359" lon="6.2134">
        <ele>257.3</ele>
        <time>2019-08-17T12:37:32Z</time>
      </trkpt>
      <trkpt lat="47.30361" lon="6.21333">
        <ele>257.3</ele>
        <time>2019-08-17T12:37:33Z</time>
      </trkpt>
      <trkpt lat="47.30363" lon="6.21326">
        <ele>257.3</ele>
        <time>2019-08-17T12:37:34Z</time>
      </trkpt>
      <trkpt lat="47.30364" lon="6.21319">
        <ele>257.2</ele>
        <time>2019-08-17T12:37:35Z</time>
      </trkpt>
      <trkpt lat="47.30366" lon="6.21311">
        <ele>257.2</ele>
        <time>2019-08-17T12:37:36Z</time>
      </trkpt>
      <trkpt lat="47.30368" lon="6.21304">
        <ele>257.2</ele>
        <time>2019-08-17T12:37:37Z</time>
      </trkpt>
      <trkpt lat="47.30369" lon="6.21296">
        <ele>257.1</ele>
        <time>2019-08-17T12:37:38Z</time>
      </trkpt>
      <trkpt lat="47.3037" lon="6.21288">
        <ele>257.1</ele>
        <time>2019-08-17T12:37:39Z</time>
      </trkpt>
      <trkpt lat="47.30372" lon="6.21279">
        <ele>257.1</ele>
        <time>2019-08-17T12:37:40Z</time>
      </trkpt>
      <trkpt lat="47.30374" lon="6.21271">
        <ele>257.1</ele>
        <time>2019-08-17T12:37:41Z</time>
      </trkpt>
      <trkpt lat="47.30376" lon="6.21262">
        <ele>257</ele>
        <time>2019-08-17T12:37:42Z</time>
      </trkpt>
      <trkpt lat="47.30378" lon="6.21253">
        <ele>257</ele>
        <time>2019-08-17T12:37:43Z</time>
      </trkpt>
      <trkpt lat="47.3038" lon="6.21244">
        <ele>257</ele>
        <time>2019-08-17T12:37:44Z</time>
      </trkpt>
      <trkpt lat="47.30381" lon="6.21235">
        <ele>256.9</ele>
        <time>2019-08-17T12:37:45Z</time>
      </trkpt>
      <trkpt lat="47.30382" lon="6.21227">
        <ele>256.9</ele>
        <time>2019-08-17T12:37:46Z</time>
      </trkpt>
      <trkpt lat="47.30383" lon="6.21218">
        <ele>256.9</ele>
        <time>2019-08-17T12:37:47Z</time>
      </trkpt>
      <trkpt lat="47.30385" lon="6.2121">
        <ele>256.9</ele>
        <time>2019-08-17T12:37:48Z</time>
      </trkpt>
      <trkpt lat="47.30387" lon="6.21202">
        <ele>256.9</ele>
        <time>2019-08-17T12:37:49Z</time>
      </trkpt>
      <trkpt lat="47.30388" lon="6.21195">
        <ele>256.9</ele>
        <time>2019-08-17T12:37:50Z</time>
      </trkpt>
      <trkpt lat="47.3039" lon="6.21188">
        <ele>256.9</ele>
        <time>2019-08-17T12:37:51Z</time>
      </trkpt>
      <trkpt lat="47.30392" lon="6.21181">
        <ele>256.9</ele>
        <time>2019-08-17T12:37:52Z</time>
      </trkpt>
      <trkpt lat="47.30395" lon="6.21174">
        <ele>256.9</ele>
        <time>2019-08-17T12:37:53Z</time>
      </trkpt>
      <trkpt lat="47.30396" lon="6.21167">
        <ele>256.9</ele>
        <time>2019-08-17T12:37:54Z</time>
      </trkpt>
      <trkpt lat="47.30397" lon="6.2116">
        <ele>256.9</ele>
        <time>2019-08-17T12:37:55Z</time>
      </trkpt>
      <trkpt lat="47.30397" lon="6.21154">
        <ele>256.9</ele>
        <time>2019-08-17T12:37:56Z</time>
      </trkpt>
      <trkpt lat="47.30397" lon="6.21146">
        <ele>256.9</ele>
        <time>2019-08-17T12:37:57Z</time>
      </trkpt>
      <trkpt lat="47.30398" lon="6.21138">
        <ele>256.9</ele>
        <time>2019-08-17T12:37:58Z</time>
      </trkpt>
      <trkpt lat="47.30399" lon="6.21131">
        <ele>256.9</ele>
        <time>2019-08-17T12:37:59Z</time>
      </trkpt>
      <trkpt lat="47.304" lon="6.21123">
        <ele>256.9</ele>
        <time>2019-08-17T12:38:00Z</time>
      </trkpt>
      <trkpt lat="47.30401" lon="6.21114">
        <ele>256.9</ele>
        <time>2019-08-17T12:38:01Z</time>
      </trkpt>
      <trkpt lat="47.30402" lon="6.21105">
        <ele>256.9</ele>
        <time>2019-08-17T12:38:02Z</time>
      </trkpt>
      <trkpt lat="47.30402" lon="6.21097">
        <ele>256.9</ele>
        <time>2019-08-17T12:38:03Z</time>
      </trkpt>
      <trkpt lat="47.30403" lon="6.21089">
        <ele>256.9</ele>
        <time>2019-08-17T12:38:04Z</time>
      </trkpt>
      <trkpt lat="47.30404" lon="6.21081">
        <ele>256.9</ele>
        <time>2019-08-17T12:38:05Z</time>
      </trkpt>
      <trkpt lat="47.30405" lon="6.21074">
        <ele>256.9</ele>
        <time>2019-08-17T12:38:06Z</time>
      </trkpt>
      <trkpt lat="47.30405" lon="6.21068">
        <ele>256.9</ele>
        <time>2019-08-17T12:38:07Z</time>
      </trkpt>
      <trkpt lat="47.30405" lon="6.21062">
        <ele>256.9</ele>
        <time>2019-08-17T12:38:08Z</time>
      </trkpt>
      <trkpt lat="47.30405" lon="6.21055">
        <ele>256.9</ele>
        <time>2019-08-17T12:38:09Z</time>
      </trkpt>
      <trkpt lat="47.30404" lon="6.21049">
        <ele>257.1</ele>
        <time>2019-08-17T12:38:10Z</time>
      </trkpt>
      <trkpt lat="47.30404" lon="6.21041">
        <ele>257.3</ele>
        <time>2019-08-17T12:38:11Z</time>
      </trkpt>
      <trkpt lat="47.30403" lon="6.21034">
        <ele>257.5</ele>
        <time>2019-08-17T12:38:12Z</time>
      </trkpt>
      <trkpt lat="47.30403" lon="6.21026">
        <ele>257.8</ele>
        <time>2019-08-17T12:38:13Z</time>
      </trkpt>
      <trkpt lat="47.30403" lon="6.21016">
        <ele>258</ele>
        <time>2019-08-17T12:38:14Z</time>
      </trkpt>
      <trkpt lat="47.30404" lon="6.21008">
        <ele>258.2</ele>
        <time>2019-08-17T12:38:15Z</time>
      </trkpt>
      <trkpt lat="47.30404" lon="6.21">
        <ele>258.4</ele>
        <time>2019-08-17T12:38:16Z</time>
      </trkpt>
      <trkpt lat="47.30404" lon="6.20991">
        <ele>258.6</ele>
        <time>2019-08-17T12:38:17Z</time>
      </trkpt>
      <trkpt lat="47.30403" lon="6.20983">
        <ele>258.8</ele>
        <time>2019-08-17T12:38:18Z</time>
      </trkpt>
      <trkpt lat="47.30403" lon="6.20975">
        <ele>259.1</ele>
        <time>2019-08-17T12:38:19Z</time>
      </trkpt>
      <trkpt lat="47.30402" lon="6.20967">
        <ele>259.3</ele>
        <time>2019-08-17T12:38:20Z</time>
      </trkpt>
      <trkpt lat="47.30401" lon="6.20959">
        <ele>259.5</ele>
        <time>2019-08-17T12:38:21Z</time>
      </trkpt>
      <trkpt lat="47.30401" lon="6.20952">
        <ele>259.7</ele>
        <time>2019-08-17T12:38:22Z</time>
      </trkpt>
      <trkpt lat="47.30399" lon="6.20946">
        <ele>259.9</ele>
        <time>2019-08-17T12:38:23Z</time>
      </trkpt>
      <trkpt lat="47.30398" lon="6.20938">
        <ele>260.1</ele>
        <time>2019-08-17T12:38:24Z</time>
      </trkpt>
      <trkpt lat="47.30397" lon="6.20932">
        <ele>260.3</ele>
        <time>2019-08-17T12:38:25Z</time>
      </trkpt>
      <trkpt lat="47.30394" lon="6.20925">
        <ele>260.5</ele>
        <time>2019-08-17T12:38:26Z</time>
      </trkpt>
      <trkpt lat="47.30393" lon="6.20918">
        <ele>260.7</ele>
        <time>2019-08-17T12:38:27Z</time>
      </trkpt>
      <trkpt lat="47.30391" lon="6.2091">
        <ele>260.9</ele>
        <time>2019-08-17T12:38:28Z</time>
      </trkpt>
      <trkpt lat="47.30389" lon="6.20902">
        <ele>261.2</ele>
        <time>2019-08-17T12:38:29Z</time>
      </trkpt>
      <trkpt lat="47.30387" lon="6.20895">
        <ele>261.4</ele>
        <time>2019-08-17T12:38:30Z</time>
      </trkpt>
      <trkpt lat="47.30385" lon="6.20888">
        <ele>261.5</ele>
        <time>2019-08-17T12:38:31Z</time>
      </trkpt>
      <trkpt lat="47.30382" lon="6.20882">
        <ele>261.7</ele>
        <time>2019-08-17T12:38:32Z</time>
      </trkpt>
      <trkpt lat="47.30381" lon="6.20876">
        <ele>261.9</ele>
        <time>2019-08-17T12:38:33Z</time>
      </trkpt>
      <trkpt lat="47.30378" lon="6.2087">
        <ele>262.1</ele>
        <time>2019-08-17T12:38:34Z</time>
      </trkpt>
      <trkpt lat="47.30376" lon="6.20864">
        <ele>262.3</ele>
        <time>2019-08-17T12:38:35Z</time>
      </trkpt>
      <trkpt lat="47.30374" lon="6.20859">
        <ele>262.5</ele>
        <time>2019-08-17T12:38:36Z</time>
      </trkpt>
      <trkpt lat="47.30372" lon="6.20853">
        <ele>262.7</ele>
        <time>2019-08-17T12:38:37Z</time>
      </trkpt>
      <trkpt lat="47.30369" lon="6.20848">
        <ele>262.8</ele>
        <time>2019-08-17T12:38:38Z</time>
      </trkpt>
      <trkpt lat="47.30367" lon="6.20842">
        <ele>263</ele>
        <time>2019-08-17T12:38:39Z</time>
      </trkpt>
      <trkpt lat="47.30364" lon="6.20837">
        <ele>263.2</ele>
        <time>2019-08-17T12:38:40Z</time>
      </trkpt>
      <trkpt lat="47.30361" lon="6.20831">
        <ele>263.4</ele>
        <time>2019-08-17T12:38:41Z</time>
      </trkpt>
      <trkpt lat="47.30358" lon="6.20825">
        <ele>263.7</ele>
        <time>2019-08-17T12:38:42Z</time>
      </trkpt>
      <trkpt lat="47.30355" lon="6.20819">
        <ele>263.9</ele>
        <time>2019-08-17T12:38:43Z</time>
      </trkpt>
      <trkpt lat="47.30352" lon="6.20813">
        <ele>264.1</ele>
        <time>2019-08-17T12:38:44Z</time>
      </trkpt>
      <trkpt lat="47.3035" lon="6.20806">
        <ele>264.3</ele>
        <time>2019-08-17T12:38:45Z</time>
      </trkpt>
      <trkpt lat="47.30347" lon="6.20799">
        <ele>264.6</ele>
        <time>2019-08-17T12:38:46Z</time>
      </trkpt>
      <trkpt lat="47.30344" lon="6.20793">
        <ele>264.8</ele>
        <time>2019-08-17T12:38:47Z</time>
      </trkpt>
      <trkpt lat="47.30341" lon="6.20788">
        <ele>265.1</ele>
        <time>2019-08-17T12:38:48Z</time>
      </trkpt>
      <trkpt lat="47.30338" lon="6.20783">
        <ele>265.3</ele>
        <time>2019-08-17T12:38:49Z</time>
      </trkpt>
      <trkpt lat="47.30335" lon="6.20778">
        <ele>265.5</ele>
        <time>2019-08-17T12:38:50Z</time>
      </trkpt>
      <trkpt lat="47.30333" lon="6.20773">
        <ele>265.7</ele>
        <time>2019-08-17T12:38:51Z</time>
      </trkpt>
      <trkpt lat="47.30329" lon="6.2077">
        <ele>265.9</ele>
        <time>2019-08-17T12:38:52Z</time>
      </trkpt>
      <trkpt lat="47.30326" lon="6.20765">
        <ele>266.2</ele>
        <time>2019-08-17T12:38:53Z</time>
      </trkpt>
      <trkpt lat="47.30323" lon="6.20761">
        <ele>266.4</ele>
        <time>2019-08-17T12:38:54Z</time>
      </trkpt>
      <trkpt lat="47.3032" lon="6.20757">
        <ele>266.8</ele>
        <time>2019-08-17T12:38:55Z</time>
      </trkpt>
      <trkpt lat="47.30316" lon="6.20753">
        <ele>267.1</ele>
        <time>2019-08-17T12:38:56Z</time>
      </trkpt>
      <trkpt lat="47.30313" lon="6.20751">
        <ele>267.3</ele>
        <time>2019-08-17T12:38:57Z</time>
      </trkpt>
      <trkpt lat="47.3031" lon="6.20747">
        <ele>267.6</ele>
        <time>2019-08-17T12:38:58Z</time>
      </trkpt>
      <trkpt lat="47.30307" lon="6.20744">
        <ele>267.9</ele>
        <time>2019-08-17T12:38:59Z</time>
      </trkpt>
      <trkpt lat="47.30304" lon="6.2074">
        <ele>268.2</ele>
        <time>2019-08-17T12:39:00Z</time>
      </trkpt>
      <trkpt lat="47.30301" lon="6.20736">
        <ele>268.5</ele>
        <time>2019-08-17T12:39:01Z</time>
      </trkpt>
      <trkpt lat="47.30298" lon="6.20731">
        <ele>268.9</ele>
        <time>2019-08-17T12:39:02Z</time>
      </trkpt>
      <trkpt lat="47.30294" lon="6.20728">
        <ele>269.3</ele>
        <time>2019-08-17T12:39:03Z</time>
      </trkpt>
      <trkpt lat="47.30291" lon="6.20724">
        <ele>269.6</ele>
        <time>2019-08-17T12:39:04Z</time>
      </trkpt>
      <trkpt lat="47.30286" lon="6.2072">
        <ele>270</ele>
        <time>2019-08-17T12:39:05Z</time>
      </trkpt>
      <trkpt lat="47.30282" lon="6.20716">
        <ele>270.4</ele>
        <time>2019-08-17T12:39:06Z</time>
      </trkpt>
      <trkpt lat="47.30277" lon="6.20711">
        <ele>270.8</ele>
        <time>2019-08-17T12:39:07Z</time>
      </trkpt>
      <trkpt lat="47.30272" lon="6.20707">
        <ele>271.3</ele>
        <time>2019-08-17T12:39:08Z</time>
      </trkpt>
      <trkpt lat="47.30268" lon="6.20704">
        <ele>271.8</ele>
        <time>2019-08-17T12:39:09Z</time>
      </trkpt>
      <trkpt lat="47.30264" lon="6.20701">
        <ele>272.2</ele>
        <time>2019-08-17T12:39:10Z</time>
      </trkpt>
      <trkpt lat="47.3026" lon="6.20698">
        <ele>272.6</ele>
        <time>2019-08-17T12:39:11Z</time>
      </trkpt>
      <trkpt lat="47.30256" lon="6.20696">
        <ele>273</ele>
        <time>2019-08-17T12:39:12Z</time>
      </trkpt>
      <trkpt lat="47.30252" lon="6.20691">
        <ele>273.5</ele>
        <time>2019-08-17T12:39:13Z</time>
      </trkpt>
      <trkpt lat="47.30249" lon="6.20687">
        <ele>273.9</ele>
        <time>2019-08-17T12:39:14Z</time>
      </trkpt>
      <trkpt lat="47.30246" lon="6.20683">
        <ele>274.3</ele>
        <time>2019-08-17T12:39:15Z</time>
      </trkpt>
      <trkpt lat="47.30242" lon="6.2068">
        <ele>274.7</ele>
        <time>2019-08-17T12:39:16Z</time>
      </trkpt>
      <trkpt lat="47.30238" lon="6.20677">
        <ele>275.1</ele>
        <time>2019-08-17T12:39:17Z</time>
      </trkpt>
      <trkpt lat="47.30235" lon="6.20674">
        <ele>275.5</ele>
        <time>2019-08-17T12:39:18Z</time>
      </trkpt>
      <trkpt lat="47.30231" lon="6.20671">
        <ele>275.9</ele>
        <time>2019-08-17T12:39:19Z</time>
      </trkpt>
      <trkpt lat="47.30227" lon="6.20667">
        <ele>276.3</ele>
        <time>2019-08-17T12:39:20Z</time>
      </trkpt>
      <trkpt lat="47.30223" lon="6.20663">
        <ele>276.6</ele>
        <time>2019-08-17T12:39:21Z</time>
      </trkpt>
      <trkpt lat="47.30219" lon="6.2066">
        <ele>277</ele>
        <time>2019-08-17T12:39:22Z</time>
      </trkpt>
      <trkpt lat="47.30214" lon="6.20656">
        <ele>277.4</ele>
        <time>2019-08-17T12:39:23Z</time>
      </trkpt>
      <trkpt lat="47.3021" lon="6.20654">
        <ele>277.7</ele>
        <time>2019-08-17T12:39:24Z</time>
      </trkpt>
      <trkpt lat="47.30205" lon="6.2065">
        <ele>278.1</ele>
        <time>2019-08-17T12:39:25Z</time>
      </trkpt>
      <trkpt lat="47.30201" lon="6.20647">
        <ele>278.5</ele>
        <time>2019-08-17T12:39:26Z</time>
      </trkpt>
      <trkpt lat="47.30196" lon="6.20643">
        <ele>278.9</ele>
        <time>2019-08-17T12:39:27Z</time>
      </trkpt>
      <trkpt lat="47.3019" lon="6.20639">
        <ele>279.3</ele>
        <time>2019-08-17T12:39:28Z</time>
      </trkpt>
      <trkpt lat="47.30184" lon="6.20636">
        <ele>279.6</ele>
        <time>2019-08-17T12:39:29Z</time>
      </trkpt>
      <trkpt lat="47.30177" lon="6.20633">
        <ele>280</ele>
        <time>2019-08-17T12:39:30Z</time>
      </trkpt>
      <trkpt lat="47.30171" lon="6.20629">
        <ele>280.3</ele>
        <time>2019-08-17T12:39:31Z</time>
      </trkpt>
      <trkpt lat="47.30163" lon="6.20626">
        <ele>280.5</ele>
        <time>2019-08-17T12:39:32Z</time>
      </trkpt>
      <trkpt lat="47.30155" lon="6.20623">
        <ele>280.8</ele>
        <time>2019-08-17T12:39:33Z</time>
      </trkpt>
      <trkpt lat="47.30146" lon="6.20621">
        <ele>281</ele>
        <time>2019-08-17T12:39:34Z</time>
      </trkpt>
      <trkpt lat="47.30138" lon="6.20617">
        <ele>281.2</ele>
        <time>2019-08-17T12:39:35Z</time>
      </trkpt>
      <trkpt lat="47.3013" lon="6.20613">
        <ele>275.9</ele>
        <time>2019-08-17T12:39:36Z</time>
      </trkpt>
      <trkpt lat="47.30122" lon="6.20608">
        <ele>272.5</ele>
        <time>2019-08-17T12:39:37Z</time>
      </trkpt>
      <trkpt lat="47.30114" lon="6.20604">
        <ele>269.4</ele>
        <time>2019-08-17T12:39:38Z</time>
      </trkpt>
      <trkpt lat="47.30107" lon="6.206">
        <ele>263.8</ele>
        <time>2019-08-17T12:39:39Z</time>
      </trkpt>
      <trkpt lat="47.301" lon="6.20596">
        <ele>263.7</ele>
        <time>2019-08-17T12:39:40Z</time>
      </trkpt>
      <trkpt lat="47.30093" lon="6.20593">
        <ele>263.5</ele>
        <time>2019-08-17T12:39:41Z</time>
      </trkpt>
      <trkpt lat="47.30086" lon="6.2059">
        <ele>263.3</ele>
        <time>2019-08-17T12:39:42Z</time>
      </trkpt>
      <trkpt lat="47.30079" lon="6.20586">
        <ele>263</ele>
        <time>2019-08-17T12:39:43Z</time>
      </trkpt>
      <trkpt lat="47.30073" lon="6.20584">
        <ele>262.8</ele>
        <time>2019-08-17T12:39:44Z</time>
      </trkpt>
      <trkpt lat="47.30067" lon="6.20582">
        <ele>262.5</ele>
        <time>2019-08-17T12:39:45Z</time>
      </trkpt>
      <trkpt lat="47.30061" lon="6.20579">
        <ele>262.2</ele>
        <time>2019-08-17T12:39:46Z</time>
      </trkpt>
      <trkpt lat="47.30054" lon="6.20576">
        <ele>262</ele>
        <time>2019-08-17T12:39:47Z</time>
      </trkpt>
      <trkpt lat="47.30048" lon="6.20575">
        <ele>261.9</ele>
        <time>2019-08-17T12:39:48Z</time>
      </trkpt>
      <trkpt lat="47.30043" lon="6.20574">
        <ele>261.9</ele>
        <time>2019-08-17T12:39:49Z</time>
      </trkpt>
      <trkpt lat="47.30038" lon="6.20573">
        <ele>261.9</ele>
        <time>2019-08-17T12:39:50Z</time>
      </trkpt>
      <trkpt lat="47.30033" lon="6.20571">
        <ele>261.9</ele>
        <time>2019-08-17T12:39:51Z</time>
      </trkpt>
      <trkpt lat="47.30027" lon="6.20567">
        <ele>262</ele>
        <time>2019-08-17T12:39:52Z</time>
      </trkpt>
      <trkpt lat="47.30021" lon="6.20565">
        <ele>262</ele>
        <time>2019-08-17T12:39:53Z</time>
      </trkpt>
      <trkpt lat="47.30016" lon="6.20562">
        <ele>262.1</ele>
        <time>2019-08-17T12:39:54Z</time>
      </trkpt>
      <trkpt lat="47.3001" lon="6.20562">
        <ele>262</ele>
        <time>2019-08-17T12:39:55Z</time>
      </trkpt>
      <trkpt lat="47.30005" lon="6.2056">
        <ele>262</ele>
        <time>2019-08-17T12:39:56Z</time>
      </trkpt>
      <trkpt lat="47.29999" lon="6.20559">
        <ele>262</ele>
        <time>2019-08-17T12:39:57Z</time>
      </trkpt>
      <trkpt lat="47.29994" lon="6.20558">
        <ele>261.9</ele>
        <time>2019-08-17T12:39:58Z</time>
      </trkpt>
      <trkpt lat="47.29988" lon="6.20557">
        <ele>261.8</ele>
        <time>2019-08-17T12:39:59Z</time>
      </trkpt>
      <trkpt lat="47.29982" lon="6.20555">
        <ele>261.7</ele>
        <time>2019-08-17T12:40:00Z</time>
      </trkpt>
      <trkpt lat="47.29977" lon="6.20553">
        <ele>261.6</ele>
        <time>2019-08-17T12:40:01Z</time>
      </trkpt>
      <trkpt lat="47.29972" lon="6.20549">
        <ele>261.5</ele>
        <time>2019-08-17T12:40:02Z</time>
      </trkpt>
      <trkpt lat="47.29966" lon="6.20546">
        <ele>261.5</ele>
        <time>2019-08-17T12:40:03Z</time>
      </trkpt>
      <trkpt lat="47.2996" lon="6.20544">
        <ele>261.4</ele>
        <time>2019-08-17T12:40:04Z</time>
      </trkpt>
      <trkpt lat="47.29954" lon="6.20542">
        <ele>261.4</ele>
        <time>2019-08-17T12:40:05Z</time>
      </trkpt>
      <trkpt lat="47.29946" lon="6.20542">
        <ele>261.4</ele>
        <time>2019-08-17T12:40:06Z</time>
      </trkpt>
      <trkpt lat="47.2994" lon="6.2054">
        <ele>261.5</ele>
        <time>2019-08-17T12:40:07Z</time>
      </trkpt>
      <trkpt lat="47.29933" lon="6.20538">
        <ele>261.5</ele>
        <time>2019-08-17T12:40:08Z</time>
      </trkpt>
      <trkpt lat="47.29927" lon="6.20537">
        <ele>261.5</ele>
        <time>2019-08-17T12:40:09Z</time>
      </trkpt>
      <trkpt lat="47.2992" lon="6.20535">
        <ele>261.6</ele>
        <time>2019-08-17T12:40:10Z</time>
      </trkpt>
      <trkpt lat="47.29915" lon="6.20535">
        <ele>261.6</ele>
        <time>2019-08-17T12:40:11Z</time>
      </trkpt>
      <trkpt lat="47.29909" lon="6.20533">
        <ele>261.6</ele>
        <time>2019-08-17T12:40:12Z</time>
      </trkpt>
      <trkpt lat="47.29904" lon="6.2053">
        <ele>261.7</ele>
        <time>2019-08-17T12:40:13Z</time>
      </trkpt>
      <trkpt lat="47.29898" lon="6.20528">
        <ele>261.7</ele>
        <time>2019-08-17T12:40:14Z</time>
      </trkpt>
      <trkpt lat="47.29893" lon="6.20525">
        <ele>261.7</ele>
        <time>2019-08-17T12:40:15Z</time>
      </trkpt>
      <trkpt lat="47.29887" lon="6.20522">
        <ele>261.7</ele>
        <time>2019-08-17T12:40:16Z</time>
      </trkpt>
      <trkpt lat="47.29882" lon="6.2052">
        <ele>261.6</ele>
        <time>2019-08-17T12:40:17Z</time>
      </trkpt>
      <trkpt lat="47.29877" lon="6.20518">
        <ele>261.6</ele>
        <time>2019-08-17T12:40:18Z</time>
      </trkpt>
      <trkpt lat="47.29872" lon="6.20515">
        <ele>261.5</ele>
        <time>2019-08-17T12:40:19Z</time>
      </trkpt>
      <trkpt lat="47.29867" lon="6.20511">
        <ele>261.5</ele>
        <time>2019-08-17T12:40:20Z</time>
      </trkpt>
      <trkpt lat="47.29863" lon="6.20507">
        <ele>261.4</ele>
        <time>2019-08-17T12:40:21Z</time>
      </trkpt>
      <trkpt lat="47.29857" lon="6.20504">
        <ele>261.3</ele>
        <time>2019-08-17T12:40:22Z</time>
      </trkpt>
      <trkpt lat="47.29851" lon="6.20501">
        <ele>261.3</ele>
        <time>2019-08-17T12:40:23Z</time>
      </trkpt>
      <trkpt lat="47.29846" lon="6.20498">
        <ele>261.2</ele>
        <time>2019-08-17T12:40:24Z</time>
      </trkpt>
      <trkpt lat="47.2984" lon="6.20495">
        <ele>261.2</ele>
        <time>2019-08-17T12:40:25Z</time>
      </trkpt>
      <trkpt lat="47.29834" lon="6.20492">
        <ele>261.3</ele>
        <time>2019-08-17T12:40:26Z</time>
      </trkpt>
      <trkpt lat="47.29828" lon="6.2049">
        <ele>261.3</ele>
        <time>2019-08-17T12:40:27Z</time>
      </trkpt>
      <trkpt lat="47.29823" lon="6.20487">
        <ele>261.3</ele>
        <time>2019-08-17T12:40:28Z</time>
      </trkpt>
      <trkpt lat="47.29817" lon="6.20486">
        <ele>261.4</ele>
        <time>2019-08-17T12:40:29Z</time>
      </trkpt>
      <trkpt lat="47.29812" lon="6.20484">
        <ele>261.4</ele>
        <time>2019-08-17T12:40:30Z</time>
      </trkpt>
      <trkpt lat="47.29807" lon="6.20483">
        <ele>261.4</ele>
        <time>2019-08-17T12:40:31Z</time>
      </trkpt>
      <trkpt lat="47.29802" lon="6.20481">
        <ele>261.4</ele>
        <time>2019-08-17T12:40:32Z</time>
      </trkpt>
      <trkpt lat="47.29795" lon="6.20479">
        <ele>261.4</ele>
        <time>2019-08-17T12:40:33Z</time>
      </trkpt>
      <trkpt lat="47.2979" lon="6.20477">
        <ele>261.4</ele>
        <time>2019-08-17T12:40:34Z</time>
      </trkpt>
      <trkpt lat="47.29785" lon="6.20475">
        <ele>261.3</ele>
        <time>2019-08-17T12:40:35Z</time>
      </trkpt>
      <trkpt lat="47.29779" lon="6.20475">
        <ele>261.3</ele>
        <time>2019-08-17T12:40:36Z</time>
      </trkpt>
      <trkpt lat="47.29773" lon="6.20473">
        <ele>261.2</ele>
        <time>2019-08-17T12:40:37Z</time>
      </trkpt>
      <trkpt lat="47.29768" lon="6.20472">
        <ele>261.2</ele>
        <time>2019-08-17T12:40:38Z</time>
      </trkpt>
      <trkpt lat="47.29764" lon="6.2047">
        <ele>261.1</ele>
        <time>2019-08-17T12:40:39Z</time>
      </trkpt>
      <trkpt lat="47.29759" lon="6.2047">
        <ele>261.1</ele>
        <time>2019-08-17T12:40:40Z</time>
      </trkpt>
      <trkpt lat="47.29754" lon="6.20469">
        <ele>261.1</ele>
        <time>2019-08-17T12:40:41Z</time>
      </trkpt>
      <trkpt lat="47.29748" lon="6.20469">
        <ele>261</ele>
        <time>2019-08-17T12:40:42Z</time>
      </trkpt>
      <trkpt lat="47.29743" lon="6.20468">
        <ele>261</ele>
        <time>2019-08-17T12:40:43Z</time>
      </trkpt>
      <trkpt lat="47.29737" lon="6.20466">
        <ele>260.9</ele>
        <time>2019-08-17T12:40:44Z</time>
      </trkpt>
      <trkpt lat="47.29732" lon="6.20465">
        <ele>260.9</ele>
        <time>2019-08-17T12:40:45Z</time>
      </trkpt>
      <trkpt lat="47.29727" lon="6.20463">
        <ele>260.9</ele>
        <time>2019-08-17T12:40:46Z</time>
      </trkpt>
      <trkpt lat="47.29722" lon="6.20461">
        <ele>260.8</ele>
        <time>2019-08-17T12:40:47Z</time>
      </trkpt>
      <trkpt lat="47.29717" lon="6.2046">
        <ele>260.8</ele>
        <time>2019-08-17T12:40:48Z</time>
      </trkpt>
      <trkpt lat="47.29711" lon="6.20459">
        <ele>260.7</ele>
        <time>2019-08-17T12:40:49Z</time>
      </trkpt>
      <trkpt lat="47.29707" lon="6.20457">
        <ele>260.7</ele>
        <time>2019-08-17T12:40:50Z</time>
      </trkpt>
      <trkpt lat="47.29701" lon="6.20455">
        <ele>260.7</ele>
        <time>2019-08-17T12:40:51Z</time>
      </trkpt>
      <trkpt lat="47.29696" lon="6.20455">
        <ele>260.6</ele>
        <time>2019-08-17T12:40:52Z</time>
      </trkpt>
      <trkpt lat="47.29691" lon="6.20454">
        <ele>260.6</ele>
        <time>2019-08-17T12:40:53Z</time>
      </trkpt>
      <trkpt lat="47.29686" lon="6.20453">
        <ele>260.6</ele>
        <time>2019-08-17T12:40:54Z</time>
      </trkpt>
      <trkpt lat="47.29681" lon="6.20452">
        <ele>260.6</ele>
        <time>2019-08-17T12:40:55Z</time>
      </trkpt>
      <trkpt lat="47.29676" lon="6.20452">
        <ele>260.5</ele>
        <time>2019-08-17T12:40:56Z</time>
      </trkpt>
      <trkpt lat="47.29672" lon="6.20452">
        <ele>260.5</ele>
        <time>2019-08-17T12:40:57Z</time>
      </trkpt>
      <trkpt lat="47.29667" lon="6.20451">
        <ele>260.6</ele>
        <time>2019-08-17T12:40:58Z</time>
      </trkpt>
      <trkpt lat="47.29662" lon="6.20451">
        <ele>260.6</ele>
        <time>2019-08-17T12:40:59Z</time>
      </trkpt>
      <trkpt lat="47.29658" lon="6.2045">
        <ele>260.7</ele>
        <time>2019-08-17T12:41:00Z</time>
      </trkpt>
      <trkpt lat="47.29653" lon="6.20449">
        <ele>260.7</ele>
        <time>2019-08-17T12:41:01Z</time>
      </trkpt>
      <trkpt lat="47.2965" lon="6.20448">
        <ele>260.8</ele>
        <time>2019-08-17T12:41:02Z</time>
      </trkpt>
      <trkpt lat="47.29647" lon="6.20446">
        <ele>260.9</ele>
        <time>2019-08-17T12:41:03Z</time>
      </trkpt>
      <trkpt lat="47.29644" lon="6.20444">
        <ele>261</ele>
        <time>2019-08-17T12:41:04Z</time>
      </trkpt>
      <trkpt lat="47.2964" lon="6.20443">
        <ele>261</ele>
        <time>2019-08-17T12:41:05Z</time>
      </trkpt>
      <trkpt lat="47.29637" lon="6.20442">
        <ele>260.9</ele>
        <time>2019-08-17T12:41:06Z</time>
      </trkpt>
      <trkpt lat="47.29632" lon="6.20442">
        <ele>260.6</ele>
        <time>2019-08-17T12:41:07Z</time>
      </trkpt>
      <trkpt lat="47.29628" lon="6.2044">
        <ele>260.3</ele>
        <time>2019-08-17T12:41:08Z</time>
      </trkpt>
      <trkpt lat="47.29624" lon="6.20438">
        <ele>260.1</ele>
        <time>2019-08-17T12:41:09Z</time>
      </trkpt>
      <trkpt lat="47.2962" lon="6.20438">
        <ele>259.9</ele>
        <time>2019-08-17T12:41:10Z</time>
      </trkpt>
      <trkpt lat="47.29615" lon="6.20438">
        <ele>259.6</ele>
        <time>2019-08-17T12:41:11Z</time>
      </trkpt>
      <trkpt lat="47.29609" lon="6.20438">
        <ele>259.4</ele>
        <time>2019-08-17T12:41:12Z</time>
      </trkpt>
      <trkpt lat="47.29604" lon="6.20438">
        <ele>259.2</ele>
        <time>2019-08-17T12:41:13Z</time>
      </trkpt>
      <trkpt lat="47.29599" lon="6.20437">
        <ele>259.1</ele>
        <time>2019-08-17T12:41:14Z</time>
      </trkpt>
      <trkpt lat="47.29594" lon="6.20437">
        <ele>258.9</ele>
        <time>2019-08-17T12:41:15Z</time>
      </trkpt>
      <trkpt lat="47.2959" lon="6.20437">
        <ele>258.9</ele>
        <time>2019-08-17T12:41:16Z</time>
      </trkpt>
      <trkpt lat="47.29585" lon="6.20437">
        <ele>258.8</ele>
        <time>2019-08-17T12:41:17Z</time>
      </trkpt>
      <trkpt lat="47.2958" lon="6.20437">
        <ele>258.7</ele>
        <time>2019-08-17T12:41:18Z</time>
      </trkpt>
      <trkpt lat="47.29575" lon="6.20436">
        <ele>258.7</ele>
        <time>2019-08-17T12:41:19Z</time>
      </trkpt>
      <trkpt lat="47.2957" lon="6.20436">
        <ele>258.6</ele>
        <time>2019-08-17T12:41:20Z</time>
      </trkpt>
      <trkpt lat="47.29565" lon="6.20435">
        <ele>258.6</ele>
        <time>2019-08-17T12:41:21Z</time>
      </trkpt>
      <trkpt lat="47.29561" lon="6.20433">
        <ele>258.5</ele>
        <time>2019-08-17T12:41:22Z</time>
      </trkpt>
      <trkpt lat="47.29556" lon="6.2043">
        <ele>258.5</ele>
        <time>2019-08-17T12:41:23Z</time>
      </trkpt>
      <trkpt lat="47.29552" lon="6.20428">
        <ele>258.5</ele>
        <time>2019-08-17T12:41:24Z</time>
      </trkpt>
      <trkpt lat="47.29548" lon="6.20426">
        <ele>258.5</ele>
        <time>2019-08-17T12:41:25Z</time>
      </trkpt>
      <trkpt lat="47.29544" lon="6.20424">
        <ele>258</ele>
        <time>2019-08-17T12:41:26Z</time>
      </trkpt>
      <trkpt lat="47.2954" lon="6.20422">
        <ele>257.7</ele>
        <time>2019-08-17T12:41:27Z</time>
      </trkpt>
      <trkpt lat="47.29536" lon="6.20421">
        <ele>257.5</ele>
        <time>2019-08-17T12:41:28Z</time>
      </trkpt>
      <trkpt lat="47.29532" lon="6.20421">
        <ele>257.2</ele>
        <time>2019-08-17T12:41:29Z</time>
      </trkpt>
      <trkpt lat="47.29528" lon="6.20418">
        <ele>256.9</ele>
        <time>2019-08-17T12:41:30Z</time>
      </trkpt>
      <trkpt lat="47.29523" lon="6.20417">
        <ele>256.5</ele>
        <time>2019-08-17T12:41:31Z</time>
      </trkpt>
      <trkpt lat="47.29518" lon="6.20417">
        <ele>256.2</ele>
        <time>2019-08-17T12:41:32Z</time>
      </trkpt>
      <trkpt lat="47.29513" lon="6.20415">
        <ele>256</ele>
        <time>2019-08-17T12:41:33Z</time>
      </trkpt>
      <trkpt lat="47.29508" lon="6.20415">
        <ele>255.7</ele>
        <time>2019-08-17T12:41:34Z</time>
      </trkpt>
      <trkpt lat="47.29504" lon="6.20413">
        <ele>255.6</ele>
        <time>2019-08-17T12:41:35Z</time>
      </trkpt>
      <trkpt lat="47.29498" lon="6.20411">
        <ele>255.4</ele>
        <time>2019-08-17T12:41:36Z</time>
      </trkpt>
      <trkpt lat="47.29493" lon="6.20409">
        <ele>255.3</ele>
        <time>2019-08-17T12:41:37Z</time>
      </trkpt>
      <trkpt lat="47.29487" lon="6.20406">
        <ele>255.2</ele>
        <time>2019-08-17T12:41:38Z</time>
      </trkpt>
      <trkpt lat="47.29482" lon="6.20403">
        <ele>255.1</ele>
        <time>2019-08-17T12:41:39Z</time>
      </trkpt>
      <trkpt lat="47.29477" lon="6.204">
        <ele>255.1</ele>
        <time>2019-08-17T12:41:40Z</time>
      </trkpt>
      <trkpt lat="47.29472" lon="6.20398">
        <ele>255.1</ele>
        <time>2019-08-17T12:41:41Z</time>
      </trkpt>
      <trkpt lat="47.29468" lon="6.20396">
        <ele>255</ele>
        <time>2019-08-17T12:41:42Z</time>
      </trkpt>
      <trkpt lat="47.29463" lon="6.20394">
        <ele>255</ele>
        <time>2019-08-17T12:41:43Z</time>
      </trkpt>
      <trkpt lat="47.29458" lon="6.20393">
        <ele>255</ele>
        <time>2019-08-17T12:41:44Z</time>
      </trkpt>
      <trkpt lat="47.29454" lon="6.2039">
        <ele>255</ele>
        <time>2019-08-17T12:41:45Z</time>
      </trkpt>
      <trkpt lat="47.29449" lon="6.20389">
        <ele>255</ele>
        <time>2019-08-17T12:41:46Z</time>
      </trkpt>
      <trkpt lat="47.29444" lon="6.20387">
        <ele>255.1</ele>
        <time>2019-08-17T12:41:47Z</time>
      </trkpt>
      <trkpt lat="47.2944" lon="6.20384">
        <ele>255.1</ele>
        <time>2019-08-17T12:41:48Z</time>
      </trkpt>
      <trkpt lat="47.29433" lon="6.20384">
        <ele>255.2</ele>
        <time>2019-08-17T12:41:49Z</time>
      </trkpt>
      <trkpt lat="47.29427" lon="6.20382">
        <ele>255.2</ele>
        <time>2019-08-17T12:41:50Z</time>
      </trkpt>
      <trkpt lat="47.29422" lon="6.20381">
        <ele>255.3</ele>
        <time>2019-08-17T12:41:51Z</time>
      </trkpt>
      <trkpt lat="47.29417" lon="6.20379">
        <ele>255.3</ele>
        <time>2019-08-17T12:41:52Z</time>
      </trkpt>
      <trkpt lat="47.29412" lon="6.20377">
        <ele>255.3</ele>
        <time>2019-08-17T12:41:53Z</time>
      </trkpt>
      <trkpt lat="47.29408" lon="6.20376">
        <ele>255.3</ele>
        <time>2019-08-17T12:41:54Z</time>
      </trkpt>
      <trkpt lat="47.29404" lon="6.20374">
        <ele>255.3</ele>
        <time>2019-08-17T12:41:55Z</time>
      </trkpt>
      <trkpt lat="47.294" lon="6.20373">
        <ele>255.3</ele>
        <time>2019-08-17T12:41:57Z</time>
      </trkpt>
      <trkpt lat="47.29397" lon="6.20371">
        <ele>255.2</ele>
        <time>2019-08-17T12:42:01Z</time>
      </trkpt>
      <trkpt lat="47.29394" lon="6.2037">
        <ele>255.2</ele>
        <time>2019-08-17T12:42:03Z</time>
      </trkpt>
      <trkpt lat="47.29391" lon="6.20367">
        <ele>255.1</ele>
        <time>2019-08-17T12:42:05Z</time>
      </trkpt>
      <trkpt lat="47.29388" lon="6.20367">
        <ele>255</ele>
        <time>2019-08-17T12:42:06Z</time>
      </trkpt>
      <trkpt lat="47.29385" lon="6.20367">
        <ele>255</ele>
        <time>2019-08-17T12:42:07Z</time>
      </trkpt>
      <trkpt lat="47.29382" lon="6.20366">
        <ele>254.9</ele>
        <time>2019-08-17T12:42:08Z</time>
      </trkpt>
      <trkpt lat="47.29379" lon="6.20364">
        <ele>254.8</ele>
        <time>2019-08-17T12:42:09Z</time>
      </trkpt>
      <trkpt lat="47.29376" lon="6.20363">
        <ele>254.6</ele>
        <time>2019-08-17T12:42:10Z</time>
      </trkpt>
      <trkpt lat="47.29372" lon="6.2036">
        <ele>254.5</ele>
        <time>2019-08-17T12:42:11Z</time>
      </trkpt>
      <trkpt lat="47.29369" lon="6.20359">
        <ele>254.4</ele>
        <time>2019-08-17T12:42:12Z</time>
      </trkpt>
      <trkpt lat="47.29366" lon="6.20356">
        <ele>254.2</ele>
        <time>2019-08-17T12:42:13Z</time>
      </trkpt>
      <trkpt lat="47.29363" lon="6.20354">
        <ele>254.1</ele>
        <time>2019-08-17T12:42:14Z</time>
      </trkpt>
      <trkpt lat="47.2936" lon="6.20352">
        <ele>254</ele>
        <time>2019-08-17T12:42:15Z</time>
      </trkpt>
      <trkpt lat="47.29358" lon="6.2035">
        <ele>253.8</ele>
        <time>2019-08-17T12:42:16Z</time>
      </trkpt>
      <trkpt lat="47.29355" lon="6.20349">
        <ele>253.6</ele>
        <time>2019-08-17T12:42:17Z</time>
      </trkpt>
      <trkpt lat="47.29351" lon="6.20348">
        <ele>253.6</ele>
        <time>2019-08-17T12:42:18Z</time>
      </trkpt>
      <trkpt lat="47.29348" lon="6.20347">
        <ele>253.7</ele>
        <time>2019-08-17T12:42:19Z</time>
      </trkpt>
      <trkpt lat="47.29345" lon="6.20346">
        <ele>253.8</ele>
        <time>2019-08-17T12:42:20Z</time>
      </trkpt>
      <trkpt lat="47.29341" lon="6.20343">
        <ele>253.8</ele>
        <time>2019-08-17T12:42:21Z</time>
      </trkpt>
      <trkpt lat="47.29337" lon="6.20342">
        <ele>253.9</ele>
        <time>2019-08-17T12:42:22Z</time>
      </trkpt>
      <trkpt lat="47.29333" lon="6.20341">
        <ele>254</ele>
        <time>2019-08-17T12:42:23Z</time>
      </trkpt>
      <trkpt lat="47.29329" lon="6.20339">
        <ele>254</ele>
        <time>2019-08-17T12:42:24Z</time>
      </trkpt>
      <trkpt lat="47.29325" lon="6.20337">
        <ele>254.1</ele>
        <time>2019-08-17T12:42:25Z</time>
      </trkpt>
      <trkpt lat="47.29322" lon="6.20335">
        <ele>254.1</ele>
        <time>2019-08-17T12:42:26Z</time>
      </trkpt>
      <trkpt lat="47.29319" lon="6.20334">
        <ele>254.1</ele>
        <time>2019-08-17T12:42:27Z</time>
      </trkpt>
      <trkpt lat="47.29316" lon="6.20333">
        <ele>254.1</ele>
        <time>2019-08-17T12:42:28Z</time>
      </trkpt>
      <trkpt lat="47.29312" lon="6.20332">
        <ele>254.1</ele>
        <time>2019-08-17T12:42:29Z</time>
      </trkpt>
      <trkpt lat="47.29309" lon="6.20331">
        <ele>254.1</ele>
        <time>2019-08-17T12:42:30Z</time>
      </trkpt>
      <trkpt lat="47.29306" lon="6.20328">
        <ele>254.1</ele>
        <time>2019-08-17T12:42:31Z</time>
      </trkpt>
      <trkpt lat="47.29302" lon="6.20325">
        <ele>254.1</ele>
        <time>2019-08-17T12:42:32Z</time>
      </trkpt>
      <trkpt lat="47.29298" lon="6.20323">
        <ele>254.2</ele>
        <time>2019-08-17T12:42:33Z</time>
      </trkpt>
      <trkpt lat="47.29295" lon="6.20321">
        <ele>254.2</ele>
        <time>2019-08-17T12:42:34Z</time>
      </trkpt>
      <trkpt lat="47.29291" lon="6.20319">
        <ele>254.2</ele>
        <time>2019-08-17T12:42:35Z</time>
      </trkpt>
      <trkpt lat="47.29288" lon="6.20317">
        <ele>254.3</ele>
        <time>2019-08-17T12:42:36Z</time>
      </trkpt>
      <trkpt lat="47.29285" lon="6.20315">
        <ele>254.3</ele>
        <time>2019-08-17T12:42:37Z</time>
      </trkpt>
      <trkpt lat="47.29281" lon="6.20312">
        <ele>254.4</ele>
        <time>2019-08-17T12:42:38Z</time>
      </trkpt>
      <trkpt lat="47.29278" lon="6.20311">
        <ele>254.4</ele>
        <time>2019-08-17T12:42:39Z</time>
      </trkpt>
      <trkpt lat="47.29275" lon="6.20309">
        <ele>254.4</ele>
        <time>2019-08-17T12:42:40Z</time>
      </trkpt>
      <trkpt lat="47.29271" lon="6.20308">
        <ele>254.5</ele>
        <time>2019-08-17T12:42:41Z</time>
      </trkpt>
      <trkpt lat="47.29269" lon="6.20307">
        <ele>254.5</ele>
        <time>2019-08-17T12:42:42Z</time>
      </trkpt>
      <trkpt lat="47.29266" lon="6.20305">
        <ele>254.5</ele>
        <time>2019-08-17T12:42:43Z</time>
      </trkpt>
      <trkpt lat="47.29263" lon="6.20303">
        <ele>254.5</ele>
        <time>2019-08-17T12:42:44Z</time>
      </trkpt>
      <trkpt lat="47.2926" lon="6.203">
        <ele>254.6</ele>
        <time>2019-08-17T12:42:45Z</time>
      </trkpt>
      <trkpt lat="47.29257" lon="6.20298">
        <ele>254.6</ele>
        <time>2019-08-17T12:42:46Z</time>
      </trkpt>
      <trkpt lat="47.29255" lon="6.20296">
        <ele>254.6</ele>
        <time>2019-08-17T12:42:47Z</time>
      </trkpt>
      <trkpt lat="47.2925" lon="6.20294">
        <ele>254.7</ele>
        <time>2019-08-17T12:42:49Z</time>
      </trkpt>
      <trkpt lat="47.29246" lon="6.203">
        <ele>254.7</ele>
        <time>2019-08-17T12:42:51Z</time>
      </trkpt>
      <trkpt lat="47.29246" lon="6.20304">
        <ele>254.7</ele>
        <time>2019-08-17T12:42:52Z</time>
      </trkpt>
      <trkpt lat="47.29245" lon="6.20309">
        <ele>254.7</ele>
        <time>2019-08-17T12:42:53Z</time>
      </trkpt>
      <trkpt lat="47.29244" lon="6.20313">
        <ele>254.7</ele>
        <time>2019-08-17T12:42:54Z</time>
      </trkpt>
      <trkpt lat="47.29241" lon="6.20319">
        <ele>254.6</ele>
        <time>2019-08-17T12:42:56Z</time>
      </trkpt>
      <trkpt lat="47.29237" lon="6.20321">
        <ele>254.5</ele>
        <time>2019-08-17T12:42:58Z</time>
      </trkpt>
      <trkpt lat="47.29233" lon="6.20321">
        <ele>254.4</ele>
        <time>2019-08-17T12:43:00Z</time>
      </trkpt>
      <trkpt lat="47.2923" lon="6.2032">
        <ele>254.3</ele>
        <time>2019-08-17T12:43:01Z</time>
      </trkpt>
      <trkpt lat="47.29227" lon="6.20318">
        <ele>254.3</ele>
        <time>2019-08-17T12:43:02Z</time>
      </trkpt>
      <trkpt lat="47.29223" lon="6.20316">
        <ele>254.2</ele>
        <time>2019-08-17T12:43:03Z</time>
      </trkpt>
      <trkpt lat="47.2922" lon="6.20313">
        <ele>254.2</ele>
        <time>2019-08-17T12:43:04Z</time>
      </trkpt>
      <trkpt lat="47.29216" lon="6.20311">
        <ele>254.2</ele>
        <time>2019-08-17T12:43:05Z</time>
      </trkpt>
      <trkpt lat="47.29211" lon="6.20308">
        <ele>254.2</ele>
        <time>2019-08-17T12:43:06Z</time>
      </trkpt>
      <trkpt lat="47.29206" lon="6.20305">
        <ele>254.2</ele>
        <time>2019-08-17T12:43:07Z</time>
      </trkpt>
      <trkpt lat="47.29201" lon="6.20302">
        <ele>254.2</ele>
        <time>2019-08-17T12:43:08Z</time>
      </trkpt>
      <trkpt lat="47.29195" lon="6.20299">
        <ele>254.2</ele>
        <time>2019-08-17T12:43:09Z</time>
      </trkpt>
      <trkpt lat="47.2919" lon="6.20295">
        <ele>254.3</ele>
        <time>2019-08-17T12:43:10Z</time>
      </trkpt>
      <trkpt lat="47.29186" lon="6.20294">
        <ele>254.3</ele>
        <time>2019-08-17T12:43:11Z</time>
      </trkpt>
      <trkpt lat="47.29181" lon="6.20291">
        <ele>254.4</ele>
        <time>2019-08-17T12:43:12Z</time>
      </trkpt>
      <trkpt lat="47.29178" lon="6.20287">
        <ele>254.5</ele>
        <time>2019-08-17T12:43:13Z</time>
      </trkpt>
      <trkpt lat="47.29174" lon="6.20282">
        <ele>254.5</ele>
        <time>2019-08-17T12:43:14Z</time>
      </trkpt>
      <trkpt lat="47.29171" lon="6.20278">
        <ele>254.6</ele>
        <time>2019-08-17T12:43:15Z</time>
      </trkpt>
      <trkpt lat="47.29167" lon="6.20274">
        <ele>254.7</ele>
        <time>2019-08-17T12:43:16Z</time>
      </trkpt>
      <trkpt lat="47.29164" lon="6.20271">
        <ele>254.8</ele>
        <time>2019-08-17T12:43:17Z</time>
      </trkpt>
      <trkpt lat="47.29161" lon="6.20266">
        <ele>254.9</ele>
        <time>2019-08-17T12:43:18Z</time>
      </trkpt>
      <trkpt lat="47.29157" lon="6.20264">
        <ele>255</ele>
        <time>2019-08-17T12:43:19Z</time>
      </trkpt>
      <trkpt lat="47.29152" lon="6.20261">
        <ele>255.1</ele>
        <time>2019-08-17T12:43:20Z</time>
      </trkpt>
      <trkpt lat="47.29147" lon="6.20261">
        <ele>255.2</ele>
        <time>2019-08-17T12:43:21Z</time>
      </trkpt>
      <trkpt lat="47.29144" lon="6.20259">
        <ele>255.3</ele>
        <time>2019-08-17T12:43:22Z</time>
      </trkpt>
      <trkpt lat="47.2914" lon="6.20257">
        <ele>255.3</ele>
        <time>2019-08-17T12:43:23Z</time>
      </trkpt>
      <trkpt lat="47.29137" lon="6.20257">
        <ele>255.3</ele>
        <time>2019-08-17T12:43:24Z</time>
      </trkpt>
      <trkpt lat="47.29133" lon="6.20259">
        <ele>255.4</ele>
        <time>2019-08-17T12:43:25Z</time>
      </trkpt>
      <trkpt lat="47.29128" lon="6.2026">
        <ele>255.4</ele>
        <time>2019-08-17T12:43:26Z</time>
      </trkpt>
      <trkpt lat="47.29122" lon="6.20262">
        <ele>255.4</ele>
        <time>2019-08-17T12:43:27Z</time>
      </trkpt>
      <trkpt lat="47.29117" lon="6.20263">
        <ele>255.3</ele>
        <time>2019-08-17T12:43:28Z</time>
      </trkpt>
      <trkpt lat="47.29111" lon="6.20264">
        <ele>255.3</ele>
        <time>2019-08-17T12:43:29Z</time>
      </trkpt>
      <trkpt lat="47.29105" lon="6.20264">
        <ele>255.3</ele>
        <time>2019-08-17T12:43:30Z</time>
      </trkpt>
      <trkpt lat="47.29101" lon="6.20264">
        <ele>255.2</ele>
        <time>2019-08-17T12:43:31Z</time>
      </trkpt>
      <trkpt lat="47.29095" lon="6.20264">
        <ele>255.2</ele>
        <time>2019-08-17T12:43:32Z</time>
      </trkpt>
      <trkpt lat="47.29091" lon="6.20265">
        <ele>255.1</ele>
        <time>2019-08-17T12:43:33Z</time>
      </trkpt>
      <trkpt lat="47.29087" lon="6.20265">
        <ele>255.1</ele>
        <time>2019-08-17T12:43:34Z</time>
      </trkpt>
      <trkpt lat="47.29083" lon="6.20264">
        <ele>255.1</ele>
        <time>2019-08-17T12:43:35Z</time>
      </trkpt>
      <trkpt lat="47.2908" lon="6.20263">
        <ele>255</ele>
        <time>2019-08-17T12:43:36Z</time>
      </trkpt>
      <trkpt lat="47.29076" lon="6.20261">
        <ele>255</ele>
        <time>2019-08-17T12:43:37Z</time>
      </trkpt>
      <trkpt lat="47.29074" lon="6.20257">
        <ele>255</ele>
        <time>2019-08-17T12:43:38Z</time>
      </trkpt>
      <trkpt lat="47.29071" lon="6.20252">
        <ele>254.9</ele>
        <time>2019-08-17T12:43:39Z</time>
      </trkpt>
      <trkpt lat="47.29068" lon="6.20248">
        <ele>254.8</ele>
        <time>2019-08-17T12:43:40Z</time>
      </trkpt>
      <trkpt lat="47.29064" lon="6.20245">
        <ele>254.8</ele>
        <time>2019-08-17T12:43:41Z</time>
      </trkpt>
      <trkpt lat="47.29061" lon="6.20241">
        <ele>254.7</ele>
        <time>2019-08-17T12:43:42Z</time>
      </trkpt>
      <trkpt lat="47.29059" lon="6.20238">
        <ele>254.6</ele>
        <time>2019-08-17T12:43:43Z</time>
      </trkpt>
      <trkpt lat="47.29056" lon="6.20234">
        <ele>254.6</ele>
        <time>2019-08-17T12:43:44Z</time>
      </trkpt>
      <trkpt lat="47.29054" lon="6.2023">
        <ele>254.5</ele>
        <time>2019-08-17T12:43:45Z</time>
      </trkpt>
      <trkpt lat="47.29052" lon="6.20225">
        <ele>254.4</ele>
        <time>2019-08-17T12:43:46Z</time>
      </trkpt>
      <trkpt lat="47.29051" lon="6.20221">
        <ele>254.4</ele>
        <time>2019-08-17T12:43:47Z</time>
      </trkpt>
      <trkpt lat="47.29049" lon="6.20214">
        <ele>254.2</ele>
        <time>2019-08-17T12:43:48Z</time>
      </trkpt>
      <trkpt lat="47.29047" lon="6.20207">
        <ele>254.1</ele>
        <time>2019-08-17T12:43:49Z</time>
      </trkpt>
      <trkpt lat="47.29046" lon="6.20204">
        <ele>254</ele>
        <time>2019-08-17T12:43:50Z</time>
      </trkpt>
      <trkpt lat="47.29043" lon="6.202">
        <ele>253.9</ele>
        <time>2019-08-17T12:43:51Z</time>
      </trkpt>
      <trkpt lat="47.29041" lon="6.20195">
        <ele>253.7</ele>
        <time>2019-08-17T12:43:52Z</time>
      </trkpt>
      <trkpt lat="47.29038" lon="6.20187">
        <ele>253.6</ele>
        <time>2019-08-17T12:43:53Z</time>
      </trkpt>
      <trkpt lat="47.29036" lon="6.20182">
        <ele>253.4</ele>
        <time>2019-08-17T12:43:54Z</time>
      </trkpt>
      <trkpt lat="47.29033" lon="6.20176">
        <ele>253.3</ele>
        <time>2019-08-17T12:43:55Z</time>
      </trkpt>
      <trkpt lat="47.2903" lon="6.20171">
        <ele>253.1</ele>
        <time>2019-08-17T12:43:56Z</time>
      </trkpt>
      <trkpt lat="47.29028" lon="6.20165">
        <ele>252.9</ele>
        <time>2019-08-17T12:43:57Z</time>
      </trkpt>
      <trkpt lat="47.29025" lon="6.20159">
        <ele>252.7</ele>
        <time>2019-08-17T12:43:58Z</time>
      </trkpt>
      <trkpt lat="47.29023" lon="6.20153">
        <ele>252.5</ele>
        <time>2019-08-17T12:43:59Z</time>
      </trkpt>
      <trkpt lat="47.29021" lon="6.20147">
        <ele>252.3</ele>
        <time>2019-08-17T12:44:00Z</time>
      </trkpt>
      <trkpt lat="47.2902" lon="6.20141">
        <ele>252.1</ele>
        <time>2019-08-17T12:44:01Z</time>
      </trkpt>
      <trkpt lat="47.29017" lon="6.20135">
        <ele>251.8</ele>
        <time>2019-08-17T12:44:02Z</time>
      </trkpt>
      <trkpt lat="47.29014" lon="6.2013">
        <ele>251.6</ele>
        <time>2019-08-17T12:44:03Z</time>
      </trkpt>
      <trkpt lat="47.29011" lon="6.20125">
        <ele>251.4</ele>
        <time>2019-08-17T12:44:04Z</time>
      </trkpt>
      <trkpt lat="47.29008" lon="6.20121">
        <ele>251.1</ele>
        <time>2019-08-17T12:44:05Z</time>
      </trkpt>
      <trkpt lat="47.29005" lon="6.20116">
        <ele>250.8</ele>
        <time>2019-08-17T12:44:06Z</time>
      </trkpt>
      <trkpt lat="47.29003" lon="6.20111">
        <ele>250.5</ele>
        <time>2019-08-17T12:44:07Z</time>
      </trkpt>
      <trkpt lat="47.29001" lon="6.20105">
        <ele>250.2</ele>
        <time>2019-08-17T12:44:08Z</time>
      </trkpt>
      <trkpt lat="47.28999" lon="6.201">
        <ele>249.9</ele>
        <time>2019-08-17T12:44:09Z</time>
      </trkpt>
      <trkpt lat="47.28996" lon="6.20094">
        <ele>249.6</ele>
        <time>2019-08-17T12:44:10Z</time>
      </trkpt>
      <trkpt lat="47.28994" lon="6.20087">
        <ele>249.2</ele>
        <time>2019-08-17T12:44:11Z</time>
      </trkpt>
      <trkpt lat="47.28992" lon="6.20079">
        <ele>248.8</ele>
        <time>2019-08-17T12:44:12Z</time>
      </trkpt>
      <trkpt lat="47.28993" lon="6.20073">
        <ele>248.6</ele>
        <time>2019-08-17T12:44:13Z</time>
      </trkpt>
      <trkpt lat="47.28995" lon="6.20068">
        <ele>248.5</ele>
        <time>2019-08-17T12:44:14Z</time>
      </trkpt>
      <trkpt lat="47.28995" lon="6.20064">
        <ele>248.5</ele>
        <time>2019-08-17T12:44:15Z</time>
      </trkpt>
      <trkpt lat="47.28994" lon="6.20057">
        <ele>248.4</ele>
        <time>2019-08-17T12:44:17Z</time>
      </trkpt>
      <trkpt lat="47.28993" lon="6.20051">
        <ele>248.5</ele>
        <time>2019-08-17T12:44:19Z</time>
      </trkpt>
      <trkpt lat="47.28991" lon="6.20044">
        <ele>248.7</ele>
        <time>2019-08-17T12:44:21Z</time>
      </trkpt>
      <trkpt lat="47.2899" lon="6.2004">
        <ele>248.9</ele>
        <time>2019-08-17T12:44:22Z</time>
      </trkpt>
      <trkpt lat="47.28988" lon="6.20035">
        <ele>249</ele>
        <time>2019-08-17T12:44:23Z</time>
      </trkpt>
      <trkpt lat="47.28987" lon="6.2003">
        <ele>249.2</ele>
        <time>2019-08-17T12:44:24Z</time>
      </trkpt>
      <trkpt lat="47.28985" lon="6.20025">
        <ele>249.4</ele>
        <time>2019-08-17T12:44:25Z</time>
      </trkpt>
      <trkpt lat="47.28983" lon="6.20019">
        <ele>249.7</ele>
        <time>2019-08-17T12:44:26Z</time>
      </trkpt>
      <trkpt lat="47.28981" lon="6.20014">
        <ele>249.9</ele>
        <time>2019-08-17T12:44:27Z</time>
      </trkpt>
      <trkpt lat="47.28979" lon="6.2001">
        <ele>250.1</ele>
        <time>2019-08-17T12:44:28Z</time>
      </trkpt>
      <trkpt lat="47.28977" lon="6.20005">
        <ele>250.2</ele>
        <time>2019-08-17T12:44:29Z</time>
      </trkpt>
      <trkpt lat="47.28975" lon="6.2">
        <ele>250.4</ele>
        <time>2019-08-17T12:44:30Z</time>
      </trkpt>
      <trkpt lat="47.28973" lon="6.19995">
        <ele>250.6</ele>
        <time>2019-08-17T12:44:31Z</time>
      </trkpt>
      <trkpt lat="47.28971" lon="6.1999">
        <ele>250.8</ele>
        <time>2019-08-17T12:44:32Z</time>
      </trkpt>
      <trkpt lat="47.28969" lon="6.19985">
        <ele>250.9</ele>
        <time>2019-08-17T12:44:33Z</time>
      </trkpt>
      <trkpt lat="47.28967" lon="6.1998">
        <ele>251.1</ele>
        <time>2019-08-17T12:44:34Z</time>
      </trkpt>
      <trkpt lat="47.28966" lon="6.19974">
        <ele>251.3</ele>
        <time>2019-08-17T12:44:35Z</time>
      </trkpt>
      <trkpt lat="47.28964" lon="6.19968">
        <ele>251.5</ele>
        <time>2019-08-17T12:44:36Z</time>
      </trkpt>
      <trkpt lat="47.28962" lon="6.19962">
        <ele>251.6</ele>
        <time>2019-08-17T12:44:37Z</time>
      </trkpt>
      <trkpt lat="47.28961" lon="6.19957">
        <ele>251.8</ele>
        <time>2019-08-17T12:44:38Z</time>
      </trkpt>
      <trkpt lat="47.28959" lon="6.19951">
        <ele>251.9</ele>
        <time>2019-08-17T12:44:39Z</time>
      </trkpt>
      <trkpt lat="47.28957" lon="6.19945">
        <ele>252.1</ele>
        <time>2019-08-17T12:44:40Z</time>
      </trkpt>
      <trkpt lat="47.28956" lon="6.19939">
        <ele>252.2</ele>
        <time>2019-08-17T12:44:41Z</time>
      </trkpt>
      <trkpt lat="47.28954" lon="6.19932">
        <ele>252.4</ele>
        <time>2019-08-17T12:44:42Z</time>
      </trkpt>
      <trkpt lat="47.28952" lon="6.19925">
        <ele>252.6</ele>
        <time>2019-08-17T12:44:43Z</time>
      </trkpt>
      <trkpt lat="47.28951" lon="6.19917">
        <ele>252.8</ele>
        <time>2019-08-17T12:44:44Z</time>
      </trkpt>
      <trkpt lat="47.28949" lon="6.19909">
        <ele>253</ele>
        <time>2019-08-17T12:44:45Z</time>
      </trkpt>
      <trkpt lat="47.28947" lon="6.19902">
        <ele>253.1</ele>
        <time>2019-08-17T12:44:46Z</time>
      </trkpt>
      <trkpt lat="47.28945" lon="6.19894">
        <ele>253.3</ele>
        <time>2019-08-17T12:44:47Z</time>
      </trkpt>
      <trkpt lat="47.28943" lon="6.19887">
        <ele>253.4</ele>
        <time>2019-08-17T12:44:48Z</time>
      </trkpt>
      <trkpt lat="47.28941" lon="6.1988">
        <ele>253.5</ele>
        <time>2019-08-17T12:44:49Z</time>
      </trkpt>
      <trkpt lat="47.28938" lon="6.19874">
        <ele>253.7</ele>
        <time>2019-08-17T12:44:50Z</time>
      </trkpt>
      <trkpt lat="47.28936" lon="6.19868">
        <ele>253.8</ele>
        <time>2019-08-17T12:44:51Z</time>
      </trkpt>
      <trkpt lat="47.28935" lon="6.19862">
        <ele>253.9</ele>
        <time>2019-08-17T12:44:52Z</time>
      </trkpt>
      <trkpt lat="47.28933" lon="6.19855">
        <ele>254</ele>
        <time>2019-08-17T12:44:53Z</time>
      </trkpt>
      <trkpt lat="47.28932" lon="6.19848">
        <ele>254.1</ele>
        <time>2019-08-17T12:44:54Z</time>
      </trkpt>
      <trkpt lat="47.28931" lon="6.19841">
        <ele>254.2</ele>
        <time>2019-08-17T12:44:55Z</time>
      </trkpt>
      <trkpt lat="47.2893" lon="6.19834">
        <ele>254.3</ele>
        <time>2019-08-17T12:44:56Z</time>
      </trkpt>
      <trkpt lat="47.28929" lon="6.19827">
        <ele>254.4</ele>
        <time>2019-08-17T12:44:57Z</time>
      </trkpt>
      <trkpt lat="47.28928" lon="6.1982">
        <ele>254.5</ele>
        <time>2019-08-17T12:44:58Z</time>
      </trkpt>
      <trkpt lat="47.28927" lon="6.19813">
        <ele>254.6</ele>
        <time>2019-08-17T12:44:59Z</time>
      </trkpt>
      <trkpt lat="47.28925" lon="6.19806">
        <ele>254.7</ele>
        <time>2019-08-17T12:45:00Z</time>
      </trkpt>
      <trkpt lat="47.28924" lon="6.198">
        <ele>254.9</ele>
        <time>2019-08-17T12:45:01Z</time>
      </trkpt>
      <trkpt lat="47.28922" lon="6.19792">
        <ele>255</ele>
        <time>2019-08-17T12:45:02Z</time>
      </trkpt>
      <trkpt lat="47.2892" lon="6.19785">
        <ele>255.1</ele>
        <time>2019-08-17T12:45:03Z</time>
      </trkpt>
      <trkpt lat="47.28919" lon="6.19776">
        <ele>255.3</ele>
        <time>2019-08-17T12:45:04Z</time>
      </trkpt>
      <trkpt lat="47.28917" lon="6.19769">
        <ele>255.4</ele>
        <time>2019-08-17T12:45:05Z</time>
      </trkpt>
      <trkpt lat="47.28916" lon="6.19763">
        <ele>255.5</ele>
        <time>2019-08-17T12:45:06Z</time>
      </trkpt>
      <trkpt lat="47.28915" lon="6.19757">
        <ele>255.7</ele>
        <time>2019-08-17T12:45:07Z</time>
      </trkpt>
      <trkpt lat="47.28914" lon="6.1975">
        <ele>255.8</ele>
        <time>2019-08-17T12:45:08Z</time>
      </trkpt>
      <trkpt lat="47.28913" lon="6.19744">
        <ele>255.9</ele>
        <time>2019-08-17T12:45:09Z</time>
      </trkpt>
      <trkpt lat="47.28912" lon="6.19737">
        <ele>256</ele>
        <time>2019-08-17T12:45:10Z</time>
      </trkpt>
      <trkpt lat="47.2891" lon="6.1973">
        <ele>256.2</ele>
        <time>2019-08-17T12:45:11Z</time>
      </trkpt>
      <trkpt lat="47.28909" lon="6.19723">
        <ele>256.4</ele>
        <time>2019-08-17T12:45:12Z</time>
      </trkpt>
      <trkpt lat="47.28909" lon="6.19716">
        <ele>256.5</ele>
        <time>2019-08-17T12:45:13Z</time>
      </trkpt>
      <trkpt lat="47.28908" lon="6.19709">
        <ele>256.7</ele>
        <time>2019-08-17T12:45:14Z</time>
      </trkpt>
      <trkpt lat="47.28908" lon="6.19702">
        <ele>256.8</ele>
        <time>2019-08-17T12:45:15Z</time>
      </trkpt>
      <trkpt lat="47.28907" lon="6.19694">
        <ele>257</ele>
        <time>2019-08-17T12:45:16Z</time>
      </trkpt>
      <trkpt lat="47.28906" lon="6.19686">
        <ele>257.1</ele>
        <time>2019-08-17T12:45:17Z</time>
      </trkpt>
      <trkpt lat="47.28905" lon="6.1968">
        <ele>257.2</ele>
        <time>2019-08-17T12:45:18Z</time>
      </trkpt>
      <trkpt lat="47.28905" lon="6.19672">
        <ele>257.4</ele>
        <time>2019-08-17T12:45:19Z</time>
      </trkpt>
      <trkpt lat="47.28903" lon="6.19665">
        <ele>257.6</ele>
        <time>2019-08-17T12:45:20Z</time>
      </trkpt>
      <trkpt lat="47.28901" lon="6.19658">
        <ele>257.7</ele>
        <time>2019-08-17T12:45:21Z</time>
      </trkpt>
      <trkpt lat="47.289" lon="6.1965">
        <ele>257.9</ele>
        <time>2019-08-17T12:45:22Z</time>
      </trkpt>
      <trkpt lat="47.289" lon="6.19642">
        <ele>258</ele>
        <time>2019-08-17T12:45:23Z</time>
      </trkpt>
      <trkpt lat="47.28899" lon="6.19634">
        <ele>258.2</ele>
        <time>2019-08-17T12:45:24Z</time>
      </trkpt>
      <trkpt lat="47.28898" lon="6.19626">
        <ele>258.3</ele>
        <time>2019-08-17T12:45:25Z</time>
      </trkpt>
      <trkpt lat="47.28897" lon="6.19619">
        <ele>258.4</ele>
        <time>2019-08-17T12:45:26Z</time>
      </trkpt>
      <trkpt lat="47.28896" lon="6.19612">
        <ele>258.5</ele>
        <time>2019-08-17T12:45:27Z</time>
      </trkpt>
      <trkpt lat="47.28896" lon="6.19605">
        <ele>258.6</ele>
        <time>2019-08-17T12:45:28Z</time>
      </trkpt>
      <trkpt lat="47.28896" lon="6.19598">
        <ele>258.7</ele>
        <time>2019-08-17T12:45:29Z</time>
      </trkpt>
      <trkpt lat="47.28895" lon="6.19591">
        <ele>258.8</ele>
        <time>2019-08-17T12:45:30Z</time>
      </trkpt>
      <trkpt lat="47.28894" lon="6.19584">
        <ele>258.9</ele>
        <time>2019-08-17T12:45:31Z</time>
      </trkpt>
      <trkpt lat="47.28893" lon="6.19576">
        <ele>259</ele>
        <time>2019-08-17T12:45:32Z</time>
      </trkpt>
      <trkpt lat="47.28892" lon="6.19568">
        <ele>259.1</ele>
        <time>2019-08-17T12:45:33Z</time>
      </trkpt>
      <trkpt lat="47.28891" lon="6.19561">
        <ele>259.2</ele>
        <time>2019-08-17T12:45:34Z</time>
      </trkpt>
      <trkpt lat="47.2889" lon="6.19553">
        <ele>259.2</ele>
        <time>2019-08-17T12:45:35Z</time>
      </trkpt>
      <trkpt lat="47.28889" lon="6.19545">
        <ele>259.3</ele>
        <time>2019-08-17T12:45:36Z</time>
      </trkpt>
      <trkpt lat="47.28888" lon="6.19537">
        <ele>259.4</ele>
        <time>2019-08-17T12:45:37Z</time>
      </trkpt>
      <trkpt lat="47.28887" lon="6.19529">
        <ele>259.5</ele>
        <time>2019-08-17T12:45:38Z</time>
      </trkpt>
      <trkpt lat="47.28885" lon="6.19521">
        <ele>259.6</ele>
        <time>2019-08-17T12:45:39Z</time>
      </trkpt>
      <trkpt lat="47.28885" lon="6.19512">
        <ele>259.7</ele>
        <time>2019-08-17T12:45:40Z</time>
      </trkpt>
      <trkpt lat="47.28884" lon="6.19505">
        <ele>259.8</ele>
        <time>2019-08-17T12:45:41Z</time>
      </trkpt>
      <trkpt lat="47.28885" lon="6.19499">
        <ele>259.9</ele>
        <time>2019-08-17T12:45:42Z</time>
      </trkpt>
      <trkpt lat="47.28885" lon="6.19492">
        <ele>260</ele>
        <time>2019-08-17T12:45:43Z</time>
      </trkpt>
      <trkpt lat="47.28885" lon="6.19487">
        <ele>260</ele>
        <time>2019-08-17T12:45:44Z</time>
      </trkpt>
      <trkpt lat="47.28884" lon="6.1948">
        <ele>260.1</ele>
        <time>2019-08-17T12:45:45Z</time>
      </trkpt>
      <trkpt lat="47.28884" lon="6.19473">
        <ele>260.2</ele>
        <time>2019-08-17T12:45:46Z</time>
      </trkpt>
      <trkpt lat="47.28884" lon="6.19467">
        <ele>260.3</ele>
        <time>2019-08-17T12:45:47Z</time>
      </trkpt>
      <trkpt lat="47.28884" lon="6.1946">
        <ele>260.4</ele>
        <time>2019-08-17T12:45:48Z</time>
      </trkpt>
      <trkpt lat="47.28883" lon="6.19453">
        <ele>260.5</ele>
        <time>2019-08-17T12:45:49Z</time>
      </trkpt>
      <trkpt lat="47.28883" lon="6.19446">
        <ele>260.7</ele>
        <time>2019-08-17T12:45:50Z</time>
      </trkpt>
      <trkpt lat="47.28882" lon="6.19438">
        <ele>260.8</ele>
        <time>2019-08-17T12:45:51Z</time>
      </trkpt>
      <trkpt lat="47.28881" lon="6.19431">
        <ele>260.9</ele>
        <time>2019-08-17T12:45:52Z</time>
      </trkpt>
      <trkpt lat="47.28879" lon="6.19425">
        <ele>261</ele>
        <time>2019-08-17T12:45:53Z</time>
      </trkpt>
      <trkpt lat="47.28879" lon="6.19417">
        <ele>261.2</ele>
        <time>2019-08-17T12:45:54Z</time>
      </trkpt>
      <trkpt lat="47.28879" lon="6.1941">
        <ele>261.3</ele>
        <time>2019-08-17T12:45:55Z</time>
      </trkpt>
      <trkpt lat="47.28878" lon="6.19403">
        <ele>261.4</ele>
        <time>2019-08-17T12:45:56Z</time>
      </trkpt>
      <trkpt lat="47.28877" lon="6.19396">
        <ele>261.5</ele>
        <time>2019-08-17T12:45:57Z</time>
      </trkpt>
      <trkpt lat="47.28876" lon="6.19388">
        <ele>261.6</ele>
        <time>2019-08-17T12:45:58Z</time>
      </trkpt>
      <trkpt lat="47.28877" lon="6.19379">
        <ele>261.7</ele>
        <time>2019-08-17T12:45:59Z</time>
      </trkpt>
      <trkpt lat="47.28876" lon="6.19372">
        <ele>261.8</ele>
        <time>2019-08-17T12:46:00Z</time>
      </trkpt>
      <trkpt lat="47.28876" lon="6.19364">
        <ele>261.8</ele>
        <time>2019-08-17T12:46:01Z</time>
      </trkpt>
      <trkpt lat="47.28876" lon="6.19357">
        <ele>261.9</ele>
        <time>2019-08-17T12:46:02Z</time>
      </trkpt>
      <trkpt lat="47.28876" lon="6.1935">
        <ele>261.9</ele>
        <time>2019-08-17T12:46:03Z</time>
      </trkpt>
      <trkpt lat="47.28876" lon="6.19343">
        <ele>261.9</ele>
        <time>2019-08-17T12:46:04Z</time>
      </trkpt>
      <trkpt lat="47.28877" lon="6.19336">
        <ele>262</ele>
        <time>2019-08-17T12:46:05Z</time>
      </trkpt>
      <trkpt lat="47.28876" lon="6.19329">
        <ele>262</ele>
        <time>2019-08-17T12:46:06Z</time>
      </trkpt>
      <trkpt lat="47.28876" lon="6.19321">
        <ele>262</ele>
        <time>2019-08-17T12:46:07Z</time>
      </trkpt>
      <trkpt lat="47.28876" lon="6.19314">
        <ele>262</ele>
        <time>2019-08-17T12:46:08Z</time>
      </trkpt>
      <trkpt lat="47.28876" lon="6.19308">
        <ele>262.1</ele>
        <time>2019-08-17T12:46:09Z</time>
      </trkpt>
      <trkpt lat="47.28876" lon="6.193">
        <ele>262.1</ele>
        <time>2019-08-17T12:46:10Z</time>
      </trkpt>
      <trkpt lat="47.28876" lon="6.19293">
        <ele>262.1</ele>
        <time>2019-08-17T12:46:11Z</time>
      </trkpt>
      <trkpt lat="47.28875" lon="6.19285">
        <ele>262.1</ele>
        <time>2019-08-17T12:46:12Z</time>
      </trkpt>
      <trkpt lat="47.28874" lon="6.19278">
        <ele>262.1</ele>
        <time>2019-08-17T12:46:13Z</time>
      </trkpt>
      <trkpt lat="47.28873" lon="6.1927">
        <ele>262.2</ele>
        <time>2019-08-17T12:46:14Z</time>
      </trkpt>
      <trkpt lat="47.28871" lon="6.19262">
        <ele>262.2</ele>
        <time>2019-08-17T12:46:15Z</time>
      </trkpt>
      <trkpt lat="47.28871" lon="6.19255">
        <ele>262.2</ele>
        <time>2019-08-17T12:46:16Z</time>
      </trkpt>
      <trkpt lat="47.28871" lon="6.19248">
        <ele>262.2</ele>
        <time>2019-08-17T12:46:17Z</time>
      </trkpt>
      <trkpt lat="47.28871" lon="6.19241">
        <ele>262.2</ele>
        <time>2019-08-17T12:46:18Z</time>
      </trkpt>
      <trkpt lat="47.28871" lon="6.19234">
        <ele>262.3</ele>
        <time>2019-08-17T12:46:19Z</time>
      </trkpt>
      <trkpt lat="47.2887" lon="6.19227">
        <ele>262.3</ele>
        <time>2019-08-17T12:46:20Z</time>
      </trkpt>
      <trkpt lat="47.2887" lon="6.1922">
        <ele>262.3</ele>
        <time>2019-08-17T12:46:21Z</time>
      </trkpt>
      <trkpt lat="47.2887" lon="6.19213">
        <ele>262.3</ele>
        <time>2019-08-17T12:46:22Z</time>
      </trkpt>
      <trkpt lat="47.28869" lon="6.19206">
        <ele>262.3</ele>
        <time>2019-08-17T12:46:23Z</time>
      </trkpt>
      <trkpt lat="47.28868" lon="6.19198">
        <ele>262.3</ele>
        <time>2019-08-17T12:46:24Z</time>
      </trkpt>
      <trkpt lat="47.28867" lon="6.19189">
        <ele>262.3</ele>
        <time>2019-08-17T12:46:25Z</time>
      </trkpt>
      <trkpt lat="47.28868" lon="6.19181">
        <ele>262.4</ele>
        <time>2019-08-17T12:46:26Z</time>
      </trkpt>
      <trkpt lat="47.28869" lon="6.19173">
        <ele>262.4</ele>
        <time>2019-08-17T12:46:27Z</time>
      </trkpt>
      <trkpt lat="47.28868" lon="6.19163">
        <ele>262.4</ele>
        <time>2019-08-17T12:46:28Z</time>
      </trkpt>
      <trkpt lat="47.2887" lon="6.19157">
        <ele>262.4</ele>
        <time>2019-08-17T12:46:29Z</time>
      </trkpt>
      <trkpt lat="47.2887" lon="6.19151">
        <ele>262.4</ele>
        <time>2019-08-17T12:46:30Z</time>
      </trkpt>
      <trkpt lat="47.28871" lon="6.19143">
        <ele>262.5</ele>
        <time>2019-08-17T12:46:31Z</time>
      </trkpt>
      <trkpt lat="47.28871" lon="6.19135">
        <ele>262.5</ele>
        <time>2019-08-17T12:46:32Z</time>
      </trkpt>
      <trkpt lat="47.28873" lon="6.19127">
        <ele>262.5</ele>
        <time>2019-08-17T12:46:33Z</time>
      </trkpt>
      <trkpt lat="47.28873" lon="6.19119">
        <ele>262.5</ele>
        <time>2019-08-17T12:46:34Z</time>
      </trkpt>
      <trkpt lat="47.28874" lon="6.19111">
        <ele>262.5</ele>
        <time>2019-08-17T12:46:35Z</time>
      </trkpt>
      <trkpt lat="47.28874" lon="6.19102">
        <ele>262.5</ele>
        <time>2019-08-17T12:46:36Z</time>
      </trkpt>
      <trkpt lat="47.28874" lon="6.19094">
        <ele>262.5</ele>
        <time>2019-08-17T12:46:37Z</time>
      </trkpt>
      <trkpt lat="47.28874" lon="6.19085">
        <ele>262.5</ele>
        <time>2019-08-17T12:46:38Z</time>
      </trkpt>
      <trkpt lat="47.28874" lon="6.19076">
        <ele>262.4</ele>
        <time>2019-08-17T12:46:39Z</time>
      </trkpt>
      <trkpt lat="47.28874" lon="6.19068">
        <ele>262.4</ele>
        <time>2019-08-17T12:46:40Z</time>
      </trkpt>
      <trkpt lat="47.28873" lon="6.1906">
        <ele>262.3</ele>
        <time>2019-08-17T12:46:41Z</time>
      </trkpt>
      <trkpt lat="47.28874" lon="6.19052">
        <ele>262.3</ele>
        <time>2019-08-17T12:46:42Z</time>
      </trkpt>
      <trkpt lat="47.28874" lon="6.19044">
        <ele>262.2</ele>
        <time>2019-08-17T12:46:43Z</time>
      </trkpt>
      <trkpt lat="47.28875" lon="6.19038">
        <ele>262.1</ele>
        <time>2019-08-17T12:46:44Z</time>
      </trkpt>
      <trkpt lat="47.28876" lon="6.19031">
        <ele>262.1</ele>
        <time>2019-08-17T12:46:45Z</time>
      </trkpt>
      <trkpt lat="47.28876" lon="6.19025">
        <ele>262</ele>
        <time>2019-08-17T12:46:46Z</time>
      </trkpt>
      <trkpt lat="47.28876" lon="6.19017">
        <ele>261.9</ele>
        <time>2019-08-17T12:46:47Z</time>
      </trkpt>
      <trkpt lat="47.28876" lon="6.1901">
        <ele>261.8</ele>
        <time>2019-08-17T12:46:48Z</time>
      </trkpt>
      <trkpt lat="47.28876" lon="6.19002">
        <ele>261.7</ele>
        <time>2019-08-17T12:46:49Z</time>
      </trkpt>
      <trkpt lat="47.28876" lon="6.18995">
        <ele>261.7</ele>
        <time>2019-08-17T12:46:50Z</time>
      </trkpt>
      <trkpt lat="47.28877" lon="6.18988">
        <ele>261.6</ele>
        <time>2019-08-17T12:46:51Z</time>
      </trkpt>
      <trkpt lat="47.28877" lon="6.18981">
        <ele>261.5</ele>
        <time>2019-08-17T12:46:52Z</time>
      </trkpt>
      <trkpt lat="47.28879" lon="6.18975">
        <ele>261.4</ele>
        <time>2019-08-17T12:46:53Z</time>
      </trkpt>
      <trkpt lat="47.2888" lon="6.18969">
        <ele>261.3</ele>
        <time>2019-08-17T12:46:54Z</time>
      </trkpt>
      <trkpt lat="47.28881" lon="6.18962">
        <ele>261.3</ele>
        <time>2019-08-17T12:46:55Z</time>
      </trkpt>
      <trkpt lat="47.28882" lon="6.18954">
        <ele>261.1</ele>
        <time>2019-08-17T12:46:56Z</time>
      </trkpt>
      <trkpt lat="47.28884" lon="6.18947">
        <ele>261</ele>
        <time>2019-08-17T12:46:57Z</time>
      </trkpt>
      <trkpt lat="47.28885" lon="6.1894">
        <ele>260.9</ele>
        <time>2019-08-17T12:46:58Z</time>
      </trkpt>
      <trkpt lat="47.28887" lon="6.18933">
        <ele>260.8</ele>
        <time>2019-08-17T12:46:59Z</time>
      </trkpt>
      <trkpt lat="47.28889" lon="6.18926">
        <ele>260.7</ele>
        <time>2019-08-17T12:47:00Z</time>
      </trkpt>
      <trkpt lat="47.28889" lon="6.18916">
        <ele>260.6</ele>
        <time>2019-08-17T12:47:01Z</time>
      </trkpt>
      <trkpt lat="47.28889" lon="6.18908">
        <ele>260.4</ele>
        <time>2019-08-17T12:47:02Z</time>
      </trkpt>
      <trkpt lat="47.2889" lon="6.189">
        <ele>260.3</ele>
        <time>2019-08-17T12:47:03Z</time>
      </trkpt>
      <trkpt lat="47.28891" lon="6.18894">
        <ele>260.2</ele>
        <time>2019-08-17T12:47:04Z</time>
      </trkpt>
      <trkpt lat="47.28892" lon="6.18887">
        <ele>260.1</ele>
        <time>2019-08-17T12:47:05Z</time>
      </trkpt>
      <trkpt lat="47.28894" lon="6.18881">
        <ele>260</ele>
        <time>2019-08-17T12:47:06Z</time>
      </trkpt>
      <trkpt lat="47.28895" lon="6.18875">
        <ele>260</ele>
        <time>2019-08-17T12:47:07Z</time>
      </trkpt>
      <trkpt lat="47.28896" lon="6.18868">
        <ele>259.9</ele>
        <time>2019-08-17T12:47:08Z</time>
      </trkpt>
      <trkpt lat="47.28897" lon="6.18862">
        <ele>259.8</ele>
        <time>2019-08-17T12:47:09Z</time>
      </trkpt>
      <trkpt lat="47.28899" lon="6.18855">
        <ele>259.7</ele>
        <time>2019-08-17T12:47:10Z</time>
      </trkpt>
      <trkpt lat="47.28901" lon="6.18848">
        <ele>259.6</ele>
        <time>2019-08-17T12:47:11Z</time>
      </trkpt>
      <trkpt lat="47.28903" lon="6.1884">
        <ele>259.5</ele>
        <time>2019-08-17T12:47:12Z</time>
      </trkpt>
      <trkpt lat="47.28904" lon="6.18831">
        <ele>259.4</ele>
        <time>2019-08-17T12:47:13Z</time>
      </trkpt>
      <trkpt lat="47.28906" lon="6.18823">
        <ele>259.3</ele>
        <time>2019-08-17T12:47:14Z</time>
      </trkpt>
      <trkpt lat="47.28908" lon="6.18815">
        <ele>259.2</ele>
        <time>2019-08-17T12:47:15Z</time>
      </trkpt>
      <trkpt lat="47.28911" lon="6.18807">
        <ele>259.1</ele>
        <time>2019-08-17T12:47:16Z</time>
      </trkpt>
      <trkpt lat="47.28912" lon="6.18799">
        <ele>259.1</ele>
        <time>2019-08-17T12:47:17Z</time>
      </trkpt>
      <trkpt lat="47.28914" lon="6.18792">
        <ele>259</ele>
        <time>2019-08-17T12:47:18Z</time>
      </trkpt>
      <trkpt lat="47.28915" lon="6.18786">
        <ele>259</ele>
        <time>2019-08-17T12:47:19Z</time>
      </trkpt>
      <trkpt lat="47.28916" lon="6.1878">
        <ele>258.9</ele>
        <time>2019-08-17T12:47:20Z</time>
      </trkpt>
      <trkpt lat="47.28918" lon="6.18773">
        <ele>258.9</ele>
        <time>2019-08-17T12:47:21Z</time>
      </trkpt>
      <trkpt lat="47.28919" lon="6.18768">
        <ele>258.8</ele>
        <time>2019-08-17T12:47:22Z</time>
      </trkpt>
      <trkpt lat="47.2892" lon="6.18762">
        <ele>258.8</ele>
        <time>2019-08-17T12:47:23Z</time>
      </trkpt>
      <trkpt lat="47.28921" lon="6.18755">
        <ele>258.7</ele>
        <time>2019-08-17T12:47:24Z</time>
      </trkpt>
      <trkpt lat="47.28922" lon="6.18748">
        <ele>258.7</ele>
        <time>2019-08-17T12:47:25Z</time>
      </trkpt>
      <trkpt lat="47.28923" lon="6.18743">
        <ele>258.7</ele>
        <time>2019-08-17T12:47:26Z</time>
      </trkpt>
      <trkpt lat="47.28924" lon="6.18737">
        <ele>258.6</ele>
        <time>2019-08-17T12:47:27Z</time>
      </trkpt>
      <trkpt lat="47.28926" lon="6.18731">
        <ele>258.6</ele>
        <time>2019-08-17T12:47:28Z</time>
      </trkpt>
      <trkpt lat="47.28928" lon="6.18725">
        <ele>258.5</ele>
        <time>2019-08-17T12:47:29Z</time>
      </trkpt>
      <trkpt lat="47.2893" lon="6.18719">
        <ele>258.5</ele>
        <time>2019-08-17T12:47:30Z</time>
      </trkpt>
      <trkpt lat="47.28933" lon="6.18713">
        <ele>258.4</ele>
        <time>2019-08-17T12:47:31Z</time>
      </trkpt>
      <trkpt lat="47.28934" lon="6.18705">
        <ele>258.3</ele>
        <time>2019-08-17T12:47:32Z</time>
      </trkpt>
      <trkpt lat="47.28936" lon="6.18697">
        <ele>258.3</ele>
        <time>2019-08-17T12:47:33Z</time>
      </trkpt>
      <trkpt lat="47.28938" lon="6.1869">
        <ele>258.2</ele>
        <time>2019-08-17T12:47:34Z</time>
      </trkpt>
      <trkpt lat="47.28939" lon="6.18683">
        <ele>258.2</ele>
        <time>2019-08-17T12:47:35Z</time>
      </trkpt>
      <trkpt lat="47.2894" lon="6.18676">
        <ele>258.1</ele>
        <time>2019-08-17T12:47:36Z</time>
      </trkpt>
      <trkpt lat="47.28942" lon="6.18669">
        <ele>258.1</ele>
        <time>2019-08-17T12:47:37Z</time>
      </trkpt>
      <trkpt lat="47.28944" lon="6.18664">
        <ele>258.1</ele>
        <time>2019-08-17T12:47:38Z</time>
      </trkpt>
      <trkpt lat="47.28946" lon="6.18658">
        <ele>258</ele>
        <time>2019-08-17T12:47:39Z</time>
      </trkpt>
      <trkpt lat="47.28949" lon="6.18653">
        <ele>258</ele>
        <time>2019-08-17T12:47:40Z</time>
      </trkpt>
      <trkpt lat="47.28951" lon="6.18646">
        <ele>258</ele>
        <time>2019-08-17T12:47:41Z</time>
      </trkpt>
      <trkpt lat="47.28953" lon="6.1864">
        <ele>257.9</ele>
        <time>2019-08-17T12:47:42Z</time>
      </trkpt>
      <trkpt lat="47.28955" lon="6.18633">
        <ele>257.9</ele>
        <time>2019-08-17T12:47:43Z</time>
      </trkpt>
      <trkpt lat="47.28957" lon="6.18627">
        <ele>257.8</ele>
        <time>2019-08-17T12:47:44Z</time>
      </trkpt>
      <trkpt lat="47.28958" lon="6.1862">
        <ele>257.8</ele>
        <time>2019-08-17T12:47:45Z</time>
      </trkpt>
      <trkpt lat="47.28959" lon="6.18615">
        <ele>257.7</ele>
        <time>2019-08-17T12:47:46Z</time>
      </trkpt>
      <trkpt lat="47.28961" lon="6.1861">
        <ele>257.6</ele>
        <time>2019-08-17T12:47:47Z</time>
      </trkpt>
      <trkpt lat="47.28962" lon="6.18603">
        <ele>257.6</ele>
        <time>2019-08-17T12:47:48Z</time>
      </trkpt>
      <trkpt lat="47.28964" lon="6.18597">
        <ele>257.5</ele>
        <time>2019-08-17T12:47:49Z</time>
      </trkpt>
      <trkpt lat="47.28965" lon="6.18591">
        <ele>257.4</ele>
        <time>2019-08-17T12:47:50Z</time>
      </trkpt>
      <trkpt lat="47.28967" lon="6.18584">
        <ele>257.3</ele>
        <time>2019-08-17T12:47:51Z</time>
      </trkpt>
      <trkpt lat="47.28969" lon="6.18578">
        <ele>257.2</ele>
        <time>2019-08-17T12:47:52Z</time>
      </trkpt>
      <trkpt lat="47.2897" lon="6.18571">
        <ele>257.1</ele>
        <time>2019-08-17T12:47:53Z</time>
      </trkpt>
      <trkpt lat="47.28973" lon="6.18565">
        <ele>257.1</ele>
        <time>2019-08-17T12:47:54Z</time>
      </trkpt>
      <trkpt lat="47.28975" lon="6.1856">
        <ele>257</ele>
        <time>2019-08-17T12:47:55Z</time>
      </trkpt>
      <trkpt lat="47.28977" lon="6.18555">
        <ele>256.9</ele>
        <time>2019-08-17T12:47:56Z</time>
      </trkpt>
      <trkpt lat="47.28979" lon="6.1855">
        <ele>256.8</ele>
        <time>2019-08-17T12:47:57Z</time>
      </trkpt>
      <trkpt lat="47.28981" lon="6.18545">
        <ele>256.8</ele>
        <time>2019-08-17T12:47:58Z</time>
      </trkpt>
      <trkpt lat="47.28983" lon="6.18538">
        <ele>256.7</ele>
        <time>2019-08-17T12:47:59Z</time>
      </trkpt>
      <trkpt lat="47.28984" lon="6.18532">
        <ele>256.6</ele>
        <time>2019-08-17T12:48:00Z</time>
      </trkpt>
      <trkpt lat="47.28986" lon="6.18525">
        <ele>256.6</ele>
        <time>2019-08-17T12:48:01Z</time>
      </trkpt>
      <trkpt lat="47.28988" lon="6.18517">
        <ele>256.5</ele>
        <time>2019-08-17T12:48:02Z</time>
      </trkpt>
      <trkpt lat="47.28989" lon="6.18511">
        <ele>256.4</ele>
        <time>2019-08-17T12:48:03Z</time>
      </trkpt>
      <trkpt lat="47.28991" lon="6.18504">
        <ele>256.3</ele>
        <time>2019-08-17T12:48:04Z</time>
      </trkpt>
      <trkpt lat="47.28992" lon="6.18497">
        <ele>256.3</ele>
        <time>2019-08-17T12:48:05Z</time>
      </trkpt>
      <trkpt lat="47.28994" lon="6.1849">
        <ele>256.2</ele>
        <time>2019-08-17T12:48:06Z</time>
      </trkpt>
      <trkpt lat="47.28995" lon="6.18482">
        <ele>256.1</ele>
        <time>2019-08-17T12:48:07Z</time>
      </trkpt>
      <trkpt lat="47.28996" lon="6.18475">
        <ele>256</ele>
        <time>2019-08-17T12:48:08Z</time>
      </trkpt>
      <trkpt lat="47.28998" lon="6.18469">
        <ele>256</ele>
        <time>2019-08-17T12:48:09Z</time>
      </trkpt>
      <trkpt lat="47.29" lon="6.18463">
        <ele>256</ele>
        <time>2019-08-17T12:48:10Z</time>
      </trkpt>
      <trkpt lat="47.29003" lon="6.18457">
        <ele>255.9</ele>
        <time>2019-08-17T12:48:11Z</time>
      </trkpt>
      <trkpt lat="47.29004" lon="6.18451">
        <ele>255.9</ele>
        <time>2019-08-17T12:48:12Z</time>
      </trkpt>
      <trkpt lat="47.29006" lon="6.18445">
        <ele>255.8</ele>
        <time>2019-08-17T12:48:13Z</time>
      </trkpt>
      <trkpt lat="47.29008" lon="6.18439">
        <ele>255.8</ele>
        <time>2019-08-17T12:48:14Z</time>
      </trkpt>
      <trkpt lat="47.29011" lon="6.18433">
        <ele>255.8</ele>
        <time>2019-08-17T12:48:15Z</time>
      </trkpt>
      <trkpt lat="47.29012" lon="6.18426">
        <ele>255.7</ele>
        <time>2019-08-17T12:48:16Z</time>
      </trkpt>
      <trkpt lat="47.29014" lon="6.18419">
        <ele>255.7</ele>
        <time>2019-08-17T12:48:17Z</time>
      </trkpt>
      <trkpt lat="47.29016" lon="6.18412">
        <ele>255.7</ele>
        <time>2019-08-17T12:48:18Z</time>
      </trkpt>
      <trkpt lat="47.29018" lon="6.18405">
        <ele>255.6</ele>
        <time>2019-08-17T12:48:19Z</time>
      </trkpt>
      <trkpt lat="47.2902" lon="6.18399">
        <ele>255.6</ele>
        <time>2019-08-17T12:48:20Z</time>
      </trkpt>
      <trkpt lat="47.29022" lon="6.18393">
        <ele>255.6</ele>
        <time>2019-08-17T12:48:21Z</time>
      </trkpt>
      <trkpt lat="47.29023" lon="6.18388">
        <ele>255.6</ele>
        <time>2019-08-17T12:48:22Z</time>
      </trkpt>
      <trkpt lat="47.29025" lon="6.18381">
        <ele>255.6</ele>
        <time>2019-08-17T12:48:23Z</time>
      </trkpt>
      <trkpt lat="47.29026" lon="6.18375">
        <ele>255.6</ele>
        <time>2019-08-17T12:48:24Z</time>
      </trkpt>
      <trkpt lat="47.29027" lon="6.18369">
        <ele>255.7</ele>
        <time>2019-08-17T12:48:25Z</time>
      </trkpt>
      <trkpt lat="47.29028" lon="6.18363">
        <ele>255.7</ele>
        <time>2019-08-17T12:48:26Z</time>
      </trkpt>
      <trkpt lat="47.29029" lon="6.18357">
        <ele>255.7</ele>
        <time>2019-08-17T12:48:27Z</time>
      </trkpt>
      <trkpt lat="47.29031" lon="6.18349">
        <ele>255.7</ele>
        <time>2019-08-17T12:48:28Z</time>
      </trkpt>
      <trkpt lat="47.29032" lon="6.18342">
        <ele>255.8</ele>
        <time>2019-08-17T12:48:29Z</time>
      </trkpt>
      <trkpt lat="47.29034" lon="6.18335">
        <ele>255.8</ele>
        <time>2019-08-17T12:48:30Z</time>
      </trkpt>
      <trkpt lat="47.29036" lon="6.18328">
        <ele>255.9</ele>
        <time>2019-08-17T12:48:31Z</time>
      </trkpt>
      <trkpt lat="47.29037" lon="6.18322">
        <ele>255.9</ele>
        <time>2019-08-17T12:48:32Z</time>
      </trkpt>
      <trkpt lat="47.29038" lon="6.18314">
        <ele>256</ele>
        <time>2019-08-17T12:48:33Z</time>
      </trkpt>
      <trkpt lat="47.29039" lon="6.18308">
        <ele>256.1</ele>
        <time>2019-08-17T12:48:34Z</time>
      </trkpt>
      <trkpt lat="47.2904" lon="6.18301">
        <ele>256.1</ele>
        <time>2019-08-17T12:48:35Z</time>
      </trkpt>
      <trkpt lat="47.29043" lon="6.18294">
        <ele>256.2</ele>
        <time>2019-08-17T12:48:36Z</time>
      </trkpt>
      <trkpt lat="47.29045" lon="6.18288">
        <ele>256.3</ele>
        <time>2019-08-17T12:48:37Z</time>
      </trkpt>
      <trkpt lat="47.29047" lon="6.18281">
        <ele>256.4</ele>
        <time>2019-08-17T12:48:38Z</time>
      </trkpt>
      <trkpt lat="47.29049" lon="6.18275">
        <ele>256.5</ele>
        <time>2019-08-17T12:48:39Z</time>
      </trkpt>
      <trkpt lat="47.29052" lon="6.18269">
        <ele>256.6</ele>
        <time>2019-08-17T12:48:40Z</time>
      </trkpt>
      <trkpt lat="47.29054" lon="6.18263">
        <ele>256.6</ele>
        <time>2019-08-17T12:48:41Z</time>
      </trkpt>
      <trkpt lat="47.29055" lon="6.18256">
        <ele>256.7</ele>
        <time>2019-08-17T12:48:42Z</time>
      </trkpt>
      <trkpt lat="47.29057" lon="6.18249">
        <ele>256.8</ele>
        <time>2019-08-17T12:48:43Z</time>
      </trkpt>
      <trkpt lat="47.29059" lon="6.18242">
        <ele>256.8</ele>
        <time>2019-08-17T12:48:44Z</time>
      </trkpt>
      <trkpt lat="47.29061" lon="6.18236">
        <ele>256.9</ele>
        <time>2019-08-17T12:48:45Z</time>
      </trkpt>
      <trkpt lat="47.29062" lon="6.1823">
        <ele>257</ele>
        <time>2019-08-17T12:48:46Z</time>
      </trkpt>
      <trkpt lat="47.29063" lon="6.18223">
        <ele>257</ele>
        <time>2019-08-17T12:48:47Z</time>
      </trkpt>
      <trkpt lat="47.29064" lon="6.18216">
        <ele>257.1</ele>
        <time>2019-08-17T12:48:48Z</time>
      </trkpt>
      <trkpt lat="47.29065" lon="6.18209">
        <ele>257.1</ele>
        <time>2019-08-17T12:48:49Z</time>
      </trkpt>
      <trkpt lat="47.29067" lon="6.18201">
        <ele>257.2</ele>
        <time>2019-08-17T12:48:50Z</time>
      </trkpt>
      <trkpt lat="47.29069" lon="6.18194">
        <ele>257.3</ele>
        <time>2019-08-17T12:48:51Z</time>
      </trkpt>
      <trkpt lat="47.29071" lon="6.18188">
        <ele>257.3</ele>
        <time>2019-08-17T12:48:52Z</time>
      </trkpt>
      <trkpt lat="47.29072" lon="6.18182">
        <ele>257.4</ele>
        <time>2019-08-17T12:48:53Z</time>
      </trkpt>
      <trkpt lat="47.29074" lon="6.18176">
        <ele>257.4</ele>
        <time>2019-08-17T12:48:54Z</time>
      </trkpt>
      <trkpt lat="47.29075" lon="6.1817">
        <ele>257.4</ele>
        <time>2019-08-17T12:48:55Z</time>
      </trkpt>
      <trkpt lat="47.29076" lon="6.18164">
        <ele>257.5</ele>
        <time>2019-08-17T12:48:56Z</time>
      </trkpt>
      <trkpt lat="47.29078" lon="6.18158">
        <ele>257.5</ele>
        <time>2019-08-17T12:48:57Z</time>
      </trkpt>
      <trkpt lat="47.2908" lon="6.18152">
        <ele>257.5</ele>
        <time>2019-08-17T12:48:58Z</time>
      </trkpt>
      <trkpt lat="47.29081" lon="6.18146">
        <ele>257.6</ele>
        <time>2019-08-17T12:48:59Z</time>
      </trkpt>
      <trkpt lat="47.29082" lon="6.18139">
        <ele>257.6</ele>
        <time>2019-08-17T12:49:00Z</time>
      </trkpt>
      <trkpt lat="47.29084" lon="6.18133">
        <ele>257.7</ele>
        <time>2019-08-17T12:49:01Z</time>
      </trkpt>
      <trkpt lat="47.29084" lon="6.18125">
        <ele>257.7</ele>
        <time>2019-08-17T12:49:02Z</time>
      </trkpt>
      <trkpt lat="47.29085" lon="6.18117">
        <ele>257.8</ele>
        <time>2019-08-17T12:49:03Z</time>
      </trkpt>
      <trkpt lat="47.29086" lon="6.18109">
        <ele>257.9</ele>
        <time>2019-08-17T12:49:04Z</time>
      </trkpt>
      <trkpt lat="47.29087" lon="6.18101">
        <ele>257.9</ele>
        <time>2019-08-17T12:49:05Z</time>
      </trkpt>
      <trkpt lat="47.29088" lon="6.18094">
        <ele>258</ele>
        <time>2019-08-17T12:49:06Z</time>
      </trkpt>
      <trkpt lat="47.29089" lon="6.18087">
        <ele>258</ele>
        <time>2019-08-17T12:49:07Z</time>
      </trkpt>
      <trkpt lat="47.2909" lon="6.1808">
        <ele>258.1</ele>
        <time>2019-08-17T12:49:08Z</time>
      </trkpt>
      <trkpt lat="47.29091" lon="6.18074">
        <ele>258.1</ele>
        <time>2019-08-17T12:49:09Z</time>
      </trkpt>
      <trkpt lat="47.29091" lon="6.18067">
        <ele>258.2</ele>
        <time>2019-08-17T12:49:10Z</time>
      </trkpt>
      <trkpt lat="47.29091" lon="6.1806">
        <ele>258.2</ele>
        <time>2019-08-17T12:49:11Z</time>
      </trkpt>
      <trkpt lat="47.29091" lon="6.18053">
        <ele>258.3</ele>
        <time>2019-08-17T12:49:12Z</time>
      </trkpt>
      <trkpt lat="47.29091" lon="6.18047">
        <ele>258.3</ele>
        <time>2019-08-17T12:49:13Z</time>
      </trkpt>
      <trkpt lat="47.2909" lon="6.18038">
        <ele>258.4</ele>
        <time>2019-08-17T12:49:14Z</time>
      </trkpt>
      <trkpt lat="47.2909" lon="6.18031">
        <ele>258.4</ele>
        <time>2019-08-17T12:49:15Z</time>
      </trkpt>
      <trkpt lat="47.29089" lon="6.18024">
        <ele>258.5</ele>
        <time>2019-08-17T12:49:16Z</time>
      </trkpt>
      <trkpt lat="47.29089" lon="6.18018">
        <ele>258.6</ele>
        <time>2019-08-17T12:49:17Z</time>
      </trkpt>
      <trkpt lat="47.29088" lon="6.1801">
        <ele>258.6</ele>
        <time>2019-08-17T12:49:18Z</time>
      </trkpt>
      <trkpt lat="47.29088" lon="6.18003">
        <ele>258.7</ele>
        <time>2019-08-17T12:49:19Z</time>
      </trkpt>
      <trkpt lat="47.29087" lon="6.17995">
        <ele>258.8</ele>
        <time>2019-08-17T12:49:20Z</time>
      </trkpt>
      <trkpt lat="47.29087" lon="6.17988">
        <ele>258.8</ele>
        <time>2019-08-17T12:49:21Z</time>
      </trkpt>
      <trkpt lat="47.29087" lon="6.17981">
        <ele>258.9</ele>
        <time>2019-08-17T12:49:22Z</time>
      </trkpt>
      <trkpt lat="47.29086" lon="6.17974">
        <ele>258.9</ele>
        <time>2019-08-17T12:49:23Z</time>
      </trkpt>
      <trkpt lat="47.29085" lon="6.17967">
        <ele>259</ele>
        <time>2019-08-17T12:49:24Z</time>
      </trkpt>
      <trkpt lat="47.29083" lon="6.17961">
        <ele>259</ele>
        <time>2019-08-17T12:49:25Z</time>
      </trkpt>
      <trkpt lat="47.29082" lon="6.17955">
        <ele>259.1</ele>
        <time>2019-08-17T12:49:26Z</time>
      </trkpt>
      <trkpt lat="47.29081" lon="6.17949">
        <ele>259.1</ele>
        <time>2019-08-17T12:49:27Z</time>
      </trkpt>
      <trkpt lat="47.2908" lon="6.17942">
        <ele>259.1</ele>
        <time>2019-08-17T12:49:28Z</time>
      </trkpt>
      <trkpt lat="47.29078" lon="6.17936">
        <ele>259.2</ele>
        <time>2019-08-17T12:49:29Z</time>
      </trkpt>
      <trkpt lat="47.29077" lon="6.17929">
        <ele>259.2</ele>
        <time>2019-08-17T12:49:30Z</time>
      </trkpt>
      <trkpt lat="47.29075" lon="6.17923">
        <ele>259.3</ele>
        <time>2019-08-17T12:49:31Z</time>
      </trkpt>
      <trkpt lat="47.29074" lon="6.17916">
        <ele>259.3</ele>
        <time>2019-08-17T12:49:32Z</time>
      </trkpt>
      <trkpt lat="47.29073" lon="6.17911">
        <ele>259.3</ele>
        <time>2019-08-17T12:49:33Z</time>
      </trkpt>
      <trkpt lat="47.29073" lon="6.17905">
        <ele>259.3</ele>
        <time>2019-08-17T12:49:34Z</time>
      </trkpt>
      <trkpt lat="47.29073" lon="6.179">
        <ele>259.3</ele>
        <time>2019-08-17T12:49:35Z</time>
      </trkpt>
      <trkpt lat="47.29073" lon="6.17894">
        <ele>259.3</ele>
        <time>2019-08-17T12:49:36Z</time>
      </trkpt>
      <trkpt lat="47.29072" lon="6.17889">
        <ele>259.3</ele>
        <time>2019-08-17T12:49:37Z</time>
      </trkpt>
      <trkpt lat="47.29072" lon="6.17883">
        <ele>259.2</ele>
        <time>2019-08-17T12:49:38Z</time>
      </trkpt>
      <trkpt lat="47.29072" lon="6.17878">
        <ele>259.2</ele>
        <time>2019-08-17T12:49:39Z</time>
      </trkpt>
      <trkpt lat="47.29071" lon="6.17874">
        <ele>259.2</ele>
        <time>2019-08-17T12:49:40Z</time>
      </trkpt>
      <trkpt lat="47.29071" lon="6.17867">
        <ele>259.1</ele>
        <time>2019-08-17T12:49:41Z</time>
      </trkpt>
      <trkpt lat="47.2907" lon="6.1786">
        <ele>259</ele>
        <time>2019-08-17T12:49:42Z</time>
      </trkpt>
      <trkpt lat="47.2907" lon="6.17853">
        <ele>258.9</ele>
        <time>2019-08-17T12:49:43Z</time>
      </trkpt>
      <trkpt lat="47.29069" lon="6.17846">
        <ele>258.8</ele>
        <time>2019-08-17T12:49:44Z</time>
      </trkpt>
      <trkpt lat="47.29068" lon="6.17839">
        <ele>258.7</ele>
        <time>2019-08-17T12:49:45Z</time>
      </trkpt>
      <trkpt lat="47.29067" lon="6.17833">
        <ele>258.6</ele>
        <time>2019-08-17T12:49:46Z</time>
      </trkpt>
      <trkpt lat="47.29066" lon="6.17826">
        <ele>258.5</ele>
        <time>2019-08-17T12:49:47Z</time>
      </trkpt>
      <trkpt lat="47.29065" lon="6.17818">
        <ele>258.3</ele>
        <time>2019-08-17T12:49:48Z</time>
      </trkpt>
      <trkpt lat="47.29064" lon="6.17811">
        <ele>258.2</ele>
        <time>2019-08-17T12:49:49Z</time>
      </trkpt>
      <trkpt lat="47.29063" lon="6.17804">
        <ele>258.1</ele>
        <time>2019-08-17T12:49:50Z</time>
      </trkpt>
      <trkpt lat="47.29062" lon="6.17796">
        <ele>258</ele>
        <time>2019-08-17T12:49:51Z</time>
      </trkpt>
      <trkpt lat="47.29061" lon="6.17789">
        <ele>257.8</ele>
        <time>2019-08-17T12:49:52Z</time>
      </trkpt>
      <trkpt lat="47.2906" lon="6.17782">
        <ele>257.7</ele>
        <time>2019-08-17T12:49:53Z</time>
      </trkpt>
      <trkpt lat="47.29059" lon="6.17776">
        <ele>257.6</ele>
        <time>2019-08-17T12:49:54Z</time>
      </trkpt>
      <trkpt lat="47.29057" lon="6.1777">
        <ele>257.5</ele>
        <time>2019-08-17T12:49:55Z</time>
      </trkpt>
      <trkpt lat="47.29056" lon="6.17763">
        <ele>257.4</ele>
        <time>2019-08-17T12:49:56Z</time>
      </trkpt>
      <trkpt lat="47.29054" lon="6.17756">
        <ele>257.3</ele>
        <time>2019-08-17T12:49:57Z</time>
      </trkpt>
      <trkpt lat="47.29052" lon="6.17749">
        <ele>257.2</ele>
        <time>2019-08-17T12:49:58Z</time>
      </trkpt>
      <trkpt lat="47.29052" lon="6.17742">
        <ele>257.1</ele>
        <time>2019-08-17T12:49:59Z</time>
      </trkpt>
      <trkpt lat="47.2905" lon="6.17735">
        <ele>257</ele>
        <time>2019-08-17T12:50:00Z</time>
      </trkpt>
      <trkpt lat="47.29049" lon="6.17728">
        <ele>256.8</ele>
        <time>2019-08-17T12:50:01Z</time>
      </trkpt>
      <trkpt lat="47.29048" lon="6.17721">
        <ele>256.7</ele>
        <time>2019-08-17T12:50:02Z</time>
      </trkpt>
      <trkpt lat="47.29047" lon="6.17714">
        <ele>256.6</ele>
        <time>2019-08-17T12:50:03Z</time>
      </trkpt>
      <trkpt lat="47.29045" lon="6.17707">
        <ele>256.5</ele>
        <time>2019-08-17T12:50:04Z</time>
      </trkpt>
      <trkpt lat="47.29044" lon="6.17701">
        <ele>256.4</ele>
        <time>2019-08-17T12:50:05Z</time>
      </trkpt>
      <trkpt lat="47.29042" lon="6.17694">
        <ele>256.3</ele>
        <time>2019-08-17T12:50:06Z</time>
      </trkpt>
      <trkpt lat="47.2904" lon="6.17687">
        <ele>256.1</ele>
        <time>2019-08-17T12:50:07Z</time>
      </trkpt>
      <trkpt lat="47.29038" lon="6.1768">
        <ele>256</ele>
        <time>2019-08-17T12:50:08Z</time>
      </trkpt>
      <trkpt lat="47.29037" lon="6.17673">
        <ele>255.9</ele>
        <time>2019-08-17T12:50:09Z</time>
      </trkpt>
      <trkpt lat="47.29036" lon="6.17667">
        <ele>255.8</ele>
        <time>2019-08-17T12:50:10Z</time>
      </trkpt>
      <trkpt lat="47.29035" lon="6.1766">
        <ele>255.6</ele>
        <time>2019-08-17T12:50:11Z</time>
      </trkpt>
      <trkpt lat="47.29033" lon="6.17652">
        <ele>255.5</ele>
        <time>2019-08-17T12:50:12Z</time>
      </trkpt>
      <trkpt lat="47.29031" lon="6.17645">
        <ele>255.4</ele>
        <time>2019-08-17T12:50:13Z</time>
      </trkpt>
      <trkpt lat="47.29029" lon="6.17637">
        <ele>255.2</ele>
        <time>2019-08-17T12:50:14Z</time>
      </trkpt>
      <trkpt lat="47.29027" lon="6.1763">
        <ele>255.1</ele>
        <time>2019-08-17T12:50:15Z</time>
      </trkpt>
      <trkpt lat="47.29024" lon="6.17623">
        <ele>255</ele>
        <time>2019-08-17T12:50:16Z</time>
      </trkpt>
      <trkpt lat="47.29021" lon="6.17616">
        <ele>254.9</ele>
        <time>2019-08-17T12:50:17Z</time>
      </trkpt>
      <trkpt lat="47.29019" lon="6.17611">
        <ele>254.8</ele>
        <time>2019-08-17T12:50:18Z</time>
      </trkpt>
      <trkpt lat="47.29017" lon="6.17606">
        <ele>254.8</ele>
        <time>2019-08-17T12:50:19Z</time>
      </trkpt>
      <trkpt lat="47.29014" lon="6.176">
        <ele>254.7</ele>
        <time>2019-08-17T12:50:20Z</time>
      </trkpt>
      <trkpt lat="47.29009" lon="6.17595">
        <ele>254.7</ele>
        <time>2019-08-17T12:50:21Z</time>
      </trkpt>
      <trkpt lat="47.29006" lon="6.17589">
        <ele>254.7</ele>
        <time>2019-08-17T12:50:22Z</time>
      </trkpt>
      <trkpt lat="47.29005" lon="6.17584">
        <ele>254.6</ele>
        <time>2019-08-17T12:50:23Z</time>
      </trkpt>
      <trkpt lat="47.29005" lon="6.17579">
        <ele>254.6</ele>
        <time>2019-08-17T12:50:24Z</time>
      </trkpt>
      <trkpt lat="47.29006" lon="6.17573">
        <ele>254.6</ele>
        <time>2019-08-17T12:50:26Z</time>
      </trkpt>
      <trkpt lat="47.29008" lon="6.1757">
        <ele>257.2</ele>
        <time>2019-08-17T12:50:27Z</time>
      </trkpt>
      <trkpt lat="47.29011" lon="6.17568">
        <ele>257.2</ele>
        <time>2019-08-17T12:50:28Z</time>
      </trkpt>
      <trkpt lat="47.29013" lon="6.17565">
        <ele>257.2</ele>
        <time>2019-08-17T12:50:30Z</time>
      </trkpt>
      <trkpt lat="47.29016" lon="6.17556">
        <ele>257</ele>
        <time>2019-08-17T12:50:32Z</time>
      </trkpt>
      <trkpt lat="47.29014" lon="6.17549">
        <ele>256.4</ele>
        <time>2019-08-17T12:50:33Z</time>
      </trkpt>
      <trkpt lat="47.29011" lon="6.17543">
        <ele>255.8</ele>
        <time>2019-08-17T12:50:34Z</time>
      </trkpt>
      <trkpt lat="47.29007" lon="6.17536">
        <ele>255.2</ele>
        <time>2019-08-17T12:50:35Z</time>
      </trkpt>
      <trkpt lat="47.29003" lon="6.17529">
        <ele>254.7</ele>
        <time>2019-08-17T12:50:36Z</time>
      </trkpt>
      <trkpt lat="47.28999" lon="6.17523">
        <ele>254.3</ele>
        <time>2019-08-17T12:50:37Z</time>
      </trkpt>
      <trkpt lat="47.28996" lon="6.17518">
        <ele>253.9</ele>
        <time>2019-08-17T12:50:38Z</time>
      </trkpt>
      <trkpt lat="47.28992" lon="6.17513">
        <ele>253.7</ele>
        <time>2019-08-17T12:50:39Z</time>
      </trkpt>
      <trkpt lat="47.28989" lon="6.17509">
        <ele>253.6</ele>
        <time>2019-08-17T12:50:40Z</time>
      </trkpt>
      <trkpt lat="47.28986" lon="6.17504">
        <ele>253.4</ele>
        <time>2019-08-17T12:50:41Z</time>
      </trkpt>
      <trkpt lat="47.28983" lon="6.175">
        <ele>253.2</ele>
        <time>2019-08-17T12:50:42Z</time>
      </trkpt>
      <trkpt lat="47.28979" lon="6.17495">
        <ele>253.1</ele>
        <time>2019-08-17T12:50:43Z</time>
      </trkpt>
      <trkpt lat="47.28976" lon="6.17488">
        <ele>252.9</ele>
        <time>2019-08-17T12:50:44Z</time>
      </trkpt>
      <trkpt lat="47.28973" lon="6.17481">
        <ele>252.8</ele>
        <time>2019-08-17T12:50:45Z</time>
      </trkpt>
      <trkpt lat="47.2897" lon="6.17474">
        <ele>252.8</ele>
        <time>2019-08-17T12:50:46Z</time>
      </trkpt>
      <trkpt lat="47.28968" lon="6.17466">
        <ele>252.7</ele>
        <time>2019-08-17T12:50:47Z</time>
      </trkpt>
      <trkpt lat="47.28965" lon="6.17457">
        <ele>252.7</ele>
        <time>2019-08-17T12:50:48Z</time>
      </trkpt>
      <trkpt lat="47.28964" lon="6.17448">
        <ele>252.7</ele>
        <time>2019-08-17T12:50:49Z</time>
      </trkpt>
      <trkpt lat="47.28964" lon="6.17441">
        <ele>252.7</ele>
        <time>2019-08-17T12:50:50Z</time>
      </trkpt>
      <trkpt lat="47.28964" lon="6.17434">
        <ele>252.7</ele>
        <time>2019-08-17T12:50:51Z</time>
      </trkpt>
      <trkpt lat="47.28964" lon="6.17427">
        <ele>252.7</ele>
        <time>2019-08-17T12:50:52Z</time>
      </trkpt>
      <trkpt lat="47.28964" lon="6.17421">
        <ele>252.7</ele>
        <time>2019-08-17T12:50:53Z</time>
      </trkpt>
      <trkpt lat="47.28964" lon="6.17414">
        <ele>252.7</ele>
        <time>2019-08-17T12:50:54Z</time>
      </trkpt>
      <trkpt lat="47.28964" lon="6.17407">
        <ele>252.7</ele>
        <time>2019-08-17T12:50:55Z</time>
      </trkpt>
      <trkpt lat="47.28965" lon="6.17399">
        <ele>252.7</ele>
        <time>2019-08-17T12:50:56Z</time>
      </trkpt>
      <trkpt lat="47.28965" lon="6.17392">
        <ele>252.7</ele>
        <time>2019-08-17T12:50:57Z</time>
      </trkpt>
      <trkpt lat="47.28965" lon="6.17385">
        <ele>252.6</ele>
        <time>2019-08-17T12:50:58Z</time>
      </trkpt>
      <trkpt lat="47.28965" lon="6.17376">
        <ele>252.6</ele>
        <time>2019-08-17T12:50:59Z</time>
      </trkpt>
      <trkpt lat="47.28964" lon="6.17369">
        <ele>252.6</ele>
        <time>2019-08-17T12:51:00Z</time>
      </trkpt>
      <trkpt lat="47.28963" lon="6.17362">
        <ele>252.6</ele>
        <time>2019-08-17T12:51:01Z</time>
      </trkpt>
      <trkpt lat="47.28962" lon="6.17355">
        <ele>252.6</ele>
        <time>2019-08-17T12:51:02Z</time>
      </trkpt>
      <trkpt lat="47.28961" lon="6.1735">
        <ele>252.6</ele>
        <time>2019-08-17T12:51:03Z</time>
      </trkpt>
      <trkpt lat="47.28959" lon="6.17344">
        <ele>252.6</ele>
        <time>2019-08-17T12:51:04Z</time>
      </trkpt>
      <trkpt lat="47.28958" lon="6.17339">
        <ele>252.6</ele>
        <time>2019-08-17T12:51:05Z</time>
      </trkpt>
      <trkpt lat="47.28957" lon="6.17333">
        <ele>252.6</ele>
        <time>2019-08-17T12:51:06Z</time>
      </trkpt>
      <trkpt lat="47.28956" lon="6.17327">
        <ele>252.6</ele>
        <time>2019-08-17T12:51:07Z</time>
      </trkpt>
      <trkpt lat="47.28956" lon="6.1732">
        <ele>252.6</ele>
        <time>2019-08-17T12:51:08Z</time>
      </trkpt>
      <trkpt lat="47.28956" lon="6.17313">
        <ele>252.6</ele>
        <time>2019-08-17T12:51:09Z</time>
      </trkpt>
      <trkpt lat="47.28956" lon="6.17306">
        <ele>252.6</ele>
        <time>2019-08-17T12:51:10Z</time>
      </trkpt>
      <trkpt lat="47.28955" lon="6.17299">
        <ele>252.6</ele>
        <time>2019-08-17T12:51:11Z</time>
      </trkpt>
      <trkpt lat="47.28955" lon="6.17292">
        <ele>252.6</ele>
        <time>2019-08-17T12:51:12Z</time>
      </trkpt>
      <trkpt lat="47.28956" lon="6.17285">
        <ele>252.6</ele>
        <time>2019-08-17T12:51:13Z</time>
      </trkpt>
      <trkpt lat="47.28956" lon="6.17279">
        <ele>252.6</ele>
        <time>2019-08-17T12:51:14Z</time>
      </trkpt>
      <trkpt lat="47.28956" lon="6.17272">
        <ele>252.6</ele>
        <time>2019-08-17T12:51:15Z</time>
      </trkpt>
      <trkpt lat="47.28956" lon="6.17264">
        <ele>252.6</ele>
        <time>2019-08-17T12:51:16Z</time>
      </trkpt>
      <trkpt lat="47.28956" lon="6.17258">
        <ele>252.6</ele>
        <time>2019-08-17T12:51:17Z</time>
      </trkpt>
      <trkpt lat="47.28955" lon="6.1725">
        <ele>252.6</ele>
        <time>2019-08-17T12:51:18Z</time>
      </trkpt>
      <trkpt lat="47.28955" lon="6.17243">
        <ele>252.6</ele>
        <time>2019-08-17T12:51:19Z</time>
      </trkpt>
      <trkpt lat="47.28955" lon="6.17236">
        <ele>252.6</ele>
        <time>2019-08-17T12:51:20Z</time>
      </trkpt>
      <trkpt lat="47.28954" lon="6.17229">
        <ele>252.6</ele>
        <time>2019-08-17T12:51:21Z</time>
      </trkpt>
      <trkpt lat="47.28954" lon="6.17222">
        <ele>252.6</ele>
        <time>2019-08-17T12:51:22Z</time>
      </trkpt>
      <trkpt lat="47.28954" lon="6.17216">
        <ele>252.6</ele>
        <time>2019-08-17T12:51:23Z</time>
      </trkpt>
      <trkpt lat="47.28954" lon="6.17209">
        <ele>252.6</ele>
        <time>2019-08-17T12:51:24Z</time>
      </trkpt>
      <trkpt lat="47.28954" lon="6.17204">
        <ele>252.6</ele>
        <time>2019-08-17T12:51:25Z</time>
      </trkpt>
      <trkpt lat="47.28953" lon="6.17198">
        <ele>252.6</ele>
        <time>2019-08-17T12:51:26Z</time>
      </trkpt>
      <trkpt lat="47.28953" lon="6.17192">
        <ele>252.6</ele>
        <time>2019-08-17T12:51:27Z</time>
      </trkpt>
      <trkpt lat="47.28952" lon="6.17186">
        <ele>252.6</ele>
        <time>2019-08-17T12:51:28Z</time>
      </trkpt>
      <trkpt lat="47.28952" lon="6.17179">
        <ele>252.6</ele>
        <time>2019-08-17T12:51:29Z</time>
      </trkpt>
      <trkpt lat="47.28952" lon="6.1717">
        <ele>252.6</ele>
        <time>2019-08-17T12:51:30Z</time>
      </trkpt>
      <trkpt lat="47.28952" lon="6.17163">
        <ele>252.6</ele>
        <time>2019-08-17T12:51:31Z</time>
      </trkpt>
      <trkpt lat="47.28951" lon="6.17155">
        <ele>252.6</ele>
        <time>2019-08-17T12:51:32Z</time>
      </trkpt>
      <trkpt lat="47.28952" lon="6.17148">
        <ele>252.6</ele>
        <time>2019-08-17T12:51:33Z</time>
      </trkpt>
      <trkpt lat="47.28952" lon="6.17141">
        <ele>252.6</ele>
        <time>2019-08-17T12:51:34Z</time>
      </trkpt>
      <trkpt lat="47.28952" lon="6.17135">
        <ele>252.6</ele>
        <time>2019-08-17T12:51:35Z</time>
      </trkpt>
      <trkpt lat="47.28952" lon="6.1713">
        <ele>252.6</ele>
        <time>2019-08-17T12:51:36Z</time>
      </trkpt>
      <trkpt lat="47.28952" lon="6.17123">
        <ele>252.6</ele>
        <time>2019-08-17T12:51:37Z</time>
      </trkpt>
      <trkpt lat="47.28952" lon="6.17115">
        <ele>252.6</ele>
        <time>2019-08-17T12:51:38Z</time>
      </trkpt>
      <trkpt lat="47.28952" lon="6.17108">
        <ele>252.6</ele>
        <time>2019-08-17T12:51:39Z</time>
      </trkpt>
      <trkpt lat="47.28951" lon="6.17101">
        <ele>252.6</ele>
        <time>2019-08-17T12:51:40Z</time>
      </trkpt>
      <trkpt lat="47.28951" lon="6.17095">
        <ele>252.6</ele>
        <time>2019-08-17T12:51:41Z</time>
      </trkpt>
      <trkpt lat="47.2895" lon="6.17089">
        <ele>252.6</ele>
        <time>2019-08-17T12:51:42Z</time>
      </trkpt>
      <trkpt lat="47.28949" lon="6.17083">
        <ele>252.6</ele>
        <time>2019-08-17T12:51:43Z</time>
      </trkpt>
      <trkpt lat="47.28949" lon="6.17076">
        <ele>252.6</ele>
        <time>2019-08-17T12:51:44Z</time>
      </trkpt>
      <trkpt lat="47.28948" lon="6.17069">
        <ele>252.6</ele>
        <time>2019-08-17T12:51:45Z</time>
      </trkpt>
      <trkpt lat="47.28947" lon="6.17062">
        <ele>252.6</ele>
        <time>2019-08-17T12:51:46Z</time>
      </trkpt>
      <trkpt lat="47.28947" lon="6.17056">
        <ele>252.6</ele>
        <time>2019-08-17T12:51:47Z</time>
      </trkpt>
      <trkpt lat="47.28946" lon="6.1705">
        <ele>252.6</ele>
        <time>2019-08-17T12:51:48Z</time>
      </trkpt>
      <trkpt lat="47.28946" lon="6.17043">
        <ele>252.6</ele>
        <time>2019-08-17T12:51:49Z</time>
      </trkpt>
      <trkpt lat="47.28945" lon="6.17036">
        <ele>252.6</ele>
        <time>2019-08-17T12:51:50Z</time>
      </trkpt>
      <trkpt lat="47.28944" lon="6.17029">
        <ele>252.6</ele>
        <time>2019-08-17T12:51:51Z</time>
      </trkpt>
      <trkpt lat="47.28943" lon="6.17022">
        <ele>252.6</ele>
        <time>2019-08-17T12:51:52Z</time>
      </trkpt>
      <trkpt lat="47.28942" lon="6.17015">
        <ele>252.6</ele>
        <time>2019-08-17T12:51:53Z</time>
      </trkpt>
      <trkpt lat="47.28941" lon="6.17008">
        <ele>252.6</ele>
        <time>2019-08-17T12:51:54Z</time>
      </trkpt>
      <trkpt lat="47.2894" lon="6.17001">
        <ele>252.6</ele>
        <time>2019-08-17T12:51:55Z</time>
      </trkpt>
      <trkpt lat="47.28939" lon="6.16994">
        <ele>252.6</ele>
        <time>2019-08-17T12:51:56Z</time>
      </trkpt>
      <trkpt lat="47.28939" lon="6.16987">
        <ele>252.6</ele>
        <time>2019-08-17T12:51:57Z</time>
      </trkpt>
      <trkpt lat="47.28938" lon="6.1698">
        <ele>252.6</ele>
        <time>2019-08-17T12:51:58Z</time>
      </trkpt>
      <trkpt lat="47.28938" lon="6.16975">
        <ele>252.6</ele>
        <time>2019-08-17T12:51:59Z</time>
      </trkpt>
      <trkpt lat="47.28938" lon="6.16968">
        <ele>252.6</ele>
        <time>2019-08-17T12:52:00Z</time>
      </trkpt>
      <trkpt lat="47.28937" lon="6.16961">
        <ele>252.6</ele>
        <time>2019-08-17T12:52:01Z</time>
      </trkpt>
      <trkpt lat="47.28936" lon="6.16954">
        <ele>252.6</ele>
        <time>2019-08-17T12:52:02Z</time>
      </trkpt>
      <trkpt lat="47.28936" lon="6.16947">
        <ele>252.6</ele>
        <time>2019-08-17T12:52:03Z</time>
      </trkpt>
      <trkpt lat="47.28935" lon="6.16941">
        <ele>252.6</ele>
        <time>2019-08-17T12:52:04Z</time>
      </trkpt>
      <trkpt lat="47.28933" lon="6.16933">
        <ele>252.6</ele>
        <time>2019-08-17T12:52:05Z</time>
      </trkpt>
      <trkpt lat="47.28932" lon="6.16926">
        <ele>252.6</ele>
        <time>2019-08-17T12:52:06Z</time>
      </trkpt>
      <trkpt lat="47.28932" lon="6.1692">
        <ele>252.6</ele>
        <time>2019-08-17T12:52:07Z</time>
      </trkpt>
      <trkpt lat="47.28931" lon="6.16913">
        <ele>252.6</ele>
        <time>2019-08-17T12:52:08Z</time>
      </trkpt>
      <trkpt lat="47.2893" lon="6.16906">
        <ele>252.6</ele>
        <time>2019-08-17T12:52:09Z</time>
      </trkpt>
      <trkpt lat="47.28929" lon="6.16899">
        <ele>252.6</ele>
        <time>2019-08-17T12:52:10Z</time>
      </trkpt>
      <trkpt lat="47.28929" lon="6.16892">
        <ele>252.6</ele>
        <time>2019-08-17T12:52:11Z</time>
      </trkpt>
      <trkpt lat="47.28927" lon="6.16886">
        <ele>252.6</ele>
        <time>2019-08-17T12:52:12Z</time>
      </trkpt>
      <trkpt lat="47.28926" lon="6.16879">
        <ele>252.6</ele>
        <time>2019-08-17T12:52:13Z</time>
      </trkpt>
      <trkpt lat="47.28925" lon="6.16872">
        <ele>252.6</ele>
        <time>2019-08-17T12:52:14Z</time>
      </trkpt>
      <trkpt lat="47.28924" lon="6.16865">
        <ele>252.6</ele>
        <time>2019-08-17T12:52:15Z</time>
      </trkpt>
      <trkpt lat="47.28924" lon="6.16858">
        <ele>252.6</ele>
        <time>2019-08-17T12:52:16Z</time>
      </trkpt>
      <trkpt lat="47.28923" lon="6.16851">
        <ele>252.6</ele>
        <time>2019-08-17T12:52:17Z</time>
      </trkpt>
      <trkpt lat="47.28923" lon="6.16845">
        <ele>252.6</ele>
        <time>2019-08-17T12:52:18Z</time>
      </trkpt>
      <trkpt lat="47.28922" lon="6.16837">
        <ele>252.6</ele>
        <time>2019-08-17T12:52:19Z</time>
      </trkpt>
      <trkpt lat="47.28922" lon="6.1683">
        <ele>252.6</ele>
        <time>2019-08-17T12:52:20Z</time>
      </trkpt>
      <trkpt lat="47.2892" lon="6.16822">
        <ele>252.6</ele>
        <time>2019-08-17T12:52:21Z</time>
      </trkpt>
      <trkpt lat="47.28919" lon="6.16815">
        <ele>252.6</ele>
        <time>2019-08-17T12:52:22Z</time>
      </trkpt>
      <trkpt lat="47.28918" lon="6.16807">
        <ele>252.6</ele>
        <time>2019-08-17T12:52:23Z</time>
      </trkpt>
      <trkpt lat="47.28917" lon="6.168">
        <ele>252.6</ele>
        <time>2019-08-17T12:52:24Z</time>
      </trkpt>
      <trkpt lat="47.28916" lon="6.16792">
        <ele>252.6</ele>
        <time>2019-08-17T12:52:25Z</time>
      </trkpt>
      <trkpt lat="47.28915" lon="6.16786">
        <ele>252.6</ele>
        <time>2019-08-17T12:52:26Z</time>
      </trkpt>
      <trkpt lat="47.28915" lon="6.16779">
        <ele>252.6</ele>
        <time>2019-08-17T12:52:27Z</time>
      </trkpt>
      <trkpt lat="47.28915" lon="6.16773">
        <ele>252.6</ele>
        <time>2019-08-17T12:52:28Z</time>
      </trkpt>
      <trkpt lat="47.28916" lon="6.16767">
        <ele>252.6</ele>
        <time>2019-08-17T12:52:29Z</time>
      </trkpt>
      <trkpt lat="47.28916" lon="6.1676">
        <ele>252.6</ele>
        <time>2019-08-17T12:52:30Z</time>
      </trkpt>
      <trkpt lat="47.28916" lon="6.16754">
        <ele>252.6</ele>
        <time>2019-08-17T12:52:31Z</time>
      </trkpt>
      <trkpt lat="47.28915" lon="6.16747">
        <ele>252.6</ele>
        <time>2019-08-17T12:52:32Z</time>
      </trkpt>
      <trkpt lat="47.28914" lon="6.1674">
        <ele>252.6</ele>
        <time>2019-08-17T12:52:33Z</time>
      </trkpt>
      <trkpt lat="47.28914" lon="6.16734">
        <ele>252.6</ele>
        <time>2019-08-17T12:52:34Z</time>
      </trkpt>
      <trkpt lat="47.28914" lon="6.16727">
        <ele>252.6</ele>
        <time>2019-08-17T12:52:35Z</time>
      </trkpt>
      <trkpt lat="47.28914" lon="6.1672">
        <ele>252.6</ele>
        <time>2019-08-17T12:52:36Z</time>
      </trkpt>
      <trkpt lat="47.28914" lon="6.16713">
        <ele>252.6</ele>
        <time>2019-08-17T12:52:37Z</time>
      </trkpt>
      <trkpt lat="47.28913" lon="6.16706">
        <ele>252.6</ele>
        <time>2019-08-17T12:52:38Z</time>
      </trkpt>
      <trkpt lat="47.28913" lon="6.16699">
        <ele>252.6</ele>
        <time>2019-08-17T12:52:39Z</time>
      </trkpt>
      <trkpt lat="47.28914" lon="6.16692">
        <ele>252.6</ele>
        <time>2019-08-17T12:52:40Z</time>
      </trkpt>
      <trkpt lat="47.28914" lon="6.16685">
        <ele>252.6</ele>
        <time>2019-08-17T12:52:41Z</time>
      </trkpt>
      <trkpt lat="47.28914" lon="6.16679">
        <ele>252.6</ele>
        <time>2019-08-17T12:52:42Z</time>
      </trkpt>
      <trkpt lat="47.28914" lon="6.16672">
        <ele>252.6</ele>
        <time>2019-08-17T12:52:43Z</time>
      </trkpt>
      <trkpt lat="47.28913" lon="6.16665">
        <ele>252.6</ele>
        <time>2019-08-17T12:52:44Z</time>
      </trkpt>
      <trkpt lat="47.28913" lon="6.16658">
        <ele>252.6</ele>
        <time>2019-08-17T12:52:45Z</time>
      </trkpt>
      <trkpt lat="47.28913" lon="6.16652">
        <ele>252.6</ele>
        <time>2019-08-17T12:52:46Z</time>
      </trkpt>
      <trkpt lat="47.28912" lon="6.16646">
        <ele>252.6</ele>
        <time>2019-08-17T12:52:47Z</time>
      </trkpt>
      <trkpt lat="47.28912" lon="6.1664">
        <ele>252.6</ele>
        <time>2019-08-17T12:52:48Z</time>
      </trkpt>
      <trkpt lat="47.28912" lon="6.16636">
        <ele>252.6</ele>
        <time>2019-08-17T12:52:49Z</time>
      </trkpt>
      <trkpt lat="47.28912" lon="6.16631">
        <ele>252.6</ele>
        <time>2019-08-17T12:52:50Z</time>
      </trkpt>
      <trkpt lat="47.28911" lon="6.16626">
        <ele>252.6</ele>
        <time>2019-08-17T12:52:51Z</time>
      </trkpt>
      <trkpt lat="47.28911" lon="6.16621">
        <ele>252.6</ele>
        <time>2019-08-17T12:52:52Z</time>
      </trkpt>
      <trkpt lat="47.28911" lon="6.16616">
        <ele>252.6</ele>
        <time>2019-08-17T12:52:53Z</time>
      </trkpt>
      <trkpt lat="47.28911" lon="6.16611">
        <ele>252.6</ele>
        <time>2019-08-17T12:52:54Z</time>
      </trkpt>
      <trkpt lat="47.28911" lon="6.16605">
        <ele>252.6</ele>
        <time>2019-08-17T12:52:55Z</time>
      </trkpt>
      <trkpt lat="47.28911" lon="6.16598">
        <ele>252.6</ele>
        <time>2019-08-17T12:52:56Z</time>
      </trkpt>
      <trkpt lat="47.2891" lon="6.16592">
        <ele>252.6</ele>
        <time>2019-08-17T12:52:57Z</time>
      </trkpt>
      <trkpt lat="47.2891" lon="6.16585">
        <ele>252.6</ele>
        <time>2019-08-17T12:52:58Z</time>
      </trkpt>
      <trkpt lat="47.28909" lon="6.16579">
        <ele>252.6</ele>
        <time>2019-08-17T12:52:59Z</time>
      </trkpt>
      <trkpt lat="47.28909" lon="6.16572">
        <ele>252.6</ele>
        <time>2019-08-17T12:53:00Z</time>
      </trkpt>
      <trkpt lat="47.28908" lon="6.16564">
        <ele>252.6</ele>
        <time>2019-08-17T12:53:01Z</time>
      </trkpt>
      <trkpt lat="47.28908" lon="6.16557">
        <ele>252.6</ele>
        <time>2019-08-17T12:53:02Z</time>
      </trkpt>
      <trkpt lat="47.28907" lon="6.16551">
        <ele>252.6</ele>
        <time>2019-08-17T12:53:03Z</time>
      </trkpt>
      <trkpt lat="47.28907" lon="6.16544">
        <ele>252.6</ele>
        <time>2019-08-17T12:53:04Z</time>
      </trkpt>
      <trkpt lat="47.28907" lon="6.16538">
        <ele>252.6</ele>
        <time>2019-08-17T12:53:05Z</time>
      </trkpt>
      <trkpt lat="47.28907" lon="6.16533">
        <ele>252.6</ele>
        <time>2019-08-17T12:53:06Z</time>
      </trkpt>
      <trkpt lat="47.28907" lon="6.16527">
        <ele>252.6</ele>
        <time>2019-08-17T12:53:07Z</time>
      </trkpt>
      <trkpt lat="47.28906" lon="6.16522">
        <ele>252.6</ele>
        <time>2019-08-17T12:53:08Z</time>
      </trkpt>
      <trkpt lat="47.28906" lon="6.16515">
        <ele>252.6</ele>
        <time>2019-08-17T12:53:09Z</time>
      </trkpt>
      <trkpt lat="47.28906" lon="6.16508">
        <ele>252.6</ele>
        <time>2019-08-17T12:53:10Z</time>
      </trkpt>
      <trkpt lat="47.28905" lon="6.16501">
        <ele>252.6</ele>
        <time>2019-08-17T12:53:11Z</time>
      </trkpt>
      <trkpt lat="47.28904" lon="6.16495">
        <ele>252.6</ele>
        <time>2019-08-17T12:53:12Z</time>
      </trkpt>
      <trkpt lat="47.28904" lon="6.16488">
        <ele>252.6</ele>
        <time>2019-08-17T12:53:13Z</time>
      </trkpt>
      <trkpt lat="47.28904" lon="6.16481">
        <ele>252.6</ele>
        <time>2019-08-17T12:53:14Z</time>
      </trkpt>
      <trkpt lat="47.28903" lon="6.16475">
        <ele>252.6</ele>
        <time>2019-08-17T12:53:15Z</time>
      </trkpt>
      <trkpt lat="47.28902" lon="6.16468">
        <ele>252.6</ele>
        <time>2019-08-17T12:53:16Z</time>
      </trkpt>
      <trkpt lat="47.28902" lon="6.16462">
        <ele>252.6</ele>
        <time>2019-08-17T12:53:17Z</time>
      </trkpt>
      <trkpt lat="47.28902" lon="6.16454">
        <ele>252.6</ele>
        <time>2019-08-17T12:53:18Z</time>
      </trkpt>
      <trkpt lat="47.28901" lon="6.16447">
        <ele>252.6</ele>
        <time>2019-08-17T12:53:19Z</time>
      </trkpt>
      <trkpt lat="47.289" lon="6.1644">
        <ele>252.6</ele>
        <time>2019-08-17T12:53:20Z</time>
      </trkpt>
      <trkpt lat="47.28899" lon="6.16433">
        <ele>252.6</ele>
        <time>2019-08-17T12:53:21Z</time>
      </trkpt>
      <trkpt lat="47.28899" lon="6.16426">
        <ele>252.6</ele>
        <time>2019-08-17T12:53:22Z</time>
      </trkpt>
      <trkpt lat="47.28898" lon="6.16419">
        <ele>252.6</ele>
        <time>2019-08-17T12:53:23Z</time>
      </trkpt>
      <trkpt lat="47.28898" lon="6.16413">
        <ele>252.6</ele>
        <time>2019-08-17T12:53:24Z</time>
      </trkpt>
      <trkpt lat="47.28898" lon="6.16406">
        <ele>252.6</ele>
        <time>2019-08-17T12:53:25Z</time>
      </trkpt>
      <trkpt lat="47.28897" lon="6.16399">
        <ele>252.6</ele>
        <time>2019-08-17T12:53:26Z</time>
      </trkpt>
      <trkpt lat="47.28896" lon="6.16392">
        <ele>252.6</ele>
        <time>2019-08-17T12:53:27Z</time>
      </trkpt>
      <trkpt lat="47.28895" lon="6.16386">
        <ele>252.6</ele>
        <time>2019-08-17T12:53:28Z</time>
      </trkpt>
      <trkpt lat="47.28894" lon="6.16379">
        <ele>252.6</ele>
        <time>2019-08-17T12:53:29Z</time>
      </trkpt>
      <trkpt lat="47.28893" lon="6.16372">
        <ele>252.6</ele>
        <time>2019-08-17T12:53:30Z</time>
      </trkpt>
      <trkpt lat="47.28892" lon="6.16366">
        <ele>252.6</ele>
        <time>2019-08-17T12:53:31Z</time>
      </trkpt>
      <trkpt lat="47.28891" lon="6.16359">
        <ele>252.5</ele>
        <time>2019-08-17T12:53:32Z</time>
      </trkpt>
      <trkpt lat="47.28891" lon="6.16352">
        <ele>252.5</ele>
        <time>2019-08-17T12:53:33Z</time>
      </trkpt>
      <trkpt lat="47.2889" lon="6.16344">
        <ele>252.4</ele>
        <time>2019-08-17T12:53:34Z</time>
      </trkpt>
      <trkpt lat="47.28889" lon="6.16337">
        <ele>252.3</ele>
        <time>2019-08-17T12:53:35Z</time>
      </trkpt>
      <trkpt lat="47.28888" lon="6.1633">
        <ele>252.2</ele>
        <time>2019-08-17T12:53:36Z</time>
      </trkpt>
      <trkpt lat="47.28887" lon="6.16322">
        <ele>252.1</ele>
        <time>2019-08-17T12:53:37Z</time>
      </trkpt>
      <trkpt lat="47.28886" lon="6.16315">
        <ele>252</ele>
        <time>2019-08-17T12:53:38Z</time>
      </trkpt>
      <trkpt lat="47.28885" lon="6.16308">
        <ele>251.9</ele>
        <time>2019-08-17T12:53:39Z</time>
      </trkpt>
      <trkpt lat="47.28884" lon="6.16302">
        <ele>251.8</ele>
        <time>2019-08-17T12:53:40Z</time>
      </trkpt>
      <trkpt lat="47.28883" lon="6.16295">
        <ele>251.7</ele>
        <time>2019-08-17T12:53:41Z</time>
      </trkpt>
      <trkpt lat="47.28882" lon="6.16287">
        <ele>251.7</ele>
        <time>2019-08-17T12:53:42Z</time>
      </trkpt>
      <trkpt lat="47.28881" lon="6.1628">
        <ele>251.6</ele>
        <time>2019-08-17T12:53:43Z</time>
      </trkpt>
      <trkpt lat="47.2888" lon="6.16273">
        <ele>251.6</ele>
        <time>2019-08-17T12:53:44Z</time>
      </trkpt>
      <trkpt lat="47.28879" lon="6.16265">
        <ele>251.6</ele>
        <time>2019-08-17T12:53:45Z</time>
      </trkpt>
      <trkpt lat="47.28879" lon="6.16258">
        <ele>251.6</ele>
        <time>2019-08-17T12:53:46Z</time>
      </trkpt>
      <trkpt lat="47.28879" lon="6.16251">
        <ele>251.6</ele>
        <time>2019-08-17T12:53:47Z</time>
      </trkpt>
      <trkpt lat="47.28878" lon="6.16244">
        <ele>251.6</ele>
        <time>2019-08-17T12:53:48Z</time>
      </trkpt>
      <trkpt lat="47.28877" lon="6.16237">
        <ele>251.6</ele>
        <time>2019-08-17T12:53:49Z</time>
      </trkpt>
      <trkpt lat="47.28877" lon="6.16229">
        <ele>251.6</ele>
        <time>2019-08-17T12:53:50Z</time>
      </trkpt>
      <trkpt lat="47.28877" lon="6.16222">
        <ele>251.6</ele>
        <time>2019-08-17T12:53:51Z</time>
      </trkpt>
      <trkpt lat="47.28876" lon="6.16215">
        <ele>251.6</ele>
        <time>2019-08-17T12:53:52Z</time>
      </trkpt>
      <trkpt lat="47.28876" lon="6.16209">
        <ele>251.6</ele>
        <time>2019-08-17T12:53:53Z</time>
      </trkpt>
      <trkpt lat="47.28875" lon="6.16203">
        <ele>251.6</ele>
        <time>2019-08-17T12:53:54Z</time>
      </trkpt>
      <trkpt lat="47.28874" lon="6.16196">
        <ele>251.6</ele>
        <time>2019-08-17T12:53:55Z</time>
      </trkpt>
      <trkpt lat="47.28874" lon="6.1619">
        <ele>251.6</ele>
        <time>2019-08-17T12:53:56Z</time>
      </trkpt>
      <trkpt lat="47.28873" lon="6.16184">
        <ele>251.6</ele>
        <time>2019-08-17T12:53:57Z</time>
      </trkpt>
      <trkpt lat="47.28871" lon="6.16177">
        <ele>251.6</ele>
        <time>2019-08-17T12:53:58Z</time>
      </trkpt>
      <trkpt lat="47.2887" lon="6.16169">
        <ele>251.6</ele>
        <time>2019-08-17T12:53:59Z</time>
      </trkpt>
      <trkpt lat="47.28869" lon="6.16162">
        <ele>251.6</ele>
        <time>2019-08-17T12:54:00Z</time>
      </trkpt>
      <trkpt lat="47.28868" lon="6.16155">
        <ele>251.6</ele>
        <time>2019-08-17T12:54:01Z</time>
      </trkpt>
      <trkpt lat="47.28866" lon="6.16148">
        <ele>251.6</ele>
        <time>2019-08-17T12:54:02Z</time>
      </trkpt>
      <trkpt lat="47.28865" lon="6.16141">
        <ele>251.6</ele>
        <time>2019-08-17T12:54:03Z</time>
      </trkpt>
      <trkpt lat="47.28863" lon="6.16135">
        <ele>251.6</ele>
        <time>2019-08-17T12:54:04Z</time>
      </trkpt>
      <trkpt lat="47.28861" lon="6.16128">
        <ele>251.6</ele>
        <time>2019-08-17T12:54:05Z</time>
      </trkpt>
      <trkpt lat="47.2886" lon="6.16122">
        <ele>251.6</ele>
        <time>2019-08-17T12:54:06Z</time>
      </trkpt>
      <trkpt lat="47.28859" lon="6.16115">
        <ele>251.6</ele>
        <time>2019-08-17T12:54:07Z</time>
      </trkpt>
      <trkpt lat="47.28858" lon="6.16108">
        <ele>251.6</ele>
        <time>2019-08-17T12:54:08Z</time>
      </trkpt>
      <trkpt lat="47.28857" lon="6.16101">
        <ele>251.6</ele>
        <time>2019-08-17T12:54:09Z</time>
      </trkpt>
      <trkpt lat="47.28857" lon="6.16095">
        <ele>251.6</ele>
        <time>2019-08-17T12:54:10Z</time>
      </trkpt>
      <trkpt lat="47.28856" lon="6.16088">
        <ele>251.6</ele>
        <time>2019-08-17T12:54:11Z</time>
      </trkpt>
      <trkpt lat="47.28856" lon="6.16081">
        <ele>251.6</ele>
        <time>2019-08-17T12:54:12Z</time>
      </trkpt>
      <trkpt lat="47.28855" lon="6.16075">
        <ele>251.6</ele>
        <time>2019-08-17T12:54:13Z</time>
      </trkpt>
      <trkpt lat="47.28855" lon="6.16068">
        <ele>251.6</ele>
        <time>2019-08-17T12:54:14Z</time>
      </trkpt>
      <trkpt lat="47.28854" lon="6.16061">
        <ele>251.6</ele>
        <time>2019-08-17T12:54:15Z</time>
      </trkpt>
      <trkpt lat="47.28854" lon="6.16054">
        <ele>251.6</ele>
        <time>2019-08-17T12:54:16Z</time>
      </trkpt>
      <trkpt lat="47.28854" lon="6.16048">
        <ele>251.6</ele>
        <time>2019-08-17T12:54:17Z</time>
      </trkpt>
      <trkpt lat="47.28854" lon="6.16041">
        <ele>251.6</ele>
        <time>2019-08-17T12:54:18Z</time>
      </trkpt>
      <trkpt lat="47.28854" lon="6.16035">
        <ele>251.6</ele>
        <time>2019-08-17T12:54:19Z</time>
      </trkpt>
      <trkpt lat="47.28853" lon="6.16029">
        <ele>251.6</ele>
        <time>2019-08-17T12:54:20Z</time>
      </trkpt>
      <trkpt lat="47.28852" lon="6.16022">
        <ele>251.6</ele>
        <time>2019-08-17T12:54:21Z</time>
      </trkpt>
      <trkpt lat="47.28851" lon="6.16015">
        <ele>251.6</ele>
        <time>2019-08-17T12:54:22Z</time>
      </trkpt>
      <trkpt lat="47.2885" lon="6.16008">
        <ele>251.6</ele>
        <time>2019-08-17T12:54:23Z</time>
      </trkpt>
      <trkpt lat="47.28849" lon="6.16">
        <ele>251.6</ele>
        <time>2019-08-17T12:54:24Z</time>
      </trkpt>
      <trkpt lat="47.28848" lon="6.15994">
        <ele>251.6</ele>
        <time>2019-08-17T12:54:25Z</time>
      </trkpt>
      <trkpt lat="47.28848" lon="6.15987">
        <ele>251.6</ele>
        <time>2019-08-17T12:54:26Z</time>
      </trkpt>
      <trkpt lat="47.28847" lon="6.15981">
        <ele>251.6</ele>
        <time>2019-08-17T12:54:27Z</time>
      </trkpt>
      <trkpt lat="47.28846" lon="6.15974">
        <ele>251.6</ele>
        <time>2019-08-17T12:54:28Z</time>
      </trkpt>
      <trkpt lat="47.28845" lon="6.15968">
        <ele>251.6</ele>
        <time>2019-08-17T12:54:29Z</time>
      </trkpt>
      <trkpt lat="47.28845" lon="6.15962">
        <ele>251.6</ele>
        <time>2019-08-17T12:54:30Z</time>
      </trkpt>
      <trkpt lat="47.28844" lon="6.15956">
        <ele>251.6</ele>
        <time>2019-08-17T12:54:31Z</time>
      </trkpt>
      <trkpt lat="47.28843" lon="6.1595">
        <ele>251.6</ele>
        <time>2019-08-17T12:54:32Z</time>
      </trkpt>
      <trkpt lat="47.28842" lon="6.15943">
        <ele>251.6</ele>
        <time>2019-08-17T12:54:33Z</time>
      </trkpt>
      <trkpt lat="47.28841" lon="6.15936">
        <ele>251.6</ele>
        <time>2019-08-17T12:54:34Z</time>
      </trkpt>
      <trkpt lat="47.2884" lon="6.15929">
        <ele>251.6</ele>
        <time>2019-08-17T12:54:35Z</time>
      </trkpt>
      <trkpt lat="47.28839" lon="6.15922">
        <ele>251.6</ele>
        <time>2019-08-17T12:54:36Z</time>
      </trkpt>
      <trkpt lat="47.28838" lon="6.15915">
        <ele>251.6</ele>
        <time>2019-08-17T12:54:37Z</time>
      </trkpt>
      <trkpt lat="47.28837" lon="6.15909">
        <ele>251.6</ele>
        <time>2019-08-17T12:54:38Z</time>
      </trkpt>
      <trkpt lat="47.28836" lon="6.15902">
        <ele>251.6</ele>
        <time>2019-08-17T12:54:39Z</time>
      </trkpt>
      <trkpt lat="47.28835" lon="6.15895">
        <ele>251.6</ele>
        <time>2019-08-17T12:54:40Z</time>
      </trkpt>
      <trkpt lat="47.28834" lon="6.15889">
        <ele>251.6</ele>
        <time>2019-08-17T12:54:41Z</time>
      </trkpt>
      <trkpt lat="47.28833" lon="6.15882">
        <ele>251.6</ele>
        <time>2019-08-17T12:54:42Z</time>
      </trkpt>
      <trkpt lat="47.28832" lon="6.15875">
        <ele>251.6</ele>
        <time>2019-08-17T12:54:43Z</time>
      </trkpt>
      <trkpt lat="47.28832" lon="6.15869">
        <ele>251.6</ele>
        <time>2019-08-17T12:54:44Z</time>
      </trkpt>
      <trkpt lat="47.28831" lon="6.15863">
        <ele>251.6</ele>
        <time>2019-08-17T12:54:45Z</time>
      </trkpt>
      <trkpt lat="47.2883" lon="6.15858">
        <ele>251.6</ele>
        <time>2019-08-17T12:54:46Z</time>
      </trkpt>
      <trkpt lat="47.2883" lon="6.15852">
        <ele>251.6</ele>
        <time>2019-08-17T12:54:47Z</time>
      </trkpt>
      <trkpt lat="47.28829" lon="6.15845">
        <ele>251.6</ele>
        <time>2019-08-17T12:54:48Z</time>
      </trkpt>
      <trkpt lat="47.28828" lon="6.15838">
        <ele>251.6</ele>
        <time>2019-08-17T12:54:49Z</time>
      </trkpt>
      <trkpt lat="47.28827" lon="6.15832">
        <ele>251.6</ele>
        <time>2019-08-17T12:54:50Z</time>
      </trkpt>
      <trkpt lat="47.28826" lon="6.15825">
        <ele>251.6</ele>
        <time>2019-08-17T12:54:51Z</time>
      </trkpt>
      <trkpt lat="47.28825" lon="6.15818">
        <ele>251.6</ele>
        <time>2019-08-17T12:54:52Z</time>
      </trkpt>
      <trkpt lat="47.28824" lon="6.15811">
        <ele>251.6</ele>
        <time>2019-08-17T12:54:53Z</time>
      </trkpt>
      <trkpt lat="47.28822" lon="6.15804">
        <ele>251.6</ele>
        <time>2019-08-17T12:54:54Z</time>
      </trkpt>
      <trkpt lat="47.28821" lon="6.15798">
        <ele>251.6</ele>
        <time>2019-08-17T12:54:55Z</time>
      </trkpt>
      <trkpt lat="47.2882" lon="6.15791">
        <ele>251.6</ele>
        <time>2019-08-17T12:54:56Z</time>
      </trkpt>
      <trkpt lat="47.2882" lon="6.15786">
        <ele>251.6</ele>
        <time>2019-08-17T12:54:57Z</time>
      </trkpt>
      <trkpt lat="47.2882" lon="6.1578">
        <ele>251.6</ele>
        <time>2019-08-17T12:54:58Z</time>
      </trkpt>
      <trkpt lat="47.28819" lon="6.15775">
        <ele>251.7</ele>
        <time>2019-08-17T12:54:59Z</time>
      </trkpt>
      <trkpt lat="47.28819" lon="6.15769">
        <ele>251.7</ele>
        <time>2019-08-17T12:55:00Z</time>
      </trkpt>
      <trkpt lat="47.28818" lon="6.15762">
        <ele>251.8</ele>
        <time>2019-08-17T12:55:01Z</time>
      </trkpt>
      <trkpt lat="47.28816" lon="6.15756">
        <ele>251.8</ele>
        <time>2019-08-17T12:55:02Z</time>
      </trkpt>
      <trkpt lat="47.28815" lon="6.15749">
        <ele>251.9</ele>
        <time>2019-08-17T12:55:03Z</time>
      </trkpt>
      <trkpt lat="47.28814" lon="6.15743">
        <ele>252</ele>
        <time>2019-08-17T12:55:04Z</time>
      </trkpt>
      <trkpt lat="47.28814" lon="6.15737">
        <ele>252.1</ele>
        <time>2019-08-17T12:55:05Z</time>
      </trkpt>
      <trkpt lat="47.28813" lon="6.15732">
        <ele>252.2</ele>
        <time>2019-08-17T12:55:06Z</time>
      </trkpt>
      <trkpt lat="47.28812" lon="6.15726">
        <ele>252.2</ele>
        <time>2019-08-17T12:55:07Z</time>
      </trkpt>
      <trkpt lat="47.28811" lon="6.1572">
        <ele>252.3</ele>
        <time>2019-08-17T12:55:08Z</time>
      </trkpt>
      <trkpt lat="47.28811" lon="6.15714">
        <ele>252.4</ele>
        <time>2019-08-17T12:55:09Z</time>
      </trkpt>
      <trkpt lat="47.2881" lon="6.15709">
        <ele>252.4</ele>
        <time>2019-08-17T12:55:10Z</time>
      </trkpt>
      <trkpt lat="47.28808" lon="6.15704">
        <ele>252.5</ele>
        <time>2019-08-17T12:55:11Z</time>
      </trkpt>
      <trkpt lat="47.28807" lon="6.15698">
        <ele>252.5</ele>
        <time>2019-08-17T12:55:12Z</time>
      </trkpt>
      <trkpt lat="47.28806" lon="6.15692">
        <ele>252.5</ele>
        <time>2019-08-17T12:55:13Z</time>
      </trkpt>
      <trkpt lat="47.28805" lon="6.15687">
        <ele>252.5</ele>
        <time>2019-08-17T12:55:14Z</time>
      </trkpt>
      <trkpt lat="47.28804" lon="6.15681">
        <ele>252.6</ele>
        <time>2019-08-17T12:55:15Z</time>
      </trkpt>
      <trkpt lat="47.28803" lon="6.15676">
        <ele>252.6</ele>
        <time>2019-08-17T12:55:16Z</time>
      </trkpt>
      <trkpt lat="47.28803" lon="6.15672">
        <ele>252.6</ele>
        <time>2019-08-17T12:55:17Z</time>
      </trkpt>
      <trkpt lat="47.28803" lon="6.15667">
        <ele>252.6</ele>
        <time>2019-08-17T12:55:18Z</time>
      </trkpt>
      <trkpt lat="47.28802" lon="6.15662">
        <ele>252.6</ele>
        <time>2019-08-17T12:55:19Z</time>
      </trkpt>
      <trkpt lat="47.28801" lon="6.15657">
        <ele>252.6</ele>
        <time>2019-08-17T12:55:20Z</time>
      </trkpt>
      <trkpt lat="47.28799" lon="6.15651">
        <ele>252.6</ele>
        <time>2019-08-17T12:55:21Z</time>
      </trkpt>
      <trkpt lat="47.28798" lon="6.15645">
        <ele>252.6</ele>
        <time>2019-08-17T12:55:22Z</time>
      </trkpt>
      <trkpt lat="47.28796" lon="6.15639">
        <ele>252.6</ele>
        <time>2019-08-17T12:55:23Z</time>
      </trkpt>
      <trkpt lat="47.28796" lon="6.15633">
        <ele>252.6</ele>
        <time>2019-08-17T12:55:24Z</time>
      </trkpt>
      <trkpt lat="47.28795" lon="6.15627">
        <ele>252.6</ele>
        <time>2019-08-17T12:55:25Z</time>
      </trkpt>
      <trkpt lat="47.28794" lon="6.15622">
        <ele>252.6</ele>
        <time>2019-08-17T12:55:26Z</time>
      </trkpt>
      <trkpt lat="47.28793" lon="6.15616">
        <ele>252.6</ele>
        <time>2019-08-17T12:55:27Z</time>
      </trkpt>
      <trkpt lat="47.28793" lon="6.15611">
        <ele>252.6</ele>
        <time>2019-08-17T12:55:28Z</time>
      </trkpt>
      <trkpt lat="47.28791" lon="6.15606">
        <ele>252.6</ele>
        <time>2019-08-17T12:55:29Z</time>
      </trkpt>
      <trkpt lat="47.28789" lon="6.15599">
        <ele>252.6</ele>
        <time>2019-08-17T12:55:30Z</time>
      </trkpt>
      <trkpt lat="47.28787" lon="6.15593">
        <ele>252.6</ele>
        <time>2019-08-17T12:55:31Z</time>
      </trkpt>
      <trkpt lat="47.28786" lon="6.15586">
        <ele>252.6</ele>
        <time>2019-08-17T12:55:32Z</time>
      </trkpt>
      <trkpt lat="47.28784" lon="6.1558">
        <ele>252.6</ele>
        <time>2019-08-17T12:55:33Z</time>
      </trkpt>
      <trkpt lat="47.28784" lon="6.15572">
        <ele>252.6</ele>
        <time>2019-08-17T12:55:34Z</time>
      </trkpt>
      <trkpt lat="47.28783" lon="6.15565">
        <ele>252.6</ele>
        <time>2019-08-17T12:55:35Z</time>
      </trkpt>
      <trkpt lat="47.28783" lon="6.15558">
        <ele>252.6</ele>
        <time>2019-08-17T12:55:36Z</time>
      </trkpt>
      <trkpt lat="47.28782" lon="6.15553">
        <ele>252.6</ele>
        <time>2019-08-17T12:55:37Z</time>
      </trkpt>
      <trkpt lat="47.28781" lon="6.15548">
        <ele>252.6</ele>
        <time>2019-08-17T12:55:38Z</time>
      </trkpt>
      <trkpt lat="47.28781" lon="6.15542">
        <ele>252.6</ele>
        <time>2019-08-17T12:55:39Z</time>
      </trkpt>
      <trkpt lat="47.2878" lon="6.15536">
        <ele>252.6</ele>
        <time>2019-08-17T12:55:40Z</time>
      </trkpt>
      <trkpt lat="47.28779" lon="6.1553">
        <ele>252.5</ele>
        <time>2019-08-17T12:55:41Z</time>
      </trkpt>
      <trkpt lat="47.28777" lon="6.15524">
        <ele>252.5</ele>
        <time>2019-08-17T12:55:42Z</time>
      </trkpt>
      <trkpt lat="47.28776" lon="6.15518">
        <ele>252.5</ele>
        <time>2019-08-17T12:55:43Z</time>
      </trkpt>
      <trkpt lat="47.28774" lon="6.15512">
        <ele>252.5</ele>
        <time>2019-08-17T12:55:44Z</time>
      </trkpt>
      <trkpt lat="47.28773" lon="6.15506">
        <ele>252.4</ele>
        <time>2019-08-17T12:55:45Z</time>
      </trkpt>
      <trkpt lat="47.28773" lon="6.15501">
        <ele>252.4</ele>
        <time>2019-08-17T12:55:46Z</time>
      </trkpt>
      <trkpt lat="47.28772" lon="6.15495">
        <ele>252.3</ele>
        <time>2019-08-17T12:55:47Z</time>
      </trkpt>
      <trkpt lat="47.28771" lon="6.15488">
        <ele>252.2</ele>
        <time>2019-08-17T12:55:48Z</time>
      </trkpt>
      <trkpt lat="47.28769" lon="6.15482">
        <ele>252.1</ele>
        <time>2019-08-17T12:55:49Z</time>
      </trkpt>
      <trkpt lat="47.28767" lon="6.15476">
        <ele>251.9</ele>
        <time>2019-08-17T12:55:50Z</time>
      </trkpt>
      <trkpt lat="47.28766" lon="6.15471">
        <ele>251.8</ele>
        <time>2019-08-17T12:55:51Z</time>
      </trkpt>
      <trkpt lat="47.28765" lon="6.15464">
        <ele>251.6</ele>
        <time>2019-08-17T12:55:52Z</time>
      </trkpt>
      <trkpt lat="47.28763" lon="6.15459">
        <ele>251.3</ele>
        <time>2019-08-17T12:55:53Z</time>
      </trkpt>
      <trkpt lat="47.28762" lon="6.15453">
        <ele>251.1</ele>
        <time>2019-08-17T12:55:54Z</time>
      </trkpt>
      <trkpt lat="47.28761" lon="6.15448">
        <ele>250.9</ele>
        <time>2019-08-17T12:55:55Z</time>
      </trkpt>
      <trkpt lat="47.28759" lon="6.15442">
        <ele>250.7</ele>
        <time>2019-08-17T12:55:56Z</time>
      </trkpt>
      <trkpt lat="47.28758" lon="6.15435">
        <ele>250.4</ele>
        <time>2019-08-17T12:55:57Z</time>
      </trkpt>
      <trkpt lat="47.28758" lon="6.15429">
        <ele>250.2</ele>
        <time>2019-08-17T12:55:58Z</time>
      </trkpt>
      <trkpt lat="47.28757" lon="6.15422">
        <ele>250</ele>
        <time>2019-08-17T12:55:59Z</time>
      </trkpt>
      <trkpt lat="47.28755" lon="6.15416">
        <ele>249.8</ele>
        <time>2019-08-17T12:56:00Z</time>
      </trkpt>
      <trkpt lat="47.28753" lon="6.1541">
        <ele>249.7</ele>
        <time>2019-08-17T12:56:01Z</time>
      </trkpt>
      <trkpt lat="47.28752" lon="6.15404">
        <ele>249.5</ele>
        <time>2019-08-17T12:56:02Z</time>
      </trkpt>
      <trkpt lat="47.2875" lon="6.15397">
        <ele>249.4</ele>
        <time>2019-08-17T12:56:03Z</time>
      </trkpt>
      <trkpt lat="47.28748" lon="6.15391">
        <ele>249.3</ele>
        <time>2019-08-17T12:56:04Z</time>
      </trkpt>
      <trkpt lat="47.28747" lon="6.15384">
        <ele>249.2</ele>
        <time>2019-08-17T12:56:05Z</time>
      </trkpt>
      <trkpt lat="47.28747" lon="6.15379">
        <ele>249</ele>
        <time>2019-08-17T12:56:06Z</time>
      </trkpt>
      <trkpt lat="47.28746" lon="6.15374">
        <ele>248.9</ele>
        <time>2019-08-17T12:56:07Z</time>
      </trkpt>
      <trkpt lat="47.28745" lon="6.15367">
        <ele>248.8</ele>
        <time>2019-08-17T12:56:08Z</time>
      </trkpt>
      <trkpt lat="47.28744" lon="6.1536">
        <ele>248.7</ele>
        <time>2019-08-17T12:56:09Z</time>
      </trkpt>
      <trkpt lat="47.28742" lon="6.15353">
        <ele>248.6</ele>
        <time>2019-08-17T12:56:10Z</time>
      </trkpt>
      <trkpt lat="47.2874" lon="6.15346">
        <ele>248.5</ele>
        <time>2019-08-17T12:56:11Z</time>
      </trkpt>
      <trkpt lat="47.28739" lon="6.15339">
        <ele>248.4</ele>
        <time>2019-08-17T12:56:12Z</time>
      </trkpt>
      <trkpt lat="47.28738" lon="6.15333">
        <ele>248.3</ele>
        <time>2019-08-17T12:56:13Z</time>
      </trkpt>
      <trkpt lat="47.28736" lon="6.15326">
        <ele>248.3</ele>
        <time>2019-08-17T12:56:14Z</time>
      </trkpt>
      <trkpt lat="47.28735" lon="6.1532">
        <ele>248.2</ele>
        <time>2019-08-17T12:56:15Z</time>
      </trkpt>
      <trkpt lat="47.28733" lon="6.15313">
        <ele>248.1</ele>
        <time>2019-08-17T12:56:16Z</time>
      </trkpt>
      <trkpt lat="47.28732" lon="6.15307">
        <ele>248</ele>
        <time>2019-08-17T12:56:17Z</time>
      </trkpt>
      <trkpt lat="47.28731" lon="6.15301">
        <ele>247.9</ele>
        <time>2019-08-17T12:56:18Z</time>
      </trkpt>
      <trkpt lat="47.2873" lon="6.15294">
        <ele>247.9</ele>
        <time>2019-08-17T12:56:19Z</time>
      </trkpt>
      <trkpt lat="47.28729" lon="6.15288">
        <ele>247.9</ele>
        <time>2019-08-17T12:56:20Z</time>
      </trkpt>
      <trkpt lat="47.28728" lon="6.15282">
        <ele>247.9</ele>
        <time>2019-08-17T12:56:21Z</time>
      </trkpt>
      <trkpt lat="47.28727" lon="6.15277">
        <ele>247.9</ele>
        <time>2019-08-17T12:56:22Z</time>
      </trkpt>
      <trkpt lat="47.28726" lon="6.15272">
        <ele>247.9</ele>
        <time>2019-08-17T12:56:23Z</time>
      </trkpt>
      <trkpt lat="47.28725" lon="6.15267">
        <ele>248</ele>
        <time>2019-08-17T12:56:24Z</time>
      </trkpt>
      <trkpt lat="47.28723" lon="6.15261">
        <ele>248</ele>
        <time>2019-08-17T12:56:25Z</time>
      </trkpt>
      <trkpt lat="47.28721" lon="6.15255">
        <ele>248.1</ele>
        <time>2019-08-17T12:56:26Z</time>
      </trkpt>
      <trkpt lat="47.2872" lon="6.15248">
        <ele>248.2</ele>
        <time>2019-08-17T12:56:27Z</time>
      </trkpt>
      <trkpt lat="47.28718" lon="6.15241">
        <ele>248.4</ele>
        <time>2019-08-17T12:56:28Z</time>
      </trkpt>
      <trkpt lat="47.28717" lon="6.15235">
        <ele>248.5</ele>
        <time>2019-08-17T12:56:29Z</time>
      </trkpt>
      <trkpt lat="47.28716" lon="6.15228">
        <ele>248.7</ele>
        <time>2019-08-17T12:56:30Z</time>
      </trkpt>
      <trkpt lat="47.28714" lon="6.15222">
        <ele>248.8</ele>
        <time>2019-08-17T12:56:31Z</time>
      </trkpt>
      <trkpt lat="47.28713" lon="6.15216">
        <ele>248.9</ele>
        <time>2019-08-17T12:56:32Z</time>
      </trkpt>
      <trkpt lat="47.28712" lon="6.1521">
        <ele>249.1</ele>
        <time>2019-08-17T12:56:33Z</time>
      </trkpt>
      <trkpt lat="47.28709" lon="6.15204">
        <ele>249.2</ele>
        <time>2019-08-17T12:56:34Z</time>
      </trkpt>
      <trkpt lat="47.28707" lon="6.15199">
        <ele>249.3</ele>
        <time>2019-08-17T12:56:35Z</time>
      </trkpt>
      <trkpt lat="47.28705" lon="6.15193">
        <ele>249.3</ele>
        <time>2019-08-17T12:56:36Z</time>
      </trkpt>
      <trkpt lat="47.28703" lon="6.15187">
        <ele>249.4</ele>
        <time>2019-08-17T12:56:37Z</time>
      </trkpt>
      <trkpt lat="47.28702" lon="6.15181">
        <ele>249.4</ele>
        <time>2019-08-17T12:56:38Z</time>
      </trkpt>
      <trkpt lat="47.287" lon="6.15176">
        <ele>249.5</ele>
        <time>2019-08-17T12:56:39Z</time>
      </trkpt>
      <trkpt lat="47.28697" lon="6.1517">
        <ele>249.6</ele>
        <time>2019-08-17T12:56:40Z</time>
      </trkpt>
      <trkpt lat="47.28694" lon="6.15165">
        <ele>249.7</ele>
        <time>2019-08-17T12:56:41Z</time>
      </trkpt>
      <trkpt lat="47.28692" lon="6.15159">
        <ele>249.7</ele>
        <time>2019-08-17T12:56:42Z</time>
      </trkpt>
      <trkpt lat="47.2869" lon="6.15153">
        <ele>249.8</ele>
        <time>2019-08-17T12:56:43Z</time>
      </trkpt>
      <trkpt lat="47.28687" lon="6.15147">
        <ele>249.9</ele>
        <time>2019-08-17T12:56:44Z</time>
      </trkpt>
      <trkpt lat="47.28684" lon="6.1514">
        <ele>250</ele>
        <time>2019-08-17T12:56:45Z</time>
      </trkpt>
      <trkpt lat="47.28682" lon="6.15134">
        <ele>250.1</ele>
        <time>2019-08-17T12:56:46Z</time>
      </trkpt>
      <trkpt lat="47.2868" lon="6.15128">
        <ele>250.2</ele>
        <time>2019-08-17T12:56:47Z</time>
      </trkpt>
      <trkpt lat="47.28678" lon="6.15122">
        <ele>250.2</ele>
        <time>2019-08-17T12:56:48Z</time>
      </trkpt>
      <trkpt lat="47.28675" lon="6.15116">
        <ele>250.3</ele>
        <time>2019-08-17T12:56:49Z</time>
      </trkpt>
      <trkpt lat="47.28673" lon="6.1511">
        <ele>250.4</ele>
        <time>2019-08-17T12:56:50Z</time>
      </trkpt>
      <trkpt lat="47.28671" lon="6.15106">
        <ele>250.4</ele>
        <time>2019-08-17T12:56:51Z</time>
      </trkpt>
      <trkpt lat="47.2867" lon="6.15101">
        <ele>250.4</ele>
        <time>2019-08-17T12:56:52Z</time>
      </trkpt>
      <trkpt lat="47.28668" lon="6.15096">
        <ele>250.5</ele>
        <time>2019-08-17T12:56:53Z</time>
      </trkpt>
      <trkpt lat="47.28666" lon="6.15092">
        <ele>250.5</ele>
        <time>2019-08-17T12:56:54Z</time>
      </trkpt>
      <trkpt lat="47.28664" lon="6.15086">
        <ele>250.5</ele>
        <time>2019-08-17T12:56:55Z</time>
      </trkpt>
      <trkpt lat="47.28661" lon="6.1508">
        <ele>250.6</ele>
        <time>2019-08-17T12:56:56Z</time>
      </trkpt>
      <trkpt lat="47.28659" lon="6.15074">
        <ele>250.6</ele>
        <time>2019-08-17T12:56:57Z</time>
      </trkpt>
      <trkpt lat="47.28658" lon="6.15066">
        <ele>250.7</ele>
        <time>2019-08-17T12:56:58Z</time>
      </trkpt>
      <trkpt lat="47.28656" lon="6.1506">
        <ele>250.8</ele>
        <time>2019-08-17T12:56:59Z</time>
      </trkpt>
      <trkpt lat="47.28654" lon="6.15054">
        <ele>250.8</ele>
        <time>2019-08-17T12:57:00Z</time>
      </trkpt>
      <trkpt lat="47.28653" lon="6.15048">
        <ele>250.9</ele>
        <time>2019-08-17T12:57:01Z</time>
      </trkpt>
      <trkpt lat="47.28651" lon="6.15042">
        <ele>251</ele>
        <time>2019-08-17T12:57:02Z</time>
      </trkpt>
      <trkpt lat="47.28649" lon="6.15035">
        <ele>251.1</ele>
        <time>2019-08-17T12:57:03Z</time>
      </trkpt>
      <trkpt lat="47.28646" lon="6.1503">
        <ele>251.2</ele>
        <time>2019-08-17T12:57:04Z</time>
      </trkpt>
      <trkpt lat="47.28644" lon="6.15024">
        <ele>251.3</ele>
        <time>2019-08-17T12:57:05Z</time>
      </trkpt>
      <trkpt lat="47.28641" lon="6.15018">
        <ele>251.3</ele>
        <time>2019-08-17T12:57:06Z</time>
      </trkpt>
      <trkpt lat="47.2864" lon="6.15013">
        <ele>251.4</ele>
        <time>2019-08-17T12:57:07Z</time>
      </trkpt>
      <trkpt lat="47.28638" lon="6.15007">
        <ele>251.4</ele>
        <time>2019-08-17T12:57:08Z</time>
      </trkpt>
      <trkpt lat="47.28636" lon="6.15001">
        <ele>251.5</ele>
        <time>2019-08-17T12:57:09Z</time>
      </trkpt>
      <trkpt lat="47.28634" lon="6.14996">
        <ele>251.5</ele>
        <time>2019-08-17T12:57:10Z</time>
      </trkpt>
      <trkpt lat="47.28632" lon="6.14989">
        <ele>251.5</ele>
        <time>2019-08-17T12:57:11Z</time>
      </trkpt>
      <trkpt lat="47.2863" lon="6.14983">
        <ele>251.5</ele>
        <time>2019-08-17T12:57:12Z</time>
      </trkpt>
      <trkpt lat="47.28627" lon="6.14976">
        <ele>251.5</ele>
        <time>2019-08-17T12:57:13Z</time>
      </trkpt>
      <trkpt lat="47.28625" lon="6.1497">
        <ele>251.5</ele>
        <time>2019-08-17T12:57:14Z</time>
      </trkpt>
      <trkpt lat="47.28623" lon="6.14964">
        <ele>251.5</ele>
        <time>2019-08-17T12:57:15Z</time>
      </trkpt>
      <trkpt lat="47.28621" lon="6.14958">
        <ele>251.5</ele>
        <time>2019-08-17T12:57:16Z</time>
      </trkpt>
      <trkpt lat="47.28618" lon="6.14952">
        <ele>251.5</ele>
        <time>2019-08-17T12:57:17Z</time>
      </trkpt>
      <trkpt lat="47.28616" lon="6.14947">
        <ele>251.5</ele>
        <time>2019-08-17T12:57:18Z</time>
      </trkpt>
      <trkpt lat="47.28613" lon="6.14941">
        <ele>251.5</ele>
        <time>2019-08-17T12:57:19Z</time>
      </trkpt>
      <trkpt lat="47.2861" lon="6.14936">
        <ele>251.5</ele>
        <time>2019-08-17T12:57:20Z</time>
      </trkpt>
      <trkpt lat="47.28608" lon="6.1493">
        <ele>251.5</ele>
        <time>2019-08-17T12:57:21Z</time>
      </trkpt>
      <trkpt lat="47.28606" lon="6.14925">
        <ele>251.5</ele>
        <time>2019-08-17T12:57:22Z</time>
      </trkpt>
      <trkpt lat="47.28603" lon="6.1492">
        <ele>251.5</ele>
        <time>2019-08-17T12:57:23Z</time>
      </trkpt>
      <trkpt lat="47.286" lon="6.14915">
        <ele>251.5</ele>
        <time>2019-08-17T12:57:24Z</time>
      </trkpt>
      <trkpt lat="47.28597" lon="6.1491">
        <ele>251.5</ele>
        <time>2019-08-17T12:57:25Z</time>
      </trkpt>
      <trkpt lat="47.28594" lon="6.14905">
        <ele>251.5</ele>
        <time>2019-08-17T12:57:26Z</time>
      </trkpt>
      <trkpt lat="47.28592" lon="6.149">
        <ele>251.5</ele>
        <time>2019-08-17T12:57:27Z</time>
      </trkpt>
      <trkpt lat="47.28589" lon="6.14894">
        <ele>251.5</ele>
        <time>2019-08-17T12:57:28Z</time>
      </trkpt>
      <trkpt lat="47.28587" lon="6.14888">
        <ele>251.5</ele>
        <time>2019-08-17T12:57:29Z</time>
      </trkpt>
      <trkpt lat="47.28585" lon="6.14882">
        <ele>251.5</ele>
        <time>2019-08-17T12:57:30Z</time>
      </trkpt>
      <trkpt lat="47.28583" lon="6.14876">
        <ele>251.4</ele>
        <time>2019-08-17T12:57:31Z</time>
      </trkpt>
      <trkpt lat="47.28581" lon="6.1487">
        <ele>251.4</ele>
        <time>2019-08-17T12:57:32Z</time>
      </trkpt>
      <trkpt lat="47.28578" lon="6.14864">
        <ele>251.4</ele>
        <time>2019-08-17T12:57:33Z</time>
      </trkpt>
      <trkpt lat="47.28576" lon="6.14859">
        <ele>251.3</ele>
        <time>2019-08-17T12:57:34Z</time>
      </trkpt>
      <trkpt lat="47.28573" lon="6.14853">
        <ele>251.2</ele>
        <time>2019-08-17T12:57:35Z</time>
      </trkpt>
      <trkpt lat="47.2857" lon="6.14847">
        <ele>251.1</ele>
        <time>2019-08-17T12:57:36Z</time>
      </trkpt>
      <trkpt lat="47.28568" lon="6.14841">
        <ele>251</ele>
        <time>2019-08-17T12:57:37Z</time>
      </trkpt>
      <trkpt lat="47.28565" lon="6.14835">
        <ele>250.9</ele>
        <time>2019-08-17T12:57:38Z</time>
      </trkpt>
      <trkpt lat="47.28564" lon="6.14829">
        <ele>250.8</ele>
        <time>2019-08-17T12:57:39Z</time>
      </trkpt>
      <trkpt lat="47.28563" lon="6.14824">
        <ele>250.7</ele>
        <time>2019-08-17T12:57:40Z</time>
      </trkpt>
      <trkpt lat="47.28561" lon="6.14818">
        <ele>250.6</ele>
        <time>2019-08-17T12:57:41Z</time>
      </trkpt>
      <trkpt lat="47.28559" lon="6.14812">
        <ele>250.5</ele>
        <time>2019-08-17T12:57:42Z</time>
      </trkpt>
      <trkpt lat="47.28557" lon="6.14805">
        <ele>250.6</ele>
        <time>2019-08-17T12:57:43Z</time>
      </trkpt>
      <trkpt lat="47.28555" lon="6.14798">
        <ele>250.7</ele>
        <time>2019-08-17T12:57:44Z</time>
      </trkpt>
      <trkpt lat="47.28554" lon="6.14792">
        <ele>250.7</ele>
        <time>2019-08-17T12:57:45Z</time>
      </trkpt>
      <trkpt lat="47.28552" lon="6.14786">
        <ele>250.8</ele>
        <time>2019-08-17T12:57:46Z</time>
      </trkpt>
      <trkpt lat="47.28549" lon="6.1478">
        <ele>250.9</ele>
        <time>2019-08-17T12:57:47Z</time>
      </trkpt>
      <trkpt lat="47.28547" lon="6.14775">
        <ele>251</ele>
        <time>2019-08-17T12:57:48Z</time>
      </trkpt>
      <trkpt lat="47.28545" lon="6.14769">
        <ele>251.1</ele>
        <time>2019-08-17T12:57:49Z</time>
      </trkpt>
      <trkpt lat="47.28544" lon="6.14763">
        <ele>251.1</ele>
        <time>2019-08-17T12:57:50Z</time>
      </trkpt>
      <trkpt lat="47.28542" lon="6.14758">
        <ele>251.2</ele>
        <time>2019-08-17T12:57:51Z</time>
      </trkpt>
      <trkpt lat="47.2854" lon="6.14751">
        <ele>251.2</ele>
        <time>2019-08-17T12:57:52Z</time>
      </trkpt>
      <trkpt lat="47.28537" lon="6.14744">
        <ele>251.2</ele>
        <time>2019-08-17T12:57:53Z</time>
      </trkpt>
      <trkpt lat="47.28534" lon="6.14737">
        <ele>251.1</ele>
        <time>2019-08-17T12:57:54Z</time>
      </trkpt>
      <trkpt lat="47.28532" lon="6.14731">
        <ele>251.1</ele>
        <time>2019-08-17T12:57:55Z</time>
      </trkpt>
      <trkpt lat="47.2853" lon="6.14725">
        <ele>251</ele>
        <time>2019-08-17T12:57:56Z</time>
      </trkpt>
      <trkpt lat="47.28528" lon="6.14719">
        <ele>251</ele>
        <time>2019-08-17T12:57:57Z</time>
      </trkpt>
      <trkpt lat="47.28527" lon="6.14713">
        <ele>250.9</ele>
        <time>2019-08-17T12:57:58Z</time>
      </trkpt>
      <trkpt lat="47.28526" lon="6.14707">
        <ele>250.8</ele>
        <time>2019-08-17T12:57:59Z</time>
      </trkpt>
      <trkpt lat="47.28524" lon="6.14701">
        <ele>250.7</ele>
        <time>2019-08-17T12:58:00Z</time>
      </trkpt>
      <trkpt lat="47.28523" lon="6.14695">
        <ele>250.7</ele>
        <time>2019-08-17T12:58:01Z</time>
      </trkpt>
      <trkpt lat="47.28523" lon="6.14689">
        <ele>250.6</ele>
        <time>2019-08-17T12:58:02Z</time>
      </trkpt>
      <trkpt lat="47.28522" lon="6.14684">
        <ele>250.6</ele>
        <time>2019-08-17T12:58:03Z</time>
      </trkpt>
      <trkpt lat="47.28522" lon="6.1468">
        <ele>250.6</ele>
        <time>2019-08-17T12:58:04Z</time>
      </trkpt>
      <trkpt lat="47.28521" lon="6.14674">
        <ele>250.5</ele>
        <time>2019-08-17T12:58:05Z</time>
      </trkpt>
      <trkpt lat="47.2852" lon="6.14668">
        <ele>250.5</ele>
        <time>2019-08-17T12:58:06Z</time>
      </trkpt>
      <trkpt lat="47.28518" lon="6.14661">
        <ele>250.5</ele>
        <time>2019-08-17T12:58:07Z</time>
      </trkpt>
      <trkpt lat="47.28516" lon="6.14654">
        <ele>250.5</ele>
        <time>2019-08-17T12:58:08Z</time>
      </trkpt>
      <trkpt lat="47.28514" lon="6.14646">
        <ele>250.5</ele>
        <time>2019-08-17T12:58:09Z</time>
      </trkpt>
      <trkpt lat="47.28513" lon="6.1464">
        <ele>250.5</ele>
        <time>2019-08-17T12:58:10Z</time>
      </trkpt>
      <trkpt lat="47.28512" lon="6.14633">
        <ele>250.5</ele>
        <time>2019-08-17T12:58:11Z</time>
      </trkpt>
      <trkpt lat="47.2851" lon="6.14627">
        <ele>250.5</ele>
        <time>2019-08-17T12:58:12Z</time>
      </trkpt>
      <trkpt lat="47.28509" lon="6.14619">
        <ele>250.5</ele>
        <time>2019-08-17T12:58:13Z</time>
      </trkpt>
      <trkpt lat="47.28508" lon="6.14612">
        <ele>250.5</ele>
        <time>2019-08-17T12:58:14Z</time>
      </trkpt>
      <trkpt lat="47.28508" lon="6.14605">
        <ele>250.5</ele>
        <time>2019-08-17T12:58:15Z</time>
      </trkpt>
      <trkpt lat="47.28506" lon="6.14598">
        <ele>250.5</ele>
        <time>2019-08-17T12:58:16Z</time>
      </trkpt>
      <trkpt lat="47.28505" lon="6.14591">
        <ele>250.6</ele>
        <time>2019-08-17T12:58:17Z</time>
      </trkpt>
      <trkpt lat="47.28504" lon="6.14585">
        <ele>250.6</ele>
        <time>2019-08-17T12:58:18Z</time>
      </trkpt>
      <trkpt lat="47.28503" lon="6.14578">
        <ele>250.7</ele>
        <time>2019-08-17T12:58:19Z</time>
      </trkpt>
      <trkpt lat="47.28502" lon="6.1457">
        <ele>250.7</ele>
        <time>2019-08-17T12:58:20Z</time>
      </trkpt>
      <trkpt lat="47.285" lon="6.14563">
        <ele>250.8</ele>
        <time>2019-08-17T12:58:21Z</time>
      </trkpt>
      <trkpt lat="47.28499" lon="6.14557">
        <ele>250.9</ele>
        <time>2019-08-17T12:58:22Z</time>
      </trkpt>
      <trkpt lat="47.28497" lon="6.14549">
        <ele>251</ele>
        <time>2019-08-17T12:58:23Z</time>
      </trkpt>
      <trkpt lat="47.28494" lon="6.14542">
        <ele>251</ele>
        <time>2019-08-17T12:58:24Z</time>
      </trkpt>
      <trkpt lat="47.28493" lon="6.14535">
        <ele>251</ele>
        <time>2019-08-17T12:58:25Z</time>
      </trkpt>
      <trkpt lat="47.28491" lon="6.14527">
        <ele>251</ele>
        <time>2019-08-17T12:58:26Z</time>
      </trkpt>
      <trkpt lat="47.28489" lon="6.14519">
        <ele>250.9</ele>
        <time>2019-08-17T12:58:27Z</time>
      </trkpt>
      <trkpt lat="47.28487" lon="6.14512">
        <ele>250.8</ele>
        <time>2019-08-17T12:58:28Z</time>
      </trkpt>
      <trkpt lat="47.28485" lon="6.14505">
        <ele>250.8</ele>
        <time>2019-08-17T12:58:29Z</time>
      </trkpt>
      <trkpt lat="47.28483" lon="6.14498">
        <ele>250.7</ele>
        <time>2019-08-17T12:58:30Z</time>
      </trkpt>
      <trkpt lat="47.28482" lon="6.14492">
        <ele>250.7</ele>
        <time>2019-08-17T12:58:31Z</time>
      </trkpt>
      <trkpt lat="47.28483" lon="6.14485">
        <ele>250.6</ele>
        <time>2019-08-17T12:58:32Z</time>
      </trkpt>
      <trkpt lat="47.28482" lon="6.14478">
        <ele>250.5</ele>
        <time>2019-08-17T12:58:33Z</time>
      </trkpt>
      <trkpt lat="47.28481" lon="6.14471">
        <ele>250.4</ele>
        <time>2019-08-17T12:58:34Z</time>
      </trkpt>
      <trkpt lat="47.2848" lon="6.14465">
        <ele>250.3</ele>
        <time>2019-08-17T12:58:35Z</time>
      </trkpt>
      <trkpt lat="47.2848" lon="6.14458">
        <ele>250.2</ele>
        <time>2019-08-17T12:58:36Z</time>
      </trkpt>
      <trkpt lat="47.28479" lon="6.14449">
        <ele>250.1</ele>
        <time>2019-08-17T12:58:37Z</time>
      </trkpt>
      <trkpt lat="47.28478" lon="6.14441">
        <ele>250</ele>
        <time>2019-08-17T12:58:38Z</time>
      </trkpt>
      <trkpt lat="47.28477" lon="6.14434">
        <ele>249.9</ele>
        <time>2019-08-17T12:58:39Z</time>
      </trkpt>
      <trkpt lat="47.28477" lon="6.14427">
        <ele>249.8</ele>
        <time>2019-08-17T12:58:40Z</time>
      </trkpt>
      <trkpt lat="47.28478" lon="6.14421">
        <ele>249.7</ele>
        <time>2019-08-17T12:58:41Z</time>
      </trkpt>
      <trkpt lat="47.28478" lon="6.14415">
        <ele>249.7</ele>
        <time>2019-08-17T12:58:42Z</time>
      </trkpt>
      <trkpt lat="47.28477" lon="6.14408">
        <ele>249.6</ele>
        <time>2019-08-17T12:58:43Z</time>
      </trkpt>
      <trkpt lat="47.28477" lon="6.144">
        <ele>249.5</ele>
        <time>2019-08-17T12:58:44Z</time>
      </trkpt>
      <trkpt lat="47.28478" lon="6.14394">
        <ele>249.5</ele>
        <time>2019-08-17T12:58:45Z</time>
      </trkpt>
      <trkpt lat="47.28477" lon="6.14386">
        <ele>249.5</ele>
        <time>2019-08-17T12:58:46Z</time>
      </trkpt>
      <trkpt lat="47.28477" lon="6.14379">
        <ele>249.4</ele>
        <time>2019-08-17T12:58:47Z</time>
      </trkpt>
      <trkpt lat="47.28476" lon="6.14371">
        <ele>249.4</ele>
        <time>2019-08-17T12:58:48Z</time>
      </trkpt>
      <trkpt lat="47.28477" lon="6.14365">
        <ele>249.4</ele>
        <time>2019-08-17T12:58:49Z</time>
      </trkpt>
      <trkpt lat="47.28477" lon="6.14359">
        <ele>249.4</ele>
        <time>2019-08-17T12:58:50Z</time>
      </trkpt>
      <trkpt lat="47.28477" lon="6.14353">
        <ele>249.4</ele>
        <time>2019-08-17T12:58:51Z</time>
      </trkpt>
      <trkpt lat="47.28479" lon="6.14347">
        <ele>249.4</ele>
        <time>2019-08-17T12:58:52Z</time>
      </trkpt>
      <trkpt lat="47.2848" lon="6.14341">
        <ele>249.4</ele>
        <time>2019-08-17T12:58:53Z</time>
      </trkpt>
      <trkpt lat="47.28479" lon="6.14336">
        <ele>249.4</ele>
        <time>2019-08-17T12:58:54Z</time>
      </trkpt>
      <trkpt lat="47.28479" lon="6.1433">
        <ele>249.4</ele>
        <time>2019-08-17T12:58:55Z</time>
      </trkpt>
      <trkpt lat="47.28478" lon="6.14325">
        <ele>249.4</ele>
        <time>2019-08-17T12:58:56Z</time>
      </trkpt>
      <trkpt lat="47.28478" lon="6.14318">
        <ele>249.4</ele>
        <time>2019-08-17T12:58:57Z</time>
      </trkpt>
      <trkpt lat="47.28478" lon="6.14311">
        <ele>249.4</ele>
        <time>2019-08-17T12:58:58Z</time>
      </trkpt>
      <trkpt lat="47.28477" lon="6.14305">
        <ele>249.4</ele>
        <time>2019-08-17T12:58:59Z</time>
      </trkpt>
      <trkpt lat="47.28478" lon="6.14299">
        <ele>249.4</ele>
        <time>2019-08-17T12:59:00Z</time>
      </trkpt>
      <trkpt lat="47.28478" lon="6.14292">
        <ele>249.4</ele>
        <time>2019-08-17T12:59:01Z</time>
      </trkpt>
      <trkpt lat="47.28479" lon="6.14286">
        <ele>249.4</ele>
        <time>2019-08-17T12:59:02Z</time>
      </trkpt>
      <trkpt lat="47.2848" lon="6.1428">
        <ele>249.4</ele>
        <time>2019-08-17T12:59:03Z</time>
      </trkpt>
      <trkpt lat="47.2848" lon="6.14274">
        <ele>249.4</ele>
        <time>2019-08-17T12:59:04Z</time>
      </trkpt>
      <trkpt lat="47.2848" lon="6.14267">
        <ele>249.4</ele>
        <time>2019-08-17T12:59:05Z</time>
      </trkpt>
      <trkpt lat="47.28479" lon="6.1426">
        <ele>249.4</ele>
        <time>2019-08-17T12:59:06Z</time>
      </trkpt>
      <trkpt lat="47.28478" lon="6.14254">
        <ele>249.4</ele>
        <time>2019-08-17T12:59:07Z</time>
      </trkpt>
      <trkpt lat="47.28477" lon="6.14246">
        <ele>249.5</ele>
        <time>2019-08-17T12:59:08Z</time>
      </trkpt>
      <trkpt lat="47.28477" lon="6.14238">
        <ele>249.5</ele>
        <time>2019-08-17T12:59:09Z</time>
      </trkpt>
      <trkpt lat="47.28475" lon="6.14231">
        <ele>249.6</ele>
        <time>2019-08-17T12:59:10Z</time>
      </trkpt>
      <trkpt lat="47.28475" lon="6.14224">
        <ele>249.7</ele>
        <time>2019-08-17T12:59:11Z</time>
      </trkpt>
      <trkpt lat="47.28474" lon="6.14216">
        <ele>249.7</ele>
        <time>2019-08-17T12:59:12Z</time>
      </trkpt>
      <trkpt lat="47.28472" lon="6.14209">
        <ele>249.8</ele>
        <time>2019-08-17T12:59:13Z</time>
      </trkpt>
      <trkpt lat="47.28471" lon="6.14201">
        <ele>249.9</ele>
        <time>2019-08-17T12:59:14Z</time>
      </trkpt>
      <trkpt lat="47.28472" lon="6.14194">
        <ele>249.9</ele>
        <time>2019-08-17T12:59:15Z</time>
      </trkpt>
      <trkpt lat="47.28471" lon="6.14187">
        <ele>250</ele>
        <time>2019-08-17T12:59:16Z</time>
      </trkpt>
      <trkpt lat="47.2847" lon="6.14181">
        <ele>250</ele>
        <time>2019-08-17T12:59:17Z</time>
      </trkpt>
      <trkpt lat="47.28471" lon="6.14174">
        <ele>250</ele>
        <time>2019-08-17T12:59:18Z</time>
      </trkpt>
      <trkpt lat="47.2847" lon="6.14168">
        <ele>250</ele>
        <time>2019-08-17T12:59:19Z</time>
      </trkpt>
      <trkpt lat="47.28469" lon="6.14162">
        <ele>249.9</ele>
        <time>2019-08-17T12:59:20Z</time>
      </trkpt>
      <trkpt lat="47.28468" lon="6.14154">
        <ele>249.9</ele>
        <time>2019-08-17T12:59:21Z</time>
      </trkpt>
      <trkpt lat="47.28468" lon="6.14147">
        <ele>249.8</ele>
        <time>2019-08-17T12:59:22Z</time>
      </trkpt>
      <trkpt lat="47.28467" lon="6.14141">
        <ele>249.7</ele>
        <time>2019-08-17T12:59:23Z</time>
      </trkpt>
      <trkpt lat="47.28467" lon="6.14135">
        <ele>249.7</ele>
        <time>2019-08-17T12:59:24Z</time>
      </trkpt>
      <trkpt lat="47.28466" lon="6.14129">
        <ele>249.6</ele>
        <time>2019-08-17T12:59:25Z</time>
      </trkpt>
      <trkpt lat="47.28465" lon="6.14122">
        <ele>249.5</ele>
        <time>2019-08-17T12:59:26Z</time>
      </trkpt>
      <trkpt lat="47.28465" lon="6.14115">
        <ele>249.5</ele>
        <time>2019-08-17T12:59:27Z</time>
      </trkpt>
      <trkpt lat="47.28465" lon="6.14107">
        <ele>249.4</ele>
        <time>2019-08-17T12:59:28Z</time>
      </trkpt>
      <trkpt lat="47.28465" lon="6.141">
        <ele>249.4</ele>
        <time>2019-08-17T12:59:29Z</time>
      </trkpt>
      <trkpt lat="47.28464" lon="6.14094">
        <ele>249.3</ele>
        <time>2019-08-17T12:59:30Z</time>
      </trkpt>
      <trkpt lat="47.28464" lon="6.14088">
        <ele>249.3</ele>
        <time>2019-08-17T12:59:31Z</time>
      </trkpt>
      <trkpt lat="47.28464" lon="6.14082">
        <ele>249.3</ele>
        <time>2019-08-17T12:59:32Z</time>
      </trkpt>
      <trkpt lat="47.28464" lon="6.14075">
        <ele>249.3</ele>
        <time>2019-08-17T12:59:33Z</time>
      </trkpt>
      <trkpt lat="47.28464" lon="6.14069">
        <ele>249.3</ele>
        <time>2019-08-17T12:59:34Z</time>
      </trkpt>
      <trkpt lat="47.28464" lon="6.14063">
        <ele>249.3</ele>
        <time>2019-08-17T12:59:35Z</time>
      </trkpt>
      <trkpt lat="47.28463" lon="6.14056">
        <ele>249.3</ele>
        <time>2019-08-17T12:59:36Z</time>
      </trkpt>
      <trkpt lat="47.28462" lon="6.14049">
        <ele>249.3</ele>
        <time>2019-08-17T12:59:37Z</time>
      </trkpt>
      <trkpt lat="47.28461" lon="6.14043">
        <ele>249.3</ele>
        <time>2019-08-17T12:59:38Z</time>
      </trkpt>
      <trkpt lat="47.28461" lon="6.14036">
        <ele>249.4</ele>
        <time>2019-08-17T12:59:39Z</time>
      </trkpt>
      <trkpt lat="47.2846" lon="6.1403">
        <ele>249.4</ele>
        <time>2019-08-17T12:59:40Z</time>
      </trkpt>
      <trkpt lat="47.28459" lon="6.14024">
        <ele>249.5</ele>
        <time>2019-08-17T12:59:41Z</time>
      </trkpt>
      <trkpt lat="47.28458" lon="6.14017">
        <ele>249.6</ele>
        <time>2019-08-17T12:59:42Z</time>
      </trkpt>
      <trkpt lat="47.28457" lon="6.1401">
        <ele>249.6</ele>
        <time>2019-08-17T12:59:43Z</time>
      </trkpt>
      <trkpt lat="47.28457" lon="6.14003">
        <ele>249.7</ele>
        <time>2019-08-17T12:59:44Z</time>
      </trkpt>
      <trkpt lat="47.28457" lon="6.13996">
        <ele>249.8</ele>
        <time>2019-08-17T12:59:45Z</time>
      </trkpt>
      <trkpt lat="47.28456" lon="6.13991">
        <ele>249.9</ele>
        <time>2019-08-17T12:59:46Z</time>
      </trkpt>
      <trkpt lat="47.28455" lon="6.13984">
        <ele>249.9</ele>
        <time>2019-08-17T12:59:47Z</time>
      </trkpt>
      <trkpt lat="47.28454" lon="6.13978">
        <ele>250</ele>
        <time>2019-08-17T12:59:48Z</time>
      </trkpt>
      <trkpt lat="47.28453" lon="6.13972">
        <ele>250.1</ele>
        <time>2019-08-17T12:59:49Z</time>
      </trkpt>
      <trkpt lat="47.28452" lon="6.13964">
        <ele>250.1</ele>
        <time>2019-08-17T12:59:50Z</time>
      </trkpt>
      <trkpt lat="47.28452" lon="6.13956">
        <ele>250.2</ele>
        <time>2019-08-17T12:59:51Z</time>
      </trkpt>
      <trkpt lat="47.28451" lon="6.13949">
        <ele>250.2</ele>
        <time>2019-08-17T12:59:52Z</time>
      </trkpt>
      <trkpt lat="47.2845" lon="6.13943">
        <ele>250.2</ele>
        <time>2019-08-17T12:59:53Z</time>
      </trkpt>
      <trkpt lat="47.28448" lon="6.13937">
        <ele>250.2</ele>
        <time>2019-08-17T12:59:54Z</time>
      </trkpt>
      <trkpt lat="47.28446" lon="6.13932">
        <ele>250.3</ele>
        <time>2019-08-17T12:59:55Z</time>
      </trkpt>
      <trkpt lat="47.28444" lon="6.13928">
        <ele>250.3</ele>
        <time>2019-08-17T12:59:56Z</time>
      </trkpt>
      <trkpt lat="47.28441" lon="6.13923">
        <ele>250.3</ele>
        <time>2019-08-17T12:59:57Z</time>
      </trkpt>
      <trkpt lat="47.28438" lon="6.13918">
        <ele>250.3</ele>
        <time>2019-08-17T12:59:58Z</time>
      </trkpt>
      <trkpt lat="47.28436" lon="6.13912">
        <ele>250.4</ele>
        <time>2019-08-17T12:59:59Z</time>
      </trkpt>
      <trkpt lat="47.28433" lon="6.13908">
        <ele>250.4</ele>
        <time>2019-08-17T13:00:00Z</time>
      </trkpt>
      <trkpt lat="47.2843" lon="6.13903">
        <ele>250.5</ele>
        <time>2019-08-17T13:00:01Z</time>
      </trkpt>
      <trkpt lat="47.28427" lon="6.13897">
        <ele>250.6</ele>
        <time>2019-08-17T13:00:02Z</time>
      </trkpt>
      <trkpt lat="47.28423" lon="6.13891">
        <ele>250.6</ele>
        <time>2019-08-17T13:00:03Z</time>
      </trkpt>
      <trkpt lat="47.28419" lon="6.13885">
        <ele>250.7</ele>
        <time>2019-08-17T13:00:04Z</time>
      </trkpt>
      <trkpt lat="47.28416" lon="6.13879">
        <ele>250.8</ele>
        <time>2019-08-17T13:00:05Z</time>
      </trkpt>
      <trkpt lat="47.28412" lon="6.13873">
        <ele>250.9</ele>
        <time>2019-08-17T13:00:06Z</time>
      </trkpt>
      <trkpt lat="47.28409" lon="6.13868">
        <ele>250.9</ele>
        <time>2019-08-17T13:00:07Z</time>
      </trkpt>
      <trkpt lat="47.28405" lon="6.13864">
        <ele>251</ele>
        <time>2019-08-17T13:00:08Z</time>
      </trkpt>
      <trkpt lat="47.28402" lon="6.13859">
        <ele>251</ele>
        <time>2019-08-17T13:00:09Z</time>
      </trkpt>
      <trkpt lat="47.28399" lon="6.13854">
        <ele>251.1</ele>
        <time>2019-08-17T13:00:10Z</time>
      </trkpt>
      <trkpt lat="47.28395" lon="6.13849">
        <ele>251.2</ele>
        <time>2019-08-17T13:00:11Z</time>
      </trkpt>
      <trkpt lat="47.28392" lon="6.13844">
        <ele>251.3</ele>
        <time>2019-08-17T13:00:12Z</time>
      </trkpt>
      <trkpt lat="47.28388" lon="6.13839">
        <ele>251.3</ele>
        <time>2019-08-17T13:00:13Z</time>
      </trkpt>
      <trkpt lat="47.28385" lon="6.13833">
        <ele>251.4</ele>
        <time>2019-08-17T13:00:14Z</time>
      </trkpt>
      <trkpt lat="47.28382" lon="6.13828">
        <ele>251.5</ele>
        <time>2019-08-17T13:00:15Z</time>
      </trkpt>
      <trkpt lat="47.28378" lon="6.13823">
        <ele>251.6</ele>
        <time>2019-08-17T13:00:16Z</time>
      </trkpt>
      <trkpt lat="47.28375" lon="6.13818">
        <ele>251.7</ele>
        <time>2019-08-17T13:00:17Z</time>
      </trkpt>
      <trkpt lat="47.28371" lon="6.13813">
        <ele>251.7</ele>
        <time>2019-08-17T13:00:18Z</time>
      </trkpt>
      <trkpt lat="47.28368" lon="6.13808">
        <ele>251.8</ele>
        <time>2019-08-17T13:00:19Z</time>
      </trkpt>
      <trkpt lat="47.28364" lon="6.13803">
        <ele>251.9</ele>
        <time>2019-08-17T13:00:20Z</time>
      </trkpt>
      <trkpt lat="47.2836" lon="6.13798">
        <ele>251.9</ele>
        <time>2019-08-17T13:00:21Z</time>
      </trkpt>
      <trkpt lat="47.28357" lon="6.13793">
        <ele>251.9</ele>
        <time>2019-08-17T13:00:22Z</time>
      </trkpt>
      <trkpt lat="47.28353" lon="6.13787">
        <ele>251.9</ele>
        <time>2019-08-17T13:00:23Z</time>
      </trkpt>
      <trkpt lat="47.28349" lon="6.13782">
        <ele>251.9</ele>
        <time>2019-08-17T13:00:24Z</time>
      </trkpt>
      <trkpt lat="47.28345" lon="6.13777">
        <ele>251.8</ele>
        <time>2019-08-17T13:00:25Z</time>
      </trkpt>
      <trkpt lat="47.28342" lon="6.13771">
        <ele>251.7</ele>
        <time>2019-08-17T13:00:26Z</time>
      </trkpt>
      <trkpt lat="47.28339" lon="6.13766">
        <ele>251.7</ele>
        <time>2019-08-17T13:00:27Z</time>
      </trkpt>
      <trkpt lat="47.28335" lon="6.13762">
        <ele>251.6</ele>
        <time>2019-08-17T13:00:28Z</time>
      </trkpt>
      <trkpt lat="47.28332" lon="6.13757">
        <ele>251.5</ele>
        <time>2019-08-17T13:00:29Z</time>
      </trkpt>
      <trkpt lat="47.28328" lon="6.13753">
        <ele>251.4</ele>
        <time>2019-08-17T13:00:30Z</time>
      </trkpt>
      <trkpt lat="47.28325" lon="6.13749">
        <ele>251.4</ele>
        <time>2019-08-17T13:00:31Z</time>
      </trkpt>
      <trkpt lat="47.28321" lon="6.13744">
        <ele>251.3</ele>
        <time>2019-08-17T13:00:32Z</time>
      </trkpt>
      <trkpt lat="47.28318" lon="6.13739">
        <ele>251.3</ele>
        <time>2019-08-17T13:00:33Z</time>
      </trkpt>
      <trkpt lat="47.28315" lon="6.13733">
        <ele>251.2</ele>
        <time>2019-08-17T13:00:34Z</time>
      </trkpt>
      <trkpt lat="47.28312" lon="6.13727">
        <ele>251.2</ele>
        <time>2019-08-17T13:00:35Z</time>
      </trkpt>
      <trkpt lat="47.28309" lon="6.13722">
        <ele>251.2</ele>
        <time>2019-08-17T13:00:36Z</time>
      </trkpt>
      <trkpt lat="47.28306" lon="6.13717">
        <ele>251.2</ele>
        <time>2019-08-17T13:00:37Z</time>
      </trkpt>
      <trkpt lat="47.28303" lon="6.13712">
        <ele>251.2</ele>
        <time>2019-08-17T13:00:38Z</time>
      </trkpt>
      <trkpt lat="47.28299" lon="6.13706">
        <ele>251.1</ele>
        <time>2019-08-17T13:00:39Z</time>
      </trkpt>
      <trkpt lat="47.28296" lon="6.13702">
        <ele>251.1</ele>
        <time>2019-08-17T13:00:40Z</time>
      </trkpt>
      <trkpt lat="47.28292" lon="6.13697">
        <ele>251.1</ele>
        <time>2019-08-17T13:00:41Z</time>
      </trkpt>
      <trkpt lat="47.28289" lon="6.13692">
        <ele>251</ele>
        <time>2019-08-17T13:00:42Z</time>
      </trkpt>
      <trkpt lat="47.28285" lon="6.13687">
        <ele>251</ele>
        <time>2019-08-17T13:00:43Z</time>
      </trkpt>
      <trkpt lat="47.28283" lon="6.13681">
        <ele>250.9</ele>
        <time>2019-08-17T13:00:44Z</time>
      </trkpt>
      <trkpt lat="47.28279" lon="6.13676">
        <ele>250.9</ele>
        <time>2019-08-17T13:00:45Z</time>
      </trkpt>
      <trkpt lat="47.28275" lon="6.13672">
        <ele>250.8</ele>
        <time>2019-08-17T13:00:46Z</time>
      </trkpt>
      <trkpt lat="47.28272" lon="6.13667">
        <ele>250.8</ele>
        <time>2019-08-17T13:00:47Z</time>
      </trkpt>
      <trkpt lat="47.28268" lon="6.13662">
        <ele>250.7</ele>
        <time>2019-08-17T13:00:48Z</time>
      </trkpt>
      <trkpt lat="47.28265" lon="6.13656">
        <ele>250.6</ele>
        <time>2019-08-17T13:00:49Z</time>
      </trkpt>
      <trkpt lat="47.28261" lon="6.1365">
        <ele>250.5</ele>
        <time>2019-08-17T13:00:50Z</time>
      </trkpt>
      <trkpt lat="47.28258" lon="6.13645">
        <ele>250.4</ele>
        <time>2019-08-17T13:00:51Z</time>
      </trkpt>
      <trkpt lat="47.28255" lon="6.13639">
        <ele>250.3</ele>
        <time>2019-08-17T13:00:52Z</time>
      </trkpt>
      <trkpt lat="47.28252" lon="6.13634">
        <ele>250.3</ele>
        <time>2019-08-17T13:00:53Z</time>
      </trkpt>
      <trkpt lat="47.28248" lon="6.13629">
        <ele>250.2</ele>
        <time>2019-08-17T13:00:54Z</time>
      </trkpt>
      <trkpt lat="47.28245" lon="6.13624">
        <ele>250.2</ele>
        <time>2019-08-17T13:00:55Z</time>
      </trkpt>
      <trkpt lat="47.28241" lon="6.13619">
        <ele>250.2</ele>
        <time>2019-08-17T13:00:56Z</time>
      </trkpt>
      <trkpt lat="47.28238" lon="6.13615">
        <ele>250.2</ele>
        <time>2019-08-17T13:00:57Z</time>
      </trkpt>
      <trkpt lat="47.28235" lon="6.13611">
        <ele>250.1</ele>
        <time>2019-08-17T13:00:58Z</time>
      </trkpt>
      <trkpt lat="47.28232" lon="6.13606">
        <ele>250.1</ele>
        <time>2019-08-17T13:00:59Z</time>
      </trkpt>
      <trkpt lat="47.28228" lon="6.13601">
        <ele>250.1</ele>
        <time>2019-08-17T13:01:00Z</time>
      </trkpt>
      <trkpt lat="47.28225" lon="6.13596">
        <ele>250.1</ele>
        <time>2019-08-17T13:01:01Z</time>
      </trkpt>
      <trkpt lat="47.28222" lon="6.13591">
        <ele>250.1</ele>
        <time>2019-08-17T13:01:02Z</time>
      </trkpt>
      <trkpt lat="47.28218" lon="6.13585">
        <ele>250.1</ele>
        <time>2019-08-17T13:01:03Z</time>
      </trkpt>
      <trkpt lat="47.28216" lon="6.1358">
        <ele>250.1</ele>
        <time>2019-08-17T13:01:04Z</time>
      </trkpt>
      <trkpt lat="47.28213" lon="6.13574">
        <ele>250.1</ele>
        <time>2019-08-17T13:01:05Z</time>
      </trkpt>
      <trkpt lat="47.2821" lon="6.13568">
        <ele>250.1</ele>
        <time>2019-08-17T13:01:06Z</time>
      </trkpt>
      <trkpt lat="47.28208" lon="6.13562">
        <ele>250.1</ele>
        <time>2019-08-17T13:01:07Z</time>
      </trkpt>
      <trkpt lat="47.28205" lon="6.13557">
        <ele>250.1</ele>
        <time>2019-08-17T13:01:08Z</time>
      </trkpt>
      <trkpt lat="47.28203" lon="6.13551">
        <ele>250.1</ele>
        <time>2019-08-17T13:01:09Z</time>
      </trkpt>
      <trkpt lat="47.282" lon="6.13546">
        <ele>250.1</ele>
        <time>2019-08-17T13:01:10Z</time>
      </trkpt>
      <trkpt lat="47.28198" lon="6.13539">
        <ele>250.1</ele>
        <time>2019-08-17T13:01:11Z</time>
      </trkpt>
      <trkpt lat="47.28196" lon="6.13533">
        <ele>250.1</ele>
        <time>2019-08-17T13:01:12Z</time>
      </trkpt>
      <trkpt lat="47.28194" lon="6.13527">
        <ele>250.2</ele>
        <time>2019-08-17T13:01:13Z</time>
      </trkpt>
      <trkpt lat="47.28192" lon="6.1352">
        <ele>250.2</ele>
        <time>2019-08-17T13:01:14Z</time>
      </trkpt>
      <trkpt lat="47.28191" lon="6.13514">
        <ele>250.3</ele>
        <time>2019-08-17T13:01:15Z</time>
      </trkpt>
      <trkpt lat="47.28189" lon="6.13508">
        <ele>250.3</ele>
        <time>2019-08-17T13:01:16Z</time>
      </trkpt>
      <trkpt lat="47.28186" lon="6.13501">
        <ele>250.4</ele>
        <time>2019-08-17T13:01:17Z</time>
      </trkpt>
      <trkpt lat="47.28183" lon="6.13494">
        <ele>250.5</ele>
        <time>2019-08-17T13:01:18Z</time>
      </trkpt>
      <trkpt lat="47.28181" lon="6.13488">
        <ele>250.6</ele>
        <time>2019-08-17T13:01:19Z</time>
      </trkpt>
      <trkpt lat="47.28178" lon="6.13482">
        <ele>250.6</ele>
        <time>2019-08-17T13:01:20Z</time>
      </trkpt>
      <trkpt lat="47.28175" lon="6.13477">
        <ele>250.7</ele>
        <time>2019-08-17T13:01:21Z</time>
      </trkpt>
      <trkpt lat="47.28173" lon="6.13471">
        <ele>250.8</ele>
        <time>2019-08-17T13:01:22Z</time>
      </trkpt>
      <trkpt lat="47.28172" lon="6.13466">
        <ele>250.8</ele>
        <time>2019-08-17T13:01:23Z</time>
      </trkpt>
      <trkpt lat="47.2817" lon="6.13461">
        <ele>250.9</ele>
        <time>2019-08-17T13:01:24Z</time>
      </trkpt>
      <trkpt lat="47.28168" lon="6.13457">
        <ele>250.9</ele>
        <time>2019-08-17T13:01:25Z</time>
      </trkpt>
      <trkpt lat="47.28167" lon="6.13452">
        <ele>250.9</ele>
        <time>2019-08-17T13:01:26Z</time>
      </trkpt>
      <trkpt lat="47.28166" lon="6.13447">
        <ele>251</ele>
        <time>2019-08-17T13:01:27Z</time>
      </trkpt>
      <trkpt lat="47.28164" lon="6.1344">
        <ele>251</ele>
        <time>2019-08-17T13:01:28Z</time>
      </trkpt>
      <trkpt lat="47.28163" lon="6.13434">
        <ele>251</ele>
        <time>2019-08-17T13:01:29Z</time>
      </trkpt>
      <trkpt lat="47.28163" lon="6.13429">
        <ele>251</ele>
        <time>2019-08-17T13:01:30Z</time>
      </trkpt>
      <trkpt lat="47.28163" lon="6.13424">
        <ele>251</ele>
        <time>2019-08-17T13:01:31Z</time>
      </trkpt>
      <trkpt lat="47.28163" lon="6.13418">
        <ele>251</ele>
        <time>2019-08-17T13:01:32Z</time>
      </trkpt>
      <trkpt lat="47.28162" lon="6.13412">
        <ele>251</ele>
        <time>2019-08-17T13:01:33Z</time>
      </trkpt>
      <trkpt lat="47.28162" lon="6.13407">
        <ele>250.9</ele>
        <time>2019-08-17T13:01:34Z</time>
      </trkpt>
      <trkpt lat="47.28161" lon="6.134">
        <ele>250.9</ele>
        <time>2019-08-17T13:01:35Z</time>
      </trkpt>
      <trkpt lat="47.28159" lon="6.13393">
        <ele>250.8</ele>
        <time>2019-08-17T13:01:36Z</time>
      </trkpt>
      <trkpt lat="47.28159" lon="6.13387">
        <ele>250.6</ele>
        <time>2019-08-17T13:01:37Z</time>
      </trkpt>
      <trkpt lat="47.28158" lon="6.1338">
        <ele>250.4</ele>
        <time>2019-08-17T13:01:38Z</time>
      </trkpt>
      <trkpt lat="47.28157" lon="6.13372">
        <ele>250.1</ele>
        <time>2019-08-17T13:01:39Z</time>
      </trkpt>
      <trkpt lat="47.28156" lon="6.13363">
        <ele>249.6</ele>
        <time>2019-08-17T13:01:40Z</time>
      </trkpt>
      <trkpt lat="47.28155" lon="6.13353">
        <ele>249</ele>
        <time>2019-08-17T13:01:41Z</time>
      </trkpt>
      <trkpt lat="47.28153" lon="6.13344">
        <ele>248.4</ele>
        <time>2019-08-17T13:01:42Z</time>
      </trkpt>
      <trkpt lat="47.28152" lon="6.13335">
        <ele>247.8</ele>
        <time>2019-08-17T13:01:43Z</time>
      </trkpt>
      <trkpt lat="47.28151" lon="6.13328">
        <ele>247.3</ele>
        <time>2019-08-17T13:01:44Z</time>
      </trkpt>
      <trkpt lat="47.28149" lon="6.1332">
        <ele>246.8</ele>
        <time>2019-08-17T13:01:45Z</time>
      </trkpt>
      <trkpt lat="47.28148" lon="6.13313">
        <ele>246.3</ele>
        <time>2019-08-17T13:01:46Z</time>
      </trkpt>
      <trkpt lat="47.28146" lon="6.13306">
        <ele>245.9</ele>
        <time>2019-08-17T13:01:47Z</time>
      </trkpt>
      <trkpt lat="47.28145" lon="6.13298">
        <ele>245.6</ele>
        <time>2019-08-17T13:01:48Z</time>
      </trkpt>
      <trkpt lat="47.28144" lon="6.13291">
        <ele>245.5</ele>
        <time>2019-08-17T13:01:49Z</time>
      </trkpt>
      <trkpt lat="47.28143" lon="6.13284">
        <ele>245.3</ele>
        <time>2019-08-17T13:01:50Z</time>
      </trkpt>
      <trkpt lat="47.28142" lon="6.13277">
        <ele>245.2</ele>
        <time>2019-08-17T13:01:51Z</time>
      </trkpt>
      <trkpt lat="47.28142" lon="6.13271">
        <ele>245.2</ele>
        <time>2019-08-17T13:01:52Z</time>
      </trkpt>
      <trkpt lat="47.28141" lon="6.13264">
        <ele>245.1</ele>
        <time>2019-08-17T13:01:53Z</time>
      </trkpt>
      <trkpt lat="47.2814" lon="6.13258">
        <ele>245.1</ele>
        <time>2019-08-17T13:01:54Z</time>
      </trkpt>
      <trkpt lat="47.28139" lon="6.13251">
        <ele>245</ele>
        <time>2019-08-17T13:01:55Z</time>
      </trkpt>
      <trkpt lat="47.28139" lon="6.13244">
        <ele>245</ele>
        <time>2019-08-17T13:01:56Z</time>
      </trkpt>
      <trkpt lat="47.28138" lon="6.13236">
        <ele>245</ele>
        <time>2019-08-17T13:01:57Z</time>
      </trkpt>
      <trkpt lat="47.28137" lon="6.13229">
        <ele>245</ele>
        <time>2019-08-17T13:01:58Z</time>
      </trkpt>
      <trkpt lat="47.28137" lon="6.13222">
        <ele>245</ele>
        <time>2019-08-17T13:01:59Z</time>
      </trkpt>
      <trkpt lat="47.28136" lon="6.13215">
        <ele>245</ele>
        <time>2019-08-17T13:02:00Z</time>
      </trkpt>
      <trkpt lat="47.28135" lon="6.13209">
        <ele>245</ele>
        <time>2019-08-17T13:02:01Z</time>
      </trkpt>
      <trkpt lat="47.28135" lon="6.13202">
        <ele>245</ele>
        <time>2019-08-17T13:02:02Z</time>
      </trkpt>
      <trkpt lat="47.28134" lon="6.13196">
        <ele>245</ele>
        <time>2019-08-17T13:02:03Z</time>
      </trkpt>
      <trkpt lat="47.28133" lon="6.13189">
        <ele>245</ele>
        <time>2019-08-17T13:02:04Z</time>
      </trkpt>
      <trkpt lat="47.28132" lon="6.13183">
        <ele>245</ele>
        <time>2019-08-17T13:02:05Z</time>
      </trkpt>
      <trkpt lat="47.28132" lon="6.13177">
        <ele>245</ele>
        <time>2019-08-17T13:02:06Z</time>
      </trkpt>
      <trkpt lat="47.28131" lon="6.13171">
        <ele>245</ele>
        <time>2019-08-17T13:02:07Z</time>
      </trkpt>
      <trkpt lat="47.28131" lon="6.13165">
        <ele>245</ele>
        <time>2019-08-17T13:02:08Z</time>
      </trkpt>
      <trkpt lat="47.28131" lon="6.13158">
        <ele>245</ele>
        <time>2019-08-17T13:02:09Z</time>
      </trkpt>
      <trkpt lat="47.2813" lon="6.13151">
        <ele>245</ele>
        <time>2019-08-17T13:02:10Z</time>
      </trkpt>
      <trkpt lat="47.28129" lon="6.13143">
        <ele>245.1</ele>
        <time>2019-08-17T13:02:11Z</time>
      </trkpt>
      <trkpt lat="47.28127" lon="6.13136">
        <ele>245.1</ele>
        <time>2019-08-17T13:02:12Z</time>
      </trkpt>
      <trkpt lat="47.28126" lon="6.13128">
        <ele>245.2</ele>
        <time>2019-08-17T13:02:13Z</time>
      </trkpt>
      <trkpt lat="47.28123" lon="6.1312">
        <ele>245.3</ele>
        <time>2019-08-17T13:02:14Z</time>
      </trkpt>
      <trkpt lat="47.28121" lon="6.13112">
        <ele>245.4</ele>
        <time>2019-08-17T13:02:15Z</time>
      </trkpt>
      <trkpt lat="47.28119" lon="6.13103">
        <ele>245.5</ele>
        <time>2019-08-17T13:02:16Z</time>
      </trkpt>
      <trkpt lat="47.28116" lon="6.13097">
        <ele>245.6</ele>
        <time>2019-08-17T13:02:17Z</time>
      </trkpt>
      <trkpt lat="47.28115" lon="6.13089">
        <ele>245.7</ele>
        <time>2019-08-17T13:02:18Z</time>
      </trkpt>
      <trkpt lat="47.28113" lon="6.13081">
        <ele>245.8</ele>
        <time>2019-08-17T13:02:19Z</time>
      </trkpt>
      <trkpt lat="47.28112" lon="6.13072">
        <ele>245.9</ele>
        <time>2019-08-17T13:02:20Z</time>
      </trkpt>
      <trkpt lat="47.2811" lon="6.13063">
        <ele>246</ele>
        <time>2019-08-17T13:02:21Z</time>
      </trkpt>
      <trkpt lat="47.28108" lon="6.13055">
        <ele>246.2</ele>
        <time>2019-08-17T13:02:22Z</time>
      </trkpt>
      <trkpt lat="47.28106" lon="6.13047">
        <ele>246.3</ele>
        <time>2019-08-17T13:02:23Z</time>
      </trkpt>
      <trkpt lat="47.28105" lon="6.13039">
        <ele>246.4</ele>
        <time>2019-08-17T13:02:24Z</time>
      </trkpt>
      <trkpt lat="47.28103" lon="6.13032">
        <ele>246.5</ele>
        <time>2019-08-17T13:02:25Z</time>
      </trkpt>
      <trkpt lat="47.28101" lon="6.13023">
        <ele>246.6</ele>
        <time>2019-08-17T13:02:26Z</time>
      </trkpt>
      <trkpt lat="47.281" lon="6.13016">
        <ele>246.7</ele>
        <time>2019-08-17T13:02:27Z</time>
      </trkpt>
      <trkpt lat="47.28099" lon="6.13008">
        <ele>246.8</ele>
        <time>2019-08-17T13:02:28Z</time>
      </trkpt>
      <trkpt lat="47.28098" lon="6.13001">
        <ele>246.8</ele>
        <time>2019-08-17T13:02:29Z</time>
      </trkpt>
      <trkpt lat="47.28096" lon="6.12993">
        <ele>246.9</ele>
        <time>2019-08-17T13:02:30Z</time>
      </trkpt>
      <trkpt lat="47.28094" lon="6.12986">
        <ele>247</ele>
        <time>2019-08-17T13:02:31Z</time>
      </trkpt>
      <trkpt lat="47.28093" lon="6.12979">
        <ele>247.1</ele>
        <time>2019-08-17T13:02:32Z</time>
      </trkpt>
      <trkpt lat="47.28091" lon="6.12973">
        <ele>247.2</ele>
        <time>2019-08-17T13:02:33Z</time>
      </trkpt>
      <trkpt lat="47.2809" lon="6.12966">
        <ele>247.2</ele>
        <time>2019-08-17T13:02:34Z</time>
      </trkpt>
      <trkpt lat="47.28089" lon="6.12958">
        <ele>247.3</ele>
        <time>2019-08-17T13:02:35Z</time>
      </trkpt>
      <trkpt lat="47.28088" lon="6.12952">
        <ele>247.4</ele>
        <time>2019-08-17T13:02:36Z</time>
      </trkpt>
      <trkpt lat="47.28088" lon="6.12945">
        <ele>247.4</ele>
        <time>2019-08-17T13:02:37Z</time>
      </trkpt>
      <trkpt lat="47.28088" lon="6.12938">
        <ele>247.5</ele>
        <time>2019-08-17T13:02:38Z</time>
      </trkpt>
      <trkpt lat="47.28088" lon="6.12931">
        <ele>247.6</ele>
        <time>2019-08-17T13:02:39Z</time>
      </trkpt>
      <trkpt lat="47.28088" lon="6.12925">
        <ele>247.7</ele>
        <time>2019-08-17T13:02:40Z</time>
      </trkpt>
      <trkpt lat="47.28088" lon="6.12918">
        <ele>247.8</ele>
        <time>2019-08-17T13:02:41Z</time>
      </trkpt>
      <trkpt lat="47.28088" lon="6.12911">
        <ele>247.8</ele>
        <time>2019-08-17T13:02:42Z</time>
      </trkpt>
      <trkpt lat="47.28088" lon="6.12905">
        <ele>247.9</ele>
        <time>2019-08-17T13:02:43Z</time>
      </trkpt>
      <trkpt lat="47.28088" lon="6.12899">
        <ele>248</ele>
        <time>2019-08-17T13:02:44Z</time>
      </trkpt>
      <trkpt lat="47.28087" lon="6.12892">
        <ele>248.1</ele>
        <time>2019-08-17T13:02:45Z</time>
      </trkpt>
      <trkpt lat="47.28087" lon="6.12885">
        <ele>248.2</ele>
        <time>2019-08-17T13:02:46Z</time>
      </trkpt>
      <trkpt lat="47.28086" lon="6.1288">
        <ele>248.3</ele>
        <time>2019-08-17T13:02:47Z</time>
      </trkpt>
      <trkpt lat="47.28086" lon="6.12873">
        <ele>248.3</ele>
        <time>2019-08-17T13:02:48Z</time>
      </trkpt>
      <trkpt lat="47.28087" lon="6.12865">
        <ele>248.5</ele>
        <time>2019-08-17T13:02:49Z</time>
      </trkpt>
      <trkpt lat="47.28086" lon="6.12858">
        <ele>248.6</ele>
        <time>2019-08-17T13:02:50Z</time>
      </trkpt>
      <trkpt lat="47.28087" lon="6.1285">
        <ele>249.6</ele>
        <time>2019-08-17T13:02:51Z</time>
      </trkpt>
      <trkpt lat="47.28086" lon="6.12841">
        <ele>250.3</ele>
        <time>2019-08-17T13:02:52Z</time>
      </trkpt>
      <trkpt lat="47.28086" lon="6.12833">
        <ele>249.7</ele>
        <time>2019-08-17T13:02:53Z</time>
      </trkpt>
      <trkpt lat="47.28085" lon="6.12826">
        <ele>249.5</ele>
        <time>2019-08-17T13:02:54Z</time>
      </trkpt>
      <trkpt lat="47.28085" lon="6.12819">
        <ele>249.4</ele>
        <time>2019-08-17T13:02:55Z</time>
      </trkpt>
      <trkpt lat="47.28084" lon="6.12812">
        <ele>249.4</ele>
        <time>2019-08-17T13:02:56Z</time>
      </trkpt>
      <trkpt lat="47.28083" lon="6.12805">
        <ele>249.5</ele>
        <time>2019-08-17T13:02:57Z</time>
      </trkpt>
      <trkpt lat="47.28083" lon="6.12798">
        <ele>249.5</ele>
        <time>2019-08-17T13:02:58Z</time>
      </trkpt>
      <trkpt lat="47.28083" lon="6.12792">
        <ele>249.6</ele>
        <time>2019-08-17T13:02:59Z</time>
      </trkpt>
      <trkpt lat="47.28083" lon="6.12784">
        <ele>249.7</ele>
        <time>2019-08-17T13:03:00Z</time>
      </trkpt>
      <trkpt lat="47.28082" lon="6.12777">
        <ele>249.9</ele>
        <time>2019-08-17T13:03:01Z</time>
      </trkpt>
      <trkpt lat="47.28081" lon="6.12769">
        <ele>250</ele>
        <time>2019-08-17T13:03:02Z</time>
      </trkpt>
      <trkpt lat="47.2808" lon="6.12762">
        <ele>250.2</ele>
        <time>2019-08-17T13:03:03Z</time>
      </trkpt>
      <trkpt lat="47.28079" lon="6.12755">
        <ele>250.3</ele>
        <time>2019-08-17T13:03:04Z</time>
      </trkpt>
      <trkpt lat="47.28079" lon="6.12747">
        <ele>250.4</ele>
        <time>2019-08-17T13:03:05Z</time>
      </trkpt>
      <trkpt lat="47.28077" lon="6.12741">
        <ele>250.6</ele>
        <time>2019-08-17T13:03:06Z</time>
      </trkpt>
      <trkpt lat="47.28076" lon="6.12734">
        <ele>250.7</ele>
        <time>2019-08-17T13:03:07Z</time>
      </trkpt>
      <trkpt lat="47.28076" lon="6.12727">
        <ele>250.7</ele>
        <time>2019-08-17T13:03:08Z</time>
      </trkpt>
      <trkpt lat="47.28076" lon="6.12721">
        <ele>250.7</ele>
        <time>2019-08-17T13:03:09Z</time>
      </trkpt>
      <trkpt lat="47.28075" lon="6.12715">
        <ele>250.7</ele>
        <time>2019-08-17T13:03:10Z</time>
      </trkpt>
      <trkpt lat="47.28073" lon="6.12709">
        <ele>250.7</ele>
        <time>2019-08-17T13:03:11Z</time>
      </trkpt>
      <trkpt lat="47.28072" lon="6.12703">
        <ele>250.7</ele>
        <time>2019-08-17T13:03:12Z</time>
      </trkpt>
      <trkpt lat="47.28072" lon="6.12697">
        <ele>250.7</ele>
        <time>2019-08-17T13:03:13Z</time>
      </trkpt>
      <trkpt lat="47.28071" lon="6.12691">
        <ele>250.7</ele>
        <time>2019-08-17T13:03:14Z</time>
      </trkpt>
      <trkpt lat="47.2807" lon="6.12685">
        <ele>250.7</ele>
        <time>2019-08-17T13:03:15Z</time>
      </trkpt>
      <trkpt lat="47.28069" lon="6.12678">
        <ele>250.7</ele>
        <time>2019-08-17T13:03:16Z</time>
      </trkpt>
      <trkpt lat="47.28068" lon="6.12672">
        <ele>250.8</ele>
        <time>2019-08-17T13:03:17Z</time>
      </trkpt>
      <trkpt lat="47.28066" lon="6.12666">
        <ele>250.8</ele>
        <time>2019-08-17T13:03:18Z</time>
      </trkpt>
      <trkpt lat="47.28065" lon="6.1266">
        <ele>250.8</ele>
        <time>2019-08-17T13:03:19Z</time>
      </trkpt>
      <trkpt lat="47.28064" lon="6.12654">
        <ele>250.8</ele>
        <time>2019-08-17T13:03:20Z</time>
      </trkpt>
      <trkpt lat="47.28063" lon="6.12649">
        <ele>250.8</ele>
        <time>2019-08-17T13:03:21Z</time>
      </trkpt>
      <trkpt lat="47.28062" lon="6.12644">
        <ele>250.8</ele>
        <time>2019-08-17T13:03:22Z</time>
      </trkpt>
      <trkpt lat="47.2806" lon="6.12637">
        <ele>250.8</ele>
        <time>2019-08-17T13:03:23Z</time>
      </trkpt>
      <trkpt lat="47.28059" lon="6.12631">
        <ele>250.8</ele>
        <time>2019-08-17T13:03:24Z</time>
      </trkpt>
      <trkpt lat="47.28057" lon="6.12623">
        <ele>250.7</ele>
        <time>2019-08-17T13:03:25Z</time>
      </trkpt>
      <trkpt lat="47.28055" lon="6.12616">
        <ele>250.7</ele>
        <time>2019-08-17T13:03:26Z</time>
      </trkpt>
      <trkpt lat="47.28054" lon="6.12609">
        <ele>250.7</ele>
        <time>2019-08-17T13:03:27Z</time>
      </trkpt>
      <trkpt lat="47.28053" lon="6.12601">
        <ele>250.7</ele>
        <time>2019-08-17T13:03:28Z</time>
      </trkpt>
      <trkpt lat="47.28051" lon="6.12594">
        <ele>250.7</ele>
        <time>2019-08-17T13:03:29Z</time>
      </trkpt>
      <trkpt lat="47.28049" lon="6.12588">
        <ele>250.6</ele>
        <time>2019-08-17T13:03:30Z</time>
      </trkpt>
      <trkpt lat="47.28047" lon="6.12581">
        <ele>250.6</ele>
        <time>2019-08-17T13:03:31Z</time>
      </trkpt>
      <trkpt lat="47.28045" lon="6.12575">
        <ele>250.5</ele>
        <time>2019-08-17T13:03:32Z</time>
      </trkpt>
      <trkpt lat="47.28043" lon="6.12569">
        <ele>250.5</ele>
        <time>2019-08-17T13:03:33Z</time>
      </trkpt>
      <trkpt lat="47.28041" lon="6.12563">
        <ele>250.4</ele>
        <time>2019-08-17T13:03:34Z</time>
      </trkpt>
      <trkpt lat="47.28039" lon="6.12558">
        <ele>250.4</ele>
        <time>2019-08-17T13:03:35Z</time>
      </trkpt>
      <trkpt lat="47.28036" lon="6.12552">
        <ele>250.3</ele>
        <time>2019-08-17T13:03:36Z</time>
      </trkpt>
      <trkpt lat="47.28033" lon="6.12545">
        <ele>250.2</ele>
        <time>2019-08-17T13:03:37Z</time>
      </trkpt>
      <trkpt lat="47.2803" lon="6.12538">
        <ele>250.2</ele>
        <time>2019-08-17T13:03:38Z</time>
      </trkpt>
      <trkpt lat="47.28027" lon="6.12532">
        <ele>250.1</ele>
        <time>2019-08-17T13:03:39Z</time>
      </trkpt>
      <trkpt lat="47.28025" lon="6.12527">
        <ele>250</ele>
        <time>2019-08-17T13:03:40Z</time>
      </trkpt>
      <trkpt lat="47.28022" lon="6.12522">
        <ele>250</ele>
        <time>2019-08-17T13:03:41Z</time>
      </trkpt>
      <trkpt lat="47.28018" lon="6.12516">
        <ele>249.9</ele>
        <time>2019-08-17T13:03:42Z</time>
      </trkpt>
      <trkpt lat="47.28015" lon="6.12511">
        <ele>249.9</ele>
        <time>2019-08-17T13:03:43Z</time>
      </trkpt>
      <trkpt lat="47.28011" lon="6.12506">
        <ele>249.8</ele>
        <time>2019-08-17T13:03:44Z</time>
      </trkpt>
      <trkpt lat="47.28008" lon="6.125">
        <ele>249.8</ele>
        <time>2019-08-17T13:03:45Z</time>
      </trkpt>
      <trkpt lat="47.28006" lon="6.12496">
        <ele>249.7</ele>
        <time>2019-08-17T13:03:46Z</time>
      </trkpt>
      <trkpt lat="47.28003" lon="6.1249">
        <ele>249.7</ele>
        <time>2019-08-17T13:03:47Z</time>
      </trkpt>
      <trkpt lat="47.28" lon="6.12484">
        <ele>249.6</ele>
        <time>2019-08-17T13:03:48Z</time>
      </trkpt>
      <trkpt lat="47.27997" lon="6.12479">
        <ele>249.6</ele>
        <time>2019-08-17T13:03:49Z</time>
      </trkpt>
      <trkpt lat="47.27995" lon="6.12473">
        <ele>249.5</ele>
        <time>2019-08-17T13:03:50Z</time>
      </trkpt>
      <trkpt lat="47.27992" lon="6.12467">
        <ele>249.5</ele>
        <time>2019-08-17T13:03:51Z</time>
      </trkpt>
      <trkpt lat="47.2799" lon="6.12462">
        <ele>249.5</ele>
        <time>2019-08-17T13:03:52Z</time>
      </trkpt>
      <trkpt lat="47.27988" lon="6.12457">
        <ele>249.5</ele>
        <time>2019-08-17T13:03:53Z</time>
      </trkpt>
      <trkpt lat="47.27985" lon="6.12451">
        <ele>249.5</ele>
        <time>2019-08-17T13:03:54Z</time>
      </trkpt>
      <trkpt lat="47.27982" lon="6.12446">
        <ele>249.5</ele>
        <time>2019-08-17T13:03:55Z</time>
      </trkpt>
      <trkpt lat="47.27978" lon="6.1244">
        <ele>249.6</ele>
        <time>2019-08-17T13:03:56Z</time>
      </trkpt>
      <trkpt lat="47.27975" lon="6.12435">
        <ele>249.6</ele>
        <time>2019-08-17T13:03:57Z</time>
      </trkpt>
      <trkpt lat="47.27972" lon="6.12429">
        <ele>249.6</ele>
        <time>2019-08-17T13:03:58Z</time>
      </trkpt>
      <trkpt lat="47.27968" lon="6.12423">
        <ele>249.6</ele>
        <time>2019-08-17T13:03:59Z</time>
      </trkpt>
      <trkpt lat="47.27964" lon="6.12416">
        <ele>249.6</ele>
        <time>2019-08-17T13:04:00Z</time>
      </trkpt>
      <trkpt lat="47.27962" lon="6.1241">
        <ele>249.6</ele>
        <time>2019-08-17T13:04:01Z</time>
      </trkpt>
      <trkpt lat="47.27959" lon="6.12404">
        <ele>249.7</ele>
        <time>2019-08-17T13:04:02Z</time>
      </trkpt>
      <trkpt lat="47.27956" lon="6.12397">
        <ele>249.7</ele>
        <time>2019-08-17T13:04:03Z</time>
      </trkpt>
      <trkpt lat="47.27953" lon="6.12391">
        <ele>249.6</ele>
        <time>2019-08-17T13:04:04Z</time>
      </trkpt>
      <trkpt lat="47.27951" lon="6.12385">
        <ele>249.6</ele>
        <time>2019-08-17T13:04:05Z</time>
      </trkpt>
      <trkpt lat="47.27948" lon="6.12378">
        <ele>249.6</ele>
        <time>2019-08-17T13:04:06Z</time>
      </trkpt>
      <trkpt lat="47.27946" lon="6.12372">
        <ele>249.6</ele>
        <time>2019-08-17T13:04:07Z</time>
      </trkpt>
      <trkpt lat="47.27943" lon="6.12366">
        <ele>249.6</ele>
        <time>2019-08-17T13:04:08Z</time>
      </trkpt>
      <trkpt lat="47.2794" lon="6.12361">
        <ele>249.6</ele>
        <time>2019-08-17T13:04:09Z</time>
      </trkpt>
      <trkpt lat="47.27936" lon="6.12359">
        <ele>249.5</ele>
        <time>2019-08-17T13:04:10Z</time>
      </trkpt>
      <trkpt lat="47.27932" lon="6.12355">
        <ele>249.5</ele>
        <time>2019-08-17T13:04:11Z</time>
      </trkpt>
      <trkpt lat="47.27928" lon="6.1235">
        <ele>249.5</ele>
        <time>2019-08-17T13:04:12Z</time>
      </trkpt>
      <trkpt lat="47.27924" lon="6.12345">
        <ele>249.5</ele>
        <time>2019-08-17T13:04:13Z</time>
      </trkpt>
      <trkpt lat="47.27921" lon="6.12341">
        <ele>249.5</ele>
        <time>2019-08-17T13:04:14Z</time>
      </trkpt>
      <trkpt lat="47.27918" lon="6.12336">
        <ele>249.5</ele>
        <time>2019-08-17T13:04:15Z</time>
      </trkpt>
      <trkpt lat="47.27915" lon="6.1233">
        <ele>249.5</ele>
        <time>2019-08-17T13:04:16Z</time>
      </trkpt>
      <trkpt lat="47.27911" lon="6.12325">
        <ele>249.6</ele>
        <time>2019-08-17T13:04:17Z</time>
      </trkpt>
      <trkpt lat="47.27907" lon="6.12319">
        <ele>249.6</ele>
        <time>2019-08-17T13:04:18Z</time>
      </trkpt>
      <trkpt lat="47.27904" lon="6.12314">
        <ele>249.7</ele>
        <time>2019-08-17T13:04:19Z</time>
      </trkpt>
      <trkpt lat="47.27901" lon="6.12308">
        <ele>249.8</ele>
        <time>2019-08-17T13:04:20Z</time>
      </trkpt>
      <trkpt lat="47.27898" lon="6.12303">
        <ele>250</ele>
        <time>2019-08-17T13:04:21Z</time>
      </trkpt>
      <trkpt lat="47.27895" lon="6.12297">
        <ele>250.2</ele>
        <time>2019-08-17T13:04:22Z</time>
      </trkpt>
      <trkpt lat="47.27892" lon="6.12291">
        <ele>250.4</ele>
        <time>2019-08-17T13:04:23Z</time>
      </trkpt>
      <trkpt lat="47.27889" lon="6.12286">
        <ele>250.7</ele>
        <time>2019-08-17T13:04:24Z</time>
      </trkpt>
      <trkpt lat="47.27885" lon="6.1228">
        <ele>251</ele>
        <time>2019-08-17T13:04:25Z</time>
      </trkpt>
      <trkpt lat="47.27882" lon="6.12274">
        <ele>251.3</ele>
        <time>2019-08-17T13:04:26Z</time>
      </trkpt>
      <trkpt lat="47.27878" lon="6.12268">
        <ele>251.6</ele>
        <time>2019-08-17T13:04:27Z</time>
      </trkpt>
      <trkpt lat="47.27875" lon="6.12262">
        <ele>252</ele>
        <time>2019-08-17T13:04:28Z</time>
      </trkpt>
      <trkpt lat="47.27872" lon="6.12256">
        <ele>252.2</ele>
        <time>2019-08-17T13:04:29Z</time>
      </trkpt>
      <trkpt lat="47.27869" lon="6.12251">
        <ele>252.5</ele>
        <time>2019-08-17T13:04:30Z</time>
      </trkpt>
      <trkpt lat="47.27866" lon="6.12245">
        <ele>252.7</ele>
        <time>2019-08-17T13:04:31Z</time>
      </trkpt>
      <trkpt lat="47.27863" lon="6.12241">
        <ele>252.8</ele>
        <time>2019-08-17T13:04:32Z</time>
      </trkpt>
      <trkpt lat="47.2786" lon="6.12236">
        <ele>252.9</ele>
        <time>2019-08-17T13:04:33Z</time>
      </trkpt>
      <trkpt lat="47.27857" lon="6.12231">
        <ele>253.1</ele>
        <time>2019-08-17T13:04:34Z</time>
      </trkpt>
      <trkpt lat="47.27854" lon="6.12226">
        <ele>253.1</ele>
        <time>2019-08-17T13:04:35Z</time>
      </trkpt>
      <trkpt lat="47.27851" lon="6.1222">
        <ele>253.2</ele>
        <time>2019-08-17T13:04:36Z</time>
      </trkpt>
      <trkpt lat="47.27847" lon="6.12214">
        <ele>253.3</ele>
        <time>2019-08-17T13:04:37Z</time>
      </trkpt>
      <trkpt lat="47.27845" lon="6.12208">
        <ele>253.3</ele>
        <time>2019-08-17T13:04:38Z</time>
      </trkpt>
      <trkpt lat="47.27842" lon="6.12202">
        <ele>253.4</ele>
        <time>2019-08-17T13:04:39Z</time>
      </trkpt>
      <trkpt lat="47.27838" lon="6.12196">
        <ele>253.4</ele>
        <time>2019-08-17T13:04:40Z</time>
      </trkpt>
      <trkpt lat="47.27835" lon="6.1219">
        <ele>253.4</ele>
        <time>2019-08-17T13:04:41Z</time>
      </trkpt>
      <trkpt lat="47.27831" lon="6.12185">
        <ele>253.5</ele>
        <time>2019-08-17T13:04:42Z</time>
      </trkpt>
      <trkpt lat="47.27827" lon="6.12181">
        <ele>253.5</ele>
        <time>2019-08-17T13:04:43Z</time>
      </trkpt>
      <trkpt lat="47.27824" lon="6.12176">
        <ele>253.5</ele>
        <time>2019-08-17T13:04:44Z</time>
      </trkpt>
      <trkpt lat="47.2782" lon="6.12172">
        <ele>253.6</ele>
        <time>2019-08-17T13:04:45Z</time>
      </trkpt>
      <trkpt lat="47.27817" lon="6.12168">
        <ele>253.6</ele>
        <time>2019-08-17T13:04:46Z</time>
      </trkpt>
      <trkpt lat="47.27814" lon="6.12163">
        <ele>253.6</ele>
        <time>2019-08-17T13:04:47Z</time>
      </trkpt>
      <trkpt lat="47.27811" lon="6.1216">
        <ele>253.7</ele>
        <time>2019-08-17T13:04:48Z</time>
      </trkpt>
      <trkpt lat="47.27808" lon="6.12156">
        <ele>253.7</ele>
        <time>2019-08-17T13:04:49Z</time>
      </trkpt>
      <trkpt lat="47.27804" lon="6.12152">
        <ele>253.8</ele>
        <time>2019-08-17T13:04:50Z</time>
      </trkpt>
      <trkpt lat="47.278" lon="6.12149">
        <ele>253.8</ele>
        <time>2019-08-17T13:04:51Z</time>
      </trkpt>
      <trkpt lat="47.27796" lon="6.12146">
        <ele>253.9</ele>
        <time>2019-08-17T13:04:52Z</time>
      </trkpt>
      <trkpt lat="47.27792" lon="6.12143">
        <ele>253.9</ele>
        <time>2019-08-17T13:04:53Z</time>
      </trkpt>
      <trkpt lat="47.27788" lon="6.1214">
        <ele>254</ele>
        <time>2019-08-17T13:04:54Z</time>
      </trkpt>
      <trkpt lat="47.27785" lon="6.12137">
        <ele>254</ele>
        <time>2019-08-17T13:04:55Z</time>
      </trkpt>
      <trkpt lat="47.27781" lon="6.12134">
        <ele>254.1</ele>
        <time>2019-08-17T13:04:56Z</time>
      </trkpt>
      <trkpt lat="47.27777" lon="6.12131">
        <ele>254.1</ele>
        <time>2019-08-17T13:04:57Z</time>
      </trkpt>
      <trkpt lat="47.27772" lon="6.12128">
        <ele>254.1</ele>
        <time>2019-08-17T13:04:58Z</time>
      </trkpt>
      <trkpt lat="47.27767" lon="6.12125">
        <ele>254.1</ele>
        <time>2019-08-17T13:04:59Z</time>
      </trkpt>
      <trkpt lat="47.27762" lon="6.12123">
        <ele>254.1</ele>
        <time>2019-08-17T13:05:00Z</time>
      </trkpt>
      <trkpt lat="47.27758" lon="6.12119">
        <ele>254.1</ele>
        <time>2019-08-17T13:05:01Z</time>
      </trkpt>
      <trkpt lat="47.27754" lon="6.12114">
        <ele>254</ele>
        <time>2019-08-17T13:05:02Z</time>
      </trkpt>
      <trkpt lat="47.27749" lon="6.12109">
        <ele>253.8</ele>
        <time>2019-08-17T13:05:03Z</time>
      </trkpt>
      <trkpt lat="47.27746" lon="6.12105">
        <ele>253.6</ele>
        <time>2019-08-17T13:05:04Z</time>
      </trkpt>
      <trkpt lat="47.27742" lon="6.12101">
        <ele>253.3</ele>
        <time>2019-08-17T13:05:05Z</time>
      </trkpt>
      <trkpt lat="47.27738" lon="6.12097">
        <ele>253</ele>
        <time>2019-08-17T13:05:06Z</time>
      </trkpt>
      <trkpt lat="47.27735" lon="6.12093">
        <ele>252.7</ele>
        <time>2019-08-17T13:05:07Z</time>
      </trkpt>
      <trkpt lat="47.27731" lon="6.12088">
        <ele>252.3</ele>
        <time>2019-08-17T13:05:08Z</time>
      </trkpt>
      <trkpt lat="47.27728" lon="6.12084">
        <ele>251.9</ele>
        <time>2019-08-17T13:05:09Z</time>
      </trkpt>
      <trkpt lat="47.27724" lon="6.12079">
        <ele>251.4</ele>
        <time>2019-08-17T13:05:10Z</time>
      </trkpt>
      <trkpt lat="47.27719" lon="6.12075">
        <ele>250.9</ele>
        <time>2019-08-17T13:05:11Z</time>
      </trkpt>
      <trkpt lat="47.27715" lon="6.1207">
        <ele>250.5</ele>
        <time>2019-08-17T13:05:12Z</time>
      </trkpt>
      <trkpt lat="47.2771" lon="6.12065">
        <ele>250.1</ele>
        <time>2019-08-17T13:05:13Z</time>
      </trkpt>
      <trkpt lat="47.27706" lon="6.1206">
        <ele>249.7</ele>
        <time>2019-08-17T13:05:14Z</time>
      </trkpt>
      <trkpt lat="47.27701" lon="6.12057">
        <ele>249.5</ele>
        <time>2019-08-17T13:05:15Z</time>
      </trkpt>
      <trkpt lat="47.27697" lon="6.12052">
        <ele>249.3</ele>
        <time>2019-08-17T13:05:16Z</time>
      </trkpt>
      <trkpt lat="47.27692" lon="6.12048">
        <ele>249.1</ele>
        <time>2019-08-17T13:05:17Z</time>
      </trkpt>
      <trkpt lat="47.27687" lon="6.12044">
        <ele>249</ele>
        <time>2019-08-17T13:05:18Z</time>
      </trkpt>
      <trkpt lat="47.27683" lon="6.12039">
        <ele>248.9</ele>
        <time>2019-08-17T13:05:19Z</time>
      </trkpt>
      <trkpt lat="47.27679" lon="6.12034">
        <ele>248.9</ele>
        <time>2019-08-17T13:05:20Z</time>
      </trkpt>
      <trkpt lat="47.27675" lon="6.12029">
        <ele>248.9</ele>
        <time>2019-08-17T13:05:21Z</time>
      </trkpt>
      <trkpt lat="47.27672" lon="6.12024">
        <ele>248.9</ele>
        <time>2019-08-17T13:05:22Z</time>
      </trkpt>
      <trkpt lat="47.27668" lon="6.12019">
        <ele>248.9</ele>
        <time>2019-08-17T13:05:23Z</time>
      </trkpt>
      <trkpt lat="47.27664" lon="6.12015">
        <ele>248.9</ele>
        <time>2019-08-17T13:05:24Z</time>
      </trkpt>
      <trkpt lat="47.2766" lon="6.1201">
        <ele>248.9</ele>
        <time>2019-08-17T13:05:25Z</time>
      </trkpt>
      <trkpt lat="47.27657" lon="6.12005">
        <ele>248.9</ele>
        <time>2019-08-17T13:05:26Z</time>
      </trkpt>
      <trkpt lat="47.27653" lon="6.12">
        <ele>248.9</ele>
        <time>2019-08-17T13:05:27Z</time>
      </trkpt>
      <trkpt lat="47.2765" lon="6.11994">
        <ele>249</ele>
        <time>2019-08-17T13:05:28Z</time>
      </trkpt>
      <trkpt lat="47.27646" lon="6.11989">
        <ele>249</ele>
        <time>2019-08-17T13:05:29Z</time>
      </trkpt>
      <trkpt lat="47.27643" lon="6.11984">
        <ele>249</ele>
        <time>2019-08-17T13:05:30Z</time>
      </trkpt>
      <trkpt lat="47.2764" lon="6.1198">
        <ele>249</ele>
        <time>2019-08-17T13:05:31Z</time>
      </trkpt>
      <trkpt lat="47.27637" lon="6.11975">
        <ele>249</ele>
        <time>2019-08-17T13:05:32Z</time>
      </trkpt>
      <trkpt lat="47.27633" lon="6.11971">
        <ele>249</ele>
        <time>2019-08-17T13:05:33Z</time>
      </trkpt>
      <trkpt lat="47.2763" lon="6.11968">
        <ele>249</ele>
        <time>2019-08-17T13:05:34Z</time>
      </trkpt>
      <trkpt lat="47.27626" lon="6.11965">
        <ele>249</ele>
        <time>2019-08-17T13:05:35Z</time>
      </trkpt>
      <trkpt lat="47.27622" lon="6.11961">
        <ele>248.9</ele>
        <time>2019-08-17T13:05:36Z</time>
      </trkpt>
      <trkpt lat="47.27619" lon="6.11957">
        <ele>248.9</ele>
        <time>2019-08-17T13:05:37Z</time>
      </trkpt>
      <trkpt lat="47.27615" lon="6.11953">
        <ele>248.8</ele>
        <time>2019-08-17T13:05:38Z</time>
      </trkpt>
      <trkpt lat="47.27611" lon="6.11948">
        <ele>248.7</ele>
        <time>2019-08-17T13:05:39Z</time>
      </trkpt>
      <trkpt lat="47.27608" lon="6.11943">
        <ele>248.7</ele>
        <time>2019-08-17T13:05:40Z</time>
      </trkpt>
      <trkpt lat="47.27604" lon="6.11937">
        <ele>248.6</ele>
        <time>2019-08-17T13:05:41Z</time>
      </trkpt>
      <trkpt lat="47.276" lon="6.11933">
        <ele>248.5</ele>
        <time>2019-08-17T13:05:42Z</time>
      </trkpt>
      <trkpt lat="47.27597" lon="6.11928">
        <ele>248.5</ele>
        <time>2019-08-17T13:05:43Z</time>
      </trkpt>
      <trkpt lat="47.27593" lon="6.11922">
        <ele>248.4</ele>
        <time>2019-08-17T13:05:44Z</time>
      </trkpt>
      <trkpt lat="47.27589" lon="6.11918">
        <ele>248.4</ele>
        <time>2019-08-17T13:05:45Z</time>
      </trkpt>
      <trkpt lat="47.27584" lon="6.11912">
        <ele>248.3</ele>
        <time>2019-08-17T13:05:46Z</time>
      </trkpt>
      <trkpt lat="47.2758" lon="6.11907">
        <ele>248.3</ele>
        <time>2019-08-17T13:05:47Z</time>
      </trkpt>
      <trkpt lat="47.27576" lon="6.11902">
        <ele>248.3</ele>
        <time>2019-08-17T13:05:48Z</time>
      </trkpt>
      <trkpt lat="47.27573" lon="6.11898">
        <ele>248.3</ele>
        <time>2019-08-17T13:05:49Z</time>
      </trkpt>
      <trkpt lat="47.27569" lon="6.11894">
        <ele>248.4</ele>
        <time>2019-08-17T13:05:50Z</time>
      </trkpt>
      <trkpt lat="47.27565" lon="6.1189">
        <ele>248.4</ele>
        <time>2019-08-17T13:05:51Z</time>
      </trkpt>
      <trkpt lat="47.27561" lon="6.11885">
        <ele>248.5</ele>
        <time>2019-08-17T13:05:52Z</time>
      </trkpt>
      <trkpt lat="47.27557" lon="6.1188">
        <ele>248.5</ele>
        <time>2019-08-17T13:05:53Z</time>
      </trkpt>
      <trkpt lat="47.27553" lon="6.11875">
        <ele>248.6</ele>
        <time>2019-08-17T13:05:54Z</time>
      </trkpt>
      <trkpt lat="47.27549" lon="6.11871">
        <ele>248.6</ele>
        <time>2019-08-17T13:05:55Z</time>
      </trkpt>
      <trkpt lat="47.27545" lon="6.11866">
        <ele>248.7</ele>
        <time>2019-08-17T13:05:56Z</time>
      </trkpt>
      <trkpt lat="47.27541" lon="6.11861">
        <ele>248.8</ele>
        <time>2019-08-17T13:05:57Z</time>
      </trkpt>
      <trkpt lat="47.27537" lon="6.11856">
        <ele>248.8</ele>
        <time>2019-08-17T13:05:58Z</time>
      </trkpt>
      <trkpt lat="47.27533" lon="6.11852">
        <ele>248.9</ele>
        <time>2019-08-17T13:05:59Z</time>
      </trkpt>
      <trkpt lat="47.27529" lon="6.11848">
        <ele>248.9</ele>
        <time>2019-08-17T13:06:00Z</time>
      </trkpt>
      <trkpt lat="47.27525" lon="6.11844">
        <ele>248.9</ele>
        <time>2019-08-17T13:06:01Z</time>
      </trkpt>
      <trkpt lat="47.27522" lon="6.1184">
        <ele>248.9</ele>
        <time>2019-08-17T13:06:02Z</time>
      </trkpt>
      <trkpt lat="47.27518" lon="6.11836">
        <ele>248.8</ele>
        <time>2019-08-17T13:06:03Z</time>
      </trkpt>
      <trkpt lat="47.27514" lon="6.11832">
        <ele>248.8</ele>
        <time>2019-08-17T13:06:04Z</time>
      </trkpt>
      <trkpt lat="47.27511" lon="6.11827">
        <ele>248.8</ele>
        <time>2019-08-17T13:06:05Z</time>
      </trkpt>
      <trkpt lat="47.27507" lon="6.11822">
        <ele>248.7</ele>
        <time>2019-08-17T13:06:06Z</time>
      </trkpt>
      <trkpt lat="47.27502" lon="6.11819">
        <ele>248.7</ele>
        <time>2019-08-17T13:06:07Z</time>
      </trkpt>
      <trkpt lat="47.27497" lon="6.11814">
        <ele>248.7</ele>
        <time>2019-08-17T13:06:08Z</time>
      </trkpt>
      <trkpt lat="47.27492" lon="6.1181">
        <ele>248.7</ele>
        <time>2019-08-17T13:06:09Z</time>
      </trkpt>
      <trkpt lat="47.27488" lon="6.11805">
        <ele>248.7</ele>
        <time>2019-08-17T13:06:10Z</time>
      </trkpt>
      <trkpt lat="47.27484" lon="6.11799">
        <ele>248.8</ele>
        <time>2019-08-17T13:06:11Z</time>
      </trkpt>
      <trkpt lat="47.2748" lon="6.11794">
        <ele>249</ele>
        <time>2019-08-17T13:06:12Z</time>
      </trkpt>
      <trkpt lat="47.27475" lon="6.11788">
        <ele>249.3</ele>
        <time>2019-08-17T13:06:13Z</time>
      </trkpt>
      <trkpt lat="47.27471" lon="6.11783">
        <ele>249.6</ele>
        <time>2019-08-17T13:06:14Z</time>
      </trkpt>
      <trkpt lat="47.27467" lon="6.11777">
        <ele>250</ele>
        <time>2019-08-17T13:06:15Z</time>
      </trkpt>
      <trkpt lat="47.27464" lon="6.11773">
        <ele>250.3</ele>
        <time>2019-08-17T13:06:16Z</time>
      </trkpt>
      <trkpt lat="47.2746" lon="6.11769">
        <ele>250.6</ele>
        <time>2019-08-17T13:06:17Z</time>
      </trkpt>
      <trkpt lat="47.27457" lon="6.11765">
        <ele>250.9</ele>
        <time>2019-08-17T13:06:18Z</time>
      </trkpt>
      <trkpt lat="47.27454" lon="6.11761">
        <ele>251.2</ele>
        <time>2019-08-17T13:06:19Z</time>
      </trkpt>
      <trkpt lat="47.27451" lon="6.11756">
        <ele>251.5</ele>
        <time>2019-08-17T13:06:20Z</time>
      </trkpt>
      <trkpt lat="47.27447" lon="6.11753">
        <ele>251.8</ele>
        <time>2019-08-17T13:06:21Z</time>
      </trkpt>
      <trkpt lat="47.27443" lon="6.11749">
        <ele>252</ele>
        <time>2019-08-17T13:06:22Z</time>
      </trkpt>
      <trkpt lat="47.27439" lon="6.11747">
        <ele>252.3</ele>
        <time>2019-08-17T13:06:23Z</time>
      </trkpt>
      <trkpt lat="47.27433" lon="6.11746">
        <ele>252.5</ele>
        <time>2019-08-17T13:06:24Z</time>
      </trkpt>
      <trkpt lat="47.27429" lon="6.11745">
        <ele>252.5</ele>
        <time>2019-08-17T13:06:25Z</time>
      </trkpt>
      <trkpt lat="47.27424" lon="6.11745">
        <ele>252.5</ele>
        <time>2019-08-17T13:06:26Z</time>
      </trkpt>
      <trkpt lat="47.2742" lon="6.11744">
        <ele>252.5</ele>
        <time>2019-08-17T13:06:27Z</time>
      </trkpt>
      <trkpt lat="47.27416" lon="6.11742">
        <ele>252.4</ele>
        <time>2019-08-17T13:06:28Z</time>
      </trkpt>
      <trkpt lat="47.27411" lon="6.11741">
        <ele>252.4</ele>
        <time>2019-08-17T13:06:29Z</time>
      </trkpt>
      <trkpt lat="47.27406" lon="6.11741">
        <ele>252.3</ele>
        <time>2019-08-17T13:06:30Z</time>
      </trkpt>
      <trkpt lat="47.27402" lon="6.11739">
        <ele>252.2</ele>
        <time>2019-08-17T13:06:31Z</time>
      </trkpt>
      <trkpt lat="47.27398" lon="6.11738">
        <ele>252.2</ele>
        <time>2019-08-17T13:06:32Z</time>
      </trkpt>
      <trkpt lat="47.27394" lon="6.11736">
        <ele>252.1</ele>
        <time>2019-08-17T13:06:33Z</time>
      </trkpt>
      <trkpt lat="47.27391" lon="6.11736">
        <ele>252</ele>
        <time>2019-08-17T13:06:34Z</time>
      </trkpt>
      <trkpt lat="47.27388" lon="6.11736">
        <ele>251.9</ele>
        <time>2019-08-17T13:06:35Z</time>
      </trkpt>
      <trkpt lat="47.27385" lon="6.11734">
        <ele>251.8</ele>
        <time>2019-08-17T13:06:37Z</time>
      </trkpt>
      <trkpt lat="47.27379" lon="6.1173">
        <ele>251.6</ele>
        <time>2019-08-17T13:06:39Z</time>
      </trkpt>
      <trkpt lat="47.27377" lon="6.11728">
        <ele>251.5</ele>
        <time>2019-08-17T13:06:40Z</time>
      </trkpt>
      <trkpt lat="47.27373" lon="6.11725">
        <ele>251.4</ele>
        <time>2019-08-17T13:06:41Z</time>
      </trkpt>
      <trkpt lat="47.2737" lon="6.11721">
        <ele>251.3</ele>
        <time>2019-08-17T13:06:42Z</time>
      </trkpt>
      <trkpt lat="47.27367" lon="6.11717">
        <ele>251.2</ele>
        <time>2019-08-17T13:06:43Z</time>
      </trkpt>
      <trkpt lat="47.27364" lon="6.11714">
        <ele>251.1</ele>
        <time>2019-08-17T13:06:44Z</time>
      </trkpt>
      <trkpt lat="47.27361" lon="6.11711">
        <ele>251.1</ele>
        <time>2019-08-17T13:06:45Z</time>
      </trkpt>
      <trkpt lat="47.27359" lon="6.11708">
        <ele>251.1</ele>
        <time>2019-08-17T13:06:46Z</time>
      </trkpt>
      <trkpt lat="47.27355" lon="6.11705">
        <ele>251.1</ele>
        <time>2019-08-17T13:06:47Z</time>
      </trkpt>
      <trkpt lat="47.27352" lon="6.11702">
        <ele>251.1</ele>
        <time>2019-08-17T13:06:48Z</time>
      </trkpt>
      <trkpt lat="47.27348" lon="6.11698">
        <ele>251.1</ele>
        <time>2019-08-17T13:06:49Z</time>
      </trkpt>
      <trkpt lat="47.27345" lon="6.11694">
        <ele>251.2</ele>
        <time>2019-08-17T13:06:50Z</time>
      </trkpt>
      <trkpt lat="47.27342" lon="6.11687">
        <ele>251.2</ele>
        <time>2019-08-17T13:06:51Z</time>
      </trkpt>
      <trkpt lat="47.27339" lon="6.11682">
        <ele>251.2</ele>
        <time>2019-08-17T13:06:52Z</time>
      </trkpt>
      <trkpt lat="47.27335" lon="6.11677">
        <ele>251.1</ele>
        <time>2019-08-17T13:06:53Z</time>
      </trkpt>
      <trkpt lat="47.27332" lon="6.11673">
        <ele>251.1</ele>
        <time>2019-08-17T13:06:54Z</time>
      </trkpt>
      <trkpt lat="47.27329" lon="6.11668">
        <ele>251.1</ele>
        <time>2019-08-17T13:06:55Z</time>
      </trkpt>
      <trkpt lat="47.27326" lon="6.11665">
        <ele>251</ele>
        <time>2019-08-17T13:06:56Z</time>
      </trkpt>
      <trkpt lat="47.27323" lon="6.11661">
        <ele>251</ele>
        <time>2019-08-17T13:06:57Z</time>
      </trkpt>
      <trkpt lat="47.27321" lon="6.11657">
        <ele>250.9</ele>
        <time>2019-08-17T13:06:58Z</time>
      </trkpt>
      <trkpt lat="47.27318" lon="6.11653">
        <ele>250.9</ele>
        <time>2019-08-17T13:06:59Z</time>
      </trkpt>
      <trkpt lat="47.27316" lon="6.11649">
        <ele>250.8</ele>
        <time>2019-08-17T13:07:00Z</time>
      </trkpt>
      <trkpt lat="47.27313" lon="6.11645">
        <ele>250.7</ele>
        <time>2019-08-17T13:07:01Z</time>
      </trkpt>
      <trkpt lat="47.2731" lon="6.1164">
        <ele>250.5</ele>
        <time>2019-08-17T13:07:02Z</time>
      </trkpt>
      <trkpt lat="47.27307" lon="6.11636">
        <ele>250.4</ele>
        <time>2019-08-17T13:07:03Z</time>
      </trkpt>
      <trkpt lat="47.27303" lon="6.11632">
        <ele>250.2</ele>
        <time>2019-08-17T13:07:04Z</time>
      </trkpt>
      <trkpt lat="47.27299" lon="6.11628">
        <ele>249.9</ele>
        <time>2019-08-17T13:07:05Z</time>
      </trkpt>
      <trkpt lat="47.27295" lon="6.11624">
        <ele>249.7</ele>
        <time>2019-08-17T13:07:06Z</time>
      </trkpt>
      <trkpt lat="47.27291" lon="6.11621">
        <ele>249.4</ele>
        <time>2019-08-17T13:07:07Z</time>
      </trkpt>
      <trkpt lat="47.27288" lon="6.11619">
        <ele>249.1</ele>
        <time>2019-08-17T13:07:08Z</time>
      </trkpt>
      <trkpt lat="47.27285" lon="6.11616">
        <ele>248.9</ele>
        <time>2019-08-17T13:07:09Z</time>
      </trkpt>
      <trkpt lat="47.27282" lon="6.11613">
        <ele>248.6</ele>
        <time>2019-08-17T13:07:10Z</time>
      </trkpt>
      <trkpt lat="47.27278" lon="6.11612">
        <ele>248.3</ele>
        <time>2019-08-17T13:07:11Z</time>
      </trkpt>
      <trkpt lat="47.27276" lon="6.1161">
        <ele>248.1</ele>
        <time>2019-08-17T13:07:12Z</time>
      </trkpt>
      <trkpt lat="47.27271" lon="6.11605">
        <ele>247.8</ele>
        <time>2019-08-17T13:07:14Z</time>
      </trkpt>
      <trkpt lat="47.27269" lon="6.11603">
        <ele>247.8</ele>
        <time>2019-08-17T13:07:15Z</time>
      </trkpt>
      <trkpt lat="47.27265" lon="6.11601">
        <ele>247.8</ele>
        <time>2019-08-17T13:07:16Z</time>
      </trkpt>
      <trkpt lat="47.27262" lon="6.11596">
        <ele>247.8</ele>
        <time>2019-08-17T13:07:17Z</time>
      </trkpt>
      <trkpt lat="47.27259" lon="6.11591">
        <ele>247.7</ele>
        <time>2019-08-17T13:07:18Z</time>
      </trkpt>
      <trkpt lat="47.27255" lon="6.11587">
        <ele>247.6</ele>
        <time>2019-08-17T13:07:19Z</time>
      </trkpt>
      <trkpt lat="47.27251" lon="6.11582">
        <ele>247.5</ele>
        <time>2019-08-17T13:07:20Z</time>
      </trkpt>
      <trkpt lat="47.27247" lon="6.11577">
        <ele>247.4</ele>
        <time>2019-08-17T13:07:21Z</time>
      </trkpt>
      <trkpt lat="47.27242" lon="6.11572">
        <ele>247.3</ele>
        <time>2019-08-17T13:07:22Z</time>
      </trkpt>
      <trkpt lat="47.27238" lon="6.11567">
        <ele>247.2</ele>
        <time>2019-08-17T13:07:23Z</time>
      </trkpt>
      <trkpt lat="47.27233" lon="6.11563">
        <ele>247.1</ele>
        <time>2019-08-17T13:07:24Z</time>
      </trkpt>
      <trkpt lat="47.27229" lon="6.11558">
        <ele>247</ele>
        <time>2019-08-17T13:07:25Z</time>
      </trkpt>
      <trkpt lat="47.27224" lon="6.11554">
        <ele>246.9</ele>
        <time>2019-08-17T13:07:26Z</time>
      </trkpt>
      <trkpt lat="47.27221" lon="6.1155">
        <ele>246.9</ele>
        <time>2019-08-17T13:07:27Z</time>
      </trkpt>
      <trkpt lat="47.27217" lon="6.11548">
        <ele>246.9</ele>
        <time>2019-08-17T13:07:28Z</time>
      </trkpt>
      <trkpt lat="47.27213" lon="6.11545">
        <ele>246.9</ele>
        <time>2019-08-17T13:07:29Z</time>
      </trkpt>
      <trkpt lat="47.27209" lon="6.11543">
        <ele>246.9</ele>
        <time>2019-08-17T13:07:30Z</time>
      </trkpt>
      <trkpt lat="47.27205" lon="6.11541">
        <ele>246.9</ele>
        <time>2019-08-17T13:07:31Z</time>
      </trkpt>
      <trkpt lat="47.27201" lon="6.11539">
        <ele>246.8</ele>
        <time>2019-08-17T13:07:32Z</time>
      </trkpt>
      <trkpt lat="47.27197" lon="6.11537">
        <ele>246.8</ele>
        <time>2019-08-17T13:07:33Z</time>
      </trkpt>
      <trkpt lat="47.27192" lon="6.11534">
        <ele>246.8</ele>
        <time>2019-08-17T13:07:34Z</time>
      </trkpt>
      <trkpt lat="47.27188" lon="6.11531">
        <ele>246.8</ele>
        <time>2019-08-17T13:07:35Z</time>
      </trkpt>
      <trkpt lat="47.27184" lon="6.11527">
        <ele>246.8</ele>
        <time>2019-08-17T13:07:36Z</time>
      </trkpt>
      <trkpt lat="47.2718" lon="6.11524">
        <ele>246.8</ele>
        <time>2019-08-17T13:07:37Z</time>
      </trkpt>
      <trkpt lat="47.27176" lon="6.1152">
        <ele>246.8</ele>
        <time>2019-08-17T13:07:38Z</time>
      </trkpt>
      <trkpt lat="47.27172" lon="6.11516">
        <ele>246.8</ele>
        <time>2019-08-17T13:07:39Z</time>
      </trkpt>
      <trkpt lat="47.27168" lon="6.11511">
        <ele>246.8</ele>
        <time>2019-08-17T13:07:40Z</time>
      </trkpt>
      <trkpt lat="47.27164" lon="6.11508">
        <ele>246.8</ele>
        <time>2019-08-17T13:07:41Z</time>
      </trkpt>
      <trkpt lat="47.2716" lon="6.11504">
        <ele>246.8</ele>
        <time>2019-08-17T13:07:42Z</time>
      </trkpt>
      <trkpt lat="47.27155" lon="6.115">
        <ele>246.8</ele>
        <time>2019-08-17T13:07:43Z</time>
      </trkpt>
      <trkpt lat="47.27151" lon="6.11496">
        <ele>246.8</ele>
        <time>2019-08-17T13:07:44Z</time>
      </trkpt>
      <trkpt lat="47.27147" lon="6.11491">
        <ele>246.8</ele>
        <time>2019-08-17T13:07:45Z</time>
      </trkpt>
      <trkpt lat="47.27143" lon="6.11486">
        <ele>246.8</ele>
        <time>2019-08-17T13:07:46Z</time>
      </trkpt>
      <trkpt lat="47.27139" lon="6.11482">
        <ele>246.8</ele>
        <time>2019-08-17T13:07:47Z</time>
      </trkpt>
      <trkpt lat="47.27135" lon="6.11478">
        <ele>246.8</ele>
        <time>2019-08-17T13:07:48Z</time>
      </trkpt>
      <trkpt lat="47.27131" lon="6.11474">
        <ele>246.8</ele>
        <time>2019-08-17T13:07:49Z</time>
      </trkpt>
      <trkpt lat="47.27127" lon="6.11469">
        <ele>246.8</ele>
        <time>2019-08-17T13:07:50Z</time>
      </trkpt>
      <trkpt lat="47.27124" lon="6.11465">
        <ele>246.8</ele>
        <time>2019-08-17T13:07:51Z</time>
      </trkpt>
      <trkpt lat="47.27121" lon="6.1146">
        <ele>246.8</ele>
        <time>2019-08-17T13:07:52Z</time>
      </trkpt>
      <trkpt lat="47.27118" lon="6.11455">
        <ele>246.8</ele>
        <time>2019-08-17T13:07:53Z</time>
      </trkpt>
      <trkpt lat="47.27116" lon="6.11451">
        <ele>246.8</ele>
        <time>2019-08-17T13:07:54Z</time>
      </trkpt>
      <trkpt lat="47.27113" lon="6.11446">
        <ele>246.8</ele>
        <time>2019-08-17T13:07:55Z</time>
      </trkpt>
      <trkpt lat="47.27109" lon="6.11442">
        <ele>246.8</ele>
        <time>2019-08-17T13:07:56Z</time>
      </trkpt>
      <trkpt lat="47.27105" lon="6.11436">
        <ele>246.8</ele>
        <time>2019-08-17T13:07:57Z</time>
      </trkpt>
      <trkpt lat="47.27102" lon="6.11431">
        <ele>246.8</ele>
        <time>2019-08-17T13:07:58Z</time>
      </trkpt>
      <trkpt lat="47.27098" lon="6.11425">
        <ele>246.8</ele>
        <time>2019-08-17T13:07:59Z</time>
      </trkpt>
      <trkpt lat="47.27094" lon="6.11419">
        <ele>246.8</ele>
        <time>2019-08-17T13:08:00Z</time>
      </trkpt>
      <trkpt lat="47.2709" lon="6.11412">
        <ele>246.8</ele>
        <time>2019-08-17T13:08:01Z</time>
      </trkpt>
      <trkpt lat="47.27086" lon="6.11405">
        <ele>246.8</ele>
        <time>2019-08-17T13:08:02Z</time>
      </trkpt>
      <trkpt lat="47.27082" lon="6.11398">
        <ele>246.8</ele>
        <time>2019-08-17T13:08:03Z</time>
      </trkpt>
      <trkpt lat="47.27078" lon="6.11391">
        <ele>246.8</ele>
        <time>2019-08-17T13:08:04Z</time>
      </trkpt>
      <trkpt lat="47.27075" lon="6.11384">
        <ele>246.8</ele>
        <time>2019-08-17T13:08:05Z</time>
      </trkpt>
      <trkpt lat="47.27071" lon="6.11377">
        <ele>246.8</ele>
        <time>2019-08-17T13:08:06Z</time>
      </trkpt>
      <trkpt lat="47.27067" lon="6.11371">
        <ele>246.8</ele>
        <time>2019-08-17T13:08:07Z</time>
      </trkpt>
      <trkpt lat="47.27063" lon="6.11366">
        <ele>246.8</ele>
        <time>2019-08-17T13:08:08Z</time>
      </trkpt>
      <trkpt lat="47.2706" lon="6.11361">
        <ele>246.8</ele>
        <time>2019-08-17T13:08:09Z</time>
      </trkpt>
      <trkpt lat="47.27057" lon="6.11355">
        <ele>246.8</ele>
        <time>2019-08-17T13:08:10Z</time>
      </trkpt>
      <trkpt lat="47.27053" lon="6.1135">
        <ele>246.8</ele>
        <time>2019-08-17T13:08:11Z</time>
      </trkpt>
      <trkpt lat="47.2705" lon="6.11346">
        <ele>246.8</ele>
        <time>2019-08-17T13:08:12Z</time>
      </trkpt>
      <trkpt lat="47.27047" lon="6.1134">
        <ele>246.8</ele>
        <time>2019-08-17T13:08:13Z</time>
      </trkpt>
      <trkpt lat="47.27044" lon="6.11335">
        <ele>246.8</ele>
        <time>2019-08-17T13:08:14Z</time>
      </trkpt>
      <trkpt lat="47.2704" lon="6.1133">
        <ele>246.8</ele>
        <time>2019-08-17T13:08:15Z</time>
      </trkpt>
      <trkpt lat="47.27037" lon="6.11324">
        <ele>246.8</ele>
        <time>2019-08-17T13:08:16Z</time>
      </trkpt>
      <trkpt lat="47.27033" lon="6.11319">
        <ele>246.8</ele>
        <time>2019-08-17T13:08:17Z</time>
      </trkpt>
      <trkpt lat="47.2703" lon="6.11313">
        <ele>246.8</ele>
        <time>2019-08-17T13:08:18Z</time>
      </trkpt>
      <trkpt lat="47.27026" lon="6.11306">
        <ele>246.8</ele>
        <time>2019-08-17T13:08:19Z</time>
      </trkpt>
      <trkpt lat="47.27023" lon="6.11299">
        <ele>246.8</ele>
        <time>2019-08-17T13:08:20Z</time>
      </trkpt>
      <trkpt lat="47.2702" lon="6.11292">
        <ele>246.8</ele>
        <time>2019-08-17T13:08:21Z</time>
      </trkpt>
      <trkpt lat="47.27016" lon="6.11286">
        <ele>246.8</ele>
        <time>2019-08-17T13:08:22Z</time>
      </trkpt>
      <trkpt lat="47.27014" lon="6.11279">
        <ele>246.8</ele>
        <time>2019-08-17T13:08:23Z</time>
      </trkpt>
      <trkpt lat="47.2701" lon="6.11271">
        <ele>246.8</ele>
        <time>2019-08-17T13:08:24Z</time>
      </trkpt>
      <trkpt lat="47.27007" lon="6.11264">
        <ele>246.8</ele>
        <time>2019-08-17T13:08:25Z</time>
      </trkpt>
      <trkpt lat="47.27003" lon="6.11255">
        <ele>246.8</ele>
        <time>2019-08-17T13:08:26Z</time>
      </trkpt>
      <trkpt lat="47.26999" lon="6.11248">
        <ele>246.8</ele>
        <time>2019-08-17T13:08:27Z</time>
      </trkpt>
      <trkpt lat="47.26996" lon="6.11241">
        <ele>246.8</ele>
        <time>2019-08-17T13:08:28Z</time>
      </trkpt>
      <trkpt lat="47.26992" lon="6.11233">
        <ele>246.8</ele>
        <time>2019-08-17T13:08:29Z</time>
      </trkpt>
      <trkpt lat="47.26989" lon="6.11226">
        <ele>246.8</ele>
        <time>2019-08-17T13:08:30Z</time>
      </trkpt>
      <trkpt lat="47.26986" lon="6.1122">
        <ele>246.8</ele>
        <time>2019-08-17T13:08:31Z</time>
      </trkpt>
      <trkpt lat="47.26984" lon="6.11214">
        <ele>246.8</ele>
        <time>2019-08-17T13:08:32Z</time>
      </trkpt>
      <trkpt lat="47.2698" lon="6.11207">
        <ele>246.8</ele>
        <time>2019-08-17T13:08:33Z</time>
      </trkpt>
      <trkpt lat="47.26977" lon="6.112">
        <ele>246.8</ele>
        <time>2019-08-17T13:08:34Z</time>
      </trkpt>
      <trkpt lat="47.26974" lon="6.11193">
        <ele>246.8</ele>
        <time>2019-08-17T13:08:35Z</time>
      </trkpt>
      <trkpt lat="47.26971" lon="6.11186">
        <ele>246.8</ele>
        <time>2019-08-17T13:08:36Z</time>
      </trkpt>
      <trkpt lat="47.26968" lon="6.1118">
        <ele>246.8</ele>
        <time>2019-08-17T13:08:37Z</time>
      </trkpt>
      <trkpt lat="47.26966" lon="6.11174">
        <ele>246.8</ele>
        <time>2019-08-17T13:08:38Z</time>
      </trkpt>
      <trkpt lat="47.26963" lon="6.11168">
        <ele>246.8</ele>
        <time>2019-08-17T13:08:39Z</time>
      </trkpt>
      <trkpt lat="47.26962" lon="6.11161">
        <ele>246.8</ele>
        <time>2019-08-17T13:08:40Z</time>
      </trkpt>
      <trkpt lat="47.2696" lon="6.11154">
        <ele>246.8</ele>
        <time>2019-08-17T13:08:41Z</time>
      </trkpt>
      <trkpt lat="47.26959" lon="6.11147">
        <ele>246.8</ele>
        <time>2019-08-17T13:08:42Z</time>
      </trkpt>
      <trkpt lat="47.26957" lon="6.11141">
        <ele>246.8</ele>
        <time>2019-08-17T13:08:43Z</time>
      </trkpt>
      <trkpt lat="47.26955" lon="6.11134">
        <ele>246.8</ele>
        <time>2019-08-17T13:08:44Z</time>
      </trkpt>
      <trkpt lat="47.26953" lon="6.11126">
        <ele>246.8</ele>
        <time>2019-08-17T13:08:45Z</time>
      </trkpt>
      <trkpt lat="47.26951" lon="6.11118">
        <ele>246.8</ele>
        <time>2019-08-17T13:08:46Z</time>
      </trkpt>
      <trkpt lat="47.26948" lon="6.1111">
        <ele>246.8</ele>
        <time>2019-08-17T13:08:47Z</time>
      </trkpt>
      <trkpt lat="47.26946" lon="6.11101">
        <ele>246.8</ele>
        <time>2019-08-17T13:08:48Z</time>
      </trkpt>
      <trkpt lat="47.26944" lon="6.11092">
        <ele>246.6</ele>
        <time>2019-08-17T13:08:49Z</time>
      </trkpt>
      <trkpt lat="47.26942" lon="6.11086">
        <ele>246.4</ele>
        <time>2019-08-17T13:08:50Z</time>
      </trkpt>
      <trkpt lat="47.2694" lon="6.11079">
        <ele>246.2</ele>
        <time>2019-08-17T13:08:51Z</time>
      </trkpt>
      <trkpt lat="47.26939" lon="6.11072">
        <ele>246.1</ele>
        <time>2019-08-17T13:08:52Z</time>
      </trkpt>
      <trkpt lat="47.26937" lon="6.11065">
        <ele>245.9</ele>
        <time>2019-08-17T13:08:53Z</time>
      </trkpt>
      <trkpt lat="47.26935" lon="6.11057">
        <ele>245.8</ele>
        <time>2019-08-17T13:08:54Z</time>
      </trkpt>
      <trkpt lat="47.26934" lon="6.11049">
        <ele>245.8</ele>
        <time>2019-08-17T13:08:55Z</time>
      </trkpt>
      <trkpt lat="47.26933" lon="6.11041">
        <ele>245.7</ele>
        <time>2019-08-17T13:08:56Z</time>
      </trkpt>
      <trkpt lat="47.26931" lon="6.11033">
        <ele>245.7</ele>
        <time>2019-08-17T13:08:57Z</time>
      </trkpt>
      <trkpt lat="47.26929" lon="6.11025">
        <ele>245.7</ele>
        <time>2019-08-17T13:08:58Z</time>
      </trkpt>
      <trkpt lat="47.26927" lon="6.11018">
        <ele>245.7</ele>
        <time>2019-08-17T13:08:59Z</time>
      </trkpt>
      <trkpt lat="47.26926" lon="6.11011">
        <ele>245.7</ele>
        <time>2019-08-17T13:09:00Z</time>
      </trkpt>
      <trkpt lat="47.26924" lon="6.11003">
        <ele>245.7</ele>
        <time>2019-08-17T13:09:01Z</time>
      </trkpt>
      <trkpt lat="47.26922" lon="6.10996">
        <ele>245.7</ele>
        <time>2019-08-17T13:09:02Z</time>
      </trkpt>
      <trkpt lat="47.26921" lon="6.10991">
        <ele>245.7</ele>
        <time>2019-08-17T13:09:03Z</time>
      </trkpt>
      <trkpt lat="47.2692" lon="6.10984">
        <ele>245.7</ele>
        <time>2019-08-17T13:09:04Z</time>
      </trkpt>
      <trkpt lat="47.26919" lon="6.10977">
        <ele>245.7</ele>
        <time>2019-08-17T13:09:05Z</time>
      </trkpt>
      <trkpt lat="47.26919" lon="6.10971">
        <ele>245.7</ele>
        <time>2019-08-17T13:09:06Z</time>
      </trkpt>
      <trkpt lat="47.26919" lon="6.10964">
        <ele>245.7</ele>
        <time>2019-08-17T13:09:07Z</time>
      </trkpt>
      <trkpt lat="47.26919" lon="6.10957">
        <ele>245.7</ele>
        <time>2019-08-17T13:09:08Z</time>
      </trkpt>
      <trkpt lat="47.26917" lon="6.1095">
        <ele>245.7</ele>
        <time>2019-08-17T13:09:09Z</time>
      </trkpt>
      <trkpt lat="47.26917" lon="6.10942">
        <ele>245.7</ele>
        <time>2019-08-17T13:09:10Z</time>
      </trkpt>
      <trkpt lat="47.26915" lon="6.10934">
        <ele>245.7</ele>
        <time>2019-08-17T13:09:11Z</time>
      </trkpt>
      <trkpt lat="47.26915" lon="6.10928">
        <ele>245.7</ele>
        <time>2019-08-17T13:09:12Z</time>
      </trkpt>
      <trkpt lat="47.26915" lon="6.10923">
        <ele>245.7</ele>
        <time>2019-08-17T13:09:13Z</time>
      </trkpt>
      <trkpt lat="47.26914" lon="6.10917">
        <ele>245.7</ele>
        <time>2019-08-17T13:09:14Z</time>
      </trkpt>
      <trkpt lat="47.26913" lon="6.10912">
        <ele>245.7</ele>
        <time>2019-08-17T13:09:15Z</time>
      </trkpt>
      <trkpt lat="47.26913" lon="6.10907">
        <ele>245.7</ele>
        <time>2019-08-17T13:09:16Z</time>
      </trkpt>
      <trkpt lat="47.26912" lon="6.10903">
        <ele>245.7</ele>
        <time>2019-08-17T13:09:17Z</time>
      </trkpt>
      <trkpt lat="47.26911" lon="6.10894">
        <ele>245.7</ele>
        <time>2019-08-17T13:09:19Z</time>
      </trkpt>
      <trkpt lat="47.2691" lon="6.10889">
        <ele>245.7</ele>
        <time>2019-08-17T13:09:20Z</time>
      </trkpt>
      <trkpt lat="47.2691" lon="6.10884">
        <ele>245.7</ele>
        <time>2019-08-17T13:09:21Z</time>
      </trkpt>
      <trkpt lat="47.2691" lon="6.10878">
        <ele>245.7</ele>
        <time>2019-08-17T13:09:22Z</time>
      </trkpt>
      <trkpt lat="47.26909" lon="6.10871">
        <ele>245.7</ele>
        <time>2019-08-17T13:09:23Z</time>
      </trkpt>
      <trkpt lat="47.26909" lon="6.10862">
        <ele>245.7</ele>
        <time>2019-08-17T13:09:24Z</time>
      </trkpt>
      <trkpt lat="47.26909" lon="6.10855">
        <ele>245.7</ele>
        <time>2019-08-17T13:09:25Z</time>
      </trkpt>
      <trkpt lat="47.26908" lon="6.10847">
        <ele>245.7</ele>
        <time>2019-08-17T13:09:26Z</time>
      </trkpt>
      <trkpt lat="47.26908" lon="6.10837">
        <ele>245.7</ele>
        <time>2019-08-17T13:09:27Z</time>
      </trkpt>
      <trkpt lat="47.26907" lon="6.10828">
        <ele>245.7</ele>
        <time>2019-08-17T13:09:28Z</time>
      </trkpt>
      <trkpt lat="47.26907" lon="6.10821">
        <ele>245.7</ele>
        <time>2019-08-17T13:09:29Z</time>
      </trkpt>
      <trkpt lat="47.26907" lon="6.10814">
        <ele>245.7</ele>
        <time>2019-08-17T13:09:30Z</time>
      </trkpt>
      <trkpt lat="47.26907" lon="6.10808">
        <ele>245.7</ele>
        <time>2019-08-17T13:09:31Z</time>
      </trkpt>
      <trkpt lat="47.26907" lon="6.10802">
        <ele>245.7</ele>
        <time>2019-08-17T13:09:32Z</time>
      </trkpt>
      <trkpt lat="47.26907" lon="6.10795">
        <ele>245.7</ele>
        <time>2019-08-17T13:09:33Z</time>
      </trkpt>
      <trkpt lat="47.26907" lon="6.10787">
        <ele>245.7</ele>
        <time>2019-08-17T13:09:34Z</time>
      </trkpt>
      <trkpt lat="47.26908" lon="6.1078">
        <ele>245.7</ele>
        <time>2019-08-17T13:09:35Z</time>
      </trkpt>
      <trkpt lat="47.26908" lon="6.10771">
        <ele>245.7</ele>
        <time>2019-08-17T13:09:36Z</time>
      </trkpt>
      <trkpt lat="47.26908" lon="6.10763">
        <ele>245.7</ele>
        <time>2019-08-17T13:09:37Z</time>
      </trkpt>
      <trkpt lat="47.26908" lon="6.10756">
        <ele>245.7</ele>
        <time>2019-08-17T13:09:38Z</time>
      </trkpt>
      <trkpt lat="47.26908" lon="6.10749">
        <ele>245.7</ele>
        <time>2019-08-17T13:09:39Z</time>
      </trkpt>
      <trkpt lat="47.26909" lon="6.10742">
        <ele>245.7</ele>
        <time>2019-08-17T13:09:40Z</time>
      </trkpt>
      <trkpt lat="47.26908" lon="6.10734">
        <ele>245.7</ele>
        <time>2019-08-17T13:09:41Z</time>
      </trkpt>
      <trkpt lat="47.26908" lon="6.10727">
        <ele>245.7</ele>
        <time>2019-08-17T13:09:42Z</time>
      </trkpt>
      <trkpt lat="47.26908" lon="6.10719">
        <ele>245.7</ele>
        <time>2019-08-17T13:09:43Z</time>
      </trkpt>
      <trkpt lat="47.26907" lon="6.10711">
        <ele>245.7</ele>
        <time>2019-08-17T13:09:44Z</time>
      </trkpt>
      <trkpt lat="47.26907" lon="6.10703">
        <ele>245.7</ele>
        <time>2019-08-17T13:09:45Z</time>
      </trkpt>
      <trkpt lat="47.26907" lon="6.10694">
        <ele>245.7</ele>
        <time>2019-08-17T13:09:46Z</time>
      </trkpt>
      <trkpt lat="47.26908" lon="6.10686">
        <ele>245.7</ele>
        <time>2019-08-17T13:09:47Z</time>
      </trkpt>
      <trkpt lat="47.26907" lon="6.10678">
        <ele>245.7</ele>
        <time>2019-08-17T13:09:48Z</time>
      </trkpt>
      <trkpt lat="47.26906" lon="6.10671">
        <ele>245.7</ele>
        <time>2019-08-17T13:09:49Z</time>
      </trkpt>
      <trkpt lat="47.26905" lon="6.10663">
        <ele>245.7</ele>
        <time>2019-08-17T13:09:50Z</time>
      </trkpt>
      <trkpt lat="47.26904" lon="6.10656">
        <ele>245.7</ele>
        <time>2019-08-17T13:09:51Z</time>
      </trkpt>
      <trkpt lat="47.26904" lon="6.10647">
        <ele>245.7</ele>
        <time>2019-08-17T13:09:52Z</time>
      </trkpt>
      <trkpt lat="47.26903" lon="6.1064">
        <ele>245.7</ele>
        <time>2019-08-17T13:09:53Z</time>
      </trkpt>
      <trkpt lat="47.26903" lon="6.10632">
        <ele>245.7</ele>
        <time>2019-08-17T13:09:54Z</time>
      </trkpt>
      <trkpt lat="47.26904" lon="6.10624">
        <ele>245.7</ele>
        <time>2019-08-17T13:09:55Z</time>
      </trkpt>
      <trkpt lat="47.26904" lon="6.10617">
        <ele>245.7</ele>
        <time>2019-08-17T13:09:56Z</time>
      </trkpt>
      <trkpt lat="47.26904" lon="6.1061">
        <ele>245.7</ele>
        <time>2019-08-17T13:09:57Z</time>
      </trkpt>
      <trkpt lat="47.26904" lon="6.10603">
        <ele>245.7</ele>
        <time>2019-08-17T13:09:58Z</time>
      </trkpt>
      <trkpt lat="47.26904" lon="6.10596">
        <ele>245.7</ele>
        <time>2019-08-17T13:09:59Z</time>
      </trkpt>
      <trkpt lat="47.26904" lon="6.10589">
        <ele>245.7</ele>
        <time>2019-08-17T13:10:00Z</time>
      </trkpt>
      <trkpt lat="47.26904" lon="6.10581">
        <ele>245.7</ele>
        <time>2019-08-17T13:10:01Z</time>
      </trkpt>
      <trkpt lat="47.26904" lon="6.10574">
        <ele>245.7</ele>
        <time>2019-08-17T13:10:02Z</time>
      </trkpt>
      <trkpt lat="47.26905" lon="6.10566">
        <ele>245.7</ele>
        <time>2019-08-17T13:10:03Z</time>
      </trkpt>
      <trkpt lat="47.26905" lon="6.10558">
        <ele>245.7</ele>
        <time>2019-08-17T13:10:04Z</time>
      </trkpt>
      <trkpt lat="47.26906" lon="6.10549">
        <ele>245.7</ele>
        <time>2019-08-17T13:10:05Z</time>
      </trkpt>
      <trkpt lat="47.26906" lon="6.10542">
        <ele>245.8</ele>
        <time>2019-08-17T13:10:06Z</time>
      </trkpt>
      <trkpt lat="47.26907" lon="6.10534">
        <ele>245.9</ele>
        <time>2019-08-17T13:10:07Z</time>
      </trkpt>
      <trkpt lat="47.26908" lon="6.10527">
        <ele>246</ele>
        <time>2019-08-17T13:10:08Z</time>
      </trkpt>
      <trkpt lat="47.26908" lon="6.1052">
        <ele>246.2</ele>
        <time>2019-08-17T13:10:09Z</time>
      </trkpt>
      <trkpt lat="47.26909" lon="6.10512">
        <ele>246.3</ele>
        <time>2019-08-17T13:10:10Z</time>
      </trkpt>
      <trkpt lat="47.2691" lon="6.10503">
        <ele>246.4</ele>
        <time>2019-08-17T13:10:11Z</time>
      </trkpt>
      <trkpt lat="47.26911" lon="6.10496">
        <ele>246.5</ele>
        <time>2019-08-17T13:10:12Z</time>
      </trkpt>
      <trkpt lat="47.26912" lon="6.10488">
        <ele>246.6</ele>
        <time>2019-08-17T13:10:13Z</time>
      </trkpt>
      <trkpt lat="47.26914" lon="6.10481">
        <ele>246.6</ele>
        <time>2019-08-17T13:10:14Z</time>
      </trkpt>
      <trkpt lat="47.26915" lon="6.10474">
        <ele>246.5</ele>
        <time>2019-08-17T13:10:15Z</time>
      </trkpt>
      <trkpt lat="47.26916" lon="6.10468">
        <ele>246.5</ele>
        <time>2019-08-17T13:10:16Z</time>
      </trkpt>
      <trkpt lat="47.26918" lon="6.1046">
        <ele>246.3</ele>
        <time>2019-08-17T13:10:17Z</time>
      </trkpt>
      <trkpt lat="47.26919" lon="6.10453">
        <ele>246.2</ele>
        <time>2019-08-17T13:10:18Z</time>
      </trkpt>
      <trkpt lat="47.26919" lon="6.10446">
        <ele>246.1</ele>
        <time>2019-08-17T13:10:19Z</time>
      </trkpt>
      <trkpt lat="47.2692" lon="6.10438">
        <ele>245.9</ele>
        <time>2019-08-17T13:10:20Z</time>
      </trkpt>
      <trkpt lat="47.2692" lon="6.10431">
        <ele>245.8</ele>
        <time>2019-08-17T13:10:21Z</time>
      </trkpt>
      <trkpt lat="47.26922" lon="6.10423">
        <ele>245.8</ele>
        <time>2019-08-17T13:10:22Z</time>
      </trkpt>
      <trkpt lat="47.26922" lon="6.10416">
        <ele>245.7</ele>
        <time>2019-08-17T13:10:23Z</time>
      </trkpt>
      <trkpt lat="47.26924" lon="6.10409">
        <ele>245.7</ele>
        <time>2019-08-17T13:10:24Z</time>
      </trkpt>
      <trkpt lat="47.26925" lon="6.10401">
        <ele>245.7</ele>
        <time>2019-08-17T13:10:25Z</time>
      </trkpt>
      <trkpt lat="47.26927" lon="6.10394">
        <ele>245.7</ele>
        <time>2019-08-17T13:10:26Z</time>
      </trkpt>
      <trkpt lat="47.26928" lon="6.10386">
        <ele>245.7</ele>
        <time>2019-08-17T13:10:27Z</time>
      </trkpt>
      <trkpt lat="47.26929" lon="6.10378">
        <ele>245.7</ele>
        <time>2019-08-17T13:10:28Z</time>
      </trkpt>
      <trkpt lat="47.2693" lon="6.1037">
        <ele>245.7</ele>
        <time>2019-08-17T13:10:29Z</time>
      </trkpt>
      <trkpt lat="47.26931" lon="6.10362">
        <ele>245.7</ele>
        <time>2019-08-17T13:10:30Z</time>
      </trkpt>
      <trkpt lat="47.26931" lon="6.10354">
        <ele>245.7</ele>
        <time>2019-08-17T13:10:31Z</time>
      </trkpt>
      <trkpt lat="47.26931" lon="6.10347">
        <ele>245.7</ele>
        <time>2019-08-17T13:10:32Z</time>
      </trkpt>
      <trkpt lat="47.26931" lon="6.10339">
        <ele>245.7</ele>
        <time>2019-08-17T13:10:33Z</time>
      </trkpt>
      <trkpt lat="47.26932" lon="6.10332">
        <ele>245.7</ele>
        <time>2019-08-17T13:10:34Z</time>
      </trkpt>
      <trkpt lat="47.26932" lon="6.10325">
        <ele>245.7</ele>
        <time>2019-08-17T13:10:35Z</time>
      </trkpt>
      <trkpt lat="47.26934" lon="6.10318">
        <ele>245.7</ele>
        <time>2019-08-17T13:10:36Z</time>
      </trkpt>
      <trkpt lat="47.26935" lon="6.10311">
        <ele>245.7</ele>
        <time>2019-08-17T13:10:37Z</time>
      </trkpt>
      <trkpt lat="47.26936" lon="6.10304">
        <ele>245.7</ele>
        <time>2019-08-17T13:10:38Z</time>
      </trkpt>
      <trkpt lat="47.26938" lon="6.10298">
        <ele>245.7</ele>
        <time>2019-08-17T13:10:39Z</time>
      </trkpt>
      <trkpt lat="47.2694" lon="6.10292">
        <ele>245.7</ele>
        <time>2019-08-17T13:10:40Z</time>
      </trkpt>
      <trkpt lat="47.26942" lon="6.10285">
        <ele>245.7</ele>
        <time>2019-08-17T13:10:41Z</time>
      </trkpt>
      <trkpt lat="47.26943" lon="6.10278">
        <ele>245.7</ele>
        <time>2019-08-17T13:10:42Z</time>
      </trkpt>
      <trkpt lat="47.26945" lon="6.10271">
        <ele>245.7</ele>
        <time>2019-08-17T13:10:43Z</time>
      </trkpt>
      <trkpt lat="47.26946" lon="6.10263">
        <ele>245.7</ele>
        <time>2019-08-17T13:10:44Z</time>
      </trkpt>
      <trkpt lat="47.26948" lon="6.10256">
        <ele>245.7</ele>
        <time>2019-08-17T13:10:45Z</time>
      </trkpt>
      <trkpt lat="47.2695" lon="6.10248">
        <ele>245.7</ele>
        <time>2019-08-17T13:10:46Z</time>
      </trkpt>
      <trkpt lat="47.26951" lon="6.1024">
        <ele>245.7</ele>
        <time>2019-08-17T13:10:47Z</time>
      </trkpt>
      <trkpt lat="47.26952" lon="6.10233">
        <ele>245.7</ele>
        <time>2019-08-17T13:10:48Z</time>
      </trkpt>
      <trkpt lat="47.26953" lon="6.10225">
        <ele>245.7</ele>
        <time>2019-08-17T13:10:49Z</time>
      </trkpt>
      <trkpt lat="47.26955" lon="6.10219">
        <ele>245.7</ele>
        <time>2019-08-17T13:10:50Z</time>
      </trkpt>
      <trkpt lat="47.26957" lon="6.10212">
        <ele>245.7</ele>
        <time>2019-08-17T13:10:51Z</time>
      </trkpt>
      <trkpt lat="47.26959" lon="6.10205">
        <ele>245.7</ele>
        <time>2019-08-17T13:10:52Z</time>
      </trkpt>
      <trkpt lat="47.2696" lon="6.102">
        <ele>245.7</ele>
        <time>2019-08-17T13:10:53Z</time>
      </trkpt>
      <trkpt lat="47.26962" lon="6.10194">
        <ele>245.7</ele>
        <time>2019-08-17T13:10:54Z</time>
      </trkpt>
      <trkpt lat="47.26964" lon="6.10187">
        <ele>245.7</ele>
        <time>2019-08-17T13:10:55Z</time>
      </trkpt>
      <trkpt lat="47.26965" lon="6.10179">
        <ele>245.7</ele>
        <time>2019-08-17T13:10:56Z</time>
      </trkpt>
      <trkpt lat="47.26967" lon="6.10171">
        <ele>245.7</ele>
        <time>2019-08-17T13:10:57Z</time>
      </trkpt>
      <trkpt lat="47.26968" lon="6.10163">
        <ele>245.7</ele>
        <time>2019-08-17T13:10:58Z</time>
      </trkpt>
      <trkpt lat="47.26969" lon="6.10155">
        <ele>245.7</ele>
        <time>2019-08-17T13:10:59Z</time>
      </trkpt>
      <trkpt lat="47.2697" lon="6.10147">
        <ele>245.7</ele>
        <time>2019-08-17T13:11:00Z</time>
      </trkpt>
      <trkpt lat="47.26971" lon="6.1014">
        <ele>245.7</ele>
        <time>2019-08-17T13:11:01Z</time>
      </trkpt>
      <trkpt lat="47.26972" lon="6.10133">
        <ele>245.7</ele>
        <time>2019-08-17T13:11:02Z</time>
      </trkpt>
      <trkpt lat="47.26974" lon="6.10126">
        <ele>245.7</ele>
        <time>2019-08-17T13:11:03Z</time>
      </trkpt>
      <trkpt lat="47.26975" lon="6.10119">
        <ele>245.7</ele>
        <time>2019-08-17T13:11:04Z</time>
      </trkpt>
      <trkpt lat="47.26977" lon="6.10112">
        <ele>245.7</ele>
        <time>2019-08-17T13:11:05Z</time>
      </trkpt>
      <trkpt lat="47.26979" lon="6.10104">
        <ele>245.7</ele>
        <time>2019-08-17T13:11:06Z</time>
      </trkpt>
      <trkpt lat="47.2698" lon="6.10096">
        <ele>245.7</ele>
        <time>2019-08-17T13:11:07Z</time>
      </trkpt>
      <trkpt lat="47.26981" lon="6.10088">
        <ele>245.7</ele>
        <time>2019-08-17T13:11:08Z</time>
      </trkpt>
      <trkpt lat="47.26983" lon="6.10079">
        <ele>245.7</ele>
        <time>2019-08-17T13:11:09Z</time>
      </trkpt>
      <trkpt lat="47.26985" lon="6.1007">
        <ele>245.7</ele>
        <time>2019-08-17T13:11:10Z</time>
      </trkpt>
      <trkpt lat="47.26986" lon="6.10063">
        <ele>245.7</ele>
        <time>2019-08-17T13:11:11Z</time>
      </trkpt>
      <trkpt lat="47.26987" lon="6.10055">
        <ele>245.7</ele>
        <time>2019-08-17T13:11:12Z</time>
      </trkpt>
      <trkpt lat="47.26988" lon="6.10047">
        <ele>245.7</ele>
        <time>2019-08-17T13:11:13Z</time>
      </trkpt>
      <trkpt lat="47.26989" lon="6.1004">
        <ele>245.7</ele>
        <time>2019-08-17T13:11:14Z</time>
      </trkpt>
      <trkpt lat="47.2699" lon="6.10032">
        <ele>245.7</ele>
        <time>2019-08-17T13:11:15Z</time>
      </trkpt>
      <trkpt lat="47.26991" lon="6.10025">
        <ele>245.7</ele>
        <time>2019-08-17T13:11:16Z</time>
      </trkpt>
      <trkpt lat="47.26992" lon="6.10017">
        <ele>245.7</ele>
        <time>2019-08-17T13:11:17Z</time>
      </trkpt>
      <trkpt lat="47.26993" lon="6.10008">
        <ele>245.7</ele>
        <time>2019-08-17T13:11:18Z</time>
      </trkpt>
      <trkpt lat="47.26994" lon="6.09999">
        <ele>245.7</ele>
        <time>2019-08-17T13:11:19Z</time>
      </trkpt>
      <trkpt lat="47.26995" lon="6.09991">
        <ele>245.7</ele>
        <time>2019-08-17T13:11:20Z</time>
      </trkpt>
      <trkpt lat="47.26996" lon="6.09983">
        <ele>245.7</ele>
        <time>2019-08-17T13:11:21Z</time>
      </trkpt>
      <trkpt lat="47.26997" lon="6.09976">
        <ele>245.7</ele>
        <time>2019-08-17T13:11:22Z</time>
      </trkpt>
      <trkpt lat="47.26998" lon="6.09969">
        <ele>245.7</ele>
        <time>2019-08-17T13:11:23Z</time>
      </trkpt>
      <trkpt lat="47.26998" lon="6.09962">
        <ele>245.7</ele>
        <time>2019-08-17T13:11:24Z</time>
      </trkpt>
      <trkpt lat="47.26999" lon="6.09954">
        <ele>245.7</ele>
        <time>2019-08-17T13:11:25Z</time>
      </trkpt>
      <trkpt lat="47.27" lon="6.09946">
        <ele>245.7</ele>
        <time>2019-08-17T13:11:26Z</time>
      </trkpt>
      <trkpt lat="47.27001" lon="6.09938">
        <ele>245.7</ele>
        <time>2019-08-17T13:11:27Z</time>
      </trkpt>
      <trkpt lat="47.27001" lon="6.09929">
        <ele>245.7</ele>
        <time>2019-08-17T13:11:28Z</time>
      </trkpt>
      <trkpt lat="47.27001" lon="6.0992">
        <ele>245.7</ele>
        <time>2019-08-17T13:11:29Z</time>
      </trkpt>
      <trkpt lat="47.27001" lon="6.09911">
        <ele>245.7</ele>
        <time>2019-08-17T13:11:30Z</time>
      </trkpt>
      <trkpt lat="47.27" lon="6.09903">
        <ele>245.7</ele>
        <time>2019-08-17T13:11:31Z</time>
      </trkpt>
      <trkpt lat="47.27" lon="6.09895">
        <ele>245.7</ele>
        <time>2019-08-17T13:11:32Z</time>
      </trkpt>
      <trkpt lat="47.26999" lon="6.09888">
        <ele>245.7</ele>
        <time>2019-08-17T13:11:33Z</time>
      </trkpt>
      <trkpt lat="47.26998" lon="6.09881">
        <ele>245.7</ele>
        <time>2019-08-17T13:11:34Z</time>
      </trkpt>
      <trkpt lat="47.26997" lon="6.09873">
        <ele>245.7</ele>
        <time>2019-08-17T13:11:35Z</time>
      </trkpt>
      <trkpt lat="47.26996" lon="6.09865">
        <ele>245.7</ele>
        <time>2019-08-17T13:11:36Z</time>
      </trkpt>
      <trkpt lat="47.26996" lon="6.09858">
        <ele>245.7</ele>
        <time>2019-08-17T13:11:37Z</time>
      </trkpt>
      <trkpt lat="47.26995" lon="6.09851">
        <ele>245.7</ele>
        <time>2019-08-17T13:11:38Z</time>
      </trkpt>
      <trkpt lat="47.26994" lon="6.09843">
        <ele>245.7</ele>
        <time>2019-08-17T13:11:39Z</time>
      </trkpt>
      <trkpt lat="47.26994" lon="6.09836">
        <ele>245.7</ele>
        <time>2019-08-17T13:11:40Z</time>
      </trkpt>
      <trkpt lat="47.26994" lon="6.09829">
        <ele>245.7</ele>
        <time>2019-08-17T13:11:41Z</time>
      </trkpt>
      <trkpt lat="47.26994" lon="6.09822">
        <ele>245.7</ele>
        <time>2019-08-17T13:11:42Z</time>
      </trkpt>
      <trkpt lat="47.26994" lon="6.09814">
        <ele>245.7</ele>
        <time>2019-08-17T13:11:43Z</time>
      </trkpt>
      <trkpt lat="47.26993" lon="6.09807">
        <ele>245.7</ele>
        <time>2019-08-17T13:11:44Z</time>
      </trkpt>
      <trkpt lat="47.26992" lon="6.098">
        <ele>245.7</ele>
        <time>2019-08-17T13:11:45Z</time>
      </trkpt>
      <trkpt lat="47.26991" lon="6.09792">
        <ele>245.7</ele>
        <time>2019-08-17T13:11:46Z</time>
      </trkpt>
      <trkpt lat="47.2699" lon="6.09785">
        <ele>245.7</ele>
        <time>2019-08-17T13:11:47Z</time>
      </trkpt>
      <trkpt lat="47.2699" lon="6.09777">
        <ele>245.7</ele>
        <time>2019-08-17T13:11:48Z</time>
      </trkpt>
      <trkpt lat="47.26989" lon="6.09769">
        <ele>245.6</ele>
        <time>2019-08-17T13:11:49Z</time>
      </trkpt>
      <trkpt lat="47.26989" lon="6.09762">
        <ele>245.6</ele>
        <time>2019-08-17T13:11:50Z</time>
      </trkpt>
      <trkpt lat="47.26988" lon="6.09753">
        <ele>245.6</ele>
        <time>2019-08-17T13:11:51Z</time>
      </trkpt>
      <trkpt lat="47.26988" lon="6.09744">
        <ele>245.6</ele>
        <time>2019-08-17T13:11:52Z</time>
      </trkpt>
      <trkpt lat="47.26987" lon="6.09735">
        <ele>245.5</ele>
        <time>2019-08-17T13:11:53Z</time>
      </trkpt>
      <trkpt lat="47.26987" lon="6.09727">
        <ele>245.5</ele>
        <time>2019-08-17T13:11:54Z</time>
      </trkpt>
      <trkpt lat="47.26987" lon="6.09719">
        <ele>245.4</ele>
        <time>2019-08-17T13:11:55Z</time>
      </trkpt>
      <trkpt lat="47.26987" lon="6.09711">
        <ele>245.2</ele>
        <time>2019-08-17T13:11:56Z</time>
      </trkpt>
      <trkpt lat="47.26986" lon="6.09703">
        <ele>245.1</ele>
        <time>2019-08-17T13:11:57Z</time>
      </trkpt>
      <trkpt lat="47.26986" lon="6.09695">
        <ele>245</ele>
        <time>2019-08-17T13:11:58Z</time>
      </trkpt>
      <trkpt lat="47.26986" lon="6.09687">
        <ele>244.9</ele>
        <time>2019-08-17T13:11:59Z</time>
      </trkpt>
      <trkpt lat="47.26986" lon="6.09679">
        <ele>244.8</ele>
        <time>2019-08-17T13:12:00Z</time>
      </trkpt>
      <trkpt lat="47.26986" lon="6.09672">
        <ele>244.8</ele>
        <time>2019-08-17T13:12:01Z</time>
      </trkpt>
      <trkpt lat="47.26986" lon="6.09664">
        <ele>244.8</ele>
        <time>2019-08-17T13:12:02Z</time>
      </trkpt>
      <trkpt lat="47.26986" lon="6.09657">
        <ele>244.8</ele>
        <time>2019-08-17T13:12:03Z</time>
      </trkpt>
      <trkpt lat="47.26986" lon="6.09649">
        <ele>244.8</ele>
        <time>2019-08-17T13:12:04Z</time>
      </trkpt>
      <trkpt lat="47.26986" lon="6.09642">
        <ele>244.8</ele>
        <time>2019-08-17T13:12:05Z</time>
      </trkpt>
      <trkpt lat="47.26985" lon="6.09634">
        <ele>244.8</ele>
        <time>2019-08-17T13:12:06Z</time>
      </trkpt>
      <trkpt lat="47.26985" lon="6.09627">
        <ele>244.8</ele>
        <time>2019-08-17T13:12:07Z</time>
      </trkpt>
      <trkpt lat="47.26986" lon="6.0962">
        <ele>244.8</ele>
        <time>2019-08-17T13:12:08Z</time>
      </trkpt>
      <trkpt lat="47.26986" lon="6.09612">
        <ele>244.8</ele>
        <time>2019-08-17T13:12:09Z</time>
      </trkpt>
      <trkpt lat="47.26986" lon="6.09604">
        <ele>244.8</ele>
        <time>2019-08-17T13:12:10Z</time>
      </trkpt>
      <trkpt lat="47.26986" lon="6.09596">
        <ele>244.8</ele>
        <time>2019-08-17T13:12:11Z</time>
      </trkpt>
      <trkpt lat="47.26985" lon="6.09588">
        <ele>244.8</ele>
        <time>2019-08-17T13:12:12Z</time>
      </trkpt>
      <trkpt lat="47.26985" lon="6.09579">
        <ele>244.8</ele>
        <time>2019-08-17T13:12:13Z</time>
      </trkpt>
      <trkpt lat="47.26985" lon="6.0957">
        <ele>244.8</ele>
        <time>2019-08-17T13:12:14Z</time>
      </trkpt>
      <trkpt lat="47.26986" lon="6.09563">
        <ele>244.8</ele>
        <time>2019-08-17T13:12:15Z</time>
      </trkpt>
      <trkpt lat="47.26985" lon="6.09555">
        <ele>244.8</ele>
        <time>2019-08-17T13:12:16Z</time>
      </trkpt>
      <trkpt lat="47.26985" lon="6.09547">
        <ele>244.8</ele>
        <time>2019-08-17T13:12:17Z</time>
      </trkpt>
      <trkpt lat="47.26985" lon="6.09538">
        <ele>244.8</ele>
        <time>2019-08-17T13:12:18Z</time>
      </trkpt>
      <trkpt lat="47.26985" lon="6.0953">
        <ele>244.8</ele>
        <time>2019-08-17T13:12:19Z</time>
      </trkpt>
      <trkpt lat="47.26985" lon="6.09521">
        <ele>244.8</ele>
        <time>2019-08-17T13:12:20Z</time>
      </trkpt>
      <trkpt lat="47.26986" lon="6.09514">
        <ele>244.8</ele>
        <time>2019-08-17T13:12:21Z</time>
      </trkpt>
      <trkpt lat="47.26986" lon="6.09506">
        <ele>244.8</ele>
        <time>2019-08-17T13:12:22Z</time>
      </trkpt>
      <trkpt lat="47.26987" lon="6.09499">
        <ele>244.8</ele>
        <time>2019-08-17T13:12:23Z</time>
      </trkpt>
      <trkpt lat="47.26988" lon="6.09492">
        <ele>244.8</ele>
        <time>2019-08-17T13:12:24Z</time>
      </trkpt>
      <trkpt lat="47.26988" lon="6.09484">
        <ele>244.8</ele>
        <time>2019-08-17T13:12:25Z</time>
      </trkpt>
      <trkpt lat="47.26989" lon="6.09477">
        <ele>244.8</ele>
        <time>2019-08-17T13:12:26Z</time>
      </trkpt>
      <trkpt lat="47.26989" lon="6.0947">
        <ele>244.8</ele>
        <time>2019-08-17T13:12:27Z</time>
      </trkpt>
      <trkpt lat="47.26989" lon="6.09463">
        <ele>244.8</ele>
        <time>2019-08-17T13:12:28Z</time>
      </trkpt>
      <trkpt lat="47.2699" lon="6.09455">
        <ele>244.8</ele>
        <time>2019-08-17T13:12:29Z</time>
      </trkpt>
      <trkpt lat="47.2699" lon="6.09448">
        <ele>244.8</ele>
        <time>2019-08-17T13:12:30Z</time>
      </trkpt>
      <trkpt lat="47.26991" lon="6.0944">
        <ele>244.8</ele>
        <time>2019-08-17T13:12:31Z</time>
      </trkpt>
      <trkpt lat="47.26992" lon="6.09432">
        <ele>244.8</ele>
        <time>2019-08-17T13:12:32Z</time>
      </trkpt>
      <trkpt lat="47.26991" lon="6.09423">
        <ele>244.8</ele>
        <time>2019-08-17T13:12:33Z</time>
      </trkpt>
      <trkpt lat="47.26992" lon="6.09414">
        <ele>244.8</ele>
        <time>2019-08-17T13:12:34Z</time>
      </trkpt>
      <trkpt lat="47.26992" lon="6.09406">
        <ele>244.8</ele>
        <time>2019-08-17T13:12:35Z</time>
      </trkpt>
      <trkpt lat="47.26993" lon="6.09398">
        <ele>244.8</ele>
        <time>2019-08-17T13:12:36Z</time>
      </trkpt>
      <trkpt lat="47.26993" lon="6.0939">
        <ele>244.8</ele>
        <time>2019-08-17T13:12:37Z</time>
      </trkpt>
      <trkpt lat="47.26994" lon="6.09383">
        <ele>244.8</ele>
        <time>2019-08-17T13:12:38Z</time>
      </trkpt>
      <trkpt lat="47.26995" lon="6.09376">
        <ele>244.8</ele>
        <time>2019-08-17T13:12:39Z</time>
      </trkpt>
      <trkpt lat="47.26996" lon="6.09369">
        <ele>244.8</ele>
        <time>2019-08-17T13:12:40Z</time>
      </trkpt>
      <trkpt lat="47.26998" lon="6.09363">
        <ele>244.8</ele>
        <time>2019-08-17T13:12:41Z</time>
      </trkpt>
      <trkpt lat="47.26999" lon="6.09356">
        <ele>244.8</ele>
        <time>2019-08-17T13:12:42Z</time>
      </trkpt>
      <trkpt lat="47.27001" lon="6.09349">
        <ele>244.8</ele>
        <time>2019-08-17T13:12:43Z</time>
      </trkpt>
      <trkpt lat="47.27003" lon="6.09342">
        <ele>244.8</ele>
        <time>2019-08-17T13:12:44Z</time>
      </trkpt>
      <trkpt lat="47.27004" lon="6.09336">
        <ele>244.8</ele>
        <time>2019-08-17T13:12:45Z</time>
      </trkpt>
      <trkpt lat="47.27006" lon="6.09329">
        <ele>244.8</ele>
        <time>2019-08-17T13:12:46Z</time>
      </trkpt>
      <trkpt lat="47.27007" lon="6.09323">
        <ele>244.8</ele>
        <time>2019-08-17T13:12:47Z</time>
      </trkpt>
      <trkpt lat="47.27008" lon="6.09317">
        <ele>244.8</ele>
        <time>2019-08-17T13:12:48Z</time>
      </trkpt>
      <trkpt lat="47.27009" lon="6.09311">
        <ele>244.8</ele>
        <time>2019-08-17T13:12:49Z</time>
      </trkpt>
      <trkpt lat="47.27011" lon="6.09305">
        <ele>244.8</ele>
        <time>2019-08-17T13:12:50Z</time>
      </trkpt>
      <trkpt lat="47.27012" lon="6.09298">
        <ele>244.8</ele>
        <time>2019-08-17T13:12:51Z</time>
      </trkpt>
      <trkpt lat="47.27013" lon="6.09294">
        <ele>244.8</ele>
        <time>2019-08-17T13:12:52Z</time>
      </trkpt>
      <trkpt lat="47.27013" lon="6.09288">
        <ele>244.8</ele>
        <time>2019-08-17T13:12:53Z</time>
      </trkpt>
      <trkpt lat="47.27014" lon="6.09281">
        <ele>244.8</ele>
        <time>2019-08-17T13:12:54Z</time>
      </trkpt>
      <trkpt lat="47.27015" lon="6.09273">
        <ele>244.8</ele>
        <time>2019-08-17T13:12:55Z</time>
      </trkpt>
      <trkpt lat="47.27016" lon="6.09264">
        <ele>244.8</ele>
        <time>2019-08-17T13:12:56Z</time>
      </trkpt>
      <trkpt lat="47.27017" lon="6.09256">
        <ele>244.8</ele>
        <time>2019-08-17T13:12:57Z</time>
      </trkpt>
      <trkpt lat="47.27018" lon="6.09247">
        <ele>244.8</ele>
        <time>2019-08-17T13:12:58Z</time>
      </trkpt>
      <trkpt lat="47.27019" lon="6.09238">
        <ele>244.8</ele>
        <time>2019-08-17T13:12:59Z</time>
      </trkpt>
      <trkpt lat="47.2702" lon="6.0923">
        <ele>244.8</ele>
        <time>2019-08-17T13:13:00Z</time>
      </trkpt>
      <trkpt lat="47.27022" lon="6.09222">
        <ele>244.8</ele>
        <time>2019-08-17T13:13:01Z</time>
      </trkpt>
      <trkpt lat="47.27023" lon="6.09214">
        <ele>244.8</ele>
        <time>2019-08-17T13:13:02Z</time>
      </trkpt>
      <trkpt lat="47.27024" lon="6.09205">
        <ele>244.8</ele>
        <time>2019-08-17T13:13:03Z</time>
      </trkpt>
      <trkpt lat="47.27025" lon="6.09197">
        <ele>244.7</ele>
        <time>2019-08-17T13:13:04Z</time>
      </trkpt>
      <trkpt lat="47.27027" lon="6.09189">
        <ele>244.7</ele>
        <time>2019-08-17T13:13:05Z</time>
      </trkpt>
      <trkpt lat="47.27028" lon="6.09181">
        <ele>244.7</ele>
        <time>2019-08-17T13:13:06Z</time>
      </trkpt>
      <trkpt lat="47.2703" lon="6.09174">
        <ele>244.7</ele>
        <time>2019-08-17T13:13:07Z</time>
      </trkpt>
      <trkpt lat="47.27031" lon="6.09167">
        <ele>244.7</ele>
        <time>2019-08-17T13:13:08Z</time>
      </trkpt>
      <trkpt lat="47.27032" lon="6.0916">
        <ele>244.7</ele>
        <time>2019-08-17T13:13:09Z</time>
      </trkpt>
      <trkpt lat="47.27033" lon="6.09152">
        <ele>244.7</ele>
        <time>2019-08-17T13:13:10Z</time>
      </trkpt>
      <trkpt lat="47.27035" lon="6.09146">
        <ele>244.7</ele>
        <time>2019-08-17T13:13:11Z</time>
      </trkpt>
      <trkpt lat="47.27036" lon="6.09138">
        <ele>244.7</ele>
        <time>2019-08-17T13:13:12Z</time>
      </trkpt>
      <trkpt lat="47.27037" lon="6.09131">
        <ele>244.7</ele>
        <time>2019-08-17T13:13:13Z</time>
      </trkpt>
      <trkpt lat="47.27037" lon="6.09124">
        <ele>244.7</ele>
        <time>2019-08-17T13:13:14Z</time>
      </trkpt>
      <trkpt lat="47.27037" lon="6.09116">
        <ele>244.7</ele>
        <time>2019-08-17T13:13:15Z</time>
      </trkpt>
      <trkpt lat="47.27039" lon="6.09108">
        <ele>244.7</ele>
        <time>2019-08-17T13:13:16Z</time>
      </trkpt>
      <trkpt lat="47.2704" lon="6.091">
        <ele>244.7</ele>
        <time>2019-08-17T13:13:17Z</time>
      </trkpt>
      <trkpt lat="47.27042" lon="6.09092">
        <ele>244.7</ele>
        <time>2019-08-17T13:13:18Z</time>
      </trkpt>
      <trkpt lat="47.27044" lon="6.09084">
        <ele>244.7</ele>
        <time>2019-08-17T13:13:19Z</time>
      </trkpt>
      <trkpt lat="47.27045" lon="6.09076">
        <ele>244.7</ele>
        <time>2019-08-17T13:13:20Z</time>
      </trkpt>
      <trkpt lat="47.27046" lon="6.09067">
        <ele>244.7</ele>
        <time>2019-08-17T13:13:21Z</time>
      </trkpt>
      <trkpt lat="47.27048" lon="6.09059">
        <ele>244.7</ele>
        <time>2019-08-17T13:13:22Z</time>
      </trkpt>
      <trkpt lat="47.27049" lon="6.0905">
        <ele>244.7</ele>
        <time>2019-08-17T13:13:23Z</time>
      </trkpt>
      <trkpt lat="47.27051" lon="6.09042">
        <ele>244.7</ele>
        <time>2019-08-17T13:13:24Z</time>
      </trkpt>
      <trkpt lat="47.27055" lon="6.09037">
        <ele>244.7</ele>
        <time>2019-08-17T13:13:25Z</time>
      </trkpt>
      <trkpt lat="47.27057" lon="6.09029">
        <ele>244.7</ele>
        <time>2019-08-17T13:13:26Z</time>
      </trkpt>
      <trkpt lat="47.2706" lon="6.09023">
        <ele>244.7</ele>
        <time>2019-08-17T13:13:27Z</time>
      </trkpt>
      <trkpt lat="47.27061" lon="6.09016">
        <ele>244.7</ele>
        <time>2019-08-17T13:13:28Z</time>
      </trkpt>
      <trkpt lat="47.27062" lon="6.09007">
        <ele>244.7</ele>
        <time>2019-08-17T13:13:29Z</time>
      </trkpt>
      <trkpt lat="47.27063" lon="6.09">
        <ele>244.7</ele>
        <time>2019-08-17T13:13:30Z</time>
      </trkpt>
      <trkpt lat="47.27065" lon="6.08992">
        <ele>244.7</ele>
        <time>2019-08-17T13:13:31Z</time>
      </trkpt>
      <trkpt lat="47.27066" lon="6.08984">
        <ele>244.7</ele>
        <time>2019-08-17T13:13:32Z</time>
      </trkpt>
      <trkpt lat="47.27066" lon="6.08977">
        <ele>244.7</ele>
        <time>2019-08-17T13:13:33Z</time>
      </trkpt>
      <trkpt lat="47.27067" lon="6.08969">
        <ele>244.7</ele>
        <time>2019-08-17T13:13:34Z</time>
      </trkpt>
      <trkpt lat="47.27069" lon="6.08961">
        <ele>244.7</ele>
        <time>2019-08-17T13:13:35Z</time>
      </trkpt>
      <trkpt lat="47.2707" lon="6.08954">
        <ele>244.7</ele>
        <time>2019-08-17T13:13:36Z</time>
      </trkpt>
      <trkpt lat="47.27071" lon="6.08946">
        <ele>244.7</ele>
        <time>2019-08-17T13:13:37Z</time>
      </trkpt>
      <trkpt lat="47.27072" lon="6.08939">
        <ele>244.7</ele>
        <time>2019-08-17T13:13:38Z</time>
      </trkpt>
      <trkpt lat="47.27073" lon="6.08931">
        <ele>244.7</ele>
        <time>2019-08-17T13:13:39Z</time>
      </trkpt>
      <trkpt lat="47.27074" lon="6.08923">
        <ele>244.7</ele>
        <time>2019-08-17T13:13:40Z</time>
      </trkpt>
      <trkpt lat="47.27076" lon="6.08917">
        <ele>244.7</ele>
        <time>2019-08-17T13:13:41Z</time>
      </trkpt>
      <trkpt lat="47.27077" lon="6.0891">
        <ele>244.7</ele>
        <time>2019-08-17T13:13:42Z</time>
      </trkpt>
      <trkpt lat="47.27078" lon="6.08904">
        <ele>244.7</ele>
        <time>2019-08-17T13:13:43Z</time>
      </trkpt>
      <trkpt lat="47.27078" lon="6.08897">
        <ele>244.7</ele>
        <time>2019-08-17T13:13:44Z</time>
      </trkpt>
      <trkpt lat="47.27078" lon="6.0889">
        <ele>244.7</ele>
        <time>2019-08-17T13:13:45Z</time>
      </trkpt>
      <trkpt lat="47.27078" lon="6.08882">
        <ele>244.7</ele>
        <time>2019-08-17T13:13:46Z</time>
      </trkpt>
      <trkpt lat="47.27078" lon="6.08875">
        <ele>244.7</ele>
        <time>2019-08-17T13:13:47Z</time>
      </trkpt>
      <trkpt lat="47.27079" lon="6.08868">
        <ele>244.7</ele>
        <time>2019-08-17T13:13:48Z</time>
      </trkpt>
      <trkpt lat="47.2708" lon="6.08861">
        <ele>244.7</ele>
        <time>2019-08-17T13:13:49Z</time>
      </trkpt>
      <trkpt lat="47.27082" lon="6.08853">
        <ele>244.7</ele>
        <time>2019-08-17T13:13:50Z</time>
      </trkpt>
      <trkpt lat="47.27083" lon="6.08846">
        <ele>244.7</ele>
        <time>2019-08-17T13:13:51Z</time>
      </trkpt>
      <trkpt lat="47.27084" lon="6.08839">
        <ele>244.7</ele>
        <time>2019-08-17T13:13:52Z</time>
      </trkpt>
      <trkpt lat="47.27086" lon="6.08833">
        <ele>244.7</ele>
        <time>2019-08-17T13:13:53Z</time>
      </trkpt>
      <trkpt lat="47.27086" lon="6.08826">
        <ele>244.7</ele>
        <time>2019-08-17T13:13:54Z</time>
      </trkpt>
      <trkpt lat="47.27087" lon="6.08819">
        <ele>244.7</ele>
        <time>2019-08-17T13:13:55Z</time>
      </trkpt>
      <trkpt lat="47.27088" lon="6.08812">
        <ele>244.7</ele>
        <time>2019-08-17T13:13:56Z</time>
      </trkpt>
      <trkpt lat="47.27088" lon="6.08805">
        <ele>244.7</ele>
        <time>2019-08-17T13:13:57Z</time>
      </trkpt>
      <trkpt lat="47.27089" lon="6.08797">
        <ele>244.7</ele>
        <time>2019-08-17T13:13:58Z</time>
      </trkpt>
      <trkpt lat="47.2709" lon="6.0879">
        <ele>244.7</ele>
        <time>2019-08-17T13:13:59Z</time>
      </trkpt>
      <trkpt lat="47.27091" lon="6.08783">
        <ele>244.7</ele>
        <time>2019-08-17T13:14:00Z</time>
      </trkpt>
      <trkpt lat="47.27093" lon="6.08775">
        <ele>244.7</ele>
        <time>2019-08-17T13:14:01Z</time>
      </trkpt>
      <trkpt lat="47.27094" lon="6.08766">
        <ele>244.7</ele>
        <time>2019-08-17T13:14:02Z</time>
      </trkpt>
      <trkpt lat="47.27094" lon="6.08759">
        <ele>244.7</ele>
        <time>2019-08-17T13:14:03Z</time>
      </trkpt>
      <trkpt lat="47.27095" lon="6.08751">
        <ele>244.7</ele>
        <time>2019-08-17T13:14:04Z</time>
      </trkpt>
      <trkpt lat="47.27096" lon="6.08743">
        <ele>244.7</ele>
        <time>2019-08-17T13:14:05Z</time>
      </trkpt>
      <trkpt lat="47.27096" lon="6.08736">
        <ele>244.7</ele>
        <time>2019-08-17T13:14:06Z</time>
      </trkpt>
      <trkpt lat="47.27097" lon="6.08729">
        <ele>244.6</ele>
        <time>2019-08-17T13:14:07Z</time>
      </trkpt>
      <trkpt lat="47.27098" lon="6.08723">
        <ele>244.5</ele>
        <time>2019-08-17T13:14:08Z</time>
      </trkpt>
      <trkpt lat="47.27098" lon="6.08717">
        <ele>244.5</ele>
        <time>2019-08-17T13:14:09Z</time>
      </trkpt>
      <trkpt lat="47.27099" lon="6.0871">
        <ele>244.3</ele>
        <time>2019-08-17T13:14:10Z</time>
      </trkpt>
      <trkpt lat="47.271" lon="6.08702">
        <ele>244.2</ele>
        <time>2019-08-17T13:14:11Z</time>
      </trkpt>
      <trkpt lat="47.27101" lon="6.08694">
        <ele>244</ele>
        <time>2019-08-17T13:14:12Z</time>
      </trkpt>
      <trkpt lat="47.27102" lon="6.08686">
        <ele>243.9</ele>
        <time>2019-08-17T13:14:13Z</time>
      </trkpt>
      <trkpt lat="47.27103" lon="6.08678">
        <ele>243.8</ele>
        <time>2019-08-17T13:14:14Z</time>
      </trkpt>
      <trkpt lat="47.27105" lon="6.0867">
        <ele>243.7</ele>
        <time>2019-08-17T13:14:15Z</time>
      </trkpt>
      <trkpt lat="47.27105" lon="6.08663">
        <ele>243.7</ele>
        <time>2019-08-17T13:14:16Z</time>
      </trkpt>
      <trkpt lat="47.27106" lon="6.08656">
        <ele>243.7</ele>
        <time>2019-08-17T13:14:17Z</time>
      </trkpt>
      <trkpt lat="47.27106" lon="6.0865">
        <ele>243.7</ele>
        <time>2019-08-17T13:14:18Z</time>
      </trkpt>
      <trkpt lat="47.27106" lon="6.08643">
        <ele>243.7</ele>
        <time>2019-08-17T13:14:19Z</time>
      </trkpt>
      <trkpt lat="47.27106" lon="6.08636">
        <ele>243.8</ele>
        <time>2019-08-17T13:14:20Z</time>
      </trkpt>
      <trkpt lat="47.27106" lon="6.08629">
        <ele>243.8</ele>
        <time>2019-08-17T13:14:21Z</time>
      </trkpt>
      <trkpt lat="47.27105" lon="6.08622">
        <ele>243.9</ele>
        <time>2019-08-17T13:14:22Z</time>
      </trkpt>
      <trkpt lat="47.27105" lon="6.08615">
        <ele>244.1</ele>
        <time>2019-08-17T13:14:23Z</time>
      </trkpt>
      <trkpt lat="47.27105" lon="6.08608">
        <ele>244.2</ele>
        <time>2019-08-17T13:14:24Z</time>
      </trkpt>
      <trkpt lat="47.27105" lon="6.08601">
        <ele>244.3</ele>
        <time>2019-08-17T13:14:25Z</time>
      </trkpt>
      <trkpt lat="47.27105" lon="6.08594">
        <ele>244.4</ele>
        <time>2019-08-17T13:14:26Z</time>
      </trkpt>
      <trkpt lat="47.27104" lon="6.08586">
        <ele>244.5</ele>
        <time>2019-08-17T13:14:27Z</time>
      </trkpt>
      <trkpt lat="47.27103" lon="6.08579">
        <ele>244.5</ele>
        <time>2019-08-17T13:14:28Z</time>
      </trkpt>
      <trkpt lat="47.27103" lon="6.08572">
        <ele>244.5</ele>
        <time>2019-08-17T13:14:29Z</time>
      </trkpt>
      <trkpt lat="47.27102" lon="6.08564">
        <ele>244.4</ele>
        <time>2019-08-17T13:14:30Z</time>
      </trkpt>
      <trkpt lat="47.27102" lon="6.08557">
        <ele>244.3</ele>
        <time>2019-08-17T13:14:31Z</time>
      </trkpt>
      <trkpt lat="47.27102" lon="6.08551">
        <ele>244.2</ele>
        <time>2019-08-17T13:14:32Z</time>
      </trkpt>
      <trkpt lat="47.27101" lon="6.08547">
        <ele>244.1</ele>
        <time>2019-08-17T13:14:33Z</time>
      </trkpt>
      <trkpt lat="47.27101" lon="6.08541">
        <ele>244</ele>
        <time>2019-08-17T13:14:34Z</time>
      </trkpt>
      <trkpt lat="47.271" lon="6.08536">
        <ele>243.9</ele>
        <time>2019-08-17T13:14:35Z</time>
      </trkpt>
      <trkpt lat="47.271" lon="6.08529">
        <ele>243.8</ele>
        <time>2019-08-17T13:14:36Z</time>
      </trkpt>
      <trkpt lat="47.271" lon="6.08523">
        <ele>243.7</ele>
        <time>2019-08-17T13:14:37Z</time>
      </trkpt>
      <trkpt lat="47.27099" lon="6.08517">
        <ele>243.7</ele>
        <time>2019-08-17T13:14:38Z</time>
      </trkpt>
      <trkpt lat="47.27099" lon="6.08511">
        <ele>243.7</ele>
        <time>2019-08-17T13:14:39Z</time>
      </trkpt>
      <trkpt lat="47.27099" lon="6.08505">
        <ele>243.7</ele>
        <time>2019-08-17T13:14:40Z</time>
      </trkpt>
      <trkpt lat="47.27099" lon="6.08499">
        <ele>243.7</ele>
        <time>2019-08-17T13:14:41Z</time>
      </trkpt>
      <trkpt lat="47.27098" lon="6.08494">
        <ele>243.7</ele>
        <time>2019-08-17T13:14:42Z</time>
      </trkpt>
      <trkpt lat="47.27097" lon="6.08491">
        <ele>243.7</ele>
        <time>2019-08-17T13:14:43Z</time>
      </trkpt>
      <trkpt lat="47.27096" lon="6.08487">
        <ele>243.7</ele>
        <time>2019-08-17T13:14:45Z</time>
      </trkpt>
      <trkpt lat="47.27093" lon="6.08482">
        <ele>243.7</ele>
        <time>2019-08-17T13:14:48Z</time>
      </trkpt>
      <trkpt lat="47.2709" lon="6.08481">
        <ele>243.7</ele>
        <time>2019-08-17T13:14:49Z</time>
      </trkpt>
      <trkpt lat="47.27086" lon="6.08479">
        <ele>243.7</ele>
        <time>2019-08-17T13:14:50Z</time>
      </trkpt>
      <trkpt lat="47.27081" lon="6.08478">
        <ele>243.7</ele>
        <time>2019-08-17T13:14:51Z</time>
      </trkpt>
      <trkpt lat="47.27077" lon="6.08478">
        <ele>243.7</ele>
        <time>2019-08-17T13:14:52Z</time>
      </trkpt>
      <trkpt lat="47.27072" lon="6.08478">
        <ele>243.6</ele>
        <time>2019-08-17T13:14:53Z</time>
      </trkpt>
      <trkpt lat="47.27067" lon="6.08477">
        <ele>243.6</ele>
        <time>2019-08-17T13:14:54Z</time>
      </trkpt>
      <trkpt lat="47.27062" lon="6.08478">
        <ele>243.6</ele>
        <time>2019-08-17T13:14:55Z</time>
      </trkpt>
      <trkpt lat="47.27058" lon="6.08479">
        <ele>243.5</ele>
        <time>2019-08-17T13:14:56Z</time>
      </trkpt>
      <trkpt lat="47.27054" lon="6.0848">
        <ele>243.4</ele>
        <time>2019-08-17T13:14:57Z</time>
      </trkpt>
      <trkpt lat="47.2705" lon="6.08481">
        <ele>243.2</ele>
        <time>2019-08-17T13:14:58Z</time>
      </trkpt>
      <trkpt lat="47.27047" lon="6.08483">
        <ele>243.1</ele>
        <time>2019-08-17T13:14:59Z</time>
      </trkpt>
      <trkpt lat="47.27043" lon="6.08484">
        <ele>243</ele>
        <time>2019-08-17T13:15:00Z</time>
      </trkpt>
      <trkpt lat="47.27039" lon="6.08484">
        <ele>242.9</ele>
        <time>2019-08-17T13:15:01Z</time>
      </trkpt>
      <trkpt lat="47.27035" lon="6.08484">
        <ele>242.7</ele>
        <time>2019-08-17T13:15:02Z</time>
      </trkpt>
      <trkpt lat="47.27032" lon="6.08485">
        <ele>242.7</ele>
        <time>2019-08-17T13:15:03Z</time>
      </trkpt>
      <trkpt lat="47.27027" lon="6.08485">
        <ele>242.7</ele>
        <time>2019-08-17T13:15:04Z</time>
      </trkpt>
      <trkpt lat="47.27024" lon="6.08486">
        <ele>242.7</ele>
        <time>2019-08-17T13:15:05Z</time>
      </trkpt>
      <trkpt lat="47.27021" lon="6.08487">
        <ele>242.7</ele>
        <time>2019-08-17T13:15:06Z</time>
      </trkpt>
      <trkpt lat="47.27017" lon="6.08488">
        <ele>242.7</ele>
        <time>2019-08-17T13:15:07Z</time>
      </trkpt>
      <trkpt lat="47.27012" lon="6.08489">
        <ele>242.8</ele>
        <time>2019-08-17T13:15:08Z</time>
      </trkpt>
      <trkpt lat="47.27008" lon="6.0849">
        <ele>242.8</ele>
        <time>2019-08-17T13:15:09Z</time>
      </trkpt>
      <trkpt lat="47.27003" lon="6.08491">
        <ele>242.8</ele>
        <time>2019-08-17T13:15:10Z</time>
      </trkpt>
      <trkpt lat="47.26999" lon="6.08493">
        <ele>242.9</ele>
        <time>2019-08-17T13:15:11Z</time>
      </trkpt>
      <trkpt lat="47.26995" lon="6.08494">
        <ele>242.9</ele>
        <time>2019-08-17T13:15:12Z</time>
      </trkpt>
      <trkpt lat="47.26992" lon="6.08497">
        <ele>243</ele>
        <time>2019-08-17T13:15:13Z</time>
      </trkpt>
      <trkpt lat="47.26988" lon="6.08499">
        <ele>243.1</ele>
        <time>2019-08-17T13:15:14Z</time>
      </trkpt>
      <trkpt lat="47.26984" lon="6.085">
        <ele>243.2</ele>
        <time>2019-08-17T13:15:15Z</time>
      </trkpt>
      <trkpt lat="47.2698" lon="6.08501">
        <ele>243.3</ele>
        <time>2019-08-17T13:15:16Z</time>
      </trkpt>
      <trkpt lat="47.26976" lon="6.08502">
        <ele>243.4</ele>
        <time>2019-08-17T13:15:17Z</time>
      </trkpt>
      <trkpt lat="47.26972" lon="6.08503">
        <ele>243.5</ele>
        <time>2019-08-17T13:15:18Z</time>
      </trkpt>
      <trkpt lat="47.26968" lon="6.08504">
        <ele>243.6</ele>
        <time>2019-08-17T13:15:19Z</time>
      </trkpt>
      <trkpt lat="47.26963" lon="6.08505">
        <ele>243.7</ele>
        <time>2019-08-17T13:15:20Z</time>
      </trkpt>
      <trkpt lat="47.26959" lon="6.08507">
        <ele>243.7</ele>
        <time>2019-08-17T13:15:21Z</time>
      </trkpt>
      <trkpt lat="47.26954" lon="6.08508">
        <ele>243.8</ele>
        <time>2019-08-17T13:15:22Z</time>
      </trkpt>
      <trkpt lat="47.2695" lon="6.0851">
        <ele>243.9</ele>
        <time>2019-08-17T13:15:23Z</time>
      </trkpt>
      <trkpt lat="47.26947" lon="6.08511">
        <ele>243.9</ele>
        <time>2019-08-17T13:15:24Z</time>
      </trkpt>
      <trkpt lat="47.26942" lon="6.08512">
        <ele>243.9</ele>
        <time>2019-08-17T13:15:25Z</time>
      </trkpt>
      <trkpt lat="47.26937" lon="6.08512">
        <ele>243.9</ele>
        <time>2019-08-17T13:15:26Z</time>
      </trkpt>
      <trkpt lat="47.26933" lon="6.08513">
        <ele>244.1</ele>
        <time>2019-08-17T13:15:27Z</time>
      </trkpt>
      <trkpt lat="47.26928" lon="6.08514">
        <ele>244.4</ele>
        <time>2019-08-17T13:15:28Z</time>
      </trkpt>
      <trkpt lat="47.26924" lon="6.08514">
        <ele>244.7</ele>
        <time>2019-08-17T13:15:29Z</time>
      </trkpt>
      <trkpt lat="47.26919" lon="6.08514">
        <ele>244.5</ele>
        <time>2019-08-17T13:15:30Z</time>
      </trkpt>
      <trkpt lat="47.26914" lon="6.08514">
        <ele>244.4</ele>
        <time>2019-08-17T13:15:31Z</time>
      </trkpt>
      <trkpt lat="47.26909" lon="6.08515">
        <ele>244.3</ele>
        <time>2019-08-17T13:15:32Z</time>
      </trkpt>
      <trkpt lat="47.26904" lon="6.08516">
        <ele>244.2</ele>
        <time>2019-08-17T13:15:33Z</time>
      </trkpt>
      <trkpt lat="47.26898" lon="6.08517">
        <ele>244.1</ele>
        <time>2019-08-17T13:15:34Z</time>
      </trkpt>
      <trkpt lat="47.26894" lon="6.0852">
        <ele>244</ele>
        <time>2019-08-17T13:15:35Z</time>
      </trkpt>
      <trkpt lat="47.26889" lon="6.08522">
        <ele>243.9</ele>
        <time>2019-08-17T13:15:36Z</time>
      </trkpt>
      <trkpt lat="47.26885" lon="6.08524">
        <ele>243.9</ele>
        <time>2019-08-17T13:15:37Z</time>
      </trkpt>
      <trkpt lat="47.26881" lon="6.08526">
        <ele>243.9</ele>
        <time>2019-08-17T13:15:38Z</time>
      </trkpt>
      <trkpt lat="47.26876" lon="6.0853">
        <ele>243.9</ele>
        <time>2019-08-17T13:15:39Z</time>
      </trkpt>
      <trkpt lat="47.26871" lon="6.08533">
        <ele>243.9</ele>
        <time>2019-08-17T13:15:40Z</time>
      </trkpt>
      <trkpt lat="47.26867" lon="6.08538">
        <ele>243.9</ele>
        <time>2019-08-17T13:15:41Z</time>
      </trkpt>
      <trkpt lat="47.26863" lon="6.08544">
        <ele>243.9</ele>
        <time>2019-08-17T13:15:42Z</time>
      </trkpt>
      <trkpt lat="47.26859" lon="6.0855">
        <ele>244</ele>
        <time>2019-08-17T13:15:43Z</time>
      </trkpt>
      <trkpt lat="47.26855" lon="6.08557">
        <ele>244.1</ele>
        <time>2019-08-17T13:15:44Z</time>
      </trkpt>
      <trkpt lat="47.26852" lon="6.08563">
        <ele>244.1</ele>
        <time>2019-08-17T13:15:45Z</time>
      </trkpt>
      <trkpt lat="47.26848" lon="6.0857">
        <ele>244.2</ele>
        <time>2019-08-17T13:15:46Z</time>
      </trkpt>
      <trkpt lat="47.26845" lon="6.08577">
        <ele>244.2</ele>
        <time>2019-08-17T13:15:47Z</time>
      </trkpt>
      <trkpt lat="47.26841" lon="6.08584">
        <ele>244.3</ele>
        <time>2019-08-17T13:15:48Z</time>
      </trkpt>
      <trkpt lat="47.26838" lon="6.08591">
        <ele>244.3</ele>
        <time>2019-08-17T13:15:49Z</time>
      </trkpt>
      <trkpt lat="47.26835" lon="6.08599">
        <ele>244.4</ele>
        <time>2019-08-17T13:15:50Z</time>
      </trkpt>
      <trkpt lat="47.26833" lon="6.08607">
        <ele>244.5</ele>
        <time>2019-08-17T13:15:51Z</time>
      </trkpt>
      <trkpt lat="47.26832" lon="6.08615">
        <ele>244.6</ele>
        <time>2019-08-17T13:15:52Z</time>
      </trkpt>
      <trkpt lat="47.26832" lon="6.08624">
        <ele>244.6</ele>
        <time>2019-08-17T13:15:53Z</time>
      </trkpt>
      <trkpt lat="47.26831" lon="6.08634">
        <ele>244.7</ele>
        <time>2019-08-17T13:15:54Z</time>
      </trkpt>
      <trkpt lat="47.26831" lon="6.08642">
        <ele>244.8</ele>
        <time>2019-08-17T13:15:55Z</time>
      </trkpt>
      <trkpt lat="47.2683" lon="6.08651">
        <ele>244.8</ele>
        <time>2019-08-17T13:15:56Z</time>
      </trkpt>
      <trkpt lat="47.26831" lon="6.08659">
        <ele>244.8</ele>
        <time>2019-08-17T13:15:57Z</time>
      </trkpt>
      <trkpt lat="47.26831" lon="6.08667">
        <ele>244.8</ele>
        <time>2019-08-17T13:15:58Z</time>
      </trkpt>
      <trkpt lat="47.26832" lon="6.08674">
        <ele>244.8</ele>
        <time>2019-08-17T13:15:59Z</time>
      </trkpt>
      <trkpt lat="47.26832" lon="6.08682">
        <ele>244.9</ele>
        <time>2019-08-17T13:16:00Z</time>
      </trkpt>
      <trkpt lat="47.26833" lon="6.0869">
        <ele>245</ele>
        <time>2019-08-17T13:16:01Z</time>
      </trkpt>
      <trkpt lat="47.26833" lon="6.08698">
        <ele>245.1</ele>
        <time>2019-08-17T13:16:02Z</time>
      </trkpt>
      <trkpt lat="47.26834" lon="6.08706">
        <ele>245.2</ele>
        <time>2019-08-17T13:16:03Z</time>
      </trkpt>
      <trkpt lat="47.26835" lon="6.08712">
        <ele>245.3</ele>
        <time>2019-08-17T13:16:04Z</time>
      </trkpt>
      <trkpt lat="47.26836" lon="6.0872">
        <ele>245.4</ele>
        <time>2019-08-17T13:16:05Z</time>
      </trkpt>
      <trkpt lat="47.26837" lon="6.08729">
        <ele>245.5</ele>
        <time>2019-08-17T13:16:06Z</time>
      </trkpt>
      <trkpt lat="47.26838" lon="6.08737">
        <ele>245.6</ele>
        <time>2019-08-17T13:16:07Z</time>
      </trkpt>
      <trkpt lat="47.26839" lon="6.08745">
        <ele>245.8</ele>
        <time>2019-08-17T13:16:08Z</time>
      </trkpt>
      <trkpt lat="47.2684" lon="6.08753">
        <ele>246</ele>
        <time>2019-08-17T13:16:09Z</time>
      </trkpt>
      <trkpt lat="47.26842" lon="6.08761">
        <ele>246.1</ele>
        <time>2019-08-17T13:16:10Z</time>
      </trkpt>
      <trkpt lat="47.26842" lon="6.08769">
        <ele>246.3</ele>
        <time>2019-08-17T13:16:11Z</time>
      </trkpt>
      <trkpt lat="47.26842" lon="6.08778">
        <ele>246.5</ele>
        <time>2019-08-17T13:16:12Z</time>
      </trkpt>
      <trkpt lat="47.26841" lon="6.08785">
        <ele>246.6</ele>
        <time>2019-08-17T13:16:13Z</time>
      </trkpt>
      <trkpt lat="47.26837" lon="6.08791">
        <ele>246.6</ele>
        <time>2019-08-17T13:16:14Z</time>
      </trkpt>
      <trkpt lat="47.26833" lon="6.08796">
        <ele>246.6</ele>
        <time>2019-08-17T13:16:15Z</time>
      </trkpt>
      <trkpt lat="47.26827" lon="6.08801">
        <ele>246.6</ele>
        <time>2019-08-17T13:16:16Z</time>
      </trkpt>
      <trkpt lat="47.26823" lon="6.08804">
        <ele>246.6</ele>
        <time>2019-08-17T13:16:17Z</time>
      </trkpt>
      <trkpt lat="47.26818" lon="6.08808">
        <ele>246.6</ele>
        <time>2019-08-17T13:16:18Z</time>
      </trkpt>
      <trkpt lat="47.26812" lon="6.08812">
        <ele>246.6</ele>
        <time>2019-08-17T13:16:19Z</time>
      </trkpt>
      <trkpt lat="47.26807" lon="6.08817">
        <ele>246.6</ele>
        <time>2019-08-17T13:16:20Z</time>
      </trkpt>
      <trkpt lat="47.26801" lon="6.08822">
        <ele>246.6</ele>
        <time>2019-08-17T13:16:21Z</time>
      </trkpt>
      <trkpt lat="47.26797" lon="6.08826">
        <ele>246.6</ele>
        <time>2019-08-17T13:16:22Z</time>
      </trkpt>
      <trkpt lat="47.26791" lon="6.08831">
        <ele>246.6</ele>
        <time>2019-08-17T13:16:23Z</time>
      </trkpt>
      <trkpt lat="47.26787" lon="6.08836">
        <ele>246.6</ele>
        <time>2019-08-17T13:16:24Z</time>
      </trkpt>
      <trkpt lat="47.26782" lon="6.08842">
        <ele>246.7</ele>
        <time>2019-08-17T13:16:25Z</time>
      </trkpt>
      <trkpt lat="47.26778" lon="6.08847">
        <ele>246.8</ele>
        <time>2019-08-17T13:16:26Z</time>
      </trkpt>
      <trkpt lat="47.26774" lon="6.08853">
        <ele>246.8</ele>
        <time>2019-08-17T13:16:27Z</time>
      </trkpt>
      <trkpt lat="47.26769" lon="6.08859">
        <ele>247</ele>
        <time>2019-08-17T13:16:28Z</time>
      </trkpt>
      <trkpt lat="47.26765" lon="6.08864">
        <ele>247.2</ele>
        <time>2019-08-17T13:16:29Z</time>
      </trkpt>
      <trkpt lat="47.26761" lon="6.08868">
        <ele>247.4</ele>
        <time>2019-08-17T13:16:30Z</time>
      </trkpt>
      <trkpt lat="47.26758" lon="6.08873">
        <ele>247.6</ele>
        <time>2019-08-17T13:16:31Z</time>
      </trkpt>
      <trkpt lat="47.26753" lon="6.08876">
        <ele>248.1</ele>
        <time>2019-08-17T13:16:32Z</time>
      </trkpt>
      <trkpt lat="47.26748" lon="6.0888">
        <ele>248.8</ele>
        <time>2019-08-17T13:16:33Z</time>
      </trkpt>
      <trkpt lat="47.26742" lon="6.08883">
        <ele>249.4</ele>
        <time>2019-08-17T13:16:34Z</time>
      </trkpt>
      <trkpt lat="47.26737" lon="6.08886">
        <ele>250.1</ele>
        <time>2019-08-17T13:16:35Z</time>
      </trkpt>
      <trkpt lat="47.26733" lon="6.0889">
        <ele>250.1</ele>
        <time>2019-08-17T13:16:36Z</time>
      </trkpt>
      <trkpt lat="47.26728" lon="6.08893">
        <ele>250.1</ele>
        <time>2019-08-17T13:16:37Z</time>
      </trkpt>
      <trkpt lat="47.26722" lon="6.08894">
        <ele>250.1</ele>
        <time>2019-08-17T13:16:38Z</time>
      </trkpt>
      <trkpt lat="47.26718" lon="6.08895">
        <ele>250.1</ele>
        <time>2019-08-17T13:16:39Z</time>
      </trkpt>
      <trkpt lat="47.26713" lon="6.08895">
        <ele>250.1</ele>
        <time>2019-08-17T13:16:40Z</time>
      </trkpt>
      <trkpt lat="47.26709" lon="6.08895">
        <ele>250.2</ele>
        <time>2019-08-17T13:16:41Z</time>
      </trkpt>
      <trkpt lat="47.26705" lon="6.08894">
        <ele>250.2</ele>
        <time>2019-08-17T13:16:42Z</time>
      </trkpt>
      <trkpt lat="47.26701" lon="6.08893">
        <ele>250.2</ele>
        <time>2019-08-17T13:16:43Z</time>
      </trkpt>
      <trkpt lat="47.26696" lon="6.08891">
        <ele>250.3</ele>
        <time>2019-08-17T13:16:44Z</time>
      </trkpt>
      <trkpt lat="47.26692" lon="6.0889">
        <ele>250.4</ele>
        <time>2019-08-17T13:16:45Z</time>
      </trkpt>
      <trkpt lat="47.26688" lon="6.08888">
        <ele>250.5</ele>
        <time>2019-08-17T13:16:46Z</time>
      </trkpt>
      <trkpt lat="47.26683" lon="6.08886">
        <ele>250.6</ele>
        <time>2019-08-17T13:16:47Z</time>
      </trkpt>
      <trkpt lat="47.26678" lon="6.08884">
        <ele>250.7</ele>
        <time>2019-08-17T13:16:48Z</time>
      </trkpt>
      <trkpt lat="47.26672" lon="6.08882">
        <ele>250.9</ele>
        <time>2019-08-17T13:16:49Z</time>
      </trkpt>
      <trkpt lat="47.26665" lon="6.0888">
        <ele>251</ele>
        <time>2019-08-17T13:16:50Z</time>
      </trkpt>
      <trkpt lat="47.26659" lon="6.08879">
        <ele>251.2</ele>
        <time>2019-08-17T13:16:51Z</time>
      </trkpt>
      <trkpt lat="47.26652" lon="6.08878">
        <ele>251.3</ele>
        <time>2019-08-17T13:16:52Z</time>
      </trkpt>
      <trkpt lat="47.26646" lon="6.08877">
        <ele>251.4</ele>
        <time>2019-08-17T13:16:53Z</time>
      </trkpt>
      <trkpt lat="47.2664" lon="6.08878">
        <ele>251.4</ele>
        <time>2019-08-17T13:16:54Z</time>
      </trkpt>
      <trkpt lat="47.26635" lon="6.08877">
        <ele>251.5</ele>
        <time>2019-08-17T13:16:55Z</time>
      </trkpt>
      <trkpt lat="47.26631" lon="6.08878">
        <ele>251.5</ele>
        <time>2019-08-17T13:16:56Z</time>
      </trkpt>
      <trkpt lat="47.26627" lon="6.08878">
        <ele>251.5</ele>
        <time>2019-08-17T13:16:57Z</time>
      </trkpt>
      <trkpt lat="47.26624" lon="6.08878">
        <ele>251.5</ele>
        <time>2019-08-17T13:16:58Z</time>
      </trkpt>
      <trkpt lat="47.26621" lon="6.08878">
        <ele>251.5</ele>
        <time>2019-08-17T13:16:59Z</time>
      </trkpt>
      <trkpt lat="47.26614" lon="6.08876">
        <ele>251.5</ele>
        <time>2019-08-17T13:17:01Z</time>
      </trkpt>
      <trkpt lat="47.2661" lon="6.08875">
        <ele>251.5</ele>
        <time>2019-08-17T13:17:02Z</time>
      </trkpt>
      <trkpt lat="47.26605" lon="6.08874">
        <ele>251.6</ele>
        <time>2019-08-17T13:17:03Z</time>
      </trkpt>
      <trkpt lat="47.266" lon="6.08873">
        <ele>251.7</ele>
        <time>2019-08-17T13:17:04Z</time>
      </trkpt>
      <trkpt lat="47.26595" lon="6.08872">
        <ele>251.9</ele>
        <time>2019-08-17T13:17:05Z</time>
      </trkpt>
      <trkpt lat="47.2659" lon="6.08871">
        <ele>252</ele>
        <time>2019-08-17T13:17:06Z</time>
      </trkpt>
      <trkpt lat="47.26586" lon="6.08871">
        <ele>252.1</ele>
        <time>2019-08-17T13:17:07Z</time>
      </trkpt>
      <trkpt lat="47.26581" lon="6.08869">
        <ele>252.3</ele>
        <time>2019-08-17T13:17:08Z</time>
      </trkpt>
      <trkpt lat="47.26577" lon="6.08868">
        <ele>252.4</ele>
        <time>2019-08-17T13:17:09Z</time>
      </trkpt>
      <trkpt lat="47.26571" lon="6.08867">
        <ele>252.6</ele>
        <time>2019-08-17T13:17:10Z</time>
      </trkpt>
      <trkpt lat="47.26566" lon="6.08866">
        <ele>252.8</ele>
        <time>2019-08-17T13:17:11Z</time>
      </trkpt>
      <trkpt lat="47.26561" lon="6.08864">
        <ele>252.9</ele>
        <time>2019-08-17T13:17:12Z</time>
      </trkpt>
      <trkpt lat="47.26555" lon="6.08861">
        <ele>253.1</ele>
        <time>2019-08-17T13:17:13Z</time>
      </trkpt>
      <trkpt lat="47.2655" lon="6.08858">
        <ele>253.3</ele>
        <time>2019-08-17T13:17:14Z</time>
      </trkpt>
      <trkpt lat="47.26545" lon="6.08855">
        <ele>253.4</ele>
        <time>2019-08-17T13:17:15Z</time>
      </trkpt>
      <trkpt lat="47.2654" lon="6.08852">
        <ele>253.6</ele>
        <time>2019-08-17T13:17:16Z</time>
      </trkpt>
      <trkpt lat="47.26536" lon="6.08848">
        <ele>253.8</ele>
        <time>2019-08-17T13:17:17Z</time>
      </trkpt>
      <trkpt lat="47.26531" lon="6.08845">
        <ele>253.9</ele>
        <time>2019-08-17T13:17:18Z</time>
      </trkpt>
      <trkpt lat="47.26526" lon="6.08842">
        <ele>254.1</ele>
        <time>2019-08-17T13:17:19Z</time>
      </trkpt>
      <trkpt lat="47.2652" lon="6.08838">
        <ele>254.3</ele>
        <time>2019-08-17T13:17:20Z</time>
      </trkpt>
      <trkpt lat="47.26515" lon="6.08835">
        <ele>254.5</ele>
        <time>2019-08-17T13:17:21Z</time>
      </trkpt>
      <trkpt lat="47.26511" lon="6.08832">
        <ele>254.6</ele>
        <time>2019-08-17T13:17:22Z</time>
      </trkpt>
      <trkpt lat="47.26508" lon="6.08829">
        <ele>254.7</ele>
        <time>2019-08-17T13:17:23Z</time>
      </trkpt>
      <trkpt lat="47.26505" lon="6.08826">
        <ele>254.8</ele>
        <time>2019-08-17T13:17:24Z</time>
      </trkpt>
      <trkpt lat="47.26503" lon="6.08822">
        <ele>254.9</ele>
        <time>2019-08-17T13:17:25Z</time>
      </trkpt>
      <trkpt lat="47.26501" lon="6.08819">
        <ele>255</ele>
        <time>2019-08-17T13:17:26Z</time>
      </trkpt>
      <trkpt lat="47.26498" lon="6.08815">
        <ele>255.1</ele>
        <time>2019-08-17T13:17:28Z</time>
      </trkpt>
      <trkpt lat="47.26495" lon="6.08813">
        <ele>255.2</ele>
        <time>2019-08-17T13:17:30Z</time>
      </trkpt>
      <trkpt lat="47.26491" lon="6.08811">
        <ele>255.4</ele>
        <time>2019-08-17T13:17:32Z</time>
      </trkpt>
      <trkpt lat="47.26487" lon="6.08809">
        <ele>255.5</ele>
        <time>2019-08-17T13:17:33Z</time>
      </trkpt>
      <trkpt lat="47.26484" lon="6.08807">
        <ele>255.6</ele>
        <time>2019-08-17T13:17:34Z</time>
      </trkpt>
      <trkpt lat="47.2648" lon="6.08803">
        <ele>255.8</ele>
        <time>2019-08-17T13:17:35Z</time>
      </trkpt>
      <trkpt lat="47.26476" lon="6.08799">
        <ele>255.9</ele>
        <time>2019-08-17T13:17:36Z</time>
      </trkpt>
      <trkpt lat="47.26472" lon="6.08796">
        <ele>256</ele>
        <time>2019-08-17T13:17:37Z</time>
      </trkpt>
      <trkpt lat="47.26468" lon="6.08792">
        <ele>256.2</ele>
        <time>2019-08-17T13:17:38Z</time>
      </trkpt>
      <trkpt lat="47.26463" lon="6.08787">
        <ele>256.4</ele>
        <time>2019-08-17T13:17:39Z</time>
      </trkpt>
      <trkpt lat="47.26458" lon="6.08783">
        <ele>256.6</ele>
        <time>2019-08-17T13:17:40Z</time>
      </trkpt>
      <trkpt lat="47.26454" lon="6.08778">
        <ele>256.7</ele>
        <time>2019-08-17T13:17:41Z</time>
      </trkpt>
      <trkpt lat="47.26449" lon="6.08775">
        <ele>256.9</ele>
        <time>2019-08-17T13:17:42Z</time>
      </trkpt>
      <trkpt lat="47.26445" lon="6.08774">
        <ele>257</ele>
        <time>2019-08-17T13:17:43Z</time>
      </trkpt>
      <trkpt lat="47.2644" lon="6.08771">
        <ele>257.2</ele>
        <time>2019-08-17T13:17:44Z</time>
      </trkpt>
      <trkpt lat="47.26436" lon="6.0877">
        <ele>257.3</ele>
        <time>2019-08-17T13:17:45Z</time>
      </trkpt>
      <trkpt lat="47.26432" lon="6.08768">
        <ele>257.4</ele>
        <time>2019-08-17T13:17:46Z</time>
      </trkpt>
      <trkpt lat="47.26428" lon="6.08766">
        <ele>257.6</ele>
        <time>2019-08-17T13:17:47Z</time>
      </trkpt>
      <trkpt lat="47.26423" lon="6.08764">
        <ele>257.7</ele>
        <time>2019-08-17T13:17:48Z</time>
      </trkpt>
      <trkpt lat="47.26418" lon="6.08762">
        <ele>257.9</ele>
        <time>2019-08-17T13:17:49Z</time>
      </trkpt>
      <trkpt lat="47.26415" lon="6.08758">
        <ele>258</ele>
        <time>2019-08-17T13:17:50Z</time>
      </trkpt>
      <trkpt lat="47.2641" lon="6.08755">
        <ele>258.2</ele>
        <time>2019-08-17T13:17:51Z</time>
      </trkpt>
      <trkpt lat="47.26405" lon="6.08753">
        <ele>258.3</ele>
        <time>2019-08-17T13:17:52Z</time>
      </trkpt>
      <trkpt lat="47.26399" lon="6.08751">
        <ele>258.5</ele>
        <time>2019-08-17T13:17:53Z</time>
      </trkpt>
      <trkpt lat="47.26394" lon="6.08749">
        <ele>258.7</ele>
        <time>2019-08-17T13:17:54Z</time>
      </trkpt>
      <trkpt lat="47.2639" lon="6.08747">
        <ele>258.8</ele>
        <time>2019-08-17T13:17:55Z</time>
      </trkpt>
      <trkpt lat="47.26385" lon="6.08746">
        <ele>259</ele>
        <time>2019-08-17T13:17:56Z</time>
      </trkpt>
      <trkpt lat="47.2638" lon="6.08745">
        <ele>259.1</ele>
        <time>2019-08-17T13:17:57Z</time>
      </trkpt>
      <trkpt lat="47.26375" lon="6.08744">
        <ele>259.3</ele>
        <time>2019-08-17T13:17:58Z</time>
      </trkpt>
      <trkpt lat="47.2637" lon="6.08741">
        <ele>259.5</ele>
        <time>2019-08-17T13:17:59Z</time>
      </trkpt>
      <trkpt lat="47.26365" lon="6.08738">
        <ele>259.6</ele>
        <time>2019-08-17T13:18:00Z</time>
      </trkpt>
      <trkpt lat="47.26361" lon="6.08735">
        <ele>259.8</ele>
        <time>2019-08-17T13:18:01Z</time>
      </trkpt>
      <trkpt lat="47.26356" lon="6.08731">
        <ele>259.9</ele>
        <time>2019-08-17T13:18:02Z</time>
      </trkpt>
      <trkpt lat="47.26351" lon="6.08729">
        <ele>260.1</ele>
        <time>2019-08-17T13:18:03Z</time>
      </trkpt>
      <trkpt lat="47.26346" lon="6.08727">
        <ele>260.2</ele>
        <time>2019-08-17T13:18:04Z</time>
      </trkpt>
      <trkpt lat="47.26341" lon="6.08726">
        <ele>260.4</ele>
        <time>2019-08-17T13:18:05Z</time>
      </trkpt>
      <trkpt lat="47.26336" lon="6.08722">
        <ele>260.6</ele>
        <time>2019-08-17T13:18:06Z</time>
      </trkpt>
      <trkpt lat="47.26331" lon="6.08718">
        <ele>260.7</ele>
        <time>2019-08-17T13:18:07Z</time>
      </trkpt>
      <trkpt lat="47.26327" lon="6.08716">
        <ele>260.9</ele>
        <time>2019-08-17T13:18:08Z</time>
      </trkpt>
      <trkpt lat="47.26322" lon="6.08713">
        <ele>261.1</ele>
        <time>2019-08-17T13:18:09Z</time>
      </trkpt>
      <trkpt lat="47.26317" lon="6.0871">
        <ele>261.2</ele>
        <time>2019-08-17T13:18:10Z</time>
      </trkpt>
      <trkpt lat="47.26312" lon="6.08708">
        <ele>261.4</ele>
        <time>2019-08-17T13:18:11Z</time>
      </trkpt>
      <trkpt lat="47.26308" lon="6.08705">
        <ele>261.5</ele>
        <time>2019-08-17T13:18:12Z</time>
      </trkpt>
      <trkpt lat="47.26303" lon="6.08703">
        <ele>261.7</ele>
        <time>2019-08-17T13:18:13Z</time>
      </trkpt>
      <trkpt lat="47.26299" lon="6.087">
        <ele>261.8</ele>
        <time>2019-08-17T13:18:14Z</time>
      </trkpt>
      <trkpt lat="47.26294" lon="6.08698">
        <ele>262</ele>
        <time>2019-08-17T13:18:15Z</time>
      </trkpt>
      <trkpt lat="47.26289" lon="6.08696">
        <ele>262.1</ele>
        <time>2019-08-17T13:18:16Z</time>
      </trkpt>
      <trkpt lat="47.26285" lon="6.08693">
        <ele>262.3</ele>
        <time>2019-08-17T13:18:17Z</time>
      </trkpt>
      <trkpt lat="47.2628" lon="6.08689">
        <ele>262.5</ele>
        <time>2019-08-17T13:18:18Z</time>
      </trkpt>
      <trkpt lat="47.26276" lon="6.08686">
        <ele>262.6</ele>
        <time>2019-08-17T13:18:19Z</time>
      </trkpt>
      <trkpt lat="47.26271" lon="6.08683">
        <ele>262.8</ele>
        <time>2019-08-17T13:18:20Z</time>
      </trkpt>
      <trkpt lat="47.26266" lon="6.0868">
        <ele>262.9</ele>
        <time>2019-08-17T13:18:21Z</time>
      </trkpt>
      <trkpt lat="47.26261" lon="6.08678">
        <ele>263.1</ele>
        <time>2019-08-17T13:18:22Z</time>
      </trkpt>
      <trkpt lat="47.26257" lon="6.08675">
        <ele>263.2</ele>
        <time>2019-08-17T13:18:23Z</time>
      </trkpt>
      <trkpt lat="47.26252" lon="6.08672">
        <ele>263.4</ele>
        <time>2019-08-17T13:18:24Z</time>
      </trkpt>
      <trkpt lat="47.26247" lon="6.0867">
        <ele>263.5</ele>
        <time>2019-08-17T13:18:25Z</time>
      </trkpt>
      <trkpt lat="47.26242" lon="6.08668">
        <ele>263.6</ele>
        <time>2019-08-17T13:18:26Z</time>
      </trkpt>
      <trkpt lat="47.26238" lon="6.08665">
        <ele>263.8</ele>
        <time>2019-08-17T13:18:27Z</time>
      </trkpt>
      <trkpt lat="47.26233" lon="6.08663">
        <ele>263.7</ele>
        <time>2019-08-17T13:18:28Z</time>
      </trkpt>
      <trkpt lat="47.26228" lon="6.08661">
        <ele>263.4</ele>
        <time>2019-08-17T13:18:29Z</time>
      </trkpt>
      <trkpt lat="47.26224" lon="6.08658">
        <ele>263.2</ele>
        <time>2019-08-17T13:18:30Z</time>
      </trkpt>
      <trkpt lat="47.2622" lon="6.08655">
        <ele>262.9</ele>
        <time>2019-08-17T13:18:31Z</time>
      </trkpt>
      <trkpt lat="47.26216" lon="6.08652">
        <ele>262.7</ele>
        <time>2019-08-17T13:18:32Z</time>
      </trkpt>
      <trkpt lat="47.26211" lon="6.08649">
        <ele>262.4</ele>
        <time>2019-08-17T13:18:33Z</time>
      </trkpt>
      <trkpt lat="47.26207" lon="6.08646">
        <ele>262.2</ele>
        <time>2019-08-17T13:18:34Z</time>
      </trkpt>
      <trkpt lat="47.26202" lon="6.08642">
        <ele>261.9</ele>
        <time>2019-08-17T13:18:35Z</time>
      </trkpt>
      <trkpt lat="47.26198" lon="6.08638">
        <ele>261.7</ele>
        <time>2019-08-17T13:18:36Z</time>
      </trkpt>
      <trkpt lat="47.26193" lon="6.08634">
        <ele>261.4</ele>
        <time>2019-08-17T13:18:37Z</time>
      </trkpt>
      <trkpt lat="47.26189" lon="6.08631">
        <ele>261.2</ele>
        <time>2019-08-17T13:18:38Z</time>
      </trkpt>
      <trkpt lat="47.26184" lon="6.08628">
        <ele>261</ele>
        <time>2019-08-17T13:18:39Z</time>
      </trkpt>
      <trkpt lat="47.2618" lon="6.08625">
        <ele>260.7</ele>
        <time>2019-08-17T13:18:40Z</time>
      </trkpt>
      <trkpt lat="47.26175" lon="6.08622">
        <ele>260.5</ele>
        <time>2019-08-17T13:18:41Z</time>
      </trkpt>
      <trkpt lat="47.26171" lon="6.08619">
        <ele>260.3</ele>
        <time>2019-08-17T13:18:42Z</time>
      </trkpt>
      <trkpt lat="47.26167" lon="6.08615">
        <ele>260.1</ele>
        <time>2019-08-17T13:18:43Z</time>
      </trkpt>
      <trkpt lat="47.26162" lon="6.08612">
        <ele>259.9</ele>
        <time>2019-08-17T13:18:44Z</time>
      </trkpt>
      <trkpt lat="47.26158" lon="6.08608">
        <ele>259.7</ele>
        <time>2019-08-17T13:18:45Z</time>
      </trkpt>
      <trkpt lat="47.26153" lon="6.08604">
        <ele>259.5</ele>
        <time>2019-08-17T13:18:46Z</time>
      </trkpt>
      <trkpt lat="47.26149" lon="6.086">
        <ele>259.3</ele>
        <time>2019-08-17T13:18:47Z</time>
      </trkpt>
      <trkpt lat="47.26145" lon="6.08596">
        <ele>259.1</ele>
        <time>2019-08-17T13:18:48Z</time>
      </trkpt>
      <trkpt lat="47.2614" lon="6.08592">
        <ele>258.9</ele>
        <time>2019-08-17T13:18:49Z</time>
      </trkpt>
      <trkpt lat="47.26135" lon="6.08588">
        <ele>258.6</ele>
        <time>2019-08-17T13:18:50Z</time>
      </trkpt>
      <trkpt lat="47.26131" lon="6.08585">
        <ele>258.4</ele>
        <time>2019-08-17T13:18:51Z</time>
      </trkpt>
      <trkpt lat="47.26127" lon="6.08584">
        <ele>258.3</ele>
        <time>2019-08-17T13:18:52Z</time>
      </trkpt>
      <trkpt lat="47.26122" lon="6.08582">
        <ele>258.1</ele>
        <time>2019-08-17T13:18:53Z</time>
      </trkpt>
      <trkpt lat="47.26118" lon="6.08579">
        <ele>257.9</ele>
        <time>2019-08-17T13:18:54Z</time>
      </trkpt>
      <trkpt lat="47.26114" lon="6.08576">
        <ele>257.7</ele>
        <time>2019-08-17T13:18:55Z</time>
      </trkpt>
      <trkpt lat="47.2611" lon="6.08574">
        <ele>257.5</ele>
        <time>2019-08-17T13:18:56Z</time>
      </trkpt>
      <trkpt lat="47.26105" lon="6.08572">
        <ele>257.3</ele>
        <time>2019-08-17T13:18:57Z</time>
      </trkpt>
      <trkpt lat="47.26101" lon="6.08568">
        <ele>257.1</ele>
        <time>2019-08-17T13:18:58Z</time>
      </trkpt>
      <trkpt lat="47.26097" lon="6.08565">
        <ele>256.9</ele>
        <time>2019-08-17T13:18:59Z</time>
      </trkpt>
      <trkpt lat="47.26093" lon="6.08563">
        <ele>256.7</ele>
        <time>2019-08-17T13:19:00Z</time>
      </trkpt>
      <trkpt lat="47.26089" lon="6.0856">
        <ele>256.6</ele>
        <time>2019-08-17T13:19:01Z</time>
      </trkpt>
      <trkpt lat="47.26085" lon="6.08557">
        <ele>256.4</ele>
        <time>2019-08-17T13:19:02Z</time>
      </trkpt>
      <trkpt lat="47.26081" lon="6.08554">
        <ele>256.2</ele>
        <time>2019-08-17T13:19:03Z</time>
      </trkpt>
      <trkpt lat="47.26077" lon="6.08551">
        <ele>256</ele>
        <time>2019-08-17T13:19:04Z</time>
      </trkpt>
      <trkpt lat="47.26073" lon="6.08548">
        <ele>255.8</ele>
        <time>2019-08-17T13:19:05Z</time>
      </trkpt>
      <trkpt lat="47.26068" lon="6.08545">
        <ele>255.6</ele>
        <time>2019-08-17T13:19:06Z</time>
      </trkpt>
      <trkpt lat="47.26064" lon="6.08542">
        <ele>255.4</ele>
        <time>2019-08-17T13:19:07Z</time>
      </trkpt>
      <trkpt lat="47.26059" lon="6.08538">
        <ele>255.1</ele>
        <time>2019-08-17T13:19:08Z</time>
      </trkpt>
      <trkpt lat="47.26056" lon="6.08536">
        <ele>255</ele>
        <time>2019-08-17T13:19:09Z</time>
      </trkpt>
      <trkpt lat="47.26051" lon="6.08532">
        <ele>254.7</ele>
        <time>2019-08-17T13:19:10Z</time>
      </trkpt>
      <trkpt lat="47.26046" lon="6.0853">
        <ele>254.5</ele>
        <time>2019-08-17T13:19:11Z</time>
      </trkpt>
      <trkpt lat="47.26042" lon="6.08529">
        <ele>254.3</ele>
        <time>2019-08-17T13:19:12Z</time>
      </trkpt>
      <trkpt lat="47.26038" lon="6.08527">
        <ele>254.1</ele>
        <time>2019-08-17T13:19:13Z</time>
      </trkpt>
      <trkpt lat="47.26034" lon="6.08524">
        <ele>253.9</ele>
        <time>2019-08-17T13:19:14Z</time>
      </trkpt>
      <trkpt lat="47.2603" lon="6.08522">
        <ele>253.8</ele>
        <time>2019-08-17T13:19:15Z</time>
      </trkpt>
      <trkpt lat="47.26026" lon="6.0852">
        <ele>253.6</ele>
        <time>2019-08-17T13:19:16Z</time>
      </trkpt>
      <trkpt lat="47.26021" lon="6.08518">
        <ele>253.3</ele>
        <time>2019-08-17T13:19:17Z</time>
      </trkpt>
      <trkpt lat="47.26017" lon="6.08516">
        <ele>253.1</ele>
        <time>2019-08-17T13:19:18Z</time>
      </trkpt>
      <trkpt lat="47.26013" lon="6.08514">
        <ele>253</ele>
        <time>2019-08-17T13:19:19Z</time>
      </trkpt>
      <trkpt lat="47.26009" lon="6.08511">
        <ele>252.8</ele>
        <time>2019-08-17T13:19:20Z</time>
      </trkpt>
      <trkpt lat="47.26005" lon="6.08507">
        <ele>252.5</ele>
        <time>2019-08-17T13:19:21Z</time>
      </trkpt>
      <trkpt lat="47.26" lon="6.08503">
        <ele>252.3</ele>
        <time>2019-08-17T13:19:22Z</time>
      </trkpt>
      <trkpt lat="47.25996" lon="6.085">
        <ele>252.1</ele>
        <time>2019-08-17T13:19:23Z</time>
      </trkpt>
      <trkpt lat="47.25992" lon="6.08496">
        <ele>252</ele>
        <time>2019-08-17T13:19:24Z</time>
      </trkpt>
      <trkpt lat="47.25988" lon="6.08493">
        <ele>251.8</ele>
        <time>2019-08-17T13:19:25Z</time>
      </trkpt>
      <trkpt lat="47.25984" lon="6.0849">
        <ele>251.6</ele>
        <time>2019-08-17T13:19:26Z</time>
      </trkpt>
      <trkpt lat="47.25981" lon="6.08487">
        <ele>251.5</ele>
        <time>2019-08-17T13:19:27Z</time>
      </trkpt>
      <trkpt lat="47.25977" lon="6.08484">
        <ele>251.3</ele>
        <time>2019-08-17T13:19:28Z</time>
      </trkpt>
      <trkpt lat="47.25974" lon="6.08481">
        <ele>251.2</ele>
        <time>2019-08-17T13:19:29Z</time>
      </trkpt>
      <trkpt lat="47.2597" lon="6.0848">
        <ele>251</ele>
        <time>2019-08-17T13:19:30Z</time>
      </trkpt>
      <trkpt lat="47.25966" lon="6.08479">
        <ele>250.8</ele>
        <time>2019-08-17T13:19:31Z</time>
      </trkpt>
      <trkpt lat="47.25962" lon="6.08477">
        <ele>250.7</ele>
        <time>2019-08-17T13:19:32Z</time>
      </trkpt>
      <trkpt lat="47.25958" lon="6.08475">
        <ele>250.5</ele>
        <time>2019-08-17T13:19:33Z</time>
      </trkpt>
      <trkpt lat="47.25954" lon="6.08472">
        <ele>250.3</ele>
        <time>2019-08-17T13:19:34Z</time>
      </trkpt>
      <trkpt lat="47.25949" lon="6.08469">
        <ele>250.1</ele>
        <time>2019-08-17T13:19:35Z</time>
      </trkpt>
      <trkpt lat="47.25944" lon="6.08468">
        <ele>249.9</ele>
        <time>2019-08-17T13:19:36Z</time>
      </trkpt>
      <trkpt lat="47.2594" lon="6.08466">
        <ele>249.7</ele>
        <time>2019-08-17T13:19:37Z</time>
      </trkpt>
      <trkpt lat="47.25935" lon="6.08465">
        <ele>249.5</ele>
        <time>2019-08-17T13:19:38Z</time>
      </trkpt>
      <trkpt lat="47.25931" lon="6.08464">
        <ele>249.4</ele>
        <time>2019-08-17T13:19:39Z</time>
      </trkpt>
      <trkpt lat="47.25926" lon="6.08462">
        <ele>249.2</ele>
        <time>2019-08-17T13:19:40Z</time>
      </trkpt>
      <trkpt lat="47.25921" lon="6.08459">
        <ele>249</ele>
        <time>2019-08-17T13:19:41Z</time>
      </trkpt>
      <trkpt lat="47.25916" lon="6.08457">
        <ele>248.8</ele>
        <time>2019-08-17T13:19:42Z</time>
      </trkpt>
      <trkpt lat="47.25911" lon="6.08454">
        <ele>248.6</ele>
        <time>2019-08-17T13:19:43Z</time>
      </trkpt>
      <trkpt lat="47.25906" lon="6.08452">
        <ele>248.4</ele>
        <time>2019-08-17T13:19:44Z</time>
      </trkpt>
      <trkpt lat="47.25902" lon="6.0845">
        <ele>248.2</ele>
        <time>2019-08-17T13:19:45Z</time>
      </trkpt>
      <trkpt lat="47.25897" lon="6.08448">
        <ele>248</ele>
        <time>2019-08-17T13:19:46Z</time>
      </trkpt>
      <trkpt lat="47.25892" lon="6.08446">
        <ele>247.9</ele>
        <time>2019-08-17T13:19:47Z</time>
      </trkpt>
      <trkpt lat="47.25888" lon="6.08444">
        <ele>247.7</ele>
        <time>2019-08-17T13:19:48Z</time>
      </trkpt>
      <trkpt lat="47.25883" lon="6.08442">
        <ele>247.5</ele>
        <time>2019-08-17T13:19:49Z</time>
      </trkpt>
      <trkpt lat="47.25878" lon="6.08439">
        <ele>247.3</ele>
        <time>2019-08-17T13:19:50Z</time>
      </trkpt>
      <trkpt lat="47.25874" lon="6.08437">
        <ele>247.2</ele>
        <time>2019-08-17T13:19:51Z</time>
      </trkpt>
      <trkpt lat="47.2587" lon="6.08434">
        <ele>247</ele>
        <time>2019-08-17T13:19:52Z</time>
      </trkpt>
      <trkpt lat="47.25865" lon="6.08432">
        <ele>246.8</ele>
        <time>2019-08-17T13:19:53Z</time>
      </trkpt>
      <trkpt lat="47.25861" lon="6.08429">
        <ele>246.6</ele>
        <time>2019-08-17T13:19:54Z</time>
      </trkpt>
      <trkpt lat="47.25857" lon="6.08426">
        <ele>246.5</ele>
        <time>2019-08-17T13:19:55Z</time>
      </trkpt>
      <trkpt lat="47.25853" lon="6.08422">
        <ele>246.3</ele>
        <time>2019-08-17T13:19:56Z</time>
      </trkpt>
      <trkpt lat="47.25849" lon="6.08417">
        <ele>246.1</ele>
        <time>2019-08-17T13:19:57Z</time>
      </trkpt>
      <trkpt lat="47.25845" lon="6.08413">
        <ele>246</ele>
        <time>2019-08-17T13:19:58Z</time>
      </trkpt>
      <trkpt lat="47.25841" lon="6.08409">
        <ele>245.8</ele>
        <time>2019-08-17T13:19:59Z</time>
      </trkpt>
      <trkpt lat="47.25837" lon="6.08404">
        <ele>245.6</ele>
        <time>2019-08-17T13:20:00Z</time>
      </trkpt>
      <trkpt lat="47.25833" lon="6.084">
        <ele>245.4</ele>
        <time>2019-08-17T13:20:01Z</time>
      </trkpt>
      <trkpt lat="47.25829" lon="6.08397">
        <ele>245.3</ele>
        <time>2019-08-17T13:20:02Z</time>
      </trkpt>
      <trkpt lat="47.25826" lon="6.08392">
        <ele>245.1</ele>
        <time>2019-08-17T13:20:03Z</time>
      </trkpt>
      <trkpt lat="47.25822" lon="6.08389">
        <ele>245</ele>
        <time>2019-08-17T13:20:04Z</time>
      </trkpt>
      <trkpt lat="47.25819" lon="6.08387">
        <ele>244.9</ele>
        <time>2019-08-17T13:20:05Z</time>
      </trkpt>
      <trkpt lat="47.25816" lon="6.08385">
        <ele>244.8</ele>
        <time>2019-08-17T13:20:06Z</time>
      </trkpt>
      <trkpt lat="47.25813" lon="6.08382">
        <ele>244.6</ele>
        <time>2019-08-17T13:20:07Z</time>
      </trkpt>
      <trkpt lat="47.25809" lon="6.0838">
        <ele>244.5</ele>
        <time>2019-08-17T13:20:08Z</time>
      </trkpt>
      <trkpt lat="47.25806" lon="6.08378">
        <ele>244.4</ele>
        <time>2019-08-17T13:20:09Z</time>
      </trkpt>
      <trkpt lat="47.25802" lon="6.08374">
        <ele>244.2</ele>
        <time>2019-08-17T13:20:10Z</time>
      </trkpt>
      <trkpt lat="47.25797" lon="6.08371">
        <ele>244.1</ele>
        <time>2019-08-17T13:20:11Z</time>
      </trkpt>
      <trkpt lat="47.25793" lon="6.08368">
        <ele>243.9</ele>
        <time>2019-08-17T13:20:12Z</time>
      </trkpt>
      <trkpt lat="47.25789" lon="6.08363">
        <ele>243.7</ele>
        <time>2019-08-17T13:20:13Z</time>
      </trkpt>
      <trkpt lat="47.25785" lon="6.0836">
        <ele>243.6</ele>
        <time>2019-08-17T13:20:14Z</time>
      </trkpt>
      <trkpt lat="47.25781" lon="6.08357">
        <ele>243.4</ele>
        <time>2019-08-17T13:20:15Z</time>
      </trkpt>
      <trkpt lat="47.25778" lon="6.08355">
        <ele>243.5</ele>
        <time>2019-08-17T13:20:16Z</time>
      </trkpt>
      <trkpt lat="47.25774" lon="6.08353">
        <ele>243.6</ele>
        <time>2019-08-17T13:20:17Z</time>
      </trkpt>
      <trkpt lat="47.25771" lon="6.08351">
        <ele>243.7</ele>
        <time>2019-08-17T13:20:18Z</time>
      </trkpt>
      <trkpt lat="47.25767" lon="6.08349">
        <ele>243.9</ele>
        <time>2019-08-17T13:20:19Z</time>
      </trkpt>
      <trkpt lat="47.25763" lon="6.08347">
        <ele>244</ele>
        <time>2019-08-17T13:20:20Z</time>
      </trkpt>
      <trkpt lat="47.2576" lon="6.08346">
        <ele>244.1</ele>
        <time>2019-08-17T13:20:21Z</time>
      </trkpt>
      <trkpt lat="47.25756" lon="6.08346">
        <ele>244.2</ele>
        <time>2019-08-17T13:20:22Z</time>
      </trkpt>
      <trkpt lat="47.25752" lon="6.08345">
        <ele>244.3</ele>
        <time>2019-08-17T13:20:23Z</time>
      </trkpt>
      <trkpt lat="47.25749" lon="6.08343">
        <ele>244.4</ele>
        <time>2019-08-17T13:20:24Z</time>
      </trkpt>
      <trkpt lat="47.25745" lon="6.08342">
        <ele>244.5</ele>
        <time>2019-08-17T13:20:25Z</time>
      </trkpt>
      <trkpt lat="47.25742" lon="6.0834">
        <ele>244.6</ele>
        <time>2019-08-17T13:20:26Z</time>
      </trkpt>
      <trkpt lat="47.25738" lon="6.08339">
        <ele>244.7</ele>
        <time>2019-08-17T13:20:27Z</time>
      </trkpt>
      <trkpt lat="47.25733" lon="6.08337">
        <ele>244.8</ele>
        <time>2019-08-17T13:20:28Z</time>
      </trkpt>
      <trkpt lat="47.25728" lon="6.08335">
        <ele>244.9</ele>
        <time>2019-08-17T13:20:29Z</time>
      </trkpt>
      <trkpt lat="47.25723" lon="6.08334">
        <ele>245</ele>
        <time>2019-08-17T13:20:30Z</time>
      </trkpt>
      <trkpt lat="47.2572" lon="6.08332">
        <ele>245.1</ele>
        <time>2019-08-17T13:20:31Z</time>
      </trkpt>
      <trkpt lat="47.25716" lon="6.08329">
        <ele>245.2</ele>
        <time>2019-08-17T13:20:32Z</time>
      </trkpt>
      <trkpt lat="47.25712" lon="6.08325">
        <ele>245.3</ele>
        <time>2019-08-17T13:20:33Z</time>
      </trkpt>
      <trkpt lat="47.25708" lon="6.08323">
        <ele>245.3</ele>
        <time>2019-08-17T13:20:34Z</time>
      </trkpt>
      <trkpt lat="47.25705" lon="6.08321">
        <ele>245.4</ele>
        <time>2019-08-17T13:20:35Z</time>
      </trkpt>
      <trkpt lat="47.25701" lon="6.08319">
        <ele>245.4</ele>
        <time>2019-08-17T13:20:36Z</time>
      </trkpt>
      <trkpt lat="47.25697" lon="6.08317">
        <ele>245.5</ele>
        <time>2019-08-17T13:20:37Z</time>
      </trkpt>
      <trkpt lat="47.25693" lon="6.08314">
        <ele>245.6</ele>
        <time>2019-08-17T13:20:38Z</time>
      </trkpt>
      <trkpt lat="47.25689" lon="6.08312">
        <ele>245.7</ele>
        <time>2019-08-17T13:20:39Z</time>
      </trkpt>
      <trkpt lat="47.25684" lon="6.0831">
        <ele>245.8</ele>
        <time>2019-08-17T13:20:40Z</time>
      </trkpt>
      <trkpt lat="47.2568" lon="6.08307">
        <ele>245.9</ele>
        <time>2019-08-17T13:20:41Z</time>
      </trkpt>
      <trkpt lat="47.25675" lon="6.08303">
        <ele>245.9</ele>
        <time>2019-08-17T13:20:42Z</time>
      </trkpt>
      <trkpt lat="47.25671" lon="6.08299">
        <ele>246</ele>
        <time>2019-08-17T13:20:43Z</time>
      </trkpt>
      <trkpt lat="47.25666" lon="6.08296">
        <ele>246.1</ele>
        <time>2019-08-17T13:20:44Z</time>
      </trkpt>
      <trkpt lat="47.25661" lon="6.08294">
        <ele>246.2</ele>
        <time>2019-08-17T13:20:45Z</time>
      </trkpt>
      <trkpt lat="47.25657" lon="6.08292">
        <ele>246.2</ele>
        <time>2019-08-17T13:20:46Z</time>
      </trkpt>
      <trkpt lat="47.25653" lon="6.08289">
        <ele>246.3</ele>
        <time>2019-08-17T13:20:47Z</time>
      </trkpt>
      <trkpt lat="47.25649" lon="6.08286">
        <ele>246.4</ele>
        <time>2019-08-17T13:20:48Z</time>
      </trkpt>
      <trkpt lat="47.25643" lon="6.08285">
        <ele>246.5</ele>
        <time>2019-08-17T13:20:49Z</time>
      </trkpt>
      <trkpt lat="47.25638" lon="6.08285">
        <ele>246.5</ele>
        <time>2019-08-17T13:20:50Z</time>
      </trkpt>
      <trkpt lat="47.25635" lon="6.0828">
        <ele>246.6</ele>
        <time>2019-08-17T13:20:51Z</time>
      </trkpt>
      <trkpt lat="47.25631" lon="6.08277">
        <ele>246.7</ele>
        <time>2019-08-17T13:20:52Z</time>
      </trkpt>
      <trkpt lat="47.25628" lon="6.08275">
        <ele>246.7</ele>
        <time>2019-08-17T13:20:53Z</time>
      </trkpt>
      <trkpt lat="47.25625" lon="6.08274">
        <ele>246.7</ele>
        <time>2019-08-17T13:20:54Z</time>
      </trkpt>
      <trkpt lat="47.25621" lon="6.08272">
        <ele>246.7</ele>
        <time>2019-08-17T13:20:55Z</time>
      </trkpt>
      <trkpt lat="47.25618" lon="6.0827">
        <ele>246.8</ele>
        <time>2019-08-17T13:20:56Z</time>
      </trkpt>
      <trkpt lat="47.25614" lon="6.08269">
        <ele>246.8</ele>
        <time>2019-08-17T13:20:57Z</time>
      </trkpt>
      <trkpt lat="47.2561" lon="6.08268">
        <ele>246.9</ele>
        <time>2019-08-17T13:20:58Z</time>
      </trkpt>
      <trkpt lat="47.25607" lon="6.08267">
        <ele>246.9</ele>
        <time>2019-08-17T13:20:59Z</time>
      </trkpt>
      <trkpt lat="47.25602" lon="6.08266">
        <ele>246.9</ele>
        <time>2019-08-17T13:21:00Z</time>
      </trkpt>
      <trkpt lat="47.25598" lon="6.08265">
        <ele>247</ele>
        <time>2019-08-17T13:21:01Z</time>
      </trkpt>
      <trkpt lat="47.25595" lon="6.08263">
        <ele>247</ele>
        <time>2019-08-17T13:21:02Z</time>
      </trkpt>
      <trkpt lat="47.25591" lon="6.08261">
        <ele>247</ele>
        <time>2019-08-17T13:21:03Z</time>
      </trkpt>
      <trkpt lat="47.25587" lon="6.08258">
        <ele>247.1</ele>
        <time>2019-08-17T13:21:04Z</time>
      </trkpt>
      <trkpt lat="47.25585" lon="6.08256">
        <ele>247.1</ele>
        <time>2019-08-17T13:21:05Z</time>
      </trkpt>
      <trkpt lat="47.25582" lon="6.08255">
        <ele>247.1</ele>
        <time>2019-08-17T13:21:06Z</time>
      </trkpt>
      <trkpt lat="47.25579" lon="6.08253">
        <ele>247.2</ele>
        <time>2019-08-17T13:21:07Z</time>
      </trkpt>
      <trkpt lat="47.25575" lon="6.08252">
        <ele>247.2</ele>
        <time>2019-08-17T13:21:08Z</time>
      </trkpt>
      <trkpt lat="47.25571" lon="6.08251">
        <ele>247.2</ele>
        <time>2019-08-17T13:21:09Z</time>
      </trkpt>
      <trkpt lat="47.25567" lon="6.0825">
        <ele>247.3</ele>
        <time>2019-08-17T13:21:10Z</time>
      </trkpt>
      <trkpt lat="47.25563" lon="6.08247">
        <ele>247.3</ele>
        <time>2019-08-17T13:21:11Z</time>
      </trkpt>
      <trkpt lat="47.2556" lon="6.08244">
        <ele>247.3</ele>
        <time>2019-08-17T13:21:12Z</time>
      </trkpt>
      <trkpt lat="47.25557" lon="6.08241">
        <ele>247.4</ele>
        <time>2019-08-17T13:21:13Z</time>
      </trkpt>
      <trkpt lat="47.25552" lon="6.08238">
        <ele>247.4</ele>
        <time>2019-08-17T13:21:14Z</time>
      </trkpt>
      <trkpt lat="47.25547" lon="6.08235">
        <ele>247.5</ele>
        <time>2019-08-17T13:21:15Z</time>
      </trkpt>
      <trkpt lat="47.25543" lon="6.08232">
        <ele>247.5</ele>
        <time>2019-08-17T13:21:16Z</time>
      </trkpt>
      <trkpt lat="47.25538" lon="6.08229">
        <ele>247.5</ele>
        <time>2019-08-17T13:21:17Z</time>
      </trkpt>
      <trkpt lat="47.25533" lon="6.08227">
        <ele>247.6</ele>
        <time>2019-08-17T13:21:18Z</time>
      </trkpt>
      <trkpt lat="47.25529" lon="6.08224">
        <ele>247.6</ele>
        <time>2019-08-17T13:21:19Z</time>
      </trkpt>
      <trkpt lat="47.25524" lon="6.08221">
        <ele>247.7</ele>
        <time>2019-08-17T13:21:20Z</time>
      </trkpt>
      <trkpt lat="47.2552" lon="6.08219">
        <ele>247.7</ele>
        <time>2019-08-17T13:21:21Z</time>
      </trkpt>
      <trkpt lat="47.25516" lon="6.08215">
        <ele>247.7</ele>
        <time>2019-08-17T13:21:22Z</time>
      </trkpt>
      <trkpt lat="47.25513" lon="6.08213">
        <ele>247.8</ele>
        <time>2019-08-17T13:21:23Z</time>
      </trkpt>
      <trkpt lat="47.25509" lon="6.08209">
        <ele>247.8</ele>
        <time>2019-08-17T13:21:24Z</time>
      </trkpt>
      <trkpt lat="47.25505" lon="6.08207">
        <ele>247.9</ele>
        <time>2019-08-17T13:21:25Z</time>
      </trkpt>
      <trkpt lat="47.25502" lon="6.08204">
        <ele>247.9</ele>
        <time>2019-08-17T13:21:26Z</time>
      </trkpt>
      <trkpt lat="47.25498" lon="6.082">
        <ele>247.9</ele>
        <time>2019-08-17T13:21:27Z</time>
      </trkpt>
      <trkpt lat="47.25494" lon="6.08196">
        <ele>248</ele>
        <time>2019-08-17T13:21:28Z</time>
      </trkpt>
      <trkpt lat="47.2549" lon="6.08192">
        <ele>248</ele>
        <time>2019-08-17T13:21:29Z</time>
      </trkpt>
      <trkpt lat="47.25486" lon="6.08188">
        <ele>248.1</ele>
        <time>2019-08-17T13:21:30Z</time>
      </trkpt>
      <trkpt lat="47.25481" lon="6.08183">
        <ele>248.1</ele>
        <time>2019-08-17T13:21:31Z</time>
      </trkpt>
      <trkpt lat="47.25477" lon="6.08178">
        <ele>248.2</ele>
        <time>2019-08-17T13:21:32Z</time>
      </trkpt>
      <trkpt lat="47.25472" lon="6.08173">
        <ele>248.2</ele>
        <time>2019-08-17T13:21:33Z</time>
      </trkpt>
      <trkpt lat="47.25468" lon="6.08169">
        <ele>248.3</ele>
        <time>2019-08-17T13:21:34Z</time>
      </trkpt>
      <trkpt lat="47.25464" lon="6.08164">
        <ele>248.3</ele>
        <time>2019-08-17T13:21:35Z</time>
      </trkpt>
      <trkpt lat="47.25459" lon="6.0816">
        <ele>248.4</ele>
        <time>2019-08-17T13:21:36Z</time>
      </trkpt>
      <trkpt lat="47.25455" lon="6.08157">
        <ele>248.4</ele>
        <time>2019-08-17T13:21:37Z</time>
      </trkpt>
      <trkpt lat="47.25451" lon="6.08154">
        <ele>248.5</ele>
        <time>2019-08-17T13:21:38Z</time>
      </trkpt>
      <trkpt lat="47.25447" lon="6.08152">
        <ele>248.5</ele>
        <time>2019-08-17T13:21:39Z</time>
      </trkpt>
      <trkpt lat="47.25443" lon="6.08149">
        <ele>248.6</ele>
        <time>2019-08-17T13:21:40Z</time>
      </trkpt>
      <trkpt lat="47.25438" lon="6.08147">
        <ele>248.6</ele>
        <time>2019-08-17T13:21:41Z</time>
      </trkpt>
      <trkpt lat="47.25435" lon="6.08144">
        <ele>248.7</ele>
        <time>2019-08-17T13:21:42Z</time>
      </trkpt>
      <trkpt lat="47.2543" lon="6.08142">
        <ele>248.7</ele>
        <time>2019-08-17T13:21:43Z</time>
      </trkpt>
      <trkpt lat="47.25426" lon="6.08139">
        <ele>248.8</ele>
        <time>2019-08-17T13:21:44Z</time>
      </trkpt>
      <trkpt lat="47.25421" lon="6.08136">
        <ele>248.9</ele>
        <time>2019-08-17T13:21:45Z</time>
      </trkpt>
      <trkpt lat="47.25417" lon="6.08133">
        <ele>249</ele>
        <time>2019-08-17T13:21:46Z</time>
      </trkpt>
      <trkpt lat="47.25413" lon="6.08129">
        <ele>249</ele>
        <time>2019-08-17T13:21:47Z</time>
      </trkpt>
      <trkpt lat="47.25409" lon="6.08125">
        <ele>249.1</ele>
        <time>2019-08-17T13:21:48Z</time>
      </trkpt>
      <trkpt lat="47.25404" lon="6.0812">
        <ele>249.2</ele>
        <time>2019-08-17T13:21:49Z</time>
      </trkpt>
      <trkpt lat="47.254" lon="6.08115">
        <ele>249.3</ele>
        <time>2019-08-17T13:21:50Z</time>
      </trkpt>
      <trkpt lat="47.25395" lon="6.08111">
        <ele>249.4</ele>
        <time>2019-08-17T13:21:51Z</time>
      </trkpt>
      <trkpt lat="47.25391" lon="6.08107">
        <ele>249.5</ele>
        <time>2019-08-17T13:21:52Z</time>
      </trkpt>
      <trkpt lat="47.25386" lon="6.08105">
        <ele>249.5</ele>
        <time>2019-08-17T13:21:53Z</time>
      </trkpt>
      <trkpt lat="47.25383" lon="6.08101">
        <ele>249.6</ele>
        <time>2019-08-17T13:21:54Z</time>
      </trkpt>
      <trkpt lat="47.25379" lon="6.08097">
        <ele>249.7</ele>
        <time>2019-08-17T13:21:55Z</time>
      </trkpt>
      <trkpt lat="47.25376" lon="6.08094">
        <ele>249.7</ele>
        <time>2019-08-17T13:21:56Z</time>
      </trkpt>
      <trkpt lat="47.25373" lon="6.08091">
        <ele>249.8</ele>
        <time>2019-08-17T13:21:57Z</time>
      </trkpt>
      <trkpt lat="47.2537" lon="6.08088">
        <ele>249.8</ele>
        <time>2019-08-17T13:21:58Z</time>
      </trkpt>
      <trkpt lat="47.25367" lon="6.08086">
        <ele>249.9</ele>
        <time>2019-08-17T13:21:59Z</time>
      </trkpt>
      <trkpt lat="47.25364" lon="6.08084">
        <ele>250</ele>
        <time>2019-08-17T13:22:00Z</time>
      </trkpt>
      <trkpt lat="47.25361" lon="6.08083">
        <ele>250</ele>
        <time>2019-08-17T13:22:01Z</time>
      </trkpt>
      <trkpt lat="47.25358" lon="6.08081">
        <ele>250.1</ele>
        <time>2019-08-17T13:22:02Z</time>
      </trkpt>
      <trkpt lat="47.25356" lon="6.08078">
        <ele>250.1</ele>
        <time>2019-08-17T13:22:03Z</time>
      </trkpt>
      <trkpt lat="47.25354" lon="6.08072">
        <ele>250.2</ele>
        <time>2019-08-17T13:22:04Z</time>
      </trkpt>
      <trkpt lat="47.25351" lon="6.08067">
        <ele>250.3</ele>
        <time>2019-08-17T13:22:05Z</time>
      </trkpt>
      <trkpt lat="47.25348" lon="6.08063">
        <ele>250.4</ele>
        <time>2019-08-17T13:22:06Z</time>
      </trkpt>
      <trkpt lat="47.25345" lon="6.08059">
        <ele>250.4</ele>
        <time>2019-08-17T13:22:07Z</time>
      </trkpt>
      <trkpt lat="47.25342" lon="6.08056">
        <ele>250.5</ele>
        <time>2019-08-17T13:22:08Z</time>
      </trkpt>
      <trkpt lat="47.25338" lon="6.08052">
        <ele>250.6</ele>
        <time>2019-08-17T13:22:09Z</time>
      </trkpt>
      <trkpt lat="47.25335" lon="6.08049">
        <ele>250.7</ele>
        <time>2019-08-17T13:22:10Z</time>
      </trkpt>
      <trkpt lat="47.25331" lon="6.08046">
        <ele>250.7</ele>
        <time>2019-08-17T13:22:11Z</time>
      </trkpt>
      <trkpt lat="47.25328" lon="6.08042">
        <ele>250.8</ele>
        <time>2019-08-17T13:22:12Z</time>
      </trkpt>
      <trkpt lat="47.25324" lon="6.08037">
        <ele>250.9</ele>
        <time>2019-08-17T13:22:13Z</time>
      </trkpt>
      <trkpt lat="47.2532" lon="6.08035">
        <ele>251</ele>
        <time>2019-08-17T13:22:14Z</time>
      </trkpt>
      <trkpt lat="47.25316" lon="6.08032">
        <ele>251.1</ele>
        <time>2019-08-17T13:22:15Z</time>
      </trkpt>
      <trkpt lat="47.25312" lon="6.08029">
        <ele>251.1</ele>
        <time>2019-08-17T13:22:16Z</time>
      </trkpt>
      <trkpt lat="47.25308" lon="6.08027">
        <ele>251.2</ele>
        <time>2019-08-17T13:22:17Z</time>
      </trkpt>
      <trkpt lat="47.25306" lon="6.08026">
        <ele>251.2</ele>
        <time>2019-08-17T13:22:18Z</time>
      </trkpt>
      <trkpt lat="47.25303" lon="6.08022">
        <ele>251.3</ele>
        <time>2019-08-17T13:22:19Z</time>
      </trkpt>
      <trkpt lat="47.253" lon="6.08019">
        <ele>251.4</ele>
        <time>2019-08-17T13:22:20Z</time>
      </trkpt>
      <trkpt lat="47.25298" lon="6.08015">
        <ele>251.4</ele>
        <time>2019-08-17T13:22:21Z</time>
      </trkpt>
      <trkpt lat="47.25296" lon="6.0801">
        <ele>251.4</ele>
        <time>2019-08-17T13:22:22Z</time>
      </trkpt>
      <trkpt lat="47.25296" lon="6.08005">
        <ele>251.4</ele>
        <time>2019-08-17T13:22:23Z</time>
      </trkpt>
      <trkpt lat="47.25296" lon="6.08">
        <ele>251.4</ele>
        <time>2019-08-17T13:22:24Z</time>
      </trkpt>
      <trkpt lat="47.25295" lon="6.07996">
        <ele>251.3</ele>
        <time>2019-08-17T13:22:25Z</time>
      </trkpt>
      <trkpt lat="47.25293" lon="6.07993">
        <ele>251.3</ele>
        <time>2019-08-17T13:22:27Z</time>
      </trkpt>
      <trkpt lat="47.25292" lon="6.07988">
        <ele>251.2</ele>
        <time>2019-08-17T13:22:28Z</time>
      </trkpt>
      <trkpt lat="47.2529" lon="6.07983">
        <ele>251</ele>
        <time>2019-08-17T13:22:29Z</time>
      </trkpt>
      <trkpt lat="47.2529" lon="6.07978">
        <ele>250.9</ele>
        <time>2019-08-17T13:22:30Z</time>
      </trkpt>
      <trkpt lat="47.25288" lon="6.07972">
        <ele>250.8</ele>
        <time>2019-08-17T13:22:31Z</time>
      </trkpt>
      <trkpt lat="47.25287" lon="6.07968">
        <ele>250.7</ele>
        <time>2019-08-17T13:22:32Z</time>
      </trkpt>
      <trkpt lat="47.25286" lon="6.07964">
        <ele>250.5</ele>
        <time>2019-08-17T13:22:33Z</time>
      </trkpt>
      <trkpt lat="47.25284" lon="6.07958">
        <ele>250.4</ele>
        <time>2019-08-17T13:22:34Z</time>
      </trkpt>
      <trkpt lat="47.25282" lon="6.07952">
        <ele>250.2</ele>
        <time>2019-08-17T13:22:35Z</time>
      </trkpt>
      <trkpt lat="47.2528" lon="6.07946">
        <ele>250</ele>
        <time>2019-08-17T13:22:36Z</time>
      </trkpt>
      <trkpt lat="47.25278" lon="6.0794">
        <ele>249.8</ele>
        <time>2019-08-17T13:22:37Z</time>
      </trkpt>
      <trkpt lat="47.25277" lon="6.07933">
        <ele>249.7</ele>
        <time>2019-08-17T13:22:38Z</time>
      </trkpt>
      <trkpt lat="47.25275" lon="6.07928">
        <ele>249.6</ele>
        <time>2019-08-17T13:22:39Z</time>
      </trkpt>
      <trkpt lat="47.25273" lon="6.07922">
        <ele>249.5</ele>
        <time>2019-08-17T13:22:40Z</time>
      </trkpt>
      <trkpt lat="47.25271" lon="6.07917">
        <ele>249.4</ele>
        <time>2019-08-17T13:22:41Z</time>
      </trkpt>
      <trkpt lat="47.25269" lon="6.07911">
        <ele>249.4</ele>
        <time>2019-08-17T13:22:42Z</time>
      </trkpt>
      <trkpt lat="47.25268" lon="6.07905">
        <ele>249.3</ele>
        <time>2019-08-17T13:22:43Z</time>
      </trkpt>
      <trkpt lat="47.25267" lon="6.07898">
        <ele>249.2</ele>
        <time>2019-08-17T13:22:44Z</time>
      </trkpt>
      <trkpt lat="47.25266" lon="6.07892">
        <ele>249.1</ele>
        <time>2019-08-17T13:22:45Z</time>
      </trkpt>
      <trkpt lat="47.25265" lon="6.07886">
        <ele>248.9</ele>
        <time>2019-08-17T13:22:46Z</time>
      </trkpt>
      <trkpt lat="47.25264" lon="6.0788">
        <ele>248.8</ele>
        <time>2019-08-17T13:22:47Z</time>
      </trkpt>
      <trkpt lat="47.25263" lon="6.07873">
        <ele>248.6</ele>
        <time>2019-08-17T13:22:48Z</time>
      </trkpt>
      <trkpt lat="47.25262" lon="6.07866">
        <ele>248.5</ele>
        <time>2019-08-17T13:22:49Z</time>
      </trkpt>
      <trkpt lat="47.25261" lon="6.0786">
        <ele>248.3</ele>
        <time>2019-08-17T13:22:50Z</time>
      </trkpt>
      <trkpt lat="47.2526" lon="6.07854">
        <ele>248.2</ele>
        <time>2019-08-17T13:22:51Z</time>
      </trkpt>
      <trkpt lat="47.25258" lon="6.07847">
        <ele>248</ele>
        <time>2019-08-17T13:22:52Z</time>
      </trkpt>
      <trkpt lat="47.25257" lon="6.07841">
        <ele>247.9</ele>
        <time>2019-08-17T13:22:53Z</time>
      </trkpt>
      <trkpt lat="47.25257" lon="6.07834">
        <ele>247.7</ele>
        <time>2019-08-17T13:22:54Z</time>
      </trkpt>
      <trkpt lat="47.25256" lon="6.07828">
        <ele>247.6</ele>
        <time>2019-08-17T13:22:55Z</time>
      </trkpt>
      <trkpt lat="47.25256" lon="6.0782">
        <ele>247.5</ele>
        <time>2019-08-17T13:22:56Z</time>
      </trkpt>
      <trkpt lat="47.25256" lon="6.07813">
        <ele>247.5</ele>
        <time>2019-08-17T13:22:57Z</time>
      </trkpt>
      <trkpt lat="47.25256" lon="6.07805">
        <ele>247.4</ele>
        <time>2019-08-17T13:22:58Z</time>
      </trkpt>
      <trkpt lat="47.25256" lon="6.07798">
        <ele>247.4</ele>
        <time>2019-08-17T13:22:59Z</time>
      </trkpt>
      <trkpt lat="47.25256" lon="6.07791">
        <ele>247.4</ele>
        <time>2019-08-17T13:23:00Z</time>
      </trkpt>
      <trkpt lat="47.25256" lon="6.07785">
        <ele>247.4</ele>
        <time>2019-08-17T13:23:01Z</time>
      </trkpt>
      <trkpt lat="47.25255" lon="6.07781">
        <ele>247.4</ele>
        <time>2019-08-17T13:23:02Z</time>
      </trkpt>
      <trkpt lat="47.25253" lon="6.07777">
        <ele>247.4</ele>
        <time>2019-08-17T13:23:03Z</time>
      </trkpt>
      <trkpt lat="47.25251" lon="6.07771">
        <ele>247.4</ele>
        <time>2019-08-17T13:23:04Z</time>
      </trkpt>
      <trkpt lat="47.25249" lon="6.07765">
        <ele>247.4</ele>
        <time>2019-08-17T13:23:05Z</time>
      </trkpt>
      <trkpt lat="47.25247" lon="6.07759">
        <ele>247.4</ele>
        <time>2019-08-17T13:23:06Z</time>
      </trkpt>
      <trkpt lat="47.25245" lon="6.07754">
        <ele>247.4</ele>
        <time>2019-08-17T13:23:07Z</time>
      </trkpt>
      <trkpt lat="47.25242" lon="6.07747">
        <ele>247.4</ele>
        <time>2019-08-17T13:23:08Z</time>
      </trkpt>
      <trkpt lat="47.2524" lon="6.07741">
        <ele>247.4</ele>
        <time>2019-08-17T13:23:09Z</time>
      </trkpt>
      <trkpt lat="47.25238" lon="6.07734">
        <ele>247.4</ele>
        <time>2019-08-17T13:23:10Z</time>
      </trkpt>
      <trkpt lat="47.25235" lon="6.07729">
        <ele>247.4</ele>
        <time>2019-08-17T13:23:11Z</time>
      </trkpt>
      <trkpt lat="47.25232" lon="6.07723">
        <ele>247.4</ele>
        <time>2019-08-17T13:23:12Z</time>
      </trkpt>
      <trkpt lat="47.2523" lon="6.07718">
        <ele>247.4</ele>
        <time>2019-08-17T13:23:13Z</time>
      </trkpt>
      <trkpt lat="47.25226" lon="6.07713">
        <ele>247.4</ele>
        <time>2019-08-17T13:23:14Z</time>
      </trkpt>
      <trkpt lat="47.25223" lon="6.07709">
        <ele>247.4</ele>
        <time>2019-08-17T13:23:15Z</time>
      </trkpt>
      <trkpt lat="47.2522" lon="6.07704">
        <ele>247.4</ele>
        <time>2019-08-17T13:23:16Z</time>
      </trkpt>
      <trkpt lat="47.25218" lon="6.077">
        <ele>247.4</ele>
        <time>2019-08-17T13:23:17Z</time>
      </trkpt>
      <trkpt lat="47.25216" lon="6.07695">
        <ele>247.4</ele>
        <time>2019-08-17T13:23:18Z</time>
      </trkpt>
      <trkpt lat="47.25215" lon="6.07688">
        <ele>247.4</ele>
        <time>2019-08-17T13:23:19Z</time>
      </trkpt>
      <trkpt lat="47.25214" lon="6.07682">
        <ele>247.4</ele>
        <time>2019-08-17T13:23:20Z</time>
      </trkpt>
      <trkpt lat="47.25212" lon="6.07677">
        <ele>247.4</ele>
        <time>2019-08-17T13:23:21Z</time>
      </trkpt>
      <trkpt lat="47.2521" lon="6.07671">
        <ele>247.4</ele>
        <time>2019-08-17T13:23:22Z</time>
      </trkpt>
      <trkpt lat="47.25208" lon="6.07666">
        <ele>247.4</ele>
        <time>2019-08-17T13:23:23Z</time>
      </trkpt>
      <trkpt lat="47.25205" lon="6.07661">
        <ele>247.4</ele>
        <time>2019-08-17T13:23:24Z</time>
      </trkpt>
      <trkpt lat="47.25202" lon="6.07655">
        <ele>247.4</ele>
        <time>2019-08-17T13:23:25Z</time>
      </trkpt>
      <trkpt lat="47.25199" lon="6.07651">
        <ele>247.4</ele>
        <time>2019-08-17T13:23:26Z</time>
      </trkpt>
      <trkpt lat="47.25197" lon="6.07646">
        <ele>247.4</ele>
        <time>2019-08-17T13:23:27Z</time>
      </trkpt>
      <trkpt lat="47.25194" lon="6.07642">
        <ele>247.4</ele>
        <time>2019-08-17T13:23:28Z</time>
      </trkpt>
      <trkpt lat="47.25192" lon="6.07637">
        <ele>247.3</ele>
        <time>2019-08-17T13:23:29Z</time>
      </trkpt>
      <trkpt lat="47.25189" lon="6.07633">
        <ele>247.3</ele>
        <time>2019-08-17T13:23:30Z</time>
      </trkpt>
      <trkpt lat="47.25186" lon="6.07628">
        <ele>247.3</ele>
        <time>2019-08-17T13:23:31Z</time>
      </trkpt>
      <trkpt lat="47.25183" lon="6.07623">
        <ele>247.3</ele>
        <time>2019-08-17T13:23:32Z</time>
      </trkpt>
      <trkpt lat="47.25179" lon="6.07619">
        <ele>247.3</ele>
        <time>2019-08-17T13:23:33Z</time>
      </trkpt>
      <trkpt lat="47.25176" lon="6.07614">
        <ele>247.3</ele>
        <time>2019-08-17T13:23:34Z</time>
      </trkpt>
      <trkpt lat="47.25173" lon="6.07609">
        <ele>247.3</ele>
        <time>2019-08-17T13:23:35Z</time>
      </trkpt>
      <trkpt lat="47.2517" lon="6.07604">
        <ele>247.3</ele>
        <time>2019-08-17T13:23:36Z</time>
      </trkpt>
      <trkpt lat="47.25166" lon="6.07599">
        <ele>247.3</ele>
        <time>2019-08-17T13:23:37Z</time>
      </trkpt>
      <trkpt lat="47.25163" lon="6.07595">
        <ele>247.3</ele>
        <time>2019-08-17T13:23:38Z</time>
      </trkpt>
      <trkpt lat="47.25159" lon="6.07589">
        <ele>247.2</ele>
        <time>2019-08-17T13:23:39Z</time>
      </trkpt>
      <trkpt lat="47.25156" lon="6.07584">
        <ele>247.1</ele>
        <time>2019-08-17T13:23:40Z</time>
      </trkpt>
      <trkpt lat="47.25152" lon="6.07578">
        <ele>246.9</ele>
        <time>2019-08-17T13:23:41Z</time>
      </trkpt>
      <trkpt lat="47.25148" lon="6.07572">
        <ele>246.8</ele>
        <time>2019-08-17T13:23:42Z</time>
      </trkpt>
      <trkpt lat="47.25144" lon="6.07567">
        <ele>246.6</ele>
        <time>2019-08-17T13:23:43Z</time>
      </trkpt>
      <trkpt lat="47.25141" lon="6.07562">
        <ele>246.5</ele>
        <time>2019-08-17T13:23:44Z</time>
      </trkpt>
      <trkpt lat="47.25137" lon="6.07558">
        <ele>246.4</ele>
        <time>2019-08-17T13:23:45Z</time>
      </trkpt>
      <trkpt lat="47.25133" lon="6.07553">
        <ele>246.4</ele>
        <time>2019-08-17T13:23:46Z</time>
      </trkpt>
      <trkpt lat="47.25129" lon="6.0755">
        <ele>246.3</ele>
        <time>2019-08-17T13:23:47Z</time>
      </trkpt>
      <trkpt lat="47.25125" lon="6.07545">
        <ele>246.3</ele>
        <time>2019-08-17T13:23:48Z</time>
      </trkpt>
      <trkpt lat="47.25122" lon="6.07539">
        <ele>246.2</ele>
        <time>2019-08-17T13:23:49Z</time>
      </trkpt>
      <trkpt lat="47.25118" lon="6.07534">
        <ele>246.1</ele>
        <time>2019-08-17T13:23:50Z</time>
      </trkpt>
      <trkpt lat="47.25114" lon="6.07529">
        <ele>246</ele>
        <time>2019-08-17T13:23:51Z</time>
      </trkpt>
      <trkpt lat="47.2511" lon="6.07524">
        <ele>245.8</ele>
        <time>2019-08-17T13:23:52Z</time>
      </trkpt>
      <trkpt lat="47.25105" lon="6.0752">
        <ele>245.6</ele>
        <time>2019-08-17T13:23:53Z</time>
      </trkpt>
      <trkpt lat="47.251" lon="6.07516">
        <ele>245.5</ele>
        <time>2019-08-17T13:23:54Z</time>
      </trkpt>
      <trkpt lat="47.25096" lon="6.07512">
        <ele>245.4</ele>
        <time>2019-08-17T13:23:55Z</time>
      </trkpt>
      <trkpt lat="47.25092" lon="6.07509">
        <ele>245.4</ele>
        <time>2019-08-17T13:23:56Z</time>
      </trkpt>
      <trkpt lat="47.25089" lon="6.07506">
        <ele>245.3</ele>
        <time>2019-08-17T13:23:57Z</time>
      </trkpt>
      <trkpt lat="47.25085" lon="6.07503">
        <ele>245.3</ele>
        <time>2019-08-17T13:23:58Z</time>
      </trkpt>
      <trkpt lat="47.25081" lon="6.07499">
        <ele>245.3</ele>
        <time>2019-08-17T13:23:59Z</time>
      </trkpt>
      <trkpt lat="47.25077" lon="6.07496">
        <ele>245.3</ele>
        <time>2019-08-17T13:24:00Z</time>
      </trkpt>
      <trkpt lat="47.25073" lon="6.07492">
        <ele>245.3</ele>
        <time>2019-08-17T13:24:01Z</time>
      </trkpt>
      <trkpt lat="47.25069" lon="6.07489">
        <ele>245.3</ele>
        <time>2019-08-17T13:24:02Z</time>
      </trkpt>
      <trkpt lat="47.25065" lon="6.07486">
        <ele>245.3</ele>
        <time>2019-08-17T13:24:03Z</time>
      </trkpt>
      <trkpt lat="47.25061" lon="6.07482">
        <ele>245.3</ele>
        <time>2019-08-17T13:24:04Z</time>
      </trkpt>
      <trkpt lat="47.25056" lon="6.07479">
        <ele>245.3</ele>
        <time>2019-08-17T13:24:05Z</time>
      </trkpt>
      <trkpt lat="47.25052" lon="6.07474">
        <ele>245.3</ele>
        <time>2019-08-17T13:24:06Z</time>
      </trkpt>
      <trkpt lat="47.25048" lon="6.0747">
        <ele>245.3</ele>
        <time>2019-08-17T13:24:07Z</time>
      </trkpt>
      <trkpt lat="47.25044" lon="6.07466">
        <ele>245.3</ele>
        <time>2019-08-17T13:24:08Z</time>
      </trkpt>
      <trkpt lat="47.25041" lon="6.07462">
        <ele>245.3</ele>
        <time>2019-08-17T13:24:09Z</time>
      </trkpt>
      <trkpt lat="47.25037" lon="6.07458">
        <ele>245.3</ele>
        <time>2019-08-17T13:24:10Z</time>
      </trkpt>
      <trkpt lat="47.25033" lon="6.07455">
        <ele>245.3</ele>
        <time>2019-08-17T13:24:11Z</time>
      </trkpt>
      <trkpt lat="47.2503" lon="6.07453">
        <ele>244.9</ele>
        <time>2019-08-17T13:24:12Z</time>
      </trkpt>
      <trkpt lat="47.25026" lon="6.07451">
        <ele>244.8</ele>
        <time>2019-08-17T13:24:13Z</time>
      </trkpt>
      <trkpt lat="47.25022" lon="6.07449">
        <ele>244.6</ele>
        <time>2019-08-17T13:24:14Z</time>
      </trkpt>
      <trkpt lat="47.25019" lon="6.07447">
        <ele>244.6</ele>
        <time>2019-08-17T13:24:15Z</time>
      </trkpt>
      <trkpt lat="47.25015" lon="6.07445">
        <ele>244.5</ele>
        <time>2019-08-17T13:24:16Z</time>
      </trkpt>
      <trkpt lat="47.25011" lon="6.07442">
        <ele>244.4</ele>
        <time>2019-08-17T13:24:17Z</time>
      </trkpt>
      <trkpt lat="47.25007" lon="6.07438">
        <ele>244.4</ele>
        <time>2019-08-17T13:24:18Z</time>
      </trkpt>
      <trkpt lat="47.25004" lon="6.07434">
        <ele>244.3</ele>
        <time>2019-08-17T13:24:19Z</time>
      </trkpt>
      <trkpt lat="47.25001" lon="6.07431">
        <ele>244.3</ele>
        <time>2019-08-17T13:24:20Z</time>
      </trkpt>
      <trkpt lat="47.24997" lon="6.07428">
        <ele>244.3</ele>
        <time>2019-08-17T13:24:21Z</time>
      </trkpt>
      <trkpt lat="47.24995" lon="6.07426">
        <ele>244.2</ele>
        <time>2019-08-17T13:24:22Z</time>
      </trkpt>
      <trkpt lat="47.24991" lon="6.07423">
        <ele>244.1</ele>
        <time>2019-08-17T13:24:23Z</time>
      </trkpt>
      <trkpt lat="47.24987" lon="6.0742">
        <ele>243.9</ele>
        <time>2019-08-17T13:24:24Z</time>
      </trkpt>
      <trkpt lat="47.24984" lon="6.07416">
        <ele>243.7</ele>
        <time>2019-08-17T13:24:25Z</time>
      </trkpt>
      <trkpt lat="47.24981" lon="6.07413">
        <ele>243.5</ele>
        <time>2019-08-17T13:24:26Z</time>
      </trkpt>
      <trkpt lat="47.24977" lon="6.07409">
        <ele>243.3</ele>
        <time>2019-08-17T13:24:27Z</time>
      </trkpt>
      <trkpt lat="47.24974" lon="6.07405">
        <ele>243.1</ele>
        <time>2019-08-17T13:24:28Z</time>
      </trkpt>
      <trkpt lat="47.2497" lon="6.07401">
        <ele>242.8</ele>
        <time>2019-08-17T13:24:29Z</time>
      </trkpt>
      <trkpt lat="47.24966" lon="6.07396">
        <ele>242.2</ele>
        <time>2019-08-17T13:24:30Z</time>
      </trkpt>
      <trkpt lat="47.24963" lon="6.07392">
        <ele>241.8</ele>
        <time>2019-08-17T13:24:31Z</time>
      </trkpt>
      <trkpt lat="47.24959" lon="6.07388">
        <ele>241.5</ele>
        <time>2019-08-17T13:24:32Z</time>
      </trkpt>
      <trkpt lat="47.24955" lon="6.07384">
        <ele>241.1</ele>
        <time>2019-08-17T13:24:33Z</time>
      </trkpt>
      <trkpt lat="47.24951" lon="6.0738">
        <ele>240.8</ele>
        <time>2019-08-17T13:24:34Z</time>
      </trkpt>
      <trkpt lat="47.24947" lon="6.07377">
        <ele>240.6</ele>
        <time>2019-08-17T13:24:35Z</time>
      </trkpt>
      <trkpt lat="47.24944" lon="6.07373">
        <ele>240.4</ele>
        <time>2019-08-17T13:24:36Z</time>
      </trkpt>
      <trkpt lat="47.2494" lon="6.0737">
        <ele>240.3</ele>
        <time>2019-08-17T13:24:37Z</time>
      </trkpt>
      <trkpt lat="47.24936" lon="6.07366">
        <ele>240.2</ele>
        <time>2019-08-17T13:24:38Z</time>
      </trkpt>
      <trkpt lat="47.24932" lon="6.07363">
        <ele>240.1</ele>
        <time>2019-08-17T13:24:39Z</time>
      </trkpt>
      <trkpt lat="47.24928" lon="6.07359">
        <ele>240.1</ele>
        <time>2019-08-17T13:24:40Z</time>
      </trkpt>
      <trkpt lat="47.24924" lon="6.07356">
        <ele>240.1</ele>
        <time>2019-08-17T13:24:41Z</time>
      </trkpt>
      <trkpt lat="47.2492" lon="6.07352">
        <ele>240.2</ele>
        <time>2019-08-17T13:24:42Z</time>
      </trkpt>
      <trkpt lat="47.24917" lon="6.07349">
        <ele>240.3</ele>
        <time>2019-08-17T13:24:43Z</time>
      </trkpt>
      <trkpt lat="47.24913" lon="6.07346">
        <ele>240.3</ele>
        <time>2019-08-17T13:24:44Z</time>
      </trkpt>
      <trkpt lat="47.24909" lon="6.07344">
        <ele>240.4</ele>
        <time>2019-08-17T13:24:45Z</time>
      </trkpt>
      <trkpt lat="47.24905" lon="6.0734">
        <ele>240.5</ele>
        <time>2019-08-17T13:24:46Z</time>
      </trkpt>
      <trkpt lat="47.24902" lon="6.07336">
        <ele>240.6</ele>
        <time>2019-08-17T13:24:47Z</time>
      </trkpt>
      <trkpt lat="47.24898" lon="6.07333">
        <ele>240.7</ele>
        <time>2019-08-17T13:24:48Z</time>
      </trkpt>
      <trkpt lat="47.24894" lon="6.0733">
        <ele>240.8</ele>
        <time>2019-08-17T13:24:49Z</time>
      </trkpt>
      <trkpt lat="47.2489" lon="6.07327">
        <ele>240.8</ele>
        <time>2019-08-17T13:24:50Z</time>
      </trkpt>
      <trkpt lat="47.24886" lon="6.07324">
        <ele>240.9</ele>
        <time>2019-08-17T13:24:51Z</time>
      </trkpt>
      <trkpt lat="47.24882" lon="6.07321">
        <ele>241</ele>
        <time>2019-08-17T13:24:52Z</time>
      </trkpt>
      <trkpt lat="47.24878" lon="6.07318">
        <ele>241.1</ele>
        <time>2019-08-17T13:24:53Z</time>
      </trkpt>
      <trkpt lat="47.24873" lon="6.07314">
        <ele>241.3</ele>
        <time>2019-08-17T13:24:54Z</time>
      </trkpt>
      <trkpt lat="47.2487" lon="6.07311">
        <ele>241.4</ele>
        <time>2019-08-17T13:24:55Z</time>
      </trkpt>
      <trkpt lat="47.24866" lon="6.07307">
        <ele>241.5</ele>
        <time>2019-08-17T13:24:56Z</time>
      </trkpt>
      <trkpt lat="47.24861" lon="6.07303">
        <ele>241.5</ele>
        <time>2019-08-17T13:24:57Z</time>
      </trkpt>
      <trkpt lat="47.24857" lon="6.07299">
        <ele>241.6</ele>
        <time>2019-08-17T13:24:58Z</time>
      </trkpt>
      <trkpt lat="47.24852" lon="6.07294">
        <ele>241.7</ele>
        <time>2019-08-17T13:24:59Z</time>
      </trkpt>
      <trkpt lat="47.24848" lon="6.0729">
        <ele>241.7</ele>
        <time>2019-08-17T13:25:00Z</time>
      </trkpt>
      <trkpt lat="47.24844" lon="6.07285">
        <ele>241.7</ele>
        <time>2019-08-17T13:25:01Z</time>
      </trkpt>
      <trkpt lat="47.2484" lon="6.07281">
        <ele>241.7</ele>
        <time>2019-08-17T13:25:02Z</time>
      </trkpt>
      <trkpt lat="47.24836" lon="6.07276">
        <ele>241.7</ele>
        <time>2019-08-17T13:25:03Z</time>
      </trkpt>
      <trkpt lat="47.24833" lon="6.07271">
        <ele>241.7</ele>
        <time>2019-08-17T13:25:04Z</time>
      </trkpt>
      <trkpt lat="47.24829" lon="6.07267">
        <ele>241.7</ele>
        <time>2019-08-17T13:25:05Z</time>
      </trkpt>
      <trkpt lat="47.24826" lon="6.07262">
        <ele>241.7</ele>
        <time>2019-08-17T13:25:06Z</time>
      </trkpt>
      <trkpt lat="47.24822" lon="6.07258">
        <ele>241.7</ele>
        <time>2019-08-17T13:25:07Z</time>
      </trkpt>
      <trkpt lat="47.24818" lon="6.07253">
        <ele>241.7</ele>
        <time>2019-08-17T13:25:08Z</time>
      </trkpt>
      <trkpt lat="47.24815" lon="6.07249">
        <ele>241.7</ele>
        <time>2019-08-17T13:25:09Z</time>
      </trkpt>
      <trkpt lat="47.24812" lon="6.07244">
        <ele>241.7</ele>
        <time>2019-08-17T13:25:10Z</time>
      </trkpt>
      <trkpt lat="47.24808" lon="6.07239">
        <ele>241.7</ele>
        <time>2019-08-17T13:25:11Z</time>
      </trkpt>
      <trkpt lat="47.24805" lon="6.07234">
        <ele>241.7</ele>
        <time>2019-08-17T13:25:12Z</time>
      </trkpt>
      <trkpt lat="47.24802" lon="6.0723">
        <ele>241.7</ele>
        <time>2019-08-17T13:25:13Z</time>
      </trkpt>
      <trkpt lat="47.24799" lon="6.07225">
        <ele>241.7</ele>
        <time>2019-08-17T13:25:14Z</time>
      </trkpt>
      <trkpt lat="47.24795" lon="6.0722">
        <ele>241.7</ele>
        <time>2019-08-17T13:25:15Z</time>
      </trkpt>
      <trkpt lat="47.24792" lon="6.07216">
        <ele>241.7</ele>
        <time>2019-08-17T13:25:16Z</time>
      </trkpt>
      <trkpt lat="47.24789" lon="6.07211">
        <ele>241.7</ele>
        <time>2019-08-17T13:25:17Z</time>
      </trkpt>
      <trkpt lat="47.24786" lon="6.07205">
        <ele>241.7</ele>
        <time>2019-08-17T13:25:18Z</time>
      </trkpt>
      <trkpt lat="47.24784" lon="6.07198">
        <ele>241.7</ele>
        <time>2019-08-17T13:25:19Z</time>
      </trkpt>
      <trkpt lat="47.24781" lon="6.07192">
        <ele>241.7</ele>
        <time>2019-08-17T13:25:20Z</time>
      </trkpt>
      <trkpt lat="47.24778" lon="6.07187">
        <ele>241.7</ele>
        <time>2019-08-17T13:25:21Z</time>
      </trkpt>
      <trkpt lat="47.24775" lon="6.07181">
        <ele>241.8</ele>
        <time>2019-08-17T13:25:22Z</time>
      </trkpt>
      <trkpt lat="47.24772" lon="6.07176">
        <ele>241.8</ele>
        <time>2019-08-17T13:25:23Z</time>
      </trkpt>
      <trkpt lat="47.24769" lon="6.07171">
        <ele>241.8</ele>
        <time>2019-08-17T13:25:24Z</time>
      </trkpt>
      <trkpt lat="47.24766" lon="6.07165">
        <ele>241.9</ele>
        <time>2019-08-17T13:25:25Z</time>
      </trkpt>
      <trkpt lat="47.24762" lon="6.0716">
        <ele>241.9</ele>
        <time>2019-08-17T13:25:26Z</time>
      </trkpt>
      <trkpt lat="47.24758" lon="6.07155">
        <ele>242</ele>
        <time>2019-08-17T13:25:27Z</time>
      </trkpt>
      <trkpt lat="47.24755" lon="6.07149">
        <ele>242.1</ele>
        <time>2019-08-17T13:25:28Z</time>
      </trkpt>
      <trkpt lat="47.24751" lon="6.07144">
        <ele>242.2</ele>
        <time>2019-08-17T13:25:29Z</time>
      </trkpt>
      <trkpt lat="47.24748" lon="6.07139">
        <ele>242.3</ele>
        <time>2019-08-17T13:25:30Z</time>
      </trkpt>
      <trkpt lat="47.24746" lon="6.07134">
        <ele>242.4</ele>
        <time>2019-08-17T13:25:31Z</time>
      </trkpt>
      <trkpt lat="47.24743" lon="6.07129">
        <ele>242.5</ele>
        <time>2019-08-17T13:25:32Z</time>
      </trkpt>
      <trkpt lat="47.2474" lon="6.07125">
        <ele>242.5</ele>
        <time>2019-08-17T13:25:33Z</time>
      </trkpt>
      <trkpt lat="47.24737" lon="6.07119">
        <ele>242.6</ele>
        <time>2019-08-17T13:25:34Z</time>
      </trkpt>
      <trkpt lat="47.24733" lon="6.07115">
        <ele>242.6</ele>
        <time>2019-08-17T13:25:35Z</time>
      </trkpt>
      <trkpt lat="47.24731" lon="6.0711">
        <ele>242.6</ele>
        <time>2019-08-17T13:25:36Z</time>
      </trkpt>
      <trkpt lat="47.24728" lon="6.07107">
        <ele>242.6</ele>
        <time>2019-08-17T13:25:37Z</time>
      </trkpt>
      <trkpt lat="47.24725" lon="6.07102">
        <ele>242.6</ele>
        <time>2019-08-17T13:25:38Z</time>
      </trkpt>
      <trkpt lat="47.24722" lon="6.07097">
        <ele>242.7</ele>
        <time>2019-08-17T13:25:39Z</time>
      </trkpt>
      <trkpt lat="47.24719" lon="6.07092">
        <ele>242.7</ele>
        <time>2019-08-17T13:25:40Z</time>
      </trkpt>
      <trkpt lat="47.24715" lon="6.07087">
        <ele>242.7</ele>
        <time>2019-08-17T13:25:41Z</time>
      </trkpt>
      <trkpt lat="47.24713" lon="6.07082">
        <ele>242.7</ele>
        <time>2019-08-17T13:25:42Z</time>
      </trkpt>
      <trkpt lat="47.2471" lon="6.07076">
        <ele>242.7</ele>
        <time>2019-08-17T13:25:43Z</time>
      </trkpt>
      <trkpt lat="47.24706" lon="6.07072">
        <ele>242.7</ele>
        <time>2019-08-17T13:25:44Z</time>
      </trkpt>
      <trkpt lat="47.24703" lon="6.07067">
        <ele>242.7</ele>
        <time>2019-08-17T13:25:45Z</time>
      </trkpt>
      <trkpt lat="47.24699" lon="6.07062">
        <ele>242.7</ele>
        <time>2019-08-17T13:25:46Z</time>
      </trkpt>
      <trkpt lat="47.24696" lon="6.07057">
        <ele>242.7</ele>
        <time>2019-08-17T13:25:47Z</time>
      </trkpt>
      <trkpt lat="47.24693" lon="6.07052">
        <ele>242.7</ele>
        <time>2019-08-17T13:25:48Z</time>
      </trkpt>
      <trkpt lat="47.24689" lon="6.07048">
        <ele>242.7</ele>
        <time>2019-08-17T13:25:49Z</time>
      </trkpt>
      <trkpt lat="47.24686" lon="6.07043">
        <ele>242.7</ele>
        <time>2019-08-17T13:25:50Z</time>
      </trkpt>
      <trkpt lat="47.24683" lon="6.07039">
        <ele>242.6</ele>
        <time>2019-08-17T13:25:51Z</time>
      </trkpt>
      <trkpt lat="47.24679" lon="6.07035">
        <ele>242.6</ele>
        <time>2019-08-17T13:25:52Z</time>
      </trkpt>
      <trkpt lat="47.24676" lon="6.0703">
        <ele>242.6</ele>
        <time>2019-08-17T13:25:53Z</time>
      </trkpt>
      <trkpt lat="47.24672" lon="6.07025">
        <ele>242.6</ele>
        <time>2019-08-17T13:25:54Z</time>
      </trkpt>
      <trkpt lat="47.24669" lon="6.0702">
        <ele>242.6</ele>
        <time>2019-08-17T13:25:55Z</time>
      </trkpt>
      <trkpt lat="47.24665" lon="6.07014">
        <ele>242.6</ele>
        <time>2019-08-17T13:25:56Z</time>
      </trkpt>
      <trkpt lat="47.24662" lon="6.0701">
        <ele>242.6</ele>
        <time>2019-08-17T13:25:57Z</time>
      </trkpt>
      <trkpt lat="47.24658" lon="6.07005">
        <ele>242.6</ele>
        <time>2019-08-17T13:25:58Z</time>
      </trkpt>
      <trkpt lat="47.24655" lon="6.07">
        <ele>242.6</ele>
        <time>2019-08-17T13:25:59Z</time>
      </trkpt>
      <trkpt lat="47.24651" lon="6.06996">
        <ele>242.6</ele>
        <time>2019-08-17T13:26:00Z</time>
      </trkpt>
      <trkpt lat="47.24648" lon="6.06991">
        <ele>242.6</ele>
        <time>2019-08-17T13:26:01Z</time>
      </trkpt>
      <trkpt lat="47.24644" lon="6.06986">
        <ele>242.6</ele>
        <time>2019-08-17T13:26:02Z</time>
      </trkpt>
      <trkpt lat="47.24641" lon="6.06982">
        <ele>242.6</ele>
        <time>2019-08-17T13:26:03Z</time>
      </trkpt>
      <trkpt lat="47.24637" lon="6.06978">
        <ele>242.6</ele>
        <time>2019-08-17T13:26:04Z</time>
      </trkpt>
      <trkpt lat="47.24634" lon="6.06974">
        <ele>242.6</ele>
        <time>2019-08-17T13:26:05Z</time>
      </trkpt>
      <trkpt lat="47.24632" lon="6.0697">
        <ele>242.6</ele>
        <time>2019-08-17T13:26:06Z</time>
      </trkpt>
      <trkpt lat="47.24629" lon="6.06966">
        <ele>242.6</ele>
        <time>2019-08-17T13:26:07Z</time>
      </trkpt>
      <trkpt lat="47.24627" lon="6.06961">
        <ele>242.6</ele>
        <time>2019-08-17T13:26:08Z</time>
      </trkpt>
      <trkpt lat="47.24625" lon="6.06957">
        <ele>242.6</ele>
        <time>2019-08-17T13:26:09Z</time>
      </trkpt>
      <trkpt lat="47.24623" lon="6.06953">
        <ele>242.6</ele>
        <time>2019-08-17T13:26:10Z</time>
      </trkpt>
      <trkpt lat="47.24621" lon="6.06949">
        <ele>242.6</ele>
        <time>2019-08-17T13:26:11Z</time>
      </trkpt>
      <trkpt lat="47.24617" lon="6.06943">
        <ele>242.6</ele>
        <time>2019-08-17T13:26:13Z</time>
      </trkpt>
      <trkpt lat="47.24615" lon="6.0694">
        <ele>242.6</ele>
        <time>2019-08-17T13:26:14Z</time>
      </trkpt>
      <trkpt lat="47.24612" lon="6.06937">
        <ele>242.6</ele>
        <time>2019-08-17T13:26:15Z</time>
      </trkpt>
      <trkpt lat="47.24609" lon="6.06933">
        <ele>242.6</ele>
        <time>2019-08-17T13:26:16Z</time>
      </trkpt>
      <trkpt lat="47.24607" lon="6.06929">
        <ele>242.6</ele>
        <time>2019-08-17T13:26:17Z</time>
      </trkpt>
      <trkpt lat="47.24604" lon="6.06925">
        <ele>242.6</ele>
        <time>2019-08-17T13:26:18Z</time>
      </trkpt>
      <trkpt lat="47.24601" lon="6.06921">
        <ele>242.6</ele>
        <time>2019-08-17T13:26:19Z</time>
      </trkpt>
      <trkpt lat="47.24599" lon="6.06917">
        <ele>242.6</ele>
        <time>2019-08-17T13:26:20Z</time>
      </trkpt>
      <trkpt lat="47.24596" lon="6.06915">
        <ele>242.6</ele>
        <time>2019-08-17T13:26:21Z</time>
      </trkpt>
      <trkpt lat="47.24594" lon="6.06912">
        <ele>242.6</ele>
        <time>2019-08-17T13:26:22Z</time>
      </trkpt>
      <trkpt lat="47.24592" lon="6.06909">
        <ele>242.6</ele>
        <time>2019-08-17T13:26:23Z</time>
      </trkpt>
      <trkpt lat="47.24589" lon="6.06905">
        <ele>242.6</ele>
        <time>2019-08-17T13:26:24Z</time>
      </trkpt>
      <trkpt lat="47.24585" lon="6.06901">
        <ele>242.6</ele>
        <time>2019-08-17T13:26:25Z</time>
      </trkpt>
      <trkpt lat="47.24582" lon="6.06898">
        <ele>242.6</ele>
        <time>2019-08-17T13:26:26Z</time>
      </trkpt>
      <trkpt lat="47.24578" lon="6.06895">
        <ele>242.6</ele>
        <time>2019-08-17T13:26:27Z</time>
      </trkpt>
      <trkpt lat="47.24575" lon="6.06892">
        <ele>242.6</ele>
        <time>2019-08-17T13:26:28Z</time>
      </trkpt>
      <trkpt lat="47.24572" lon="6.06889">
        <ele>242.6</ele>
        <time>2019-08-17T13:26:29Z</time>
      </trkpt>
      <trkpt lat="47.24569" lon="6.06886">
        <ele>242.6</ele>
        <time>2019-08-17T13:26:30Z</time>
      </trkpt>
      <trkpt lat="47.24566" lon="6.06883">
        <ele>242.6</ele>
        <time>2019-08-17T13:26:31Z</time>
      </trkpt>
      <trkpt lat="47.24562" lon="6.06879">
        <ele>242.6</ele>
        <time>2019-08-17T13:26:32Z</time>
      </trkpt>
      <trkpt lat="47.24559" lon="6.06876">
        <ele>242.6</ele>
        <time>2019-08-17T13:26:33Z</time>
      </trkpt>
      <trkpt lat="47.24556" lon="6.06873">
        <ele>242.6</ele>
        <time>2019-08-17T13:26:34Z</time>
      </trkpt>
      <trkpt lat="47.24553" lon="6.0687">
        <ele>242.6</ele>
        <time>2019-08-17T13:26:35Z</time>
      </trkpt>
      <trkpt lat="47.24549" lon="6.06866">
        <ele>242.6</ele>
        <time>2019-08-17T13:26:36Z</time>
      </trkpt>
      <trkpt lat="47.24546" lon="6.06863">
        <ele>242.6</ele>
        <time>2019-08-17T13:26:37Z</time>
      </trkpt>
      <trkpt lat="47.24543" lon="6.0686">
        <ele>242.6</ele>
        <time>2019-08-17T13:26:38Z</time>
      </trkpt>
      <trkpt lat="47.24539" lon="6.06857">
        <ele>242.6</ele>
        <time>2019-08-17T13:26:39Z</time>
      </trkpt>
      <trkpt lat="47.24535" lon="6.06852">
        <ele>242.6</ele>
        <time>2019-08-17T13:26:40Z</time>
      </trkpt>
      <trkpt lat="47.24531" lon="6.06848">
        <ele>242.6</ele>
        <time>2019-08-17T13:26:41Z</time>
      </trkpt>
      <trkpt lat="47.24527" lon="6.06846">
        <ele>242.6</ele>
        <time>2019-08-17T13:26:42Z</time>
      </trkpt>
      <trkpt lat="47.24523" lon="6.06844">
        <ele>242.6</ele>
        <time>2019-08-17T13:26:43Z</time>
      </trkpt>
      <trkpt lat="47.24519" lon="6.06842">
        <ele>242.6</ele>
        <time>2019-08-17T13:26:44Z</time>
      </trkpt>
      <trkpt lat="47.24515" lon="6.06841">
        <ele>242.6</ele>
        <time>2019-08-17T13:26:45Z</time>
      </trkpt>
      <trkpt lat="47.24512" lon="6.06838">
        <ele>242.5</ele>
        <time>2019-08-17T13:26:46Z</time>
      </trkpt>
      <trkpt lat="47.24508" lon="6.06835">
        <ele>242.5</ele>
        <time>2019-08-17T13:26:47Z</time>
      </trkpt>
      <trkpt lat="47.24504" lon="6.06832">
        <ele>242.5</ele>
        <time>2019-08-17T13:26:48Z</time>
      </trkpt>
      <trkpt lat="47.245" lon="6.06829">
        <ele>242.5</ele>
        <time>2019-08-17T13:26:49Z</time>
      </trkpt>
      <trkpt lat="47.24496" lon="6.06828">
        <ele>242.5</ele>
        <time>2019-08-17T13:26:50Z</time>
      </trkpt>
      <trkpt lat="47.24491" lon="6.06827">
        <ele>242.5</ele>
        <time>2019-08-17T13:26:51Z</time>
      </trkpt>
      <trkpt lat="47.24487" lon="6.06826">
        <ele>242.5</ele>
        <time>2019-08-17T13:26:52Z</time>
      </trkpt>
      <trkpt lat="47.24483" lon="6.06824">
        <ele>242.5</ele>
        <time>2019-08-17T13:26:53Z</time>
      </trkpt>
      <trkpt lat="47.24479" lon="6.06823">
        <ele>242.5</ele>
        <time>2019-08-17T13:26:54Z</time>
      </trkpt>
      <trkpt lat="47.24475" lon="6.06822">
        <ele>242.5</ele>
        <time>2019-08-17T13:26:55Z</time>
      </trkpt>
      <trkpt lat="47.24471" lon="6.0682">
        <ele>242.5</ele>
        <time>2019-08-17T13:26:56Z</time>
      </trkpt>
      <trkpt lat="47.24467" lon="6.06819">
        <ele>242.5</ele>
        <time>2019-08-17T13:26:57Z</time>
      </trkpt>
      <trkpt lat="47.24463" lon="6.06817">
        <ele>242.5</ele>
        <time>2019-08-17T13:26:58Z</time>
      </trkpt>
      <trkpt lat="47.24459" lon="6.06816">
        <ele>242.5</ele>
        <time>2019-08-17T13:26:59Z</time>
      </trkpt>
      <trkpt lat="47.24455" lon="6.06816">
        <ele>242.5</ele>
        <time>2019-08-17T13:27:00Z</time>
      </trkpt>
      <trkpt lat="47.24451" lon="6.06814">
        <ele>242.5</ele>
        <time>2019-08-17T13:27:01Z</time>
      </trkpt>
      <trkpt lat="47.24446" lon="6.06813">
        <ele>242.5</ele>
        <time>2019-08-17T13:27:02Z</time>
      </trkpt>
      <trkpt lat="47.24442" lon="6.06811">
        <ele>242.5</ele>
        <time>2019-08-17T13:27:03Z</time>
      </trkpt>
      <trkpt lat="47.24437" lon="6.06809">
        <ele>242.5</ele>
        <time>2019-08-17T13:27:04Z</time>
      </trkpt>
      <trkpt lat="47.24433" lon="6.06807">
        <ele>242.5</ele>
        <time>2019-08-17T13:27:05Z</time>
      </trkpt>
      <trkpt lat="47.24429" lon="6.06805">
        <ele>242.5</ele>
        <time>2019-08-17T13:27:06Z</time>
      </trkpt>
      <trkpt lat="47.24425" lon="6.06804">
        <ele>242.5</ele>
        <time>2019-08-17T13:27:07Z</time>
      </trkpt>
      <trkpt lat="47.24421" lon="6.06802">
        <ele>242.5</ele>
        <time>2019-08-17T13:27:08Z</time>
      </trkpt>
      <trkpt lat="47.24416" lon="6.068">
        <ele>242.5</ele>
        <time>2019-08-17T13:27:09Z</time>
      </trkpt>
      <trkpt lat="47.24412" lon="6.06798">
        <ele>242.5</ele>
        <time>2019-08-17T13:27:10Z</time>
      </trkpt>
      <trkpt lat="47.24408" lon="6.06794">
        <ele>242.5</ele>
        <time>2019-08-17T13:27:11Z</time>
      </trkpt>
      <trkpt lat="47.24404" lon="6.06792">
        <ele>242.5</ele>
        <time>2019-08-17T13:27:12Z</time>
      </trkpt>
      <trkpt lat="47.244" lon="6.0679">
        <ele>242.5</ele>
        <time>2019-08-17T13:27:13Z</time>
      </trkpt>
      <trkpt lat="47.24397" lon="6.06788">
        <ele>242.5</ele>
        <time>2019-08-17T13:27:14Z</time>
      </trkpt>
      <trkpt lat="47.24394" lon="6.06787">
        <ele>242.5</ele>
        <time>2019-08-17T13:27:15Z</time>
      </trkpt>
      <trkpt lat="47.2439" lon="6.06785">
        <ele>242.5</ele>
        <time>2019-08-17T13:27:16Z</time>
      </trkpt>
      <trkpt lat="47.24385" lon="6.06783">
        <ele>242.5</ele>
        <time>2019-08-17T13:27:17Z</time>
      </trkpt>
      <trkpt lat="47.24381" lon="6.06781">
        <ele>242.5</ele>
        <time>2019-08-17T13:27:18Z</time>
      </trkpt>
      <trkpt lat="47.24375" lon="6.06779">
        <ele>242.5</ele>
        <time>2019-08-17T13:27:19Z</time>
      </trkpt>
      <trkpt lat="47.2437" lon="6.06777">
        <ele>242.5</ele>
        <time>2019-08-17T13:27:20Z</time>
      </trkpt>
      <trkpt lat="47.24365" lon="6.06777">
        <ele>242.5</ele>
        <time>2019-08-17T13:27:21Z</time>
      </trkpt>
      <trkpt lat="47.24361" lon="6.06776">
        <ele>242.5</ele>
        <time>2019-08-17T13:27:22Z</time>
      </trkpt>
      <trkpt lat="47.24357" lon="6.06775">
        <ele>242.5</ele>
        <time>2019-08-17T13:27:23Z</time>
      </trkpt>
      <trkpt lat="47.24354" lon="6.06774">
        <ele>242.5</ele>
        <time>2019-08-17T13:27:24Z</time>
      </trkpt>
      <trkpt lat="47.2435" lon="6.06773">
        <ele>242.5</ele>
        <time>2019-08-17T13:27:25Z</time>
      </trkpt>
      <trkpt lat="47.24345" lon="6.06771">
        <ele>242.5</ele>
        <time>2019-08-17T13:27:26Z</time>
      </trkpt>
      <trkpt lat="47.24342" lon="6.06769">
        <ele>242.5</ele>
        <time>2019-08-17T13:27:27Z</time>
      </trkpt>
      <trkpt lat="47.24337" lon="6.06767">
        <ele>242.5</ele>
        <time>2019-08-17T13:27:28Z</time>
      </trkpt>
      <trkpt lat="47.24332" lon="6.06766">
        <ele>242.5</ele>
        <time>2019-08-17T13:27:29Z</time>
      </trkpt>
      <trkpt lat="47.24328" lon="6.06764">
        <ele>242.5</ele>
        <time>2019-08-17T13:27:30Z</time>
      </trkpt>
      <trkpt lat="47.24324" lon="6.06764">
        <ele>242.5</ele>
        <time>2019-08-17T13:27:31Z</time>
      </trkpt>
      <trkpt lat="47.2432" lon="6.06764">
        <ele>242.5</ele>
        <time>2019-08-17T13:27:32Z</time>
      </trkpt>
      <trkpt lat="47.24316" lon="6.06763">
        <ele>242.5</ele>
        <time>2019-08-17T13:27:33Z</time>
      </trkpt>
      <trkpt lat="47.2431" lon="6.06762">
        <ele>242.5</ele>
        <time>2019-08-17T13:27:34Z</time>
      </trkpt>
      <trkpt lat="47.24306" lon="6.06761">
        <ele>242.5</ele>
        <time>2019-08-17T13:27:35Z</time>
      </trkpt>
      <trkpt lat="47.24302" lon="6.0676">
        <ele>242.5</ele>
        <time>2019-08-17T13:27:36Z</time>
      </trkpt>
      <trkpt lat="47.24298" lon="6.06758">
        <ele>242.4</ele>
        <time>2019-08-17T13:27:37Z</time>
      </trkpt>
      <trkpt lat="47.24294" lon="6.06758">
        <ele>242.4</ele>
        <time>2019-08-17T13:27:38Z</time>
      </trkpt>
      <trkpt lat="47.24289" lon="6.06756">
        <ele>242.4</ele>
        <time>2019-08-17T13:27:39Z</time>
      </trkpt>
      <trkpt lat="47.24284" lon="6.06754">
        <ele>242.4</ele>
        <time>2019-08-17T13:27:40Z</time>
      </trkpt>
      <trkpt lat="47.2428" lon="6.06753">
        <ele>242.4</ele>
        <time>2019-08-17T13:27:41Z</time>
      </trkpt>
      <trkpt lat="47.24277" lon="6.0675">
        <ele>242.4</ele>
        <time>2019-08-17T13:27:42Z</time>
      </trkpt>
      <trkpt lat="47.24273" lon="6.06748">
        <ele>242.4</ele>
        <time>2019-08-17T13:27:43Z</time>
      </trkpt>
      <trkpt lat="47.24269" lon="6.06746">
        <ele>242.4</ele>
        <time>2019-08-17T13:27:44Z</time>
      </trkpt>
      <trkpt lat="47.24265" lon="6.06745">
        <ele>242.4</ele>
        <time>2019-08-17T13:27:45Z</time>
      </trkpt>
      <trkpt lat="47.24261" lon="6.06744">
        <ele>242.4</ele>
        <time>2019-08-17T13:27:46Z</time>
      </trkpt>
      <trkpt lat="47.24257" lon="6.06743">
        <ele>242.4</ele>
        <time>2019-08-17T13:27:47Z</time>
      </trkpt>
      <trkpt lat="47.24254" lon="6.06742">
        <ele>242.4</ele>
        <time>2019-08-17T13:27:48Z</time>
      </trkpt>
      <trkpt lat="47.2425" lon="6.06741">
        <ele>242.4</ele>
        <time>2019-08-17T13:27:49Z</time>
      </trkpt>
      <trkpt lat="47.24245" lon="6.06738">
        <ele>242.4</ele>
        <time>2019-08-17T13:27:50Z</time>
      </trkpt>
      <trkpt lat="47.2424" lon="6.06736">
        <ele>242.4</ele>
        <time>2019-08-17T13:27:51Z</time>
      </trkpt>
      <trkpt lat="47.24236" lon="6.06735">
        <ele>242.4</ele>
        <time>2019-08-17T13:27:52Z</time>
      </trkpt>
      <trkpt lat="47.24231" lon="6.06733">
        <ele>242.4</ele>
        <time>2019-08-17T13:27:53Z</time>
      </trkpt>
      <trkpt lat="47.24227" lon="6.06732">
        <ele>242.4</ele>
        <time>2019-08-17T13:27:54Z</time>
      </trkpt>
      <trkpt lat="47.24223" lon="6.06731">
        <ele>242.4</ele>
        <time>2019-08-17T13:27:55Z</time>
      </trkpt>
      <trkpt lat="47.24219" lon="6.06729">
        <ele>242.4</ele>
        <time>2019-08-17T13:27:56Z</time>
      </trkpt>
      <trkpt lat="47.24215" lon="6.06726">
        <ele>242.4</ele>
        <time>2019-08-17T13:27:57Z</time>
      </trkpt>
      <trkpt lat="47.24211" lon="6.06724">
        <ele>242.4</ele>
        <time>2019-08-17T13:27:58Z</time>
      </trkpt>
      <trkpt lat="47.24207" lon="6.06722">
        <ele>242.4</ele>
        <time>2019-08-17T13:27:59Z</time>
      </trkpt>
      <trkpt lat="47.24203" lon="6.06719">
        <ele>242.4</ele>
        <time>2019-08-17T13:28:00Z</time>
      </trkpt>
      <trkpt lat="47.24199" lon="6.06716">
        <ele>242.4</ele>
        <time>2019-08-17T13:28:01Z</time>
      </trkpt>
      <trkpt lat="47.24195" lon="6.06713">
        <ele>242.4</ele>
        <time>2019-08-17T13:28:02Z</time>
      </trkpt>
      <trkpt lat="47.24191" lon="6.0671">
        <ele>242.4</ele>
        <time>2019-08-17T13:28:03Z</time>
      </trkpt>
      <trkpt lat="47.24187" lon="6.06707">
        <ele>242.4</ele>
        <time>2019-08-17T13:28:04Z</time>
      </trkpt>
      <trkpt lat="47.24183" lon="6.06705">
        <ele>242.4</ele>
        <time>2019-08-17T13:28:05Z</time>
      </trkpt>
      <trkpt lat="47.2418" lon="6.06704">
        <ele>242.4</ele>
        <time>2019-08-17T13:28:06Z</time>
      </trkpt>
      <trkpt lat="47.24176" lon="6.06701">
        <ele>242.4</ele>
        <time>2019-08-17T13:28:07Z</time>
      </trkpt>
      <trkpt lat="47.24172" lon="6.067">
        <ele>242.4</ele>
        <time>2019-08-17T13:28:08Z</time>
      </trkpt>
      <trkpt lat="47.24169" lon="6.06696">
        <ele>242.4</ele>
        <time>2019-08-17T13:28:09Z</time>
      </trkpt>
      <trkpt lat="47.24166" lon="6.06693">
        <ele>242.4</ele>
        <time>2019-08-17T13:28:10Z</time>
      </trkpt>
      <trkpt lat="47.24163" lon="6.06688">
        <ele>242.4</ele>
        <time>2019-08-17T13:28:11Z</time>
      </trkpt>
      <trkpt lat="47.2416" lon="6.06683">
        <ele>242.4</ele>
        <time>2019-08-17T13:28:12Z</time>
      </trkpt>
      <trkpt lat="47.24158" lon="6.06678">
        <ele>242.4</ele>
        <time>2019-08-17T13:28:13Z</time>
      </trkpt>
      <trkpt lat="47.24156" lon="6.06672">
        <ele>242.4</ele>
        <time>2019-08-17T13:28:14Z</time>
      </trkpt>
      <trkpt lat="47.24153" lon="6.06668">
        <ele>242.4</ele>
        <time>2019-08-17T13:28:15Z</time>
      </trkpt>
      <trkpt lat="47.2415" lon="6.06663">
        <ele>242.4</ele>
        <time>2019-08-17T13:28:16Z</time>
      </trkpt>
      <trkpt lat="47.24147" lon="6.06658">
        <ele>242.4</ele>
        <time>2019-08-17T13:28:17Z</time>
      </trkpt>
      <trkpt lat="47.24144" lon="6.06653">
        <ele>242.3</ele>
        <time>2019-08-17T13:28:18Z</time>
      </trkpt>
      <trkpt lat="47.2414" lon="6.06648">
        <ele>242.3</ele>
        <time>2019-08-17T13:28:19Z</time>
      </trkpt>
      <trkpt lat="47.24136" lon="6.06644">
        <ele>242.3</ele>
        <time>2019-08-17T13:28:20Z</time>
      </trkpt>
      <trkpt lat="47.24132" lon="6.0664">
        <ele>242.3</ele>
        <time>2019-08-17T13:28:21Z</time>
      </trkpt>
      <trkpt lat="47.24129" lon="6.06636">
        <ele>242.2</ele>
        <time>2019-08-17T13:28:22Z</time>
      </trkpt>
      <trkpt lat="47.24124" lon="6.06633">
        <ele>242.2</ele>
        <time>2019-08-17T13:28:23Z</time>
      </trkpt>
      <trkpt lat="47.2412" lon="6.0663">
        <ele>242.1</ele>
        <time>2019-08-17T13:28:24Z</time>
      </trkpt>
      <trkpt lat="47.24116" lon="6.06626">
        <ele>242</ele>
        <time>2019-08-17T13:28:25Z</time>
      </trkpt>
      <trkpt lat="47.24113" lon="6.06623">
        <ele>242</ele>
        <time>2019-08-17T13:28:26Z</time>
      </trkpt>
      <trkpt lat="47.24109" lon="6.06619">
        <ele>241.9</ele>
        <time>2019-08-17T13:28:27Z</time>
      </trkpt>
      <trkpt lat="47.24106" lon="6.06615">
        <ele>241.7</ele>
        <time>2019-08-17T13:28:28Z</time>
      </trkpt>
      <trkpt lat="47.24102" lon="6.0661">
        <ele>241.6</ele>
        <time>2019-08-17T13:28:29Z</time>
      </trkpt>
      <trkpt lat="47.24098" lon="6.06606">
        <ele>241.4</ele>
        <time>2019-08-17T13:28:30Z</time>
      </trkpt>
      <trkpt lat="47.24094" lon="6.06602">
        <ele>241.3</ele>
        <time>2019-08-17T13:28:31Z</time>
      </trkpt>
      <trkpt lat="47.24091" lon="6.06597">
        <ele>241.1</ele>
        <time>2019-08-17T13:28:32Z</time>
      </trkpt>
      <trkpt lat="47.24087" lon="6.06592">
        <ele>240.9</ele>
        <time>2019-08-17T13:28:33Z</time>
      </trkpt>
      <trkpt lat="47.24082" lon="6.06588">
        <ele>240.8</ele>
        <time>2019-08-17T13:28:34Z</time>
      </trkpt>
      <trkpt lat="47.24078" lon="6.06584">
        <ele>240.7</ele>
        <time>2019-08-17T13:28:35Z</time>
      </trkpt>
      <trkpt lat="47.24074" lon="6.06579">
        <ele>240.6</ele>
        <time>2019-08-17T13:28:36Z</time>
      </trkpt>
      <trkpt lat="47.24071" lon="6.06575">
        <ele>240.6</ele>
        <time>2019-08-17T13:28:37Z</time>
      </trkpt>
      <trkpt lat="47.24068" lon="6.0657">
        <ele>240.5</ele>
        <time>2019-08-17T13:28:38Z</time>
      </trkpt>
      <trkpt lat="47.24064" lon="6.06566">
        <ele>240.6</ele>
        <time>2019-08-17T13:28:39Z</time>
      </trkpt>
      <trkpt lat="47.24061" lon="6.06562">
        <ele>240.6</ele>
        <time>2019-08-17T13:28:40Z</time>
      </trkpt>
      <trkpt lat="47.24057" lon="6.06557">
        <ele>240.6</ele>
        <time>2019-08-17T13:28:41Z</time>
      </trkpt>
      <trkpt lat="47.24054" lon="6.06553">
        <ele>240.7</ele>
        <time>2019-08-17T13:28:42Z</time>
      </trkpt>
      <trkpt lat="47.2405" lon="6.06549">
        <ele>240.8</ele>
        <time>2019-08-17T13:28:43Z</time>
      </trkpt>
      <trkpt lat="47.24047" lon="6.06545">
        <ele>240.9</ele>
        <time>2019-08-17T13:28:44Z</time>
      </trkpt>
      <trkpt lat="47.24043" lon="6.06541">
        <ele>241</ele>
        <time>2019-08-17T13:28:45Z</time>
      </trkpt>
      <trkpt lat="47.2404" lon="6.06538">
        <ele>241.1</ele>
        <time>2019-08-17T13:28:46Z</time>
      </trkpt>
      <trkpt lat="47.24036" lon="6.06534">
        <ele>241.2</ele>
        <time>2019-08-17T13:28:47Z</time>
      </trkpt>
      <trkpt lat="47.24032" lon="6.06531">
        <ele>241.2</ele>
        <time>2019-08-17T13:28:48Z</time>
      </trkpt>
      <trkpt lat="47.24029" lon="6.06527">
        <ele>241.3</ele>
        <time>2019-08-17T13:28:49Z</time>
      </trkpt>
      <trkpt lat="47.24025" lon="6.06523">
        <ele>241.3</ele>
        <time>2019-08-17T13:28:50Z</time>
      </trkpt>
      <trkpt lat="47.24021" lon="6.0652">
        <ele>241.3</ele>
        <time>2019-08-17T13:28:51Z</time>
      </trkpt>
      <trkpt lat="47.24017" lon="6.06517">
        <ele>241.3</ele>
        <time>2019-08-17T13:28:52Z</time>
      </trkpt>
      <trkpt lat="47.24014" lon="6.06515">
        <ele>241.3</ele>
        <time>2019-08-17T13:28:53Z</time>
      </trkpt>
      <trkpt lat="47.2401" lon="6.06512">
        <ele>241.3</ele>
        <time>2019-08-17T13:28:54Z</time>
      </trkpt>
      <trkpt lat="47.24006" lon="6.06509">
        <ele>241.3</ele>
        <time>2019-08-17T13:28:55Z</time>
      </trkpt>
      <trkpt lat="47.24002" lon="6.06505">
        <ele>241.3</ele>
        <time>2019-08-17T13:28:56Z</time>
      </trkpt>
      <trkpt lat="47.23999" lon="6.06501">
        <ele>241.3</ele>
        <time>2019-08-17T13:28:57Z</time>
      </trkpt>
      <trkpt lat="47.23996" lon="6.06499">
        <ele>241.3</ele>
        <time>2019-08-17T13:28:58Z</time>
      </trkpt>
      <trkpt lat="47.23992" lon="6.06495">
        <ele>241.3</ele>
        <time>2019-08-17T13:28:59Z</time>
      </trkpt>
      <trkpt lat="47.23989" lon="6.06492">
        <ele>241.3</ele>
        <time>2019-08-17T13:29:00Z</time>
      </trkpt>
      <trkpt lat="47.23985" lon="6.06489">
        <ele>241.3</ele>
        <time>2019-08-17T13:29:01Z</time>
      </trkpt>
      <trkpt lat="47.23982" lon="6.06485">
        <ele>241.3</ele>
        <time>2019-08-17T13:29:02Z</time>
      </trkpt>
      <trkpt lat="47.23979" lon="6.06482">
        <ele>241.3</ele>
        <time>2019-08-17T13:29:03Z</time>
      </trkpt>
      <trkpt lat="47.23975" lon="6.06478">
        <ele>241.3</ele>
        <time>2019-08-17T13:29:04Z</time>
      </trkpt>
      <trkpt lat="47.23972" lon="6.06474">
        <ele>241.3</ele>
        <time>2019-08-17T13:29:05Z</time>
      </trkpt>
      <trkpt lat="47.23968" lon="6.0647">
        <ele>241.4</ele>
        <time>2019-08-17T13:29:06Z</time>
      </trkpt>
      <trkpt lat="47.23965" lon="6.06465">
        <ele>241.4</ele>
        <time>2019-08-17T13:29:07Z</time>
      </trkpt>
      <trkpt lat="47.23961" lon="6.0646">
        <ele>241.5</ele>
        <time>2019-08-17T13:29:08Z</time>
      </trkpt>
      <trkpt lat="47.23957" lon="6.06456">
        <ele>241.6</ele>
        <time>2019-08-17T13:29:09Z</time>
      </trkpt>
      <trkpt lat="47.23954" lon="6.06451">
        <ele>241.8</ele>
        <time>2019-08-17T13:29:10Z</time>
      </trkpt>
      <trkpt lat="47.2395" lon="6.06445">
        <ele>241.9</ele>
        <time>2019-08-17T13:29:11Z</time>
      </trkpt>
      <trkpt lat="47.23947" lon="6.0644">
        <ele>242</ele>
        <time>2019-08-17T13:29:12Z</time>
      </trkpt>
      <trkpt lat="47.23943" lon="6.06435">
        <ele>242.1</ele>
        <time>2019-08-17T13:29:13Z</time>
      </trkpt>
      <trkpt lat="47.2394" lon="6.0643">
        <ele>242.2</ele>
        <time>2019-08-17T13:29:14Z</time>
      </trkpt>
      <trkpt lat="47.23937" lon="6.06425">
        <ele>242.2</ele>
        <time>2019-08-17T13:29:15Z</time>
      </trkpt>
      <trkpt lat="47.23933" lon="6.0642">
        <ele>242.3</ele>
        <time>2019-08-17T13:29:16Z</time>
      </trkpt>
      <trkpt lat="47.2393" lon="6.06415">
        <ele>242.3</ele>
        <time>2019-08-17T13:29:17Z</time>
      </trkpt>
      <trkpt lat="47.23927" lon="6.06411">
        <ele>242.3</ele>
        <time>2019-08-17T13:29:18Z</time>
      </trkpt>
      <trkpt lat="47.23923" lon="6.06406">
        <ele>242.3</ele>
        <time>2019-08-17T13:29:19Z</time>
      </trkpt>
      <trkpt lat="47.2392" lon="6.06401">
        <ele>242.3</ele>
        <time>2019-08-17T13:29:20Z</time>
      </trkpt>
      <trkpt lat="47.23916" lon="6.06396">
        <ele>242.3</ele>
        <time>2019-08-17T13:29:21Z</time>
      </trkpt>
      <trkpt lat="47.23913" lon="6.06391">
        <ele>242.3</ele>
        <time>2019-08-17T13:29:22Z</time>
      </trkpt>
      <trkpt lat="47.23909" lon="6.06386">
        <ele>242.3</ele>
        <time>2019-08-17T13:29:23Z</time>
      </trkpt>
      <trkpt lat="47.23906" lon="6.06381">
        <ele>242.3</ele>
        <time>2019-08-17T13:29:24Z</time>
      </trkpt>
      <trkpt lat="47.23902" lon="6.06376">
        <ele>242.3</ele>
        <time>2019-08-17T13:29:25Z</time>
      </trkpt>
      <trkpt lat="47.23899" lon="6.06371">
        <ele>242.3</ele>
        <time>2019-08-17T13:29:26Z</time>
      </trkpt>
      <trkpt lat="47.23895" lon="6.06367">
        <ele>242.3</ele>
        <time>2019-08-17T13:29:27Z</time>
      </trkpt>
      <trkpt lat="47.23892" lon="6.06363">
        <ele>242.3</ele>
        <time>2019-08-17T13:29:28Z</time>
      </trkpt>
      <trkpt lat="47.23888" lon="6.06359">
        <ele>242.3</ele>
        <time>2019-08-17T13:29:29Z</time>
      </trkpt>
      <trkpt lat="47.23885" lon="6.06355">
        <ele>242.3</ele>
        <time>2019-08-17T13:29:30Z</time>
      </trkpt>
      <trkpt lat="47.23882" lon="6.0635">
        <ele>242.3</ele>
        <time>2019-08-17T13:29:31Z</time>
      </trkpt>
      <trkpt lat="47.23878" lon="6.06346">
        <ele>242.3</ele>
        <time>2019-08-17T13:29:32Z</time>
      </trkpt>
      <trkpt lat="47.23875" lon="6.06341">
        <ele>242.3</ele>
        <time>2019-08-17T13:29:33Z</time>
      </trkpt>
      <trkpt lat="47.23873" lon="6.06336">
        <ele>242.3</ele>
        <time>2019-08-17T13:29:34Z</time>
      </trkpt>
      <trkpt lat="47.2387" lon="6.06332">
        <ele>242.2</ele>
        <time>2019-08-17T13:29:35Z</time>
      </trkpt>
      <trkpt lat="47.23867" lon="6.06328">
        <ele>242.2</ele>
        <time>2019-08-17T13:29:36Z</time>
      </trkpt>
      <trkpt lat="47.23863" lon="6.06324">
        <ele>242.1</ele>
        <time>2019-08-17T13:29:37Z</time>
      </trkpt>
      <trkpt lat="47.2386" lon="6.06319">
        <ele>242</ele>
        <time>2019-08-17T13:29:38Z</time>
      </trkpt>
      <trkpt lat="47.23857" lon="6.06315">
        <ele>241.9</ele>
        <time>2019-08-17T13:29:39Z</time>
      </trkpt>
      <trkpt lat="47.23853" lon="6.0631">
        <ele>241.7</ele>
        <time>2019-08-17T13:29:40Z</time>
      </trkpt>
      <trkpt lat="47.2385" lon="6.06306">
        <ele>241.6</ele>
        <time>2019-08-17T13:29:41Z</time>
      </trkpt>
      <trkpt lat="47.23846" lon="6.06302">
        <ele>241.5</ele>
        <time>2019-08-17T13:29:42Z</time>
      </trkpt>
      <trkpt lat="47.23842" lon="6.06298">
        <ele>241.4</ele>
        <time>2019-08-17T13:29:43Z</time>
      </trkpt>
      <trkpt lat="47.23839" lon="6.06294">
        <ele>241.4</ele>
        <time>2019-08-17T13:29:44Z</time>
      </trkpt>
      <trkpt lat="47.23835" lon="6.06291">
        <ele>241.4</ele>
        <time>2019-08-17T13:29:45Z</time>
      </trkpt>
      <trkpt lat="47.23832" lon="6.06288">
        <ele>241.3</ele>
        <time>2019-08-17T13:29:46Z</time>
      </trkpt>
      <trkpt lat="47.23827" lon="6.06284">
        <ele>241.3</ele>
        <time>2019-08-17T13:29:47Z</time>
      </trkpt>
      <trkpt lat="47.23822" lon="6.0628">
        <ele>241.3</ele>
        <time>2019-08-17T13:29:48Z</time>
      </trkpt>
      <trkpt lat="47.23817" lon="6.06276">
        <ele>241.3</ele>
        <time>2019-08-17T13:29:49Z</time>
      </trkpt>
      <trkpt lat="47.23813" lon="6.06271">
        <ele>241.2</ele>
        <time>2019-08-17T13:29:50Z</time>
      </trkpt>
      <trkpt lat="47.23809" lon="6.06267">
        <ele>241.2</ele>
        <time>2019-08-17T13:29:51Z</time>
      </trkpt>
      <trkpt lat="47.23804" lon="6.06263">
        <ele>241.1</ele>
        <time>2019-08-17T13:29:52Z</time>
      </trkpt>
      <trkpt lat="47.238" lon="6.06259">
        <ele>240.9</ele>
        <time>2019-08-17T13:29:53Z</time>
      </trkpt>
      <trkpt lat="47.23795" lon="6.06255">
        <ele>240.8</ele>
        <time>2019-08-17T13:29:54Z</time>
      </trkpt>
      <trkpt lat="47.23791" lon="6.0625">
        <ele>240.6</ele>
        <time>2019-08-17T13:29:55Z</time>
      </trkpt>
      <trkpt lat="47.23786" lon="6.06246">
        <ele>240.5</ele>
        <time>2019-08-17T13:29:56Z</time>
      </trkpt>
      <trkpt lat="47.23781" lon="6.06243">
        <ele>240.4</ele>
        <time>2019-08-17T13:29:57Z</time>
      </trkpt>
      <trkpt lat="47.23776" lon="6.0624">
        <ele>240.3</ele>
        <time>2019-08-17T13:29:58Z</time>
      </trkpt>
      <trkpt lat="47.23772" lon="6.06236">
        <ele>240.3</ele>
        <time>2019-08-17T13:29:59Z</time>
      </trkpt>
      <trkpt lat="47.23767" lon="6.06233">
        <ele>240.2</ele>
        <time>2019-08-17T13:30:00Z</time>
      </trkpt>
      <trkpt lat="47.23762" lon="6.0623">
        <ele>240.2</ele>
        <time>2019-08-17T13:30:01Z</time>
      </trkpt>
      <trkpt lat="47.23757" lon="6.06227">
        <ele>240.2</ele>
        <time>2019-08-17T13:30:02Z</time>
      </trkpt>
      <trkpt lat="47.23753" lon="6.06224">
        <ele>240.2</ele>
        <time>2019-08-17T13:30:03Z</time>
      </trkpt>
      <trkpt lat="47.23748" lon="6.06221">
        <ele>240.2</ele>
        <time>2019-08-17T13:30:04Z</time>
      </trkpt>
      <trkpt lat="47.23744" lon="6.06218">
        <ele>240.2</ele>
        <time>2019-08-17T13:30:05Z</time>
      </trkpt>
      <trkpt lat="47.23739" lon="6.06215">
        <ele>240.2</ele>
        <time>2019-08-17T13:30:06Z</time>
      </trkpt>
      <trkpt lat="47.23735" lon="6.06212">
        <ele>240.2</ele>
        <time>2019-08-17T13:30:07Z</time>
      </trkpt>
      <trkpt lat="47.23731" lon="6.06209">
        <ele>240.2</ele>
        <time>2019-08-17T13:30:08Z</time>
      </trkpt>
      <trkpt lat="47.23727" lon="6.06207">
        <ele>240.2</ele>
        <time>2019-08-17T13:30:09Z</time>
      </trkpt>
      <trkpt lat="47.23723" lon="6.06205">
        <ele>240.2</ele>
        <time>2019-08-17T13:30:10Z</time>
      </trkpt>
      <trkpt lat="47.23718" lon="6.06202">
        <ele>240.2</ele>
        <time>2019-08-17T13:30:11Z</time>
      </trkpt>
      <trkpt lat="47.23713" lon="6.062">
        <ele>240.2</ele>
        <time>2019-08-17T13:30:12Z</time>
      </trkpt>
      <trkpt lat="47.23708" lon="6.06197">
        <ele>240.2</ele>
        <time>2019-08-17T13:30:13Z</time>
      </trkpt>
      <trkpt lat="47.23704" lon="6.06195">
        <ele>240.2</ele>
        <time>2019-08-17T13:30:14Z</time>
      </trkpt>
      <trkpt lat="47.23699" lon="6.06192">
        <ele>240.2</ele>
        <time>2019-08-17T13:30:15Z</time>
      </trkpt>
      <trkpt lat="47.23694" lon="6.06189">
        <ele>240.2</ele>
        <time>2019-08-17T13:30:16Z</time>
      </trkpt>
      <trkpt lat="47.23689" lon="6.06186">
        <ele>240.2</ele>
        <time>2019-08-17T13:30:17Z</time>
      </trkpt>
      <trkpt lat="47.23684" lon="6.06183">
        <ele>240.2</ele>
        <time>2019-08-17T13:30:18Z</time>
      </trkpt>
      <trkpt lat="47.23679" lon="6.0618">
        <ele>240.2</ele>
        <time>2019-08-17T13:30:19Z</time>
      </trkpt>
      <trkpt lat="47.23674" lon="6.06177">
        <ele>240.2</ele>
        <time>2019-08-17T13:30:20Z</time>
      </trkpt>
      <trkpt lat="47.23669" lon="6.06175">
        <ele>240.2</ele>
        <time>2019-08-17T13:30:21Z</time>
      </trkpt>
      <trkpt lat="47.23664" lon="6.06172">
        <ele>240.2</ele>
        <time>2019-08-17T13:30:22Z</time>
      </trkpt>
      <trkpt lat="47.2366" lon="6.0617">
        <ele>240.2</ele>
        <time>2019-08-17T13:30:23Z</time>
      </trkpt>
      <trkpt lat="47.23655" lon="6.06168">
        <ele>240.2</ele>
        <time>2019-08-17T13:30:24Z</time>
      </trkpt>
      <trkpt lat="47.2365" lon="6.06166">
        <ele>240.2</ele>
        <time>2019-08-17T13:30:25Z</time>
      </trkpt>
      <trkpt lat="47.23646" lon="6.06163">
        <ele>240.2</ele>
        <time>2019-08-17T13:30:26Z</time>
      </trkpt>
      <trkpt lat="47.23641" lon="6.06161">
        <ele>240.2</ele>
        <time>2019-08-17T13:30:27Z</time>
      </trkpt>
      <trkpt lat="47.23637" lon="6.06158">
        <ele>240.2</ele>
        <time>2019-08-17T13:30:28Z</time>
      </trkpt>
      <trkpt lat="47.23632" lon="6.06157">
        <ele>240.2</ele>
        <time>2019-08-17T13:30:29Z</time>
      </trkpt>
      <trkpt lat="47.23627" lon="6.06156">
        <ele>240.2</ele>
        <time>2019-08-17T13:30:30Z</time>
      </trkpt>
      <trkpt lat="47.23622" lon="6.06155">
        <ele>240.2</ele>
        <time>2019-08-17T13:30:31Z</time>
      </trkpt>
      <trkpt lat="47.23618" lon="6.06154">
        <ele>240.2</ele>
        <time>2019-08-17T13:30:32Z</time>
      </trkpt>
      <trkpt lat="47.23613" lon="6.06153">
        <ele>240.2</ele>
        <time>2019-08-17T13:30:33Z</time>
      </trkpt>
      <trkpt lat="47.23609" lon="6.06153">
        <ele>240.2</ele>
        <time>2019-08-17T13:30:34Z</time>
      </trkpt>
      <trkpt lat="47.23604" lon="6.06152">
        <ele>240.2</ele>
        <time>2019-08-17T13:30:35Z</time>
      </trkpt>
      <trkpt lat="47.23599" lon="6.0615">
        <ele>240.2</ele>
        <time>2019-08-17T13:30:36Z</time>
      </trkpt>
      <trkpt lat="47.23594" lon="6.06149">
        <ele>240.2</ele>
        <time>2019-08-17T13:30:37Z</time>
      </trkpt>
      <trkpt lat="47.23588" lon="6.06147">
        <ele>240.2</ele>
        <time>2019-08-17T13:30:38Z</time>
      </trkpt>
      <trkpt lat="47.23582" lon="6.06146">
        <ele>240.2</ele>
        <time>2019-08-17T13:30:39Z</time>
      </trkpt>
      <trkpt lat="47.23577" lon="6.06145">
        <ele>240.2</ele>
        <time>2019-08-17T13:30:40Z</time>
      </trkpt>
      <trkpt lat="47.23572" lon="6.06144">
        <ele>240.2</ele>
        <time>2019-08-17T13:30:41Z</time>
      </trkpt>
      <trkpt lat="47.23567" lon="6.06142">
        <ele>240.2</ele>
        <time>2019-08-17T13:30:42Z</time>
      </trkpt>
      <trkpt lat="47.23563" lon="6.06141">
        <ele>240.2</ele>
        <time>2019-08-17T13:30:43Z</time>
      </trkpt>
      <trkpt lat="47.23558" lon="6.06141">
        <ele>240.2</ele>
        <time>2019-08-17T13:30:44Z</time>
      </trkpt>
      <trkpt lat="47.23553" lon="6.0614">
        <ele>240.2</ele>
        <time>2019-08-17T13:30:45Z</time>
      </trkpt>
      <trkpt lat="47.23548" lon="6.06138">
        <ele>240.2</ele>
        <time>2019-08-17T13:30:46Z</time>
      </trkpt>
      <trkpt lat="47.23543" lon="6.06137">
        <ele>240.2</ele>
        <time>2019-08-17T13:30:47Z</time>
      </trkpt>
      <trkpt lat="47.23538" lon="6.06136">
        <ele>240.2</ele>
        <time>2019-08-17T13:30:48Z</time>
      </trkpt>
      <trkpt lat="47.23533" lon="6.06135">
        <ele>240.2</ele>
        <time>2019-08-17T13:30:49Z</time>
      </trkpt>
      <trkpt lat="47.23528" lon="6.06135">
        <ele>240.2</ele>
        <time>2019-08-17T13:30:50Z</time>
      </trkpt>
      <trkpt lat="47.23523" lon="6.06135">
        <ele>240.2</ele>
        <time>2019-08-17T13:30:51Z</time>
      </trkpt>
      <trkpt lat="47.23519" lon="6.06135">
        <ele>240.2</ele>
        <time>2019-08-17T13:30:52Z</time>
      </trkpt>
      <trkpt lat="47.23513" lon="6.06134">
        <ele>240.2</ele>
        <time>2019-08-17T13:30:53Z</time>
      </trkpt>
      <trkpt lat="47.23508" lon="6.06133">
        <ele>240.2</ele>
        <time>2019-08-17T13:30:54Z</time>
      </trkpt>
      <trkpt lat="47.23503" lon="6.06133">
        <ele>240.2</ele>
        <time>2019-08-17T13:30:55Z</time>
      </trkpt>
      <trkpt lat="47.23498" lon="6.06132">
        <ele>240.2</ele>
        <time>2019-08-17T13:30:56Z</time>
      </trkpt>
      <trkpt lat="47.23493" lon="6.06131">
        <ele>240.2</ele>
        <time>2019-08-17T13:30:57Z</time>
      </trkpt>
      <trkpt lat="47.23488" lon="6.06131">
        <ele>240.2</ele>
        <time>2019-08-17T13:30:58Z</time>
      </trkpt>
      <trkpt lat="47.23483" lon="6.0613">
        <ele>240.2</ele>
        <time>2019-08-17T13:30:59Z</time>
      </trkpt>
      <trkpt lat="47.23477" lon="6.06129">
        <ele>240.2</ele>
        <time>2019-08-17T13:31:00Z</time>
      </trkpt>
      <trkpt lat="47.23472" lon="6.06128">
        <ele>240.2</ele>
        <time>2019-08-17T13:31:01Z</time>
      </trkpt>
      <trkpt lat="47.23467" lon="6.06129">
        <ele>240.2</ele>
        <time>2019-08-17T13:31:02Z</time>
      </trkpt>
      <trkpt lat="47.23463" lon="6.06129">
        <ele>240.2</ele>
        <time>2019-08-17T13:31:03Z</time>
      </trkpt>
      <trkpt lat="47.2346" lon="6.06129">
        <ele>240.2</ele>
        <time>2019-08-17T13:31:04Z</time>
      </trkpt>
      <trkpt lat="47.23456" lon="6.06129">
        <ele>240.2</ele>
        <time>2019-08-17T13:31:05Z</time>
      </trkpt>
      <trkpt lat="47.23451" lon="6.06129">
        <ele>240.2</ele>
        <time>2019-08-17T13:31:06Z</time>
      </trkpt>
      <trkpt lat="47.23447" lon="6.06128">
        <ele>240.2</ele>
        <time>2019-08-17T13:31:07Z</time>
      </trkpt>
      <trkpt lat="47.23443" lon="6.06128">
        <ele>240.2</ele>
        <time>2019-08-17T13:31:08Z</time>
      </trkpt>
      <trkpt lat="47.23439" lon="6.06127">
        <ele>240.2</ele>
        <time>2019-08-17T13:31:09Z</time>
      </trkpt>
      <trkpt lat="47.23434" lon="6.06126">
        <ele>240.2</ele>
        <time>2019-08-17T13:31:10Z</time>
      </trkpt>
      <trkpt lat="47.23429" lon="6.06124">
        <ele>240.2</ele>
        <time>2019-08-17T13:31:11Z</time>
      </trkpt>
      <trkpt lat="47.23423" lon="6.06122">
        <ele>240.2</ele>
        <time>2019-08-17T13:31:12Z</time>
      </trkpt>
      <trkpt lat="47.23418" lon="6.0612">
        <ele>240.2</ele>
        <time>2019-08-17T13:31:13Z</time>
      </trkpt>
      <trkpt lat="47.23412" lon="6.06118">
        <ele>240.2</ele>
        <time>2019-08-17T13:31:14Z</time>
      </trkpt>
      <trkpt lat="47.23408" lon="6.06115">
        <ele>240.2</ele>
        <time>2019-08-17T13:31:15Z</time>
      </trkpt>
      <trkpt lat="47.23403" lon="6.06113">
        <ele>240.2</ele>
        <time>2019-08-17T13:31:16Z</time>
      </trkpt>
      <trkpt lat="47.23397" lon="6.06111">
        <ele>240.2</ele>
        <time>2019-08-17T13:31:17Z</time>
      </trkpt>
      <trkpt lat="47.23392" lon="6.06109">
        <ele>240.2</ele>
        <time>2019-08-17T13:31:18Z</time>
      </trkpt>
      <trkpt lat="47.23387" lon="6.06108">
        <ele>240.4</ele>
        <time>2019-08-17T13:31:19Z</time>
      </trkpt>
      <trkpt lat="47.23382" lon="6.06107">
        <ele>240.5</ele>
        <time>2019-08-17T13:31:20Z</time>
      </trkpt>
      <trkpt lat="47.23377" lon="6.06106">
        <ele>240.7</ele>
        <time>2019-08-17T13:31:21Z</time>
      </trkpt>
      <trkpt lat="47.23372" lon="6.06105">
        <ele>240.9</ele>
        <time>2019-08-17T13:31:22Z</time>
      </trkpt>
      <trkpt lat="47.23366" lon="6.06103">
        <ele>241.1</ele>
        <time>2019-08-17T13:31:23Z</time>
      </trkpt>
      <trkpt lat="47.23362" lon="6.061">
        <ele>241.3</ele>
        <time>2019-08-17T13:31:24Z</time>
      </trkpt>
      <trkpt lat="47.23357" lon="6.06096">
        <ele>241.6</ele>
        <time>2019-08-17T13:31:25Z</time>
      </trkpt>
      <trkpt lat="47.23352" lon="6.06093">
        <ele>241.9</ele>
        <time>2019-08-17T13:31:26Z</time>
      </trkpt>
      <trkpt lat="47.23347" lon="6.0609">
        <ele>242.3</ele>
        <time>2019-08-17T13:31:27Z</time>
      </trkpt>
      <trkpt lat="47.23343" lon="6.06087">
        <ele>242.7</ele>
        <time>2019-08-17T13:31:28Z</time>
      </trkpt>
      <trkpt lat="47.23338" lon="6.06084">
        <ele>243.1</ele>
        <time>2019-08-17T13:31:29Z</time>
      </trkpt>
      <trkpt lat="47.23333" lon="6.06081">
        <ele>243.6</ele>
        <time>2019-08-17T13:31:30Z</time>
      </trkpt>
      <trkpt lat="47.23328" lon="6.06077">
        <ele>244.2</ele>
        <time>2019-08-17T13:31:31Z</time>
      </trkpt>
      <trkpt lat="47.23323" lon="6.06074">
        <ele>244.6</ele>
        <time>2019-08-17T13:31:32Z</time>
      </trkpt>
      <trkpt lat="47.23318" lon="6.06071">
        <ele>245</ele>
        <time>2019-08-17T13:31:33Z</time>
      </trkpt>
      <trkpt lat="47.23315" lon="6.06068">
        <ele>245.2</ele>
        <time>2019-08-17T13:31:34Z</time>
      </trkpt>
      <trkpt lat="47.23311" lon="6.06065">
        <ele>245.4</ele>
        <time>2019-08-17T13:31:35Z</time>
      </trkpt>
      <trkpt lat="47.23307" lon="6.06061">
        <ele>245.6</ele>
        <time>2019-08-17T13:31:36Z</time>
      </trkpt>
      <trkpt lat="47.23303" lon="6.06056">
        <ele>245.9</ele>
        <time>2019-08-17T13:31:37Z</time>
      </trkpt>
      <trkpt lat="47.23299" lon="6.06052">
        <ele>246.1</ele>
        <time>2019-08-17T13:31:38Z</time>
      </trkpt>
      <trkpt lat="47.23295" lon="6.06046">
        <ele>246.2</ele>
        <time>2019-08-17T13:31:39Z</time>
      </trkpt>
      <trkpt lat="47.23291" lon="6.06042">
        <ele>246.4</ele>
        <time>2019-08-17T13:31:40Z</time>
      </trkpt>
      <trkpt lat="47.23287" lon="6.06037">
        <ele>246.6</ele>
        <time>2019-08-17T13:31:41Z</time>
      </trkpt>
      <trkpt lat="47.23284" lon="6.06033">
        <ele>246.7</ele>
        <time>2019-08-17T13:31:42Z</time>
      </trkpt>
      <trkpt lat="47.2328" lon="6.0603">
        <ele>246.9</ele>
        <time>2019-08-17T13:31:43Z</time>
      </trkpt>
      <trkpt lat="47.23277" lon="6.06026">
        <ele>247</ele>
        <time>2019-08-17T13:31:44Z</time>
      </trkpt>
      <trkpt lat="47.23274" lon="6.06022">
        <ele>247.1</ele>
        <time>2019-08-17T13:31:45Z</time>
      </trkpt>
      <trkpt lat="47.2327" lon="6.06018">
        <ele>247.3</ele>
        <time>2019-08-17T13:31:46Z</time>
      </trkpt>
      <trkpt lat="47.23266" lon="6.06013">
        <ele>247.4</ele>
        <time>2019-08-17T13:31:47Z</time>
      </trkpt>
      <trkpt lat="47.23262" lon="6.06008">
        <ele>247.5</ele>
        <time>2019-08-17T13:31:48Z</time>
      </trkpt>
      <trkpt lat="47.23258" lon="6.06003">
        <ele>247.7</ele>
        <time>2019-08-17T13:31:49Z</time>
      </trkpt>
      <trkpt lat="47.23253" lon="6.05997">
        <ele>247.8</ele>
        <time>2019-08-17T13:31:50Z</time>
      </trkpt>
      <trkpt lat="47.23249" lon="6.05992">
        <ele>247.9</ele>
        <time>2019-08-17T13:31:51Z</time>
      </trkpt>
      <trkpt lat="47.23245" lon="6.05988">
        <ele>248</ele>
        <time>2019-08-17T13:31:52Z</time>
      </trkpt>
      <trkpt lat="47.23241" lon="6.05985">
        <ele>248.1</ele>
        <time>2019-08-17T13:31:53Z</time>
      </trkpt>
      <trkpt lat="47.23238" lon="6.05981">
        <ele>248.2</ele>
        <time>2019-08-17T13:31:54Z</time>
      </trkpt>
      <trkpt lat="47.23234" lon="6.05977">
        <ele>248.3</ele>
        <time>2019-08-17T13:31:55Z</time>
      </trkpt>
      <trkpt lat="47.2323" lon="6.05973">
        <ele>248.4</ele>
        <time>2019-08-17T13:31:56Z</time>
      </trkpt>
      <trkpt lat="47.23227" lon="6.05969">
        <ele>248.5</ele>
        <time>2019-08-17T13:31:57Z</time>
      </trkpt>
      <trkpt lat="47.23223" lon="6.05966">
        <ele>248.6</ele>
        <time>2019-08-17T13:31:58Z</time>
      </trkpt>
      <trkpt lat="47.2322" lon="6.05963">
        <ele>248.7</ele>
        <time>2019-08-17T13:31:59Z</time>
      </trkpt>
      <trkpt lat="47.23216" lon="6.05959">
        <ele>248.8</ele>
        <time>2019-08-17T13:32:00Z</time>
      </trkpt>
      <trkpt lat="47.23212" lon="6.05956">
        <ele>248.9</ele>
        <time>2019-08-17T13:32:01Z</time>
      </trkpt>
      <trkpt lat="47.23208" lon="6.05952">
        <ele>249</ele>
        <time>2019-08-17T13:32:02Z</time>
      </trkpt>
      <trkpt lat="47.23204" lon="6.05949">
        <ele>249.1</ele>
        <time>2019-08-17T13:32:03Z</time>
      </trkpt>
      <trkpt lat="47.232" lon="6.05946">
        <ele>249.2</ele>
        <time>2019-08-17T13:32:04Z</time>
      </trkpt>
      <trkpt lat="47.23196" lon="6.05941">
        <ele>249.3</ele>
        <time>2019-08-17T13:32:05Z</time>
      </trkpt>
      <trkpt lat="47.23193" lon="6.05938">
        <ele>249.4</ele>
        <time>2019-08-17T13:32:06Z</time>
      </trkpt>
      <trkpt lat="47.23189" lon="6.05935">
        <ele>249.5</ele>
        <time>2019-08-17T13:32:07Z</time>
      </trkpt>
      <trkpt lat="47.23185" lon="6.05933">
        <ele>249.6</ele>
        <time>2019-08-17T13:32:08Z</time>
      </trkpt>
      <trkpt lat="47.23181" lon="6.05931">
        <ele>249.6</ele>
        <time>2019-08-17T13:32:09Z</time>
      </trkpt>
      <trkpt lat="47.23177" lon="6.05928">
        <ele>249.7</ele>
        <time>2019-08-17T13:32:10Z</time>
      </trkpt>
      <trkpt lat="47.23173" lon="6.05925">
        <ele>249.8</ele>
        <time>2019-08-17T13:32:11Z</time>
      </trkpt>
      <trkpt lat="47.23169" lon="6.05922">
        <ele>249.9</ele>
        <time>2019-08-17T13:32:12Z</time>
      </trkpt>
      <trkpt lat="47.23165" lon="6.0592">
        <ele>250.1</ele>
        <time>2019-08-17T13:32:13Z</time>
      </trkpt>
      <trkpt lat="47.23161" lon="6.05917">
        <ele>250.2</ele>
        <time>2019-08-17T13:32:14Z</time>
      </trkpt>
      <trkpt lat="47.23157" lon="6.05913">
        <ele>250.3</ele>
        <time>2019-08-17T13:32:15Z</time>
      </trkpt>
      <trkpt lat="47.23153" lon="6.0591">
        <ele>250.5</ele>
        <time>2019-08-17T13:32:16Z</time>
      </trkpt>
      <trkpt lat="47.23149" lon="6.05907">
        <ele>250.6</ele>
        <time>2019-08-17T13:32:17Z</time>
      </trkpt>
      <trkpt lat="47.23145" lon="6.05904">
        <ele>250.8</ele>
        <time>2019-08-17T13:32:18Z</time>
      </trkpt>
      <trkpt lat="47.23141" lon="6.05901">
        <ele>250.9</ele>
        <time>2019-08-17T13:32:19Z</time>
      </trkpt>
      <trkpt lat="47.23137" lon="6.05898">
        <ele>251.1</ele>
        <time>2019-08-17T13:32:20Z</time>
      </trkpt>
      <trkpt lat="47.23134" lon="6.05895">
        <ele>251.2</ele>
        <time>2019-08-17T13:32:21Z</time>
      </trkpt>
      <trkpt lat="47.2313" lon="6.0589">
        <ele>251.4</ele>
        <time>2019-08-17T13:32:22Z</time>
      </trkpt>
      <trkpt lat="47.23127" lon="6.05886">
        <ele>251.5</ele>
        <time>2019-08-17T13:32:23Z</time>
      </trkpt>
      <trkpt lat="47.23124" lon="6.05883">
        <ele>251.7</ele>
        <time>2019-08-17T13:32:24Z</time>
      </trkpt>
      <trkpt lat="47.23121" lon="6.0588">
        <ele>251.8</ele>
        <time>2019-08-17T13:32:25Z</time>
      </trkpt>
      <trkpt lat="47.23118" lon="6.05877">
        <ele>252.1</ele>
        <time>2019-08-17T13:32:26Z</time>
      </trkpt>
      <trkpt lat="47.23115" lon="6.05874">
        <ele>252.4</ele>
        <time>2019-08-17T13:32:27Z</time>
      </trkpt>
      <trkpt lat="47.23111" lon="6.0587">
        <ele>252.7</ele>
        <time>2019-08-17T13:32:28Z</time>
      </trkpt>
      <trkpt lat="47.23108" lon="6.05867">
        <ele>253.1</ele>
        <time>2019-08-17T13:32:29Z</time>
      </trkpt>
      <trkpt lat="47.23104" lon="6.05863">
        <ele>253.4</ele>
        <time>2019-08-17T13:32:30Z</time>
      </trkpt>
      <trkpt lat="47.23101" lon="6.05861">
        <ele>253.7</ele>
        <time>2019-08-17T13:32:31Z</time>
      </trkpt>
      <trkpt lat="47.23098" lon="6.05859">
        <ele>254.2</ele>
        <time>2019-08-17T13:32:32Z</time>
      </trkpt>
      <trkpt lat="47.23095" lon="6.05856">
        <ele>252.9</ele>
        <time>2019-08-17T13:32:33Z</time>
      </trkpt>
      <trkpt lat="47.23092" lon="6.05853">
        <ele>251.7</ele>
        <time>2019-08-17T13:32:34Z</time>
      </trkpt>
      <trkpt lat="47.2309" lon="6.0585">
        <ele>250.4</ele>
        <time>2019-08-17T13:32:35Z</time>
      </trkpt>
      <trkpt lat="47.23087" lon="6.05847">
        <ele>249.1</ele>
        <time>2019-08-17T13:32:36Z</time>
      </trkpt>
      <trkpt lat="47.23085" lon="6.05845">
        <ele>247.9</ele>
        <time>2019-08-17T13:32:37Z</time>
      </trkpt>
      <trkpt lat="47.23082" lon="6.05842">
        <ele>246.7</ele>
        <time>2019-08-17T13:32:38Z</time>
      </trkpt>
      <trkpt lat="47.2308" lon="6.0584">
        <ele>245.6</ele>
        <time>2019-08-17T13:32:39Z</time>
      </trkpt>
      <trkpt lat="47.23077" lon="6.05837">
        <ele>244.4</ele>
        <time>2019-08-17T13:32:40Z</time>
      </trkpt>
      <trkpt lat="47.23075" lon="6.05835">
        <ele>243.1</ele>
        <time>2019-08-17T13:32:41Z</time>
      </trkpt>
      <trkpt lat="47.23072" lon="6.05833">
        <ele>240.7</ele>
        <time>2019-08-17T13:32:42Z</time>
      </trkpt>
      <trkpt lat="47.23068" lon="6.05829">
        <ele>240.5</ele>
        <time>2019-08-17T13:32:44Z</time>
      </trkpt>
      <trkpt lat="47.23063" lon="6.05826">
        <ele>240.4</ele>
        <time>2019-08-17T13:32:46Z</time>
      </trkpt>
      <trkpt lat="47.23061" lon="6.05823">
        <ele>240.3</ele>
        <time>2019-08-17T13:32:47Z</time>
      </trkpt>
      <trkpt lat="47.23058" lon="6.05818">
        <ele>240.2</ele>
        <time>2019-08-17T13:32:49Z</time>
      </trkpt>
      <trkpt lat="47.23054" lon="6.05813">
        <ele>240</ele>
        <time>2019-08-17T13:32:51Z</time>
      </trkpt>
      <trkpt lat="47.23052" lon="6.05811">
        <ele>240</ele>
        <time>2019-08-17T13:32:55Z</time>
      </trkpt>
      <trkpt lat="47.23055" lon="6.05811">
        <ele>239.9</ele>
        <time>2019-08-17T13:33:10Z</time>
      </trkpt>
      <trkpt lat="47.23051" lon="6.05807">
        <ele>239.8</ele>
        <time>2019-08-17T13:33:36Z</time>
      </trkpt>
      <trkpt lat="47.23047" lon="6.05805">
        <ele>239.7</ele>
        <time>2019-08-17T13:33:37Z</time>
      </trkpt>
      <trkpt lat="47.23044" lon="6.05802">
        <ele>239.7</ele>
        <time>2019-08-17T13:33:38Z</time>
      </trkpt>
      <trkpt lat="47.23041" lon="6.058">
        <ele>239.6</ele>
        <time>2019-08-17T13:33:39Z</time>
      </trkpt>
      <trkpt lat="47.23036" lon="6.05797">
        <ele>239.6</ele>
        <time>2019-08-17T13:33:40Z</time>
      </trkpt>
      <trkpt lat="47.23033" lon="6.05794">
        <ele>239.6</ele>
        <time>2019-08-17T13:33:41Z</time>
      </trkpt>
      <trkpt lat="47.23031" lon="6.05792">
        <ele>239.6</ele>
        <time>2019-08-17T13:33:42Z</time>
      </trkpt>
      <trkpt lat="47.23028" lon="6.0579">
        <ele>239.6</ele>
        <time>2019-08-17T13:33:43Z</time>
      </trkpt>
      <trkpt lat="47.23023" lon="6.05784">
        <ele>239.6</ele>
        <time>2019-08-17T13:33:45Z</time>
      </trkpt>
      <trkpt lat="47.2302" lon="6.0578">
        <ele>239.6</ele>
        <time>2019-08-17T13:33:46Z</time>
      </trkpt>
      <trkpt lat="47.23015" lon="6.05777">
        <ele>239.6</ele>
        <time>2019-08-17T13:33:48Z</time>
      </trkpt>
      <trkpt lat="47.23013" lon="6.05774">
        <ele>239.6</ele>
        <time>2019-08-17T13:33:49Z</time>
      </trkpt>
      <trkpt lat="47.2301" lon="6.05772">
        <ele>239.6</ele>
        <time>2019-08-17T13:33:50Z</time>
      </trkpt>
      <trkpt lat="47.23007" lon="6.0577">
        <ele>239.6</ele>
        <time>2019-08-17T13:33:51Z</time>
      </trkpt>
      <trkpt lat="47.23003" lon="6.05767">
        <ele>239.6</ele>
        <time>2019-08-17T13:33:52Z</time>
      </trkpt>
      <trkpt lat="47.23" lon="6.05765">
        <ele>239.6</ele>
        <time>2019-08-17T13:33:53Z</time>
      </trkpt>
      <trkpt lat="47.22997" lon="6.05763">
        <ele>239.6</ele>
        <time>2019-08-17T13:33:54Z</time>
      </trkpt>
      <trkpt lat="47.22995" lon="6.05759">
        <ele>239.6</ele>
        <time>2019-08-17T13:33:55Z</time>
      </trkpt>
      <trkpt lat="47.22991" lon="6.05756">
        <ele>239.6</ele>
        <time>2019-08-17T13:33:56Z</time>
      </trkpt>
      <trkpt lat="47.22988" lon="6.05753">
        <ele>239.6</ele>
        <time>2019-08-17T13:33:57Z</time>
      </trkpt>
      <trkpt lat="47.22984" lon="6.0575">
        <ele>239.6</ele>
        <time>2019-08-17T13:33:58Z</time>
      </trkpt>
      <trkpt lat="47.2298" lon="6.05748">
        <ele>239.6</ele>
        <time>2019-08-17T13:33:59Z</time>
      </trkpt>
      <trkpt lat="47.22977" lon="6.05746">
        <ele>239.6</ele>
        <time>2019-08-17T13:34:00Z</time>
      </trkpt>
      <trkpt lat="47.22973" lon="6.05743">
        <ele>239.6</ele>
        <time>2019-08-17T13:34:01Z</time>
      </trkpt>
      <trkpt lat="47.2297" lon="6.05741">
        <ele>239.6</ele>
        <time>2019-08-17T13:34:02Z</time>
      </trkpt>
      <trkpt lat="47.22967" lon="6.05739">
        <ele>239.6</ele>
        <time>2019-08-17T13:34:03Z</time>
      </trkpt>
      <trkpt lat="47.22963" lon="6.05737">
        <ele>239.7</ele>
        <time>2019-08-17T13:34:04Z</time>
      </trkpt>
      <trkpt lat="47.2296" lon="6.05735">
        <ele>239.8</ele>
        <time>2019-08-17T13:34:05Z</time>
      </trkpt>
      <trkpt lat="47.22957" lon="6.05731">
        <ele>239.9</ele>
        <time>2019-08-17T13:34:06Z</time>
      </trkpt>
      <trkpt lat="47.22955" lon="6.05726">
        <ele>240</ele>
        <time>2019-08-17T13:34:07Z</time>
      </trkpt>
      <trkpt lat="47.22952" lon="6.0572">
        <ele>240.1</ele>
        <time>2019-08-17T13:34:08Z</time>
      </trkpt>
      <trkpt lat="47.22949" lon="6.05715">
        <ele>240.3</ele>
        <time>2019-08-17T13:34:09Z</time>
      </trkpt>
      <trkpt lat="47.22946" lon="6.0571">
        <ele>240.4</ele>
        <time>2019-08-17T13:34:10Z</time>
      </trkpt>
      <trkpt lat="47.22943" lon="6.05705">
        <ele>240.5</ele>
        <time>2019-08-17T13:34:11Z</time>
      </trkpt>
      <trkpt lat="47.2294" lon="6.05701">
        <ele>240.5</ele>
        <time>2019-08-17T13:34:12Z</time>
      </trkpt>
      <trkpt lat="47.22936" lon="6.05696">
        <ele>240.6</ele>
        <time>2019-08-17T13:34:13Z</time>
      </trkpt>
      <trkpt lat="47.22932" lon="6.05692">
        <ele>240.6</ele>
        <time>2019-08-17T13:34:14Z</time>
      </trkpt>
      <trkpt lat="47.22929" lon="6.05687">
        <ele>240.6</ele>
        <time>2019-08-17T13:34:15Z</time>
      </trkpt>
      <trkpt lat="47.22926" lon="6.05683">
        <ele>240.6</ele>
        <time>2019-08-17T13:34:16Z</time>
      </trkpt>
      <trkpt lat="47.22922" lon="6.05678">
        <ele>240.6</ele>
        <time>2019-08-17T13:34:17Z</time>
      </trkpt>
      <trkpt lat="47.22919" lon="6.05673">
        <ele>240.7</ele>
        <time>2019-08-17T13:34:18Z</time>
      </trkpt>
      <trkpt lat="47.22916" lon="6.05668">
        <ele>240.7</ele>
        <time>2019-08-17T13:34:19Z</time>
      </trkpt>
      <trkpt lat="47.22913" lon="6.05663">
        <ele>240.7</ele>
        <time>2019-08-17T13:34:20Z</time>
      </trkpt>
      <trkpt lat="47.22909" lon="6.05659">
        <ele>240.7</ele>
        <time>2019-08-17T13:34:21Z</time>
      </trkpt>
      <trkpt lat="47.22906" lon="6.05654">
        <ele>240.7</ele>
        <time>2019-08-17T13:34:22Z</time>
      </trkpt>
      <trkpt lat="47.22903" lon="6.0565">
        <ele>240.7</ele>
        <time>2019-08-17T13:34:23Z</time>
      </trkpt>
      <trkpt lat="47.229" lon="6.05647">
        <ele>240.7</ele>
        <time>2019-08-17T13:34:24Z</time>
      </trkpt>
      <trkpt lat="47.22896" lon="6.05644">
        <ele>240.7</ele>
        <time>2019-08-17T13:34:25Z</time>
      </trkpt>
      <trkpt lat="47.22891" lon="6.05639">
        <ele>240.7</ele>
        <time>2019-08-17T13:34:27Z</time>
      </trkpt>
      <trkpt lat="47.22888" lon="6.05635">
        <ele>240.7</ele>
        <time>2019-08-17T13:34:28Z</time>
      </trkpt>
      <trkpt lat="47.22885" lon="6.05631">
        <ele>240.7</ele>
        <time>2019-08-17T13:34:29Z</time>
      </trkpt>
      <trkpt lat="47.22882" lon="6.05627">
        <ele>240.7</ele>
        <time>2019-08-17T13:34:30Z</time>
      </trkpt>
      <trkpt lat="47.22879" lon="6.05622">
        <ele>240.7</ele>
        <time>2019-08-17T13:34:31Z</time>
      </trkpt>
      <trkpt lat="47.22876" lon="6.05617">
        <ele>240.7</ele>
        <time>2019-08-17T13:34:32Z</time>
      </trkpt>
      <trkpt lat="47.22873" lon="6.05613">
        <ele>240.7</ele>
        <time>2019-08-17T13:34:33Z</time>
      </trkpt>
      <trkpt lat="47.2287" lon="6.05609">
        <ele>240.7</ele>
        <time>2019-08-17T13:34:34Z</time>
      </trkpt>
      <trkpt lat="47.22867" lon="6.05604">
        <ele>240.7</ele>
        <time>2019-08-17T13:34:35Z</time>
      </trkpt>
      <trkpt lat="47.22864" lon="6.05599">
        <ele>240.7</ele>
        <time>2019-08-17T13:34:36Z</time>
      </trkpt>
      <trkpt lat="47.2286" lon="6.05593">
        <ele>240.7</ele>
        <time>2019-08-17T13:34:37Z</time>
      </trkpt>
      <trkpt lat="47.22857" lon="6.05588">
        <ele>240.7</ele>
        <time>2019-08-17T13:34:38Z</time>
      </trkpt>
      <trkpt lat="47.22854" lon="6.05582">
        <ele>240.7</ele>
        <time>2019-08-17T13:34:39Z</time>
      </trkpt>
      <trkpt lat="47.22851" lon="6.05576">
        <ele>240.7</ele>
        <time>2019-08-17T13:34:40Z</time>
      </trkpt>
      <trkpt lat="47.22848" lon="6.0557">
        <ele>240.7</ele>
        <time>2019-08-17T13:34:41Z</time>
      </trkpt>
      <trkpt lat="47.22845" lon="6.05565">
        <ele>240.7</ele>
        <time>2019-08-17T13:34:42Z</time>
      </trkpt>
      <trkpt lat="47.22843" lon="6.05558">
        <ele>240.7</ele>
        <time>2019-08-17T13:34:43Z</time>
      </trkpt>
      <trkpt lat="47.2284" lon="6.05552">
        <ele>240.7</ele>
        <time>2019-08-17T13:34:44Z</time>
      </trkpt>
      <trkpt lat="47.22837" lon="6.05546">
        <ele>240.7</ele>
        <time>2019-08-17T13:34:45Z</time>
      </trkpt>
      <trkpt lat="47.22834" lon="6.05541">
        <ele>240.7</ele>
        <time>2019-08-17T13:34:46Z</time>
      </trkpt>
      <trkpt lat="47.22831" lon="6.05535">
        <ele>240.7</ele>
        <time>2019-08-17T13:34:47Z</time>
      </trkpt>
      <trkpt lat="47.22828" lon="6.0553">
        <ele>240.7</ele>
        <time>2019-08-17T13:34:48Z</time>
      </trkpt>
      <trkpt lat="47.22825" lon="6.05524">
        <ele>240.7</ele>
        <time>2019-08-17T13:34:49Z</time>
      </trkpt>
      <trkpt lat="47.22822" lon="6.05518">
        <ele>240.7</ele>
        <time>2019-08-17T13:34:50Z</time>
      </trkpt>
      <trkpt lat="47.22819" lon="6.05513">
        <ele>240.7</ele>
        <time>2019-08-17T13:34:51Z</time>
      </trkpt>
      <trkpt lat="47.22817" lon="6.05508">
        <ele>240.7</ele>
        <time>2019-08-17T13:34:52Z</time>
      </trkpt>
      <trkpt lat="47.22814" lon="6.05502">
        <ele>240.7</ele>
        <time>2019-08-17T13:34:53Z</time>
      </trkpt>
      <trkpt lat="47.22812" lon="6.05496">
        <ele>240.7</ele>
        <time>2019-08-17T13:34:54Z</time>
      </trkpt>
      <trkpt lat="47.22809" lon="6.05491">
        <ele>240.7</ele>
        <time>2019-08-17T13:34:55Z</time>
      </trkpt>
      <trkpt lat="47.22806" lon="6.05485">
        <ele>240.7</ele>
        <time>2019-08-17T13:34:56Z</time>
      </trkpt>
      <trkpt lat="47.22803" lon="6.0548">
        <ele>240.7</ele>
        <time>2019-08-17T13:34:57Z</time>
      </trkpt>
      <trkpt lat="47.228" lon="6.05475">
        <ele>240.7</ele>
        <time>2019-08-17T13:34:58Z</time>
      </trkpt>
      <trkpt lat="47.22797" lon="6.05469">
        <ele>240.7</ele>
        <time>2019-08-17T13:34:59Z</time>
      </trkpt>
      <trkpt lat="47.22794" lon="6.05463">
        <ele>240.7</ele>
        <time>2019-08-17T13:35:00Z</time>
      </trkpt>
      <trkpt lat="47.22791" lon="6.05457">
        <ele>240.7</ele>
        <time>2019-08-17T13:35:01Z</time>
      </trkpt>
      <trkpt lat="47.22788" lon="6.05451">
        <ele>240.7</ele>
        <time>2019-08-17T13:35:02Z</time>
      </trkpt>
      <trkpt lat="47.22785" lon="6.05446">
        <ele>240.7</ele>
        <time>2019-08-17T13:35:03Z</time>
      </trkpt>
      <trkpt lat="47.22782" lon="6.0544">
        <ele>240.7</ele>
        <time>2019-08-17T13:35:04Z</time>
      </trkpt>
      <trkpt lat="47.22779" lon="6.05435">
        <ele>240.7</ele>
        <time>2019-08-17T13:35:05Z</time>
      </trkpt>
      <trkpt lat="47.22777" lon="6.05429">
        <ele>240.7</ele>
        <time>2019-08-17T13:35:06Z</time>
      </trkpt>
      <trkpt lat="47.22774" lon="6.05424">
        <ele>240.7</ele>
        <time>2019-08-17T13:35:07Z</time>
      </trkpt>
      <trkpt lat="47.22772" lon="6.05419">
        <ele>240.8</ele>
        <time>2019-08-17T13:35:08Z</time>
      </trkpt>
      <trkpt lat="47.22769" lon="6.05415">
        <ele>240.9</ele>
        <time>2019-08-17T13:35:09Z</time>
      </trkpt>
      <trkpt lat="47.22767" lon="6.0541">
        <ele>240.9</ele>
        <time>2019-08-17T13:35:10Z</time>
      </trkpt>
      <trkpt lat="47.22765" lon="6.05405">
        <ele>241</ele>
        <time>2019-08-17T13:35:11Z</time>
      </trkpt>
      <trkpt lat="47.22763" lon="6.054">
        <ele>241.1</ele>
        <time>2019-08-17T13:35:12Z</time>
      </trkpt>
      <trkpt lat="47.2276" lon="6.05396">
        <ele>241.2</ele>
        <time>2019-08-17T13:35:13Z</time>
      </trkpt>
      <trkpt lat="47.22758" lon="6.05391">
        <ele>241.3</ele>
        <time>2019-08-17T13:35:14Z</time>
      </trkpt>
      <trkpt lat="47.22756" lon="6.05386">
        <ele>241.4</ele>
        <time>2019-08-17T13:35:15Z</time>
      </trkpt>
      <trkpt lat="47.22754" lon="6.05381">
        <ele>241.5</ele>
        <time>2019-08-17T13:35:16Z</time>
      </trkpt>
      <trkpt lat="47.22752" lon="6.05375">
        <ele>241.5</ele>
        <time>2019-08-17T13:35:17Z</time>
      </trkpt>
      <trkpt lat="47.22749" lon="6.0537">
        <ele>241.5</ele>
        <time>2019-08-17T13:35:18Z</time>
      </trkpt>
      <trkpt lat="47.22747" lon="6.05364">
        <ele>241.5</ele>
        <time>2019-08-17T13:35:19Z</time>
      </trkpt>
      <trkpt lat="47.22745" lon="6.05358">
        <ele>241.5</ele>
        <time>2019-08-17T13:35:20Z</time>
      </trkpt>
      <trkpt lat="47.22744" lon="6.05352">
        <ele>241.5</ele>
        <time>2019-08-17T13:35:21Z</time>
      </trkpt>
      <trkpt lat="47.22742" lon="6.05346">
        <ele>241.5</ele>
        <time>2019-08-17T13:35:22Z</time>
      </trkpt>
      <trkpt lat="47.2274" lon="6.05339">
        <ele>241.5</ele>
        <time>2019-08-17T13:35:23Z</time>
      </trkpt>
      <trkpt lat="47.22739" lon="6.05334">
        <ele>241.5</ele>
        <time>2019-08-17T13:35:24Z</time>
      </trkpt>
      <trkpt lat="47.22737" lon="6.05328">
        <ele>241.5</ele>
        <time>2019-08-17T13:35:25Z</time>
      </trkpt>
      <trkpt lat="47.22736" lon="6.05323">
        <ele>241.5</ele>
        <time>2019-08-17T13:35:26Z</time>
      </trkpt>
      <trkpt lat="47.22734" lon="6.05317">
        <ele>241.5</ele>
        <time>2019-08-17T13:35:27Z</time>
      </trkpt>
      <trkpt lat="47.22733" lon="6.05311">
        <ele>241.5</ele>
        <time>2019-08-17T13:35:28Z</time>
      </trkpt>
      <trkpt lat="47.2273" lon="6.05305">
        <ele>241.5</ele>
        <time>2019-08-17T13:35:29Z</time>
      </trkpt>
      <trkpt lat="47.22729" lon="6.05297">
        <ele>241.5</ele>
        <time>2019-08-17T13:35:30Z</time>
      </trkpt>
      <trkpt lat="47.22727" lon="6.05292">
        <ele>241.5</ele>
        <time>2019-08-17T13:35:31Z</time>
      </trkpt>
      <trkpt lat="47.22724" lon="6.05287">
        <ele>241.5</ele>
        <time>2019-08-17T13:35:32Z</time>
      </trkpt>
      <trkpt lat="47.22721" lon="6.05282">
        <ele>241.5</ele>
        <time>2019-08-17T13:35:33Z</time>
      </trkpt>
      <trkpt lat="47.22719" lon="6.05276">
        <ele>241.5</ele>
        <time>2019-08-17T13:35:34Z</time>
      </trkpt>
      <trkpt lat="47.22717" lon="6.05271">
        <ele>241.5</ele>
        <time>2019-08-17T13:35:35Z</time>
      </trkpt>
      <trkpt lat="47.22716" lon="6.05265">
        <ele>241.5</ele>
        <time>2019-08-17T13:35:36Z</time>
      </trkpt>
      <trkpt lat="47.22714" lon="6.05259">
        <ele>241.5</ele>
        <time>2019-08-17T13:35:37Z</time>
      </trkpt>
      <trkpt lat="47.22712" lon="6.05254">
        <ele>241.5</ele>
        <time>2019-08-17T13:35:38Z</time>
      </trkpt>
      <trkpt lat="47.22711" lon="6.05248">
        <ele>241.5</ele>
        <time>2019-08-17T13:35:39Z</time>
      </trkpt>
      <trkpt lat="47.22709" lon="6.05244">
        <ele>241.5</ele>
        <time>2019-08-17T13:35:40Z</time>
      </trkpt>
      <trkpt lat="47.22707" lon="6.05238">
        <ele>241.5</ele>
        <time>2019-08-17T13:35:41Z</time>
      </trkpt>
      <trkpt lat="47.22706" lon="6.05233">
        <ele>241.5</ele>
        <time>2019-08-17T13:35:42Z</time>
      </trkpt>
      <trkpt lat="47.22704" lon="6.05227">
        <ele>241.5</ele>
        <time>2019-08-17T13:35:43Z</time>
      </trkpt>
      <trkpt lat="47.22702" lon="6.05222">
        <ele>241.5</ele>
        <time>2019-08-17T13:35:44Z</time>
      </trkpt>
      <trkpt lat="47.22701" lon="6.05215">
        <ele>241.5</ele>
        <time>2019-08-17T13:35:45Z</time>
      </trkpt>
      <trkpt lat="47.227" lon="6.05209">
        <ele>241.5</ele>
        <time>2019-08-17T13:35:46Z</time>
      </trkpt>
      <trkpt lat="47.227" lon="6.05204">
        <ele>241.5</ele>
        <time>2019-08-17T13:35:47Z</time>
      </trkpt>
      <trkpt lat="47.22698" lon="6.05198">
        <ele>241.4</ele>
        <time>2019-08-17T13:35:48Z</time>
      </trkpt>
      <trkpt lat="47.22697" lon="6.05193">
        <ele>241.3</ele>
        <time>2019-08-17T13:35:49Z</time>
      </trkpt>
      <trkpt lat="47.22694" lon="6.05188">
        <ele>241.3</ele>
        <time>2019-08-17T13:35:50Z</time>
      </trkpt>
      <trkpt lat="47.22693" lon="6.05183">
        <ele>241.2</ele>
        <time>2019-08-17T13:35:51Z</time>
      </trkpt>
      <trkpt lat="47.22692" lon="6.05177">
        <ele>241.1</ele>
        <time>2019-08-17T13:35:52Z</time>
      </trkpt>
      <trkpt lat="47.22692" lon="6.0517">
        <ele>240.9</ele>
        <time>2019-08-17T13:35:53Z</time>
      </trkpt>
      <trkpt lat="47.2269" lon="6.05165">
        <ele>240.9</ele>
        <time>2019-08-17T13:35:54Z</time>
      </trkpt>
      <trkpt lat="47.22689" lon="6.0516">
        <ele>240.8</ele>
        <time>2019-08-17T13:35:55Z</time>
      </trkpt>
      <trkpt lat="47.22689" lon="6.05154">
        <ele>240.8</ele>
        <time>2019-08-17T13:35:56Z</time>
      </trkpt>
      <trkpt lat="47.22688" lon="6.05149">
        <ele>240.7</ele>
        <time>2019-08-17T13:35:57Z</time>
      </trkpt>
      <trkpt lat="47.22686" lon="6.05143">
        <ele>240.7</ele>
        <time>2019-08-17T13:35:58Z</time>
      </trkpt>
      <trkpt lat="47.22683" lon="6.05137">
        <ele>240.7</ele>
        <time>2019-08-17T13:35:59Z</time>
      </trkpt>
      <trkpt lat="47.22681" lon="6.0513">
        <ele>240.7</ele>
        <time>2019-08-17T13:36:00Z</time>
      </trkpt>
      <trkpt lat="47.22679" lon="6.05123">
        <ele>240.7</ele>
        <time>2019-08-17T13:36:01Z</time>
      </trkpt>
      <trkpt lat="47.22676" lon="6.05117">
        <ele>240.8</ele>
        <time>2019-08-17T13:36:02Z</time>
      </trkpt>
      <trkpt lat="47.22674" lon="6.05111">
        <ele>240.9</ele>
        <time>2019-08-17T13:36:03Z</time>
      </trkpt>
      <trkpt lat="47.22671" lon="6.05105">
        <ele>240.9</ele>
        <time>2019-08-17T13:36:04Z</time>
      </trkpt>
      <trkpt lat="47.22668" lon="6.051">
        <ele>240.9</ele>
        <time>2019-08-17T13:36:05Z</time>
      </trkpt>
      <trkpt lat="47.22666" lon="6.05094">
        <ele>241</ele>
        <time>2019-08-17T13:36:06Z</time>
      </trkpt>
      <trkpt lat="47.22665" lon="6.05087">
        <ele>241</ele>
        <time>2019-08-17T13:36:07Z</time>
      </trkpt>
      <trkpt lat="47.22663" lon="6.05081">
        <ele>240.9</ele>
        <time>2019-08-17T13:36:08Z</time>
      </trkpt>
      <trkpt lat="47.22662" lon="6.05074">
        <ele>240.9</ele>
        <time>2019-08-17T13:36:09Z</time>
      </trkpt>
      <trkpt lat="47.22661" lon="6.05069">
        <ele>240.8</ele>
        <time>2019-08-17T13:36:10Z</time>
      </trkpt>
      <trkpt lat="47.22661" lon="6.05063">
        <ele>240.8</ele>
        <time>2019-08-17T13:36:11Z</time>
      </trkpt>
      <trkpt lat="47.22659" lon="6.05057">
        <ele>240.7</ele>
        <time>2019-08-17T13:36:12Z</time>
      </trkpt>
      <trkpt lat="47.22658" lon="6.05051">
        <ele>240.7</ele>
        <time>2019-08-17T13:36:13Z</time>
      </trkpt>
      <trkpt lat="47.22656" lon="6.05045">
        <ele>240.7</ele>
        <time>2019-08-17T13:36:14Z</time>
      </trkpt>
      <trkpt lat="47.22654" lon="6.05039">
        <ele>240.6</ele>
        <time>2019-08-17T13:36:15Z</time>
      </trkpt>
      <trkpt lat="47.22652" lon="6.05032">
        <ele>240.6</ele>
        <time>2019-08-17T13:36:16Z</time>
      </trkpt>
      <trkpt lat="47.22651" lon="6.05026">
        <ele>240.6</ele>
        <time>2019-08-17T13:36:17Z</time>
      </trkpt>
      <trkpt lat="47.22649" lon="6.05019">
        <ele>240.6</ele>
        <time>2019-08-17T13:36:18Z</time>
      </trkpt>
      <trkpt lat="47.22648" lon="6.05013">
        <ele>240.6</ele>
        <time>2019-08-17T13:36:19Z</time>
      </trkpt>
      <trkpt lat="47.22646" lon="6.05007">
        <ele>240.6</ele>
        <time>2019-08-17T13:36:20Z</time>
      </trkpt>
      <trkpt lat="47.22645" lon="6.05001">
        <ele>240.6</ele>
        <time>2019-08-17T13:36:21Z</time>
      </trkpt>
      <trkpt lat="47.22644" lon="6.04994">
        <ele>240.6</ele>
        <time>2019-08-17T13:36:22Z</time>
      </trkpt>
      <trkpt lat="47.22643" lon="6.04987">
        <ele>240.6</ele>
        <time>2019-08-17T13:36:23Z</time>
      </trkpt>
      <trkpt lat="47.22641" lon="6.04982">
        <ele>240.6</ele>
        <time>2019-08-17T13:36:24Z</time>
      </trkpt>
      <trkpt lat="47.22639" lon="6.04976">
        <ele>240.6</ele>
        <time>2019-08-17T13:36:25Z</time>
      </trkpt>
      <trkpt lat="47.22636" lon="6.0497">
        <ele>240.6</ele>
        <time>2019-08-17T13:36:26Z</time>
      </trkpt>
      <trkpt lat="47.22635" lon="6.04964">
        <ele>240.6</ele>
        <time>2019-08-17T13:36:27Z</time>
      </trkpt>
      <trkpt lat="47.22634" lon="6.04957">
        <ele>240.6</ele>
        <time>2019-08-17T13:36:28Z</time>
      </trkpt>
      <trkpt lat="47.22633" lon="6.0495">
        <ele>240.6</ele>
        <time>2019-08-17T13:36:29Z</time>
      </trkpt>
      <trkpt lat="47.22632" lon="6.04944">
        <ele>240.6</ele>
        <time>2019-08-17T13:36:30Z</time>
      </trkpt>
      <trkpt lat="47.22631" lon="6.04938">
        <ele>240.6</ele>
        <time>2019-08-17T13:36:31Z</time>
      </trkpt>
      <trkpt lat="47.22629" lon="6.04932">
        <ele>240.6</ele>
        <time>2019-08-17T13:36:32Z</time>
      </trkpt>
      <trkpt lat="47.22628" lon="6.04926">
        <ele>240.6</ele>
        <time>2019-08-17T13:36:33Z</time>
      </trkpt>
      <trkpt lat="47.22626" lon="6.04921">
        <ele>240.6</ele>
        <time>2019-08-17T13:36:34Z</time>
      </trkpt>
      <trkpt lat="47.22624" lon="6.04915">
        <ele>240.6</ele>
        <time>2019-08-17T13:36:35Z</time>
      </trkpt>
      <trkpt lat="47.22624" lon="6.04908">
        <ele>240.6</ele>
        <time>2019-08-17T13:36:36Z</time>
      </trkpt>
      <trkpt lat="47.22623" lon="6.04903">
        <ele>240.6</ele>
        <time>2019-08-17T13:36:37Z</time>
      </trkpt>
      <trkpt lat="47.22622" lon="6.04897">
        <ele>240.6</ele>
        <time>2019-08-17T13:36:38Z</time>
      </trkpt>
      <trkpt lat="47.22621" lon="6.0489">
        <ele>240.6</ele>
        <time>2019-08-17T13:36:39Z</time>
      </trkpt>
      <trkpt lat="47.2262" lon="6.04883">
        <ele>240.5</ele>
        <time>2019-08-17T13:36:40Z</time>
      </trkpt>
      <trkpt lat="47.22619" lon="6.04877">
        <ele>240.4</ele>
        <time>2019-08-17T13:36:41Z</time>
      </trkpt>
      <trkpt lat="47.22617" lon="6.04871">
        <ele>240.4</ele>
        <time>2019-08-17T13:36:42Z</time>
      </trkpt>
      <trkpt lat="47.22616" lon="6.04865">
        <ele>240.2</ele>
        <time>2019-08-17T13:36:43Z</time>
      </trkpt>
      <trkpt lat="47.22614" lon="6.04859">
        <ele>240.1</ele>
        <time>2019-08-17T13:36:44Z</time>
      </trkpt>
      <trkpt lat="47.22612" lon="6.04854">
        <ele>239.9</ele>
        <time>2019-08-17T13:36:45Z</time>
      </trkpt>
      <trkpt lat="47.22611" lon="6.04848">
        <ele>239.8</ele>
        <time>2019-08-17T13:36:46Z</time>
      </trkpt>
      <trkpt lat="47.22609" lon="6.04842">
        <ele>239.7</ele>
        <time>2019-08-17T13:36:47Z</time>
      </trkpt>
      <trkpt lat="47.22608" lon="6.04836">
        <ele>239.6</ele>
        <time>2019-08-17T13:36:48Z</time>
      </trkpt>
      <trkpt lat="47.22607" lon="6.0483">
        <ele>239.6</ele>
        <time>2019-08-17T13:36:49Z</time>
      </trkpt>
      <trkpt lat="47.22607" lon="6.04824">
        <ele>239.6</ele>
        <time>2019-08-17T13:36:50Z</time>
      </trkpt>
      <trkpt lat="47.22606" lon="6.04817">
        <ele>239.5</ele>
        <time>2019-08-17T13:36:51Z</time>
      </trkpt>
      <trkpt lat="47.22605" lon="6.04811">
        <ele>239.5</ele>
        <time>2019-08-17T13:36:52Z</time>
      </trkpt>
      <trkpt lat="47.22604" lon="6.04805">
        <ele>239.5</ele>
        <time>2019-08-17T13:36:53Z</time>
      </trkpt>
      <trkpt lat="47.22604" lon="6.04798">
        <ele>239.5</ele>
        <time>2019-08-17T13:36:54Z</time>
      </trkpt>
      <trkpt lat="47.22603" lon="6.04792">
        <ele>239.5</ele>
        <time>2019-08-17T13:36:55Z</time>
      </trkpt>
      <trkpt lat="47.22602" lon="6.04785">
        <ele>239.5</ele>
        <time>2019-08-17T13:36:56Z</time>
      </trkpt>
      <trkpt lat="47.22601" lon="6.04779">
        <ele>239.5</ele>
        <time>2019-08-17T13:36:57Z</time>
      </trkpt>
      <trkpt lat="47.226" lon="6.04773">
        <ele>239.5</ele>
        <time>2019-08-17T13:36:58Z</time>
      </trkpt>
      <trkpt lat="47.22599" lon="6.04766">
        <ele>239.5</ele>
        <time>2019-08-17T13:36:59Z</time>
      </trkpt>
      <trkpt lat="47.22599" lon="6.04759">
        <ele>239.5</ele>
        <time>2019-08-17T13:37:00Z</time>
      </trkpt>
      <trkpt lat="47.22599" lon="6.04751">
        <ele>239.5</ele>
        <time>2019-08-17T13:37:01Z</time>
      </trkpt>
      <trkpt lat="47.22598" lon="6.04744">
        <ele>239.5</ele>
        <time>2019-08-17T13:37:02Z</time>
      </trkpt>
      <trkpt lat="47.22597" lon="6.04738">
        <ele>239.5</ele>
        <time>2019-08-17T13:37:03Z</time>
      </trkpt>
      <trkpt lat="47.22596" lon="6.04731">
        <ele>239.5</ele>
        <time>2019-08-17T13:37:04Z</time>
      </trkpt>
      <trkpt lat="47.22595" lon="6.04724">
        <ele>239.5</ele>
        <time>2019-08-17T13:37:05Z</time>
      </trkpt>
      <trkpt lat="47.22593" lon="6.04717">
        <ele>239.5</ele>
        <time>2019-08-17T13:37:06Z</time>
      </trkpt>
      <trkpt lat="47.22591" lon="6.04711">
        <ele>239.5</ele>
        <time>2019-08-17T13:37:07Z</time>
      </trkpt>
      <trkpt lat="47.2259" lon="6.04706">
        <ele>239.5</ele>
        <time>2019-08-17T13:37:08Z</time>
      </trkpt>
      <trkpt lat="47.22588" lon="6.04701">
        <ele>239.5</ele>
        <time>2019-08-17T13:37:09Z</time>
      </trkpt>
      <trkpt lat="47.22588" lon="6.04693">
        <ele>239.5</ele>
        <time>2019-08-17T13:37:10Z</time>
      </trkpt>
      <trkpt lat="47.22587" lon="6.04685">
        <ele>239.5</ele>
        <time>2019-08-17T13:37:11Z</time>
      </trkpt>
      <trkpt lat="47.22586" lon="6.04678">
        <ele>239.5</ele>
        <time>2019-08-17T13:37:12Z</time>
      </trkpt>
      <trkpt lat="47.22585" lon="6.04671">
        <ele>239.5</ele>
        <time>2019-08-17T13:37:13Z</time>
      </trkpt>
      <trkpt lat="47.22586" lon="6.04666">
        <ele>239.5</ele>
        <time>2019-08-17T13:37:14Z</time>
      </trkpt>
      <trkpt lat="47.22587" lon="6.04659">
        <ele>239.5</ele>
        <time>2019-08-17T13:37:15Z</time>
      </trkpt>
      <trkpt lat="47.22587" lon="6.04652">
        <ele>239.5</ele>
        <time>2019-08-17T13:37:16Z</time>
      </trkpt>
      <trkpt lat="47.22586" lon="6.04646">
        <ele>239.5</ele>
        <time>2019-08-17T13:37:17Z</time>
      </trkpt>
      <trkpt lat="47.22585" lon="6.04639">
        <ele>239.5</ele>
        <time>2019-08-17T13:37:18Z</time>
      </trkpt>
      <trkpt lat="47.22585" lon="6.04632">
        <ele>239.5</ele>
        <time>2019-08-17T13:37:19Z</time>
      </trkpt>
      <trkpt lat="47.22583" lon="6.04626">
        <ele>239.5</ele>
        <time>2019-08-17T13:37:20Z</time>
      </trkpt>
      <trkpt lat="47.22583" lon="6.0462">
        <ele>239.5</ele>
        <time>2019-08-17T13:37:21Z</time>
      </trkpt>
      <trkpt lat="47.22582" lon="6.04614">
        <ele>239.5</ele>
        <time>2019-08-17T13:37:22Z</time>
      </trkpt>
      <trkpt lat="47.22582" lon="6.04608">
        <ele>239.5</ele>
        <time>2019-08-17T13:37:23Z</time>
      </trkpt>
      <trkpt lat="47.22581" lon="6.04601">
        <ele>239.5</ele>
        <time>2019-08-17T13:37:24Z</time>
      </trkpt>
      <trkpt lat="47.2258" lon="6.04596">
        <ele>239.5</ele>
        <time>2019-08-17T13:37:25Z</time>
      </trkpt>
      <trkpt lat="47.22579" lon="6.04589">
        <ele>239.5</ele>
        <time>2019-08-17T13:37:26Z</time>
      </trkpt>
      <trkpt lat="47.22579" lon="6.04582">
        <ele>239.5</ele>
        <time>2019-08-17T13:37:27Z</time>
      </trkpt>
      <trkpt lat="47.22579" lon="6.04575">
        <ele>239.5</ele>
        <time>2019-08-17T13:37:28Z</time>
      </trkpt>
      <trkpt lat="47.22578" lon="6.04568">
        <ele>239.5</ele>
        <time>2019-08-17T13:37:29Z</time>
      </trkpt>
      <trkpt lat="47.22578" lon="6.04561">
        <ele>239.5</ele>
        <time>2019-08-17T13:37:30Z</time>
      </trkpt>
      <trkpt lat="47.22578" lon="6.04555">
        <ele>239.5</ele>
        <time>2019-08-17T13:37:31Z</time>
      </trkpt>
      <trkpt lat="47.22578" lon="6.04548">
        <ele>239.5</ele>
        <time>2019-08-17T13:37:32Z</time>
      </trkpt>
      <trkpt lat="47.22578" lon="6.0454">
        <ele>239.5</ele>
        <time>2019-08-17T13:37:33Z</time>
      </trkpt>
      <trkpt lat="47.22577" lon="6.04534">
        <ele>239.5</ele>
        <time>2019-08-17T13:37:34Z</time>
      </trkpt>
      <trkpt lat="47.22576" lon="6.04528">
        <ele>239.5</ele>
        <time>2019-08-17T13:37:35Z</time>
      </trkpt>
      <trkpt lat="47.22576" lon="6.04522">
        <ele>239.5</ele>
        <time>2019-08-17T13:37:36Z</time>
      </trkpt>
      <trkpt lat="47.22576" lon="6.04516">
        <ele>239.5</ele>
        <time>2019-08-17T13:37:37Z</time>
      </trkpt>
      <trkpt lat="47.22576" lon="6.0451">
        <ele>239.5</ele>
        <time>2019-08-17T13:37:38Z</time>
      </trkpt>
      <trkpt lat="47.22577" lon="6.04504">
        <ele>239.5</ele>
        <time>2019-08-17T13:37:39Z</time>
      </trkpt>
      <trkpt lat="47.22576" lon="6.04496">
        <ele>239.5</ele>
        <time>2019-08-17T13:37:40Z</time>
      </trkpt>
      <trkpt lat="47.22576" lon="6.04489">
        <ele>239.5</ele>
        <time>2019-08-17T13:37:41Z</time>
      </trkpt>
      <trkpt lat="47.22576" lon="6.04482">
        <ele>239.5</ele>
        <time>2019-08-17T13:37:42Z</time>
      </trkpt>
      <trkpt lat="47.22576" lon="6.04474">
        <ele>239.5</ele>
        <time>2019-08-17T13:37:43Z</time>
      </trkpt>
      <trkpt lat="47.22577" lon="6.04467">
        <ele>239.5</ele>
        <time>2019-08-17T13:37:44Z</time>
      </trkpt>
      <trkpt lat="47.22577" lon="6.04459">
        <ele>239.5</ele>
        <time>2019-08-17T13:37:45Z</time>
      </trkpt>
      <trkpt lat="47.22578" lon="6.04452">
        <ele>239.5</ele>
        <time>2019-08-17T13:37:46Z</time>
      </trkpt>
      <trkpt lat="47.2258" lon="6.04446">
        <ele>239.5</ele>
        <time>2019-08-17T13:37:47Z</time>
      </trkpt>
      <trkpt lat="47.22581" lon="6.04439">
        <ele>239.5</ele>
        <time>2019-08-17T13:37:48Z</time>
      </trkpt>
      <trkpt lat="47.22581" lon="6.04432">
        <ele>239.5</ele>
        <time>2019-08-17T13:37:49Z</time>
      </trkpt>
      <trkpt lat="47.22583" lon="6.04425">
        <ele>239.5</ele>
        <time>2019-08-17T13:37:50Z</time>
      </trkpt>
      <trkpt lat="47.22584" lon="6.04419">
        <ele>239.5</ele>
        <time>2019-08-17T13:37:51Z</time>
      </trkpt>
      <trkpt lat="47.22586" lon="6.04412">
        <ele>239.5</ele>
        <time>2019-08-17T13:37:52Z</time>
      </trkpt>
      <trkpt lat="47.22587" lon="6.04406">
        <ele>239.5</ele>
        <time>2019-08-17T13:37:53Z</time>
      </trkpt>
      <trkpt lat="47.22588" lon="6.04399">
        <ele>239.5</ele>
        <time>2019-08-17T13:37:54Z</time>
      </trkpt>
      <trkpt lat="47.22588" lon="6.04392">
        <ele>239.5</ele>
        <time>2019-08-17T13:37:55Z</time>
      </trkpt>
      <trkpt lat="47.22589" lon="6.04386">
        <ele>239.5</ele>
        <time>2019-08-17T13:37:56Z</time>
      </trkpt>
      <trkpt lat="47.22591" lon="6.04378">
        <ele>239.5</ele>
        <time>2019-08-17T13:37:57Z</time>
      </trkpt>
      <trkpt lat="47.22594" lon="6.0437">
        <ele>239.5</ele>
        <time>2019-08-17T13:37:58Z</time>
      </trkpt>
      <trkpt lat="47.22596" lon="6.04363">
        <ele>239.5</ele>
        <time>2019-08-17T13:37:59Z</time>
      </trkpt>
      <trkpt lat="47.22597" lon="6.04356">
        <ele>239.4</ele>
        <time>2019-08-17T13:38:00Z</time>
      </trkpt>
      <trkpt lat="47.22598" lon="6.04349">
        <ele>239.3</ele>
        <time>2019-08-17T13:38:01Z</time>
      </trkpt>
      <trkpt lat="47.22599" lon="6.04342">
        <ele>239.2</ele>
        <time>2019-08-17T13:38:02Z</time>
      </trkpt>
      <trkpt lat="47.226" lon="6.04336">
        <ele>239.1</ele>
        <time>2019-08-17T13:38:03Z</time>
      </trkpt>
      <trkpt lat="47.22601" lon="6.0433">
        <ele>239</ele>
        <time>2019-08-17T13:38:04Z</time>
      </trkpt>
      <trkpt lat="47.22602" lon="6.04324">
        <ele>238.9</ele>
        <time>2019-08-17T13:38:05Z</time>
      </trkpt>
      <trkpt lat="47.22603" lon="6.04318">
        <ele>238.9</ele>
        <time>2019-08-17T13:38:06Z</time>
      </trkpt>
      <trkpt lat="47.22605" lon="6.04312">
        <ele>238.8</ele>
        <time>2019-08-17T13:38:07Z</time>
      </trkpt>
      <trkpt lat="47.22606" lon="6.04306">
        <ele>238.7</ele>
        <time>2019-08-17T13:38:08Z</time>
      </trkpt>
      <trkpt lat="47.22607" lon="6.043">
        <ele>238.7</ele>
        <time>2019-08-17T13:38:09Z</time>
      </trkpt>
      <trkpt lat="47.22608" lon="6.04293">
        <ele>238.6</ele>
        <time>2019-08-17T13:38:10Z</time>
      </trkpt>
      <trkpt lat="47.2261" lon="6.04287">
        <ele>238.6</ele>
        <time>2019-08-17T13:38:11Z</time>
      </trkpt>
      <trkpt lat="47.22612" lon="6.04281">
        <ele>238.6</ele>
        <time>2019-08-17T13:38:12Z</time>
      </trkpt>
      <trkpt lat="47.22614" lon="6.04275">
        <ele>238.6</ele>
        <time>2019-08-17T13:38:13Z</time>
      </trkpt>
      <trkpt lat="47.22615" lon="6.04269">
        <ele>238.6</ele>
        <time>2019-08-17T13:38:14Z</time>
      </trkpt>
      <trkpt lat="47.22618" lon="6.04263">
        <ele>238.6</ele>
        <time>2019-08-17T13:38:15Z</time>
      </trkpt>
      <trkpt lat="47.22621" lon="6.04256">
        <ele>238.6</ele>
        <time>2019-08-17T13:38:16Z</time>
      </trkpt>
      <trkpt lat="47.22624" lon="6.0425">
        <ele>238.6</ele>
        <time>2019-08-17T13:38:17Z</time>
      </trkpt>
      <trkpt lat="47.22627" lon="6.04243">
        <ele>238.6</ele>
        <time>2019-08-17T13:38:18Z</time>
      </trkpt>
      <trkpt lat="47.2263" lon="6.04237">
        <ele>238.6</ele>
        <time>2019-08-17T13:38:19Z</time>
      </trkpt>
      <trkpt lat="47.22632" lon="6.04231">
        <ele>238.6</ele>
        <time>2019-08-17T13:38:20Z</time>
      </trkpt>
      <trkpt lat="47.22633" lon="6.04225">
        <ele>238.6</ele>
        <time>2019-08-17T13:38:21Z</time>
      </trkpt>
      <trkpt lat="47.22635" lon="6.04219">
        <ele>238.6</ele>
        <time>2019-08-17T13:38:22Z</time>
      </trkpt>
      <trkpt lat="47.22637" lon="6.04211">
        <ele>238.6</ele>
        <time>2019-08-17T13:38:23Z</time>
      </trkpt>
      <trkpt lat="47.2264" lon="6.04203">
        <ele>238.6</ele>
        <time>2019-08-17T13:38:24Z</time>
      </trkpt>
      <trkpt lat="47.22642" lon="6.04196">
        <ele>238.6</ele>
        <time>2019-08-17T13:38:25Z</time>
      </trkpt>
      <trkpt lat="47.22643" lon="6.04189">
        <ele>238.6</ele>
        <time>2019-08-17T13:38:26Z</time>
      </trkpt>
      <trkpt lat="47.22645" lon="6.04183">
        <ele>238.5</ele>
        <time>2019-08-17T13:38:27Z</time>
      </trkpt>
      <trkpt lat="47.22647" lon="6.04176">
        <ele>238.4</ele>
        <time>2019-08-17T13:38:28Z</time>
      </trkpt>
      <trkpt lat="47.22648" lon="6.04169">
        <ele>238.3</ele>
        <time>2019-08-17T13:38:29Z</time>
      </trkpt>
      <trkpt lat="47.2265" lon="6.04162">
        <ele>238.2</ele>
        <time>2019-08-17T13:38:30Z</time>
      </trkpt>
      <trkpt lat="47.22653" lon="6.04156">
        <ele>238.1</ele>
        <time>2019-08-17T13:38:31Z</time>
      </trkpt>
      <trkpt lat="47.22656" lon="6.0415">
        <ele>237.9</ele>
        <time>2019-08-17T13:38:32Z</time>
      </trkpt>
      <trkpt lat="47.22659" lon="6.04143">
        <ele>237.8</ele>
        <time>2019-08-17T13:38:33Z</time>
      </trkpt>
      <trkpt lat="47.22662" lon="6.04137">
        <ele>237.7</ele>
        <time>2019-08-17T13:38:34Z</time>
      </trkpt>
      <trkpt lat="47.22665" lon="6.04131">
        <ele>237.6</ele>
        <time>2019-08-17T13:38:35Z</time>
      </trkpt>
      <trkpt lat="47.22667" lon="6.04125">
        <ele>237.6</ele>
        <time>2019-08-17T13:38:36Z</time>
      </trkpt>
      <trkpt lat="47.2267" lon="6.04118">
        <ele>237.5</ele>
        <time>2019-08-17T13:38:37Z</time>
      </trkpt>
      <trkpt lat="47.22672" lon="6.04111">
        <ele>237.5</ele>
        <time>2019-08-17T13:38:38Z</time>
      </trkpt>
      <trkpt lat="47.22674" lon="6.04105">
        <ele>237.5</ele>
        <time>2019-08-17T13:38:39Z</time>
      </trkpt>
      <trkpt lat="47.22676" lon="6.04099">
        <ele>237.5</ele>
        <time>2019-08-17T13:38:40Z</time>
      </trkpt>
      <trkpt lat="47.22679" lon="6.04093">
        <ele>237.5</ele>
        <time>2019-08-17T13:38:41Z</time>
      </trkpt>
      <trkpt lat="47.22682" lon="6.04087">
        <ele>237.5</ele>
        <time>2019-08-17T13:38:42Z</time>
      </trkpt>
      <trkpt lat="47.22684" lon="6.04081">
        <ele>237.5</ele>
        <time>2019-08-17T13:38:43Z</time>
      </trkpt>
      <trkpt lat="47.22686" lon="6.04076">
        <ele>237.5</ele>
        <time>2019-08-17T13:38:44Z</time>
      </trkpt>
      <trkpt lat="47.2269" lon="6.0407">
        <ele>237.5</ele>
        <time>2019-08-17T13:38:45Z</time>
      </trkpt>
      <trkpt lat="47.22693" lon="6.04064">
        <ele>237.5</ele>
        <time>2019-08-17T13:38:46Z</time>
      </trkpt>
      <trkpt lat="47.22696" lon="6.04058">
        <ele>237.5</ele>
        <time>2019-08-17T13:38:47Z</time>
      </trkpt>
      <trkpt lat="47.22699" lon="6.04053">
        <ele>237.5</ele>
        <time>2019-08-17T13:38:48Z</time>
      </trkpt>
      <trkpt lat="47.22701" lon="6.04047">
        <ele>237.5</ele>
        <time>2019-08-17T13:38:49Z</time>
      </trkpt>
      <trkpt lat="47.22704" lon="6.0404">
        <ele>237.5</ele>
        <time>2019-08-17T13:38:50Z</time>
      </trkpt>
      <trkpt lat="47.22706" lon="6.04034">
        <ele>237.5</ele>
        <time>2019-08-17T13:38:51Z</time>
      </trkpt>
      <trkpt lat="47.22709" lon="6.04027">
        <ele>237.5</ele>
        <time>2019-08-17T13:38:52Z</time>
      </trkpt>
      <trkpt lat="47.22712" lon="6.0402">
        <ele>237.5</ele>
        <time>2019-08-17T13:38:53Z</time>
      </trkpt>
      <trkpt lat="47.22714" lon="6.04014">
        <ele>237.5</ele>
        <time>2019-08-17T13:38:54Z</time>
      </trkpt>
      <trkpt lat="47.22716" lon="6.04008">
        <ele>237.5</ele>
        <time>2019-08-17T13:38:55Z</time>
      </trkpt>
      <trkpt lat="47.22719" lon="6.04002">
        <ele>237.5</ele>
        <time>2019-08-17T13:38:56Z</time>
      </trkpt>
      <trkpt lat="47.22722" lon="6.03996">
        <ele>237.5</ele>
        <time>2019-08-17T13:38:57Z</time>
      </trkpt>
      <trkpt lat="47.22725" lon="6.0399">
        <ele>237.5</ele>
        <time>2019-08-17T13:38:58Z</time>
      </trkpt>
      <trkpt lat="47.22728" lon="6.03984">
        <ele>237.5</ele>
        <time>2019-08-17T13:38:59Z</time>
      </trkpt>
      <trkpt lat="47.22731" lon="6.03977">
        <ele>237.5</ele>
        <time>2019-08-17T13:39:00Z</time>
      </trkpt>
      <trkpt lat="47.22733" lon="6.03971">
        <ele>237.5</ele>
        <time>2019-08-17T13:39:01Z</time>
      </trkpt>
      <trkpt lat="47.22736" lon="6.03965">
        <ele>237.5</ele>
        <time>2019-08-17T13:39:02Z</time>
      </trkpt>
      <trkpt lat="47.2274" lon="6.0396">
        <ele>237.5</ele>
        <time>2019-08-17T13:39:03Z</time>
      </trkpt>
      <trkpt lat="47.22742" lon="6.03955">
        <ele>237.5</ele>
        <time>2019-08-17T13:39:04Z</time>
      </trkpt>
      <trkpt lat="47.22745" lon="6.03949">
        <ele>237.6</ele>
        <time>2019-08-17T13:39:05Z</time>
      </trkpt>
      <trkpt lat="47.22749" lon="6.03943">
        <ele>237.6</ele>
        <time>2019-08-17T13:39:06Z</time>
      </trkpt>
      <trkpt lat="47.22752" lon="6.03937">
        <ele>237.8</ele>
        <time>2019-08-17T13:39:07Z</time>
      </trkpt>
      <trkpt lat="47.22755" lon="6.0393">
        <ele>238.1</ele>
        <time>2019-08-17T13:39:08Z</time>
      </trkpt>
      <trkpt lat="47.22758" lon="6.03924">
        <ele>238.5</ele>
        <time>2019-08-17T13:39:09Z</time>
      </trkpt>
      <trkpt lat="47.22761" lon="6.03918">
        <ele>239</ele>
        <time>2019-08-17T13:39:10Z</time>
      </trkpt>
      <trkpt lat="47.22768" lon="6.03913">
        <ele>239.8</ele>
        <time>2019-08-17T13:39:11Z</time>
      </trkpt>
      <trkpt lat="47.22772" lon="6.03909">
        <ele>240.5</ele>
        <time>2019-08-17T13:39:12Z</time>
      </trkpt>
      <trkpt lat="47.22776" lon="6.03906">
        <ele>241.2</ele>
        <time>2019-08-17T13:39:13Z</time>
      </trkpt>
      <trkpt lat="47.2278" lon="6.03904">
        <ele>241.5</ele>
        <time>2019-08-17T13:39:14Z</time>
      </trkpt>
      <trkpt lat="47.22784" lon="6.03901">
        <ele>241.6</ele>
        <time>2019-08-17T13:39:15Z</time>
      </trkpt>
      <trkpt lat="47.22787" lon="6.03898">
        <ele>241.7</ele>
        <time>2019-08-17T13:39:16Z</time>
      </trkpt>
      <trkpt lat="47.22791" lon="6.03895">
        <ele>241.8</ele>
        <time>2019-08-17T13:39:17Z</time>
      </trkpt>
      <trkpt lat="47.22795" lon="6.03892">
        <ele>241.8</ele>
        <time>2019-08-17T13:39:18Z</time>
      </trkpt>
      <trkpt lat="47.228" lon="6.03888">
        <ele>241.9</ele>
        <time>2019-08-17T13:39:19Z</time>
      </trkpt>
      <trkpt lat="47.22806" lon="6.03885">
        <ele>242.1</ele>
        <time>2019-08-17T13:39:20Z</time>
      </trkpt>
      <trkpt lat="47.22811" lon="6.03882">
        <ele>242.2</ele>
        <time>2019-08-17T13:39:21Z</time>
      </trkpt>
      <trkpt lat="47.22816" lon="6.03879">
        <ele>242.3</ele>
        <time>2019-08-17T13:39:22Z</time>
      </trkpt>
      <trkpt lat="47.22821" lon="6.03876">
        <ele>242.5</ele>
        <time>2019-08-17T13:39:23Z</time>
      </trkpt>
      <trkpt lat="47.22826" lon="6.03873">
        <ele>242.7</ele>
        <time>2019-08-17T13:39:24Z</time>
      </trkpt>
      <trkpt lat="47.2283" lon="6.03869">
        <ele>242.9</ele>
        <time>2019-08-17T13:39:25Z</time>
      </trkpt>
      <trkpt lat="47.22835" lon="6.03866">
        <ele>243.2</ele>
        <time>2019-08-17T13:39:26Z</time>
      </trkpt>
      <trkpt lat="47.2284" lon="6.03863">
        <ele>243.4</ele>
        <time>2019-08-17T13:39:27Z</time>
      </trkpt>
      <trkpt lat="47.22844" lon="6.03863">
        <ele>243.6</ele>
        <time>2019-08-17T13:39:28Z</time>
      </trkpt>
      <trkpt lat="47.22848" lon="6.03862">
        <ele>243.8</ele>
        <time>2019-08-17T13:39:29Z</time>
      </trkpt>
      <trkpt lat="47.22852" lon="6.03862">
        <ele>243.8</ele>
        <time>2019-08-17T13:39:30Z</time>
      </trkpt>
      <trkpt lat="47.22854" lon="6.03861">
        <ele>243.8</ele>
        <time>2019-08-17T13:39:31Z</time>
      </trkpt>
      <trkpt lat="47.22858" lon="6.03859">
        <ele>243.8</ele>
        <time>2019-08-17T13:39:32Z</time>
      </trkpt>
      <trkpt lat="47.22861" lon="6.03857">
        <ele>243.7</ele>
        <time>2019-08-17T13:39:33Z</time>
      </trkpt>
      <trkpt lat="47.22864" lon="6.03856">
        <ele>243.7</ele>
        <time>2019-08-17T13:39:34Z</time>
      </trkpt>
      <trkpt lat="47.22867" lon="6.03855">
        <ele>243.6</ele>
        <time>2019-08-17T13:39:35Z</time>
      </trkpt>
      <trkpt lat="47.22871" lon="6.03855">
        <ele>243.5</ele>
        <time>2019-08-17T13:39:36Z</time>
      </trkpt>
      <trkpt lat="47.22875" lon="6.03855">
        <ele>243.3</ele>
        <time>2019-08-17T13:39:37Z</time>
      </trkpt>
      <trkpt lat="47.22879" lon="6.03853">
        <ele>243.1</ele>
        <time>2019-08-17T13:39:38Z</time>
      </trkpt>
      <trkpt lat="47.22883" lon="6.03849">
        <ele>242.9</ele>
        <time>2019-08-17T13:39:39Z</time>
      </trkpt>
      <trkpt lat="47.22887" lon="6.03846">
        <ele>242.8</ele>
        <time>2019-08-17T13:39:40Z</time>
      </trkpt>
      <trkpt lat="47.2289" lon="6.03843">
        <ele>242.7</ele>
        <time>2019-08-17T13:39:41Z</time>
      </trkpt>
      <trkpt lat="47.22894" lon="6.03839">
        <ele>242.5</ele>
        <time>2019-08-17T13:39:42Z</time>
      </trkpt>
      <trkpt lat="47.22897" lon="6.03836">
        <ele>242.4</ele>
        <time>2019-08-17T13:39:43Z</time>
      </trkpt>
      <trkpt lat="47.22902" lon="6.03833">
        <ele>242.3</ele>
        <time>2019-08-17T13:39:44Z</time>
      </trkpt>
      <trkpt lat="47.22906" lon="6.03831">
        <ele>242.2</ele>
        <time>2019-08-17T13:39:45Z</time>
      </trkpt>
      <trkpt lat="47.2291" lon="6.03828">
        <ele>242.1</ele>
        <time>2019-08-17T13:39:46Z</time>
      </trkpt>
      <trkpt lat="47.22913" lon="6.03824">
        <ele>241.9</ele>
        <time>2019-08-17T13:39:47Z</time>
      </trkpt>
      <trkpt lat="47.22917" lon="6.03819">
        <ele>241.7</ele>
        <time>2019-08-17T13:39:48Z</time>
      </trkpt>
      <trkpt lat="47.22921" lon="6.03816">
        <ele>241.6</ele>
        <time>2019-08-17T13:39:49Z</time>
      </trkpt>
      <trkpt lat="47.22924" lon="6.03812">
        <ele>241.4</ele>
        <time>2019-08-17T13:39:50Z</time>
      </trkpt>
      <trkpt lat="47.22928" lon="6.0381">
        <ele>241.3</ele>
        <time>2019-08-17T13:39:51Z</time>
      </trkpt>
      <trkpt lat="47.22932" lon="6.03809">
        <ele>241.1</ele>
        <time>2019-08-17T13:39:52Z</time>
      </trkpt>
      <trkpt lat="47.22936" lon="6.03807">
        <ele>240.9</ele>
        <time>2019-08-17T13:39:53Z</time>
      </trkpt>
      <trkpt lat="47.2294" lon="6.03804">
        <ele>240.7</ele>
        <time>2019-08-17T13:39:54Z</time>
      </trkpt>
      <trkpt lat="47.22944" lon="6.03799">
        <ele>240.5</ele>
        <time>2019-08-17T13:39:55Z</time>
      </trkpt>
      <trkpt lat="47.22948" lon="6.03796">
        <ele>240.3</ele>
        <time>2019-08-17T13:39:56Z</time>
      </trkpt>
      <trkpt lat="47.22952" lon="6.03793">
        <ele>240</ele>
        <time>2019-08-17T13:39:57Z</time>
      </trkpt>
      <trkpt lat="47.22956" lon="6.0379">
        <ele>239.8</ele>
        <time>2019-08-17T13:39:58Z</time>
      </trkpt>
      <trkpt lat="47.22959" lon="6.03786">
        <ele>239.6</ele>
        <time>2019-08-17T13:39:59Z</time>
      </trkpt>
      <trkpt lat="47.22963" lon="6.03783">
        <ele>239.4</ele>
        <time>2019-08-17T13:40:00Z</time>
      </trkpt>
      <trkpt lat="47.22966" lon="6.03779">
        <ele>239.2</ele>
        <time>2019-08-17T13:40:01Z</time>
      </trkpt>
      <trkpt lat="47.2297" lon="6.03775">
        <ele>239</ele>
        <time>2019-08-17T13:40:02Z</time>
      </trkpt>
      <trkpt lat="47.22973" lon="6.03771">
        <ele>238.7</ele>
        <time>2019-08-17T13:40:03Z</time>
      </trkpt>
      <trkpt lat="47.22977" lon="6.03768">
        <ele>238.5</ele>
        <time>2019-08-17T13:40:04Z</time>
      </trkpt>
      <trkpt lat="47.2298" lon="6.03764">
        <ele>238.3</ele>
        <time>2019-08-17T13:40:05Z</time>
      </trkpt>
      <trkpt lat="47.22984" lon="6.03761">
        <ele>238.1</ele>
        <time>2019-08-17T13:40:06Z</time>
      </trkpt>
      <trkpt lat="47.22988" lon="6.03757">
        <ele>238</ele>
        <time>2019-08-17T13:40:07Z</time>
      </trkpt>
      <trkpt lat="47.22992" lon="6.03752">
        <ele>237.8</ele>
        <time>2019-08-17T13:40:08Z</time>
      </trkpt>
      <trkpt lat="47.22996" lon="6.03749">
        <ele>237.7</ele>
        <time>2019-08-17T13:40:09Z</time>
      </trkpt>
      <trkpt lat="47.23" lon="6.03746">
        <ele>237.6</ele>
        <time>2019-08-17T13:40:10Z</time>
      </trkpt>
      <trkpt lat="47.23003" lon="6.03743">
        <ele>237.7</ele>
        <time>2019-08-17T13:40:11Z</time>
      </trkpt>
      <trkpt lat="47.23007" lon="6.03741">
        <ele>237.7</ele>
        <time>2019-08-17T13:40:12Z</time>
      </trkpt>
      <trkpt lat="47.2301" lon="6.03738">
        <ele>237.9</ele>
        <time>2019-08-17T13:40:13Z</time>
      </trkpt>
      <trkpt lat="47.23014" lon="6.03733">
        <ele>238.3</ele>
        <time>2019-08-17T13:40:14Z</time>
      </trkpt>
      <trkpt lat="47.23018" lon="6.0373">
        <ele>238.3</ele>
        <time>2019-08-17T13:40:15Z</time>
      </trkpt>
      <trkpt lat="47.23021" lon="6.03726">
        <ele>238.4</ele>
        <time>2019-08-17T13:40:16Z</time>
      </trkpt>
      <trkpt lat="47.23025" lon="6.03721">
        <ele>238.5</ele>
        <time>2019-08-17T13:40:17Z</time>
      </trkpt>
      <trkpt lat="47.23029" lon="6.03716">
        <ele>238.5</ele>
        <time>2019-08-17T13:40:18Z</time>
      </trkpt>
      <trkpt lat="47.23033" lon="6.03711">
        <ele>238.6</ele>
        <time>2019-08-17T13:40:19Z</time>
      </trkpt>
      <trkpt lat="47.23037" lon="6.03708">
        <ele>238.6</ele>
        <time>2019-08-17T13:40:20Z</time>
      </trkpt>
      <trkpt lat="47.23041" lon="6.03705">
        <ele>238.7</ele>
        <time>2019-08-17T13:40:21Z</time>
      </trkpt>
      <trkpt lat="47.23045" lon="6.03701">
        <ele>238.8</ele>
        <time>2019-08-17T13:40:22Z</time>
      </trkpt>
      <trkpt lat="47.23048" lon="6.03697">
        <ele>238.9</ele>
        <time>2019-08-17T13:40:23Z</time>
      </trkpt>
      <trkpt lat="47.23052" lon="6.03694">
        <ele>239</ele>
        <time>2019-08-17T13:40:24Z</time>
      </trkpt>
      <trkpt lat="47.23055" lon="6.03692">
        <ele>239.1</ele>
        <time>2019-08-17T13:40:25Z</time>
      </trkpt>
      <trkpt lat="47.23058" lon="6.03689">
        <ele>239.2</ele>
        <time>2019-08-17T13:40:26Z</time>
      </trkpt>
      <trkpt lat="47.23061" lon="6.03686">
        <ele>239.3</ele>
        <time>2019-08-17T13:40:27Z</time>
      </trkpt>
      <trkpt lat="47.23065" lon="6.03684">
        <ele>239.4</ele>
        <time>2019-08-17T13:40:28Z</time>
      </trkpt>
      <trkpt lat="47.23069" lon="6.03681">
        <ele>239.5</ele>
        <time>2019-08-17T13:40:29Z</time>
      </trkpt>
      <trkpt lat="47.23073" lon="6.03679">
        <ele>239.6</ele>
        <time>2019-08-17T13:40:30Z</time>
      </trkpt>
      <trkpt lat="47.23077" lon="6.03677">
        <ele>239.8</ele>
        <time>2019-08-17T13:40:31Z</time>
      </trkpt>
      <trkpt lat="47.23081" lon="6.03676">
        <ele>240</ele>
        <time>2019-08-17T13:40:32Z</time>
      </trkpt>
      <trkpt lat="47.23086" lon="6.03675">
        <ele>240.2</ele>
        <time>2019-08-17T13:40:33Z</time>
      </trkpt>
      <trkpt lat="47.23089" lon="6.03672">
        <ele>240.3</ele>
        <time>2019-08-17T13:40:34Z</time>
      </trkpt>
      <trkpt lat="47.23092" lon="6.03669">
        <ele>240.4</ele>
        <time>2019-08-17T13:40:35Z</time>
      </trkpt>
      <trkpt lat="47.23094" lon="6.03666">
        <ele>240.6</ele>
        <time>2019-08-17T13:40:36Z</time>
      </trkpt>
      <trkpt lat="47.23097" lon="6.03663">
        <ele>240.7</ele>
        <time>2019-08-17T13:40:37Z</time>
      </trkpt>
      <trkpt lat="47.23101" lon="6.03659">
        <ele>240.9</ele>
        <time>2019-08-17T13:40:38Z</time>
      </trkpt>
      <trkpt lat="47.23104" lon="6.03657">
        <ele>241</ele>
        <time>2019-08-17T13:40:39Z</time>
      </trkpt>
      <trkpt lat="47.23107" lon="6.03655">
        <ele>241.1</ele>
        <time>2019-08-17T13:40:40Z</time>
      </trkpt>
      <trkpt lat="47.2311" lon="6.03654">
        <ele>241.2</ele>
        <time>2019-08-17T13:40:41Z</time>
      </trkpt>
      <trkpt lat="47.23113" lon="6.03653">
        <ele>241.2</ele>
        <time>2019-08-17T13:40:42Z</time>
      </trkpt>
      <trkpt lat="47.23115" lon="6.03653">
        <ele>241.3</ele>
        <time>2019-08-17T13:40:44Z</time>
      </trkpt>
      <trkpt lat="47.23121" lon="6.0365">
        <ele>241.7</ele>
        <time>2019-08-17T13:42:04Z</time>
      </trkpt>
      <trkpt lat="47.23124" lon="6.03648">
        <ele>242.4</ele>
        <time>2019-08-17T13:42:06Z</time>
      </trkpt>
      <trkpt lat="47.23128" lon="6.03642">
        <ele>243.4</ele>
        <time>2019-08-17T13:42:08Z</time>
      </trkpt>
      <trkpt lat="47.2313" lon="6.03637">
        <ele>244.3</ele>
        <time>2019-08-17T13:42:09Z</time>
      </trkpt>
      <trkpt lat="47.23132" lon="6.03633">
        <ele>244.9</ele>
        <time>2019-08-17T13:42:10Z</time>
      </trkpt>
      <trkpt lat="47.23135" lon="6.03627">
        <ele>245.8</ele>
        <time>2019-08-17T13:42:12Z</time>
      </trkpt>
      <trkpt lat="47.23138" lon="6.0362">
        <ele>246.8</ele>
        <time>2019-08-17T13:42:14Z</time>
      </trkpt>
      <trkpt lat="47.23141" lon="6.03615">
        <ele>247.7</ele>
        <time>2019-08-17T13:42:15Z</time>
      </trkpt>
      <trkpt lat="47.23143" lon="6.03612">
        <ele>248.3</ele>
        <time>2019-08-17T13:42:16Z</time>
      </trkpt>
      <trkpt lat="47.23145" lon="6.03607">
        <ele>249</ele>
        <time>2019-08-17T13:42:17Z</time>
      </trkpt>
      <trkpt lat="47.23146" lon="6.03603">
        <ele>249.6</ele>
        <time>2019-08-17T13:42:18Z</time>
      </trkpt>
      <trkpt lat="47.23147" lon="6.03599">
        <ele>250.2</ele>
        <time>2019-08-17T13:42:19Z</time>
      </trkpt>
      <trkpt lat="47.23148" lon="6.03593">
        <ele>251</ele>
        <time>2019-08-17T13:42:21Z</time>
      </trkpt>
      <trkpt lat="47.23146" lon="6.03589">
        <ele>251.7</ele>
        <time>2019-08-17T13:42:23Z</time>
      </trkpt>
      <trkpt lat="47.23143" lon="6.03583">
        <ele>252</ele>
        <time>2019-08-17T13:42:25Z</time>
      </trkpt>
      <trkpt lat="47.23142" lon="6.0358">
        <ele>252.1</ele>
        <time>2019-08-17T13:42:26Z</time>
      </trkpt>
      <trkpt lat="47.23141" lon="6.03575">
        <ele>252.2</ele>
        <time>2019-08-17T13:42:27Z</time>
      </trkpt>
      <trkpt lat="47.2314" lon="6.03568">
        <ele>252.4</ele>
        <time>2019-08-17T13:42:28Z</time>
      </trkpt>
      <trkpt lat="47.23138" lon="6.03562">
        <ele>252.6</ele>
        <time>2019-08-17T13:42:29Z</time>
      </trkpt>
      <trkpt lat="47.23134" lon="6.03554">
        <ele>252.9</ele>
        <time>2019-08-17T13:42:30Z</time>
      </trkpt>
      <trkpt lat="47.23131" lon="6.03548">
        <ele>253.1</ele>
        <time>2019-08-17T13:42:31Z</time>
      </trkpt>
      <trkpt lat="47.22945" lon="6.03119">
        <ele>261</ele>
        <time>2019-08-17T13:44:08Z</time>
      </trkpt>
      <trkpt lat="47.2297" lon="6.03106">
        <ele>260.9</ele>
        <time>2019-08-17T13:44:12Z</time>
      </trkpt>
      <trkpt lat="47.22975" lon="6.03091">
        <ele>260.9</ele>
        <time>2019-08-17T13:44:13Z</time>
      </trkpt>
      <trkpt lat="47.2297" lon="6.03089">
        <ele>260.9</ele>
        <time>2019-08-17T13:44:15Z</time>
      </trkpt>
      <trkpt lat="47.22965" lon="6.0308">
        <ele>254.8</ele>
        <time>2019-08-17T13:44:16Z</time>
      </trkpt>
      <trkpt lat="47.22961" lon="6.03074">
        <ele>254.8</ele>
        <time>2019-08-17T13:44:17Z</time>
      </trkpt>
      <trkpt lat="47.22958" lon="6.03069">
        <ele>249.7</ele>
        <time>2019-08-17T13:44:18Z</time>
      </trkpt>
      <trkpt lat="47.22955" lon="6.03067">
        <ele>248.9</ele>
        <time>2019-08-17T13:44:19Z</time>
      </trkpt>
      <trkpt lat="47.22953" lon="6.03065">
        <ele>248.1</ele>
        <time>2019-08-17T13:44:20Z</time>
      </trkpt>
      <trkpt lat="47.22949" lon="6.03062">
        <ele>247.2</ele>
        <time>2019-08-17T13:44:21Z</time>
      </trkpt>
      <trkpt lat="47.22946" lon="6.03059">
        <ele>246.2</ele>
        <time>2019-08-17T13:44:22Z</time>
      </trkpt>
      <trkpt lat="47.22942" lon="6.03057">
        <ele>245.4</ele>
        <time>2019-08-17T13:44:23Z</time>
      </trkpt>
      <trkpt lat="47.22939" lon="6.03054">
        <ele>244.4</ele>
        <time>2019-08-17T13:44:24Z</time>
      </trkpt>
      <trkpt lat="47.22935" lon="6.03052">
        <ele>243.5</ele>
        <time>2019-08-17T13:44:25Z</time>
      </trkpt>
      <trkpt lat="47.22932" lon="6.0305">
        <ele>242.7</ele>
        <time>2019-08-17T13:44:26Z</time>
      </trkpt>
      <trkpt lat="47.22929" lon="6.03048">
        <ele>241.8</ele>
        <time>2019-08-17T13:44:27Z</time>
      </trkpt>
      <trkpt lat="47.22926" lon="6.03046">
        <ele>241.5</ele>
        <time>2019-08-17T13:44:28Z</time>
      </trkpt>
      <trkpt lat="47.22923" lon="6.03045">
        <ele>241.4</ele>
        <time>2019-08-17T13:44:29Z</time>
      </trkpt>
      <trkpt lat="47.2292" lon="6.03045">
        <ele>241.3</ele>
        <time>2019-08-17T13:44:30Z</time>
      </trkpt>
      <trkpt lat="47.22916" lon="6.03044">
        <ele>241.3</ele>
        <time>2019-08-17T13:44:31Z</time>
      </trkpt>
      <trkpt lat="47.22913" lon="6.03045">
        <ele>241.1</ele>
        <time>2019-08-17T13:44:32Z</time>
      </trkpt>
      <trkpt lat="47.2291" lon="6.03045">
        <ele>241</ele>
        <time>2019-08-17T13:44:33Z</time>
      </trkpt>
      <trkpt lat="47.22906" lon="6.03046">
        <ele>241</ele>
        <time>2019-08-17T13:44:34Z</time>
      </trkpt>
      <trkpt lat="47.22902" lon="6.03047">
        <ele>240.9</ele>
        <time>2019-08-17T13:44:35Z</time>
      </trkpt>
      <trkpt lat="47.22899" lon="6.03049">
        <ele>240.9</ele>
        <time>2019-08-17T13:44:36Z</time>
      </trkpt>
      <trkpt lat="47.22895" lon="6.0305">
        <ele>240.9</ele>
        <time>2019-08-17T13:44:37Z</time>
      </trkpt>
      <trkpt lat="47.22891" lon="6.03053">
        <ele>240.8</ele>
        <time>2019-08-17T13:44:38Z</time>
      </trkpt>
      <trkpt lat="47.22888" lon="6.03054">
        <ele>240.8</ele>
        <time>2019-08-17T13:44:39Z</time>
      </trkpt>
      <trkpt lat="47.22885" lon="6.03055">
        <ele>240.8</ele>
        <time>2019-08-17T13:44:40Z</time>
      </trkpt>
      <trkpt lat="47.22882" lon="6.03056">
        <ele>240.7</ele>
        <time>2019-08-17T13:44:41Z</time>
      </trkpt>
      <trkpt lat="47.22878" lon="6.03061">
        <ele>240.6</ele>
        <time>2019-08-17T13:44:43Z</time>
      </trkpt>
      <trkpt lat="47.22876" lon="6.03065">
        <ele>240.5</ele>
        <time>2019-08-17T13:44:44Z</time>
      </trkpt>
      <trkpt lat="47.22873" lon="6.03069">
        <ele>240.4</ele>
        <time>2019-08-17T13:44:45Z</time>
      </trkpt>
      <trkpt lat="47.22871" lon="6.03073">
        <ele>240.3</ele>
        <time>2019-08-17T13:44:46Z</time>
      </trkpt>
      <trkpt lat="47.22869" lon="6.03076">
        <ele>240.2</ele>
        <time>2019-08-17T13:44:47Z</time>
      </trkpt>
      <trkpt lat="47.22867" lon="6.0308">
        <ele>240.2</ele>
        <time>2019-08-17T13:44:48Z</time>
      </trkpt>
      <trkpt lat="47.22864" lon="6.03084">
        <ele>240.2</ele>
        <time>2019-08-17T13:44:49Z</time>
      </trkpt>
      <trkpt lat="47.22862" lon="6.03089">
        <ele>240.2</ele>
        <time>2019-08-17T13:44:50Z</time>
      </trkpt>
      <trkpt lat="47.2286" lon="6.03094">
        <ele>240.2</ele>
        <time>2019-08-17T13:44:51Z</time>
      </trkpt>
      <trkpt lat="47.22857" lon="6.03099">
        <ele>240.2</ele>
        <time>2019-08-17T13:44:52Z</time>
      </trkpt>
      <trkpt lat="47.22854" lon="6.03102">
        <ele>240.2</ele>
        <time>2019-08-17T13:44:53Z</time>
      </trkpt>
      <trkpt lat="47.22852" lon="6.03107">
        <ele>240.1</ele>
        <time>2019-08-17T13:44:54Z</time>
      </trkpt>
      <trkpt lat="47.2285" lon="6.03111">
        <ele>239.9</ele>
        <time>2019-08-17T13:44:55Z</time>
      </trkpt>
      <trkpt lat="47.22847" lon="6.03114">
        <ele>239.7</ele>
        <time>2019-08-17T13:44:56Z</time>
      </trkpt>
      <trkpt lat="47.22845" lon="6.03118">
        <ele>239.4</ele>
        <time>2019-08-17T13:44:57Z</time>
      </trkpt>
      <trkpt lat="47.22842" lon="6.03122">
        <ele>239.1</ele>
        <time>2019-08-17T13:44:58Z</time>
      </trkpt>
      <trkpt lat="47.22839" lon="6.03125">
        <ele>238.8</ele>
        <time>2019-08-17T13:44:59Z</time>
      </trkpt>
      <trkpt lat="47.22837" lon="6.03129">
        <ele>238.5</ele>
        <time>2019-08-17T13:45:00Z</time>
      </trkpt>
      <trkpt lat="47.22835" lon="6.03134">
        <ele>238.2</ele>
        <time>2019-08-17T13:45:01Z</time>
      </trkpt>
      <trkpt lat="47.22833" lon="6.03138">
        <ele>238</ele>
        <time>2019-08-17T13:45:02Z</time>
      </trkpt>
      <trkpt lat="47.22831" lon="6.03143">
        <ele>238</ele>
        <time>2019-08-17T13:45:03Z</time>
      </trkpt>
      <trkpt lat="47.22829" lon="6.03148">
        <ele>237.9</ele>
        <time>2019-08-17T13:45:04Z</time>
      </trkpt>
      <trkpt lat="47.22827" lon="6.03153">
        <ele>238</ele>
        <time>2019-08-17T13:45:05Z</time>
      </trkpt>
      <trkpt lat="47.22825" lon="6.03159">
        <ele>238.2</ele>
        <time>2019-08-17T13:45:06Z</time>
      </trkpt>
      <trkpt lat="47.22822" lon="6.03165">
        <ele>238.4</ele>
        <time>2019-08-17T13:45:07Z</time>
      </trkpt>
      <trkpt lat="47.2282" lon="6.0317">
        <ele>238.5</ele>
        <time>2019-08-17T13:45:08Z</time>
      </trkpt>
      <trkpt lat="47.22817" lon="6.03173">
        <ele>238.7</ele>
        <time>2019-08-17T13:45:09Z</time>
      </trkpt>
      <trkpt lat="47.22814" lon="6.03177">
        <ele>238.9</ele>
        <time>2019-08-17T13:45:10Z</time>
      </trkpt>
      <trkpt lat="47.22811" lon="6.0318">
        <ele>238.9</ele>
        <time>2019-08-17T13:45:11Z</time>
      </trkpt>
      <trkpt lat="47.22808" lon="6.03182">
        <ele>239</ele>
        <time>2019-08-17T13:45:12Z</time>
      </trkpt>
      <trkpt lat="47.22805" lon="6.03185">
        <ele>239</ele>
        <time>2019-08-17T13:45:13Z</time>
      </trkpt>
      <trkpt lat="47.22802" lon="6.03187">
        <ele>239</ele>
        <time>2019-08-17T13:45:14Z</time>
      </trkpt>
      <trkpt lat="47.22799" lon="6.0319">
        <ele>238.9</ele>
        <time>2019-08-17T13:45:15Z</time>
      </trkpt>
      <trkpt lat="47.22795" lon="6.03193">
        <ele>238.7</ele>
        <time>2019-08-17T13:45:16Z</time>
      </trkpt>
      <trkpt lat="47.22791" lon="6.03196">
        <ele>238.5</ele>
        <time>2019-08-17T13:45:17Z</time>
      </trkpt>
      <trkpt lat="47.22788" lon="6.03199">
        <ele>238.3</ele>
        <time>2019-08-17T13:45:18Z</time>
      </trkpt>
      <trkpt lat="47.22784" lon="6.03201">
        <ele>238.2</ele>
        <time>2019-08-17T13:45:19Z</time>
      </trkpt>
      <trkpt lat="47.22781" lon="6.03203">
        <ele>238.1</ele>
        <time>2019-08-17T13:45:20Z</time>
      </trkpt>
      <trkpt lat="47.22778" lon="6.03205">
        <ele>238</ele>
        <time>2019-08-17T13:45:21Z</time>
      </trkpt>
      <trkpt lat="47.22775" lon="6.03207">
        <ele>237.9</ele>
        <time>2019-08-17T13:45:22Z</time>
      </trkpt>
      <trkpt lat="47.22772" lon="6.0321">
        <ele>237.9</ele>
        <time>2019-08-17T13:45:23Z</time>
      </trkpt>
      <trkpt lat="47.22769" lon="6.03212">
        <ele>237.9</ele>
        <time>2019-08-17T13:45:24Z</time>
      </trkpt>
      <trkpt lat="47.22767" lon="6.03213">
        <ele>237.9</ele>
        <time>2019-08-17T13:45:25Z</time>
      </trkpt>
      <trkpt lat="47.22763" lon="6.03217">
        <ele>237.9</ele>
        <time>2019-08-17T13:45:27Z</time>
      </trkpt>
      <trkpt lat="47.2276" lon="6.0322">
        <ele>238</ele>
        <time>2019-08-17T13:45:29Z</time>
      </trkpt>
      <trkpt lat="47.22757" lon="6.0322">
        <ele>238.4</ele>
        <time>2019-08-17T13:45:34Z</time>
      </trkpt>
      <trkpt lat="47.22755" lon="6.03225">
        <ele>238.8</ele>
        <time>2019-08-17T13:45:46Z</time>
      </trkpt>
      <trkpt lat="47.22749" lon="6.03224">
        <ele>239.1</ele>
        <time>2019-08-17T13:45:48Z</time>
      </trkpt>
      <trkpt lat="47.22744" lon="6.03228">
        <ele>239.5</ele>
        <time>2019-08-17T13:45:50Z</time>
      </trkpt>
      <trkpt lat="47.2274" lon="6.03228">
        <ele>239.7</ele>
        <time>2019-08-17T13:45:51Z</time>
      </trkpt>
      <trkpt lat="47.22737" lon="6.0323">
        <ele>239.9</ele>
        <time>2019-08-17T13:45:52Z</time>
      </trkpt>
      <trkpt lat="47.22733" lon="6.03231">
        <ele>240.1</ele>
        <time>2019-08-17T13:45:53Z</time>
      </trkpt>
      <trkpt lat="47.2273" lon="6.03234">
        <ele>240.3</ele>
        <time>2019-08-17T13:45:54Z</time>
      </trkpt>
      <trkpt lat="47.22726" lon="6.03236">
        <ele>240.6</ele>
        <time>2019-08-17T13:45:55Z</time>
      </trkpt>
      <trkpt lat="47.22723" lon="6.03237">
        <ele>240.8</ele>
        <time>2019-08-17T13:45:56Z</time>
      </trkpt>
      <trkpt lat="47.2272" lon="6.03238">
        <ele>241</ele>
        <time>2019-08-17T13:45:57Z</time>
      </trkpt>
      <trkpt lat="47.22716" lon="6.03238">
        <ele>241.2</ele>
        <time>2019-08-17T13:45:58Z</time>
      </trkpt>
      <trkpt lat="47.22712" lon="6.03237">
        <ele>241.5</ele>
        <time>2019-08-17T13:46:00Z</time>
      </trkpt>
      <trkpt lat="47.22708" lon="6.0324">
        <ele>241.8</ele>
        <time>2019-08-17T13:46:03Z</time>
      </trkpt>
      <trkpt lat="47.22705" lon="6.03241">
        <ele>241.9</ele>
        <time>2019-08-17T13:46:05Z</time>
      </trkpt>
      <trkpt lat="47.22701" lon="6.03243">
        <ele>242.1</ele>
        <time>2019-08-17T13:46:07Z</time>
      </trkpt>
      <trkpt lat="47.22697" lon="6.03245">
        <ele>242.3</ele>
        <time>2019-08-17T13:46:09Z</time>
      </trkpt>
      <trkpt lat="47.22694" lon="6.03245">
        <ele>242.4</ele>
        <time>2019-08-17T13:46:10Z</time>
      </trkpt>
      <trkpt lat="47.22687" lon="6.03247">
        <ele>242.7</ele>
        <time>2019-08-17T13:46:12Z</time>
      </trkpt>
      <trkpt lat="47.22683" lon="6.03247">
        <ele>242.9</ele>
        <time>2019-08-17T13:46:13Z</time>
      </trkpt>
      <trkpt lat="47.22679" lon="6.03247">
        <ele>243.1</ele>
        <time>2019-08-17T13:46:14Z</time>
      </trkpt>
      <trkpt lat="47.22675" lon="6.03247">
        <ele>243.4</ele>
        <time>2019-08-17T13:46:15Z</time>
      </trkpt>
      <trkpt lat="47.22672" lon="6.03248">
        <ele>243.8</ele>
        <time>2019-08-17T13:46:16Z</time>
      </trkpt>
      <trkpt lat="47.22669" lon="6.03247">
        <ele>242.9</ele>
        <time>2019-08-17T13:46:17Z</time>
      </trkpt>
      <trkpt lat="47.22665" lon="6.03248">
        <ele>242.5</ele>
        <time>2019-08-17T13:46:18Z</time>
      </trkpt>
      <trkpt lat="47.22661" lon="6.03249">
        <ele>241.9</ele>
        <time>2019-08-17T13:46:19Z</time>
      </trkpt>
      <trkpt lat="47.22656" lon="6.0325">
        <ele>241.4</ele>
        <time>2019-08-17T13:46:20Z</time>
      </trkpt>
      <trkpt lat="47.22652" lon="6.03251">
        <ele>240.9</ele>
        <time>2019-08-17T13:46:21Z</time>
      </trkpt>
      <trkpt lat="47.22648" lon="6.03251">
        <ele>240.4</ele>
        <time>2019-08-17T13:46:22Z</time>
      </trkpt>
      <trkpt lat="47.22643" lon="6.03253">
        <ele>239.9</ele>
        <time>2019-08-17T13:46:23Z</time>
      </trkpt>
      <trkpt lat="47.22639" lon="6.03253">
        <ele>239.4</ele>
        <time>2019-08-17T13:46:24Z</time>
      </trkpt>
      <trkpt lat="47.22634" lon="6.03254">
        <ele>238.8</ele>
        <time>2019-08-17T13:46:25Z</time>
      </trkpt>
      <trkpt lat="47.2263" lon="6.03256">
        <ele>238.4</ele>
        <time>2019-08-17T13:46:26Z</time>
      </trkpt>
      <trkpt lat="47.22626" lon="6.03257">
        <ele>237.9</ele>
        <time>2019-08-17T13:46:27Z</time>
      </trkpt>
      <trkpt lat="47.22622" lon="6.03257">
        <ele>237.5</ele>
        <time>2019-08-17T13:46:28Z</time>
      </trkpt>
      <trkpt lat="47.22617" lon="6.03259">
        <ele>237.1</ele>
        <time>2019-08-17T13:46:29Z</time>
      </trkpt>
      <trkpt lat="47.22612" lon="6.03259">
        <ele>236.6</ele>
        <time>2019-08-17T13:46:30Z</time>
      </trkpt>
      <trkpt lat="47.22608" lon="6.03258">
        <ele>236.1</ele>
        <time>2019-08-17T13:46:31Z</time>
      </trkpt>
      <trkpt lat="47.22604" lon="6.03257">
        <ele>236</ele>
        <time>2019-08-17T13:46:32Z</time>
      </trkpt>
      <trkpt lat="47.22599" lon="6.03258">
        <ele>236</ele>
        <time>2019-08-17T13:46:33Z</time>
      </trkpt>
      <trkpt lat="47.22594" lon="6.03259">
        <ele>236</ele>
        <time>2019-08-17T13:46:34Z</time>
      </trkpt>
      <trkpt lat="47.2259" lon="6.03258">
        <ele>236</ele>
        <time>2019-08-17T13:46:35Z</time>
      </trkpt>
      <trkpt lat="47.22586" lon="6.03259">
        <ele>236.1</ele>
        <time>2019-08-17T13:46:36Z</time>
      </trkpt>
      <trkpt lat="47.22582" lon="6.0326">
        <ele>236.2</ele>
        <time>2019-08-17T13:46:37Z</time>
      </trkpt>
      <trkpt lat="47.22578" lon="6.03258">
        <ele>236.3</ele>
        <time>2019-08-17T13:46:38Z</time>
      </trkpt>
      <trkpt lat="47.22573" lon="6.03257">
        <ele>236.5</ele>
        <time>2019-08-17T13:46:39Z</time>
      </trkpt>
      <trkpt lat="47.22569" lon="6.03255">
        <ele>236.6</ele>
        <time>2019-08-17T13:46:40Z</time>
      </trkpt>
      <trkpt lat="47.22564" lon="6.03254">
        <ele>236.7</ele>
        <time>2019-08-17T13:46:41Z</time>
      </trkpt>
      <trkpt lat="47.2256" lon="6.03251">
        <ele>236.7</ele>
        <time>2019-08-17T13:46:42Z</time>
      </trkpt>
      <trkpt lat="47.22557" lon="6.0325">
        <ele>236.6</ele>
        <time>2019-08-17T13:46:43Z</time>
      </trkpt>
      <trkpt lat="47.22554" lon="6.03248">
        <ele>236.5</ele>
        <time>2019-08-17T13:46:44Z</time>
      </trkpt>
      <trkpt lat="47.2255" lon="6.03245">
        <ele>236.3</ele>
        <time>2019-08-17T13:46:45Z</time>
      </trkpt>
      <trkpt lat="47.22547" lon="6.03241">
        <ele>235.9</ele>
        <time>2019-08-17T13:46:46Z</time>
      </trkpt>
      <trkpt lat="47.22544" lon="6.03237">
        <ele>235.4</ele>
        <time>2019-08-17T13:46:47Z</time>
      </trkpt>
      <trkpt lat="47.2254" lon="6.03232">
        <ele>234.7</ele>
        <time>2019-08-17T13:46:48Z</time>
      </trkpt>
      <trkpt lat="47.22538" lon="6.03228">
        <ele>234</ele>
        <time>2019-08-17T13:46:49Z</time>
      </trkpt>
      <trkpt lat="47.22534" lon="6.03224">
        <ele>233.2</ele>
        <time>2019-08-17T13:46:50Z</time>
      </trkpt>
      <trkpt lat="47.22531" lon="6.03221">
        <ele>232.5</ele>
        <time>2019-08-17T13:46:51Z</time>
      </trkpt>
      <trkpt lat="47.22528" lon="6.03216">
        <ele>231.8</ele>
        <time>2019-08-17T13:46:52Z</time>
      </trkpt>
      <trkpt lat="47.22525" lon="6.03214">
        <ele>231.2</ele>
        <time>2019-08-17T13:46:53Z</time>
      </trkpt>
      <trkpt lat="47.22523" lon="6.03212">
        <ele>230.7</ele>
        <time>2019-08-17T13:46:54Z</time>
      </trkpt>
      <trkpt lat="47.2252" lon="6.0321">
        <ele>230.2</ele>
        <time>2019-08-17T13:46:55Z</time>
      </trkpt>
      <trkpt lat="47.22517" lon="6.03208">
        <ele>229.8</ele>
        <time>2019-08-17T13:46:56Z</time>
      </trkpt>
      <trkpt lat="47.22514" lon="6.03206">
        <ele>229.3</ele>
        <time>2019-08-17T13:46:57Z</time>
      </trkpt>
      <trkpt lat="47.22512" lon="6.03203">
        <ele>229.8</ele>
        <time>2019-08-17T13:46:58Z</time>
      </trkpt>
      <trkpt lat="47.2251" lon="6.03201">
        <ele>230.1</ele>
        <time>2019-08-17T13:46:59Z</time>
      </trkpt>
      <trkpt lat="47.22508" lon="6.03198">
        <ele>230.4</ele>
        <time>2019-08-17T13:47:00Z</time>
      </trkpt>
      <trkpt lat="47.22502" lon="6.03194">
        <ele>231.1</ele>
        <time>2019-08-17T13:47:02Z</time>
      </trkpt>
      <trkpt lat="47.22498" lon="6.03192">
        <ele>231.4</ele>
        <time>2019-08-17T13:47:03Z</time>
      </trkpt>
      <trkpt lat="47.22495" lon="6.0319">
        <ele>231.8</ele>
        <time>2019-08-17T13:47:04Z</time>
      </trkpt>
      <trkpt lat="47.22491" lon="6.0319">
        <ele>232.2</ele>
        <time>2019-08-17T13:47:05Z</time>
      </trkpt>
      <trkpt lat="47.22487" lon="6.03189">
        <ele>232.6</ele>
        <time>2019-08-17T13:47:06Z</time>
      </trkpt>
      <trkpt lat="47.22483" lon="6.03189">
        <ele>233</ele>
        <time>2019-08-17T13:47:07Z</time>
      </trkpt>
      <trkpt lat="47.22479" lon="6.03188">
        <ele>233.4</ele>
        <time>2019-08-17T13:47:08Z</time>
      </trkpt>
      <trkpt lat="47.22476" lon="6.03188">
        <ele>233.8</ele>
        <time>2019-08-17T13:47:09Z</time>
      </trkpt>
      <trkpt lat="47.22472" lon="6.03187">
        <ele>234.1</ele>
        <time>2019-08-17T13:47:10Z</time>
      </trkpt>
      <trkpt lat="47.22468" lon="6.03186">
        <ele>231.1</ele>
        <time>2019-08-17T13:47:11Z</time>
      </trkpt>
      <trkpt lat="47.22465" lon="6.03186">
        <ele>231.1</ele>
        <time>2019-08-17T13:47:12Z</time>
      </trkpt>
      <trkpt lat="47.22462" lon="6.03185">
        <ele>231.1</ele>
        <time>2019-08-17T13:47:13Z</time>
      </trkpt>
      <trkpt lat="47.22459" lon="6.03184">
        <ele>231.1</ele>
        <time>2019-08-17T13:47:14Z</time>
      </trkpt>
      <trkpt lat="47.22456" lon="6.03184">
        <ele>231.1</ele>
        <time>2019-08-17T13:47:15Z</time>
      </trkpt>
      <trkpt lat="47.22452" lon="6.03183">
        <ele>231.1</ele>
        <time>2019-08-17T13:47:16Z</time>
      </trkpt>
      <trkpt lat="47.22447" lon="6.03181">
        <ele>231.2</ele>
        <time>2019-08-17T13:47:18Z</time>
      </trkpt>
      <trkpt lat="47.22444" lon="6.0318">
        <ele>231.2</ele>
        <time>2019-08-17T13:47:19Z</time>
      </trkpt>
      <trkpt lat="47.22441" lon="6.03178">
        <ele>231.2</ele>
        <time>2019-08-17T13:47:20Z</time>
      </trkpt>
      <trkpt lat="47.22438" lon="6.03177">
        <ele>231.2</ele>
        <time>2019-08-17T13:47:21Z</time>
      </trkpt>
      <trkpt lat="47.22433" lon="6.03174">
        <ele>231.2</ele>
        <time>2019-08-17T13:47:23Z</time>
      </trkpt>
      <trkpt lat="47.2243" lon="6.03173">
        <ele>231.2</ele>
        <time>2019-08-17T13:47:24Z</time>
      </trkpt>
      <trkpt lat="47.22428" lon="6.03172">
        <ele>231.2</ele>
        <time>2019-08-17T13:47:25Z</time>
      </trkpt>
      <trkpt lat="47.22424" lon="6.03172">
        <ele>231.2</ele>
        <time>2019-08-17T13:47:26Z</time>
      </trkpt>
      <trkpt lat="47.2242" lon="6.03171">
        <ele>231.3</ele>
        <time>2019-08-17T13:47:27Z</time>
      </trkpt>
      <trkpt lat="47.22417" lon="6.03171">
        <ele>231.3</ele>
        <time>2019-08-17T13:47:28Z</time>
      </trkpt>
      <trkpt lat="47.22412" lon="6.03167">
        <ele>231.3</ele>
        <time>2019-08-17T13:47:30Z</time>
      </trkpt>
      <trkpt lat="47.22409" lon="6.03166">
        <ele>231.3</ele>
        <time>2019-08-17T13:47:31Z</time>
      </trkpt>
      <trkpt lat="47.22406" lon="6.03164">
        <ele>231.3</ele>
        <time>2019-08-17T13:47:32Z</time>
      </trkpt>
      <trkpt lat="47.22403" lon="6.03162">
        <ele>231.3</ele>
        <time>2019-08-17T13:47:33Z</time>
      </trkpt>
      <trkpt lat="47.22401" lon="6.0316">
        <ele>231.3</ele>
        <time>2019-08-17T13:47:34Z</time>
      </trkpt>
      <trkpt lat="47.22397" lon="6.03157">
        <ele>231.3</ele>
        <time>2019-08-17T13:47:35Z</time>
      </trkpt>
      <trkpt lat="47.22394" lon="6.03153">
        <ele>231.3</ele>
        <time>2019-08-17T13:47:36Z</time>
      </trkpt>
      <trkpt lat="47.22391" lon="6.03151">
        <ele>231.3</ele>
        <time>2019-08-17T13:47:37Z</time>
      </trkpt>
      <trkpt lat="47.22387" lon="6.03149">
        <ele>231.3</ele>
        <time>2019-08-17T13:47:38Z</time>
      </trkpt>
      <trkpt lat="47.22384" lon="6.03146">
        <ele>231.4</ele>
        <time>2019-08-17T13:47:39Z</time>
      </trkpt>
      <trkpt lat="47.2238" lon="6.03143">
        <ele>231.4</ele>
        <time>2019-08-17T13:47:40Z</time>
      </trkpt>
      <trkpt lat="47.22377" lon="6.0314">
        <ele>231.4</ele>
        <time>2019-08-17T13:47:41Z</time>
      </trkpt>
      <trkpt lat="47.22373" lon="6.03138">
        <ele>231.4</ele>
        <time>2019-08-17T13:47:42Z</time>
      </trkpt>
      <trkpt lat="47.22367" lon="6.03138">
        <ele>231.4</ele>
        <time>2019-08-17T13:47:44Z</time>
      </trkpt>
      <trkpt lat="47.22363" lon="6.03136">
        <ele>231.4</ele>
        <time>2019-08-17T13:47:45Z</time>
      </trkpt>
      <trkpt lat="47.22359" lon="6.03133">
        <ele>231.5</ele>
        <time>2019-08-17T13:47:46Z</time>
      </trkpt>
      <trkpt lat="47.22355" lon="6.03132">
        <ele>231.5</ele>
        <time>2019-08-17T13:47:47Z</time>
      </trkpt>
      <trkpt lat="47.22351" lon="6.03131">
        <ele>231.5</ele>
        <time>2019-08-17T13:47:48Z</time>
      </trkpt>
      <trkpt lat="47.22346" lon="6.03127">
        <ele>231.5</ele>
        <time>2019-08-17T13:47:49Z</time>
      </trkpt>
      <trkpt lat="47.22343" lon="6.03126">
        <ele>231.6</ele>
        <time>2019-08-17T13:47:50Z</time>
      </trkpt>
      <trkpt lat="47.22339" lon="6.03127">
        <ele>231.6</ele>
        <time>2019-08-17T13:47:51Z</time>
      </trkpt>
      <trkpt lat="47.22335" lon="6.03127">
        <ele>231.6</ele>
        <time>2019-08-17T13:47:52Z</time>
      </trkpt>
      <trkpt lat="47.22332" lon="6.03126">
        <ele>231.6</ele>
        <time>2019-08-17T13:47:53Z</time>
      </trkpt>
      <trkpt lat="47.22327" lon="6.03124">
        <ele>231.7</ele>
        <time>2019-08-17T13:47:54Z</time>
      </trkpt>
      <trkpt lat="47.22323" lon="6.03122">
        <ele>231.7</ele>
        <time>2019-08-17T13:47:55Z</time>
      </trkpt>
      <trkpt lat="47.22318" lon="6.03121">
        <ele>231.7</ele>
        <time>2019-08-17T13:47:56Z</time>
      </trkpt>
      <trkpt lat="47.22314" lon="6.0312">
        <ele>231.7</ele>
        <time>2019-08-17T13:47:57Z</time>
      </trkpt>
      <trkpt lat="47.22311" lon="6.03117">
        <ele>231.8</ele>
        <time>2019-08-17T13:47:58Z</time>
      </trkpt>
      <trkpt lat="47.22307" lon="6.03114">
        <ele>231.8</ele>
        <time>2019-08-17T13:47:59Z</time>
      </trkpt>
      <trkpt lat="47.22302" lon="6.03111">
        <ele>231.8</ele>
        <time>2019-08-17T13:48:00Z</time>
      </trkpt>
      <trkpt lat="47.22299" lon="6.03109">
        <ele>231.8</ele>
        <time>2019-08-17T13:48:01Z</time>
      </trkpt>
      <trkpt lat="47.22295" lon="6.03108">
        <ele>231.9</ele>
        <time>2019-08-17T13:48:02Z</time>
      </trkpt>
      <trkpt lat="47.22292" lon="6.03106">
        <ele>231.9</ele>
        <time>2019-08-17T13:48:03Z</time>
      </trkpt>
      <trkpt lat="47.22287" lon="6.03103">
        <ele>231.9</ele>
        <time>2019-08-17T13:48:04Z</time>
      </trkpt>
      <trkpt lat="47.22283" lon="6.03103">
        <ele>231.9</ele>
        <time>2019-08-17T13:48:05Z</time>
      </trkpt>
      <trkpt lat="47.2228" lon="6.03101">
        <ele>231.9</ele>
        <time>2019-08-17T13:48:06Z</time>
      </trkpt>
      <trkpt lat="47.22276" lon="6.03098">
        <ele>232</ele>
        <time>2019-08-17T13:48:07Z</time>
      </trkpt>
      <trkpt lat="47.22272" lon="6.03095">
        <ele>232</ele>
        <time>2019-08-17T13:48:08Z</time>
      </trkpt>
      <trkpt lat="47.22268" lon="6.03091">
        <ele>232</ele>
        <time>2019-08-17T13:48:09Z</time>
      </trkpt>
      <trkpt lat="47.22264" lon="6.0309">
        <ele>232</ele>
        <time>2019-08-17T13:48:10Z</time>
      </trkpt>
      <trkpt lat="47.22261" lon="6.03087">
        <ele>232</ele>
        <time>2019-08-17T13:48:11Z</time>
      </trkpt>
      <trkpt lat="47.22257" lon="6.03085">
        <ele>232.1</ele>
        <time>2019-08-17T13:48:12Z</time>
      </trkpt>
      <trkpt lat="47.22254" lon="6.03084">
        <ele>232.1</ele>
        <time>2019-08-17T13:48:13Z</time>
      </trkpt>
      <trkpt lat="47.2225" lon="6.03082">
        <ele>232.1</ele>
        <time>2019-08-17T13:48:14Z</time>
      </trkpt>
      <trkpt lat="47.22246" lon="6.0308">
        <ele>232.1</ele>
        <time>2019-08-17T13:48:15Z</time>
      </trkpt>
      <trkpt lat="47.22242" lon="6.03078">
        <ele>232.2</ele>
        <time>2019-08-17T13:48:16Z</time>
      </trkpt>
      <trkpt lat="47.22239" lon="6.03075">
        <ele>232.2</ele>
        <time>2019-08-17T13:48:17Z</time>
      </trkpt>
      <trkpt lat="47.22235" lon="6.03072">
        <ele>232.2</ele>
        <time>2019-08-17T13:48:18Z</time>
      </trkpt>
      <trkpt lat="47.22231" lon="6.03069">
        <ele>232.3</ele>
        <time>2019-08-17T13:48:19Z</time>
      </trkpt>
      <trkpt lat="47.22227" lon="6.03066">
        <ele>232.3</ele>
        <time>2019-08-17T13:48:20Z</time>
      </trkpt>
      <trkpt lat="47.22224" lon="6.03063">
        <ele>232.3</ele>
        <time>2019-08-17T13:48:21Z</time>
      </trkpt>
      <trkpt lat="47.2222" lon="6.03061">
        <ele>232.4</ele>
        <time>2019-08-17T13:48:22Z</time>
      </trkpt>
      <trkpt lat="47.22216" lon="6.03058">
        <ele>232.4</ele>
        <time>2019-08-17T13:48:23Z</time>
      </trkpt>
      <trkpt lat="47.22212" lon="6.03055">
        <ele>232.4</ele>
        <time>2019-08-17T13:48:24Z</time>
      </trkpt>
      <trkpt lat="47.22209" lon="6.03053">
        <ele>232.5</ele>
        <time>2019-08-17T13:48:25Z</time>
      </trkpt>
      <trkpt lat="47.22205" lon="6.0305">
        <ele>232.5</ele>
        <time>2019-08-17T13:48:26Z</time>
      </trkpt>
      <trkpt lat="47.22201" lon="6.03048">
        <ele>232.5</ele>
        <time>2019-08-17T13:48:27Z</time>
      </trkpt>
      <trkpt lat="47.22197" lon="6.03045">
        <ele>232.6</ele>
        <time>2019-08-17T13:48:28Z</time>
      </trkpt>
      <trkpt lat="47.22194" lon="6.03042">
        <ele>232.6</ele>
        <time>2019-08-17T13:48:29Z</time>
      </trkpt>
      <trkpt lat="47.22191" lon="6.03039">
        <ele>232.7</ele>
        <time>2019-08-17T13:48:30Z</time>
      </trkpt>
      <trkpt lat="47.22187" lon="6.03037">
        <ele>232.7</ele>
        <time>2019-08-17T13:48:31Z</time>
      </trkpt>
      <trkpt lat="47.22184" lon="6.03035">
        <ele>232.7</ele>
        <time>2019-08-17T13:48:32Z</time>
      </trkpt>
      <trkpt lat="47.22181" lon="6.03032">
        <ele>232.7</ele>
        <time>2019-08-17T13:48:33Z</time>
      </trkpt>
      <trkpt lat="47.22177" lon="6.03027">
        <ele>232.8</ele>
        <time>2019-08-17T13:48:35Z</time>
      </trkpt>
      <trkpt lat="47.22174" lon="6.03023">
        <ele>232.8</ele>
        <time>2019-08-17T13:48:37Z</time>
      </trkpt>
      <trkpt lat="47.22172" lon="6.03019">
        <ele>232.8</ele>
        <time>2019-08-17T13:48:39Z</time>
      </trkpt>
      <trkpt lat="47.22175" lon="6.0302">
        <ele>232.8</ele>
        <time>2019-08-17T13:48:44Z</time>
      </trkpt>
      <trkpt lat="47.22164" lon="6.03023">
        <ele>232.9</ele>
        <time>2019-08-17T13:50:28Z</time>
      </trkpt>
      <trkpt lat="47.22161" lon="6.03022">
        <ele>232.9</ele>
        <time>2019-08-17T13:50:30Z</time>
      </trkpt>
      <trkpt lat="47.22157" lon="6.0302">
        <ele>232.9</ele>
        <time>2019-08-17T13:50:34Z</time>
      </trkpt>
      <trkpt lat="47.22156" lon="6.03015">
        <ele>233</ele>
        <time>2019-08-17T13:50:37Z</time>
      </trkpt>
      <trkpt lat="47.2217" lon="6.03026">
        <ele>233.1</ele>
        <time>2019-08-17T13:57:03Z</time>
      </trkpt>
      <trkpt lat="47.22167" lon="6.03025">
        <ele>233.1</ele>
        <time>2019-08-17T13:57:22Z</time>
      </trkpt>
      <trkpt lat="47.22164" lon="6.03022">
        <ele>233.1</ele>
        <time>2019-08-17T13:57:25Z</time>
      </trkpt>
      <trkpt lat="47.22167" lon="6.03021">
        <ele>233.1</ele>
        <time>2019-08-17T13:57:37Z</time>
      </trkpt>
      <trkpt lat="47.22169" lon="6.03016">
        <ele>233.1</ele>
        <time>2019-08-17T13:57:45Z</time>
      </trkpt>
      <trkpt lat="47.22171" lon="6.03011">
        <ele>233.1</ele>
        <time>2019-08-17T13:57:50Z</time>
      </trkpt>
      <trkpt lat="47.22165" lon="6.03031">
        <ele>233.3</ele>
        <time>2019-08-17T14:06:15Z</time>
      </trkpt>
      <trkpt lat="47.22168" lon="6.03034">
        <ele>233.3</ele>
        <time>2019-08-17T14:06:18Z</time>
      </trkpt>
      <trkpt lat="47.22169" lon="6.03038">
        <ele>233.3</ele>
        <time>2019-08-17T14:06:22Z</time>
      </trkpt>
      <trkpt lat="47.22167" lon="6.03034">
        <ele>233.3</ele>
        <time>2019-08-17T14:06:29Z</time>
      </trkpt>
      <trkpt lat="47.22167" lon="6.03029">
        <ele>233.4</ele>
        <time>2019-08-17T14:06:32Z</time>
      </trkpt>
      <trkpt lat="47.22168" lon="6.03024">
        <ele>233.4</ele>
        <time>2019-08-17T14:06:36Z</time>
      </trkpt>
      <trkpt lat="47.2217" lon="6.03021">
        <ele>233.4</ele>
        <time>2019-08-17T14:06:41Z</time>
      </trkpt>
      <trkpt lat="47.22163" lon="6.03013">
        <ele>233.5</ele>
        <time>2019-08-17T14:17:54Z</time>
      </trkpt>
      <trkpt lat="47.22161" lon="6.03011">
        <ele>233.5</ele>
        <time>2019-08-17T14:17:55Z</time>
      </trkpt>
      <trkpt lat="47.22157" lon="6.03009">
        <ele>233.6</ele>
        <time>2019-08-17T14:17:57Z</time>
      </trkpt>
      <trkpt lat="47.22153" lon="6.03007">
        <ele>233.6</ele>
        <time>2019-08-17T14:17:59Z</time>
      </trkpt>
      <trkpt lat="47.22149" lon="6.03003">
        <ele>233.6</ele>
        <time>2019-08-17T14:18:01Z</time>
      </trkpt>
      <trkpt lat="47.22146" lon="6.03">
        <ele>233.6</ele>
        <time>2019-08-17T14:18:02Z</time>
      </trkpt>
      <trkpt lat="47.22142" lon="6.02996">
        <ele>233.7</ele>
        <time>2019-08-17T14:18:04Z</time>
      </trkpt>
      <trkpt lat="47.22138" lon="6.02993">
        <ele>233.7</ele>
        <time>2019-08-17T14:18:06Z</time>
      </trkpt>
      <trkpt lat="47.22133" lon="6.02988">
        <ele>233.7</ele>
        <time>2019-08-17T14:18:08Z</time>
      </trkpt>
      <trkpt lat="47.22131" lon="6.02986">
        <ele>233.7</ele>
        <time>2019-08-17T14:18:09Z</time>
      </trkpt>
      <trkpt lat="47.22129" lon="6.02984">
        <ele>233.7</ele>
        <time>2019-08-17T14:18:10Z</time>
      </trkpt>
      <trkpt lat="47.22126" lon="6.02981">
        <ele>233.7</ele>
        <time>2019-08-17T14:18:11Z</time>
      </trkpt>
      <trkpt lat="47.22123" lon="6.02978">
        <ele>233.8</ele>
        <time>2019-08-17T14:18:12Z</time>
      </trkpt>
      <trkpt lat="47.22121" lon="6.02975">
        <ele>233.8</ele>
        <time>2019-08-17T14:18:13Z</time>
      </trkpt>
      <trkpt lat="47.22118" lon="6.02972">
        <ele>233.8</ele>
        <time>2019-08-17T14:18:14Z</time>
      </trkpt>
      <trkpt lat="47.22115" lon="6.0297">
        <ele>233.8</ele>
        <time>2019-08-17T14:18:15Z</time>
      </trkpt>
      <trkpt lat="47.22113" lon="6.02967">
        <ele>233.8</ele>
        <time>2019-08-17T14:18:16Z</time>
      </trkpt>
      <trkpt lat="47.2211" lon="6.02963">
        <ele>233.8</ele>
        <time>2019-08-17T14:18:17Z</time>
      </trkpt>
      <trkpt lat="47.22107" lon="6.02961">
        <ele>233.8</ele>
        <time>2019-08-17T14:18:18Z</time>
      </trkpt>
      <trkpt lat="47.22105" lon="6.02958">
        <ele>233.8</ele>
        <time>2019-08-17T14:18:19Z</time>
      </trkpt>
      <trkpt lat="47.22103" lon="6.02955">
        <ele>233.8</ele>
        <time>2019-08-17T14:18:20Z</time>
      </trkpt>
      <trkpt lat="47.221" lon="6.02952">
        <ele>233.8</ele>
        <time>2019-08-17T14:18:21Z</time>
      </trkpt>
      <trkpt lat="47.22098" lon="6.0295">
        <ele>233.8</ele>
        <time>2019-08-17T14:18:22Z</time>
      </trkpt>
      <trkpt lat="47.22093" lon="6.02944">
        <ele>233.8</ele>
        <time>2019-08-17T14:18:24Z</time>
      </trkpt>
      <trkpt lat="47.22091" lon="6.02942">
        <ele>233.8</ele>
        <time>2019-08-17T14:18:25Z</time>
      </trkpt>
      <trkpt lat="47.22088" lon="6.02939">
        <ele>233.8</ele>
        <time>2019-08-17T14:18:26Z</time>
      </trkpt>
      <trkpt lat="47.22085" lon="6.02936">
        <ele>233.8</ele>
        <time>2019-08-17T14:18:27Z</time>
      </trkpt>
      <trkpt lat="47.22083" lon="6.02932">
        <ele>233.8</ele>
        <time>2019-08-17T14:18:28Z</time>
      </trkpt>
      <trkpt lat="47.22081" lon="6.02929">
        <ele>233.8</ele>
        <time>2019-08-17T14:18:29Z</time>
      </trkpt>
      <trkpt lat="47.22078" lon="6.02926">
        <ele>233.8</ele>
        <time>2019-08-17T14:18:30Z</time>
      </trkpt>
      <trkpt lat="47.22076" lon="6.02922">
        <ele>233.8</ele>
        <time>2019-08-17T14:18:31Z</time>
      </trkpt>
      <trkpt lat="47.22074" lon="6.02919">
        <ele>233.8</ele>
        <time>2019-08-17T14:18:32Z</time>
      </trkpt>
      <trkpt lat="47.22071" lon="6.02916">
        <ele>233.8</ele>
        <time>2019-08-17T14:18:33Z</time>
      </trkpt>
      <trkpt lat="47.22068" lon="6.02913">
        <ele>233.8</ele>
        <time>2019-08-17T14:18:34Z</time>
      </trkpt>
      <trkpt lat="47.22065" lon="6.02909">
        <ele>233.8</ele>
        <time>2019-08-17T14:18:35Z</time>
      </trkpt>
      <trkpt lat="47.22063" lon="6.02905">
        <ele>233.8</ele>
        <time>2019-08-17T14:18:36Z</time>
      </trkpt>
      <trkpt lat="47.2206" lon="6.02901">
        <ele>233.8</ele>
        <time>2019-08-17T14:18:37Z</time>
      </trkpt>
      <trkpt lat="47.22058" lon="6.02898">
        <ele>233.8</ele>
        <time>2019-08-17T14:18:38Z</time>
      </trkpt>
      <trkpt lat="47.22056" lon="6.02894">
        <ele>233.8</ele>
        <time>2019-08-17T14:18:39Z</time>
      </trkpt>
      <trkpt lat="47.22052" lon="6.02887">
        <ele>233.7</ele>
        <time>2019-08-17T14:18:41Z</time>
      </trkpt>
      <trkpt lat="47.22051" lon="6.02883">
        <ele>233.7</ele>
        <time>2019-08-17T14:18:42Z</time>
      </trkpt>
      <trkpt lat="47.2205" lon="6.02878">
        <ele>233.7</ele>
        <time>2019-08-17T14:18:43Z</time>
      </trkpt>
      <trkpt lat="47.22047" lon="6.02875">
        <ele>233.7</ele>
        <time>2019-08-17T14:18:44Z</time>
      </trkpt>
      <trkpt lat="47.22045" lon="6.02871">
        <ele>233.7</ele>
        <time>2019-08-17T14:18:45Z</time>
      </trkpt>
      <trkpt lat="47.22043" lon="6.02867">
        <ele>233.7</ele>
        <time>2019-08-17T14:18:46Z</time>
      </trkpt>
      <trkpt lat="47.22042" lon="6.02863">
        <ele>233.7</ele>
        <time>2019-08-17T14:18:47Z</time>
      </trkpt>
      <trkpt lat="47.2204" lon="6.02859">
        <ele>233.7</ele>
        <time>2019-08-17T14:18:48Z</time>
      </trkpt>
      <trkpt lat="47.22036" lon="6.02854">
        <ele>233.7</ele>
        <time>2019-08-17T14:18:49Z</time>
      </trkpt>
      <trkpt lat="47.22035" lon="6.02849">
        <ele>233.7</ele>
        <time>2019-08-17T14:18:50Z</time>
      </trkpt>
      <trkpt lat="47.22033" lon="6.02845">
        <ele>233.7</ele>
        <time>2019-08-17T14:18:51Z</time>
      </trkpt>
      <trkpt lat="47.2203" lon="6.02838">
        <ele>233.7</ele>
        <time>2019-08-17T14:18:53Z</time>
      </trkpt>
      <trkpt lat="47.22027" lon="6.02835">
        <ele>233.7</ele>
        <time>2019-08-17T14:18:54Z</time>
      </trkpt>
      <trkpt lat="47.22024" lon="6.0283">
        <ele>233.7</ele>
        <time>2019-08-17T14:18:55Z</time>
      </trkpt>
      <trkpt lat="47.22022" lon="6.02825">
        <ele>233.7</ele>
        <time>2019-08-17T14:18:56Z</time>
      </trkpt>
      <trkpt lat="47.22021" lon="6.02821">
        <ele>233.7</ele>
        <time>2019-08-17T14:18:57Z</time>
      </trkpt>
      <trkpt lat="47.2202" lon="6.02816">
        <ele>233.7</ele>
        <time>2019-08-17T14:18:58Z</time>
      </trkpt>
      <trkpt lat="47.22018" lon="6.02811">
        <ele>233.7</ele>
        <time>2019-08-17T14:18:59Z</time>
      </trkpt>
      <trkpt lat="47.22016" lon="6.02806">
        <ele>233.7</ele>
        <time>2019-08-17T14:19:00Z</time>
      </trkpt>
      <trkpt lat="47.22014" lon="6.028">
        <ele>233.7</ele>
        <time>2019-08-17T14:19:01Z</time>
      </trkpt>
      <trkpt lat="47.22012" lon="6.02793">
        <ele>233.7</ele>
        <time>2019-08-17T14:19:02Z</time>
      </trkpt>
      <trkpt lat="47.22011" lon="6.02787">
        <ele>233.7</ele>
        <time>2019-08-17T14:19:03Z</time>
      </trkpt>
      <trkpt lat="47.22009" lon="6.02781">
        <ele>233.7</ele>
        <time>2019-08-17T14:19:04Z</time>
      </trkpt>
      <trkpt lat="47.22007" lon="6.02778">
        <ele>233.7</ele>
        <time>2019-08-17T14:19:05Z</time>
      </trkpt>
      <trkpt lat="47.22006" lon="6.02772">
        <ele>233.7</ele>
        <time>2019-08-17T14:19:06Z</time>
      </trkpt>
      <trkpt lat="47.22004" lon="6.02766">
        <ele>233.7</ele>
        <time>2019-08-17T14:19:07Z</time>
      </trkpt>
      <trkpt lat="47.22003" lon="6.0276">
        <ele>233.7</ele>
        <time>2019-08-17T14:19:08Z</time>
      </trkpt>
      <trkpt lat="47.22002" lon="6.02754">
        <ele>233.7</ele>
        <time>2019-08-17T14:19:09Z</time>
      </trkpt>
      <trkpt lat="47.22001" lon="6.02749">
        <ele>233.7</ele>
        <time>2019-08-17T14:19:10Z</time>
      </trkpt>
      <trkpt lat="47.22" lon="6.02743">
        <ele>233.7</ele>
        <time>2019-08-17T14:19:11Z</time>
      </trkpt>
      <trkpt lat="47.21999" lon="6.02738">
        <ele>233.7</ele>
        <time>2019-08-17T14:19:12Z</time>
      </trkpt>
      <trkpt lat="47.21997" lon="6.02731">
        <ele>233.7</ele>
        <time>2019-08-17T14:19:13Z</time>
      </trkpt>
      <trkpt lat="47.21995" lon="6.02726">
        <ele>233.7</ele>
        <time>2019-08-17T14:19:14Z</time>
      </trkpt>
      <trkpt lat="47.21994" lon="6.0272">
        <ele>233.6</ele>
        <time>2019-08-17T14:19:15Z</time>
      </trkpt>
      <trkpt lat="47.21992" lon="6.02712">
        <ele>233.6</ele>
        <time>2019-08-17T14:19:17Z</time>
      </trkpt>
      <trkpt lat="47.21991" lon="6.02706">
        <ele>233.6</ele>
        <time>2019-08-17T14:19:18Z</time>
      </trkpt>
      <trkpt lat="47.2199" lon="6.027">
        <ele>233.6</ele>
        <time>2019-08-17T14:19:19Z</time>
      </trkpt>
      <trkpt lat="47.21989" lon="6.02694">
        <ele>233.5</ele>
        <time>2019-08-17T14:19:20Z</time>
      </trkpt>
      <trkpt lat="47.21989" lon="6.02688">
        <ele>233.5</ele>
        <time>2019-08-17T14:19:21Z</time>
      </trkpt>
      <trkpt lat="47.21988" lon="6.02682">
        <ele>233.5</ele>
        <time>2019-08-17T14:19:22Z</time>
      </trkpt>
      <trkpt lat="47.21988" lon="6.02676">
        <ele>233.5</ele>
        <time>2019-08-17T14:19:23Z</time>
      </trkpt>
      <trkpt lat="47.21987" lon="6.02669">
        <ele>233.5</ele>
        <time>2019-08-17T14:19:24Z</time>
      </trkpt>
      <trkpt lat="47.21986" lon="6.02664">
        <ele>233.5</ele>
        <time>2019-08-17T14:19:25Z</time>
      </trkpt>
      <trkpt lat="47.21985" lon="6.02658">
        <ele>233.5</ele>
        <time>2019-08-17T14:19:26Z</time>
      </trkpt>
      <trkpt lat="47.21984" lon="6.02653">
        <ele>233.5</ele>
        <time>2019-08-17T14:19:27Z</time>
      </trkpt>
      <trkpt lat="47.21983" lon="6.02647">
        <ele>233.5</ele>
        <time>2019-08-17T14:19:28Z</time>
      </trkpt>
      <trkpt lat="47.21983" lon="6.02643">
        <ele>233.5</ele>
        <time>2019-08-17T14:19:29Z</time>
      </trkpt>
      <trkpt lat="47.21981" lon="6.02635">
        <ele>233.6</ele>
        <time>2019-08-17T14:19:30Z</time>
      </trkpt>
      <trkpt lat="47.21981" lon="6.02628">
        <ele>233.6</ele>
        <time>2019-08-17T14:19:31Z</time>
      </trkpt>
      <trkpt lat="47.2198" lon="6.02622">
        <ele>233.6</ele>
        <time>2019-08-17T14:19:32Z</time>
      </trkpt>
      <trkpt lat="47.21979" lon="6.02616">
        <ele>233.6</ele>
        <time>2019-08-17T14:19:33Z</time>
      </trkpt>
      <trkpt lat="47.21978" lon="6.0261">
        <ele>233.6</ele>
        <time>2019-08-17T14:19:34Z</time>
      </trkpt>
      <trkpt lat="47.21978" lon="6.02601">
        <ele>233.6</ele>
        <time>2019-08-17T14:19:36Z</time>
      </trkpt>
      <trkpt lat="47.21977" lon="6.02595">
        <ele>233.5</ele>
        <time>2019-08-17T14:19:37Z</time>
      </trkpt>
      <trkpt lat="47.21976" lon="6.0259">
        <ele>233.5</ele>
        <time>2019-08-17T14:19:38Z</time>
      </trkpt>
      <trkpt lat="47.21975" lon="6.02584">
        <ele>233.4</ele>
        <time>2019-08-17T14:19:39Z</time>
      </trkpt>
      <trkpt lat="47.21974" lon="6.0258">
        <ele>233.4</ele>
        <time>2019-08-17T14:19:40Z</time>
      </trkpt>
      <trkpt lat="47.21973" lon="6.02572">
        <ele>233.3</ele>
        <time>2019-08-17T14:19:42Z</time>
      </trkpt>
      <trkpt lat="47.21974" lon="6.02567">
        <ele>233.3</ele>
        <time>2019-08-17T14:19:43Z</time>
      </trkpt>
      <trkpt lat="47.21974" lon="6.02563">
        <ele>233.3</ele>
        <time>2019-08-17T14:19:44Z</time>
      </trkpt>
      <trkpt lat="47.21975" lon="6.02558">
        <ele>233.2</ele>
        <time>2019-08-17T14:19:45Z</time>
      </trkpt>
      <trkpt lat="47.21975" lon="6.02554">
        <ele>233.2</ele>
        <time>2019-08-17T14:19:46Z</time>
      </trkpt>
      <trkpt lat="47.21975" lon="6.02549">
        <ele>233.2</ele>
        <time>2019-08-17T14:19:47Z</time>
      </trkpt>
      <trkpt lat="47.21974" lon="6.02544">
        <ele>233.2</ele>
        <time>2019-08-17T14:19:48Z</time>
      </trkpt>
      <trkpt lat="47.21973" lon="6.02538">
        <ele>233.2</ele>
        <time>2019-08-17T14:19:49Z</time>
      </trkpt>
      <trkpt lat="47.21973" lon="6.02532">
        <ele>233.2</ele>
        <time>2019-08-17T14:19:50Z</time>
      </trkpt>
      <trkpt lat="47.21973" lon="6.02527">
        <ele>233.2</ele>
        <time>2019-08-17T14:19:51Z</time>
      </trkpt>
      <trkpt lat="47.21972" lon="6.02521">
        <ele>233.2</ele>
        <time>2019-08-17T14:19:52Z</time>
      </trkpt>
      <trkpt lat="47.2197" lon="6.02516">
        <ele>233.3</ele>
        <time>2019-08-17T14:19:53Z</time>
      </trkpt>
      <trkpt lat="47.2197" lon="6.0251">
        <ele>233.3</ele>
        <time>2019-08-17T14:19:54Z</time>
      </trkpt>
      <trkpt lat="47.2197" lon="6.02505">
        <ele>233.3</ele>
        <time>2019-08-17T14:19:55Z</time>
      </trkpt>
      <trkpt lat="47.21971" lon="6.025">
        <ele>233.3</ele>
        <time>2019-08-17T14:19:56Z</time>
      </trkpt>
      <trkpt lat="47.21969" lon="6.02493">
        <ele>233.3</ele>
        <time>2019-08-17T14:19:57Z</time>
      </trkpt>
      <trkpt lat="47.21967" lon="6.02486">
        <ele>233.3</ele>
        <time>2019-08-17T14:19:59Z</time>
      </trkpt>
      <trkpt lat="47.21967" lon="6.02481">
        <ele>233.3</ele>
        <time>2019-08-17T14:20:00Z</time>
      </trkpt>
      <trkpt lat="47.21966" lon="6.02477">
        <ele>233.3</ele>
        <time>2019-08-17T14:20:01Z</time>
      </trkpt>
      <trkpt lat="47.21965" lon="6.02472">
        <ele>233.2</ele>
        <time>2019-08-17T14:20:02Z</time>
      </trkpt>
      <trkpt lat="47.21964" lon="6.02467">
        <ele>233.2</ele>
        <time>2019-08-17T14:20:03Z</time>
      </trkpt>
      <trkpt lat="47.21964" lon="6.02461">
        <ele>233.2</ele>
        <time>2019-08-17T14:20:04Z</time>
      </trkpt>
      <trkpt lat="47.21964" lon="6.02456">
        <ele>233.2</ele>
        <time>2019-08-17T14:20:05Z</time>
      </trkpt>
      <trkpt lat="47.21963" lon="6.02451">
        <ele>233.1</ele>
        <time>2019-08-17T14:20:06Z</time>
      </trkpt>
      <trkpt lat="47.21962" lon="6.02447">
        <ele>232.8</ele>
        <time>2019-08-17T14:20:07Z</time>
      </trkpt>
      <trkpt lat="47.21961" lon="6.02442">
        <ele>232.6</ele>
        <time>2019-08-17T14:20:08Z</time>
      </trkpt>
      <trkpt lat="47.21959" lon="6.02437">
        <ele>232.3</ele>
        <time>2019-08-17T14:20:09Z</time>
      </trkpt>
      <trkpt lat="47.21958" lon="6.02431">
        <ele>232.1</ele>
        <time>2019-08-17T14:20:10Z</time>
      </trkpt>
      <trkpt lat="47.21958" lon="6.02427">
        <ele>231.9</ele>
        <time>2019-08-17T14:20:11Z</time>
      </trkpt>
      <trkpt lat="47.21957" lon="6.02422">
        <ele>231.7</ele>
        <time>2019-08-17T14:20:12Z</time>
      </trkpt>
      <trkpt lat="47.21956" lon="6.02417">
        <ele>231.4</ele>
        <time>2019-08-17T14:20:13Z</time>
      </trkpt>
      <trkpt lat="47.21955" lon="6.02412">
        <ele>231.3</ele>
        <time>2019-08-17T14:20:14Z</time>
      </trkpt>
      <trkpt lat="47.21954" lon="6.02407">
        <ele>231.1</ele>
        <time>2019-08-17T14:20:15Z</time>
      </trkpt>
      <trkpt lat="47.21953" lon="6.02402">
        <ele>231.1</ele>
        <time>2019-08-17T14:20:16Z</time>
      </trkpt>
      <trkpt lat="47.21952" lon="6.02397">
        <ele>231</ele>
        <time>2019-08-17T14:20:17Z</time>
      </trkpt>
      <trkpt lat="47.2195" lon="6.02392">
        <ele>231</ele>
        <time>2019-08-17T14:20:18Z</time>
      </trkpt>
      <trkpt lat="47.21947" lon="6.02388">
        <ele>231</ele>
        <time>2019-08-17T14:20:19Z</time>
      </trkpt>
      <trkpt lat="47.21947" lon="6.02383">
        <ele>231.1</ele>
        <time>2019-08-17T14:20:20Z</time>
      </trkpt>
      <trkpt lat="47.21945" lon="6.02378">
        <ele>231.1</ele>
        <time>2019-08-17T14:20:21Z</time>
      </trkpt>
      <trkpt lat="47.21944" lon="6.02373">
        <ele>231.3</ele>
        <time>2019-08-17T14:20:22Z</time>
      </trkpt>
      <trkpt lat="47.21943" lon="6.02368">
        <ele>231.4</ele>
        <time>2019-08-17T14:20:23Z</time>
      </trkpt>
      <trkpt lat="47.21941" lon="6.02364">
        <ele>231.6</ele>
        <time>2019-08-17T14:20:24Z</time>
      </trkpt>
      <trkpt lat="47.21938" lon="6.02359">
        <ele>231.8</ele>
        <time>2019-08-17T14:20:25Z</time>
      </trkpt>
      <trkpt lat="47.21935" lon="6.02355">
        <ele>232</ele>
        <time>2019-08-17T14:20:26Z</time>
      </trkpt>
      <trkpt lat="47.21932" lon="6.02351">
        <ele>232.3</ele>
        <time>2019-08-17T14:20:27Z</time>
      </trkpt>
      <trkpt lat="47.21931" lon="6.02348">
        <ele>232.5</ele>
        <time>2019-08-17T14:20:28Z</time>
      </trkpt>
      <trkpt lat="47.21929" lon="6.02343">
        <ele>232.8</ele>
        <time>2019-08-17T14:20:29Z</time>
      </trkpt>
      <trkpt lat="47.21927" lon="6.02338">
        <ele>233.2</ele>
        <time>2019-08-17T14:20:30Z</time>
      </trkpt>
      <trkpt lat="47.21924" lon="6.02334">
        <ele>233.6</ele>
        <time>2019-08-17T14:20:31Z</time>
      </trkpt>
      <trkpt lat="47.21922" lon="6.0233">
        <ele>233.9</ele>
        <time>2019-08-17T14:20:32Z</time>
      </trkpt>
      <trkpt lat="47.2192" lon="6.02325">
        <ele>234.2</ele>
        <time>2019-08-17T14:20:33Z</time>
      </trkpt>
      <trkpt lat="47.21918" lon="6.0232">
        <ele>234.5</ele>
        <time>2019-08-17T14:20:34Z</time>
      </trkpt>
      <trkpt lat="47.21916" lon="6.02315">
        <ele>234.8</ele>
        <time>2019-08-17T14:20:35Z</time>
      </trkpt>
      <trkpt lat="47.21914" lon="6.02309">
        <ele>235</ele>
        <time>2019-08-17T14:20:36Z</time>
      </trkpt>
      <trkpt lat="47.21913" lon="6.02304">
        <ele>235.1</ele>
        <time>2019-08-17T14:20:37Z</time>
      </trkpt>
      <trkpt lat="47.21911" lon="6.02299">
        <ele>235.2</ele>
        <time>2019-08-17T14:20:38Z</time>
      </trkpt>
      <trkpt lat="47.21907" lon="6.02292">
        <ele>235.2</ele>
        <time>2019-08-17T14:20:39Z</time>
      </trkpt>
      <trkpt lat="47.21905" lon="6.02286">
        <ele>235.1</ele>
        <time>2019-08-17T14:20:40Z</time>
      </trkpt>
      <trkpt lat="47.21902" lon="6.02279">
        <ele>234.9</ele>
        <time>2019-08-17T14:20:41Z</time>
      </trkpt>
      <trkpt lat="47.219" lon="6.02272">
        <ele>234.8</ele>
        <time>2019-08-17T14:20:42Z</time>
      </trkpt>
      <trkpt lat="47.21898" lon="6.02266">
        <ele>234.7</ele>
        <time>2019-08-17T14:20:43Z</time>
      </trkpt>
      <trkpt lat="47.21895" lon="6.02259">
        <ele>234.6</ele>
        <time>2019-08-17T14:20:44Z</time>
      </trkpt>
      <trkpt lat="47.21892" lon="6.02251">
        <ele>234.7</ele>
        <time>2019-08-17T14:20:45Z</time>
      </trkpt>
      <trkpt lat="47.2189" lon="6.02246">
        <ele>234.8</ele>
        <time>2019-08-17T14:20:46Z</time>
      </trkpt>
      <trkpt lat="47.21886" lon="6.02241">
        <ele>234.9</ele>
        <time>2019-08-17T14:20:47Z</time>
      </trkpt>
      <trkpt lat="47.21883" lon="6.02236">
        <ele>235.1</ele>
        <time>2019-08-17T14:20:48Z</time>
      </trkpt>
      <trkpt lat="47.2188" lon="6.0223">
        <ele>235.4</ele>
        <time>2019-08-17T14:20:49Z</time>
      </trkpt>
      <trkpt lat="47.21879" lon="6.02224">
        <ele>235.6</ele>
        <time>2019-08-17T14:20:50Z</time>
      </trkpt>
      <trkpt lat="47.21877" lon="6.02219">
        <ele>236</ele>
        <time>2019-08-17T14:20:51Z</time>
      </trkpt>
      <trkpt lat="47.21874" lon="6.02213">
        <ele>236.4</ele>
        <time>2019-08-17T14:20:52Z</time>
      </trkpt>
      <trkpt lat="47.21872" lon="6.02207">
        <ele>236.8</ele>
        <time>2019-08-17T14:20:53Z</time>
      </trkpt>
      <trkpt lat="47.21869" lon="6.02202">
        <ele>237.2</ele>
        <time>2019-08-17T14:20:54Z</time>
      </trkpt>
      <trkpt lat="47.21866" lon="6.02196">
        <ele>237.6</ele>
        <time>2019-08-17T14:20:55Z</time>
      </trkpt>
      <trkpt lat="47.21863" lon="6.0219">
        <ele>238.1</ele>
        <time>2019-08-17T14:20:56Z</time>
      </trkpt>
      <trkpt lat="47.21861" lon="6.02185">
        <ele>238.5</ele>
        <time>2019-08-17T14:20:57Z</time>
      </trkpt>
      <trkpt lat="47.21858" lon="6.02179">
        <ele>239</ele>
        <time>2019-08-17T14:20:58Z</time>
      </trkpt>
      <trkpt lat="47.21855" lon="6.02173">
        <ele>239.5</ele>
        <time>2019-08-17T14:20:59Z</time>
      </trkpt>
      <trkpt lat="47.21853" lon="6.02169">
        <ele>239.8</ele>
        <time>2019-08-17T14:21:00Z</time>
      </trkpt>
      <trkpt lat="47.21851" lon="6.02162">
        <ele>240</ele>
        <time>2019-08-17T14:21:01Z</time>
      </trkpt>
      <trkpt lat="47.21848" lon="6.02156">
        <ele>240.3</ele>
        <time>2019-08-17T14:21:02Z</time>
      </trkpt>
      <trkpt lat="47.21846" lon="6.02149">
        <ele>240.4</ele>
        <time>2019-08-17T14:21:03Z</time>
      </trkpt>
      <trkpt lat="47.21843" lon="6.02142">
        <ele>240.6</ele>
        <time>2019-08-17T14:21:04Z</time>
      </trkpt>
      <trkpt lat="47.2184" lon="6.02136">
        <ele>240.7</ele>
        <time>2019-08-17T14:21:05Z</time>
      </trkpt>
      <trkpt lat="47.21837" lon="6.0213">
        <ele>240.8</ele>
        <time>2019-08-17T14:21:06Z</time>
      </trkpt>
      <trkpt lat="47.21834" lon="6.02125">
        <ele>240.9</ele>
        <time>2019-08-17T14:21:07Z</time>
      </trkpt>
      <trkpt lat="47.21832" lon="6.02118">
        <ele>240.9</ele>
        <time>2019-08-17T14:21:08Z</time>
      </trkpt>
      <trkpt lat="47.2183" lon="6.02111">
        <ele>241</ele>
        <time>2019-08-17T14:21:09Z</time>
      </trkpt>
      <trkpt lat="47.21826" lon="6.02105">
        <ele>241</ele>
        <time>2019-08-17T14:21:10Z</time>
      </trkpt>
      <trkpt lat="47.21824" lon="6.02098">
        <ele>241.1</ele>
        <time>2019-08-17T14:21:11Z</time>
      </trkpt>
      <trkpt lat="47.21821" lon="6.02093">
        <ele>241.2</ele>
        <time>2019-08-17T14:21:12Z</time>
      </trkpt>
      <trkpt lat="47.21818" lon="6.02087">
        <ele>241.3</ele>
        <time>2019-08-17T14:21:13Z</time>
      </trkpt>
      <trkpt lat="47.21816" lon="6.02081">
        <ele>241.5</ele>
        <time>2019-08-17T14:21:14Z</time>
      </trkpt>
      <trkpt lat="47.21814" lon="6.02075">
        <ele>241.7</ele>
        <time>2019-08-17T14:21:15Z</time>
      </trkpt>
      <trkpt lat="47.21811" lon="6.02069">
        <ele>242</ele>
        <time>2019-08-17T14:21:16Z</time>
      </trkpt>
      <trkpt lat="47.21809" lon="6.02063">
        <ele>242.2</ele>
        <time>2019-08-17T14:21:17Z</time>
      </trkpt>
      <trkpt lat="47.21806" lon="6.02058">
        <ele>242.5</ele>
        <time>2019-08-17T14:21:18Z</time>
      </trkpt>
      <trkpt lat="47.21804" lon="6.02051">
        <ele>242.8</ele>
        <time>2019-08-17T14:21:19Z</time>
      </trkpt>
      <trkpt lat="47.21803" lon="6.02045">
        <ele>243</ele>
        <time>2019-08-17T14:21:20Z</time>
      </trkpt>
      <trkpt lat="47.21801" lon="6.02038">
        <ele>243.2</ele>
        <time>2019-08-17T14:21:21Z</time>
      </trkpt>
      <trkpt lat="47.21799" lon="6.02032">
        <ele>243.3</ele>
        <time>2019-08-17T14:21:22Z</time>
      </trkpt>
      <trkpt lat="47.21796" lon="6.02027">
        <ele>243.5</ele>
        <time>2019-08-17T14:21:23Z</time>
      </trkpt>
      <trkpt lat="47.21793" lon="6.02023">
        <ele>243.6</ele>
        <time>2019-08-17T14:21:24Z</time>
      </trkpt>
      <trkpt lat="47.2179" lon="6.02018">
        <ele>243.8</ele>
        <time>2019-08-17T14:21:25Z</time>
      </trkpt>
      <trkpt lat="47.21788" lon="6.02011">
        <ele>244</ele>
        <time>2019-08-17T14:21:26Z</time>
      </trkpt>
      <trkpt lat="47.21787" lon="6.02004">
        <ele>244.2</ele>
        <time>2019-08-17T14:21:27Z</time>
      </trkpt>
      <trkpt lat="47.21784" lon="6.01998">
        <ele>244.4</ele>
        <time>2019-08-17T14:21:28Z</time>
      </trkpt>
      <trkpt lat="47.21782" lon="6.01993">
        <ele>244.6</ele>
        <time>2019-08-17T14:21:29Z</time>
      </trkpt>
      <trkpt lat="47.2178" lon="6.01987">
        <ele>244.8</ele>
        <time>2019-08-17T14:21:30Z</time>
      </trkpt>
      <trkpt lat="47.21778" lon="6.01981">
        <ele>245</ele>
        <time>2019-08-17T14:21:31Z</time>
      </trkpt>
      <trkpt lat="47.21775" lon="6.01976">
        <ele>245.2</ele>
        <time>2019-08-17T14:21:32Z</time>
      </trkpt>
      <trkpt lat="47.21773" lon="6.01971">
        <ele>245.4</ele>
        <time>2019-08-17T14:21:33Z</time>
      </trkpt>
      <trkpt lat="47.21771" lon="6.01966">
        <ele>245.6</ele>
        <time>2019-08-17T14:21:34Z</time>
      </trkpt>
      <trkpt lat="47.21768" lon="6.0196">
        <ele>245.8</ele>
        <time>2019-08-17T14:21:35Z</time>
      </trkpt>
      <trkpt lat="47.21765" lon="6.01955">
        <ele>245.9</ele>
        <time>2019-08-17T14:21:36Z</time>
      </trkpt>
      <trkpt lat="47.21762" lon="6.0195">
        <ele>246</ele>
        <time>2019-08-17T14:21:37Z</time>
      </trkpt>
      <trkpt lat="47.2176" lon="6.01944">
        <ele>246.1</ele>
        <time>2019-08-17T14:21:38Z</time>
      </trkpt>
      <trkpt lat="47.21758" lon="6.01939">
        <ele>246.2</ele>
        <time>2019-08-17T14:21:39Z</time>
      </trkpt>
      <trkpt lat="47.21756" lon="6.01933">
        <ele>246.3</ele>
        <time>2019-08-17T14:21:40Z</time>
      </trkpt>
      <trkpt lat="47.21755" lon="6.01926">
        <ele>246.4</ele>
        <time>2019-08-17T14:21:41Z</time>
      </trkpt>
      <trkpt lat="47.21752" lon="6.01921">
        <ele>246.5</ele>
        <time>2019-08-17T14:21:42Z</time>
      </trkpt>
      <trkpt lat="47.2175" lon="6.01915">
        <ele>246.6</ele>
        <time>2019-08-17T14:21:43Z</time>
      </trkpt>
      <trkpt lat="47.21747" lon="6.0191">
        <ele>246.7</ele>
        <time>2019-08-17T14:21:44Z</time>
      </trkpt>
      <trkpt lat="47.21745" lon="6.01906">
        <ele>246.8</ele>
        <time>2019-08-17T14:21:45Z</time>
      </trkpt>
      <trkpt lat="47.21743" lon="6.01902">
        <ele>246.9</ele>
        <time>2019-08-17T14:21:46Z</time>
      </trkpt>
      <trkpt lat="47.21742" lon="6.01898">
        <ele>247.1</ele>
        <time>2019-08-17T14:21:47Z</time>
      </trkpt>
      <trkpt lat="47.2174" lon="6.01893">
        <ele>247.2</ele>
        <time>2019-08-17T14:21:48Z</time>
      </trkpt>
      <trkpt lat="47.2174" lon="6.01889">
        <ele>247.5</ele>
        <time>2019-08-17T14:21:49Z</time>
      </trkpt>
      <trkpt lat="47.2174" lon="6.01882">
        <ele>247.5</ele>
        <time>2019-08-17T14:21:51Z</time>
      </trkpt>
      <trkpt lat="47.2174" lon="6.01876">
        <ele>247.5</ele>
        <time>2019-08-17T14:21:52Z</time>
      </trkpt>
      <trkpt lat="47.21738" lon="6.01869">
        <ele>247.4</ele>
        <time>2019-08-17T14:21:53Z</time>
      </trkpt>
      <trkpt lat="47.21736" lon="6.01862">
        <ele>247.4</ele>
        <time>2019-08-17T14:21:54Z</time>
      </trkpt>
      <trkpt lat="47.21735" lon="6.01854">
        <ele>247.4</ele>
        <time>2019-08-17T14:21:55Z</time>
      </trkpt>
      <trkpt lat="47.21733" lon="6.01846">
        <ele>247.3</ele>
        <time>2019-08-17T14:21:56Z</time>
      </trkpt>
      <trkpt lat="47.21731" lon="6.01838">
        <ele>247.3</ele>
        <time>2019-08-17T14:21:57Z</time>
      </trkpt>
      <trkpt lat="47.21729" lon="6.01831">
        <ele>247.3</ele>
        <time>2019-08-17T14:21:58Z</time>
      </trkpt>
      <trkpt lat="47.21726" lon="6.01825">
        <ele>247.2</ele>
        <time>2019-08-17T14:21:59Z</time>
      </trkpt>
      <trkpt lat="47.21724" lon="6.0182">
        <ele>247.2</ele>
        <time>2019-08-17T14:22:00Z</time>
      </trkpt>
      <trkpt lat="47.21724" lon="6.01815">
        <ele>247.2</ele>
        <time>2019-08-17T14:22:01Z</time>
      </trkpt>
      <trkpt lat="47.21723" lon="6.0181">
        <ele>247.2</ele>
        <time>2019-08-17T14:22:02Z</time>
      </trkpt>
      <trkpt lat="47.2172" lon="6.01803">
        <ele>247.2</ele>
        <time>2019-08-17T14:22:04Z</time>
      </trkpt>
      <trkpt lat="47.21719" lon="6.01799">
        <ele>247.1</ele>
        <time>2019-08-17T14:22:05Z</time>
      </trkpt>
      <trkpt lat="47.21717" lon="6.01795">
        <ele>247.1</ele>
        <time>2019-08-17T14:22:06Z</time>
      </trkpt>
      <trkpt lat="47.21717" lon="6.01791">
        <ele>247.1</ele>
        <time>2019-08-17T14:22:07Z</time>
      </trkpt>
      <trkpt lat="47.21717" lon="6.01786">
        <ele>247.1</ele>
        <time>2019-08-17T14:22:08Z</time>
      </trkpt>
      <trkpt lat="47.21716" lon="6.01782">
        <ele>247.1</ele>
        <time>2019-08-17T14:22:09Z</time>
      </trkpt>
      <trkpt lat="47.21715" lon="6.01778">
        <ele>247.1</ele>
        <time>2019-08-17T14:22:10Z</time>
      </trkpt>
      <trkpt lat="47.21714" lon="6.01768">
        <ele>247.1</ele>
        <time>2019-08-17T14:22:12Z</time>
      </trkpt>
      <trkpt lat="47.21713" lon="6.01761">
        <ele>247.2</ele>
        <time>2019-08-17T14:22:13Z</time>
      </trkpt>
      <trkpt lat="47.21712" lon="6.01755">
        <ele>247.3</ele>
        <time>2019-08-17T14:22:14Z</time>
      </trkpt>
      <trkpt lat="47.21711" lon="6.01748">
        <ele>247.4</ele>
        <time>2019-08-17T14:22:15Z</time>
      </trkpt>
      <trkpt lat="47.21711" lon="6.01742">
        <ele>247.5</ele>
        <time>2019-08-17T14:22:16Z</time>
      </trkpt>
      <trkpt lat="47.2171" lon="6.01735">
        <ele>247.5</ele>
        <time>2019-08-17T14:22:17Z</time>
      </trkpt>
      <trkpt lat="47.2171" lon="6.01729">
        <ele>247.6</ele>
        <time>2019-08-17T14:22:18Z</time>
      </trkpt>
      <trkpt lat="47.2171" lon="6.01723">
        <ele>247.6</ele>
        <time>2019-08-17T14:22:19Z</time>
      </trkpt>
      <trkpt lat="47.21709" lon="6.01717">
        <ele>247.5</ele>
        <time>2019-08-17T14:22:20Z</time>
      </trkpt>
      <trkpt lat="47.21708" lon="6.01712">
        <ele>247.4</ele>
        <time>2019-08-17T14:22:21Z</time>
      </trkpt>
      <trkpt lat="47.21707" lon="6.01706">
        <ele>247.3</ele>
        <time>2019-08-17T14:22:22Z</time>
      </trkpt>
      <trkpt lat="47.21706" lon="6.01699">
        <ele>247.2</ele>
        <time>2019-08-17T14:22:23Z</time>
      </trkpt>
      <trkpt lat="47.21706" lon="6.01693">
        <ele>247.1</ele>
        <time>2019-08-17T14:22:24Z</time>
      </trkpt>
      <trkpt lat="47.21706" lon="6.01687">
        <ele>246.9</ele>
        <time>2019-08-17T14:22:25Z</time>
      </trkpt>
      <trkpt lat="47.21706" lon="6.01681">
        <ele>246.8</ele>
        <time>2019-08-17T14:22:26Z</time>
      </trkpt>
      <trkpt lat="47.21705" lon="6.01673">
        <ele>246.7</ele>
        <time>2019-08-17T14:22:27Z</time>
      </trkpt>
      <trkpt lat="47.21705" lon="6.01667">
        <ele>246.6</ele>
        <time>2019-08-17T14:22:28Z</time>
      </trkpt>
      <trkpt lat="47.21705" lon="6.01661">
        <ele>246.6</ele>
        <time>2019-08-17T14:22:29Z</time>
      </trkpt>
      <trkpt lat="47.21704" lon="6.01655">
        <ele>246.6</ele>
        <time>2019-08-17T14:22:30Z</time>
      </trkpt>
      <trkpt lat="47.21704" lon="6.01648">
        <ele>246.5</ele>
        <time>2019-08-17T14:22:31Z</time>
      </trkpt>
      <trkpt lat="47.21704" lon="6.01642">
        <ele>246.5</ele>
        <time>2019-08-17T14:22:32Z</time>
      </trkpt>
      <trkpt lat="47.21704" lon="6.01636">
        <ele>246.5</ele>
        <time>2019-08-17T14:22:33Z</time>
      </trkpt>
      <trkpt lat="47.21703" lon="6.01631">
        <ele>246.5</ele>
        <time>2019-08-17T14:22:34Z</time>
      </trkpt>
      <trkpt lat="47.21703" lon="6.01625">
        <ele>246.4</ele>
        <time>2019-08-17T14:22:35Z</time>
      </trkpt>
      <trkpt lat="47.21702" lon="6.0162">
        <ele>246.4</ele>
        <time>2019-08-17T14:22:36Z</time>
      </trkpt>
      <trkpt lat="47.21702" lon="6.01612">
        <ele>246.4</ele>
        <time>2019-08-17T14:22:37Z</time>
      </trkpt>
      <trkpt lat="47.217" lon="6.01608">
        <ele>246.4</ele>
        <time>2019-08-17T14:22:38Z</time>
      </trkpt>
      <trkpt lat="47.217" lon="6.01601">
        <ele>246.3</ele>
        <time>2019-08-17T14:22:39Z</time>
      </trkpt>
      <trkpt lat="47.21698" lon="6.01597">
        <ele>246.3</ele>
        <time>2019-08-17T14:22:40Z</time>
      </trkpt>
      <trkpt lat="47.21697" lon="6.0159">
        <ele>246.3</ele>
        <time>2019-08-17T14:22:41Z</time>
      </trkpt>
      <trkpt lat="47.21696" lon="6.01584">
        <ele>246.3</ele>
        <time>2019-08-17T14:22:42Z</time>
      </trkpt>
      <trkpt lat="47.21696" lon="6.01578">
        <ele>246.2</ele>
        <time>2019-08-17T14:22:43Z</time>
      </trkpt>
      <trkpt lat="47.21695" lon="6.01572">
        <ele>246.2</ele>
        <time>2019-08-17T14:22:44Z</time>
      </trkpt>
      <trkpt lat="47.21695" lon="6.01565">
        <ele>246.2</ele>
        <time>2019-08-17T14:22:45Z</time>
      </trkpt>
      <trkpt lat="47.21695" lon="6.01559">
        <ele>246.1</ele>
        <time>2019-08-17T14:22:46Z</time>
      </trkpt>
      <trkpt lat="47.21695" lon="6.01554">
        <ele>246.1</ele>
        <time>2019-08-17T14:22:47Z</time>
      </trkpt>
      <trkpt lat="47.21696" lon="6.01548">
        <ele>246</ele>
        <time>2019-08-17T14:22:48Z</time>
      </trkpt>
      <trkpt lat="47.21695" lon="6.01541">
        <ele>245.9</ele>
        <time>2019-08-17T14:22:49Z</time>
      </trkpt>
      <trkpt lat="47.21694" lon="6.01535">
        <ele>245.7</ele>
        <time>2019-08-17T14:22:50Z</time>
      </trkpt>
      <trkpt lat="47.21692" lon="6.01529">
        <ele>245.5</ele>
        <time>2019-08-17T14:22:51Z</time>
      </trkpt>
      <trkpt lat="47.21691" lon="6.01522">
        <ele>245.2</ele>
        <time>2019-08-17T14:22:52Z</time>
      </trkpt>
      <trkpt lat="47.2169" lon="6.01516">
        <ele>244.9</ele>
        <time>2019-08-17T14:22:53Z</time>
      </trkpt>
      <trkpt lat="47.2169" lon="6.01509">
        <ele>244.5</ele>
        <time>2019-08-17T14:22:54Z</time>
      </trkpt>
      <trkpt lat="47.21689" lon="6.01504">
        <ele>244.1</ele>
        <time>2019-08-17T14:22:55Z</time>
      </trkpt>
      <trkpt lat="47.21689" lon="6.01497">
        <ele>243.8</ele>
        <time>2019-08-17T14:22:56Z</time>
      </trkpt>
      <trkpt lat="47.21688" lon="6.0149">
        <ele>243.6</ele>
        <time>2019-08-17T14:22:57Z</time>
      </trkpt>
      <trkpt lat="47.21688" lon="6.01483">
        <ele>243.5</ele>
        <time>2019-08-17T14:22:58Z</time>
      </trkpt>
      <trkpt lat="47.21688" lon="6.01476">
        <ele>243.5</ele>
        <time>2019-08-17T14:22:59Z</time>
      </trkpt>
      <trkpt lat="47.21688" lon="6.0147">
        <ele>243.6</ele>
        <time>2019-08-17T14:23:00Z</time>
      </trkpt>
      <trkpt lat="47.21687" lon="6.01464">
        <ele>243.7</ele>
        <time>2019-08-17T14:23:01Z</time>
      </trkpt>
      <trkpt lat="47.21687" lon="6.01458">
        <ele>243.9</ele>
        <time>2019-08-17T14:23:02Z</time>
      </trkpt>
      <trkpt lat="47.21686" lon="6.01452">
        <ele>244</ele>
        <time>2019-08-17T14:23:03Z</time>
      </trkpt>
      <trkpt lat="47.21685" lon="6.01447">
        <ele>244.1</ele>
        <time>2019-08-17T14:23:04Z</time>
      </trkpt>
      <trkpt lat="47.21685" lon="6.01441">
        <ele>244.1</ele>
        <time>2019-08-17T14:23:05Z</time>
      </trkpt>
      <trkpt lat="47.21684" lon="6.01436">
        <ele>244</ele>
        <time>2019-08-17T14:23:06Z</time>
      </trkpt>
      <trkpt lat="47.21684" lon="6.01429">
        <ele>243.9</ele>
        <time>2019-08-17T14:23:07Z</time>
      </trkpt>
      <trkpt lat="47.21683" lon="6.01424">
        <ele>243.7</ele>
        <time>2019-08-17T14:23:08Z</time>
      </trkpt>
      <trkpt lat="47.21682" lon="6.01417">
        <ele>243.5</ele>
        <time>2019-08-17T14:23:09Z</time>
      </trkpt>
      <trkpt lat="47.21682" lon="6.01412">
        <ele>243.4</ele>
        <time>2019-08-17T14:23:10Z</time>
      </trkpt>
      <trkpt lat="47.21682" lon="6.01406">
        <ele>243.3</ele>
        <time>2019-08-17T14:23:11Z</time>
      </trkpt>
      <trkpt lat="47.21682" lon="6.014">
        <ele>243.4</ele>
        <time>2019-08-17T14:23:12Z</time>
      </trkpt>
      <trkpt lat="47.21681" lon="6.01395">
        <ele>243.5</ele>
        <time>2019-08-17T14:23:13Z</time>
      </trkpt>
      <trkpt lat="47.21681" lon="6.01389">
        <ele>243.7</ele>
        <time>2019-08-17T14:23:14Z</time>
      </trkpt>
      <trkpt lat="47.2168" lon="6.01382">
        <ele>243.9</ele>
        <time>2019-08-17T14:23:15Z</time>
      </trkpt>
      <trkpt lat="47.2168" lon="6.01375">
        <ele>244.1</ele>
        <time>2019-08-17T14:23:16Z</time>
      </trkpt>
      <trkpt lat="47.21679" lon="6.01369">
        <ele>244.3</ele>
        <time>2019-08-17T14:23:17Z</time>
      </trkpt>
      <trkpt lat="47.21678" lon="6.01363">
        <ele>244.4</ele>
        <time>2019-08-17T14:23:18Z</time>
      </trkpt>
      <trkpt lat="47.21677" lon="6.01357">
        <ele>244.5</ele>
        <time>2019-08-17T14:23:19Z</time>
      </trkpt>
      <trkpt lat="47.21677" lon="6.01352">
        <ele>244.5</ele>
        <time>2019-08-17T14:23:20Z</time>
      </trkpt>
      <trkpt lat="47.21675" lon="6.01347">
        <ele>244.5</ele>
        <time>2019-08-17T14:23:21Z</time>
      </trkpt>
      <trkpt lat="47.21674" lon="6.01341">
        <ele>244.5</ele>
        <time>2019-08-17T14:23:22Z</time>
      </trkpt>
      <trkpt lat="47.21674" lon="6.01335">
        <ele>244.4</ele>
        <time>2019-08-17T14:23:23Z</time>
      </trkpt>
      <trkpt lat="47.21673" lon="6.01329">
        <ele>244.4</ele>
        <time>2019-08-17T14:23:24Z</time>
      </trkpt>
      <trkpt lat="47.21672" lon="6.01323">
        <ele>244.4</ele>
        <time>2019-08-17T14:23:25Z</time>
      </trkpt>
      <trkpt lat="47.21671" lon="6.01317">
        <ele>244.3</ele>
        <time>2019-08-17T14:23:26Z</time>
      </trkpt>
      <trkpt lat="47.2167" lon="6.01312">
        <ele>244.3</ele>
        <time>2019-08-17T14:23:27Z</time>
      </trkpt>
      <trkpt lat="47.2167" lon="6.01306">
        <ele>244.4</ele>
        <time>2019-08-17T14:23:28Z</time>
      </trkpt>
      <trkpt lat="47.2167" lon="6.01301">
        <ele>244.4</ele>
        <time>2019-08-17T14:23:29Z</time>
      </trkpt>
      <trkpt lat="47.21669" lon="6.01295">
        <ele>244.5</ele>
        <time>2019-08-17T14:23:30Z</time>
      </trkpt>
      <trkpt lat="47.21668" lon="6.01289">
        <ele>244.6</ele>
        <time>2019-08-17T14:23:31Z</time>
      </trkpt>
      <trkpt lat="47.21667" lon="6.01283">
        <ele>244.7</ele>
        <time>2019-08-17T14:23:32Z</time>
      </trkpt>
      <trkpt lat="47.21667" lon="6.01277">
        <ele>244.8</ele>
        <time>2019-08-17T14:23:33Z</time>
      </trkpt>
      <trkpt lat="47.21666" lon="6.01271">
        <ele>244.9</ele>
        <time>2019-08-17T14:23:34Z</time>
      </trkpt>
      <trkpt lat="47.21665" lon="6.01265">
        <ele>244.9</ele>
        <time>2019-08-17T14:23:35Z</time>
      </trkpt>
      <trkpt lat="47.21665" lon="6.01259">
        <ele>244.9</ele>
        <time>2019-08-17T14:23:36Z</time>
      </trkpt>
      <trkpt lat="47.21664" lon="6.01252">
        <ele>244.9</ele>
        <time>2019-08-17T14:23:37Z</time>
      </trkpt>
      <trkpt lat="47.21663" lon="6.01247">
        <ele>244.9</ele>
        <time>2019-08-17T14:23:38Z</time>
      </trkpt>
      <trkpt lat="47.21662" lon="6.0124">
        <ele>244.9</ele>
        <time>2019-08-17T14:23:40Z</time>
      </trkpt>
      <trkpt lat="47.21662" lon="6.01235">
        <ele>244.9</ele>
        <time>2019-08-17T14:23:41Z</time>
      </trkpt>
      <trkpt lat="47.21662" lon="6.01231">
        <ele>244.9</ele>
        <time>2019-08-17T14:23:42Z</time>
      </trkpt>
      <trkpt lat="47.21662" lon="6.01227">
        <ele>245</ele>
        <time>2019-08-17T14:23:43Z</time>
      </trkpt>
      <trkpt lat="47.21662" lon="6.01222">
        <ele>245</ele>
        <time>2019-08-17T14:23:44Z</time>
      </trkpt>
      <trkpt lat="47.21662" lon="6.01217">
        <ele>245</ele>
        <time>2019-08-17T14:23:45Z</time>
      </trkpt>
      <trkpt lat="47.21662" lon="6.01212">
        <ele>245</ele>
        <time>2019-08-17T14:23:46Z</time>
      </trkpt>
      <trkpt lat="47.21662" lon="6.01207">
        <ele>245.1</ele>
        <time>2019-08-17T14:23:47Z</time>
      </trkpt>
      <trkpt lat="47.21662" lon="6.01202">
        <ele>245.1</ele>
        <time>2019-08-17T14:23:48Z</time>
      </trkpt>
      <trkpt lat="47.21661" lon="6.01196">
        <ele>245.2</ele>
        <time>2019-08-17T14:23:49Z</time>
      </trkpt>
      <trkpt lat="47.21661" lon="6.01191">
        <ele>245.3</ele>
        <time>2019-08-17T14:23:50Z</time>
      </trkpt>
      <trkpt lat="47.2166" lon="6.01186">
        <ele>245.3</ele>
        <time>2019-08-17T14:23:51Z</time>
      </trkpt>
      <trkpt lat="47.21659" lon="6.01181">
        <ele>245.4</ele>
        <time>2019-08-17T14:23:52Z</time>
      </trkpt>
      <trkpt lat="47.21659" lon="6.01175">
        <ele>245.4</ele>
        <time>2019-08-17T14:23:53Z</time>
      </trkpt>
      <trkpt lat="47.21659" lon="6.0117">
        <ele>245.4</ele>
        <time>2019-08-17T14:23:54Z</time>
      </trkpt>
      <trkpt lat="47.21658" lon="6.01165">
        <ele>245.4</ele>
        <time>2019-08-17T14:23:55Z</time>
      </trkpt>
      <trkpt lat="47.21658" lon="6.0116">
        <ele>245.4</ele>
        <time>2019-08-17T14:23:56Z</time>
      </trkpt>
      <trkpt lat="47.21658" lon="6.01155">
        <ele>245.3</ele>
        <time>2019-08-17T14:23:57Z</time>
      </trkpt>
      <trkpt lat="47.21658" lon="6.0115">
        <ele>245.2</ele>
        <time>2019-08-17T14:23:58Z</time>
      </trkpt>
      <trkpt lat="47.21658" lon="6.01145">
        <ele>245.1</ele>
        <time>2019-08-17T14:23:59Z</time>
      </trkpt>
      <trkpt lat="47.21658" lon="6.0114">
        <ele>245</ele>
        <time>2019-08-17T14:24:00Z</time>
      </trkpt>
      <trkpt lat="47.21657" lon="6.01133">
        <ele>244.9</ele>
        <time>2019-08-17T14:24:01Z</time>
      </trkpt>
      <trkpt lat="47.21657" lon="6.01126">
        <ele>244.7</ele>
        <time>2019-08-17T14:24:02Z</time>
      </trkpt>
      <trkpt lat="47.21656" lon="6.01119">
        <ele>244.6</ele>
        <time>2019-08-17T14:24:03Z</time>
      </trkpt>
      <trkpt lat="47.21656" lon="6.01114">
        <ele>244.5</ele>
        <time>2019-08-17T14:24:04Z</time>
      </trkpt>
      <trkpt lat="47.21655" lon="6.01107">
        <ele>244.4</ele>
        <time>2019-08-17T14:24:05Z</time>
      </trkpt>
      <trkpt lat="47.21656" lon="6.01101">
        <ele>244.4</ele>
        <time>2019-08-17T14:24:06Z</time>
      </trkpt>
      <trkpt lat="47.21656" lon="6.01095">
        <ele>244.4</ele>
        <time>2019-08-17T14:24:07Z</time>
      </trkpt>
      <trkpt lat="47.21655" lon="6.01088">
        <ele>244.3</ele>
        <time>2019-08-17T14:24:08Z</time>
      </trkpt>
      <trkpt lat="47.21655" lon="6.01082">
        <ele>244.3</ele>
        <time>2019-08-17T14:24:09Z</time>
      </trkpt>
      <trkpt lat="47.21655" lon="6.01077">
        <ele>244.3</ele>
        <time>2019-08-17T14:24:10Z</time>
      </trkpt>
      <trkpt lat="47.21656" lon="6.01071">
        <ele>244.3</ele>
        <time>2019-08-17T14:24:11Z</time>
      </trkpt>
      <trkpt lat="47.21655" lon="6.01066">
        <ele>244.2</ele>
        <time>2019-08-17T14:24:12Z</time>
      </trkpt>
      <trkpt lat="47.21655" lon="6.01062">
        <ele>244.2</ele>
        <time>2019-08-17T14:24:13Z</time>
      </trkpt>
      <trkpt lat="47.21655" lon="6.01056">
        <ele>244.2</ele>
        <time>2019-08-17T14:24:14Z</time>
      </trkpt>
      <trkpt lat="47.21654" lon="6.01051">
        <ele>244.2</ele>
        <time>2019-08-17T14:24:15Z</time>
      </trkpt>
      <trkpt lat="47.21654" lon="6.01046">
        <ele>244.2</ele>
        <time>2019-08-17T14:24:16Z</time>
      </trkpt>
      <trkpt lat="47.21653" lon="6.01042">
        <ele>244.1</ele>
        <time>2019-08-17T14:24:17Z</time>
      </trkpt>
      <trkpt lat="47.21652" lon="6.01037">
        <ele>244.1</ele>
        <time>2019-08-17T14:24:18Z</time>
      </trkpt>
      <trkpt lat="47.21652" lon="6.01032">
        <ele>244.1</ele>
        <time>2019-08-17T14:24:19Z</time>
      </trkpt>
      <trkpt lat="47.21652" lon="6.01027">
        <ele>244</ele>
        <time>2019-08-17T14:24:20Z</time>
      </trkpt>
      <trkpt lat="47.21651" lon="6.01023">
        <ele>244</ele>
        <time>2019-08-17T14:24:21Z</time>
      </trkpt>
      <trkpt lat="47.21651" lon="6.01018">
        <ele>243.9</ele>
        <time>2019-08-17T14:24:22Z</time>
      </trkpt>
      <trkpt lat="47.21651" lon="6.01012">
        <ele>243.8</ele>
        <time>2019-08-17T14:24:23Z</time>
      </trkpt>
      <trkpt lat="47.21651" lon="6.01007">
        <ele>243.8</ele>
        <time>2019-08-17T14:24:24Z</time>
      </trkpt>
      <trkpt lat="47.21649" lon="6.00999">
        <ele>243.6</ele>
        <time>2019-08-17T14:24:26Z</time>
      </trkpt>
      <trkpt lat="47.21649" lon="6.00994">
        <ele>243.6</ele>
        <time>2019-08-17T14:24:27Z</time>
      </trkpt>
      <trkpt lat="47.21648" lon="6.00989">
        <ele>243.5</ele>
        <time>2019-08-17T14:24:28Z</time>
      </trkpt>
      <trkpt lat="47.21647" lon="6.00984">
        <ele>243.4</ele>
        <time>2019-08-17T14:24:29Z</time>
      </trkpt>
      <trkpt lat="47.21648" lon="6.00977">
        <ele>243.2</ele>
        <time>2019-08-17T14:24:30Z</time>
      </trkpt>
      <trkpt lat="47.21647" lon="6.00971">
        <ele>243.1</ele>
        <time>2019-08-17T14:24:31Z</time>
      </trkpt>
      <trkpt lat="47.21647" lon="6.00965">
        <ele>243</ele>
        <time>2019-08-17T14:24:32Z</time>
      </trkpt>
      <trkpt lat="47.21647" lon="6.00959">
        <ele>242.8</ele>
        <time>2019-08-17T14:24:33Z</time>
      </trkpt>
      <trkpt lat="47.21647" lon="6.00953">
        <ele>242.7</ele>
        <time>2019-08-17T14:24:34Z</time>
      </trkpt>
      <trkpt lat="47.21648" lon="6.00948">
        <ele>242.6</ele>
        <time>2019-08-17T14:24:35Z</time>
      </trkpt>
      <trkpt lat="47.21648" lon="6.00942">
        <ele>242.4</ele>
        <time>2019-08-17T14:24:36Z</time>
      </trkpt>
      <trkpt lat="47.21649" lon="6.00937">
        <ele>242.3</ele>
        <time>2019-08-17T14:24:37Z</time>
      </trkpt>
      <trkpt lat="47.21651" lon="6.00931">
        <ele>242.2</ele>
        <time>2019-08-17T14:24:38Z</time>
      </trkpt>
      <trkpt lat="47.21652" lon="6.00927">
        <ele>242.1</ele>
        <time>2019-08-17T14:24:39Z</time>
      </trkpt>
      <trkpt lat="47.21653" lon="6.00921">
        <ele>241.9</ele>
        <time>2019-08-17T14:24:40Z</time>
      </trkpt>
      <trkpt lat="47.21653" lon="6.00915">
        <ele>241.9</ele>
        <time>2019-08-17T14:24:41Z</time>
      </trkpt>
      <trkpt lat="47.21654" lon="6.0091">
        <ele>241.8</ele>
        <time>2019-08-17T14:24:42Z</time>
      </trkpt>
      <trkpt lat="47.21653" lon="6.00905">
        <ele>241.7</ele>
        <time>2019-08-17T14:24:43Z</time>
      </trkpt>
      <trkpt lat="47.21653" lon="6.00899">
        <ele>241.7</ele>
        <time>2019-08-17T14:24:44Z</time>
      </trkpt>
      <trkpt lat="47.21652" lon="6.00893">
        <ele>241.6</ele>
        <time>2019-08-17T14:24:45Z</time>
      </trkpt>
      <trkpt lat="47.21652" lon="6.00886">
        <ele>241.6</ele>
        <time>2019-08-17T14:24:46Z</time>
      </trkpt>
      <trkpt lat="47.21652" lon="6.0088">
        <ele>241.5</ele>
        <time>2019-08-17T14:24:47Z</time>
      </trkpt>
      <trkpt lat="47.21651" lon="6.00874">
        <ele>241.5</ele>
        <time>2019-08-17T14:24:48Z</time>
      </trkpt>
      <trkpt lat="47.21651" lon="6.00868">
        <ele>241.5</ele>
        <time>2019-08-17T14:24:49Z</time>
      </trkpt>
      <trkpt lat="47.2165" lon="6.00862">
        <ele>241.4</ele>
        <time>2019-08-17T14:24:50Z</time>
      </trkpt>
      <trkpt lat="47.2165" lon="6.00855">
        <ele>241.4</ele>
        <time>2019-08-17T14:24:51Z</time>
      </trkpt>
      <trkpt lat="47.21649" lon="6.00848">
        <ele>241.4</ele>
        <time>2019-08-17T14:24:52Z</time>
      </trkpt>
      <trkpt lat="47.21648" lon="6.00842">
        <ele>241.4</ele>
        <time>2019-08-17T14:24:53Z</time>
      </trkpt>
      <trkpt lat="47.21648" lon="6.00835">
        <ele>241.4</ele>
        <time>2019-08-17T14:24:54Z</time>
      </trkpt>
      <trkpt lat="47.21648" lon="6.00829">
        <ele>241.3</ele>
        <time>2019-08-17T14:24:55Z</time>
      </trkpt>
      <trkpt lat="47.21648" lon="6.00823">
        <ele>241.3</ele>
        <time>2019-08-17T14:24:56Z</time>
      </trkpt>
      <trkpt lat="47.21647" lon="6.00817">
        <ele>241.3</ele>
        <time>2019-08-17T14:24:57Z</time>
      </trkpt>
      <trkpt lat="47.21646" lon="6.00811">
        <ele>241.3</ele>
        <time>2019-08-17T14:24:58Z</time>
      </trkpt>
      <trkpt lat="47.21646" lon="6.00805">
        <ele>241.3</ele>
        <time>2019-08-17T14:24:59Z</time>
      </trkpt>
      <trkpt lat="47.21647" lon="6.008">
        <ele>241.4</ele>
        <time>2019-08-17T14:25:00Z</time>
      </trkpt>
      <trkpt lat="47.21648" lon="6.00794">
        <ele>241.4</ele>
        <time>2019-08-17T14:25:01Z</time>
      </trkpt>
      <trkpt lat="47.21648" lon="6.0079">
        <ele>241.5</ele>
        <time>2019-08-17T14:25:02Z</time>
      </trkpt>
      <trkpt lat="47.21648" lon="6.00785">
        <ele>241.5</ele>
        <time>2019-08-17T14:25:03Z</time>
      </trkpt>
      <trkpt lat="47.21648" lon="6.0078">
        <ele>241.6</ele>
        <time>2019-08-17T14:25:04Z</time>
      </trkpt>
      <trkpt lat="47.21648" lon="6.00776">
        <ele>241.7</ele>
        <time>2019-08-17T14:25:05Z</time>
      </trkpt>
      <trkpt lat="47.21648" lon="6.0077">
        <ele>241.7</ele>
        <time>2019-08-17T14:25:06Z</time>
      </trkpt>
      <trkpt lat="47.21648" lon="6.00765">
        <ele>241.8</ele>
        <time>2019-08-17T14:25:07Z</time>
      </trkpt>
      <trkpt lat="47.21649" lon="6.00759">
        <ele>241.8</ele>
        <time>2019-08-17T14:25:08Z</time>
      </trkpt>
      <trkpt lat="47.21649" lon="6.00753">
        <ele>241.9</ele>
        <time>2019-08-17T14:25:09Z</time>
      </trkpt>
      <trkpt lat="47.2165" lon="6.00746">
        <ele>241.9</ele>
        <time>2019-08-17T14:25:10Z</time>
      </trkpt>
      <trkpt lat="47.2165" lon="6.0074">
        <ele>241.9</ele>
        <time>2019-08-17T14:25:11Z</time>
      </trkpt>
      <trkpt lat="47.21649" lon="6.00735">
        <ele>241.9</ele>
        <time>2019-08-17T14:25:12Z</time>
      </trkpt>
      <trkpt lat="47.21648" lon="6.00729">
        <ele>241.9</ele>
        <time>2019-08-17T14:25:13Z</time>
      </trkpt>
      <trkpt lat="47.21647" lon="6.00723">
        <ele>241.9</ele>
        <time>2019-08-17T14:25:14Z</time>
      </trkpt>
      <trkpt lat="47.21647" lon="6.00716">
        <ele>242</ele>
        <time>2019-08-17T14:25:15Z</time>
      </trkpt>
      <trkpt lat="47.21646" lon="6.0071">
        <ele>242</ele>
        <time>2019-08-17T14:25:16Z</time>
      </trkpt>
      <trkpt lat="47.21646" lon="6.00705">
        <ele>242</ele>
        <time>2019-08-17T14:25:17Z</time>
      </trkpt>
      <trkpt lat="47.21646" lon="6.00699">
        <ele>242</ele>
        <time>2019-08-17T14:25:18Z</time>
      </trkpt>
      <trkpt lat="47.21645" lon="6.00692">
        <ele>242.1</ele>
        <time>2019-08-17T14:25:19Z</time>
      </trkpt>
      <trkpt lat="47.21645" lon="6.00684">
        <ele>242.2</ele>
        <time>2019-08-17T14:25:20Z</time>
      </trkpt>
      <trkpt lat="47.21645" lon="6.00677">
        <ele>242.3</ele>
        <time>2019-08-17T14:25:21Z</time>
      </trkpt>
      <trkpt lat="47.21644" lon="6.00671">
        <ele>242.4</ele>
        <time>2019-08-17T14:25:22Z</time>
      </trkpt>
      <trkpt lat="47.21644" lon="6.00665">
        <ele>242.4</ele>
        <time>2019-08-17T14:25:23Z</time>
      </trkpt>
      <trkpt lat="47.21644" lon="6.00659">
        <ele>242.5</ele>
        <time>2019-08-17T14:25:24Z</time>
      </trkpt>
      <trkpt lat="47.21643" lon="6.00652">
        <ele>242.5</ele>
        <time>2019-08-17T14:25:25Z</time>
      </trkpt>
      <trkpt lat="47.21643" lon="6.00646">
        <ele>242.5</ele>
        <time>2019-08-17T14:25:26Z</time>
      </trkpt>
      <trkpt lat="47.21642" lon="6.0064">
        <ele>242.5</ele>
        <time>2019-08-17T14:25:27Z</time>
      </trkpt>
      <trkpt lat="47.2164" lon="6.00633">
        <ele>242.5</ele>
        <time>2019-08-17T14:25:28Z</time>
      </trkpt>
      <trkpt lat="47.2164" lon="6.00625">
        <ele>242.5</ele>
        <time>2019-08-17T14:25:29Z</time>
      </trkpt>
      <trkpt lat="47.21639" lon="6.00619">
        <ele>242.5</ele>
        <time>2019-08-17T14:25:30Z</time>
      </trkpt>
      <trkpt lat="47.21638" lon="6.00611">
        <ele>242.4</ele>
        <time>2019-08-17T14:25:31Z</time>
      </trkpt>
      <trkpt lat="47.21637" lon="6.00604">
        <ele>242.4</ele>
        <time>2019-08-17T14:25:32Z</time>
      </trkpt>
      <trkpt lat="47.21634" lon="6.00598">
        <ele>242.4</ele>
        <time>2019-08-17T14:25:33Z</time>
      </trkpt>
      <trkpt lat="47.21632" lon="6.00591">
        <ele>242.3</ele>
        <time>2019-08-17T14:25:34Z</time>
      </trkpt>
      <trkpt lat="47.21631" lon="6.00585">
        <ele>242.2</ele>
        <time>2019-08-17T14:25:35Z</time>
      </trkpt>
      <trkpt lat="47.2163" lon="6.00578">
        <ele>242.1</ele>
        <time>2019-08-17T14:25:36Z</time>
      </trkpt>
      <trkpt lat="47.21629" lon="6.00572">
        <ele>242</ele>
        <time>2019-08-17T14:25:37Z</time>
      </trkpt>
      <trkpt lat="47.21628" lon="6.00566">
        <ele>241.8</ele>
        <time>2019-08-17T14:25:38Z</time>
      </trkpt>
      <trkpt lat="47.21626" lon="6.0056">
        <ele>241.7</ele>
        <time>2019-08-17T14:25:39Z</time>
      </trkpt>
      <trkpt lat="47.21625" lon="6.00553">
        <ele>241.5</ele>
        <time>2019-08-17T14:25:40Z</time>
      </trkpt>
      <trkpt lat="47.21624" lon="6.00548">
        <ele>241.2</ele>
        <time>2019-08-17T14:25:41Z</time>
      </trkpt>
      <trkpt lat="47.21623" lon="6.00542">
        <ele>241</ele>
        <time>2019-08-17T14:25:42Z</time>
      </trkpt>
      <trkpt lat="47.21621" lon="6.00535">
        <ele>240.6</ele>
        <time>2019-08-17T14:25:43Z</time>
      </trkpt>
      <trkpt lat="47.21619" lon="6.00528">
        <ele>240.2</ele>
        <time>2019-08-17T14:25:44Z</time>
      </trkpt>
      <trkpt lat="47.21618" lon="6.00523">
        <ele>239.8</ele>
        <time>2019-08-17T14:25:45Z</time>
      </trkpt>
      <trkpt lat="47.21616" lon="6.00516">
        <ele>239.4</ele>
        <time>2019-08-17T14:25:46Z</time>
      </trkpt>
      <trkpt lat="47.21614" lon="6.00509">
        <ele>239</ele>
        <time>2019-08-17T14:25:47Z</time>
      </trkpt>
      <trkpt lat="47.21613" lon="6.00502">
        <ele>238.6</ele>
        <time>2019-08-17T14:25:48Z</time>
      </trkpt>
      <trkpt lat="47.21611" lon="6.00496">
        <ele>238.4</ele>
        <time>2019-08-17T14:25:49Z</time>
      </trkpt>
      <trkpt lat="47.2161" lon="6.0049">
        <ele>238.2</ele>
        <time>2019-08-17T14:25:50Z</time>
      </trkpt>
      <trkpt lat="47.21609" lon="6.00485">
        <ele>238.1</ele>
        <time>2019-08-17T14:25:51Z</time>
      </trkpt>
      <trkpt lat="47.21607" lon="6.0048">
        <ele>238</ele>
        <time>2019-08-17T14:25:52Z</time>
      </trkpt>
      <trkpt lat="47.21606" lon="6.00474">
        <ele>238</ele>
        <time>2019-08-17T14:25:53Z</time>
      </trkpt>
      <trkpt lat="47.21606" lon="6.00468">
        <ele>237.9</ele>
        <time>2019-08-17T14:25:54Z</time>
      </trkpt>
      <trkpt lat="47.21604" lon="6.00461">
        <ele>237.9</ele>
        <time>2019-08-17T14:25:55Z</time>
      </trkpt>
      <trkpt lat="47.21603" lon="6.00455">
        <ele>237.8</ele>
        <time>2019-08-17T14:25:56Z</time>
      </trkpt>
      <trkpt lat="47.21601" lon="6.00448">
        <ele>237.8</ele>
        <time>2019-08-17T14:25:57Z</time>
      </trkpt>
      <trkpt lat="47.21599" lon="6.00442">
        <ele>237.7</ele>
        <time>2019-08-17T14:25:58Z</time>
      </trkpt>
      <trkpt lat="47.21598" lon="6.00436">
        <ele>237.7</ele>
        <time>2019-08-17T14:25:59Z</time>
      </trkpt>
      <trkpt lat="47.21597" lon="6.0043">
        <ele>237.6</ele>
        <time>2019-08-17T14:26:00Z</time>
      </trkpt>
      <trkpt lat="47.21596" lon="6.00425">
        <ele>237.6</ele>
        <time>2019-08-17T14:26:01Z</time>
      </trkpt>
      <trkpt lat="47.21595" lon="6.00419">
        <ele>237.5</ele>
        <time>2019-08-17T14:26:02Z</time>
      </trkpt>
      <trkpt lat="47.21592" lon="6.00412">
        <ele>237.4</ele>
        <time>2019-08-17T14:26:03Z</time>
      </trkpt>
      <trkpt lat="47.2159" lon="6.00406">
        <ele>237.2</ele>
        <time>2019-08-17T14:26:04Z</time>
      </trkpt>
      <trkpt lat="47.21587" lon="6.00401">
        <ele>237.1</ele>
        <time>2019-08-17T14:26:05Z</time>
      </trkpt>
      <trkpt lat="47.21585" lon="6.00394">
        <ele>237</ele>
        <time>2019-08-17T14:26:06Z</time>
      </trkpt>
      <trkpt lat="47.21583" lon="6.00388">
        <ele>236.8</ele>
        <time>2019-08-17T14:26:07Z</time>
      </trkpt>
      <trkpt lat="47.21581" lon="6.00381">
        <ele>236.7</ele>
        <time>2019-08-17T14:26:08Z</time>
      </trkpt>
      <trkpt lat="47.21579" lon="6.00375">
        <ele>236.6</ele>
        <time>2019-08-17T14:26:09Z</time>
      </trkpt>
      <trkpt lat="47.21577" lon="6.0037">
        <ele>236.6</ele>
        <time>2019-08-17T14:26:10Z</time>
      </trkpt>
      <trkpt lat="47.21574" lon="6.00365">
        <ele>236.5</ele>
        <time>2019-08-17T14:26:11Z</time>
      </trkpt>
      <trkpt lat="47.21572" lon="6.00361">
        <ele>236.5</ele>
        <time>2019-08-17T14:26:12Z</time>
      </trkpt>
      <trkpt lat="47.2157" lon="6.00356">
        <ele>236.5</ele>
        <time>2019-08-17T14:26:13Z</time>
      </trkpt>
      <trkpt lat="47.21568" lon="6.00351">
        <ele>236.5</ele>
        <time>2019-08-17T14:26:14Z</time>
      </trkpt>
      <trkpt lat="47.21565" lon="6.00347">
        <ele>236.5</ele>
        <time>2019-08-17T14:26:15Z</time>
      </trkpt>
      <trkpt lat="47.21562" lon="6.00343">
        <ele>236.6</ele>
        <time>2019-08-17T14:26:16Z</time>
      </trkpt>
      <trkpt lat="47.2156" lon="6.00339">
        <ele>236.6</ele>
        <time>2019-08-17T14:26:17Z</time>
      </trkpt>
      <trkpt lat="47.21558" lon="6.00335">
        <ele>236.7</ele>
        <time>2019-08-17T14:26:18Z</time>
      </trkpt>
      <trkpt lat="47.21556" lon="6.00331">
        <ele>236.9</ele>
        <time>2019-08-17T14:26:19Z</time>
      </trkpt>
      <trkpt lat="47.21554" lon="6.00327">
        <ele>237.1</ele>
        <time>2019-08-17T14:26:20Z</time>
      </trkpt>
      <trkpt lat="47.21552" lon="6.00322">
        <ele>237.3</ele>
        <time>2019-08-17T14:26:21Z</time>
      </trkpt>
      <trkpt lat="47.21549" lon="6.00319">
        <ele>237.5</ele>
        <time>2019-08-17T14:26:22Z</time>
      </trkpt>
      <trkpt lat="47.21546" lon="6.00316">
        <ele>237.7</ele>
        <time>2019-08-17T14:26:23Z</time>
      </trkpt>
      <trkpt lat="47.21543" lon="6.00313">
        <ele>238</ele>
        <time>2019-08-17T14:26:24Z</time>
      </trkpt>
      <trkpt lat="47.2154" lon="6.00309">
        <ele>238.2</ele>
        <time>2019-08-17T14:26:25Z</time>
      </trkpt>
      <trkpt lat="47.21537" lon="6.00305">
        <ele>238.5</ele>
        <time>2019-08-17T14:26:26Z</time>
      </trkpt>
      <trkpt lat="47.21535" lon="6.003">
        <ele>238.7</ele>
        <time>2019-08-17T14:26:27Z</time>
      </trkpt>
      <trkpt lat="47.21533" lon="6.00296">
        <ele>238.9</ele>
        <time>2019-08-17T14:26:28Z</time>
      </trkpt>
      <trkpt lat="47.21531" lon="6.00291">
        <ele>239.2</ele>
        <time>2019-08-17T14:26:29Z</time>
      </trkpt>
      <trkpt lat="47.21529" lon="6.00288">
        <ele>239.4</ele>
        <time>2019-08-17T14:26:30Z</time>
      </trkpt>
      <trkpt lat="47.21526" lon="6.00283">
        <ele>239.5</ele>
        <time>2019-08-17T14:26:31Z</time>
      </trkpt>
      <trkpt lat="47.21524" lon="6.00279">
        <ele>239.7</ele>
        <time>2019-08-17T14:26:32Z</time>
      </trkpt>
      <trkpt lat="47.21521" lon="6.00274">
        <ele>239.7</ele>
        <time>2019-08-17T14:26:33Z</time>
      </trkpt>
      <trkpt lat="47.21518" lon="6.0027">
        <ele>239.7</ele>
        <time>2019-08-17T14:26:34Z</time>
      </trkpt>
      <trkpt lat="47.21515" lon="6.00265">
        <ele>239.7</ele>
        <time>2019-08-17T14:26:35Z</time>
      </trkpt>
      <trkpt lat="47.21511" lon="6.0026">
        <ele>239.6</ele>
        <time>2019-08-17T14:26:36Z</time>
      </trkpt>
      <trkpt lat="47.21508" lon="6.00254">
        <ele>239.4</ele>
        <time>2019-08-17T14:26:37Z</time>
      </trkpt>
      <trkpt lat="47.21505" lon="6.0025">
        <ele>239.3</ele>
        <time>2019-08-17T14:26:38Z</time>
      </trkpt>
      <trkpt lat="47.215" lon="6.00245">
        <ele>239.1</ele>
        <time>2019-08-17T14:26:39Z</time>
      </trkpt>
      <trkpt lat="47.21495" lon="6.00241">
        <ele>238.9</ele>
        <time>2019-08-17T14:26:40Z</time>
      </trkpt>
      <trkpt lat="47.21491" lon="6.00236">
        <ele>238.8</ele>
        <time>2019-08-17T14:26:41Z</time>
      </trkpt>
      <trkpt lat="47.21488" lon="6.00231">
        <ele>238.8</ele>
        <time>2019-08-17T14:26:42Z</time>
      </trkpt>
      <trkpt lat="47.21484" lon="6.00226">
        <ele>238.7</ele>
        <time>2019-08-17T14:26:43Z</time>
      </trkpt>
      <trkpt lat="47.21481" lon="6.0022">
        <ele>238.7</ele>
        <time>2019-08-17T14:26:44Z</time>
      </trkpt>
      <trkpt lat="47.21477" lon="6.00215">
        <ele>238.6</ele>
        <time>2019-08-17T14:26:45Z</time>
      </trkpt>
      <trkpt lat="47.21473" lon="6.0021">
        <ele>238.6</ele>
        <time>2019-08-17T14:26:46Z</time>
      </trkpt>
      <trkpt lat="47.2147" lon="6.00204">
        <ele>238.6</ele>
        <time>2019-08-17T14:26:47Z</time>
      </trkpt>
      <trkpt lat="47.21466" lon="6.00199">
        <ele>238.5</ele>
        <time>2019-08-17T14:26:48Z</time>
      </trkpt>
      <trkpt lat="47.21462" lon="6.00194">
        <ele>238.5</ele>
        <time>2019-08-17T14:26:49Z</time>
      </trkpt>
      <trkpt lat="47.21459" lon="6.00189">
        <ele>238.5</ele>
        <time>2019-08-17T14:26:50Z</time>
      </trkpt>
      <trkpt lat="47.21455" lon="6.00185">
        <ele>238.5</ele>
        <time>2019-08-17T14:26:51Z</time>
      </trkpt>
      <trkpt lat="47.21451" lon="6.00181">
        <ele>238.4</ele>
        <time>2019-08-17T14:26:52Z</time>
      </trkpt>
      <trkpt lat="47.21447" lon="6.00177">
        <ele>238.4</ele>
        <time>2019-08-17T14:26:53Z</time>
      </trkpt>
      <trkpt lat="47.21443" lon="6.00173">
        <ele>238.4</ele>
        <time>2019-08-17T14:26:54Z</time>
      </trkpt>
      <trkpt lat="47.21439" lon="6.00169">
        <ele>238.3</ele>
        <time>2019-08-17T14:26:55Z</time>
      </trkpt>
      <trkpt lat="47.21436" lon="6.00165">
        <ele>238.3</ele>
        <time>2019-08-17T14:26:56Z</time>
      </trkpt>
      <trkpt lat="47.21432" lon="6.00161">
        <ele>238.2</ele>
        <time>2019-08-17T14:26:57Z</time>
      </trkpt>
      <trkpt lat="47.21429" lon="6.00157">
        <ele>238.2</ele>
        <time>2019-08-17T14:26:58Z</time>
      </trkpt>
      <trkpt lat="47.21425" lon="6.00153">
        <ele>238.1</ele>
        <time>2019-08-17T14:26:59Z</time>
      </trkpt>
      <trkpt lat="47.21422" lon="6.00149">
        <ele>238</ele>
        <time>2019-08-17T14:27:00Z</time>
      </trkpt>
      <trkpt lat="47.21419" lon="6.00145">
        <ele>237.9</ele>
        <time>2019-08-17T14:27:01Z</time>
      </trkpt>
      <trkpt lat="47.21417" lon="6.00141">
        <ele>237.8</ele>
        <time>2019-08-17T14:27:02Z</time>
      </trkpt>
      <trkpt lat="47.21413" lon="6.00137">
        <ele>237.6</ele>
        <time>2019-08-17T14:27:03Z</time>
      </trkpt>
      <trkpt lat="47.2141" lon="6.00133">
        <ele>237.2</ele>
        <time>2019-08-17T14:27:04Z</time>
      </trkpt>
      <trkpt lat="47.21406" lon="6.00129">
        <ele>236.9</ele>
        <time>2019-08-17T14:27:05Z</time>
      </trkpt>
      <trkpt lat="47.21403" lon="6.00125">
        <ele>236.6</ele>
        <time>2019-08-17T14:27:06Z</time>
      </trkpt>
      <trkpt lat="47.21399" lon="6.00121">
        <ele>236.3</ele>
        <time>2019-08-17T14:27:07Z</time>
      </trkpt>
      <trkpt lat="47.21396" lon="6.00117">
        <ele>236</ele>
        <time>2019-08-17T14:27:08Z</time>
      </trkpt>
      <trkpt lat="47.21392" lon="6.00113">
        <ele>235.7</ele>
        <time>2019-08-17T14:27:09Z</time>
      </trkpt>
      <trkpt lat="47.21388" lon="6.0011">
        <ele>235.5</ele>
        <time>2019-08-17T14:27:10Z</time>
      </trkpt>
      <trkpt lat="47.21384" lon="6.00107">
        <ele>235.2</ele>
        <time>2019-08-17T14:27:11Z</time>
      </trkpt>
      <trkpt lat="47.2138" lon="6.00104">
        <ele>235</ele>
        <time>2019-08-17T14:27:12Z</time>
      </trkpt>
      <trkpt lat="47.21376" lon="6.00099">
        <ele>234.7</ele>
        <time>2019-08-17T14:27:14Z</time>
      </trkpt>
      <trkpt lat="47.21373" lon="6.00096">
        <ele>234.5</ele>
        <time>2019-08-17T14:27:15Z</time>
      </trkpt>
      <trkpt lat="47.2137" lon="6.00092">
        <ele>234.3</ele>
        <time>2019-08-17T14:27:16Z</time>
      </trkpt>
      <trkpt lat="47.21366" lon="6.00088">
        <ele>234.2</ele>
        <time>2019-08-17T14:27:17Z</time>
      </trkpt>
      <trkpt lat="47.21361" lon="6.00083">
        <ele>234</ele>
        <time>2019-08-17T14:27:18Z</time>
      </trkpt>
      <trkpt lat="47.21357" lon="6.00078">
        <ele>233.9</ele>
        <time>2019-08-17T14:27:19Z</time>
      </trkpt>
      <trkpt lat="47.21353" lon="6.00073">
        <ele>233.8</ele>
        <time>2019-08-17T14:27:20Z</time>
      </trkpt>
      <trkpt lat="47.21349" lon="6.00069">
        <ele>233.8</ele>
        <time>2019-08-17T14:27:21Z</time>
      </trkpt>
      <trkpt lat="47.21346" lon="6.00064">
        <ele>233.8</ele>
        <time>2019-08-17T14:27:22Z</time>
      </trkpt>
      <trkpt lat="47.21341" lon="6.00059">
        <ele>233.8</ele>
        <time>2019-08-17T14:27:23Z</time>
      </trkpt>
      <trkpt lat="47.21336" lon="6.00055">
        <ele>233.8</ele>
        <time>2019-08-17T14:27:24Z</time>
      </trkpt>
      <trkpt lat="47.21332" lon="6.00052">
        <ele>233.9</ele>
        <time>2019-08-17T14:27:25Z</time>
      </trkpt>
      <trkpt lat="47.21328" lon="6.00048">
        <ele>234</ele>
        <time>2019-08-17T14:27:26Z</time>
      </trkpt>
      <trkpt lat="47.21325" lon="6.00043">
        <ele>234.1</ele>
        <time>2019-08-17T14:27:27Z</time>
      </trkpt>
      <trkpt lat="47.21322" lon="6.00039">
        <ele>234.2</ele>
        <time>2019-08-17T14:27:28Z</time>
      </trkpt>
      <trkpt lat="47.21319" lon="6.00035">
        <ele>234.3</ele>
        <time>2019-08-17T14:27:29Z</time>
      </trkpt>
      <trkpt lat="47.21316" lon="6.00029">
        <ele>234.5</ele>
        <time>2019-08-17T14:27:30Z</time>
      </trkpt>
      <trkpt lat="47.21312" lon="6.00024">
        <ele>234.6</ele>
        <time>2019-08-17T14:27:31Z</time>
      </trkpt>
      <trkpt lat="47.21309" lon="6.00019">
        <ele>234.7</ele>
        <time>2019-08-17T14:27:32Z</time>
      </trkpt>
      <trkpt lat="47.21305" lon="6.00015">
        <ele>234.8</ele>
        <time>2019-08-17T14:27:33Z</time>
      </trkpt>
      <trkpt lat="47.21301" lon="6.0001">
        <ele>234.8</ele>
        <time>2019-08-17T14:27:34Z</time>
      </trkpt>
      <trkpt lat="47.21295" lon="6.00008">
        <ele>234.8</ele>
        <time>2019-08-17T14:27:35Z</time>
      </trkpt>
      <trkpt lat="47.2129" lon="6.00005">
        <ele>234.8</ele>
        <time>2019-08-17T14:27:36Z</time>
      </trkpt>
      <trkpt lat="47.21287" lon="6">
        <ele>234.7</ele>
        <time>2019-08-17T14:27:37Z</time>
      </trkpt>
      <trkpt lat="47.21283" lon="5.99996">
        <ele>234.5</ele>
        <time>2019-08-17T14:27:38Z</time>
      </trkpt>
      <trkpt lat="47.21279" lon="5.99992">
        <ele>234.3</ele>
        <time>2019-08-17T14:27:39Z</time>
      </trkpt>
      <trkpt lat="47.21275" lon="5.99989">
        <ele>234.1</ele>
        <time>2019-08-17T14:27:40Z</time>
      </trkpt>
      <trkpt lat="47.21271" lon="5.99985">
        <ele>233.8</ele>
        <time>2019-08-17T14:27:41Z</time>
      </trkpt>
      <trkpt lat="47.21267" lon="5.99983">
        <ele>233.6</ele>
        <time>2019-08-17T14:27:42Z</time>
      </trkpt>
      <trkpt lat="47.21263" lon="5.99979">
        <ele>233.4</ele>
        <time>2019-08-17T14:27:43Z</time>
      </trkpt>
      <trkpt lat="47.2126" lon="5.99976">
        <ele>233.3</ele>
        <time>2019-08-17T14:27:44Z</time>
      </trkpt>
      <trkpt lat="47.21257" lon="5.99973">
        <ele>233.2</ele>
        <time>2019-08-17T14:27:45Z</time>
      </trkpt>
      <trkpt lat="47.21253" lon="5.9997">
        <ele>233.1</ele>
        <time>2019-08-17T14:27:46Z</time>
      </trkpt>
      <trkpt lat="47.21251" lon="5.99966">
        <ele>233.1</ele>
        <time>2019-08-17T14:27:47Z</time>
      </trkpt>
      <trkpt lat="47.21247" lon="5.99963">
        <ele>233</ele>
        <time>2019-08-17T14:27:48Z</time>
      </trkpt>
      <trkpt lat="47.21243" lon="5.99958">
        <ele>233</ele>
        <time>2019-08-17T14:27:49Z</time>
      </trkpt>
      <trkpt lat="47.21239" lon="5.99955">
        <ele>232.9</ele>
        <time>2019-08-17T14:27:50Z</time>
      </trkpt>
      <trkpt lat="47.21233" lon="5.99953">
        <ele>232.9</ele>
        <time>2019-08-17T14:27:51Z</time>
      </trkpt>
      <trkpt lat="47.21228" lon="5.99949">
        <ele>232.9</ele>
        <time>2019-08-17T14:27:52Z</time>
      </trkpt>
      <trkpt lat="47.21224" lon="5.99946">
        <ele>232.8</ele>
        <time>2019-08-17T14:27:53Z</time>
      </trkpt>
      <trkpt lat="47.21221" lon="5.99943">
        <ele>232.8</ele>
        <time>2019-08-17T14:27:54Z</time>
      </trkpt>
      <trkpt lat="47.21218" lon="5.99939">
        <ele>232.8</ele>
        <time>2019-08-17T14:27:55Z</time>
      </trkpt>
      <trkpt lat="47.21215" lon="5.99934">
        <ele>232.8</ele>
        <time>2019-08-17T14:27:56Z</time>
      </trkpt>
      <trkpt lat="47.21212" lon="5.9993">
        <ele>232.7</ele>
        <time>2019-08-17T14:27:57Z</time>
      </trkpt>
      <trkpt lat="47.21209" lon="5.99925">
        <ele>232.7</ele>
        <time>2019-08-17T14:27:58Z</time>
      </trkpt>
      <trkpt lat="47.21204" lon="5.9992">
        <ele>232.7</ele>
        <time>2019-08-17T14:27:59Z</time>
      </trkpt>
      <trkpt lat="47.21201" lon="5.99916">
        <ele>232.7</ele>
        <time>2019-08-17T14:28:00Z</time>
      </trkpt>
      <trkpt lat="47.21196" lon="5.99913">
        <ele>232.6</ele>
        <time>2019-08-17T14:28:01Z</time>
      </trkpt>
      <trkpt lat="47.21193" lon="5.9991">
        <ele>232.7</ele>
        <time>2019-08-17T14:28:02Z</time>
      </trkpt>
      <trkpt lat="47.21189" lon="5.99905">
        <ele>232.8</ele>
        <time>2019-08-17T14:28:03Z</time>
      </trkpt>
      <trkpt lat="47.21185" lon="5.99901">
        <ele>232.8</ele>
        <time>2019-08-17T14:28:04Z</time>
      </trkpt>
      <trkpt lat="47.21181" lon="5.99896">
        <ele>232.9</ele>
        <time>2019-08-17T14:28:05Z</time>
      </trkpt>
      <trkpt lat="47.21177" lon="5.99891">
        <ele>233</ele>
        <time>2019-08-17T14:28:06Z</time>
      </trkpt>
      <trkpt lat="47.21173" lon="5.99887">
        <ele>233</ele>
        <time>2019-08-17T14:28:07Z</time>
      </trkpt>
      <trkpt lat="47.2117" lon="5.99883">
        <ele>233.1</ele>
        <time>2019-08-17T14:28:08Z</time>
      </trkpt>
      <trkpt lat="47.21167" lon="5.99879">
        <ele>233.1</ele>
        <time>2019-08-17T14:28:09Z</time>
      </trkpt>
      <trkpt lat="47.21163" lon="5.99875">
        <ele>233.1</ele>
        <time>2019-08-17T14:28:10Z</time>
      </trkpt>
      <trkpt lat="47.21159" lon="5.99871">
        <ele>233.2</ele>
        <time>2019-08-17T14:28:11Z</time>
      </trkpt>
      <trkpt lat="47.21154" lon="5.99866">
        <ele>233.2</ele>
        <time>2019-08-17T14:28:12Z</time>
      </trkpt>
      <trkpt lat="47.2115" lon="5.99861">
        <ele>233.3</ele>
        <time>2019-08-17T14:28:13Z</time>
      </trkpt>
      <trkpt lat="47.21148" lon="5.99859">
        <ele>233.3</ele>
        <time>2019-08-17T14:28:14Z</time>
      </trkpt>
      <trkpt lat="47.21143" lon="5.99856">
        <ele>233.3</ele>
        <time>2019-08-17T14:28:15Z</time>
      </trkpt>
      <trkpt lat="47.2114" lon="5.99853">
        <ele>233.4</ele>
        <time>2019-08-17T14:28:16Z</time>
      </trkpt>
      <trkpt lat="47.21136" lon="5.9985">
        <ele>233.4</ele>
        <time>2019-08-17T14:28:17Z</time>
      </trkpt>
      <trkpt lat="47.21132" lon="5.99847">
        <ele>233.4</ele>
        <time>2019-08-17T14:28:18Z</time>
      </trkpt>
      <trkpt lat="47.21128" lon="5.99844">
        <ele>233.5</ele>
        <time>2019-08-17T14:28:19Z</time>
      </trkpt>
      <trkpt lat="47.21125" lon="5.9984">
        <ele>233.5</ele>
        <time>2019-08-17T14:28:20Z</time>
      </trkpt>
      <trkpt lat="47.2112" lon="5.99837">
        <ele>233.5</ele>
        <time>2019-08-17T14:28:21Z</time>
      </trkpt>
      <trkpt lat="47.21116" lon="5.99834">
        <ele>233.6</ele>
        <time>2019-08-17T14:28:22Z</time>
      </trkpt>
      <trkpt lat="47.21112" lon="5.99831">
        <ele>233.6</ele>
        <time>2019-08-17T14:28:23Z</time>
      </trkpt>
      <trkpt lat="47.21108" lon="5.99827">
        <ele>233.6</ele>
        <time>2019-08-17T14:28:24Z</time>
      </trkpt>
      <trkpt lat="47.21104" lon="5.99823">
        <ele>233.6</ele>
        <time>2019-08-17T14:28:25Z</time>
      </trkpt>
      <trkpt lat="47.21101" lon="5.99819">
        <ele>233.6</ele>
        <time>2019-08-17T14:28:26Z</time>
      </trkpt>
      <trkpt lat="47.21097" lon="5.99814">
        <ele>233.6</ele>
        <time>2019-08-17T14:28:28Z</time>
      </trkpt>
      <trkpt lat="47.21095" lon="5.99811">
        <ele>233.6</ele>
        <time>2019-08-17T14:28:29Z</time>
      </trkpt>
      <trkpt lat="47.21093" lon="5.99807">
        <ele>233.6</ele>
        <time>2019-08-17T14:28:30Z</time>
      </trkpt>
      <trkpt lat="47.2109" lon="5.99804">
        <ele>233.6</ele>
        <time>2019-08-17T14:28:31Z</time>
      </trkpt>
      <trkpt lat="47.21088" lon="5.99802">
        <ele>233.6</ele>
        <time>2019-08-17T14:28:32Z</time>
      </trkpt>
      <trkpt lat="47.21085" lon="5.99799">
        <ele>233.5</ele>
        <time>2019-08-17T14:28:34Z</time>
      </trkpt>
      <trkpt lat="47.21082" lon="5.99796">
        <ele>233.5</ele>
        <time>2019-08-17T14:28:35Z</time>
      </trkpt>
      <trkpt lat="47.2108" lon="5.99793">
        <ele>233.5</ele>
        <time>2019-08-17T14:28:36Z</time>
      </trkpt>
      <trkpt lat="47.21077" lon="5.9979">
        <ele>233.5</ele>
        <time>2019-08-17T14:28:37Z</time>
      </trkpt>
      <trkpt lat="47.21074" lon="5.99788">
        <ele>233.4</ele>
        <time>2019-08-17T14:28:38Z</time>
      </trkpt>
      <trkpt lat="47.21072" lon="5.99785">
        <ele>233.3</ele>
        <time>2019-08-17T14:28:39Z</time>
      </trkpt>
      <trkpt lat="47.21069" lon="5.99784">
        <ele>233.2</ele>
        <time>2019-08-17T14:28:40Z</time>
      </trkpt>
      <trkpt lat="47.21065" lon="5.99782">
        <ele>233.1</ele>
        <time>2019-08-17T14:28:41Z</time>
      </trkpt>
      <trkpt lat="47.21062" lon="5.99779">
        <ele>232.9</ele>
        <time>2019-08-17T14:28:42Z</time>
      </trkpt>
      <trkpt lat="47.21058" lon="5.99777">
        <ele>232.6</ele>
        <time>2019-08-17T14:28:43Z</time>
      </trkpt>
      <trkpt lat="47.21054" lon="5.99775">
        <ele>232.4</ele>
        <time>2019-08-17T14:28:44Z</time>
      </trkpt>
      <trkpt lat="47.2105" lon="5.99772">
        <ele>232.1</ele>
        <time>2019-08-17T14:28:45Z</time>
      </trkpt>
      <trkpt lat="47.21047" lon="5.99768">
        <ele>231.9</ele>
        <time>2019-08-17T14:28:46Z</time>
      </trkpt>
      <trkpt lat="47.21044" lon="5.99764">
        <ele>231.8</ele>
        <time>2019-08-17T14:28:47Z</time>
      </trkpt>
      <trkpt lat="47.2104" lon="5.9976">
        <ele>231.6</ele>
        <time>2019-08-17T14:28:48Z</time>
      </trkpt>
      <trkpt lat="47.21036" lon="5.99757">
        <ele>231.4</ele>
        <time>2019-08-17T14:28:49Z</time>
      </trkpt>
      <trkpt lat="47.21032" lon="5.99753">
        <ele>231.3</ele>
        <time>2019-08-17T14:28:50Z</time>
      </trkpt>
      <trkpt lat="47.21026" lon="5.99749">
        <ele>231.2</ele>
        <time>2019-08-17T14:28:52Z</time>
      </trkpt>
      <trkpt lat="47.21022" lon="5.99745">
        <ele>231.2</ele>
        <time>2019-08-17T14:28:53Z</time>
      </trkpt>
      <trkpt lat="47.21018" lon="5.99742">
        <ele>231.1</ele>
        <time>2019-08-17T14:28:54Z</time>
      </trkpt>
      <trkpt lat="47.21015" lon="5.99738">
        <ele>231.1</ele>
        <time>2019-08-17T14:28:55Z</time>
      </trkpt>
      <trkpt lat="47.21012" lon="5.99734">
        <ele>231.1</ele>
        <time>2019-08-17T14:28:56Z</time>
      </trkpt>
      <trkpt lat="47.21008" lon="5.9973">
        <ele>231.1</ele>
        <time>2019-08-17T14:28:57Z</time>
      </trkpt>
      <trkpt lat="47.21003" lon="5.99727">
        <ele>231.1</ele>
        <time>2019-08-17T14:28:58Z</time>
      </trkpt>
      <trkpt lat="47.20999" lon="5.99723">
        <ele>231.1</ele>
        <time>2019-08-17T14:28:59Z</time>
      </trkpt>
      <trkpt lat="47.20995" lon="5.99719">
        <ele>231.1</ele>
        <time>2019-08-17T14:29:00Z</time>
      </trkpt>
      <trkpt lat="47.20992" lon="5.99716">
        <ele>231.1</ele>
        <time>2019-08-17T14:29:01Z</time>
      </trkpt>
      <trkpt lat="47.20988" lon="5.99713">
        <ele>231.1</ele>
        <time>2019-08-17T14:29:02Z</time>
      </trkpt>
      <trkpt lat="47.20985" lon="5.99709">
        <ele>231.1</ele>
        <time>2019-08-17T14:29:03Z</time>
      </trkpt>
      <trkpt lat="47.20983" lon="5.99705">
        <ele>231.1</ele>
        <time>2019-08-17T14:29:04Z</time>
      </trkpt>
      <trkpt lat="47.2098" lon="5.99701">
        <ele>231.2</ele>
        <time>2019-08-17T14:29:05Z</time>
      </trkpt>
      <trkpt lat="47.20976" lon="5.99695">
        <ele>231.6</ele>
        <time>2019-08-17T14:29:06Z</time>
      </trkpt>
      <trkpt lat="47.20972" lon="5.99691">
        <ele>231.7</ele>
        <time>2019-08-17T14:29:07Z</time>
      </trkpt>
      <trkpt lat="47.20968" lon="5.99687">
        <ele>231.8</ele>
        <time>2019-08-17T14:29:08Z</time>
      </trkpt>
      <trkpt lat="47.20965" lon="5.99684">
        <ele>231.8</ele>
        <time>2019-08-17T14:29:09Z</time>
      </trkpt>
      <trkpt lat="47.20962" lon="5.9968">
        <ele>231.9</ele>
        <time>2019-08-17T14:29:10Z</time>
      </trkpt>
      <trkpt lat="47.20958" lon="5.99675">
        <ele>232</ele>
        <time>2019-08-17T14:29:11Z</time>
      </trkpt>
      <trkpt lat="47.20955" lon="5.99671">
        <ele>232.1</ele>
        <time>2019-08-17T14:29:12Z</time>
      </trkpt>
      <trkpt lat="47.20953" lon="5.99667">
        <ele>232.1</ele>
        <time>2019-08-17T14:29:13Z</time>
      </trkpt>
      <trkpt lat="47.20949" lon="5.99663">
        <ele>232.2</ele>
        <time>2019-08-17T14:29:14Z</time>
      </trkpt>
      <trkpt lat="47.20945" lon="5.99659">
        <ele>232.3</ele>
        <time>2019-08-17T14:29:15Z</time>
      </trkpt>
      <trkpt lat="47.20942" lon="5.99655">
        <ele>232.3</ele>
        <time>2019-08-17T14:29:16Z</time>
      </trkpt>
      <trkpt lat="47.20938" lon="5.99651">
        <ele>232.4</ele>
        <time>2019-08-17T14:29:17Z</time>
      </trkpt>
      <trkpt lat="47.20934" lon="5.99649">
        <ele>232.5</ele>
        <time>2019-08-17T14:29:18Z</time>
      </trkpt>
      <trkpt lat="47.2093" lon="5.99644">
        <ele>232.5</ele>
        <time>2019-08-17T14:29:19Z</time>
      </trkpt>
      <trkpt lat="47.20926" lon="5.99639">
        <ele>232.6</ele>
        <time>2019-08-17T14:29:20Z</time>
      </trkpt>
      <trkpt lat="47.20922" lon="5.99635">
        <ele>232.7</ele>
        <time>2019-08-17T14:29:21Z</time>
      </trkpt>
      <trkpt lat="47.20918" lon="5.99631">
        <ele>232.8</ele>
        <time>2019-08-17T14:29:22Z</time>
      </trkpt>
      <trkpt lat="47.20914" lon="5.99627">
        <ele>232.9</ele>
        <time>2019-08-17T14:29:23Z</time>
      </trkpt>
      <trkpt lat="47.20909" lon="5.99624">
        <ele>232.9</ele>
        <time>2019-08-17T14:29:24Z</time>
      </trkpt>
      <trkpt lat="47.20906" lon="5.99621">
        <ele>233</ele>
        <time>2019-08-17T14:29:25Z</time>
      </trkpt>
      <trkpt lat="47.20902" lon="5.99618">
        <ele>233</ele>
        <time>2019-08-17T14:29:26Z</time>
      </trkpt>
      <trkpt lat="47.20898" lon="5.99615">
        <ele>233</ele>
        <time>2019-08-17T14:29:27Z</time>
      </trkpt>
      <trkpt lat="47.20895" lon="5.99611">
        <ele>233.1</ele>
        <time>2019-08-17T14:29:28Z</time>
      </trkpt>
      <trkpt lat="47.20891" lon="5.9961">
        <ele>233.1</ele>
        <time>2019-08-17T14:29:29Z</time>
      </trkpt>
      <trkpt lat="47.20888" lon="5.99607">
        <ele>233.1</ele>
        <time>2019-08-17T14:29:30Z</time>
      </trkpt>
      <trkpt lat="47.20885" lon="5.99605">
        <ele>233.1</ele>
        <time>2019-08-17T14:29:31Z</time>
      </trkpt>
      <trkpt lat="47.2088" lon="5.99603">
        <ele>233.1</ele>
        <time>2019-08-17T14:29:32Z</time>
      </trkpt>
      <trkpt lat="47.20876" lon="5.99601">
        <ele>233.1</ele>
        <time>2019-08-17T14:29:33Z</time>
      </trkpt>
      <trkpt lat="47.20872" lon="5.99601">
        <ele>233.1</ele>
        <time>2019-08-17T14:29:34Z</time>
      </trkpt>
      <trkpt lat="47.20868" lon="5.99599">
        <ele>233.1</ele>
        <time>2019-08-17T14:29:35Z</time>
      </trkpt>
      <trkpt lat="47.20865" lon="5.99598">
        <ele>233.1</ele>
        <time>2019-08-17T14:29:36Z</time>
      </trkpt>
      <trkpt lat="47.20862" lon="5.99596">
        <ele>233.1</ele>
        <time>2019-08-17T14:29:37Z</time>
      </trkpt>
      <trkpt lat="47.20858" lon="5.99594">
        <ele>233.1</ele>
        <time>2019-08-17T14:29:38Z</time>
      </trkpt>
      <trkpt lat="47.20854" lon="5.99593">
        <ele>233.1</ele>
        <time>2019-08-17T14:29:39Z</time>
      </trkpt>
      <trkpt lat="47.2085" lon="5.99591">
        <ele>233.1</ele>
        <time>2019-08-17T14:29:40Z</time>
      </trkpt>
      <trkpt lat="47.20845" lon="5.9959">
        <ele>233.1</ele>
        <time>2019-08-17T14:29:41Z</time>
      </trkpt>
      <trkpt lat="47.2084" lon="5.99588">
        <ele>233</ele>
        <time>2019-08-17T14:29:42Z</time>
      </trkpt>
      <trkpt lat="47.20836" lon="5.99587">
        <ele>233</ele>
        <time>2019-08-17T14:29:43Z</time>
      </trkpt>
      <trkpt lat="47.20832" lon="5.99586">
        <ele>233</ele>
        <time>2019-08-17T14:29:44Z</time>
      </trkpt>
      <trkpt lat="47.20828" lon="5.99584">
        <ele>233</ele>
        <time>2019-08-17T14:29:45Z</time>
      </trkpt>
      <trkpt lat="47.20824" lon="5.99579">
        <ele>232.9</ele>
        <time>2019-08-17T14:29:46Z</time>
      </trkpt>
      <trkpt lat="47.2082" lon="5.99576">
        <ele>232.9</ele>
        <time>2019-08-17T14:29:47Z</time>
      </trkpt>
      <trkpt lat="47.20816" lon="5.99573">
        <ele>232.9</ele>
        <time>2019-08-17T14:29:48Z</time>
      </trkpt>
      <trkpt lat="47.2081" lon="5.99571">
        <ele>232.8</ele>
        <time>2019-08-17T14:29:49Z</time>
      </trkpt>
      <trkpt lat="47.20805" lon="5.99569">
        <ele>232.8</ele>
        <time>2019-08-17T14:29:50Z</time>
      </trkpt>
      <trkpt lat="47.20801" lon="5.99566">
        <ele>232.8</ele>
        <time>2019-08-17T14:29:51Z</time>
      </trkpt>
      <trkpt lat="47.20795" lon="5.99563">
        <ele>232.8</ele>
        <time>2019-08-17T14:29:52Z</time>
      </trkpt>
      <trkpt lat="47.20791" lon="5.9956">
        <ele>232.7</ele>
        <time>2019-08-17T14:29:53Z</time>
      </trkpt>
      <trkpt lat="47.20785" lon="5.99557">
        <ele>232.7</ele>
        <time>2019-08-17T14:29:54Z</time>
      </trkpt>
      <trkpt lat="47.20781" lon="5.99554">
        <ele>232.7</ele>
        <time>2019-08-17T14:29:55Z</time>
      </trkpt>
      <trkpt lat="47.20775" lon="5.99554">
        <ele>232.7</ele>
        <time>2019-08-17T14:29:56Z</time>
      </trkpt>
      <trkpt lat="47.20771" lon="5.99552">
        <ele>232.7</ele>
        <time>2019-08-17T14:29:57Z</time>
      </trkpt>
      <trkpt lat="47.20766" lon="5.9955">
        <ele>232.6</ele>
        <time>2019-08-17T14:29:58Z</time>
      </trkpt>
      <trkpt lat="47.20762" lon="5.99547">
        <ele>232.6</ele>
        <time>2019-08-17T14:29:59Z</time>
      </trkpt>
      <trkpt lat="47.20758" lon="5.99545">
        <ele>232.6</ele>
        <time>2019-08-17T14:30:00Z</time>
      </trkpt>
      <trkpt lat="47.20754" lon="5.99543">
        <ele>232.6</ele>
        <time>2019-08-17T14:30:01Z</time>
      </trkpt>
      <trkpt lat="47.20751" lon="5.99541">
        <ele>232.6</ele>
        <time>2019-08-17T14:30:02Z</time>
      </trkpt>
      <trkpt lat="47.20747" lon="5.99538">
        <ele>232.6</ele>
        <time>2019-08-17T14:30:03Z</time>
      </trkpt>
      <trkpt lat="47.20742" lon="5.99536">
        <ele>232.6</ele>
        <time>2019-08-17T14:30:04Z</time>
      </trkpt>
      <trkpt lat="47.20738" lon="5.99534">
        <ele>232.7</ele>
        <time>2019-08-17T14:30:05Z</time>
      </trkpt>
      <trkpt lat="47.20733" lon="5.99533">
        <ele>232.7</ele>
        <time>2019-08-17T14:30:06Z</time>
      </trkpt>
      <trkpt lat="47.20728" lon="5.99532">
        <ele>232.7</ele>
        <time>2019-08-17T14:30:07Z</time>
      </trkpt>
      <trkpt lat="47.20723" lon="5.9953">
        <ele>232.7</ele>
        <time>2019-08-17T14:30:08Z</time>
      </trkpt>
      <trkpt lat="47.20718" lon="5.99528">
        <ele>232.8</ele>
        <time>2019-08-17T14:30:09Z</time>
      </trkpt>
      <trkpt lat="47.20713" lon="5.99527">
        <ele>232.8</ele>
        <time>2019-08-17T14:30:10Z</time>
      </trkpt>
      <trkpt lat="47.20707" lon="5.99525">
        <ele>232.8</ele>
        <time>2019-08-17T14:30:11Z</time>
      </trkpt>
      <trkpt lat="47.20702" lon="5.99523">
        <ele>232.9</ele>
        <time>2019-08-17T14:30:12Z</time>
      </trkpt>
      <trkpt lat="47.20698" lon="5.99521">
        <ele>232.9</ele>
        <time>2019-08-17T14:30:13Z</time>
      </trkpt>
      <trkpt lat="47.20694" lon="5.99519">
        <ele>232.9</ele>
        <time>2019-08-17T14:30:14Z</time>
      </trkpt>
      <trkpt lat="47.2069" lon="5.99518">
        <ele>232.9</ele>
        <time>2019-08-17T14:30:15Z</time>
      </trkpt>
      <trkpt lat="47.20684" lon="5.99516">
        <ele>233</ele>
        <time>2019-08-17T14:30:16Z</time>
      </trkpt>
      <trkpt lat="47.2068" lon="5.99514">
        <ele>233</ele>
        <time>2019-08-17T14:30:17Z</time>
      </trkpt>
      <trkpt lat="47.20676" lon="5.99513">
        <ele>233.1</ele>
        <time>2019-08-17T14:30:18Z</time>
      </trkpt>
      <trkpt lat="47.20672" lon="5.99513">
        <ele>233.1</ele>
        <time>2019-08-17T14:30:19Z</time>
      </trkpt>
      <trkpt lat="47.20668" lon="5.99515">
        <ele>233.1</ele>
        <time>2019-08-17T14:30:21Z</time>
      </trkpt>
      <trkpt lat="47.20667" lon="5.99519">
        <ele>233.2</ele>
        <time>2019-08-17T14:30:22Z</time>
      </trkpt>
      <trkpt lat="47.20665" lon="5.99524">
        <ele>233.3</ele>
        <time>2019-08-17T14:30:23Z</time>
      </trkpt>
      <trkpt lat="47.20664" lon="5.99528">
        <ele>233.3</ele>
        <time>2019-08-17T14:30:24Z</time>
      </trkpt>
      <trkpt lat="47.20665" lon="5.99534">
        <ele>233.4</ele>
        <time>2019-08-17T14:30:25Z</time>
      </trkpt>
      <trkpt lat="47.20665" lon="5.9954">
        <ele>233.5</ele>
        <time>2019-08-17T14:30:26Z</time>
      </trkpt>
      <trkpt lat="47.20664" lon="5.99546">
        <ele>233.6</ele>
        <time>2019-08-17T14:30:27Z</time>
      </trkpt>
      <trkpt lat="47.20663" lon="5.99551">
        <ele>233.7</ele>
        <time>2019-08-17T14:30:28Z</time>
      </trkpt>
      <trkpt lat="47.20662" lon="5.99556">
        <ele>233.7</ele>
        <time>2019-08-17T14:30:29Z</time>
      </trkpt>
      <trkpt lat="47.2066" lon="5.99561">
        <ele>233.8</ele>
        <time>2019-08-17T14:30:30Z</time>
      </trkpt>
      <trkpt lat="47.20659" lon="5.99566">
        <ele>233.9</ele>
        <time>2019-08-17T14:30:31Z</time>
      </trkpt>
      <trkpt lat="47.20658" lon="5.9957">
        <ele>233.9</ele>
        <time>2019-08-17T14:30:32Z</time>
      </trkpt>
      <trkpt lat="47.20656" lon="5.99575">
        <ele>234.2</ele>
        <time>2019-08-17T14:30:34Z</time>
      </trkpt>
      <trkpt lat="47.20653" lon="5.99574">
        <ele>234.3</ele>
        <time>2019-08-17T14:30:38Z</time>
      </trkpt>
      <trkpt lat="47.20648" lon="5.99571">
        <ele>234.6</ele>
        <time>2019-08-17T14:30:40Z</time>
      </trkpt>
      <trkpt lat="47.20645" lon="5.99569">
        <ele>234.8</ele>
        <time>2019-08-17T14:30:41Z</time>
      </trkpt>
      <trkpt lat="47.20641" lon="5.99565">
        <ele>235</ele>
        <time>2019-08-17T14:30:43Z</time>
      </trkpt>
      <trkpt lat="47.20638" lon="5.99563">
        <ele>235</ele>
        <time>2019-08-17T14:30:44Z</time>
      </trkpt>
      <trkpt lat="47.20635" lon="5.99562">
        <ele>235.1</ele>
        <time>2019-08-17T14:30:45Z</time>
      </trkpt>
      <trkpt lat="47.20632" lon="5.99561">
        <ele>235.1</ele>
        <time>2019-08-17T14:30:46Z</time>
      </trkpt>
      <trkpt lat="47.20628" lon="5.9956">
        <ele>235.2</ele>
        <time>2019-08-17T14:30:47Z</time>
      </trkpt>
      <trkpt lat="47.20624" lon="5.99559">
        <ele>235.2</ele>
        <time>2019-08-17T14:30:48Z</time>
      </trkpt>
      <trkpt lat="47.2062" lon="5.99557">
        <ele>235.3</ele>
        <time>2019-08-17T14:30:49Z</time>
      </trkpt>
      <trkpt lat="47.20616" lon="5.99556">
        <ele>235.4</ele>
        <time>2019-08-17T14:30:50Z</time>
      </trkpt>
      <trkpt lat="47.20613" lon="5.99554">
        <ele>235.4</ele>
        <time>2019-08-17T14:30:51Z</time>
      </trkpt>
      <trkpt lat="47.2061" lon="5.99553">
        <ele>235.5</ele>
        <time>2019-08-17T14:30:52Z</time>
      </trkpt>
      <trkpt lat="47.20607" lon="5.99551">
        <ele>235.5</ele>
        <time>2019-08-17T14:30:53Z</time>
      </trkpt>
      <trkpt lat="47.20604" lon="5.9955">
        <ele>235.6</ele>
        <time>2019-08-17T14:30:54Z</time>
      </trkpt>
      <trkpt lat="47.20601" lon="5.99549">
        <ele>235.7</ele>
        <time>2019-08-17T14:30:55Z</time>
      </trkpt>
      <trkpt lat="47.20598" lon="5.99547">
        <ele>235.8</ele>
        <time>2019-08-17T14:30:56Z</time>
      </trkpt>
      <trkpt lat="47.20594" lon="5.99545">
        <ele>235.9</ele>
        <time>2019-08-17T14:30:57Z</time>
      </trkpt>
      <trkpt lat="47.2059" lon="5.99543">
        <ele>236</ele>
        <time>2019-08-17T14:30:58Z</time>
      </trkpt>
      <trkpt lat="47.20586" lon="5.9954">
        <ele>236.1</ele>
        <time>2019-08-17T14:30:59Z</time>
      </trkpt>
      <trkpt lat="47.20582" lon="5.99538">
        <ele>235.7</ele>
        <time>2019-08-17T14:31:00Z</time>
      </trkpt>
      <trkpt lat="47.20579" lon="5.99537">
        <ele>235.3</ele>
        <time>2019-08-17T14:31:01Z</time>
      </trkpt>
      <trkpt lat="47.20575" lon="5.99536">
        <ele>235</ele>
        <time>2019-08-17T14:31:02Z</time>
      </trkpt>
      <trkpt lat="47.20571" lon="5.99534">
        <ele>234.8</ele>
        <time>2019-08-17T14:31:03Z</time>
      </trkpt>
      <trkpt lat="47.20567" lon="5.99533">
        <ele>234.6</ele>
        <time>2019-08-17T14:31:04Z</time>
      </trkpt>
      <trkpt lat="47.20563" lon="5.99532">
        <ele>234.5</ele>
        <time>2019-08-17T14:31:05Z</time>
      </trkpt>
      <trkpt lat="47.20559" lon="5.99531">
        <ele>234.4</ele>
        <time>2019-08-17T14:31:06Z</time>
      </trkpt>
      <trkpt lat="47.20556" lon="5.99531">
        <ele>234.3</ele>
        <time>2019-08-17T14:31:07Z</time>
      </trkpt>
      <trkpt lat="47.20553" lon="5.9953">
        <ele>234.3</ele>
        <time>2019-08-17T14:31:08Z</time>
      </trkpt>
      <trkpt lat="47.20549" lon="5.99528">
        <ele>234.3</ele>
        <time>2019-08-17T14:31:09Z</time>
      </trkpt>
      <trkpt lat="47.20544" lon="5.99526">
        <ele>234.2</ele>
        <time>2019-08-17T14:31:10Z</time>
      </trkpt>
      <trkpt lat="47.2054" lon="5.99524">
        <ele>234.2</ele>
        <time>2019-08-17T14:31:11Z</time>
      </trkpt>
      <trkpt lat="47.20534" lon="5.99523">
        <ele>234.2</ele>
        <time>2019-08-17T14:31:12Z</time>
      </trkpt>
      <trkpt lat="47.20529" lon="5.99521">
        <ele>234.2</ele>
        <time>2019-08-17T14:31:13Z</time>
      </trkpt>
      <trkpt lat="47.20524" lon="5.9952">
        <ele>234.1</ele>
        <time>2019-08-17T14:31:14Z</time>
      </trkpt>
      <trkpt lat="47.2052" lon="5.99519">
        <ele>234.1</ele>
        <time>2019-08-17T14:31:15Z</time>
      </trkpt>
      <trkpt lat="47.20517" lon="5.99518">
        <ele>234.1</ele>
        <time>2019-08-17T14:31:16Z</time>
      </trkpt>
      <trkpt lat="47.20513" lon="5.99516">
        <ele>234.1</ele>
        <time>2019-08-17T14:31:17Z</time>
      </trkpt>
      <trkpt lat="47.2051" lon="5.99516">
        <ele>234.1</ele>
        <time>2019-08-17T14:31:18Z</time>
      </trkpt>
      <trkpt lat="47.20505" lon="5.99514">
        <ele>234</ele>
        <time>2019-08-17T14:31:19Z</time>
      </trkpt>
      <trkpt lat="47.20501" lon="5.99514">
        <ele>234</ele>
        <time>2019-08-17T14:31:20Z</time>
      </trkpt>
      <trkpt lat="47.20498" lon="5.99513">
        <ele>234</ele>
        <time>2019-08-17T14:31:21Z</time>
      </trkpt>
      <trkpt lat="47.20494" lon="5.99512">
        <ele>234</ele>
        <time>2019-08-17T14:31:22Z</time>
      </trkpt>
      <trkpt lat="47.20491" lon="5.99511">
        <ele>234</ele>
        <time>2019-08-17T14:31:23Z</time>
      </trkpt>
      <trkpt lat="47.20487" lon="5.9951">
        <ele>233.8</ele>
        <time>2019-08-17T14:31:24Z</time>
      </trkpt>
      <trkpt lat="47.20483" lon="5.99509">
        <ele>233.7</ele>
        <time>2019-08-17T14:31:25Z</time>
      </trkpt>
      <trkpt lat="47.20479" lon="5.99505">
        <ele>233.6</ele>
        <time>2019-08-17T14:31:26Z</time>
      </trkpt>
      <trkpt lat="47.20474" lon="5.99503">
        <ele>233.5</ele>
        <time>2019-08-17T14:31:27Z</time>
      </trkpt>
      <trkpt lat="47.2047" lon="5.99501">
        <ele>233.4</ele>
        <time>2019-08-17T14:31:28Z</time>
      </trkpt>
      <trkpt lat="47.20466" lon="5.99499">
        <ele>233.3</ele>
        <time>2019-08-17T14:31:29Z</time>
      </trkpt>
      <trkpt lat="47.20462" lon="5.99498">
        <ele>233.1</ele>
        <time>2019-08-17T14:31:30Z</time>
      </trkpt>
      <trkpt lat="47.20457" lon="5.99495">
        <ele>233</ele>
        <time>2019-08-17T14:31:31Z</time>
      </trkpt>
      <trkpt lat="47.20453" lon="5.99494">
        <ele>232.9</ele>
        <time>2019-08-17T14:31:32Z</time>
      </trkpt>
      <trkpt lat="47.20449" lon="5.9949">
        <ele>232.8</ele>
        <time>2019-08-17T14:31:33Z</time>
      </trkpt>
      <trkpt lat="47.20445" lon="5.99488">
        <ele>232.6</ele>
        <time>2019-08-17T14:31:34Z</time>
      </trkpt>
      <trkpt lat="47.20441" lon="5.99485">
        <ele>232.5</ele>
        <time>2019-08-17T14:31:35Z</time>
      </trkpt>
      <trkpt lat="47.20439" lon="5.99481">
        <ele>232.3</ele>
        <time>2019-08-17T14:31:36Z</time>
      </trkpt>
      <trkpt lat="47.20436" lon="5.99479">
        <ele>232.2</ele>
        <time>2019-08-17T14:31:37Z</time>
      </trkpt>
      <trkpt lat="47.20433" lon="5.99477">
        <ele>232.1</ele>
        <time>2019-08-17T14:31:38Z</time>
      </trkpt>
      <trkpt lat="47.2043" lon="5.99475">
        <ele>232.5</ele>
        <time>2019-08-17T14:31:39Z</time>
      </trkpt>
      <trkpt lat="47.20426" lon="5.99473">
        <ele>232.8</ele>
        <time>2019-08-17T14:31:40Z</time>
      </trkpt>
      <trkpt lat="47.20423" lon="5.9947">
        <ele>233</ele>
        <time>2019-08-17T14:31:41Z</time>
      </trkpt>
      <trkpt lat="47.20419" lon="5.99468">
        <ele>233.3</ele>
        <time>2019-08-17T14:31:42Z</time>
      </trkpt>
      <trkpt lat="47.20414" lon="5.99466">
        <ele>233.6</ele>
        <time>2019-08-17T14:31:43Z</time>
      </trkpt>
      <trkpt lat="47.20409" lon="5.99466">
        <ele>233.8</ele>
        <time>2019-08-17T14:31:44Z</time>
      </trkpt>
      <trkpt lat="47.20404" lon="5.99465">
        <ele>233.9</ele>
        <time>2019-08-17T14:31:45Z</time>
      </trkpt>
      <trkpt lat="47.20401" lon="5.99464">
        <ele>234</ele>
        <time>2019-08-17T14:31:46Z</time>
      </trkpt>
      <trkpt lat="47.20396" lon="5.99462">
        <ele>234</ele>
        <time>2019-08-17T14:31:47Z</time>
      </trkpt>
      <trkpt lat="47.20392" lon="5.9946">
        <ele>233.9</ele>
        <time>2019-08-17T14:31:48Z</time>
      </trkpt>
      <trkpt lat="47.20387" lon="5.99458">
        <ele>233.8</ele>
        <time>2019-08-17T14:31:49Z</time>
      </trkpt>
      <trkpt lat="47.20383" lon="5.99456">
        <ele>233.7</ele>
        <time>2019-08-17T14:31:50Z</time>
      </trkpt>
      <trkpt lat="47.20378" lon="5.99454">
        <ele>233.5</ele>
        <time>2019-08-17T14:31:51Z</time>
      </trkpt>
      <trkpt lat="47.20373" lon="5.99453">
        <ele>233.4</ele>
        <time>2019-08-17T14:31:52Z</time>
      </trkpt>
      <trkpt lat="47.20369" lon="5.99452">
        <ele>233.2</ele>
        <time>2019-08-17T14:31:53Z</time>
      </trkpt>
      <trkpt lat="47.20365" lon="5.9945">
        <ele>233.1</ele>
        <time>2019-08-17T14:31:54Z</time>
      </trkpt>
      <trkpt lat="47.20361" lon="5.99449">
        <ele>233</ele>
        <time>2019-08-17T14:31:55Z</time>
      </trkpt>
      <trkpt lat="47.20357" lon="5.99448">
        <ele>232.9</ele>
        <time>2019-08-17T14:31:56Z</time>
      </trkpt>
      <trkpt lat="47.20353" lon="5.99446">
        <ele>232.9</ele>
        <time>2019-08-17T14:31:57Z</time>
      </trkpt>
      <trkpt lat="47.20349" lon="5.99444">
        <ele>232.9</ele>
        <time>2019-08-17T14:31:58Z</time>
      </trkpt>
      <trkpt lat="47.20344" lon="5.99441">
        <ele>232.9</ele>
        <time>2019-08-17T14:31:59Z</time>
      </trkpt>
      <trkpt lat="47.2034" lon="5.9944">
        <ele>232.9</ele>
        <time>2019-08-17T14:32:00Z</time>
      </trkpt>
      <trkpt lat="47.20335" lon="5.99438">
        <ele>233</ele>
        <time>2019-08-17T14:32:01Z</time>
      </trkpt>
      <trkpt lat="47.20331" lon="5.99437">
        <ele>233.1</ele>
        <time>2019-08-17T14:32:02Z</time>
      </trkpt>
      <trkpt lat="47.20327" lon="5.99435">
        <ele>233.2</ele>
        <time>2019-08-17T14:32:03Z</time>
      </trkpt>
      <trkpt lat="47.20323" lon="5.99433">
        <ele>233.3</ele>
        <time>2019-08-17T14:32:04Z</time>
      </trkpt>
      <trkpt lat="47.20319" lon="5.9943">
        <ele>233.3</ele>
        <time>2019-08-17T14:32:05Z</time>
      </trkpt>
      <trkpt lat="47.20314" lon="5.99429">
        <ele>233.4</ele>
        <time>2019-08-17T14:32:06Z</time>
      </trkpt>
      <trkpt lat="47.20309" lon="5.99428">
        <ele>233.4</ele>
        <time>2019-08-17T14:32:07Z</time>
      </trkpt>
      <trkpt lat="47.20305" lon="5.99425">
        <ele>233.4</ele>
        <time>2019-08-17T14:32:08Z</time>
      </trkpt>
      <trkpt lat="47.203" lon="5.99424">
        <ele>233.3</ele>
        <time>2019-08-17T14:32:09Z</time>
      </trkpt>
      <trkpt lat="47.20295" lon="5.99422">
        <ele>233.3</ele>
        <time>2019-08-17T14:32:10Z</time>
      </trkpt>
      <trkpt lat="47.2029" lon="5.99421">
        <ele>233.2</ele>
        <time>2019-08-17T14:32:11Z</time>
      </trkpt>
      <trkpt lat="47.20286" lon="5.99419">
        <ele>233.1</ele>
        <time>2019-08-17T14:32:12Z</time>
      </trkpt>
      <trkpt lat="47.20281" lon="5.99417">
        <ele>232.9</ele>
        <time>2019-08-17T14:32:13Z</time>
      </trkpt>
      <trkpt lat="47.20277" lon="5.99414">
        <ele>232.7</ele>
        <time>2019-08-17T14:32:14Z</time>
      </trkpt>
      <trkpt lat="47.20273" lon="5.99411">
        <ele>232.5</ele>
        <time>2019-08-17T14:32:15Z</time>
      </trkpt>
      <trkpt lat="47.20269" lon="5.99407">
        <ele>232.4</ele>
        <time>2019-08-17T14:32:16Z</time>
      </trkpt>
      <trkpt lat="47.20265" lon="5.99404">
        <ele>232.2</ele>
        <time>2019-08-17T14:32:17Z</time>
      </trkpt>
      <trkpt lat="47.2026" lon="5.99402">
        <ele>232.1</ele>
        <time>2019-08-17T14:32:18Z</time>
      </trkpt>
      <trkpt lat="47.20256" lon="5.994">
        <ele>232</ele>
        <time>2019-08-17T14:32:19Z</time>
      </trkpt>
      <trkpt lat="47.20252" lon="5.99397">
        <ele>232</ele>
        <time>2019-08-17T14:32:20Z</time>
      </trkpt>
      <trkpt lat="47.20249" lon="5.99395">
        <ele>232.1</ele>
        <time>2019-08-17T14:32:21Z</time>
      </trkpt>
      <trkpt lat="47.20246" lon="5.99393">
        <ele>232.2</ele>
        <time>2019-08-17T14:32:22Z</time>
      </trkpt>
      <trkpt lat="47.20243" lon="5.99391">
        <ele>232.3</ele>
        <time>2019-08-17T14:32:23Z</time>
      </trkpt>
      <trkpt lat="47.20238" lon="5.99387">
        <ele>232.5</ele>
        <time>2019-08-17T14:32:24Z</time>
      </trkpt>
      <trkpt lat="47.20234" lon="5.99384">
        <ele>232.6</ele>
        <time>2019-08-17T14:32:25Z</time>
      </trkpt>
      <trkpt lat="47.2023" lon="5.99382">
        <ele>232.8</ele>
        <time>2019-08-17T14:32:26Z</time>
      </trkpt>
      <trkpt lat="47.20227" lon="5.99379">
        <ele>232.9</ele>
        <time>2019-08-17T14:32:27Z</time>
      </trkpt>
      <trkpt lat="47.20223" lon="5.99375">
        <ele>233</ele>
        <time>2019-08-17T14:32:28Z</time>
      </trkpt>
      <trkpt lat="47.2022" lon="5.99372">
        <ele>233.1</ele>
        <time>2019-08-17T14:32:29Z</time>
      </trkpt>
      <trkpt lat="47.20217" lon="5.99368">
        <ele>233.2</ele>
        <time>2019-08-17T14:32:30Z</time>
      </trkpt>
      <trkpt lat="47.20212" lon="5.99365">
        <ele>233.2</ele>
        <time>2019-08-17T14:32:31Z</time>
      </trkpt>
      <trkpt lat="47.20208" lon="5.99362">
        <ele>233.2</ele>
        <time>2019-08-17T14:32:32Z</time>
      </trkpt>
      <trkpt lat="47.20204" lon="5.99359">
        <ele>233.2</ele>
        <time>2019-08-17T14:32:33Z</time>
      </trkpt>
      <trkpt lat="47.202" lon="5.99355">
        <ele>233.2</ele>
        <time>2019-08-17T14:32:34Z</time>
      </trkpt>
      <trkpt lat="47.20195" lon="5.99352">
        <ele>233.1</ele>
        <time>2019-08-17T14:32:35Z</time>
      </trkpt>
      <trkpt lat="47.20191" lon="5.99349">
        <ele>233.1</ele>
        <time>2019-08-17T14:32:36Z</time>
      </trkpt>
      <trkpt lat="47.20187" lon="5.99344">
        <ele>233.1</ele>
        <time>2019-08-17T14:32:37Z</time>
      </trkpt>
      <trkpt lat="47.20184" lon="5.9934">
        <ele>233</ele>
        <time>2019-08-17T14:32:38Z</time>
      </trkpt>
      <trkpt lat="47.2018" lon="5.99335">
        <ele>233</ele>
        <time>2019-08-17T14:32:39Z</time>
      </trkpt>
      <trkpt lat="47.20175" lon="5.99331">
        <ele>233</ele>
        <time>2019-08-17T14:32:40Z</time>
      </trkpt>
      <trkpt lat="47.20171" lon="5.99326">
        <ele>233</ele>
        <time>2019-08-17T14:32:41Z</time>
      </trkpt>
      <trkpt lat="47.20167" lon="5.99323">
        <ele>233</ele>
        <time>2019-08-17T14:32:42Z</time>
      </trkpt>
      <trkpt lat="47.20164" lon="5.99321">
        <ele>233</ele>
        <time>2019-08-17T14:32:43Z</time>
      </trkpt>
      <trkpt lat="47.20161" lon="5.99318">
        <ele>233.1</ele>
        <time>2019-08-17T14:32:44Z</time>
      </trkpt>
      <trkpt lat="47.20158" lon="5.99315">
        <ele>233.2</ele>
        <time>2019-08-17T14:32:45Z</time>
      </trkpt>
      <trkpt lat="47.20154" lon="5.99311">
        <ele>233.3</ele>
        <time>2019-08-17T14:32:46Z</time>
      </trkpt>
      <trkpt lat="47.2015" lon="5.99309">
        <ele>233.4</ele>
        <time>2019-08-17T14:32:47Z</time>
      </trkpt>
      <trkpt lat="47.20147" lon="5.99305">
        <ele>233.6</ele>
        <time>2019-08-17T14:32:48Z</time>
      </trkpt>
      <trkpt lat="47.20143" lon="5.99302">
        <ele>233.7</ele>
        <time>2019-08-17T14:32:49Z</time>
      </trkpt>
      <trkpt lat="47.20138" lon="5.99299">
        <ele>233.9</ele>
        <time>2019-08-17T14:32:50Z</time>
      </trkpt>
      <trkpt lat="47.20134" lon="5.99296">
        <ele>234.2</ele>
        <time>2019-08-17T14:32:51Z</time>
      </trkpt>
      <trkpt lat="47.2013" lon="5.99293">
        <ele>234.4</ele>
        <time>2019-08-17T14:32:52Z</time>
      </trkpt>
      <trkpt lat="47.20126" lon="5.9929">
        <ele>234.5</ele>
        <time>2019-08-17T14:32:53Z</time>
      </trkpt>
      <trkpt lat="47.20123" lon="5.99286">
        <ele>233.4</ele>
        <time>2019-08-17T14:32:54Z</time>
      </trkpt>
      <trkpt lat="47.2012" lon="5.99283">
        <ele>232.7</ele>
        <time>2019-08-17T14:32:55Z</time>
      </trkpt>
      <trkpt lat="47.20116" lon="5.9928">
        <ele>232</ele>
        <time>2019-08-17T14:32:56Z</time>
      </trkpt>
      <trkpt lat="47.20112" lon="5.99276">
        <ele>231.1</ele>
        <time>2019-08-17T14:32:57Z</time>
      </trkpt>
      <trkpt lat="47.20108" lon="5.99273">
        <ele>230.3</ele>
        <time>2019-08-17T14:32:58Z</time>
      </trkpt>
      <trkpt lat="47.20105" lon="5.99268">
        <ele>229.5</ele>
        <time>2019-08-17T14:32:59Z</time>
      </trkpt>
      <trkpt lat="47.20101" lon="5.99264">
        <ele>228.7</ele>
        <time>2019-08-17T14:33:00Z</time>
      </trkpt>
      <trkpt lat="47.20098" lon="5.9926">
        <ele>227.9</ele>
        <time>2019-08-17T14:33:01Z</time>
      </trkpt>
      <trkpt lat="47.20095" lon="5.99255">
        <ele>227.9</ele>
        <time>2019-08-17T14:33:02Z</time>
      </trkpt>
      <trkpt lat="47.20091" lon="5.99251">
        <ele>227.9</ele>
        <time>2019-08-17T14:33:03Z</time>
      </trkpt>
      <trkpt lat="47.20088" lon="5.99246">
        <ele>227.9</ele>
        <time>2019-08-17T14:33:04Z</time>
      </trkpt>
      <trkpt lat="47.20085" lon="5.99241">
        <ele>228</ele>
        <time>2019-08-17T14:33:05Z</time>
      </trkpt>
      <trkpt lat="47.20082" lon="5.99236">
        <ele>228</ele>
        <time>2019-08-17T14:33:06Z</time>
      </trkpt>
      <trkpt lat="47.20079" lon="5.99231">
        <ele>228.1</ele>
        <time>2019-08-17T14:33:07Z</time>
      </trkpt>
      <trkpt lat="47.20077" lon="5.99227">
        <ele>228.2</ele>
        <time>2019-08-17T14:33:08Z</time>
      </trkpt>
      <trkpt lat="47.20075" lon="5.99223">
        <ele>228.2</ele>
        <time>2019-08-17T14:33:09Z</time>
      </trkpt>
      <trkpt lat="47.20072" lon="5.99219">
        <ele>228.3</ele>
        <time>2019-08-17T14:33:10Z</time>
      </trkpt>
      <trkpt lat="47.2007" lon="5.99213">
        <ele>228.4</ele>
        <time>2019-08-17T14:33:11Z</time>
      </trkpt>
      <trkpt lat="47.20067" lon="5.99207">
        <ele>228.5</ele>
        <time>2019-08-17T14:33:12Z</time>
      </trkpt>
      <trkpt lat="47.20065" lon="5.99202">
        <ele>228.6</ele>
        <time>2019-08-17T14:33:13Z</time>
      </trkpt>
      <trkpt lat="47.20063" lon="5.99196">
        <ele>228.7</ele>
        <time>2019-08-17T14:33:14Z</time>
      </trkpt>
      <trkpt lat="47.20061" lon="5.9919">
        <ele>228.8</ele>
        <time>2019-08-17T14:33:15Z</time>
      </trkpt>
      <trkpt lat="47.20057" lon="5.99185">
        <ele>228.8</ele>
        <time>2019-08-17T14:33:16Z</time>
      </trkpt>
      <trkpt lat="47.20053" lon="5.9918">
        <ele>228.8</ele>
        <time>2019-08-17T14:33:17Z</time>
      </trkpt>
      <trkpt lat="47.2005" lon="5.99174">
        <ele>228.9</ele>
        <time>2019-08-17T14:33:18Z</time>
      </trkpt>
      <trkpt lat="47.20047" lon="5.99169">
        <ele>228.9</ele>
        <time>2019-08-17T14:33:19Z</time>
      </trkpt>
      <trkpt lat="47.20044" lon="5.99163">
        <ele>228.9</ele>
        <time>2019-08-17T14:33:20Z</time>
      </trkpt>
      <trkpt lat="47.20042" lon="5.99158">
        <ele>228.9</ele>
        <time>2019-08-17T14:33:21Z</time>
      </trkpt>
      <trkpt lat="47.2004" lon="5.99153">
        <ele>228.9</ele>
        <time>2019-08-17T14:33:22Z</time>
      </trkpt>
      <trkpt lat="47.20037" lon="5.99145">
        <ele>228.9</ele>
        <time>2019-08-17T14:33:23Z</time>
      </trkpt>
      <trkpt lat="47.20035" lon="5.99139">
        <ele>228.9</ele>
        <time>2019-08-17T14:33:24Z</time>
      </trkpt>
      <trkpt lat="47.20033" lon="5.99135">
        <ele>228.9</ele>
        <time>2019-08-17T14:33:25Z</time>
      </trkpt>
      <trkpt lat="47.20033" lon="5.9913">
        <ele>228.9</ele>
        <time>2019-08-17T14:33:26Z</time>
      </trkpt>
      <trkpt lat="47.20031" lon="5.99126">
        <ele>228.9</ele>
        <time>2019-08-17T14:33:27Z</time>
      </trkpt>
      <trkpt lat="47.20029" lon="5.99121">
        <ele>228.9</ele>
        <time>2019-08-17T14:33:28Z</time>
      </trkpt>
      <trkpt lat="47.20028" lon="5.99116">
        <ele>228.9</ele>
        <time>2019-08-17T14:33:29Z</time>
      </trkpt>
      <trkpt lat="47.20026" lon="5.99109">
        <ele>228.9</ele>
        <time>2019-08-17T14:33:30Z</time>
      </trkpt>
      <trkpt lat="47.20025" lon="5.99101">
        <ele>228.9</ele>
        <time>2019-08-17T14:33:31Z</time>
      </trkpt>
      <trkpt lat="47.20025" lon="5.99093">
        <ele>229.1</ele>
        <time>2019-08-17T14:33:32Z</time>
      </trkpt>
      <trkpt lat="47.20025" lon="5.99086">
        <ele>229.6</ele>
        <time>2019-08-17T14:33:33Z</time>
      </trkpt>
      <trkpt lat="47.20026" lon="5.99079">
        <ele>230.1</ele>
        <time>2019-08-17T14:33:34Z</time>
      </trkpt>
      <trkpt lat="47.20027" lon="5.99072">
        <ele>230.6</ele>
        <time>2019-08-17T14:33:35Z</time>
      </trkpt>
      <trkpt lat="47.20028" lon="5.99066">
        <ele>231</ele>
        <time>2019-08-17T14:33:36Z</time>
      </trkpt>
      <trkpt lat="47.20029" lon="5.9906">
        <ele>231.2</ele>
        <time>2019-08-17T14:33:37Z</time>
      </trkpt>
      <trkpt lat="47.20028" lon="5.99053">
        <ele>231.2</ele>
        <time>2019-08-17T14:33:38Z</time>
      </trkpt>
      <trkpt lat="47.20026" lon="5.99046">
        <ele>231.2</ele>
        <time>2019-08-17T14:33:39Z</time>
      </trkpt>
      <trkpt lat="47.20024" lon="5.99042">
        <ele>231.3</ele>
        <time>2019-08-17T14:33:40Z</time>
      </trkpt>
      <trkpt lat="47.20021" lon="5.99038">
        <ele>231.3</ele>
        <time>2019-08-17T14:33:41Z</time>
      </trkpt>
      <trkpt lat="47.20019" lon="5.99034">
        <ele>231.3</ele>
        <time>2019-08-17T14:33:42Z</time>
      </trkpt>
      <trkpt lat="47.20018" lon="5.99029">
        <ele>231.3</ele>
        <time>2019-08-17T14:33:43Z</time>
      </trkpt>
      <trkpt lat="47.20015" lon="5.99024">
        <ele>231.4</ele>
        <time>2019-08-17T14:33:44Z</time>
      </trkpt>
      <trkpt lat="47.20013" lon="5.99018">
        <ele>231.4</ele>
        <time>2019-08-17T14:33:45Z</time>
      </trkpt>
      <trkpt lat="47.2001" lon="5.99012">
        <ele>231.4</ele>
        <time>2019-08-17T14:33:46Z</time>
      </trkpt>
      <trkpt lat="47.20008" lon="5.99007">
        <ele>231.5</ele>
        <time>2019-08-17T14:33:47Z</time>
      </trkpt>
      <trkpt lat="47.20006" lon="5.99001">
        <ele>231.5</ele>
        <time>2019-08-17T14:33:48Z</time>
      </trkpt>
      <trkpt lat="47.20003" lon="5.98996">
        <ele>231.6</ele>
        <time>2019-08-17T14:33:49Z</time>
      </trkpt>
      <trkpt lat="47.20001" lon="5.9899">
        <ele>231.6</ele>
        <time>2019-08-17T14:33:50Z</time>
      </trkpt>
      <trkpt lat="47.19999" lon="5.98983">
        <ele>231.7</ele>
        <time>2019-08-17T14:33:51Z</time>
      </trkpt>
      <trkpt lat="47.19995" lon="5.98976">
        <ele>231.9</ele>
        <time>2019-08-17T14:33:52Z</time>
      </trkpt>
      <trkpt lat="47.19992" lon="5.98969">
        <ele>232.1</ele>
        <time>2019-08-17T14:33:53Z</time>
      </trkpt>
      <trkpt lat="47.19988" lon="5.98961">
        <ele>232.3</ele>
        <time>2019-08-17T14:33:54Z</time>
      </trkpt>
      <trkpt lat="47.19986" lon="5.98955">
        <ele>232.5</ele>
        <time>2019-08-17T14:33:55Z</time>
      </trkpt>
      <trkpt lat="47.19983" lon="5.98948">
        <ele>232.7</ele>
        <time>2019-08-17T14:33:56Z</time>
      </trkpt>
      <trkpt lat="47.19981" lon="5.98942">
        <ele>232.9</ele>
        <time>2019-08-17T14:33:57Z</time>
      </trkpt>
      <trkpt lat="47.19979" lon="5.98935">
        <ele>233.1</ele>
        <time>2019-08-17T14:33:58Z</time>
      </trkpt>
      <trkpt lat="47.19977" lon="5.98928">
        <ele>233.3</ele>
        <time>2019-08-17T14:33:59Z</time>
      </trkpt>
      <trkpt lat="47.19974" lon="5.98922">
        <ele>233.5</ele>
        <time>2019-08-17T14:34:00Z</time>
      </trkpt>
      <trkpt lat="47.19971" lon="5.98916">
        <ele>233.7</ele>
        <time>2019-08-17T14:34:01Z</time>
      </trkpt>
      <trkpt lat="47.19968" lon="5.9891">
        <ele>234</ele>
        <time>2019-08-17T14:34:02Z</time>
      </trkpt>
      <trkpt lat="47.19966" lon="5.98905">
        <ele>233.9</ele>
        <time>2019-08-17T14:34:03Z</time>
      </trkpt>
      <trkpt lat="47.19963" lon="5.98899">
        <ele>233.9</ele>
        <time>2019-08-17T14:34:04Z</time>
      </trkpt>
      <trkpt lat="47.19962" lon="5.98893">
        <ele>233.9</ele>
        <time>2019-08-17T14:34:05Z</time>
      </trkpt>
      <trkpt lat="47.1996" lon="5.98887">
        <ele>233.9</ele>
        <time>2019-08-17T14:34:06Z</time>
      </trkpt>
      <trkpt lat="47.19959" lon="5.9888">
        <ele>233.8</ele>
        <time>2019-08-17T14:34:07Z</time>
      </trkpt>
      <trkpt lat="47.19957" lon="5.98873">
        <ele>233.7</ele>
        <time>2019-08-17T14:34:08Z</time>
      </trkpt>
      <trkpt lat="47.19955" lon="5.98867">
        <ele>233.6</ele>
        <time>2019-08-17T14:34:09Z</time>
      </trkpt>
      <trkpt lat="47.19953" lon="5.98861">
        <ele>233.5</ele>
        <time>2019-08-17T14:34:10Z</time>
      </trkpt>
      <trkpt lat="47.19951" lon="5.98856">
        <ele>233.3</ele>
        <time>2019-08-17T14:34:11Z</time>
      </trkpt>
      <trkpt lat="47.19949" lon="5.9885">
        <ele>233.3</ele>
        <time>2019-08-17T14:34:12Z</time>
      </trkpt>
      <trkpt lat="47.19947" lon="5.98844">
        <ele>233.2</ele>
        <time>2019-08-17T14:34:13Z</time>
      </trkpt>
      <trkpt lat="47.19945" lon="5.98838">
        <ele>233.1</ele>
        <time>2019-08-17T14:34:14Z</time>
      </trkpt>
      <trkpt lat="47.19942" lon="5.98833">
        <ele>233.1</ele>
        <time>2019-08-17T14:34:15Z</time>
      </trkpt>
      <trkpt lat="47.1994" lon="5.98827">
        <ele>233.1</ele>
        <time>2019-08-17T14:34:16Z</time>
      </trkpt>
      <trkpt lat="47.19937" lon="5.98821">
        <ele>233</ele>
        <time>2019-08-17T14:34:17Z</time>
      </trkpt>
      <trkpt lat="47.19934" lon="5.98816">
        <ele>233</ele>
        <time>2019-08-17T14:34:18Z</time>
      </trkpt>
      <trkpt lat="47.19932" lon="5.98809">
        <ele>232.9</ele>
        <time>2019-08-17T14:34:19Z</time>
      </trkpt>
      <trkpt lat="47.19929" lon="5.98804">
        <ele>232.8</ele>
        <time>2019-08-17T14:34:20Z</time>
      </trkpt>
      <trkpt lat="47.19927" lon="5.98797">
        <ele>232.7</ele>
        <time>2019-08-17T14:34:21Z</time>
      </trkpt>
      <trkpt lat="47.19924" lon="5.98792">
        <ele>232.6</ele>
        <time>2019-08-17T14:34:22Z</time>
      </trkpt>
      <trkpt lat="47.19922" lon="5.98786">
        <ele>232.5</ele>
        <time>2019-08-17T14:34:23Z</time>
      </trkpt>
      <trkpt lat="47.1992" lon="5.9878">
        <ele>232.4</ele>
        <time>2019-08-17T14:34:24Z</time>
      </trkpt>
      <trkpt lat="47.19917" lon="5.98774">
        <ele>232.3</ele>
        <time>2019-08-17T14:34:25Z</time>
      </trkpt>
      <trkpt lat="47.19915" lon="5.98768">
        <ele>232.2</ele>
        <time>2019-08-17T14:34:26Z</time>
      </trkpt>
      <trkpt lat="47.19913" lon="5.98762">
        <ele>232.2</ele>
        <time>2019-08-17T14:34:27Z</time>
      </trkpt>
      <trkpt lat="47.1991" lon="5.98757">
        <ele>232.1</ele>
        <time>2019-08-17T14:34:28Z</time>
      </trkpt>
      <trkpt lat="47.19908" lon="5.98751">
        <ele>232</ele>
        <time>2019-08-17T14:34:29Z</time>
      </trkpt>
      <trkpt lat="47.19906" lon="5.98746">
        <ele>231.9</ele>
        <time>2019-08-17T14:34:30Z</time>
      </trkpt>
      <trkpt lat="47.19903" lon="5.9874">
        <ele>231.8</ele>
        <time>2019-08-17T14:34:31Z</time>
      </trkpt>
      <trkpt lat="47.19902" lon="5.98734">
        <ele>231.7</ele>
        <time>2019-08-17T14:34:32Z</time>
      </trkpt>
      <trkpt lat="47.19899" lon="5.98729">
        <ele>231.5</ele>
        <time>2019-08-17T14:34:33Z</time>
      </trkpt>
      <trkpt lat="47.19897" lon="5.98724">
        <ele>231.4</ele>
        <time>2019-08-17T14:34:34Z</time>
      </trkpt>
      <trkpt lat="47.19895" lon="5.98719">
        <ele>231.3</ele>
        <time>2019-08-17T14:34:35Z</time>
      </trkpt>
      <trkpt lat="47.19893" lon="5.98713">
        <ele>231.2</ele>
        <time>2019-08-17T14:34:36Z</time>
      </trkpt>
      <trkpt lat="47.19891" lon="5.98707">
        <ele>231.1</ele>
        <time>2019-08-17T14:34:37Z</time>
      </trkpt>
      <trkpt lat="47.19889" lon="5.98702">
        <ele>231</ele>
        <time>2019-08-17T14:34:38Z</time>
      </trkpt>
      <trkpt lat="47.19887" lon="5.98697">
        <ele>230.9</ele>
        <time>2019-08-17T14:34:39Z</time>
      </trkpt>
      <trkpt lat="47.19886" lon="5.98692">
        <ele>230.8</ele>
        <time>2019-08-17T14:34:40Z</time>
      </trkpt>
      <trkpt lat="47.19883" lon="5.98686">
        <ele>230.6</ele>
        <time>2019-08-17T14:34:41Z</time>
      </trkpt>
      <trkpt lat="47.19882" lon="5.9868">
        <ele>230.5</ele>
        <time>2019-08-17T14:34:42Z</time>
      </trkpt>
      <trkpt lat="47.1988" lon="5.98674">
        <ele>230.5</ele>
        <time>2019-08-17T14:34:43Z</time>
      </trkpt>
      <trkpt lat="47.19877" lon="5.9867">
        <ele>230.4</ele>
        <time>2019-08-17T14:34:44Z</time>
      </trkpt>
      <trkpt lat="47.19874" lon="5.98665">
        <ele>230.3</ele>
        <time>2019-08-17T14:34:45Z</time>
      </trkpt>
      <trkpt lat="47.19871" lon="5.9866">
        <ele>230.2</ele>
        <time>2019-08-17T14:34:46Z</time>
      </trkpt>
      <trkpt lat="47.19868" lon="5.98654">
        <ele>230.1</ele>
        <time>2019-08-17T14:34:47Z</time>
      </trkpt>
      <trkpt lat="47.19866" lon="5.98649">
        <ele>230</ele>
        <time>2019-08-17T14:34:48Z</time>
      </trkpt>
      <trkpt lat="47.19863" lon="5.98644">
        <ele>229.9</ele>
        <time>2019-08-17T14:34:49Z</time>
      </trkpt>
      <trkpt lat="47.19862" lon="5.98636">
        <ele>229.7</ele>
        <time>2019-08-17T14:34:50Z</time>
      </trkpt>
      <trkpt lat="47.19859" lon="5.98632">
        <ele>229.6</ele>
        <time>2019-08-17T14:34:51Z</time>
      </trkpt>
      <trkpt lat="47.19857" lon="5.98626">
        <ele>229.5</ele>
        <time>2019-08-17T14:34:52Z</time>
      </trkpt>
      <trkpt lat="47.19854" lon="5.98621">
        <ele>229.3</ele>
        <time>2019-08-17T14:34:53Z</time>
      </trkpt>
      <trkpt lat="47.19851" lon="5.98615">
        <ele>229.2</ele>
        <time>2019-08-17T14:34:54Z</time>
      </trkpt>
      <trkpt lat="47.1985" lon="5.98609">
        <ele>229</ele>
        <time>2019-08-17T14:34:55Z</time>
      </trkpt>
      <trkpt lat="47.19849" lon="5.98601">
        <ele>228.8</ele>
        <time>2019-08-17T14:34:56Z</time>
      </trkpt>
      <trkpt lat="47.19847" lon="5.98595">
        <ele>228.6</ele>
        <time>2019-08-17T14:34:57Z</time>
      </trkpt>
      <trkpt lat="47.19845" lon="5.98589">
        <ele>229.2</ele>
        <time>2019-08-17T14:34:58Z</time>
      </trkpt>
      <trkpt lat="47.19844" lon="5.98584">
        <ele>229.7</ele>
        <time>2019-08-17T14:34:59Z</time>
      </trkpt>
      <trkpt lat="47.19842" lon="5.98579">
        <ele>230.2</ele>
        <time>2019-08-17T14:35:00Z</time>
      </trkpt>
      <trkpt lat="47.1984" lon="5.98575">
        <ele>230.7</ele>
        <time>2019-08-17T14:35:01Z</time>
      </trkpt>
      <trkpt lat="47.19839" lon="5.98568">
        <ele>231.4</ele>
        <time>2019-08-17T14:35:02Z</time>
      </trkpt>
      <trkpt lat="47.19837" lon="5.98562">
        <ele>231.9</ele>
        <time>2019-08-17T14:35:03Z</time>
      </trkpt>
      <trkpt lat="47.19835" lon="5.98555">
        <ele>232</ele>
        <time>2019-08-17T14:35:04Z</time>
      </trkpt>
      <trkpt lat="47.19832" lon="5.9855">
        <ele>232.2</ele>
        <time>2019-08-17T14:35:05Z</time>
      </trkpt>
      <trkpt lat="47.19829" lon="5.98544">
        <ele>232.3</ele>
        <time>2019-08-17T14:35:06Z</time>
      </trkpt>
      <trkpt lat="47.19827" lon="5.98538">
        <ele>232.5</ele>
        <time>2019-08-17T14:35:07Z</time>
      </trkpt>
      <trkpt lat="47.19825" lon="5.98533">
        <ele>232.6</ele>
        <time>2019-08-17T14:35:08Z</time>
      </trkpt>
      <trkpt lat="47.19823" lon="5.98527">
        <ele>232.7</ele>
        <time>2019-08-17T14:35:09Z</time>
      </trkpt>
      <trkpt lat="47.19822" lon="5.98521">
        <ele>232.9</ele>
        <time>2019-08-17T14:35:10Z</time>
      </trkpt>
      <trkpt lat="47.1982" lon="5.98515">
        <ele>233</ele>
        <time>2019-08-17T14:35:11Z</time>
      </trkpt>
      <trkpt lat="47.19818" lon="5.98509">
        <ele>233.2</ele>
        <time>2019-08-17T14:35:12Z</time>
      </trkpt>
      <trkpt lat="47.19817" lon="5.98503">
        <ele>233.3</ele>
        <time>2019-08-17T14:35:13Z</time>
      </trkpt>
      <trkpt lat="47.19815" lon="5.98497">
        <ele>233.4</ele>
        <time>2019-08-17T14:35:14Z</time>
      </trkpt>
      <trkpt lat="47.19814" lon="5.98489">
        <ele>233.6</ele>
        <time>2019-08-17T14:35:15Z</time>
      </trkpt>
      <trkpt lat="47.19812" lon="5.98483">
        <ele>233.8</ele>
        <time>2019-08-17T14:35:16Z</time>
      </trkpt>
      <trkpt lat="47.19811" lon="5.98475">
        <ele>233.9</ele>
        <time>2019-08-17T14:35:17Z</time>
      </trkpt>
      <trkpt lat="47.1981" lon="5.98468">
        <ele>234.1</ele>
        <time>2019-08-17T14:35:18Z</time>
      </trkpt>
      <trkpt lat="47.19809" lon="5.98462">
        <ele>234.2</ele>
        <time>2019-08-17T14:35:19Z</time>
      </trkpt>
      <trkpt lat="47.19808" lon="5.98456">
        <ele>234.4</ele>
        <time>2019-08-17T14:35:20Z</time>
      </trkpt>
      <trkpt lat="47.19807" lon="5.98449">
        <ele>234.6</ele>
        <time>2019-08-17T14:35:21Z</time>
      </trkpt>
      <trkpt lat="47.19806" lon="5.98442">
        <ele>234.7</ele>
        <time>2019-08-17T14:35:22Z</time>
      </trkpt>
      <trkpt lat="47.19804" lon="5.98435">
        <ele>234.9</ele>
        <time>2019-08-17T14:35:23Z</time>
      </trkpt>
      <trkpt lat="47.19803" lon="5.98428">
        <ele>235.1</ele>
        <time>2019-08-17T14:35:24Z</time>
      </trkpt>
      <trkpt lat="47.19802" lon="5.98422">
        <ele>235.3</ele>
        <time>2019-08-17T14:35:25Z</time>
      </trkpt>
      <trkpt lat="47.19801" lon="5.98415">
        <ele>235.4</ele>
        <time>2019-08-17T14:35:26Z</time>
      </trkpt>
      <trkpt lat="47.19801" lon="5.98409">
        <ele>235.6</ele>
        <time>2019-08-17T14:35:27Z</time>
      </trkpt>
      <trkpt lat="47.19801" lon="5.98403">
        <ele>235.8</ele>
        <time>2019-08-17T14:35:28Z</time>
      </trkpt>
      <trkpt lat="47.19801" lon="5.98396">
        <ele>235.9</ele>
        <time>2019-08-17T14:35:29Z</time>
      </trkpt>
      <trkpt lat="47.19802" lon="5.9839">
        <ele>236.1</ele>
        <time>2019-08-17T14:35:30Z</time>
      </trkpt>
      <trkpt lat="47.19802" lon="5.98383">
        <ele>236.3</ele>
        <time>2019-08-17T14:35:31Z</time>
      </trkpt>
      <trkpt lat="47.19803" lon="5.98377">
        <ele>236.5</ele>
        <time>2019-08-17T14:35:32Z</time>
      </trkpt>
      <trkpt lat="47.19803" lon="5.9837">
        <ele>236.7</ele>
        <time>2019-08-17T14:35:33Z</time>
      </trkpt>
      <trkpt lat="47.19803" lon="5.98364">
        <ele>236.9</ele>
        <time>2019-08-17T14:35:34Z</time>
      </trkpt>
      <trkpt lat="47.19803" lon="5.98358">
        <ele>237.1</ele>
        <time>2019-08-17T14:35:35Z</time>
      </trkpt>
      <trkpt lat="47.19805" lon="5.98352">
        <ele>237.3</ele>
        <time>2019-08-17T14:35:36Z</time>
      </trkpt>
      <trkpt lat="47.19805" lon="5.98346">
        <ele>237.6</ele>
        <time>2019-08-17T14:35:37Z</time>
      </trkpt>
      <trkpt lat="47.19807" lon="5.9834">
        <ele>237.8</ele>
        <time>2019-08-17T14:35:38Z</time>
      </trkpt>
      <trkpt lat="47.19809" lon="5.98335">
        <ele>238.1</ele>
        <time>2019-08-17T14:35:39Z</time>
      </trkpt>
      <trkpt lat="47.19811" lon="5.9833">
        <ele>238.4</ele>
        <time>2019-08-17T14:35:40Z</time>
      </trkpt>
      <trkpt lat="47.19812" lon="5.98324">
        <ele>238.7</ele>
        <time>2019-08-17T14:35:41Z</time>
      </trkpt>
      <trkpt lat="47.19814" lon="5.9832">
        <ele>239</ele>
        <time>2019-08-17T14:35:42Z</time>
      </trkpt>
      <trkpt lat="47.19816" lon="5.98314">
        <ele>239.4</ele>
        <time>2019-08-17T14:35:43Z</time>
      </trkpt>
      <trkpt lat="47.19817" lon="5.9831">
        <ele>239.7</ele>
        <time>2019-08-17T14:35:44Z</time>
      </trkpt>
      <trkpt lat="47.19818" lon="5.98305">
        <ele>240</ele>
        <time>2019-08-17T14:35:45Z</time>
      </trkpt>
      <trkpt lat="47.19819" lon="5.98299">
        <ele>240.4</ele>
        <time>2019-08-17T14:35:46Z</time>
      </trkpt>
      <trkpt lat="47.19821" lon="5.98295">
        <ele>240.7</ele>
        <time>2019-08-17T14:35:47Z</time>
      </trkpt>
      <trkpt lat="47.19823" lon="5.98291">
        <ele>241</ele>
        <time>2019-08-17T14:35:48Z</time>
      </trkpt>
      <trkpt lat="47.19824" lon="5.98286">
        <ele>241.3</ele>
        <time>2019-08-17T14:35:49Z</time>
      </trkpt>
      <trkpt lat="47.19825" lon="5.98282">
        <ele>241.6</ele>
        <time>2019-08-17T14:35:50Z</time>
      </trkpt>
      <trkpt lat="47.19827" lon="5.98274">
        <ele>242.4</ele>
        <time>2019-08-17T14:35:52Z</time>
      </trkpt>
      <trkpt lat="47.19831" lon="5.98266">
        <ele>242.2</ele>
        <time>2019-08-17T14:35:54Z</time>
      </trkpt>
      <trkpt lat="47.19833" lon="5.9826">
        <ele>242.2</ele>
        <time>2019-08-17T14:35:55Z</time>
      </trkpt>
      <trkpt lat="47.19835" lon="5.98255">
        <ele>242.1</ele>
        <time>2019-08-17T14:35:56Z</time>
      </trkpt>
      <trkpt lat="47.19836" lon="5.98249">
        <ele>242</ele>
        <time>2019-08-17T14:35:57Z</time>
      </trkpt>
      <trkpt lat="47.19836" lon="5.98244">
        <ele>241.9</ele>
        <time>2019-08-17T14:35:58Z</time>
      </trkpt>
      <trkpt lat="47.19838" lon="5.98239">
        <ele>241.9</ele>
        <time>2019-08-17T14:35:59Z</time>
      </trkpt>
      <trkpt lat="47.1984" lon="5.98235">
        <ele>241.8</ele>
        <time>2019-08-17T14:36:00Z</time>
      </trkpt>
      <trkpt lat="47.19843" lon="5.98231">
        <ele>241.8</ele>
        <time>2019-08-17T14:36:01Z</time>
      </trkpt>
      <trkpt lat="47.19845" lon="5.98226">
        <ele>241.7</ele>
        <time>2019-08-17T14:36:02Z</time>
      </trkpt>
      <trkpt lat="47.19848" lon="5.9822">
        <ele>241.6</ele>
        <time>2019-08-17T14:36:03Z</time>
      </trkpt>
      <trkpt lat="47.1985" lon="5.98213">
        <ele>241.6</ele>
        <time>2019-08-17T14:36:04Z</time>
      </trkpt>
      <trkpt lat="47.19852" lon="5.98206">
        <ele>241.6</ele>
        <time>2019-08-17T14:36:05Z</time>
      </trkpt>
      <trkpt lat="47.19855" lon="5.98198">
        <ele>241.6</ele>
        <time>2019-08-17T14:36:06Z</time>
      </trkpt>
      <trkpt lat="47.19857" lon="5.98191">
        <ele>241.6</ele>
        <time>2019-08-17T14:36:07Z</time>
      </trkpt>
      <trkpt lat="47.19859" lon="5.98185">
        <ele>241.6</ele>
        <time>2019-08-17T14:36:08Z</time>
      </trkpt>
      <trkpt lat="47.1986" lon="5.98178">
        <ele>241.6</ele>
        <time>2019-08-17T14:36:09Z</time>
      </trkpt>
      <trkpt lat="47.19861" lon="5.9817">
        <ele>241.6</ele>
        <time>2019-08-17T14:36:10Z</time>
      </trkpt>
      <trkpt lat="47.19861" lon="5.98163">
        <ele>241.7</ele>
        <time>2019-08-17T14:36:11Z</time>
      </trkpt>
      <trkpt lat="47.19861" lon="5.98156">
        <ele>241.7</ele>
        <time>2019-08-17T14:36:12Z</time>
      </trkpt>
      <trkpt lat="47.19861" lon="5.98148">
        <ele>241.8</ele>
        <time>2019-08-17T14:36:13Z</time>
      </trkpt>
      <trkpt lat="47.19862" lon="5.98143">
        <ele>241.8</ele>
        <time>2019-08-17T14:36:14Z</time>
      </trkpt>
      <trkpt lat="47.19862" lon="5.98136">
        <ele>241.8</ele>
        <time>2019-08-17T14:36:15Z</time>
      </trkpt>
      <trkpt lat="47.19863" lon="5.9813">
        <ele>241.9</ele>
        <time>2019-08-17T14:36:16Z</time>
      </trkpt>
      <trkpt lat="47.19863" lon="5.98123">
        <ele>242</ele>
        <time>2019-08-17T14:36:17Z</time>
      </trkpt>
      <trkpt lat="47.19864" lon="5.98117">
        <ele>241.5</ele>
        <time>2019-08-17T14:36:18Z</time>
      </trkpt>
      <trkpt lat="47.19864" lon="5.98111">
        <ele>241.2</ele>
        <time>2019-08-17T14:36:19Z</time>
      </trkpt>
      <trkpt lat="47.19866" lon="5.98107">
        <ele>241</ele>
        <time>2019-08-17T14:36:20Z</time>
      </trkpt>
      <trkpt lat="47.19868" lon="5.98103">
        <ele>240.7</ele>
        <time>2019-08-17T14:36:21Z</time>
      </trkpt>
      <trkpt lat="47.1987" lon="5.981">
        <ele>240.5</ele>
        <time>2019-08-17T14:36:22Z</time>
      </trkpt>
      <trkpt lat="47.19871" lon="5.98095">
        <ele>240.2</ele>
        <time>2019-08-17T14:36:23Z</time>
      </trkpt>
      <trkpt lat="47.19873" lon="5.98089">
        <ele>239.9</ele>
        <time>2019-08-17T14:36:24Z</time>
      </trkpt>
      <trkpt lat="47.19874" lon="5.98084">
        <ele>239.7</ele>
        <time>2019-08-17T14:36:25Z</time>
      </trkpt>
      <trkpt lat="47.19876" lon="5.9808">
        <ele>239.4</ele>
        <time>2019-08-17T14:36:26Z</time>
      </trkpt>
      <trkpt lat="47.19878" lon="5.98075">
        <ele>239.2</ele>
        <time>2019-08-17T14:36:27Z</time>
      </trkpt>
      <trkpt lat="47.1988" lon="5.9807">
        <ele>239</ele>
        <time>2019-08-17T14:36:28Z</time>
      </trkpt>
      <trkpt lat="47.19881" lon="5.98065">
        <ele>238.7</ele>
        <time>2019-08-17T14:36:29Z</time>
      </trkpt>
      <trkpt lat="47.19882" lon="5.9806">
        <ele>238.5</ele>
        <time>2019-08-17T14:36:30Z</time>
      </trkpt>
      <trkpt lat="47.19883" lon="5.98055">
        <ele>238.3</ele>
        <time>2019-08-17T14:36:31Z</time>
      </trkpt>
      <trkpt lat="47.19883" lon="5.98051">
        <ele>238.1</ele>
        <time>2019-08-17T14:36:32Z</time>
      </trkpt>
      <trkpt lat="47.19884" lon="5.98045">
        <ele>237.9</ele>
        <time>2019-08-17T14:36:33Z</time>
      </trkpt>
      <trkpt lat="47.19885" lon="5.98039">
        <ele>237.7</ele>
        <time>2019-08-17T14:36:34Z</time>
      </trkpt>
      <trkpt lat="47.19886" lon="5.98033">
        <ele>237.4</ele>
        <time>2019-08-17T14:36:35Z</time>
      </trkpt>
      <trkpt lat="47.19887" lon="5.98028">
        <ele>237.3</ele>
        <time>2019-08-17T14:36:36Z</time>
      </trkpt>
      <trkpt lat="47.19888" lon="5.98022">
        <ele>237</ele>
        <time>2019-08-17T14:36:37Z</time>
      </trkpt>
      <trkpt lat="47.19888" lon="5.98016">
        <ele>236.8</ele>
        <time>2019-08-17T14:36:38Z</time>
      </trkpt>
      <trkpt lat="47.19889" lon="5.98008">
        <ele>236.5</ele>
        <time>2019-08-17T14:36:39Z</time>
      </trkpt>
      <trkpt lat="47.19889" lon="5.98001">
        <ele>236.2</ele>
        <time>2019-08-17T14:36:40Z</time>
      </trkpt>
      <trkpt lat="47.19889" lon="5.97996">
        <ele>236</ele>
        <time>2019-08-17T14:36:41Z</time>
      </trkpt>
      <trkpt lat="47.19889" lon="5.97989">
        <ele>235.9</ele>
        <time>2019-08-17T14:36:42Z</time>
      </trkpt>
      <trkpt lat="47.19889" lon="5.97983">
        <ele>235.9</ele>
        <time>2019-08-17T14:36:43Z</time>
      </trkpt>
      <trkpt lat="47.19889" lon="5.97977">
        <ele>235.8</ele>
        <time>2019-08-17T14:36:44Z</time>
      </trkpt>
      <trkpt lat="47.1989" lon="5.97972">
        <ele>235.7</ele>
        <time>2019-08-17T14:36:45Z</time>
      </trkpt>
      <trkpt lat="47.1989" lon="5.97966">
        <ele>235.6</ele>
        <time>2019-08-17T14:36:46Z</time>
      </trkpt>
      <trkpt lat="47.19891" lon="5.97958">
        <ele>235.5</ele>
        <time>2019-08-17T14:36:47Z</time>
      </trkpt>
      <trkpt lat="47.19893" lon="5.97953">
        <ele>235.5</ele>
        <time>2019-08-17T14:36:48Z</time>
      </trkpt>
      <trkpt lat="47.19893" lon="5.97947">
        <ele>235.4</ele>
        <time>2019-08-17T14:36:49Z</time>
      </trkpt>
      <trkpt lat="47.19892" lon="5.97939">
        <ele>235.4</ele>
        <time>2019-08-17T14:36:50Z</time>
      </trkpt>
      <trkpt lat="47.19892" lon="5.97934">
        <ele>235.3</ele>
        <time>2019-08-17T14:36:51Z</time>
      </trkpt>
      <trkpt lat="47.19892" lon="5.97928">
        <ele>235.3</ele>
        <time>2019-08-17T14:36:52Z</time>
      </trkpt>
      <trkpt lat="47.19893" lon="5.97923">
        <ele>235.2</ele>
        <time>2019-08-17T14:36:53Z</time>
      </trkpt>
      <trkpt lat="47.19893" lon="5.97917">
        <ele>235.2</ele>
        <time>2019-08-17T14:36:54Z</time>
      </trkpt>
      <trkpt lat="47.19893" lon="5.97912">
        <ele>235.1</ele>
        <time>2019-08-17T14:36:55Z</time>
      </trkpt>
      <trkpt lat="47.19894" lon="5.97906">
        <ele>235.1</ele>
        <time>2019-08-17T14:36:56Z</time>
      </trkpt>
      <trkpt lat="47.19895" lon="5.979">
        <ele>235</ele>
        <time>2019-08-17T14:36:57Z</time>
      </trkpt>
      <trkpt lat="47.19896" lon="5.97892">
        <ele>234.9</ele>
        <time>2019-08-17T14:36:58Z</time>
      </trkpt>
      <trkpt lat="47.19897" lon="5.97886">
        <ele>234.8</ele>
        <time>2019-08-17T14:36:59Z</time>
      </trkpt>
      <trkpt lat="47.19898" lon="5.9788">
        <ele>234.8</ele>
        <time>2019-08-17T14:37:00Z</time>
      </trkpt>
      <trkpt lat="47.19898" lon="5.97872">
        <ele>234.6</ele>
        <time>2019-08-17T14:37:01Z</time>
      </trkpt>
      <trkpt lat="47.19899" lon="5.97865">
        <ele>234.5</ele>
        <time>2019-08-17T14:37:02Z</time>
      </trkpt>
      <trkpt lat="47.19899" lon="5.97858">
        <ele>234.4</ele>
        <time>2019-08-17T14:37:03Z</time>
      </trkpt>
      <trkpt lat="47.19899" lon="5.97852">
        <ele>234.4</ele>
        <time>2019-08-17T14:37:04Z</time>
      </trkpt>
      <trkpt lat="47.19899" lon="5.97845">
        <ele>234.3</ele>
        <time>2019-08-17T14:37:05Z</time>
      </trkpt>
      <trkpt lat="47.19899" lon="5.97838">
        <ele>234.3</ele>
        <time>2019-08-17T14:37:06Z</time>
      </trkpt>
      <trkpt lat="47.19898" lon="5.97832">
        <ele>234.2</ele>
        <time>2019-08-17T14:37:07Z</time>
      </trkpt>
      <trkpt lat="47.19898" lon="5.97826">
        <ele>234.2</ele>
        <time>2019-08-17T14:37:08Z</time>
      </trkpt>
      <trkpt lat="47.19898" lon="5.9782">
        <ele>234.1</ele>
        <time>2019-08-17T14:37:09Z</time>
      </trkpt>
      <trkpt lat="47.19899" lon="5.97814">
        <ele>234</ele>
        <time>2019-08-17T14:37:10Z</time>
      </trkpt>
      <trkpt lat="47.19899" lon="5.97807">
        <ele>234</ele>
        <time>2019-08-17T14:37:11Z</time>
      </trkpt>
      <trkpt lat="47.19899" lon="5.97801">
        <ele>233.9</ele>
        <time>2019-08-17T14:37:12Z</time>
      </trkpt>
      <trkpt lat="47.19898" lon="5.97794">
        <ele>233.9</ele>
        <time>2019-08-17T14:37:13Z</time>
      </trkpt>
      <trkpt lat="47.19898" lon="5.97788">
        <ele>233.8</ele>
        <time>2019-08-17T14:37:14Z</time>
      </trkpt>
      <trkpt lat="47.19898" lon="5.97781">
        <ele>233.7</ele>
        <time>2019-08-17T14:37:15Z</time>
      </trkpt>
      <trkpt lat="47.19898" lon="5.97776">
        <ele>233.7</ele>
        <time>2019-08-17T14:37:16Z</time>
      </trkpt>
      <trkpt lat="47.19899" lon="5.9777">
        <ele>233.6</ele>
        <time>2019-08-17T14:37:17Z</time>
      </trkpt>
      <trkpt lat="47.199" lon="5.97764">
        <ele>233.5</ele>
        <time>2019-08-17T14:37:18Z</time>
      </trkpt>
      <trkpt lat="47.199" lon="5.97756">
        <ele>233.4</ele>
        <time>2019-08-17T14:37:19Z</time>
      </trkpt>
      <trkpt lat="47.199" lon="5.97749">
        <ele>233.3</ele>
        <time>2019-08-17T14:37:20Z</time>
      </trkpt>
      <trkpt lat="47.199" lon="5.97742">
        <ele>233.2</ele>
        <time>2019-08-17T14:37:21Z</time>
      </trkpt>
      <trkpt lat="47.19901" lon="5.97738">
        <ele>233.1</ele>
        <time>2019-08-17T14:37:22Z</time>
      </trkpt>
      <trkpt lat="47.19902" lon="5.97732">
        <ele>233.1</ele>
        <time>2019-08-17T14:37:23Z</time>
      </trkpt>
      <trkpt lat="47.19902" lon="5.97726">
        <ele>233</ele>
        <time>2019-08-17T14:37:24Z</time>
      </trkpt>
      <trkpt lat="47.19902" lon="5.9772">
        <ele>232.9</ele>
        <time>2019-08-17T14:37:25Z</time>
      </trkpt>
      <trkpt lat="47.19902" lon="5.97711">
        <ele>232.9</ele>
        <time>2019-08-17T14:37:26Z</time>
      </trkpt>
      <trkpt lat="47.19902" lon="5.97704">
        <ele>232.8</ele>
        <time>2019-08-17T14:37:27Z</time>
      </trkpt>
      <trkpt lat="47.19903" lon="5.97698">
        <ele>232.7</ele>
        <time>2019-08-17T14:37:28Z</time>
      </trkpt>
      <trkpt lat="47.19901" lon="5.97693">
        <ele>232.7</ele>
        <time>2019-08-17T14:37:29Z</time>
      </trkpt>
      <trkpt lat="47.19901" lon="5.97687">
        <ele>232.7</ele>
        <time>2019-08-17T14:37:30Z</time>
      </trkpt>
      <trkpt lat="47.19901" lon="5.9768">
        <ele>232.6</ele>
        <time>2019-08-17T14:37:31Z</time>
      </trkpt>
      <trkpt lat="47.19901" lon="5.97673">
        <ele>232.6</ele>
        <time>2019-08-17T14:37:32Z</time>
      </trkpt>
      <trkpt lat="47.19901" lon="5.97666">
        <ele>232.5</ele>
        <time>2019-08-17T14:37:33Z</time>
      </trkpt>
      <trkpt lat="47.19901" lon="5.97658">
        <ele>232.5</ele>
        <time>2019-08-17T14:37:34Z</time>
      </trkpt>
      <trkpt lat="47.19902" lon="5.97651">
        <ele>232.4</ele>
        <time>2019-08-17T14:37:35Z</time>
      </trkpt>
      <trkpt lat="47.19902" lon="5.97645">
        <ele>232.4</ele>
        <time>2019-08-17T14:37:36Z</time>
      </trkpt>
      <trkpt lat="47.19903" lon="5.97639">
        <ele>232.4</ele>
        <time>2019-08-17T14:37:37Z</time>
      </trkpt>
      <trkpt lat="47.19903" lon="5.97632">
        <ele>232.3</ele>
        <time>2019-08-17T14:37:38Z</time>
      </trkpt>
      <trkpt lat="47.19904" lon="5.97626">
        <ele>232.3</ele>
        <time>2019-08-17T14:37:39Z</time>
      </trkpt>
      <trkpt lat="47.19904" lon="5.97619">
        <ele>232.3</ele>
        <time>2019-08-17T14:37:40Z</time>
      </trkpt>
      <trkpt lat="47.19904" lon="5.97613">
        <ele>232.3</ele>
        <time>2019-08-17T14:37:41Z</time>
      </trkpt>
      <trkpt lat="47.19904" lon="5.97606">
        <ele>232.2</ele>
        <time>2019-08-17T14:37:42Z</time>
      </trkpt>
      <trkpt lat="47.19903" lon="5.97601">
        <ele>232.2</ele>
        <time>2019-08-17T14:37:43Z</time>
      </trkpt>
      <trkpt lat="47.19903" lon="5.97594">
        <ele>232.2</ele>
        <time>2019-08-17T14:37:44Z</time>
      </trkpt>
      <trkpt lat="47.19903" lon="5.97588">
        <ele>232.2</ele>
        <time>2019-08-17T14:37:45Z</time>
      </trkpt>
      <trkpt lat="47.19903" lon="5.97581">
        <ele>232.2</ele>
        <time>2019-08-17T14:37:46Z</time>
      </trkpt>
      <trkpt lat="47.19903" lon="5.97574">
        <ele>232.2</ele>
        <time>2019-08-17T14:37:47Z</time>
      </trkpt>
      <trkpt lat="47.19904" lon="5.97569">
        <ele>232.2</ele>
        <time>2019-08-17T14:37:48Z</time>
      </trkpt>
      <trkpt lat="47.19905" lon="5.97562">
        <ele>232.2</ele>
        <time>2019-08-17T14:37:49Z</time>
      </trkpt>
      <trkpt lat="47.19906" lon="5.97555">
        <ele>232.3</ele>
        <time>2019-08-17T14:37:50Z</time>
      </trkpt>
      <trkpt lat="47.19906" lon="5.97548">
        <ele>232.3</ele>
        <time>2019-08-17T14:37:51Z</time>
      </trkpt>
      <trkpt lat="47.19907" lon="5.97542">
        <ele>232.3</ele>
        <time>2019-08-17T14:37:52Z</time>
      </trkpt>
      <trkpt lat="47.19908" lon="5.97535">
        <ele>232.4</ele>
        <time>2019-08-17T14:37:53Z</time>
      </trkpt>
      <trkpt lat="47.19909" lon="5.97529">
        <ele>232.4</ele>
        <time>2019-08-17T14:37:54Z</time>
      </trkpt>
      <trkpt lat="47.1991" lon="5.97523">
        <ele>232.4</ele>
        <time>2019-08-17T14:37:55Z</time>
      </trkpt>
      <trkpt lat="47.1991" lon="5.97516">
        <ele>232.5</ele>
        <time>2019-08-17T14:37:56Z</time>
      </trkpt>
      <trkpt lat="47.19911" lon="5.9751">
        <ele>232.5</ele>
        <time>2019-08-17T14:37:57Z</time>
      </trkpt>
      <trkpt lat="47.19911" lon="5.97503">
        <ele>232.5</ele>
        <time>2019-08-17T14:37:58Z</time>
      </trkpt>
      <trkpt lat="47.19912" lon="5.97497">
        <ele>232.6</ele>
        <time>2019-08-17T14:37:59Z</time>
      </trkpt>
      <trkpt lat="47.19912" lon="5.9749">
        <ele>232.6</ele>
        <time>2019-08-17T14:38:00Z</time>
      </trkpt>
      <trkpt lat="47.19912" lon="5.97483">
        <ele>232.6</ele>
        <time>2019-08-17T14:38:01Z</time>
      </trkpt>
      <trkpt lat="47.19912" lon="5.97475">
        <ele>232.6</ele>
        <time>2019-08-17T14:38:02Z</time>
      </trkpt>
      <trkpt lat="47.19913" lon="5.97468">
        <ele>232.5</ele>
        <time>2019-08-17T14:38:03Z</time>
      </trkpt>
      <trkpt lat="47.19913" lon="5.97461">
        <ele>232.5</ele>
        <time>2019-08-17T14:38:04Z</time>
      </trkpt>
      <trkpt lat="47.19913" lon="5.97455">
        <ele>232.4</ele>
        <time>2019-08-17T14:38:05Z</time>
      </trkpt>
      <trkpt lat="47.19914" lon="5.97448">
        <ele>232.4</ele>
        <time>2019-08-17T14:38:06Z</time>
      </trkpt>
      <trkpt lat="47.19914" lon="5.97442">
        <ele>232.3</ele>
        <time>2019-08-17T14:38:07Z</time>
      </trkpt>
      <trkpt lat="47.19913" lon="5.97435">
        <ele>232.2</ele>
        <time>2019-08-17T14:38:08Z</time>
      </trkpt>
      <trkpt lat="47.19913" lon="5.97428">
        <ele>232.1</ele>
        <time>2019-08-17T14:38:09Z</time>
      </trkpt>
      <trkpt lat="47.19913" lon="5.97421">
        <ele>232</ele>
        <time>2019-08-17T14:38:10Z</time>
      </trkpt>
      <trkpt lat="47.19914" lon="5.97413">
        <ele>231.9</ele>
        <time>2019-08-17T14:38:11Z</time>
      </trkpt>
      <trkpt lat="47.19915" lon="5.97406">
        <ele>231.8</ele>
        <time>2019-08-17T14:38:12Z</time>
      </trkpt>
      <trkpt lat="47.19915" lon="5.974">
        <ele>231.7</ele>
        <time>2019-08-17T14:38:13Z</time>
      </trkpt>
      <trkpt lat="47.19915" lon="5.97393">
        <ele>231.6</ele>
        <time>2019-08-17T14:38:14Z</time>
      </trkpt>
      <trkpt lat="47.19916" lon="5.97386">
        <ele>231.4</ele>
        <time>2019-08-17T14:38:15Z</time>
      </trkpt>
      <trkpt lat="47.19916" lon="5.97379">
        <ele>231.3</ele>
        <time>2019-08-17T14:38:16Z</time>
      </trkpt>
      <trkpt lat="47.19915" lon="5.97373">
        <ele>231.2</ele>
        <time>2019-08-17T14:38:17Z</time>
      </trkpt>
      <trkpt lat="47.19916" lon="5.97365">
        <ele>231</ele>
        <time>2019-08-17T14:38:18Z</time>
      </trkpt>
      <trkpt lat="47.19916" lon="5.97359">
        <ele>230.9</ele>
        <time>2019-08-17T14:38:19Z</time>
      </trkpt>
      <trkpt lat="47.19916" lon="5.97353">
        <ele>230.9</ele>
        <time>2019-08-17T14:38:20Z</time>
      </trkpt>
      <trkpt lat="47.19917" lon="5.97347">
        <ele>230.9</ele>
        <time>2019-08-17T14:38:21Z</time>
      </trkpt>
      <trkpt lat="47.19917" lon="5.97342">
        <ele>230.9</ele>
        <time>2019-08-17T14:38:22Z</time>
      </trkpt>
      <trkpt lat="47.19917" lon="5.97335">
        <ele>230.9</ele>
        <time>2019-08-17T14:38:23Z</time>
      </trkpt>
      <trkpt lat="47.19917" lon="5.9733">
        <ele>231</ele>
        <time>2019-08-17T14:38:24Z</time>
      </trkpt>
      <trkpt lat="47.19918" lon="5.97324">
        <ele>231</ele>
        <time>2019-08-17T14:38:25Z</time>
      </trkpt>
      <trkpt lat="47.19918" lon="5.9732">
        <ele>231.1</ele>
        <time>2019-08-17T14:38:26Z</time>
      </trkpt>
      <trkpt lat="47.19918" lon="5.97314">
        <ele>231.1</ele>
        <time>2019-08-17T14:38:27Z</time>
      </trkpt>
      <trkpt lat="47.19918" lon="5.97308">
        <ele>231.2</ele>
        <time>2019-08-17T14:38:28Z</time>
      </trkpt>
      <trkpt lat="47.19919" lon="5.97303">
        <ele>231.3</ele>
        <time>2019-08-17T14:38:29Z</time>
      </trkpt>
      <trkpt lat="47.19919" lon="5.97297">
        <ele>231.4</ele>
        <time>2019-08-17T14:38:30Z</time>
      </trkpt>
      <trkpt lat="47.19919" lon="5.97291">
        <ele>231.4</ele>
        <time>2019-08-17T14:38:31Z</time>
      </trkpt>
      <trkpt lat="47.19919" lon="5.97284">
        <ele>231.5</ele>
        <time>2019-08-17T14:38:32Z</time>
      </trkpt>
      <trkpt lat="47.19919" lon="5.97278">
        <ele>231.6</ele>
        <time>2019-08-17T14:38:33Z</time>
      </trkpt>
      <trkpt lat="47.1992" lon="5.97272">
        <ele>231.6</ele>
        <time>2019-08-17T14:38:34Z</time>
      </trkpt>
      <trkpt lat="47.19919" lon="5.97265">
        <ele>231.7</ele>
        <time>2019-08-17T14:38:35Z</time>
      </trkpt>
      <trkpt lat="47.19919" lon="5.97259">
        <ele>231.7</ele>
        <time>2019-08-17T14:38:36Z</time>
      </trkpt>
      <trkpt lat="47.1992" lon="5.97252">
        <ele>231.7</ele>
        <time>2019-08-17T14:38:37Z</time>
      </trkpt>
      <trkpt lat="47.1992" lon="5.97244">
        <ele>231.7</ele>
        <time>2019-08-17T14:38:38Z</time>
      </trkpt>
      <trkpt lat="47.1992" lon="5.97239">
        <ele>231.7</ele>
        <time>2019-08-17T14:38:39Z</time>
      </trkpt>
      <trkpt lat="47.1992" lon="5.97232">
        <ele>231.7</ele>
        <time>2019-08-17T14:38:40Z</time>
      </trkpt>
      <trkpt lat="47.1992" lon="5.97225">
        <ele>231.7</ele>
        <time>2019-08-17T14:38:41Z</time>
      </trkpt>
      <trkpt lat="47.19921" lon="5.97218">
        <ele>231.7</ele>
        <time>2019-08-17T14:38:42Z</time>
      </trkpt>
      <trkpt lat="47.19921" lon="5.97212">
        <ele>231.7</ele>
        <time>2019-08-17T14:38:43Z</time>
      </trkpt>
      <trkpt lat="47.19922" lon="5.97206">
        <ele>231.7</ele>
        <time>2019-08-17T14:38:44Z</time>
      </trkpt>
      <trkpt lat="47.19922" lon="5.97199">
        <ele>231.6</ele>
        <time>2019-08-17T14:38:45Z</time>
      </trkpt>
      <trkpt lat="47.19923" lon="5.97193">
        <ele>231.6</ele>
        <time>2019-08-17T14:38:46Z</time>
      </trkpt>
      <trkpt lat="47.19924" lon="5.97186">
        <ele>231.5</ele>
        <time>2019-08-17T14:38:47Z</time>
      </trkpt>
      <trkpt lat="47.19925" lon="5.9718">
        <ele>231.4</ele>
        <time>2019-08-17T14:38:48Z</time>
      </trkpt>
      <trkpt lat="47.19925" lon="5.97174">
        <ele>231.4</ele>
        <time>2019-08-17T14:38:49Z</time>
      </trkpt>
      <trkpt lat="47.19926" lon="5.97168">
        <ele>231.3</ele>
        <time>2019-08-17T14:38:50Z</time>
      </trkpt>
      <trkpt lat="47.19926" lon="5.97161">
        <ele>231.3</ele>
        <time>2019-08-17T14:38:51Z</time>
      </trkpt>
      <trkpt lat="47.19926" lon="5.97154">
        <ele>231.2</ele>
        <time>2019-08-17T14:38:52Z</time>
      </trkpt>
      <trkpt lat="47.19927" lon="5.97149">
        <ele>231.2</ele>
        <time>2019-08-17T14:38:53Z</time>
      </trkpt>
      <trkpt lat="47.19927" lon="5.97142">
        <ele>231.2</ele>
        <time>2019-08-17T14:38:54Z</time>
      </trkpt>
      <trkpt lat="47.19927" lon="5.97135">
        <ele>231.1</ele>
        <time>2019-08-17T14:38:55Z</time>
      </trkpt>
      <trkpt lat="47.19927" lon="5.97129">
        <ele>231.1</ele>
        <time>2019-08-17T14:38:56Z</time>
      </trkpt>
      <trkpt lat="47.19926" lon="5.97122">
        <ele>231</ele>
        <time>2019-08-17T14:38:57Z</time>
      </trkpt>
      <trkpt lat="47.19926" lon="5.97115">
        <ele>230.9</ele>
        <time>2019-08-17T14:38:58Z</time>
      </trkpt>
      <trkpt lat="47.19926" lon="5.9711">
        <ele>230.9</ele>
        <time>2019-08-17T14:38:59Z</time>
      </trkpt>
      <trkpt lat="47.19926" lon="5.97104">
        <ele>230.9</ele>
        <time>2019-08-17T14:39:00Z</time>
      </trkpt>
      <trkpt lat="47.19927" lon="5.97098">
        <ele>230.8</ele>
        <time>2019-08-17T14:39:01Z</time>
      </trkpt>
      <trkpt lat="47.19927" lon="5.97092">
        <ele>230.8</ele>
        <time>2019-08-17T14:39:02Z</time>
      </trkpt>
      <trkpt lat="47.19927" lon="5.97086">
        <ele>230.8</ele>
        <time>2019-08-17T14:39:03Z</time>
      </trkpt>
      <trkpt lat="47.19927" lon="5.97081">
        <ele>230.8</ele>
        <time>2019-08-17T14:39:04Z</time>
      </trkpt>
      <trkpt lat="47.19927" lon="5.97075">
        <ele>230.8</ele>
        <time>2019-08-17T14:39:05Z</time>
      </trkpt>
      <trkpt lat="47.19927" lon="5.97069">
        <ele>230.8</ele>
        <time>2019-08-17T14:39:06Z</time>
      </trkpt>
      <trkpt lat="47.19927" lon="5.97063">
        <ele>230.8</ele>
        <time>2019-08-17T14:39:07Z</time>
      </trkpt>
      <trkpt lat="47.19927" lon="5.97057">
        <ele>230.9</ele>
        <time>2019-08-17T14:39:08Z</time>
      </trkpt>
      <trkpt lat="47.19927" lon="5.9705">
        <ele>231</ele>
        <time>2019-08-17T14:39:09Z</time>
      </trkpt>
      <trkpt lat="47.19927" lon="5.97044">
        <ele>231.1</ele>
        <time>2019-08-17T14:39:10Z</time>
      </trkpt>
      <trkpt lat="47.19927" lon="5.97037">
        <ele>231.2</ele>
        <time>2019-08-17T14:39:11Z</time>
      </trkpt>
      <trkpt lat="47.19928" lon="5.97031">
        <ele>231.2</ele>
        <time>2019-08-17T14:39:12Z</time>
      </trkpt>
      <trkpt lat="47.19928" lon="5.97025">
        <ele>231.3</ele>
        <time>2019-08-17T14:39:13Z</time>
      </trkpt>
      <trkpt lat="47.19928" lon="5.97018">
        <ele>231.3</ele>
        <time>2019-08-17T14:39:14Z</time>
      </trkpt>
      <trkpt lat="47.19928" lon="5.97011">
        <ele>231.4</ele>
        <time>2019-08-17T14:39:15Z</time>
      </trkpt>
      <trkpt lat="47.19929" lon="5.97005">
        <ele>231.4</ele>
        <time>2019-08-17T14:39:16Z</time>
      </trkpt>
      <trkpt lat="47.19929" lon="5.96998">
        <ele>231.4</ele>
        <time>2019-08-17T14:39:17Z</time>
      </trkpt>
      <trkpt lat="47.19929" lon="5.96992">
        <ele>231.4</ele>
        <time>2019-08-17T14:39:18Z</time>
      </trkpt>
      <trkpt lat="47.19929" lon="5.96986">
        <ele>231.4</ele>
        <time>2019-08-17T14:39:19Z</time>
      </trkpt>
      <trkpt lat="47.19929" lon="5.96978">
        <ele>231.3</ele>
        <time>2019-08-17T14:39:20Z</time>
      </trkpt>
      <trkpt lat="47.1993" lon="5.96971">
        <ele>231.3</ele>
        <time>2019-08-17T14:39:21Z</time>
      </trkpt>
      <trkpt lat="47.1993" lon="5.96964">
        <ele>231.3</ele>
        <time>2019-08-17T14:39:22Z</time>
      </trkpt>
      <trkpt lat="47.19931" lon="5.96957">
        <ele>231.2</ele>
        <time>2019-08-17T14:39:23Z</time>
      </trkpt>
      <trkpt lat="47.19931" lon="5.9695">
        <ele>231.2</ele>
        <time>2019-08-17T14:39:24Z</time>
      </trkpt>
      <trkpt lat="47.19931" lon="5.96943">
        <ele>231.1</ele>
        <time>2019-08-17T14:39:25Z</time>
      </trkpt>
      <trkpt lat="47.1993" lon="5.96937">
        <ele>231.1</ele>
        <time>2019-08-17T14:39:26Z</time>
      </trkpt>
      <trkpt lat="47.1993" lon="5.9693">
        <ele>231.1</ele>
        <time>2019-08-17T14:39:27Z</time>
      </trkpt>
      <trkpt lat="47.1993" lon="5.96923">
        <ele>231.1</ele>
        <time>2019-08-17T14:39:28Z</time>
      </trkpt>
      <trkpt lat="47.1993" lon="5.96916">
        <ele>231</ele>
        <time>2019-08-17T14:39:29Z</time>
      </trkpt>
      <trkpt lat="47.19931" lon="5.96908">
        <ele>231</ele>
        <time>2019-08-17T14:39:30Z</time>
      </trkpt>
      <trkpt lat="47.19931" lon="5.96902">
        <ele>231</ele>
        <time>2019-08-17T14:39:31Z</time>
      </trkpt>
      <trkpt lat="47.19931" lon="5.96895">
        <ele>230.9</ele>
        <time>2019-08-17T14:39:32Z</time>
      </trkpt>
      <trkpt lat="47.1993" lon="5.96888">
        <ele>230.9</ele>
        <time>2019-08-17T14:39:33Z</time>
      </trkpt>
      <trkpt lat="47.19929" lon="5.96881">
        <ele>230.9</ele>
        <time>2019-08-17T14:39:34Z</time>
      </trkpt>
      <trkpt lat="47.19929" lon="5.96874">
        <ele>230.9</ele>
        <time>2019-08-17T14:39:35Z</time>
      </trkpt>
      <trkpt lat="47.19928" lon="5.96868">
        <ele>230.8</ele>
        <time>2019-08-17T14:39:36Z</time>
      </trkpt>
      <trkpt lat="47.19927" lon="5.96863">
        <ele>230.8</ele>
        <time>2019-08-17T14:39:37Z</time>
      </trkpt>
      <trkpt lat="47.19926" lon="5.96857">
        <ele>230.8</ele>
        <time>2019-08-17T14:39:38Z</time>
      </trkpt>
      <trkpt lat="47.19926" lon="5.96851">
        <ele>230.7</ele>
        <time>2019-08-17T14:39:39Z</time>
      </trkpt>
      <trkpt lat="47.19925" lon="5.96844">
        <ele>230.7</ele>
        <time>2019-08-17T14:39:40Z</time>
      </trkpt>
      <trkpt lat="47.19924" lon="5.96838">
        <ele>230.7</ele>
        <time>2019-08-17T14:39:41Z</time>
      </trkpt>
      <trkpt lat="47.19923" lon="5.96832">
        <ele>230.7</ele>
        <time>2019-08-17T14:39:42Z</time>
      </trkpt>
      <trkpt lat="47.19921" lon="5.96826">
        <ele>230.6</ele>
        <time>2019-08-17T14:39:43Z</time>
      </trkpt>
      <trkpt lat="47.19919" lon="5.9682">
        <ele>230.6</ele>
        <time>2019-08-17T14:39:44Z</time>
      </trkpt>
      <trkpt lat="47.19917" lon="5.96814">
        <ele>230.7</ele>
        <time>2019-08-17T14:39:45Z</time>
      </trkpt>
      <trkpt lat="47.19916" lon="5.96809">
        <ele>230.7</ele>
        <time>2019-08-17T14:39:46Z</time>
      </trkpt>
      <trkpt lat="47.19914" lon="5.96803">
        <ele>230.7</ele>
        <time>2019-08-17T14:39:47Z</time>
      </trkpt>
      <trkpt lat="47.19912" lon="5.96798">
        <ele>230.8</ele>
        <time>2019-08-17T14:39:48Z</time>
      </trkpt>
      <trkpt lat="47.19911" lon="5.96792">
        <ele>230.8</ele>
        <time>2019-08-17T14:39:49Z</time>
      </trkpt>
      <trkpt lat="47.19909" lon="5.96786">
        <ele>230.9</ele>
        <time>2019-08-17T14:39:50Z</time>
      </trkpt>
      <trkpt lat="47.19908" lon="5.9678">
        <ele>230.9</ele>
        <time>2019-08-17T14:39:51Z</time>
      </trkpt>
      <trkpt lat="47.19906" lon="5.96774">
        <ele>230.9</ele>
        <time>2019-08-17T14:39:52Z</time>
      </trkpt>
      <trkpt lat="47.19905" lon="5.96767">
        <ele>231</ele>
        <time>2019-08-17T14:39:53Z</time>
      </trkpt>
      <trkpt lat="47.19904" lon="5.96761">
        <ele>231</ele>
        <time>2019-08-17T14:39:54Z</time>
      </trkpt>
      <trkpt lat="47.19904" lon="5.96755">
        <ele>231</ele>
        <time>2019-08-17T14:39:55Z</time>
      </trkpt>
      <trkpt lat="47.19903" lon="5.96749">
        <ele>231</ele>
        <time>2019-08-17T14:39:56Z</time>
      </trkpt>
      <trkpt lat="47.19904" lon="5.96743">
        <ele>231</ele>
        <time>2019-08-17T14:39:57Z</time>
      </trkpt>
      <trkpt lat="47.19903" lon="5.96736">
        <ele>231.1</ele>
        <time>2019-08-17T14:39:58Z</time>
      </trkpt>
      <trkpt lat="47.19903" lon="5.9673">
        <ele>231.1</ele>
        <time>2019-08-17T14:39:59Z</time>
      </trkpt>
      <trkpt lat="47.19902" lon="5.96724">
        <ele>231.1</ele>
        <time>2019-08-17T14:40:00Z</time>
      </trkpt>
      <trkpt lat="47.19902" lon="5.96718">
        <ele>231</ele>
        <time>2019-08-17T14:40:01Z</time>
      </trkpt>
      <trkpt lat="47.19902" lon="5.96712">
        <ele>231</ele>
        <time>2019-08-17T14:40:02Z</time>
      </trkpt>
      <trkpt lat="47.19903" lon="5.96705">
        <ele>231</ele>
        <time>2019-08-17T14:40:03Z</time>
      </trkpt>
      <trkpt lat="47.19903" lon="5.96697">
        <ele>231</ele>
        <time>2019-08-17T14:40:04Z</time>
      </trkpt>
      <trkpt lat="47.19903" lon="5.96689">
        <ele>231</ele>
        <time>2019-08-17T14:40:05Z</time>
      </trkpt>
      <trkpt lat="47.19903" lon="5.96683">
        <ele>231</ele>
        <time>2019-08-17T14:40:06Z</time>
      </trkpt>
      <trkpt lat="47.19902" lon="5.96677">
        <ele>231</ele>
        <time>2019-08-17T14:40:07Z</time>
      </trkpt>
      <trkpt lat="47.19902" lon="5.9667">
        <ele>231</ele>
        <time>2019-08-17T14:40:08Z</time>
      </trkpt>
      <trkpt lat="47.19902" lon="5.96663">
        <ele>231</ele>
        <time>2019-08-17T14:40:09Z</time>
      </trkpt>
      <trkpt lat="47.19903" lon="5.96655">
        <ele>231</ele>
        <time>2019-08-17T14:40:10Z</time>
      </trkpt>
      <trkpt lat="47.19904" lon="5.96648">
        <ele>231</ele>
        <time>2019-08-17T14:40:11Z</time>
      </trkpt>
      <trkpt lat="47.19904" lon="5.96643">
        <ele>231</ele>
        <time>2019-08-17T14:40:12Z</time>
      </trkpt>
      <trkpt lat="47.19904" lon="5.96637">
        <ele>231</ele>
        <time>2019-08-17T14:40:13Z</time>
      </trkpt>
      <trkpt lat="47.19904" lon="5.96632">
        <ele>231.1</ele>
        <time>2019-08-17T14:40:14Z</time>
      </trkpt>
      <trkpt lat="47.19904" lon="5.96627">
        <ele>231.1</ele>
        <time>2019-08-17T14:40:15Z</time>
      </trkpt>
      <trkpt lat="47.19905" lon="5.96623">
        <ele>231.2</ele>
        <time>2019-08-17T14:40:16Z</time>
      </trkpt>
      <trkpt lat="47.19906" lon="5.96618">
        <ele>231.2</ele>
        <time>2019-08-17T14:40:17Z</time>
      </trkpt>
      <trkpt lat="47.19908" lon="5.96613">
        <ele>231.3</ele>
        <time>2019-08-17T14:40:18Z</time>
      </trkpt>
      <trkpt lat="47.19908" lon="5.96609">
        <ele>231.3</ele>
        <time>2019-08-17T14:40:19Z</time>
      </trkpt>
      <trkpt lat="47.1991" lon="5.96602">
        <ele>231.4</ele>
        <time>2019-08-17T14:40:21Z</time>
      </trkpt>
      <trkpt lat="47.1991" lon="5.96596">
        <ele>231.4</ele>
        <time>2019-08-17T14:40:23Z</time>
      </trkpt>
      <trkpt lat="47.1991" lon="5.9659">
        <ele>231.5</ele>
        <time>2019-08-17T14:40:24Z</time>
      </trkpt>
      <trkpt lat="47.1991" lon="5.96585">
        <ele>231.6</ele>
        <time>2019-08-17T14:40:25Z</time>
      </trkpt>
      <trkpt lat="47.1991" lon="5.9658">
        <ele>231.6</ele>
        <time>2019-08-17T14:40:26Z</time>
      </trkpt>
      <trkpt lat="47.1991" lon="5.96576">
        <ele>231.6</ele>
        <time>2019-08-17T14:40:27Z</time>
      </trkpt>
      <trkpt lat="47.19909" lon="5.96571">
        <ele>231.7</ele>
        <time>2019-08-17T14:40:28Z</time>
      </trkpt>
      <trkpt lat="47.19909" lon="5.96565">
        <ele>231.7</ele>
        <time>2019-08-17T14:40:29Z</time>
      </trkpt>
      <trkpt lat="47.1991" lon="5.96559">
        <ele>231.8</ele>
        <time>2019-08-17T14:40:30Z</time>
      </trkpt>
      <trkpt lat="47.19909" lon="5.96555">
        <ele>231.8</ele>
        <time>2019-08-17T14:40:31Z</time>
      </trkpt>
      <trkpt lat="47.19909" lon="5.96548">
        <ele>231.9</ele>
        <time>2019-08-17T14:40:32Z</time>
      </trkpt>
      <trkpt lat="47.1991" lon="5.96541">
        <ele>232</ele>
        <time>2019-08-17T14:40:33Z</time>
      </trkpt>
      <trkpt lat="47.1991" lon="5.96535">
        <ele>232</ele>
        <time>2019-08-17T14:40:34Z</time>
      </trkpt>
      <trkpt lat="47.1991" lon="5.96528">
        <ele>232.1</ele>
        <time>2019-08-17T14:40:35Z</time>
      </trkpt>
      <trkpt lat="47.1991" lon="5.96522">
        <ele>232.1</ele>
        <time>2019-08-17T14:40:36Z</time>
      </trkpt>
      <trkpt lat="47.19911" lon="5.96516">
        <ele>232.2</ele>
        <time>2019-08-17T14:40:37Z</time>
      </trkpt>
      <trkpt lat="47.19912" lon="5.96511">
        <ele>232.3</ele>
        <time>2019-08-17T14:40:38Z</time>
      </trkpt>
      <trkpt lat="47.19912" lon="5.96505">
        <ele>232.3</ele>
        <time>2019-08-17T14:40:39Z</time>
      </trkpt>
      <trkpt lat="47.19913" lon="5.96498">
        <ele>232.4</ele>
        <time>2019-08-17T14:40:40Z</time>
      </trkpt>
      <trkpt lat="47.19913" lon="5.96491">
        <ele>232.5</ele>
        <time>2019-08-17T14:40:41Z</time>
      </trkpt>
      <trkpt lat="47.19914" lon="5.96486">
        <ele>232.5</ele>
        <time>2019-08-17T14:40:42Z</time>
      </trkpt>
      <trkpt lat="47.19914" lon="5.9648">
        <ele>232.6</ele>
        <time>2019-08-17T14:40:43Z</time>
      </trkpt>
      <trkpt lat="47.19914" lon="5.96473">
        <ele>232.6</ele>
        <time>2019-08-17T14:40:44Z</time>
      </trkpt>
      <trkpt lat="47.19914" lon="5.96467">
        <ele>232.7</ele>
        <time>2019-08-17T14:40:45Z</time>
      </trkpt>
      <trkpt lat="47.19914" lon="5.96462">
        <ele>232.7</ele>
        <time>2019-08-17T14:40:46Z</time>
      </trkpt>
      <trkpt lat="47.19913" lon="5.96456">
        <ele>232.8</ele>
        <time>2019-08-17T14:40:47Z</time>
      </trkpt>
      <trkpt lat="47.19913" lon="5.9645">
        <ele>232.8</ele>
        <time>2019-08-17T14:40:48Z</time>
      </trkpt>
      <trkpt lat="47.19912" lon="5.96443">
        <ele>232.8</ele>
        <time>2019-08-17T14:40:49Z</time>
      </trkpt>
      <trkpt lat="47.19911" lon="5.96437">
        <ele>232.9</ele>
        <time>2019-08-17T14:40:50Z</time>
      </trkpt>
      <trkpt lat="47.19911" lon="5.9643">
        <ele>232.9</ele>
        <time>2019-08-17T14:40:51Z</time>
      </trkpt>
      <trkpt lat="47.1991" lon="5.96424">
        <ele>232.9</ele>
        <time>2019-08-17T14:40:52Z</time>
      </trkpt>
      <trkpt lat="47.19909" lon="5.96417">
        <ele>233</ele>
        <time>2019-08-17T14:40:53Z</time>
      </trkpt>
      <trkpt lat="47.19908" lon="5.96412">
        <ele>233</ele>
        <time>2019-08-17T14:40:54Z</time>
      </trkpt>
      <trkpt lat="47.19908" lon="5.96405">
        <ele>233</ele>
        <time>2019-08-17T14:40:55Z</time>
      </trkpt>
      <trkpt lat="47.19907" lon="5.96399">
        <ele>233.1</ele>
        <time>2019-08-17T14:40:56Z</time>
      </trkpt>
      <trkpt lat="47.19906" lon="5.96393">
        <ele>233.1</ele>
        <time>2019-08-17T14:40:57Z</time>
      </trkpt>
      <trkpt lat="47.19906" lon="5.96388">
        <ele>233.1</ele>
        <time>2019-08-17T14:40:58Z</time>
      </trkpt>
      <trkpt lat="47.19906" lon="5.96383">
        <ele>233.1</ele>
        <time>2019-08-17T14:40:59Z</time>
      </trkpt>
      <trkpt lat="47.19906" lon="5.96376">
        <ele>233.2</ele>
        <time>2019-08-17T14:41:00Z</time>
      </trkpt>
      <trkpt lat="47.19905" lon="5.96369">
        <ele>233.2</ele>
        <time>2019-08-17T14:41:01Z</time>
      </trkpt>
      <trkpt lat="47.19904" lon="5.96362">
        <ele>233.2</ele>
        <time>2019-08-17T14:41:02Z</time>
      </trkpt>
      <trkpt lat="47.19904" lon="5.96355">
        <ele>233.2</ele>
        <time>2019-08-17T14:41:03Z</time>
      </trkpt>
      <trkpt lat="47.19904" lon="5.96347">
        <ele>233.3</ele>
        <time>2019-08-17T14:41:04Z</time>
      </trkpt>
      <trkpt lat="47.19904" lon="5.96342">
        <ele>233.3</ele>
        <time>2019-08-17T14:41:05Z</time>
      </trkpt>
      <trkpt lat="47.19904" lon="5.96337">
        <ele>233.3</ele>
        <time>2019-08-17T14:41:06Z</time>
      </trkpt>
      <trkpt lat="47.19904" lon="5.96329">
        <ele>233.3</ele>
        <time>2019-08-17T14:41:07Z</time>
      </trkpt>
      <trkpt lat="47.19904" lon="5.96323">
        <ele>233.3</ele>
        <time>2019-08-17T14:41:08Z</time>
      </trkpt>
      <trkpt lat="47.19905" lon="5.96316">
        <ele>233.4</ele>
        <time>2019-08-17T14:41:09Z</time>
      </trkpt>
      <trkpt lat="47.19905" lon="5.96311">
        <ele>233.4</ele>
        <time>2019-08-17T14:41:10Z</time>
      </trkpt>
      <trkpt lat="47.19904" lon="5.96306">
        <ele>233.4</ele>
        <time>2019-08-17T14:41:11Z</time>
      </trkpt>
      <trkpt lat="47.19904" lon="5.963">
        <ele>233.4</ele>
        <time>2019-08-17T14:41:12Z</time>
      </trkpt>
      <trkpt lat="47.19904" lon="5.96294">
        <ele>233.4</ele>
        <time>2019-08-17T14:41:13Z</time>
      </trkpt>
      <trkpt lat="47.19905" lon="5.96289">
        <ele>233.5</ele>
        <time>2019-08-17T14:41:14Z</time>
      </trkpt>
      <trkpt lat="47.19906" lon="5.96283">
        <ele>233.5</ele>
        <time>2019-08-17T14:41:15Z</time>
      </trkpt>
      <trkpt lat="47.19906" lon="5.96276">
        <ele>233.5</ele>
        <time>2019-08-17T14:41:16Z</time>
      </trkpt>
      <trkpt lat="47.19906" lon="5.9627">
        <ele>233.5</ele>
        <time>2019-08-17T14:41:17Z</time>
      </trkpt>
      <trkpt lat="47.19906" lon="5.96265">
        <ele>233.5</ele>
        <time>2019-08-17T14:41:18Z</time>
      </trkpt>
      <trkpt lat="47.19907" lon="5.96259">
        <ele>233.6</ele>
        <time>2019-08-17T14:41:19Z</time>
      </trkpt>
      <trkpt lat="47.19908" lon="5.96253">
        <ele>233.6</ele>
        <time>2019-08-17T14:41:20Z</time>
      </trkpt>
      <trkpt lat="47.19909" lon="5.96248">
        <ele>233.6</ele>
        <time>2019-08-17T14:41:21Z</time>
      </trkpt>
      <trkpt lat="47.19909" lon="5.96243">
        <ele>233.6</ele>
        <time>2019-08-17T14:41:22Z</time>
      </trkpt>
      <trkpt lat="47.1991" lon="5.96237">
        <ele>233.7</ele>
        <time>2019-08-17T14:41:24Z</time>
      </trkpt>
      <trkpt lat="47.19911" lon="5.9623">
        <ele>233.7</ele>
        <time>2019-08-17T14:41:28Z</time>
      </trkpt>
      <trkpt lat="47.19912" lon="5.96225">
        <ele>233.5</ele>
        <time>2019-08-17T14:41:30Z</time>
      </trkpt>
      <trkpt lat="47.19912" lon="5.96221">
        <ele>233.3</ele>
        <time>2019-08-17T14:41:31Z</time>
      </trkpt>
      <trkpt lat="47.19912" lon="5.96215">
        <ele>233.1</ele>
        <time>2019-08-17T14:41:32Z</time>
      </trkpt>
      <trkpt lat="47.19913" lon="5.96208">
        <ele>232.9</ele>
        <time>2019-08-17T14:41:33Z</time>
      </trkpt>
      <trkpt lat="47.19913" lon="5.962">
        <ele>232.8</ele>
        <time>2019-08-17T14:41:34Z</time>
      </trkpt>
      <trkpt lat="47.19913" lon="5.96191">
        <ele>232.6</ele>
        <time>2019-08-17T14:41:35Z</time>
      </trkpt>
      <trkpt lat="47.19913" lon="5.96182">
        <ele>232.5</ele>
        <time>2019-08-17T14:41:36Z</time>
      </trkpt>
      <trkpt lat="47.19912" lon="5.96173">
        <ele>232.4</ele>
        <time>2019-08-17T14:41:37Z</time>
      </trkpt>
      <trkpt lat="47.19912" lon="5.96165">
        <ele>232.4</ele>
        <time>2019-08-17T14:41:38Z</time>
      </trkpt>
      <trkpt lat="47.19911" lon="5.96157">
        <ele>232.3</ele>
        <time>2019-08-17T14:41:39Z</time>
      </trkpt>
      <trkpt lat="47.19909" lon="5.9615">
        <ele>232.3</ele>
        <time>2019-08-17T14:41:40Z</time>
      </trkpt>
      <trkpt lat="47.19908" lon="5.96143">
        <ele>232.2</ele>
        <time>2019-08-17T14:41:41Z</time>
      </trkpt>
      <trkpt lat="47.19906" lon="5.96136">
        <ele>232.2</ele>
        <time>2019-08-17T14:41:42Z</time>
      </trkpt>
      <trkpt lat="47.19904" lon="5.96128">
        <ele>232.2</ele>
        <time>2019-08-17T14:41:43Z</time>
      </trkpt>
      <trkpt lat="47.19903" lon="5.96122">
        <ele>232.2</ele>
        <time>2019-08-17T14:41:44Z</time>
      </trkpt>
      <trkpt lat="47.19902" lon="5.96115">
        <ele>232.1</ele>
        <time>2019-08-17T14:41:45Z</time>
      </trkpt>
      <trkpt lat="47.199" lon="5.96109">
        <ele>232.1</ele>
        <time>2019-08-17T14:41:46Z</time>
      </trkpt>
      <trkpt lat="47.19899" lon="5.96103">
        <ele>232.1</ele>
        <time>2019-08-17T14:41:47Z</time>
      </trkpt>
      <trkpt lat="47.19896" lon="5.96098">
        <ele>232.1</ele>
        <time>2019-08-17T14:41:48Z</time>
      </trkpt>
      <trkpt lat="47.19894" lon="5.96092">
        <ele>232.1</ele>
        <time>2019-08-17T14:41:49Z</time>
      </trkpt>
      <trkpt lat="47.19891" lon="5.96087">
        <ele>232.1</ele>
        <time>2019-08-17T14:41:50Z</time>
      </trkpt>
      <trkpt lat="47.19889" lon="5.96082">
        <ele>232.1</ele>
        <time>2019-08-17T14:41:51Z</time>
      </trkpt>
      <trkpt lat="47.19886" lon="5.96076">
        <ele>232</ele>
        <time>2019-08-17T14:41:52Z</time>
      </trkpt>
      <trkpt lat="47.19884" lon="5.96071">
        <ele>232</ele>
        <time>2019-08-17T14:41:53Z</time>
      </trkpt>
      <trkpt lat="47.19881" lon="5.96065">
        <ele>231.9</ele>
        <time>2019-08-17T14:41:54Z</time>
      </trkpt>
      <trkpt lat="47.19879" lon="5.9606">
        <ele>231.9</ele>
        <time>2019-08-17T14:41:55Z</time>
      </trkpt>
      <trkpt lat="47.19876" lon="5.96055">
        <ele>231.9</ele>
        <time>2019-08-17T14:41:56Z</time>
      </trkpt>
      <trkpt lat="47.19873" lon="5.9605">
        <ele>231.8</ele>
        <time>2019-08-17T14:41:57Z</time>
      </trkpt>
      <trkpt lat="47.19871" lon="5.96047">
        <ele>231.8</ele>
        <time>2019-08-17T14:41:58Z</time>
      </trkpt>
      <trkpt lat="47.19868" lon="5.96042">
        <ele>231.7</ele>
        <time>2019-08-17T14:41:59Z</time>
      </trkpt>
      <trkpt lat="47.19866" lon="5.96038">
        <ele>231.7</ele>
        <time>2019-08-17T14:42:00Z</time>
      </trkpt>
      <trkpt lat="47.19863" lon="5.96034">
        <ele>231.7</ele>
        <time>2019-08-17T14:42:01Z</time>
      </trkpt>
      <trkpt lat="47.1986" lon="5.9603">
        <ele>231.7</ele>
        <time>2019-08-17T14:42:02Z</time>
      </trkpt>
      <trkpt lat="47.19857" lon="5.96026">
        <ele>231.7</ele>
        <time>2019-08-17T14:42:03Z</time>
      </trkpt>
      <trkpt lat="47.19855" lon="5.96022">
        <ele>231.7</ele>
        <time>2019-08-17T14:42:04Z</time>
      </trkpt>
      <trkpt lat="47.19853" lon="5.96017">
        <ele>231.7</ele>
        <time>2019-08-17T14:42:05Z</time>
      </trkpt>
      <trkpt lat="47.19851" lon="5.96013">
        <ele>231.8</ele>
        <time>2019-08-17T14:42:06Z</time>
      </trkpt>
      <trkpt lat="47.19848" lon="5.96009">
        <ele>231.8</ele>
        <time>2019-08-17T14:42:07Z</time>
      </trkpt>
      <trkpt lat="47.19846" lon="5.96003">
        <ele>231.8</ele>
        <time>2019-08-17T14:42:08Z</time>
      </trkpt>
      <trkpt lat="47.19843" lon="5.95998">
        <ele>231.9</ele>
        <time>2019-08-17T14:42:09Z</time>
      </trkpt>
      <trkpt lat="47.1984" lon="5.95993">
        <ele>231.9</ele>
        <time>2019-08-17T14:42:10Z</time>
      </trkpt>
      <trkpt lat="47.19837" lon="5.95988">
        <ele>232</ele>
        <time>2019-08-17T14:42:11Z</time>
      </trkpt>
      <trkpt lat="47.19834" lon="5.95984">
        <ele>232</ele>
        <time>2019-08-17T14:42:12Z</time>
      </trkpt>
      <trkpt lat="47.19831" lon="5.9598">
        <ele>232</ele>
        <time>2019-08-17T14:42:13Z</time>
      </trkpt>
      <trkpt lat="47.19827" lon="5.95976">
        <ele>232.1</ele>
        <time>2019-08-17T14:42:14Z</time>
      </trkpt>
      <trkpt lat="47.19824" lon="5.95971">
        <ele>232.1</ele>
        <time>2019-08-17T14:42:15Z</time>
      </trkpt>
      <trkpt lat="47.1982" lon="5.95966">
        <ele>232.1</ele>
        <time>2019-08-17T14:42:16Z</time>
      </trkpt>
      <trkpt lat="47.19816" lon="5.95962">
        <ele>232.1</ele>
        <time>2019-08-17T14:42:17Z</time>
      </trkpt>
      <trkpt lat="47.19812" lon="5.95959">
        <ele>232.1</ele>
        <time>2019-08-17T14:42:18Z</time>
      </trkpt>
      <trkpt lat="47.19808" lon="5.95956">
        <ele>232.2</ele>
        <time>2019-08-17T14:42:19Z</time>
      </trkpt>
      <trkpt lat="47.19804" lon="5.95954">
        <ele>232.2</ele>
        <time>2019-08-17T14:42:20Z</time>
      </trkpt>
      <trkpt lat="47.198" lon="5.95952">
        <ele>232.2</ele>
        <time>2019-08-17T14:42:21Z</time>
      </trkpt>
      <trkpt lat="47.19796" lon="5.95949">
        <ele>232.2</ele>
        <time>2019-08-17T14:42:22Z</time>
      </trkpt>
      <trkpt lat="47.19792" lon="5.95947">
        <ele>232.2</ele>
        <time>2019-08-17T14:42:23Z</time>
      </trkpt>
      <trkpt lat="47.19786" lon="5.95947">
        <ele>232.2</ele>
        <time>2019-08-17T14:42:24Z</time>
      </trkpt>
      <trkpt lat="47.19782" lon="5.95945">
        <ele>232.2</ele>
        <time>2019-08-17T14:42:25Z</time>
      </trkpt>
      <trkpt lat="47.19778" lon="5.95944">
        <ele>232.3</ele>
        <time>2019-08-17T14:42:26Z</time>
      </trkpt>
      <trkpt lat="47.19774" lon="5.95942">
        <ele>232.3</ele>
        <time>2019-08-17T14:42:27Z</time>
      </trkpt>
      <trkpt lat="47.1977" lon="5.95942">
        <ele>232.4</ele>
        <time>2019-08-17T14:42:28Z</time>
      </trkpt>
      <trkpt lat="47.19766" lon="5.95942">
        <ele>232.4</ele>
        <time>2019-08-17T14:42:29Z</time>
      </trkpt>
      <trkpt lat="47.19761" lon="5.95942">
        <ele>232.5</ele>
        <time>2019-08-17T14:42:30Z</time>
      </trkpt>
      <trkpt lat="47.19756" lon="5.95942">
        <ele>232.7</ele>
        <time>2019-08-17T14:42:31Z</time>
      </trkpt>
      <trkpt lat="47.19751" lon="5.95942">
        <ele>232.8</ele>
        <time>2019-08-17T14:42:32Z</time>
      </trkpt>
      <trkpt lat="47.19747" lon="5.95941">
        <ele>233</ele>
        <time>2019-08-17T14:42:33Z</time>
      </trkpt>
      <trkpt lat="47.19743" lon="5.95942">
        <ele>233.1</ele>
        <time>2019-08-17T14:42:34Z</time>
      </trkpt>
      <trkpt lat="47.19739" lon="5.9594">
        <ele>233.3</ele>
        <time>2019-08-17T14:42:35Z</time>
      </trkpt>
      <trkpt lat="47.19735" lon="5.9594">
        <ele>233.4</ele>
        <time>2019-08-17T14:42:36Z</time>
      </trkpt>
      <trkpt lat="47.19731" lon="5.95939">
        <ele>233.6</ele>
        <time>2019-08-17T14:42:37Z</time>
      </trkpt>
      <trkpt lat="47.19726" lon="5.95939">
        <ele>233.7</ele>
        <time>2019-08-17T14:42:38Z</time>
      </trkpt>
      <trkpt lat="47.19722" lon="5.95939">
        <ele>233.9</ele>
        <time>2019-08-17T14:42:39Z</time>
      </trkpt>
      <trkpt lat="47.19718" lon="5.95938">
        <ele>234</ele>
        <time>2019-08-17T14:42:40Z</time>
      </trkpt>
      <trkpt lat="47.19713" lon="5.95939">
        <ele>234.2</ele>
        <time>2019-08-17T14:42:41Z</time>
      </trkpt>
      <trkpt lat="47.19709" lon="5.95939">
        <ele>234.3</ele>
        <time>2019-08-17T14:42:42Z</time>
      </trkpt>
      <trkpt lat="47.19705" lon="5.9594">
        <ele>234.5</ele>
        <time>2019-08-17T14:42:43Z</time>
      </trkpt>
      <trkpt lat="47.197" lon="5.95939">
        <ele>234.6</ele>
        <time>2019-08-17T14:42:44Z</time>
      </trkpt>
      <trkpt lat="47.19696" lon="5.95938">
        <ele>234.8</ele>
        <time>2019-08-17T14:42:45Z</time>
      </trkpt>
      <trkpt lat="47.19691" lon="5.95938">
        <ele>234.9</ele>
        <time>2019-08-17T14:42:46Z</time>
      </trkpt>
      <trkpt lat="47.19687" lon="5.95937">
        <ele>235</ele>
        <time>2019-08-17T14:42:47Z</time>
      </trkpt>
      <trkpt lat="47.19683" lon="5.95936">
        <ele>235.1</ele>
        <time>2019-08-17T14:42:48Z</time>
      </trkpt>
      <trkpt lat="47.19679" lon="5.95935">
        <ele>235.2</ele>
        <time>2019-08-17T14:42:49Z</time>
      </trkpt>
      <trkpt lat="47.19675" lon="5.95934">
        <ele>235.3</ele>
        <time>2019-08-17T14:42:50Z</time>
      </trkpt>
      <trkpt lat="47.19671" lon="5.95934">
        <ele>235.4</ele>
        <time>2019-08-17T14:42:51Z</time>
      </trkpt>
      <trkpt lat="47.19667" lon="5.95933">
        <ele>235.5</ele>
        <time>2019-08-17T14:42:52Z</time>
      </trkpt>
      <trkpt lat="47.19663" lon="5.95932">
        <ele>235.6</ele>
        <time>2019-08-17T14:42:53Z</time>
      </trkpt>
      <trkpt lat="47.19658" lon="5.95932">
        <ele>235.7</ele>
        <time>2019-08-17T14:42:54Z</time>
      </trkpt>
      <trkpt lat="47.19654" lon="5.95931">
        <ele>235.8</ele>
        <time>2019-08-17T14:42:55Z</time>
      </trkpt>
      <trkpt lat="47.19649" lon="5.95931">
        <ele>235.9</ele>
        <time>2019-08-17T14:42:56Z</time>
      </trkpt>
      <trkpt lat="47.19644" lon="5.95931">
        <ele>236</ele>
        <time>2019-08-17T14:42:57Z</time>
      </trkpt>
      <trkpt lat="47.1964" lon="5.95931">
        <ele>236.1</ele>
        <time>2019-08-17T14:42:58Z</time>
      </trkpt>
      <trkpt lat="47.19636" lon="5.9593">
        <ele>236.2</ele>
        <time>2019-08-17T14:42:59Z</time>
      </trkpt>
      <trkpt lat="47.19631" lon="5.95931">
        <ele>236.3</ele>
        <time>2019-08-17T14:43:00Z</time>
      </trkpt>
      <trkpt lat="47.19627" lon="5.95931">
        <ele>236.3</ele>
        <time>2019-08-17T14:43:01Z</time>
      </trkpt>
      <trkpt lat="47.19623" lon="5.95931">
        <ele>236.4</ele>
        <time>2019-08-17T14:43:02Z</time>
      </trkpt>
      <trkpt lat="47.19619" lon="5.95931">
        <ele>236.5</ele>
        <time>2019-08-17T14:43:03Z</time>
      </trkpt>
      <trkpt lat="47.19615" lon="5.95931">
        <ele>236.5</ele>
        <time>2019-08-17T14:43:04Z</time>
      </trkpt>
      <trkpt lat="47.1961" lon="5.95932">
        <ele>236.6</ele>
        <time>2019-08-17T14:43:05Z</time>
      </trkpt>
      <trkpt lat="47.19607" lon="5.95932">
        <ele>236.7</ele>
        <time>2019-08-17T14:43:06Z</time>
      </trkpt>
      <trkpt lat="47.19603" lon="5.95931">
        <ele>236.8</ele>
        <time>2019-08-17T14:43:07Z</time>
      </trkpt>
      <trkpt lat="47.19598" lon="5.95931">
        <ele>237</ele>
        <time>2019-08-17T14:43:08Z</time>
      </trkpt>
      <trkpt lat="47.19593" lon="5.95931">
        <ele>237.1</ele>
        <time>2019-08-17T14:43:09Z</time>
      </trkpt>
      <trkpt lat="47.1959" lon="5.95931">
        <ele>237.2</ele>
        <time>2019-08-17T14:43:10Z</time>
      </trkpt>
      <trkpt lat="47.19586" lon="5.95931">
        <ele>237.3</ele>
        <time>2019-08-17T14:43:11Z</time>
      </trkpt>
      <trkpt lat="47.19582" lon="5.95931">
        <ele>237.4</ele>
        <time>2019-08-17T14:43:12Z</time>
      </trkpt>
      <trkpt lat="47.19577" lon="5.9593">
        <ele>237.5</ele>
        <time>2019-08-17T14:43:13Z</time>
      </trkpt>
      <trkpt lat="47.19573" lon="5.9593">
        <ele>237.6</ele>
        <time>2019-08-17T14:43:14Z</time>
      </trkpt>
      <trkpt lat="47.19569" lon="5.95929">
        <ele>237.8</ele>
        <time>2019-08-17T14:43:15Z</time>
      </trkpt>
      <trkpt lat="47.19565" lon="5.95929">
        <ele>237.9</ele>
        <time>2019-08-17T14:43:16Z</time>
      </trkpt>
      <trkpt lat="47.1956" lon="5.95929">
        <ele>238.1</ele>
        <time>2019-08-17T14:43:17Z</time>
      </trkpt>
      <trkpt lat="47.19556" lon="5.95928">
        <ele>238.2</ele>
        <time>2019-08-17T14:43:18Z</time>
      </trkpt>
      <trkpt lat="47.19552" lon="5.95927">
        <ele>238.3</ele>
        <time>2019-08-17T14:43:19Z</time>
      </trkpt>
      <trkpt lat="47.19547" lon="5.95926">
        <ele>238.5</ele>
        <time>2019-08-17T14:43:20Z</time>
      </trkpt>
      <trkpt lat="47.19543" lon="5.95925">
        <ele>238.6</ele>
        <time>2019-08-17T14:43:21Z</time>
      </trkpt>
      <trkpt lat="47.19539" lon="5.95925">
        <ele>238.8</ele>
        <time>2019-08-17T14:43:22Z</time>
      </trkpt>
      <trkpt lat="47.19534" lon="5.95925">
        <ele>238.9</ele>
        <time>2019-08-17T14:43:23Z</time>
      </trkpt>
      <trkpt lat="47.1953" lon="5.95925">
        <ele>239</ele>
        <time>2019-08-17T14:43:24Z</time>
      </trkpt>
      <trkpt lat="47.19525" lon="5.95925">
        <ele>239.1</ele>
        <time>2019-08-17T14:43:25Z</time>
      </trkpt>
      <trkpt lat="47.19521" lon="5.95925">
        <ele>239.2</ele>
        <time>2019-08-17T14:43:26Z</time>
      </trkpt>
      <trkpt lat="47.19516" lon="5.95925">
        <ele>239.3</ele>
        <time>2019-08-17T14:43:27Z</time>
      </trkpt>
      <trkpt lat="47.19511" lon="5.95924">
        <ele>239.3</ele>
        <time>2019-08-17T14:43:28Z</time>
      </trkpt>
      <trkpt lat="47.19507" lon="5.95924">
        <ele>239.3</ele>
        <time>2019-08-17T14:43:29Z</time>
      </trkpt>
      <trkpt lat="47.19502" lon="5.95924">
        <ele>239.3</ele>
        <time>2019-08-17T14:43:30Z</time>
      </trkpt>
      <trkpt lat="47.19498" lon="5.95925">
        <ele>239.2</ele>
        <time>2019-08-17T14:43:31Z</time>
      </trkpt>
      <trkpt lat="47.19493" lon="5.95925">
        <ele>239.1</ele>
        <time>2019-08-17T14:43:32Z</time>
      </trkpt>
      <trkpt lat="47.19489" lon="5.95925">
        <ele>239</ele>
        <time>2019-08-17T14:43:33Z</time>
      </trkpt>
      <trkpt lat="47.19485" lon="5.95925">
        <ele>238.9</ele>
        <time>2019-08-17T14:43:34Z</time>
      </trkpt>
      <trkpt lat="47.19481" lon="5.95924">
        <ele>238.9</ele>
        <time>2019-08-17T14:43:35Z</time>
      </trkpt>
      <trkpt lat="47.19476" lon="5.95924">
        <ele>238.8</ele>
        <time>2019-08-17T14:43:36Z</time>
      </trkpt>
      <trkpt lat="47.19471" lon="5.95926">
        <ele>238.7</ele>
        <time>2019-08-17T14:43:37Z</time>
      </trkpt>
      <trkpt lat="47.19467" lon="5.95925">
        <ele>238.6</ele>
        <time>2019-08-17T14:43:38Z</time>
      </trkpt>
      <trkpt lat="47.19462" lon="5.95924">
        <ele>238.6</ele>
        <time>2019-08-17T14:43:39Z</time>
      </trkpt>
      <trkpt lat="47.19457" lon="5.95925">
        <ele>238.5</ele>
        <time>2019-08-17T14:43:40Z</time>
      </trkpt>
      <trkpt lat="47.19451" lon="5.95925">
        <ele>238.5</ele>
        <time>2019-08-17T14:43:41Z</time>
      </trkpt>
      <trkpt lat="47.19447" lon="5.95926">
        <ele>238.5</ele>
        <time>2019-08-17T14:43:42Z</time>
      </trkpt>
      <trkpt lat="47.19442" lon="5.95928">
        <ele>238.5</ele>
        <time>2019-08-17T14:43:43Z</time>
      </trkpt>
      <trkpt lat="47.19437" lon="5.9593">
        <ele>238.5</ele>
        <time>2019-08-17T14:43:44Z</time>
      </trkpt>
      <trkpt lat="47.19433" lon="5.9593">
        <ele>238.5</ele>
        <time>2019-08-17T14:43:45Z</time>
      </trkpt>
      <trkpt lat="47.19429" lon="5.95932">
        <ele>238.5</ele>
        <time>2019-08-17T14:43:46Z</time>
      </trkpt>
      <trkpt lat="47.19425" lon="5.95934">
        <ele>238.5</ele>
        <time>2019-08-17T14:43:47Z</time>
      </trkpt>
      <trkpt lat="47.1942" lon="5.95937">
        <ele>238.5</ele>
        <time>2019-08-17T14:43:48Z</time>
      </trkpt>
      <trkpt lat="47.19416" lon="5.9594">
        <ele>238.4</ele>
        <time>2019-08-17T14:43:49Z</time>
      </trkpt>
      <trkpt lat="47.19413" lon="5.95942">
        <ele>238.4</ele>
        <time>2019-08-17T14:43:50Z</time>
      </trkpt>
      <trkpt lat="47.19407" lon="5.95944">
        <ele>238.4</ele>
        <time>2019-08-17T14:43:51Z</time>
      </trkpt>
      <trkpt lat="47.19404" lon="5.95947">
        <ele>238.4</ele>
        <time>2019-08-17T14:43:52Z</time>
      </trkpt>
      <trkpt lat="47.19401" lon="5.9595">
        <ele>238.3</ele>
        <time>2019-08-17T14:43:53Z</time>
      </trkpt>
      <trkpt lat="47.19398" lon="5.95953">
        <ele>238.3</ele>
        <time>2019-08-17T14:43:54Z</time>
      </trkpt>
      <trkpt lat="47.19396" lon="5.95955">
        <ele>238.2</ele>
        <time>2019-08-17T14:43:55Z</time>
      </trkpt>
      <trkpt lat="47.19393" lon="5.95957">
        <ele>238.1</ele>
        <time>2019-08-17T14:43:56Z</time>
      </trkpt>
      <trkpt lat="47.1939" lon="5.95959">
        <ele>238.1</ele>
        <time>2019-08-17T14:43:57Z</time>
      </trkpt>
      <trkpt lat="47.19387" lon="5.95961">
        <ele>238</ele>
        <time>2019-08-17T14:43:58Z</time>
      </trkpt>
      <trkpt lat="47.19384" lon="5.95964">
        <ele>237.9</ele>
        <time>2019-08-17T14:43:59Z</time>
      </trkpt>
      <trkpt lat="47.1938" lon="5.95967">
        <ele>237.8</ele>
        <time>2019-08-17T14:44:01Z</time>
      </trkpt>
      <trkpt lat="47.19377" lon="5.95969">
        <ele>237.7</ele>
        <time>2019-08-17T14:44:02Z</time>
      </trkpt>
      <trkpt lat="47.19375" lon="5.95971">
        <ele>237.7</ele>
        <time>2019-08-17T14:44:03Z</time>
      </trkpt>
      <trkpt lat="47.19371" lon="5.95974">
        <ele>237.6</ele>
        <time>2019-08-17T14:44:04Z</time>
      </trkpt>
      <trkpt lat="47.19368" lon="5.95978">
        <ele>237.6</ele>
        <time>2019-08-17T14:44:05Z</time>
      </trkpt>
      <trkpt lat="47.19365" lon="5.95981">
        <ele>237.6</ele>
        <time>2019-08-17T14:44:06Z</time>
      </trkpt>
      <trkpt lat="47.19363" lon="5.95985">
        <ele>237.5</ele>
        <time>2019-08-17T14:44:07Z</time>
      </trkpt>
      <trkpt lat="47.19361" lon="5.95989">
        <ele>237.5</ele>
        <time>2019-08-17T14:44:08Z</time>
      </trkpt>
      <trkpt lat="47.19358" lon="5.95993">
        <ele>237.5</ele>
        <time>2019-08-17T14:44:09Z</time>
      </trkpt>
      <trkpt lat="47.19355" lon="5.95997">
        <ele>237.5</ele>
        <time>2019-08-17T14:44:10Z</time>
      </trkpt>
      <trkpt lat="47.19353" lon="5.96002">
        <ele>237.4</ele>
        <time>2019-08-17T14:44:11Z</time>
      </trkpt>
      <trkpt lat="47.19349" lon="5.96005">
        <ele>237.4</ele>
        <time>2019-08-17T14:44:12Z</time>
      </trkpt>
      <trkpt lat="47.19346" lon="5.96009">
        <ele>237.3</ele>
        <time>2019-08-17T14:44:13Z</time>
      </trkpt>
      <trkpt lat="47.19343" lon="5.96015">
        <ele>237.2</ele>
        <time>2019-08-17T14:44:14Z</time>
      </trkpt>
      <trkpt lat="47.1934" lon="5.96021">
        <ele>237</ele>
        <time>2019-08-17T14:44:15Z</time>
      </trkpt>
      <trkpt lat="47.19337" lon="5.96025">
        <ele>236.8</ele>
        <time>2019-08-17T14:44:16Z</time>
      </trkpt>
      <trkpt lat="47.19333" lon="5.96031">
        <ele>236.6</ele>
        <time>2019-08-17T14:44:17Z</time>
      </trkpt>
      <trkpt lat="47.19329" lon="5.96036">
        <ele>236.4</ele>
        <time>2019-08-17T14:44:18Z</time>
      </trkpt>
      <trkpt lat="47.19328" lon="5.96041">
        <ele>236.3</ele>
        <time>2019-08-17T14:44:19Z</time>
      </trkpt>
      <trkpt lat="47.19325" lon="5.96045">
        <ele>236.2</ele>
        <time>2019-08-17T14:44:20Z</time>
      </trkpt>
      <trkpt lat="47.19322" lon="5.9605">
        <ele>236.1</ele>
        <time>2019-08-17T14:44:21Z</time>
      </trkpt>
      <trkpt lat="47.19318" lon="5.96055">
        <ele>235.9</ele>
        <time>2019-08-17T14:44:22Z</time>
      </trkpt>
      <trkpt lat="47.19315" lon="5.9606">
        <ele>235.8</ele>
        <time>2019-08-17T14:44:23Z</time>
      </trkpt>
      <trkpt lat="47.19312" lon="5.96064">
        <ele>235.6</ele>
        <time>2019-08-17T14:44:24Z</time>
      </trkpt>
      <trkpt lat="47.19309" lon="5.9607">
        <ele>235.5</ele>
        <time>2019-08-17T14:44:25Z</time>
      </trkpt>
      <trkpt lat="47.19306" lon="5.96075">
        <ele>235.4</ele>
        <time>2019-08-17T14:44:26Z</time>
      </trkpt>
      <trkpt lat="47.19303" lon="5.9608">
        <ele>235.2</ele>
        <time>2019-08-17T14:44:27Z</time>
      </trkpt>
      <trkpt lat="47.19301" lon="5.96086">
        <ele>235.1</ele>
        <time>2019-08-17T14:44:28Z</time>
      </trkpt>
      <trkpt lat="47.19299" lon="5.96092">
        <ele>235.1</ele>
        <time>2019-08-17T14:44:29Z</time>
      </trkpt>
      <trkpt lat="47.19296" lon="5.96097">
        <ele>235.1</ele>
        <time>2019-08-17T14:44:30Z</time>
      </trkpt>
      <trkpt lat="47.19293" lon="5.96102">
        <ele>235.1</ele>
        <time>2019-08-17T14:44:31Z</time>
      </trkpt>
      <trkpt lat="47.1929" lon="5.96106">
        <ele>235.1</ele>
        <time>2019-08-17T14:44:32Z</time>
      </trkpt>
      <trkpt lat="47.19288" lon="5.9611">
        <ele>235.1</ele>
        <time>2019-08-17T14:44:33Z</time>
      </trkpt>
      <trkpt lat="47.19285" lon="5.96114">
        <ele>235.1</ele>
        <time>2019-08-17T14:44:34Z</time>
      </trkpt>
      <trkpt lat="47.19282" lon="5.96119">
        <ele>235.1</ele>
        <time>2019-08-17T14:44:35Z</time>
      </trkpt>
      <trkpt lat="47.19279" lon="5.96123">
        <ele>235.1</ele>
        <time>2019-08-17T14:44:36Z</time>
      </trkpt>
      <trkpt lat="47.19277" lon="5.96128">
        <ele>235.1</ele>
        <time>2019-08-17T14:44:37Z</time>
      </trkpt>
      <trkpt lat="47.19274" lon="5.96132">
        <ele>235</ele>
        <time>2019-08-17T14:44:38Z</time>
      </trkpt>
      <trkpt lat="47.19271" lon="5.96136">
        <ele>235</ele>
        <time>2019-08-17T14:44:39Z</time>
      </trkpt>
      <trkpt lat="47.19268" lon="5.96141">
        <ele>234.9</ele>
        <time>2019-08-17T14:44:40Z</time>
      </trkpt>
      <trkpt lat="47.19265" lon="5.96146">
        <ele>234.8</ele>
        <time>2019-08-17T14:44:41Z</time>
      </trkpt>
      <trkpt lat="47.19263" lon="5.9615">
        <ele>234.7</ele>
        <time>2019-08-17T14:44:42Z</time>
      </trkpt>
      <trkpt lat="47.1926" lon="5.96154">
        <ele>234.5</ele>
        <time>2019-08-17T14:44:43Z</time>
      </trkpt>
      <trkpt lat="47.19258" lon="5.96159">
        <ele>234.4</ele>
        <time>2019-08-17T14:44:44Z</time>
      </trkpt>
      <trkpt lat="47.19254" lon="5.96162">
        <ele>234</ele>
        <time>2019-08-17T14:44:45Z</time>
      </trkpt>
      <trkpt lat="47.19251" lon="5.96166">
        <ele>234</ele>
        <time>2019-08-17T14:44:46Z</time>
      </trkpt>
      <trkpt lat="47.19248" lon="5.9617">
        <ele>233.9</ele>
        <time>2019-08-17T14:44:47Z</time>
      </trkpt>
      <trkpt lat="47.19245" lon="5.96172">
        <ele>233.8</ele>
        <time>2019-08-17T14:44:48Z</time>
      </trkpt>
      <trkpt lat="47.19243" lon="5.96177">
        <ele>233.8</ele>
        <time>2019-08-17T14:44:49Z</time>
      </trkpt>
      <trkpt lat="47.1924" lon="5.96181">
        <ele>233.8</ele>
        <time>2019-08-17T14:44:50Z</time>
      </trkpt>
      <trkpt lat="47.19238" lon="5.96185">
        <ele>233.7</ele>
        <time>2019-08-17T14:44:51Z</time>
      </trkpt>
      <trkpt lat="47.19236" lon="5.96188">
        <ele>233.7</ele>
        <time>2019-08-17T14:44:52Z</time>
      </trkpt>
      <trkpt lat="47.19234" lon="5.96191">
        <ele>233.7</ele>
        <time>2019-08-17T14:44:53Z</time>
      </trkpt>
      <trkpt lat="47.19232" lon="5.96195">
        <ele>233.6</ele>
        <time>2019-08-17T14:44:54Z</time>
      </trkpt>
      <trkpt lat="47.19229" lon="5.96198">
        <ele>233.6</ele>
        <time>2019-08-17T14:44:55Z</time>
      </trkpt>
      <trkpt lat="47.19227" lon="5.96202">
        <ele>233.6</ele>
        <time>2019-08-17T14:44:56Z</time>
      </trkpt>
      <trkpt lat="47.19224" lon="5.96206">
        <ele>233.5</ele>
        <time>2019-08-17T14:44:57Z</time>
      </trkpt>
      <trkpt lat="47.19222" lon="5.9621">
        <ele>233.5</ele>
        <time>2019-08-17T14:44:58Z</time>
      </trkpt>
      <trkpt lat="47.19218" lon="5.96213">
        <ele>233.5</ele>
        <time>2019-08-17T14:44:59Z</time>
      </trkpt>
      <trkpt lat="47.19215" lon="5.96217">
        <ele>233.4</ele>
        <time>2019-08-17T14:45:00Z</time>
      </trkpt>
      <trkpt lat="47.19212" lon="5.96221">
        <ele>233.4</ele>
        <time>2019-08-17T14:45:01Z</time>
      </trkpt>
      <trkpt lat="47.19208" lon="5.96225">
        <ele>233.4</ele>
        <time>2019-08-17T14:45:02Z</time>
      </trkpt>
      <trkpt lat="47.19205" lon="5.9623">
        <ele>233.3</ele>
        <time>2019-08-17T14:45:03Z</time>
      </trkpt>
      <trkpt lat="47.19202" lon="5.96235">
        <ele>233.3</ele>
        <time>2019-08-17T14:45:04Z</time>
      </trkpt>
      <trkpt lat="47.192" lon="5.9624">
        <ele>233.3</ele>
        <time>2019-08-17T14:45:05Z</time>
      </trkpt>
      <trkpt lat="47.19197" lon="5.96245">
        <ele>233.3</ele>
        <time>2019-08-17T14:45:06Z</time>
      </trkpt>
      <trkpt lat="47.19196" lon="5.9625">
        <ele>233.3</ele>
        <time>2019-08-17T14:45:07Z</time>
      </trkpt>
      <trkpt lat="47.19193" lon="5.96255">
        <ele>233.3</ele>
        <time>2019-08-17T14:45:08Z</time>
      </trkpt>
      <trkpt lat="47.19191" lon="5.96261">
        <ele>233.4</ele>
        <time>2019-08-17T14:45:09Z</time>
      </trkpt>
      <trkpt lat="47.19188" lon="5.96266">
        <ele>233.4</ele>
        <time>2019-08-17T14:45:10Z</time>
      </trkpt>
      <trkpt lat="47.19186" lon="5.96272">
        <ele>233.4</ele>
        <time>2019-08-17T14:45:11Z</time>
      </trkpt>
      <trkpt lat="47.19183" lon="5.96278">
        <ele>233.4</ele>
        <time>2019-08-17T14:45:12Z</time>
      </trkpt>
      <trkpt lat="47.1918" lon="5.96283">
        <ele>233.5</ele>
        <time>2019-08-17T14:45:13Z</time>
      </trkpt>
      <trkpt lat="47.19177" lon="5.96288">
        <ele>233.5</ele>
        <time>2019-08-17T14:45:14Z</time>
      </trkpt>
      <trkpt lat="47.19174" lon="5.96293">
        <ele>233.5</ele>
        <time>2019-08-17T14:45:15Z</time>
      </trkpt>
      <trkpt lat="47.1917" lon="5.96298">
        <ele>233.5</ele>
        <time>2019-08-17T14:45:16Z</time>
      </trkpt>
      <trkpt lat="47.19167" lon="5.96304">
        <ele>233.5</ele>
        <time>2019-08-17T14:45:17Z</time>
      </trkpt>
      <trkpt lat="47.19164" lon="5.9631">
        <ele>233.4</ele>
        <time>2019-08-17T14:45:18Z</time>
      </trkpt>
      <trkpt lat="47.19161" lon="5.96315">
        <ele>233.4</ele>
        <time>2019-08-17T14:45:19Z</time>
      </trkpt>
      <trkpt lat="47.19158" lon="5.9632">
        <ele>233.3</ele>
        <time>2019-08-17T14:45:20Z</time>
      </trkpt>
      <trkpt lat="47.19155" lon="5.96325">
        <ele>233.3</ele>
        <time>2019-08-17T14:45:21Z</time>
      </trkpt>
      <trkpt lat="47.19152" lon="5.96329">
        <ele>233.2</ele>
        <time>2019-08-17T14:45:22Z</time>
      </trkpt>
      <trkpt lat="47.19149" lon="5.96333">
        <ele>233.2</ele>
        <time>2019-08-17T14:45:23Z</time>
      </trkpt>
      <trkpt lat="47.19146" lon="5.96336">
        <ele>233.2</ele>
        <time>2019-08-17T14:45:24Z</time>
      </trkpt>
      <trkpt lat="47.19143" lon="5.96341">
        <ele>233.1</ele>
        <time>2019-08-17T14:45:25Z</time>
      </trkpt>
      <trkpt lat="47.19139" lon="5.96346">
        <ele>233.1</ele>
        <time>2019-08-17T14:45:26Z</time>
      </trkpt>
      <trkpt lat="47.19136" lon="5.96351">
        <ele>233.1</ele>
        <time>2019-08-17T14:45:27Z</time>
      </trkpt>
      <trkpt lat="47.19133" lon="5.96356">
        <ele>233.1</ele>
        <time>2019-08-17T14:45:28Z</time>
      </trkpt>
      <trkpt lat="47.1913" lon="5.96361">
        <ele>233.1</ele>
        <time>2019-08-17T14:45:29Z</time>
      </trkpt>
      <trkpt lat="47.19127" lon="5.96365">
        <ele>233</ele>
        <time>2019-08-17T14:45:30Z</time>
      </trkpt>
      <trkpt lat="47.19123" lon="5.96369">
        <ele>233</ele>
        <time>2019-08-17T14:45:31Z</time>
      </trkpt>
      <trkpt lat="47.19119" lon="5.96373">
        <ele>233</ele>
        <time>2019-08-17T14:45:32Z</time>
      </trkpt>
      <trkpt lat="47.19115" lon="5.96377">
        <ele>233</ele>
        <time>2019-08-17T14:45:33Z</time>
      </trkpt>
      <trkpt lat="47.19111" lon="5.96381">
        <ele>233</ele>
        <time>2019-08-17T14:45:34Z</time>
      </trkpt>
      <trkpt lat="47.19108" lon="5.96385">
        <ele>233</ele>
        <time>2019-08-17T14:45:35Z</time>
      </trkpt>
      <trkpt lat="47.19102" lon="5.96388">
        <ele>233</ele>
        <time>2019-08-17T14:45:36Z</time>
      </trkpt>
      <trkpt lat="47.19099" lon="5.96391">
        <ele>233</ele>
        <time>2019-08-17T14:45:37Z</time>
      </trkpt>
      <trkpt lat="47.19095" lon="5.96393">
        <ele>233</ele>
        <time>2019-08-17T14:45:38Z</time>
      </trkpt>
      <trkpt lat="47.19091" lon="5.96397">
        <ele>233</ele>
        <time>2019-08-17T14:45:39Z</time>
      </trkpt>
      <trkpt lat="47.19088" lon="5.964">
        <ele>233</ele>
        <time>2019-08-17T14:45:40Z</time>
      </trkpt>
      <trkpt lat="47.19084" lon="5.96402">
        <ele>233</ele>
        <time>2019-08-17T14:45:41Z</time>
      </trkpt>
      <trkpt lat="47.1908" lon="5.96404">
        <ele>233</ele>
        <time>2019-08-17T14:45:42Z</time>
      </trkpt>
      <trkpt lat="47.19076" lon="5.96406">
        <ele>233</ele>
        <time>2019-08-17T14:45:43Z</time>
      </trkpt>
      <trkpt lat="47.19072" lon="5.96407">
        <ele>233.1</ele>
        <time>2019-08-17T14:45:44Z</time>
      </trkpt>
      <trkpt lat="47.19068" lon="5.96408">
        <ele>233.1</ele>
        <time>2019-08-17T14:45:45Z</time>
      </trkpt>
      <trkpt lat="47.19064" lon="5.96411">
        <ele>233.1</ele>
        <time>2019-08-17T14:45:46Z</time>
      </trkpt>
      <trkpt lat="47.19059" lon="5.96413">
        <ele>233.1</ele>
        <time>2019-08-17T14:45:47Z</time>
      </trkpt>
      <trkpt lat="47.19055" lon="5.96415">
        <ele>233.1</ele>
        <time>2019-08-17T14:45:48Z</time>
      </trkpt>
      <trkpt lat="47.1905" lon="5.96418">
        <ele>233.2</ele>
        <time>2019-08-17T14:45:49Z</time>
      </trkpt>
      <trkpt lat="47.19046" lon="5.9642">
        <ele>233.2</ele>
        <time>2019-08-17T14:45:50Z</time>
      </trkpt>
      <trkpt lat="47.19042" lon="5.96421">
        <ele>233.2</ele>
        <time>2019-08-17T14:45:51Z</time>
      </trkpt>
      <trkpt lat="47.19038" lon="5.96421">
        <ele>233.2</ele>
        <time>2019-08-17T14:45:52Z</time>
      </trkpt>
      <trkpt lat="47.19034" lon="5.96423">
        <ele>233.3</ele>
        <time>2019-08-17T14:45:53Z</time>
      </trkpt>
      <trkpt lat="47.1903" lon="5.96424">
        <ele>233.3</ele>
        <time>2019-08-17T14:45:54Z</time>
      </trkpt>
      <trkpt lat="47.19028" lon="5.96425">
        <ele>233.3</ele>
        <time>2019-08-17T14:45:55Z</time>
      </trkpt>
      <trkpt lat="47.19024" lon="5.96425">
        <ele>233.3</ele>
        <time>2019-08-17T14:45:56Z</time>
      </trkpt>
      <trkpt lat="47.19021" lon="5.96425">
        <ele>233.4</ele>
        <time>2019-08-17T14:45:57Z</time>
      </trkpt>
      <trkpt lat="47.19017" lon="5.96426">
        <ele>233.4</ele>
        <time>2019-08-17T14:45:58Z</time>
      </trkpt>
      <trkpt lat="47.19012" lon="5.96428">
        <ele>233.4</ele>
        <time>2019-08-17T14:45:59Z</time>
      </trkpt>
      <trkpt lat="47.19008" lon="5.96428">
        <ele>233.5</ele>
        <time>2019-08-17T14:46:00Z</time>
      </trkpt>
      <trkpt lat="47.19003" lon="5.96428">
        <ele>233.5</ele>
        <time>2019-08-17T14:46:01Z</time>
      </trkpt>
      <trkpt lat="47.18998" lon="5.96429">
        <ele>233.6</ele>
        <time>2019-08-17T14:46:02Z</time>
      </trkpt>
      <trkpt lat="47.18993" lon="5.9643">
        <ele>233.6</ele>
        <time>2019-08-17T14:46:03Z</time>
      </trkpt>
      <trkpt lat="47.18988" lon="5.96431">
        <ele>233.6</ele>
        <time>2019-08-17T14:46:04Z</time>
      </trkpt>
      <trkpt lat="47.18984" lon="5.96432">
        <ele>233.6</ele>
        <time>2019-08-17T14:46:05Z</time>
      </trkpt>
      <trkpt lat="47.1898" lon="5.96432">
        <ele>233.6</ele>
        <time>2019-08-17T14:46:06Z</time>
      </trkpt>
      <trkpt lat="47.18975" lon="5.96432">
        <ele>233.6</ele>
        <time>2019-08-17T14:46:07Z</time>
      </trkpt>
      <trkpt lat="47.1897" lon="5.96433">
        <ele>233.6</ele>
        <time>2019-08-17T14:46:08Z</time>
      </trkpt>
      <trkpt lat="47.18966" lon="5.96433">
        <ele>233.6</ele>
        <time>2019-08-17T14:46:09Z</time>
      </trkpt>
      <trkpt lat="47.18961" lon="5.96432">
        <ele>233.6</ele>
        <time>2019-08-17T14:46:10Z</time>
      </trkpt>
      <trkpt lat="47.18957" lon="5.96432">
        <ele>233.6</ele>
        <time>2019-08-17T14:46:11Z</time>
      </trkpt>
      <trkpt lat="47.18951" lon="5.9643">
        <ele>233.6</ele>
        <time>2019-08-17T14:46:12Z</time>
      </trkpt>
      <trkpt lat="47.18946" lon="5.96429">
        <ele>233.6</ele>
        <time>2019-08-17T14:46:13Z</time>
      </trkpt>
      <trkpt lat="47.18942" lon="5.96426">
        <ele>233.6</ele>
        <time>2019-08-17T14:46:14Z</time>
      </trkpt>
      <trkpt lat="47.18937" lon="5.96426">
        <ele>233.5</ele>
        <time>2019-08-17T14:46:15Z</time>
      </trkpt>
      <trkpt lat="47.18932" lon="5.96424">
        <ele>233.5</ele>
        <time>2019-08-17T14:46:16Z</time>
      </trkpt>
      <trkpt lat="47.18927" lon="5.96423">
        <ele>233.4</ele>
        <time>2019-08-17T14:46:17Z</time>
      </trkpt>
      <trkpt lat="47.18923" lon="5.96422">
        <ele>233.4</ele>
        <time>2019-08-17T14:46:18Z</time>
      </trkpt>
      <trkpt lat="47.18918" lon="5.96422">
        <ele>233.3</ele>
        <time>2019-08-17T14:46:19Z</time>
      </trkpt>
      <trkpt lat="47.18914" lon="5.96421">
        <ele>233.3</ele>
        <time>2019-08-17T14:46:20Z</time>
      </trkpt>
      <trkpt lat="47.1891" lon="5.96421">
        <ele>233.2</ele>
        <time>2019-08-17T14:46:21Z</time>
      </trkpt>
      <trkpt lat="47.18906" lon="5.96421">
        <ele>233.2</ele>
        <time>2019-08-17T14:46:22Z</time>
      </trkpt>
      <trkpt lat="47.18902" lon="5.96422">
        <ele>233.1</ele>
        <time>2019-08-17T14:46:23Z</time>
      </trkpt>
      <trkpt lat="47.18898" lon="5.96421">
        <ele>233.1</ele>
        <time>2019-08-17T14:46:24Z</time>
      </trkpt>
      <trkpt lat="47.18894" lon="5.96421">
        <ele>233</ele>
        <time>2019-08-17T14:46:25Z</time>
      </trkpt>
      <trkpt lat="47.1889" lon="5.9642">
        <ele>232.9</ele>
        <time>2019-08-17T14:46:26Z</time>
      </trkpt>
      <trkpt lat="47.18886" lon="5.96419">
        <ele>232.9</ele>
        <time>2019-08-17T14:46:27Z</time>
      </trkpt>
      <trkpt lat="47.18882" lon="5.96419">
        <ele>232.9</ele>
        <time>2019-08-17T14:46:28Z</time>
      </trkpt>
      <trkpt lat="47.18878" lon="5.96419">
        <ele>232.8</ele>
        <time>2019-08-17T14:46:29Z</time>
      </trkpt>
      <trkpt lat="47.18874" lon="5.96417">
        <ele>232.8</ele>
        <time>2019-08-17T14:46:30Z</time>
      </trkpt>
      <trkpt lat="47.1887" lon="5.96417">
        <ele>232.8</ele>
        <time>2019-08-17T14:46:31Z</time>
      </trkpt>
      <trkpt lat="47.18866" lon="5.96415">
        <ele>232.7</ele>
        <time>2019-08-17T14:46:32Z</time>
      </trkpt>
      <trkpt lat="47.18861" lon="5.96414">
        <ele>232.7</ele>
        <time>2019-08-17T14:46:33Z</time>
      </trkpt>
      <trkpt lat="47.18857" lon="5.96412">
        <ele>232.7</ele>
        <time>2019-08-17T14:46:34Z</time>
      </trkpt>
      <trkpt lat="47.18853" lon="5.96411">
        <ele>232.7</ele>
        <time>2019-08-17T14:46:35Z</time>
      </trkpt>
      <trkpt lat="47.18849" lon="5.96407">
        <ele>232.7</ele>
        <time>2019-08-17T14:46:36Z</time>
      </trkpt>
      <trkpt lat="47.18845" lon="5.96406">
        <ele>232.7</ele>
        <time>2019-08-17T14:46:37Z</time>
      </trkpt>
      <trkpt lat="47.18841" lon="5.96402">
        <ele>232.7</ele>
        <time>2019-08-17T14:46:38Z</time>
      </trkpt>
      <trkpt lat="47.18837" lon="5.964">
        <ele>232.7</ele>
        <time>2019-08-17T14:46:39Z</time>
      </trkpt>
      <trkpt lat="47.18833" lon="5.96397">
        <ele>232.7</ele>
        <time>2019-08-17T14:46:40Z</time>
      </trkpt>
      <trkpt lat="47.18829" lon="5.96395">
        <ele>232.8</ele>
        <time>2019-08-17T14:46:41Z</time>
      </trkpt>
      <trkpt lat="47.18825" lon="5.96391">
        <ele>232.8</ele>
        <time>2019-08-17T14:46:42Z</time>
      </trkpt>
      <trkpt lat="47.18821" lon="5.96388">
        <ele>232.9</ele>
        <time>2019-08-17T14:46:43Z</time>
      </trkpt>
      <trkpt lat="47.18817" lon="5.96386">
        <ele>233</ele>
        <time>2019-08-17T14:46:44Z</time>
      </trkpt>
      <trkpt lat="47.18813" lon="5.96383">
        <ele>233</ele>
        <time>2019-08-17T14:46:45Z</time>
      </trkpt>
      <trkpt lat="47.18809" lon="5.96382">
        <ele>233.1</ele>
        <time>2019-08-17T14:46:46Z</time>
      </trkpt>
      <trkpt lat="47.18805" lon="5.96381">
        <ele>233.2</ele>
        <time>2019-08-17T14:46:47Z</time>
      </trkpt>
      <trkpt lat="47.18802" lon="5.96379">
        <ele>233.2</ele>
        <time>2019-08-17T14:46:48Z</time>
      </trkpt>
      <trkpt lat="47.18798" lon="5.96378">
        <ele>233.3</ele>
        <time>2019-08-17T14:46:49Z</time>
      </trkpt>
      <trkpt lat="47.18794" lon="5.96377">
        <ele>233.4</ele>
        <time>2019-08-17T14:46:50Z</time>
      </trkpt>
      <trkpt lat="47.1879" lon="5.96375">
        <ele>233.4</ele>
        <time>2019-08-17T14:46:51Z</time>
      </trkpt>
      <trkpt lat="47.18787" lon="5.96373">
        <ele>233.5</ele>
        <time>2019-08-17T14:46:52Z</time>
      </trkpt>
      <trkpt lat="47.18784" lon="5.9637">
        <ele>233.5</ele>
        <time>2019-08-17T14:46:53Z</time>
      </trkpt>
      <trkpt lat="47.18781" lon="5.96368">
        <ele>233.5</ele>
        <time>2019-08-17T14:46:54Z</time>
      </trkpt>
      <trkpt lat="47.18778" lon="5.96367">
        <ele>233.6</ele>
        <time>2019-08-17T14:46:55Z</time>
      </trkpt>
      <trkpt lat="47.18774" lon="5.96365">
        <ele>233.6</ele>
        <time>2019-08-17T14:46:56Z</time>
      </trkpt>
      <trkpt lat="47.18771" lon="5.96363">
        <ele>233.6</ele>
        <time>2019-08-17T14:46:57Z</time>
      </trkpt>
      <trkpt lat="47.18767" lon="5.9636">
        <ele>233.6</ele>
        <time>2019-08-17T14:46:58Z</time>
      </trkpt>
      <trkpt lat="47.18764" lon="5.96358">
        <ele>233.6</ele>
        <time>2019-08-17T14:46:59Z</time>
      </trkpt>
      <trkpt lat="47.1876" lon="5.96356">
        <ele>233.7</ele>
        <time>2019-08-17T14:47:00Z</time>
      </trkpt>
      <trkpt lat="47.18756" lon="5.96354">
        <ele>233.7</ele>
        <time>2019-08-17T14:47:01Z</time>
      </trkpt>
      <trkpt lat="47.18753" lon="5.96351">
        <ele>233.7</ele>
        <time>2019-08-17T14:47:02Z</time>
      </trkpt>
      <trkpt lat="47.18749" lon="5.96348">
        <ele>233.7</ele>
        <time>2019-08-17T14:47:03Z</time>
      </trkpt>
      <trkpt lat="47.18746" lon="5.96344">
        <ele>233.7</ele>
        <time>2019-08-17T14:47:04Z</time>
      </trkpt>
      <trkpt lat="47.18742" lon="5.96341">
        <ele>233.7</ele>
        <time>2019-08-17T14:47:05Z</time>
      </trkpt>
      <trkpt lat="47.18738" lon="5.96339">
        <ele>233.7</ele>
        <time>2019-08-17T14:47:06Z</time>
      </trkpt>
      <trkpt lat="47.18735" lon="5.96336">
        <ele>233.7</ele>
        <time>2019-08-17T14:47:07Z</time>
      </trkpt>
      <trkpt lat="47.18732" lon="5.96334">
        <ele>233.7</ele>
        <time>2019-08-17T14:47:08Z</time>
      </trkpt>
      <trkpt lat="47.18727" lon="5.96334">
        <ele>233.7</ele>
        <time>2019-08-17T14:47:09Z</time>
      </trkpt>
      <trkpt lat="47.18723" lon="5.96333">
        <ele>233.7</ele>
        <time>2019-08-17T14:47:10Z</time>
      </trkpt>
      <trkpt lat="47.18719" lon="5.96332">
        <ele>233.7</ele>
        <time>2019-08-17T14:47:11Z</time>
      </trkpt>
      <trkpt lat="47.18714" lon="5.9633">
        <ele>233.7</ele>
        <time>2019-08-17T14:47:12Z</time>
      </trkpt>
      <trkpt lat="47.1871" lon="5.96328">
        <ele>233.7</ele>
        <time>2019-08-17T14:47:13Z</time>
      </trkpt>
      <trkpt lat="47.18706" lon="5.96326">
        <ele>233.7</ele>
        <time>2019-08-17T14:47:14Z</time>
      </trkpt>
      <trkpt lat="47.18703" lon="5.96324">
        <ele>233.7</ele>
        <time>2019-08-17T14:47:15Z</time>
      </trkpt>
      <trkpt lat="47.18699" lon="5.96322">
        <ele>233.7</ele>
        <time>2019-08-17T14:47:16Z</time>
      </trkpt>
      <trkpt lat="47.18696" lon="5.96319">
        <ele>233.7</ele>
        <time>2019-08-17T14:47:17Z</time>
      </trkpt>
      <trkpt lat="47.18691" lon="5.96317">
        <ele>233.7</ele>
        <time>2019-08-17T14:47:18Z</time>
      </trkpt>
      <trkpt lat="47.18688" lon="5.96313">
        <ele>233.7</ele>
        <time>2019-08-17T14:47:19Z</time>
      </trkpt>
      <trkpt lat="47.18685" lon="5.96311">
        <ele>233.7</ele>
        <time>2019-08-17T14:47:20Z</time>
      </trkpt>
      <trkpt lat="47.18681" lon="5.96308">
        <ele>233.7</ele>
        <time>2019-08-17T14:47:21Z</time>
      </trkpt>
      <trkpt lat="47.18677" lon="5.96304">
        <ele>233.7</ele>
        <time>2019-08-17T14:47:22Z</time>
      </trkpt>
      <trkpt lat="47.18673" lon="5.96299">
        <ele>233.7</ele>
        <time>2019-08-17T14:47:23Z</time>
      </trkpt>
      <trkpt lat="47.18669" lon="5.96295">
        <ele>233.6</ele>
        <time>2019-08-17T14:47:24Z</time>
      </trkpt>
      <trkpt lat="47.18665" lon="5.96292">
        <ele>233.6</ele>
        <time>2019-08-17T14:47:25Z</time>
      </trkpt>
      <trkpt lat="47.18662" lon="5.96287">
        <ele>233.6</ele>
        <time>2019-08-17T14:47:26Z</time>
      </trkpt>
      <trkpt lat="47.18658" lon="5.96283">
        <ele>233.6</ele>
        <time>2019-08-17T14:47:27Z</time>
      </trkpt>
      <trkpt lat="47.18655" lon="5.96278">
        <ele>233.6</ele>
        <time>2019-08-17T14:47:28Z</time>
      </trkpt>
      <trkpt lat="47.18651" lon="5.96277">
        <ele>233.6</ele>
        <time>2019-08-17T14:47:29Z</time>
      </trkpt>
      <trkpt lat="47.18648" lon="5.96273">
        <ele>233.5</ele>
        <time>2019-08-17T14:47:30Z</time>
      </trkpt>
      <trkpt lat="47.18645" lon="5.96269">
        <ele>233.5</ele>
        <time>2019-08-17T14:47:31Z</time>
      </trkpt>
      <trkpt lat="47.18642" lon="5.96266">
        <ele>233.5</ele>
        <time>2019-08-17T14:47:32Z</time>
      </trkpt>
      <trkpt lat="47.18639" lon="5.96262">
        <ele>233.5</ele>
        <time>2019-08-17T14:47:33Z</time>
      </trkpt>
      <trkpt lat="47.18636" lon="5.96257">
        <ele>233.5</ele>
        <time>2019-08-17T14:47:34Z</time>
      </trkpt>
      <trkpt lat="47.18633" lon="5.96252">
        <ele>233.4</ele>
        <time>2019-08-17T14:47:35Z</time>
      </trkpt>
      <trkpt lat="47.1863" lon="5.96244">
        <ele>233.4</ele>
        <time>2019-08-17T14:47:36Z</time>
      </trkpt>
      <trkpt lat="47.18627" lon="5.96236">
        <ele>233.4</ele>
        <time>2019-08-17T14:47:37Z</time>
      </trkpt>
      <trkpt lat="47.18624" lon="5.96229">
        <ele>233.4</ele>
        <time>2019-08-17T14:47:38Z</time>
      </trkpt>
      <trkpt lat="47.18621" lon="5.96223">
        <ele>233.4</ele>
        <time>2019-08-17T14:47:39Z</time>
      </trkpt>
      <trkpt lat="47.18618" lon="5.96217">
        <ele>233.4</ele>
        <time>2019-08-17T14:47:40Z</time>
      </trkpt>
      <trkpt lat="47.18616" lon="5.96212">
        <ele>233.4</ele>
        <time>2019-08-17T14:47:41Z</time>
      </trkpt>
      <trkpt lat="47.18613" lon="5.96207">
        <ele>233.4</ele>
        <time>2019-08-17T14:47:42Z</time>
      </trkpt>
      <trkpt lat="47.18611" lon="5.96201">
        <ele>233.4</ele>
        <time>2019-08-17T14:47:43Z</time>
      </trkpt>
      <trkpt lat="47.18609" lon="5.96195">
        <ele>233.4</ele>
        <time>2019-08-17T14:47:44Z</time>
      </trkpt>
      <trkpt lat="47.18606" lon="5.96191">
        <ele>233.4</ele>
        <time>2019-08-17T14:47:45Z</time>
      </trkpt>
      <trkpt lat="47.18603" lon="5.96186">
        <ele>233.5</ele>
        <time>2019-08-17T14:47:46Z</time>
      </trkpt>
      <trkpt lat="47.186" lon="5.96181">
        <ele>233.5</ele>
        <time>2019-08-17T14:47:47Z</time>
      </trkpt>
      <trkpt lat="47.18597" lon="5.96176">
        <ele>233.5</ele>
        <time>2019-08-17T14:47:48Z</time>
      </trkpt>
      <trkpt lat="47.18594" lon="5.96172">
        <ele>233.5</ele>
        <time>2019-08-17T14:47:49Z</time>
      </trkpt>
      <trkpt lat="47.18591" lon="5.96167">
        <ele>233.5</ele>
        <time>2019-08-17T14:47:50Z</time>
      </trkpt>
      <trkpt lat="47.18588" lon="5.96163">
        <ele>233.5</ele>
        <time>2019-08-17T14:47:51Z</time>
      </trkpt>
      <trkpt lat="47.18585" lon="5.96158">
        <ele>233.5</ele>
        <time>2019-08-17T14:47:52Z</time>
      </trkpt>
      <trkpt lat="47.18581" lon="5.96152">
        <ele>233.5</ele>
        <time>2019-08-17T14:47:53Z</time>
      </trkpt>
      <trkpt lat="47.18578" lon="5.96146">
        <ele>233.5</ele>
        <time>2019-08-17T14:47:54Z</time>
      </trkpt>
      <trkpt lat="47.18574" lon="5.9614">
        <ele>233.5</ele>
        <time>2019-08-17T14:47:55Z</time>
      </trkpt>
      <trkpt lat="47.18571" lon="5.96133">
        <ele>233.5</ele>
        <time>2019-08-17T14:47:56Z</time>
      </trkpt>
      <trkpt lat="47.18567" lon="5.96128">
        <ele>233.5</ele>
        <time>2019-08-17T14:47:57Z</time>
      </trkpt>
      <trkpt lat="47.18565" lon="5.96123">
        <ele>233.5</ele>
        <time>2019-08-17T14:47:58Z</time>
      </trkpt>
      <trkpt lat="47.18562" lon="5.96118">
        <ele>233.6</ele>
        <time>2019-08-17T14:47:59Z</time>
      </trkpt>
      <trkpt lat="47.1856" lon="5.96113">
        <ele>233.6</ele>
        <time>2019-08-17T14:48:00Z</time>
      </trkpt>
      <trkpt lat="47.18556" lon="5.96107">
        <ele>233.6</ele>
        <time>2019-08-17T14:48:01Z</time>
      </trkpt>
      <trkpt lat="47.18554" lon="5.96102">
        <ele>233.6</ele>
        <time>2019-08-17T14:48:02Z</time>
      </trkpt>
      <trkpt lat="47.18551" lon="5.96097">
        <ele>233.6</ele>
        <time>2019-08-17T14:48:03Z</time>
      </trkpt>
      <trkpt lat="47.18548" lon="5.96091">
        <ele>233.6</ele>
        <time>2019-08-17T14:48:04Z</time>
      </trkpt>
      <trkpt lat="47.18544" lon="5.96085">
        <ele>233.7</ele>
        <time>2019-08-17T14:48:05Z</time>
      </trkpt>
      <trkpt lat="47.18541" lon="5.96079">
        <ele>233.7</ele>
        <time>2019-08-17T14:48:06Z</time>
      </trkpt>
      <trkpt lat="47.18537" lon="5.96075">
        <ele>233.7</ele>
        <time>2019-08-17T14:48:07Z</time>
      </trkpt>
      <trkpt lat="47.18534" lon="5.9607">
        <ele>233.7</ele>
        <time>2019-08-17T14:48:08Z</time>
      </trkpt>
      <trkpt lat="47.18531" lon="5.96065">
        <ele>233.7</ele>
        <time>2019-08-17T14:48:09Z</time>
      </trkpt>
      <trkpt lat="47.18528" lon="5.96059">
        <ele>233.8</ele>
        <time>2019-08-17T14:48:10Z</time>
      </trkpt>
      <trkpt lat="47.18525" lon="5.96054">
        <ele>233.8</ele>
        <time>2019-08-17T14:48:11Z</time>
      </trkpt>
      <trkpt lat="47.18523" lon="5.96049">
        <ele>233.8</ele>
        <time>2019-08-17T14:48:12Z</time>
      </trkpt>
      <trkpt lat="47.1852" lon="5.96044">
        <ele>233.8</ele>
        <time>2019-08-17T14:48:13Z</time>
      </trkpt>
      <trkpt lat="47.18517" lon="5.96038">
        <ele>233.7</ele>
        <time>2019-08-17T14:48:14Z</time>
      </trkpt>
      <trkpt lat="47.18514" lon="5.96032">
        <ele>233.7</ele>
        <time>2019-08-17T14:48:15Z</time>
      </trkpt>
      <trkpt lat="47.18512" lon="5.96026">
        <ele>233.7</ele>
        <time>2019-08-17T14:48:16Z</time>
      </trkpt>
      <trkpt lat="47.18509" lon="5.96021">
        <ele>233.7</ele>
        <time>2019-08-17T14:48:17Z</time>
      </trkpt>
      <trkpt lat="47.18506" lon="5.96016">
        <ele>233.7</ele>
        <time>2019-08-17T14:48:18Z</time>
      </trkpt>
      <trkpt lat="47.18504" lon="5.96011">
        <ele>233.7</ele>
        <time>2019-08-17T14:48:19Z</time>
      </trkpt>
      <trkpt lat="47.18502" lon="5.96007">
        <ele>233.7</ele>
        <time>2019-08-17T14:48:20Z</time>
      </trkpt>
      <trkpt lat="47.18499" lon="5.96003">
        <ele>233.7</ele>
        <time>2019-08-17T14:48:21Z</time>
      </trkpt>
      <trkpt lat="47.18497" lon="5.95999">
        <ele>233.6</ele>
        <time>2019-08-17T14:48:22Z</time>
      </trkpt>
      <trkpt lat="47.18493" lon="5.95994">
        <ele>233.6</ele>
        <time>2019-08-17T14:48:23Z</time>
      </trkpt>
      <trkpt lat="47.1849" lon="5.9599">
        <ele>233.6</ele>
        <time>2019-08-17T14:48:24Z</time>
      </trkpt>
      <trkpt lat="47.18488" lon="5.95985">
        <ele>233.6</ele>
        <time>2019-08-17T14:48:25Z</time>
      </trkpt>
      <trkpt lat="47.18485" lon="5.95979">
        <ele>233.6</ele>
        <time>2019-08-17T14:48:26Z</time>
      </trkpt>
      <trkpt lat="47.18482" lon="5.95974">
        <ele>233.6</ele>
        <time>2019-08-17T14:48:27Z</time>
      </trkpt>
      <trkpt lat="47.18479" lon="5.95969">
        <ele>233.6</ele>
        <time>2019-08-17T14:48:28Z</time>
      </trkpt>
      <trkpt lat="47.18475" lon="5.95963">
        <ele>233.6</ele>
        <time>2019-08-17T14:48:29Z</time>
      </trkpt>
      <trkpt lat="47.18472" lon="5.95958">
        <ele>233.6</ele>
        <time>2019-08-17T14:48:30Z</time>
      </trkpt>
      <trkpt lat="47.18469" lon="5.95954">
        <ele>233.6</ele>
        <time>2019-08-17T14:48:31Z</time>
      </trkpt>
      <trkpt lat="47.18466" lon="5.95949">
        <ele>233.6</ele>
        <time>2019-08-17T14:48:32Z</time>
      </trkpt>
      <trkpt lat="47.18463" lon="5.95944">
        <ele>233.5</ele>
        <time>2019-08-17T14:48:33Z</time>
      </trkpt>
      <trkpt lat="47.18461" lon="5.95939">
        <ele>233.5</ele>
        <time>2019-08-17T14:48:34Z</time>
      </trkpt>
      <trkpt lat="47.18458" lon="5.95934">
        <ele>233.5</ele>
        <time>2019-08-17T14:48:35Z</time>
      </trkpt>
      <trkpt lat="47.18455" lon="5.95928">
        <ele>233.5</ele>
        <time>2019-08-17T14:48:36Z</time>
      </trkpt>
      <trkpt lat="47.18451" lon="5.95922">
        <ele>233.5</ele>
        <time>2019-08-17T14:48:37Z</time>
      </trkpt>
      <trkpt lat="47.18447" lon="5.95916">
        <ele>233.5</ele>
        <time>2019-08-17T14:48:38Z</time>
      </trkpt>
      <trkpt lat="47.18443" lon="5.9591">
        <ele>233.5</ele>
        <time>2019-08-17T14:48:39Z</time>
      </trkpt>
      <trkpt lat="47.1844" lon="5.95905">
        <ele>233.5</ele>
        <time>2019-08-17T14:48:40Z</time>
      </trkpt>
      <trkpt lat="47.18437" lon="5.959">
        <ele>233.5</ele>
        <time>2019-08-17T14:48:41Z</time>
      </trkpt>
      <trkpt lat="47.18433" lon="5.95894">
        <ele>233.5</ele>
        <time>2019-08-17T14:48:42Z</time>
      </trkpt>
      <trkpt lat="47.1843" lon="5.9589">
        <ele>233.5</ele>
        <time>2019-08-17T14:48:43Z</time>
      </trkpt>
      <trkpt lat="47.18427" lon="5.95886">
        <ele>233.4</ele>
        <time>2019-08-17T14:48:44Z</time>
      </trkpt>
      <trkpt lat="47.18423" lon="5.95881">
        <ele>233.4</ele>
        <time>2019-08-17T14:48:45Z</time>
      </trkpt>
      <trkpt lat="47.1842" lon="5.95877">
        <ele>233.4</ele>
        <time>2019-08-17T14:48:46Z</time>
      </trkpt>
      <trkpt lat="47.18416" lon="5.95872">
        <ele>233.4</ele>
        <time>2019-08-17T14:48:47Z</time>
      </trkpt>
      <trkpt lat="47.18413" lon="5.95865">
        <ele>233.4</ele>
        <time>2019-08-17T14:48:48Z</time>
      </trkpt>
      <trkpt lat="47.18409" lon="5.95861">
        <ele>233.3</ele>
        <time>2019-08-17T14:48:49Z</time>
      </trkpt>
      <trkpt lat="47.18407" lon="5.95856">
        <ele>233.3</ele>
        <time>2019-08-17T14:48:50Z</time>
      </trkpt>
      <trkpt lat="47.18403" lon="5.95851">
        <ele>233.3</ele>
        <time>2019-08-17T14:48:51Z</time>
      </trkpt>
      <trkpt lat="47.18401" lon="5.95847">
        <ele>233.3</ele>
        <time>2019-08-17T14:48:52Z</time>
      </trkpt>
      <trkpt lat="47.18398" lon="5.95842">
        <ele>233.2</ele>
        <time>2019-08-17T14:48:53Z</time>
      </trkpt>
      <trkpt lat="47.18396" lon="5.95836">
        <ele>233.2</ele>
        <time>2019-08-17T14:48:54Z</time>
      </trkpt>
      <trkpt lat="47.18393" lon="5.9583">
        <ele>233.2</ele>
        <time>2019-08-17T14:48:55Z</time>
      </trkpt>
      <trkpt lat="47.1839" lon="5.95825">
        <ele>233.2</ele>
        <time>2019-08-17T14:48:56Z</time>
      </trkpt>
      <trkpt lat="47.18388" lon="5.95819">
        <ele>233.1</ele>
        <time>2019-08-17T14:48:57Z</time>
      </trkpt>
      <trkpt lat="47.18385" lon="5.95814">
        <ele>233.1</ele>
        <time>2019-08-17T14:48:58Z</time>
      </trkpt>
      <trkpt lat="47.18382" lon="5.95809">
        <ele>233</ele>
        <time>2019-08-17T14:48:59Z</time>
      </trkpt>
      <trkpt lat="47.1838" lon="5.95803">
        <ele>233</ele>
        <time>2019-08-17T14:49:00Z</time>
      </trkpt>
      <trkpt lat="47.18377" lon="5.95799">
        <ele>232.9</ele>
        <time>2019-08-17T14:49:01Z</time>
      </trkpt>
      <trkpt lat="47.18374" lon="5.95794">
        <ele>232.9</ele>
        <time>2019-08-17T14:49:02Z</time>
      </trkpt>
      <trkpt lat="47.18371" lon="5.95789">
        <ele>232.8</ele>
        <time>2019-08-17T14:49:03Z</time>
      </trkpt>
      <trkpt lat="47.18368" lon="5.95784">
        <ele>232.8</ele>
        <time>2019-08-17T14:49:04Z</time>
      </trkpt>
      <trkpt lat="47.18365" lon="5.95779">
        <ele>232.7</ele>
        <time>2019-08-17T14:49:05Z</time>
      </trkpt>
      <trkpt lat="47.18363" lon="5.95774">
        <ele>232.7</ele>
        <time>2019-08-17T14:49:06Z</time>
      </trkpt>
      <trkpt lat="47.1836" lon="5.95769">
        <ele>232.7</ele>
        <time>2019-08-17T14:49:07Z</time>
      </trkpt>
      <trkpt lat="47.18358" lon="5.95764">
        <ele>232.6</ele>
        <time>2019-08-17T14:49:08Z</time>
      </trkpt>
      <trkpt lat="47.18355" lon="5.95759">
        <ele>232.6</ele>
        <time>2019-08-17T14:49:09Z</time>
      </trkpt>
      <trkpt lat="47.18352" lon="5.95753">
        <ele>232.6</ele>
        <time>2019-08-17T14:49:10Z</time>
      </trkpt>
      <trkpt lat="47.18349" lon="5.95746">
        <ele>232.6</ele>
        <time>2019-08-17T14:49:11Z</time>
      </trkpt>
      <trkpt lat="47.18346" lon="5.9574">
        <ele>232.6</ele>
        <time>2019-08-17T14:49:12Z</time>
      </trkpt>
      <trkpt lat="47.18343" lon="5.95734">
        <ele>232.6</ele>
        <time>2019-08-17T14:49:13Z</time>
      </trkpt>
      <trkpt lat="47.1834" lon="5.95729">
        <ele>232.6</ele>
        <time>2019-08-17T14:49:14Z</time>
      </trkpt>
      <trkpt lat="47.18337" lon="5.95724">
        <ele>232.6</ele>
        <time>2019-08-17T14:49:15Z</time>
      </trkpt>
      <trkpt lat="47.18334" lon="5.9572">
        <ele>232.6</ele>
        <time>2019-08-17T14:49:16Z</time>
      </trkpt>
      <trkpt lat="47.18332" lon="5.95713">
        <ele>232.6</ele>
        <time>2019-08-17T14:49:17Z</time>
      </trkpt>
      <trkpt lat="47.1833" lon="5.95707">
        <ele>232.6</ele>
        <time>2019-08-17T14:49:18Z</time>
      </trkpt>
      <trkpt lat="47.18326" lon="5.95703">
        <ele>232.7</ele>
        <time>2019-08-17T14:49:19Z</time>
      </trkpt>
      <trkpt lat="47.18324" lon="5.95697">
        <ele>232.7</ele>
        <time>2019-08-17T14:49:20Z</time>
      </trkpt>
      <trkpt lat="47.18321" lon="5.95693">
        <ele>232.7</ele>
        <time>2019-08-17T14:49:21Z</time>
      </trkpt>
      <trkpt lat="47.18319" lon="5.95688">
        <ele>232.8</ele>
        <time>2019-08-17T14:49:22Z</time>
      </trkpt>
      <trkpt lat="47.18314" lon="5.95686">
        <ele>232.8</ele>
        <time>2019-08-17T14:49:23Z</time>
      </trkpt>
      <trkpt lat="47.1831" lon="5.95682">
        <ele>232.9</ele>
        <time>2019-08-17T14:49:24Z</time>
      </trkpt>
      <trkpt lat="47.18307" lon="5.95677">
        <ele>233</ele>
        <time>2019-08-17T14:49:25Z</time>
      </trkpt>
      <trkpt lat="47.18304" lon="5.95672">
        <ele>233.1</ele>
        <time>2019-08-17T14:49:26Z</time>
      </trkpt>
      <trkpt lat="47.183" lon="5.95668">
        <ele>233.1</ele>
        <time>2019-08-17T14:49:27Z</time>
      </trkpt>
      <trkpt lat="47.18296" lon="5.95662">
        <ele>233.2</ele>
        <time>2019-08-17T14:49:28Z</time>
      </trkpt>
      <trkpt lat="47.18293" lon="5.95656">
        <ele>233.3</ele>
        <time>2019-08-17T14:49:29Z</time>
      </trkpt>
      <trkpt lat="47.1829" lon="5.9565">
        <ele>233.3</ele>
        <time>2019-08-17T14:49:30Z</time>
      </trkpt>
      <trkpt lat="47.18287" lon="5.95644">
        <ele>233.4</ele>
        <time>2019-08-17T14:49:31Z</time>
      </trkpt>
      <trkpt lat="47.18285" lon="5.95637">
        <ele>233.4</ele>
        <time>2019-08-17T14:49:32Z</time>
      </trkpt>
      <trkpt lat="47.18282" lon="5.95632">
        <ele>233.4</ele>
        <time>2019-08-17T14:49:33Z</time>
      </trkpt>
      <trkpt lat="47.1828" lon="5.95625">
        <ele>233.5</ele>
        <time>2019-08-17T14:49:34Z</time>
      </trkpt>
      <trkpt lat="47.18275" lon="5.9562">
        <ele>233.5</ele>
        <time>2019-08-17T14:49:35Z</time>
      </trkpt>
      <trkpt lat="47.18272" lon="5.95614">
        <ele>233.5</ele>
        <time>2019-08-17T14:49:36Z</time>
      </trkpt>
      <trkpt lat="47.1827" lon="5.95608">
        <ele>233.5</ele>
        <time>2019-08-17T14:49:37Z</time>
      </trkpt>
      <trkpt lat="47.18267" lon="5.95602">
        <ele>233.6</ele>
        <time>2019-08-17T14:49:38Z</time>
      </trkpt>
      <trkpt lat="47.18265" lon="5.95596">
        <ele>233.6</ele>
        <time>2019-08-17T14:49:39Z</time>
      </trkpt>
      <trkpt lat="47.18263" lon="5.9559">
        <ele>233.6</ele>
        <time>2019-08-17T14:49:40Z</time>
      </trkpt>
      <trkpt lat="47.18261" lon="5.95584">
        <ele>233.6</ele>
        <time>2019-08-17T14:49:41Z</time>
      </trkpt>
      <trkpt lat="47.18259" lon="5.95576">
        <ele>233.6</ele>
        <time>2019-08-17T14:49:42Z</time>
      </trkpt>
      <trkpt lat="47.18256" lon="5.9557">
        <ele>233.6</ele>
        <time>2019-08-17T14:49:43Z</time>
      </trkpt>
      <trkpt lat="47.18254" lon="5.95564">
        <ele>233.6</ele>
        <time>2019-08-17T14:49:44Z</time>
      </trkpt>
      <trkpt lat="47.18252" lon="5.95558">
        <ele>233.6</ele>
        <time>2019-08-17T14:49:45Z</time>
      </trkpt>
      <trkpt lat="47.18249" lon="5.95553">
        <ele>233.6</ele>
        <time>2019-08-17T14:49:46Z</time>
      </trkpt>
      <trkpt lat="47.18248" lon="5.95547">
        <ele>233.6</ele>
        <time>2019-08-17T14:49:47Z</time>
      </trkpt>
      <trkpt lat="47.18246" lon="5.9554">
        <ele>233.6</ele>
        <time>2019-08-17T14:49:48Z</time>
      </trkpt>
      <trkpt lat="47.18244" lon="5.95534">
        <ele>233.6</ele>
        <time>2019-08-17T14:49:49Z</time>
      </trkpt>
      <trkpt lat="47.18242" lon="5.95527">
        <ele>233.6</ele>
        <time>2019-08-17T14:49:50Z</time>
      </trkpt>
      <trkpt lat="47.1824" lon="5.95521">
        <ele>233.5</ele>
        <time>2019-08-17T14:49:51Z</time>
      </trkpt>
      <trkpt lat="47.18239" lon="5.95515">
        <ele>233.5</ele>
        <time>2019-08-17T14:49:52Z</time>
      </trkpt>
      <trkpt lat="47.18237" lon="5.95509">
        <ele>233.5</ele>
        <time>2019-08-17T14:49:53Z</time>
      </trkpt>
      <trkpt lat="47.18236" lon="5.95503">
        <ele>233.5</ele>
        <time>2019-08-17T14:49:54Z</time>
      </trkpt>
      <trkpt lat="47.18235" lon="5.95496">
        <ele>233.4</ele>
        <time>2019-08-17T14:49:55Z</time>
      </trkpt>
      <trkpt lat="47.18234" lon="5.9549">
        <ele>233.4</ele>
        <time>2019-08-17T14:49:56Z</time>
      </trkpt>
      <trkpt lat="47.18233" lon="5.95484">
        <ele>233.3</ele>
        <time>2019-08-17T14:49:57Z</time>
      </trkpt>
      <trkpt lat="47.18231" lon="5.95479">
        <ele>233.3</ele>
        <time>2019-08-17T14:49:58Z</time>
      </trkpt>
      <trkpt lat="47.1823" lon="5.95474">
        <ele>233.3</ele>
        <time>2019-08-17T14:49:59Z</time>
      </trkpt>
      <trkpt lat="47.18228" lon="5.95468">
        <ele>233.2</ele>
        <time>2019-08-17T14:50:00Z</time>
      </trkpt>
      <trkpt lat="47.18226" lon="5.9546">
        <ele>233.2</ele>
        <time>2019-08-17T14:50:01Z</time>
      </trkpt>
      <trkpt lat="47.18224" lon="5.95453">
        <ele>233.1</ele>
        <time>2019-08-17T14:50:02Z</time>
      </trkpt>
      <trkpt lat="47.18222" lon="5.95446">
        <ele>233.1</ele>
        <time>2019-08-17T14:50:03Z</time>
      </trkpt>
      <trkpt lat="47.1822" lon="5.95439">
        <ele>233</ele>
        <time>2019-08-17T14:50:04Z</time>
      </trkpt>
      <trkpt lat="47.18218" lon="5.95432">
        <ele>233</ele>
        <time>2019-08-17T14:50:05Z</time>
      </trkpt>
      <trkpt lat="47.18217" lon="5.95425">
        <ele>233</ele>
        <time>2019-08-17T14:50:06Z</time>
      </trkpt>
      <trkpt lat="47.18216" lon="5.95419">
        <ele>232.9</ele>
        <time>2019-08-17T14:50:07Z</time>
      </trkpt>
      <trkpt lat="47.18214" lon="5.95413">
        <ele>232.9</ele>
        <time>2019-08-17T14:50:08Z</time>
      </trkpt>
      <trkpt lat="47.18214" lon="5.95407">
        <ele>232.8</ele>
        <time>2019-08-17T14:50:09Z</time>
      </trkpt>
      <trkpt lat="47.18213" lon="5.95401">
        <ele>232.8</ele>
        <time>2019-08-17T14:50:10Z</time>
      </trkpt>
      <trkpt lat="47.18212" lon="5.95397">
        <ele>232.8</ele>
        <time>2019-08-17T14:50:11Z</time>
      </trkpt>
      <trkpt lat="47.18211" lon="5.95391">
        <ele>232.7</ele>
        <time>2019-08-17T14:50:12Z</time>
      </trkpt>
      <trkpt lat="47.1821" lon="5.95385">
        <ele>232.7</ele>
        <time>2019-08-17T14:50:13Z</time>
      </trkpt>
      <trkpt lat="47.18209" lon="5.9538">
        <ele>232.7</ele>
        <time>2019-08-17T14:50:14Z</time>
      </trkpt>
      <trkpt lat="47.18208" lon="5.95373">
        <ele>232.6</ele>
        <time>2019-08-17T14:50:15Z</time>
      </trkpt>
      <trkpt lat="47.18206" lon="5.95367">
        <ele>232.6</ele>
        <time>2019-08-17T14:50:16Z</time>
      </trkpt>
      <trkpt lat="47.18205" lon="5.9536">
        <ele>232.5</ele>
        <time>2019-08-17T14:50:17Z</time>
      </trkpt>
      <trkpt lat="47.18205" lon="5.95352">
        <ele>232.5</ele>
        <time>2019-08-17T14:50:18Z</time>
      </trkpt>
      <trkpt lat="47.18204" lon="5.95345">
        <ele>232.4</ele>
        <time>2019-08-17T14:50:19Z</time>
      </trkpt>
      <trkpt lat="47.18202" lon="5.95338">
        <ele>232.4</ele>
        <time>2019-08-17T14:50:20Z</time>
      </trkpt>
      <trkpt lat="47.182" lon="5.95333">
        <ele>232.4</ele>
        <time>2019-08-17T14:50:21Z</time>
      </trkpt>
      <trkpt lat="47.18198" lon="5.95328">
        <ele>232.3</ele>
        <time>2019-08-17T14:50:22Z</time>
      </trkpt>
      <trkpt lat="47.18197" lon="5.95322">
        <ele>232.3</ele>
        <time>2019-08-17T14:50:23Z</time>
      </trkpt>
      <trkpt lat="47.18194" lon="5.95317">
        <ele>232.3</ele>
        <time>2019-08-17T14:50:24Z</time>
      </trkpt>
      <trkpt lat="47.18193" lon="5.95309">
        <ele>232.2</ele>
        <time>2019-08-17T14:50:25Z</time>
      </trkpt>
      <trkpt lat="47.18192" lon="5.95303">
        <ele>232.2</ele>
        <time>2019-08-17T14:50:26Z</time>
      </trkpt>
      <trkpt lat="47.18189" lon="5.95298">
        <ele>232.2</ele>
        <time>2019-08-17T14:50:27Z</time>
      </trkpt>
      <trkpt lat="47.18189" lon="5.95291">
        <ele>232.2</ele>
        <time>2019-08-17T14:50:28Z</time>
      </trkpt>
      <trkpt lat="47.18189" lon="5.95284">
        <ele>232.1</ele>
        <time>2019-08-17T14:50:29Z</time>
      </trkpt>
      <trkpt lat="47.18188" lon="5.95277">
        <ele>232.1</ele>
        <time>2019-08-17T14:50:30Z</time>
      </trkpt>
      <trkpt lat="47.18187" lon="5.95271">
        <ele>232.1</ele>
        <time>2019-08-17T14:50:31Z</time>
      </trkpt>
      <trkpt lat="47.18186" lon="5.95264">
        <ele>232.1</ele>
        <time>2019-08-17T14:50:32Z</time>
      </trkpt>
      <trkpt lat="47.18184" lon="5.95258">
        <ele>232.1</ele>
        <time>2019-08-17T14:50:33Z</time>
      </trkpt>
      <trkpt lat="47.18182" lon="5.95251">
        <ele>232.1</ele>
        <time>2019-08-17T14:50:34Z</time>
      </trkpt>
      <trkpt lat="47.18181" lon="5.95244">
        <ele>232.1</ele>
        <time>2019-08-17T14:50:35Z</time>
      </trkpt>
      <trkpt lat="47.1818" lon="5.95237">
        <ele>232.1</ele>
        <time>2019-08-17T14:50:36Z</time>
      </trkpt>
      <trkpt lat="47.18179" lon="5.95231">
        <ele>232.1</ele>
        <time>2019-08-17T14:50:37Z</time>
      </trkpt>
      <trkpt lat="47.18178" lon="5.95224">
        <ele>232.1</ele>
        <time>2019-08-17T14:50:38Z</time>
      </trkpt>
      <trkpt lat="47.18177" lon="5.95217">
        <ele>232.1</ele>
        <time>2019-08-17T14:50:39Z</time>
      </trkpt>
      <trkpt lat="47.18176" lon="5.95211">
        <ele>232.1</ele>
        <time>2019-08-17T14:50:40Z</time>
      </trkpt>
      <trkpt lat="47.18174" lon="5.95204">
        <ele>232.1</ele>
        <time>2019-08-17T14:50:41Z</time>
      </trkpt>
      <trkpt lat="47.18172" lon="5.95198">
        <ele>232.1</ele>
        <time>2019-08-17T14:50:42Z</time>
      </trkpt>
      <trkpt lat="47.18171" lon="5.95191">
        <ele>232.1</ele>
        <time>2019-08-17T14:50:43Z</time>
      </trkpt>
      <trkpt lat="47.18169" lon="5.95185">
        <ele>232.2</ele>
        <time>2019-08-17T14:50:44Z</time>
      </trkpt>
      <trkpt lat="47.18167" lon="5.95178">
        <ele>232.2</ele>
        <time>2019-08-17T14:50:45Z</time>
      </trkpt>
      <trkpt lat="47.18166" lon="5.95171">
        <ele>232.2</ele>
        <time>2019-08-17T14:50:46Z</time>
      </trkpt>
      <trkpt lat="47.18164" lon="5.95164">
        <ele>232.3</ele>
        <time>2019-08-17T14:50:47Z</time>
      </trkpt>
      <trkpt lat="47.18163" lon="5.95158">
        <ele>232.3</ele>
        <time>2019-08-17T14:50:48Z</time>
      </trkpt>
      <trkpt lat="47.18161" lon="5.95152">
        <ele>232.4</ele>
        <time>2019-08-17T14:50:49Z</time>
      </trkpt>
      <trkpt lat="47.18159" lon="5.95146">
        <ele>232.4</ele>
        <time>2019-08-17T14:50:50Z</time>
      </trkpt>
      <trkpt lat="47.18158" lon="5.9514">
        <ele>231.9</ele>
        <time>2019-08-17T14:50:51Z</time>
      </trkpt>
      <trkpt lat="47.18158" lon="5.95135">
        <ele>231.3</ele>
        <time>2019-08-17T14:50:52Z</time>
      </trkpt>
      <trkpt lat="47.18157" lon="5.95128">
        <ele>230.8</ele>
        <time>2019-08-17T14:50:53Z</time>
      </trkpt>
      <trkpt lat="47.18156" lon="5.95121">
        <ele>230.2</ele>
        <time>2019-08-17T14:50:54Z</time>
      </trkpt>
      <trkpt lat="47.18155" lon="5.95114">
        <ele>229.7</ele>
        <time>2019-08-17T14:50:55Z</time>
      </trkpt>
      <trkpt lat="47.18153" lon="5.95109">
        <ele>229.7</ele>
        <time>2019-08-17T14:50:56Z</time>
      </trkpt>
      <trkpt lat="47.18152" lon="5.95102">
        <ele>229.7</ele>
        <time>2019-08-17T14:50:57Z</time>
      </trkpt>
      <trkpt lat="47.18151" lon="5.95096">
        <ele>229.7</ele>
        <time>2019-08-17T14:50:58Z</time>
      </trkpt>
      <trkpt lat="47.18149" lon="5.9509">
        <ele>229.7</ele>
        <time>2019-08-17T14:50:59Z</time>
      </trkpt>
      <trkpt lat="47.18148" lon="5.95084">
        <ele>229.6</ele>
        <time>2019-08-17T14:51:00Z</time>
      </trkpt>
      <trkpt lat="47.18146" lon="5.95078">
        <ele>229.5</ele>
        <time>2019-08-17T14:51:01Z</time>
      </trkpt>
      <trkpt lat="47.18144" lon="5.95072">
        <ele>229.5</ele>
        <time>2019-08-17T14:51:02Z</time>
      </trkpt>
      <trkpt lat="47.18141" lon="5.95066">
        <ele>229.4</ele>
        <time>2019-08-17T14:51:03Z</time>
      </trkpt>
      <trkpt lat="47.18139" lon="5.95059">
        <ele>229.3</ele>
        <time>2019-08-17T14:51:04Z</time>
      </trkpt>
      <trkpt lat="47.18137" lon="5.95052">
        <ele>229.3</ele>
        <time>2019-08-17T14:51:05Z</time>
      </trkpt>
      <trkpt lat="47.18134" lon="5.95046">
        <ele>229.4</ele>
        <time>2019-08-17T14:51:06Z</time>
      </trkpt>
      <trkpt lat="47.18133" lon="5.95039">
        <ele>229.5</ele>
        <time>2019-08-17T14:51:07Z</time>
      </trkpt>
      <trkpt lat="47.18131" lon="5.95033">
        <ele>229.5</ele>
        <time>2019-08-17T14:51:08Z</time>
      </trkpt>
      <trkpt lat="47.1813" lon="5.95026">
        <ele>229.6</ele>
        <time>2019-08-17T14:51:09Z</time>
      </trkpt>
      <trkpt lat="47.18128" lon="5.9502">
        <ele>229.6</ele>
        <time>2019-08-17T14:51:10Z</time>
      </trkpt>
      <trkpt lat="47.18126" lon="5.95015">
        <ele>229.6</ele>
        <time>2019-08-17T14:51:11Z</time>
      </trkpt>
      <trkpt lat="47.18125" lon="5.95009">
        <ele>229.6</ele>
        <time>2019-08-17T14:51:12Z</time>
      </trkpt>
      <trkpt lat="47.18124" lon="5.95002">
        <ele>229.6</ele>
        <time>2019-08-17T14:51:13Z</time>
      </trkpt>
      <trkpt lat="47.18123" lon="5.94995">
        <ele>229.5</ele>
        <time>2019-08-17T14:51:14Z</time>
      </trkpt>
      <trkpt lat="47.18121" lon="5.94989">
        <ele>229.5</ele>
        <time>2019-08-17T14:51:15Z</time>
      </trkpt>
      <trkpt lat="47.18119" lon="5.94983">
        <ele>229.5</ele>
        <time>2019-08-17T14:51:16Z</time>
      </trkpt>
      <trkpt lat="47.18117" lon="5.94977">
        <ele>229.4</ele>
        <time>2019-08-17T14:51:17Z</time>
      </trkpt>
      <trkpt lat="47.18115" lon="5.9497">
        <ele>229.4</ele>
        <time>2019-08-17T14:51:18Z</time>
      </trkpt>
      <trkpt lat="47.18113" lon="5.94963">
        <ele>229.4</ele>
        <time>2019-08-17T14:51:19Z</time>
      </trkpt>
      <trkpt lat="47.18111" lon="5.94957">
        <ele>229.4</ele>
        <time>2019-08-17T14:51:20Z</time>
      </trkpt>
      <trkpt lat="47.1811" lon="5.94951">
        <ele>229.4</ele>
        <time>2019-08-17T14:51:21Z</time>
      </trkpt>
      <trkpt lat="47.18108" lon="5.94945">
        <ele>229.4</ele>
        <time>2019-08-17T14:51:22Z</time>
      </trkpt>
      <trkpt lat="47.18107" lon="5.94938">
        <ele>229.4</ele>
        <time>2019-08-17T14:51:23Z</time>
      </trkpt>
      <trkpt lat="47.18106" lon="5.94931">
        <ele>229.4</ele>
        <time>2019-08-17T14:51:24Z</time>
      </trkpt>
      <trkpt lat="47.18104" lon="5.94924">
        <ele>229.4</ele>
        <time>2019-08-17T14:51:25Z</time>
      </trkpt>
      <trkpt lat="47.18103" lon="5.94916">
        <ele>229.3</ele>
        <time>2019-08-17T14:51:26Z</time>
      </trkpt>
      <trkpt lat="47.18102" lon="5.94909">
        <ele>229.3</ele>
        <time>2019-08-17T14:51:27Z</time>
      </trkpt>
      <trkpt lat="47.18099" lon="5.94902">
        <ele>229.2</ele>
        <time>2019-08-17T14:51:28Z</time>
      </trkpt>
      <trkpt lat="47.18097" lon="5.94896">
        <ele>229.2</ele>
        <time>2019-08-17T14:51:29Z</time>
      </trkpt>
      <trkpt lat="47.18095" lon="5.94889">
        <ele>229.2</ele>
        <time>2019-08-17T14:51:30Z</time>
      </trkpt>
      <trkpt lat="47.18094" lon="5.94883">
        <ele>229.2</ele>
        <time>2019-08-17T14:51:31Z</time>
      </trkpt>
      <trkpt lat="47.18092" lon="5.94877">
        <ele>229.2</ele>
        <time>2019-08-17T14:51:32Z</time>
      </trkpt>
      <trkpt lat="47.1809" lon="5.94871">
        <ele>229.2</ele>
        <time>2019-08-17T14:51:33Z</time>
      </trkpt>
      <trkpt lat="47.18089" lon="5.94865">
        <ele>229.2</ele>
        <time>2019-08-17T14:51:34Z</time>
      </trkpt>
      <trkpt lat="47.18087" lon="5.94858">
        <ele>229.2</ele>
        <time>2019-08-17T14:51:35Z</time>
      </trkpt>
      <trkpt lat="47.18085" lon="5.94852">
        <ele>229.2</ele>
        <time>2019-08-17T14:51:36Z</time>
      </trkpt>
      <trkpt lat="47.18084" lon="5.94845">
        <ele>229.2</ele>
        <time>2019-08-17T14:51:37Z</time>
      </trkpt>
      <trkpt lat="47.18083" lon="5.94837">
        <ele>229.2</ele>
        <time>2019-08-17T14:51:38Z</time>
      </trkpt>
      <trkpt lat="47.18082" lon="5.94831">
        <ele>229.2</ele>
        <time>2019-08-17T14:51:39Z</time>
      </trkpt>
      <trkpt lat="47.18079" lon="5.94824">
        <ele>229.2</ele>
        <time>2019-08-17T14:51:40Z</time>
      </trkpt>
      <trkpt lat="47.18078" lon="5.94819">
        <ele>229.2</ele>
        <time>2019-08-17T14:51:41Z</time>
      </trkpt>
      <trkpt lat="47.18076" lon="5.94814">
        <ele>229.2</ele>
        <time>2019-08-17T14:51:42Z</time>
      </trkpt>
      <trkpt lat="47.18075" lon="5.94809">
        <ele>229.2</ele>
        <time>2019-08-17T14:51:43Z</time>
      </trkpt>
      <trkpt lat="47.18072" lon="5.94804">
        <ele>229.2</ele>
        <time>2019-08-17T14:51:44Z</time>
      </trkpt>
      <trkpt lat="47.18067" lon="5.94799">
        <ele>229.1</ele>
        <time>2019-08-17T14:51:45Z</time>
      </trkpt>
      <trkpt lat="47.18064" lon="5.94793">
        <ele>229</ele>
        <time>2019-08-17T14:51:46Z</time>
      </trkpt>
      <trkpt lat="47.18062" lon="5.94786">
        <ele>228.9</ele>
        <time>2019-08-17T14:51:47Z</time>
      </trkpt>
      <trkpt lat="47.18061" lon="5.94781">
        <ele>228.8</ele>
        <time>2019-08-17T14:51:48Z</time>
      </trkpt>
      <trkpt lat="47.1806" lon="5.94775">
        <ele>228.7</ele>
        <time>2019-08-17T14:51:49Z</time>
      </trkpt>
      <trkpt lat="47.18058" lon="5.94768">
        <ele>228.5</ele>
        <time>2019-08-17T14:51:50Z</time>
      </trkpt>
      <trkpt lat="47.18056" lon="5.94759">
        <ele>228.3</ele>
        <time>2019-08-17T14:51:51Z</time>
      </trkpt>
      <trkpt lat="47.18053" lon="5.9475">
        <ele>228.1</ele>
        <time>2019-08-17T14:51:52Z</time>
      </trkpt>
      <trkpt lat="47.1805" lon="5.94742">
        <ele>228.5</ele>
        <time>2019-08-17T14:51:53Z</time>
      </trkpt>
      <trkpt lat="47.18048" lon="5.94731">
        <ele>228.5</ele>
        <time>2019-08-17T14:51:54Z</time>
      </trkpt>
      <trkpt lat="47.18046" lon="5.94722">
        <ele>228.8</ele>
        <time>2019-08-17T14:51:55Z</time>
      </trkpt>
      <trkpt lat="47.18044" lon="5.94714">
        <ele>228.9</ele>
        <time>2019-08-17T14:51:56Z</time>
      </trkpt>
      <trkpt lat="47.18042" lon="5.94705">
        <ele>229</ele>
        <time>2019-08-17T14:51:57Z</time>
      </trkpt>
      <trkpt lat="47.18039" lon="5.94698">
        <ele>229.1</ele>
        <time>2019-08-17T14:51:58Z</time>
      </trkpt>
      <trkpt lat="47.18038" lon="5.94693">
        <ele>229.2</ele>
        <time>2019-08-17T14:51:59Z</time>
      </trkpt>
      <trkpt lat="47.18035" lon="5.94687">
        <ele>229.2</ele>
        <time>2019-08-17T14:52:00Z</time>
      </trkpt>
      <trkpt lat="47.18033" lon="5.94681">
        <ele>229.3</ele>
        <time>2019-08-17T14:52:01Z</time>
      </trkpt>
      <trkpt lat="47.18029" lon="5.94674">
        <ele>229.5</ele>
        <time>2019-08-17T14:52:02Z</time>
      </trkpt>
      <trkpt lat="47.18027" lon="5.94667">
        <ele>229.6</ele>
        <time>2019-08-17T14:52:03Z</time>
      </trkpt>
      <trkpt lat="47.18023" lon="5.94663">
        <ele>229.8</ele>
        <time>2019-08-17T14:52:04Z</time>
      </trkpt>
      <trkpt lat="47.1802" lon="5.94657">
        <ele>230</ele>
        <time>2019-08-17T14:52:05Z</time>
      </trkpt>
      <trkpt lat="47.18015" lon="5.94653">
        <ele>230.2</ele>
        <time>2019-08-17T14:52:06Z</time>
      </trkpt>
      <trkpt lat="47.18012" lon="5.94647">
        <ele>230.4</ele>
        <time>2019-08-17T14:52:07Z</time>
      </trkpt>
      <trkpt lat="47.18008" lon="5.94643">
        <ele>230.5</ele>
        <time>2019-08-17T14:52:08Z</time>
      </trkpt>
      <trkpt lat="47.18004" lon="5.94639">
        <ele>230.6</ele>
        <time>2019-08-17T14:52:09Z</time>
      </trkpt>
      <trkpt lat="47.18001" lon="5.94635">
        <ele>230.8</ele>
        <time>2019-08-17T14:52:10Z</time>
      </trkpt>
      <trkpt lat="47.17997" lon="5.94631">
        <ele>230.9</ele>
        <time>2019-08-17T14:52:11Z</time>
      </trkpt>
      <trkpt lat="47.17993" lon="5.94627">
        <ele>231</ele>
        <time>2019-08-17T14:52:12Z</time>
      </trkpt>
      <trkpt lat="47.1799" lon="5.94623">
        <ele>231</ele>
        <time>2019-08-17T14:52:13Z</time>
      </trkpt>
      <trkpt lat="47.17986" lon="5.94619">
        <ele>231.1</ele>
        <time>2019-08-17T14:52:14Z</time>
      </trkpt>
      <trkpt lat="47.17983" lon="5.94615">
        <ele>231.2</ele>
        <time>2019-08-17T14:52:15Z</time>
      </trkpt>
      <trkpt lat="47.1798" lon="5.9461">
        <ele>231.3</ele>
        <time>2019-08-17T14:52:16Z</time>
      </trkpt>
      <trkpt lat="47.17976" lon="5.94607">
        <ele>231.3</ele>
        <time>2019-08-17T14:52:17Z</time>
      </trkpt>
      <trkpt lat="47.17973" lon="5.94604">
        <ele>231.4</ele>
        <time>2019-08-17T14:52:18Z</time>
      </trkpt>
      <trkpt lat="47.1797" lon="5.946">
        <ele>231.4</ele>
        <time>2019-08-17T14:52:19Z</time>
      </trkpt>
      <trkpt lat="47.17967" lon="5.94596">
        <ele>231.5</ele>
        <time>2019-08-17T14:52:20Z</time>
      </trkpt>
      <trkpt lat="47.17964" lon="5.94593">
        <ele>231.5</ele>
        <time>2019-08-17T14:52:21Z</time>
      </trkpt>
      <trkpt lat="47.17961" lon="5.94589">
        <ele>231.6</ele>
        <time>2019-08-17T14:52:22Z</time>
      </trkpt>
      <trkpt lat="47.17957" lon="5.94584">
        <ele>231.6</ele>
        <time>2019-08-17T14:52:23Z</time>
      </trkpt>
      <trkpt lat="47.17954" lon="5.94582">
        <ele>231.6</ele>
        <time>2019-08-17T14:52:24Z</time>
      </trkpt>
      <trkpt lat="47.17952" lon="5.94578">
        <ele>231.7</ele>
        <time>2019-08-17T14:52:25Z</time>
      </trkpt>
      <trkpt lat="47.17949" lon="5.94573">
        <ele>231.7</ele>
        <time>2019-08-17T14:52:26Z</time>
      </trkpt>
      <trkpt lat="47.17946" lon="5.94569">
        <ele>231.7</ele>
        <time>2019-08-17T14:52:27Z</time>
      </trkpt>
      <trkpt lat="47.17942" lon="5.94564">
        <ele>231.8</ele>
        <time>2019-08-17T14:52:28Z</time>
      </trkpt>
      <trkpt lat="47.17939" lon="5.9456">
        <ele>231.8</ele>
        <time>2019-08-17T14:52:29Z</time>
      </trkpt>
      <trkpt lat="47.17936" lon="5.94555">
        <ele>231.9</ele>
        <time>2019-08-17T14:52:30Z</time>
      </trkpt>
      <trkpt lat="47.17934" lon="5.94551">
        <ele>231.9</ele>
        <time>2019-08-17T14:52:31Z</time>
      </trkpt>
      <trkpt lat="47.1793" lon="5.94546">
        <ele>231.9</ele>
        <time>2019-08-17T14:52:32Z</time>
      </trkpt>
      <trkpt lat="47.17926" lon="5.94541">
        <ele>232</ele>
        <time>2019-08-17T14:52:33Z</time>
      </trkpt>
      <trkpt lat="47.17922" lon="5.94536">
        <ele>232</ele>
        <time>2019-08-17T14:52:34Z</time>
      </trkpt>
      <trkpt lat="47.17919" lon="5.94531">
        <ele>232</ele>
        <time>2019-08-17T14:52:35Z</time>
      </trkpt>
      <trkpt lat="47.17915" lon="5.94526">
        <ele>232.1</ele>
        <time>2019-08-17T14:52:36Z</time>
      </trkpt>
      <trkpt lat="47.17912" lon="5.94521">
        <ele>232.1</ele>
        <time>2019-08-17T14:52:37Z</time>
      </trkpt>
      <trkpt lat="47.17909" lon="5.94516">
        <ele>232.2</ele>
        <time>2019-08-17T14:52:38Z</time>
      </trkpt>
      <trkpt lat="47.17906" lon="5.94512">
        <ele>232.2</ele>
        <time>2019-08-17T14:52:39Z</time>
      </trkpt>
      <trkpt lat="47.17902" lon="5.94507">
        <ele>232.2</ele>
        <time>2019-08-17T14:52:40Z</time>
      </trkpt>
      <trkpt lat="47.17899" lon="5.94503">
        <ele>232.3</ele>
        <time>2019-08-17T14:52:41Z</time>
      </trkpt>
      <trkpt lat="47.17894" lon="5.945">
        <ele>232.3</ele>
        <time>2019-08-17T14:52:42Z</time>
      </trkpt>
      <trkpt lat="47.17891" lon="5.94496">
        <ele>232.4</ele>
        <time>2019-08-17T14:52:43Z</time>
      </trkpt>
      <trkpt lat="47.17888" lon="5.94492">
        <ele>232.4</ele>
        <time>2019-08-17T14:52:44Z</time>
      </trkpt>
      <trkpt lat="47.17885" lon="5.94488">
        <ele>232.5</ele>
        <time>2019-08-17T14:52:45Z</time>
      </trkpt>
      <trkpt lat="47.17882" lon="5.94484">
        <ele>232.5</ele>
        <time>2019-08-17T14:52:46Z</time>
      </trkpt>
      <trkpt lat="47.17879" lon="5.94478">
        <ele>232.5</ele>
        <time>2019-08-17T14:52:47Z</time>
      </trkpt>
      <trkpt lat="47.17876" lon="5.94471">
        <ele>232.6</ele>
        <time>2019-08-17T14:52:48Z</time>
      </trkpt>
      <trkpt lat="47.17873" lon="5.94467">
        <ele>232.6</ele>
        <time>2019-08-17T14:52:49Z</time>
      </trkpt>
      <trkpt lat="47.1787" lon="5.94463">
        <ele>232.7</ele>
        <time>2019-08-17T14:52:50Z</time>
      </trkpt>
      <trkpt lat="47.17865" lon="5.94458">
        <ele>232.7</ele>
        <time>2019-08-17T14:52:51Z</time>
      </trkpt>
      <trkpt lat="47.17861" lon="5.94454">
        <ele>232.7</ele>
        <time>2019-08-17T14:52:52Z</time>
      </trkpt>
      <trkpt lat="47.17857" lon="5.94451">
        <ele>232.7</ele>
        <time>2019-08-17T14:52:53Z</time>
      </trkpt>
      <trkpt lat="47.17854" lon="5.94447">
        <ele>232.8</ele>
        <time>2019-08-17T14:52:54Z</time>
      </trkpt>
      <trkpt lat="47.1785" lon="5.94444">
        <ele>232.8</ele>
        <time>2019-08-17T14:52:55Z</time>
      </trkpt>
      <trkpt lat="47.17847" lon="5.94439">
        <ele>232.8</ele>
        <time>2019-08-17T14:52:56Z</time>
      </trkpt>
      <trkpt lat="47.17844" lon="5.94433">
        <ele>232.8</ele>
        <time>2019-08-17T14:52:57Z</time>
      </trkpt>
      <trkpt lat="47.17841" lon="5.94429">
        <ele>232.9</ele>
        <time>2019-08-17T14:52:58Z</time>
      </trkpt>
      <trkpt lat="47.17838" lon="5.94427">
        <ele>232.9</ele>
        <time>2019-08-17T14:52:59Z</time>
      </trkpt>
      <trkpt lat="47.17835" lon="5.94424">
        <ele>232.9</ele>
        <time>2019-08-17T14:53:00Z</time>
      </trkpt>
      <trkpt lat="47.17832" lon="5.94422">
        <ele>233</ele>
        <time>2019-08-17T14:53:01Z</time>
      </trkpt>
      <trkpt lat="47.17827" lon="5.94419">
        <ele>233</ele>
        <time>2019-08-17T14:53:02Z</time>
      </trkpt>
      <trkpt lat="47.17823" lon="5.94416">
        <ele>233</ele>
        <time>2019-08-17T14:53:03Z</time>
      </trkpt>
      <trkpt lat="47.17819" lon="5.94413">
        <ele>233.1</ele>
        <time>2019-08-17T14:53:04Z</time>
      </trkpt>
      <trkpt lat="47.17815" lon="5.94409">
        <ele>233.1</ele>
        <time>2019-08-17T14:53:05Z</time>
      </trkpt>
      <trkpt lat="47.17812" lon="5.94405">
        <ele>233.2</ele>
        <time>2019-08-17T14:53:06Z</time>
      </trkpt>
      <trkpt lat="47.17809" lon="5.94401">
        <ele>233.2</ele>
        <time>2019-08-17T14:53:07Z</time>
      </trkpt>
      <trkpt lat="47.17806" lon="5.94397">
        <ele>233.3</ele>
        <time>2019-08-17T14:53:08Z</time>
      </trkpt>
      <trkpt lat="47.17802" lon="5.94394">
        <ele>233.3</ele>
        <time>2019-08-17T14:53:09Z</time>
      </trkpt>
      <trkpt lat="47.17799" lon="5.94391">
        <ele>233.4</ele>
        <time>2019-08-17T14:53:10Z</time>
      </trkpt>
      <trkpt lat="47.17796" lon="5.94386">
        <ele>233.4</ele>
        <time>2019-08-17T14:53:11Z</time>
      </trkpt>
      <trkpt lat="47.17792" lon="5.94381">
        <ele>233.5</ele>
        <time>2019-08-17T14:53:12Z</time>
      </trkpt>
      <trkpt lat="47.17788" lon="5.94377">
        <ele>233.6</ele>
        <time>2019-08-17T14:53:13Z</time>
      </trkpt>
      <trkpt lat="47.17784" lon="5.94374">
        <ele>233.6</ele>
        <time>2019-08-17T14:53:14Z</time>
      </trkpt>
      <trkpt lat="47.1778" lon="5.94371">
        <ele>233.7</ele>
        <time>2019-08-17T14:53:15Z</time>
      </trkpt>
      <trkpt lat="47.17777" lon="5.94369">
        <ele>233.8</ele>
        <time>2019-08-17T14:53:16Z</time>
      </trkpt>
      <trkpt lat="47.17773" lon="5.94367">
        <ele>233.9</ele>
        <time>2019-08-17T14:53:17Z</time>
      </trkpt>
      <trkpt lat="47.1777" lon="5.94364">
        <ele>233.9</ele>
        <time>2019-08-17T14:53:18Z</time>
      </trkpt>
      <trkpt lat="47.17767" lon="5.94362">
        <ele>234</ele>
        <time>2019-08-17T14:53:19Z</time>
      </trkpt>
      <trkpt lat="47.17762" lon="5.94359">
        <ele>234.1</ele>
        <time>2019-08-17T14:53:20Z</time>
      </trkpt>
      <trkpt lat="47.17758" lon="5.94356">
        <ele>234.2</ele>
        <time>2019-08-17T14:53:21Z</time>
      </trkpt>
      <trkpt lat="47.17753" lon="5.94354">
        <ele>234.3</ele>
        <time>2019-08-17T14:53:22Z</time>
      </trkpt>
      <trkpt lat="47.17748" lon="5.94351">
        <ele>234.4</ele>
        <time>2019-08-17T14:53:23Z</time>
      </trkpt>
      <trkpt lat="47.17743" lon="5.94348">
        <ele>234.5</ele>
        <time>2019-08-17T14:53:24Z</time>
      </trkpt>
      <trkpt lat="47.17738" lon="5.94346">
        <ele>234.6</ele>
        <time>2019-08-17T14:53:25Z</time>
      </trkpt>
      <trkpt lat="47.17734" lon="5.94344">
        <ele>234.7</ele>
        <time>2019-08-17T14:53:26Z</time>
      </trkpt>
      <trkpt lat="47.1773" lon="5.94343">
        <ele>234.7</ele>
        <time>2019-08-17T14:53:27Z</time>
      </trkpt>
      <trkpt lat="47.17725" lon="5.94341">
        <ele>234.8</ele>
        <time>2019-08-17T14:53:28Z</time>
      </trkpt>
      <trkpt lat="47.1772" lon="5.94338">
        <ele>234.9</ele>
        <time>2019-08-17T14:53:29Z</time>
      </trkpt>
      <trkpt lat="47.17716" lon="5.94334">
        <ele>234.9</ele>
        <time>2019-08-17T14:53:30Z</time>
      </trkpt>
      <trkpt lat="47.17711" lon="5.94331">
        <ele>235</ele>
        <time>2019-08-17T14:53:31Z</time>
      </trkpt>
      <trkpt lat="47.17707" lon="5.94328">
        <ele>235</ele>
        <time>2019-08-17T14:53:32Z</time>
      </trkpt>
      <trkpt lat="47.17702" lon="5.94326">
        <ele>235.1</ele>
        <time>2019-08-17T14:53:33Z</time>
      </trkpt>
      <trkpt lat="47.17698" lon="5.94323">
        <ele>235.1</ele>
        <time>2019-08-17T14:53:34Z</time>
      </trkpt>
      <trkpt lat="47.17693" lon="5.9432">
        <ele>235.2</ele>
        <time>2019-08-17T14:53:35Z</time>
      </trkpt>
      <trkpt lat="47.17689" lon="5.94317">
        <ele>235.2</ele>
        <time>2019-08-17T14:53:36Z</time>
      </trkpt>
      <trkpt lat="47.17685" lon="5.94314">
        <ele>235.2</ele>
        <time>2019-08-17T14:53:37Z</time>
      </trkpt>
      <trkpt lat="47.1768" lon="5.94311">
        <ele>235.2</ele>
        <time>2019-08-17T14:53:38Z</time>
      </trkpt>
      <trkpt lat="47.17676" lon="5.94307">
        <ele>235.3</ele>
        <time>2019-08-17T14:53:39Z</time>
      </trkpt>
      <trkpt lat="47.17672" lon="5.94304">
        <ele>235.3</ele>
        <time>2019-08-17T14:53:40Z</time>
      </trkpt>
      <trkpt lat="47.17668" lon="5.943">
        <ele>235.3</ele>
        <time>2019-08-17T14:53:41Z</time>
      </trkpt>
      <trkpt lat="47.17664" lon="5.94297">
        <ele>235.3</ele>
        <time>2019-08-17T14:53:42Z</time>
      </trkpt>
      <trkpt lat="47.17659" lon="5.94295">
        <ele>235.4</ele>
        <time>2019-08-17T14:53:43Z</time>
      </trkpt>
      <trkpt lat="47.17656" lon="5.94293">
        <ele>235.4</ele>
        <time>2019-08-17T14:53:44Z</time>
      </trkpt>
      <trkpt lat="47.17652" lon="5.9429">
        <ele>235.4</ele>
        <time>2019-08-17T14:53:45Z</time>
      </trkpt>
      <trkpt lat="47.17648" lon="5.94288">
        <ele>235.5</ele>
        <time>2019-08-17T14:53:46Z</time>
      </trkpt>
      <trkpt lat="47.17644" lon="5.94285">
        <ele>235.5</ele>
        <time>2019-08-17T14:53:47Z</time>
      </trkpt>
      <trkpt lat="47.17641" lon="5.94282">
        <ele>235.6</ele>
        <time>2019-08-17T14:53:48Z</time>
      </trkpt>
      <trkpt lat="47.17637" lon="5.94279">
        <ele>235.7</ele>
        <time>2019-08-17T14:53:49Z</time>
      </trkpt>
      <trkpt lat="47.17633" lon="5.94276">
        <ele>235.7</ele>
        <time>2019-08-17T14:53:50Z</time>
      </trkpt>
      <trkpt lat="47.1763" lon="5.94273">
        <ele>235.8</ele>
        <time>2019-08-17T14:53:51Z</time>
      </trkpt>
      <trkpt lat="47.17624" lon="5.9427">
        <ele>235.9</ele>
        <time>2019-08-17T14:53:52Z</time>
      </trkpt>
      <trkpt lat="47.1762" lon="5.94268">
        <ele>236.1</ele>
        <time>2019-08-17T14:53:53Z</time>
      </trkpt>
      <trkpt lat="47.17615" lon="5.94265">
        <ele>236.2</ele>
        <time>2019-08-17T14:53:54Z</time>
      </trkpt>
      <trkpt lat="47.17612" lon="5.9426">
        <ele>236.4</ele>
        <time>2019-08-17T14:53:55Z</time>
      </trkpt>
      <trkpt lat="47.17608" lon="5.94257">
        <ele>236.5</ele>
        <time>2019-08-17T14:53:56Z</time>
      </trkpt>
      <trkpt lat="47.17604" lon="5.94254">
        <ele>236.7</ele>
        <time>2019-08-17T14:53:57Z</time>
      </trkpt>
      <trkpt lat="47.17601" lon="5.9425">
        <ele>236.9</ele>
        <time>2019-08-17T14:53:58Z</time>
      </trkpt>
      <trkpt lat="47.17596" lon="5.94246">
        <ele>237.1</ele>
        <time>2019-08-17T14:53:59Z</time>
      </trkpt>
      <trkpt lat="47.17591" lon="5.94243">
        <ele>237.3</ele>
        <time>2019-08-17T14:54:00Z</time>
      </trkpt>
      <trkpt lat="47.17587" lon="5.9424">
        <ele>237.5</ele>
        <time>2019-08-17T14:54:01Z</time>
      </trkpt>
      <trkpt lat="47.17583" lon="5.94235">
        <ele>237.8</ele>
        <time>2019-08-17T14:54:02Z</time>
      </trkpt>
      <trkpt lat="47.17578" lon="5.94231">
        <ele>238</ele>
        <time>2019-08-17T14:54:03Z</time>
      </trkpt>
      <trkpt lat="47.17575" lon="5.94227">
        <ele>238.2</ele>
        <time>2019-08-17T14:54:04Z</time>
      </trkpt>
      <trkpt lat="47.17572" lon="5.94224">
        <ele>238.4</ele>
        <time>2019-08-17T14:54:05Z</time>
      </trkpt>
      <trkpt lat="47.17567" lon="5.9422">
        <ele>238.5</ele>
        <time>2019-08-17T14:54:06Z</time>
      </trkpt>
      <trkpt lat="47.17563" lon="5.94217">
        <ele>238.8</ele>
        <time>2019-08-17T14:54:07Z</time>
      </trkpt>
      <trkpt lat="47.17559" lon="5.94214">
        <ele>239</ele>
        <time>2019-08-17T14:54:08Z</time>
      </trkpt>
      <trkpt lat="47.17555" lon="5.94211">
        <ele>239.2</ele>
        <time>2019-08-17T14:54:09Z</time>
      </trkpt>
      <trkpt lat="47.17551" lon="5.94208">
        <ele>239.2</ele>
        <time>2019-08-17T14:54:10Z</time>
      </trkpt>
      <trkpt lat="47.17546" lon="5.94204">
        <ele>239.1</ele>
        <time>2019-08-17T14:54:11Z</time>
      </trkpt>
      <trkpt lat="47.17542" lon="5.94201">
        <ele>239</ele>
        <time>2019-08-17T14:54:12Z</time>
      </trkpt>
      <trkpt lat="47.17539" lon="5.94198">
        <ele>239</ele>
        <time>2019-08-17T14:54:13Z</time>
      </trkpt>
      <trkpt lat="47.17535" lon="5.94195">
        <ele>238.9</ele>
        <time>2019-08-17T14:54:14Z</time>
      </trkpt>
      <trkpt lat="47.17531" lon="5.94191">
        <ele>238.9</ele>
        <time>2019-08-17T14:54:15Z</time>
      </trkpt>
      <trkpt lat="47.17526" lon="5.94184">
        <ele>238.8</ele>
        <time>2019-08-17T14:54:16Z</time>
      </trkpt>
      <trkpt lat="47.17522" lon="5.94178">
        <ele>238.7</ele>
        <time>2019-08-17T14:54:17Z</time>
      </trkpt>
      <trkpt lat="47.17518" lon="5.94172">
        <ele>238.6</ele>
        <time>2019-08-17T14:54:18Z</time>
      </trkpt>
      <trkpt lat="47.17514" lon="5.94165">
        <ele>238.5</ele>
        <time>2019-08-17T14:54:19Z</time>
      </trkpt>
      <trkpt lat="47.17511" lon="5.94157">
        <ele>238.4</ele>
        <time>2019-08-17T14:54:20Z</time>
      </trkpt>
      <trkpt lat="47.17507" lon="5.9415">
        <ele>238.3</ele>
        <time>2019-08-17T14:54:21Z</time>
      </trkpt>
      <trkpt lat="47.17504" lon="5.94143">
        <ele>238.2</ele>
        <time>2019-08-17T14:54:22Z</time>
      </trkpt>
      <trkpt lat="47.175" lon="5.94137">
        <ele>238.1</ele>
        <time>2019-08-17T14:54:23Z</time>
      </trkpt>
      <trkpt lat="47.17498" lon="5.94132">
        <ele>238</ele>
        <time>2019-08-17T14:54:24Z</time>
      </trkpt>
      <trkpt lat="47.17495" lon="5.94126">
        <ele>237.9</ele>
        <time>2019-08-17T14:54:25Z</time>
      </trkpt>
      <trkpt lat="47.17493" lon="5.9412">
        <ele>237.7</ele>
        <time>2019-08-17T14:54:26Z</time>
      </trkpt>
      <trkpt lat="47.1749" lon="5.94114">
        <ele>237.6</ele>
        <time>2019-08-17T14:54:27Z</time>
      </trkpt>
      <trkpt lat="47.17487" lon="5.94109">
        <ele>237.4</ele>
        <time>2019-08-17T14:54:28Z</time>
      </trkpt>
      <trkpt lat="47.17484" lon="5.94103">
        <ele>237.2</ele>
        <time>2019-08-17T14:54:29Z</time>
      </trkpt>
      <trkpt lat="47.1748" lon="5.94097">
        <ele>236.9</ele>
        <time>2019-08-17T14:54:30Z</time>
      </trkpt>
      <trkpt lat="47.17478" lon="5.94092">
        <ele>236.6</ele>
        <time>2019-08-17T14:54:31Z</time>
      </trkpt>
      <trkpt lat="47.17475" lon="5.94085">
        <ele>236.3</ele>
        <time>2019-08-17T14:54:32Z</time>
      </trkpt>
      <trkpt lat="47.17473" lon="5.9408">
        <ele>235.9</ele>
        <time>2019-08-17T14:54:33Z</time>
      </trkpt>
      <trkpt lat="47.1747" lon="5.94075">
        <ele>235.4</ele>
        <time>2019-08-17T14:54:34Z</time>
      </trkpt>
      <trkpt lat="47.17467" lon="5.9407">
        <ele>234.9</ele>
        <time>2019-08-17T14:54:35Z</time>
      </trkpt>
      <trkpt lat="47.17465" lon="5.94064">
        <ele>234.4</ele>
        <time>2019-08-17T14:54:36Z</time>
      </trkpt>
      <trkpt lat="47.17463" lon="5.94058">
        <ele>234</ele>
        <time>2019-08-17T14:54:37Z</time>
      </trkpt>
      <trkpt lat="47.1746" lon="5.94052">
        <ele>233.5</ele>
        <time>2019-08-17T14:54:38Z</time>
      </trkpt>
      <trkpt lat="47.17458" lon="5.94047">
        <ele>233.2</ele>
        <time>2019-08-17T14:54:39Z</time>
      </trkpt>
      <trkpt lat="47.17455" lon="5.9404">
        <ele>232.7</ele>
        <time>2019-08-17T14:54:40Z</time>
      </trkpt>
      <trkpt lat="47.17453" lon="5.94034">
        <ele>232.3</ele>
        <time>2019-08-17T14:54:41Z</time>
      </trkpt>
      <trkpt lat="47.17452" lon="5.94029">
        <ele>232.2</ele>
        <time>2019-08-17T14:54:42Z</time>
      </trkpt>
      <trkpt lat="47.17451" lon="5.94023">
        <ele>232</ele>
        <time>2019-08-17T14:54:43Z</time>
      </trkpt>
      <trkpt lat="47.1745" lon="5.94017">
        <ele>232.2</ele>
        <time>2019-08-17T14:54:44Z</time>
      </trkpt>
      <trkpt lat="47.17449" lon="5.94011">
        <ele>232.5</ele>
        <time>2019-08-17T14:54:45Z</time>
      </trkpt>
      <trkpt lat="47.17448" lon="5.94005">
        <ele>232.7</ele>
        <time>2019-08-17T14:54:46Z</time>
      </trkpt>
      <trkpt lat="47.17446" lon="5.93998">
        <ele>233</ele>
        <time>2019-08-17T14:54:47Z</time>
      </trkpt>
      <trkpt lat="47.17444" lon="5.93992">
        <ele>233.2</ele>
        <time>2019-08-17T14:54:48Z</time>
      </trkpt>
      <trkpt lat="47.17441" lon="5.93982">
        <ele>233.7</ele>
        <time>2019-08-17T14:54:49Z</time>
      </trkpt>
      <trkpt lat="47.17441" lon="5.93975">
        <ele>233.9</ele>
        <time>2019-08-17T14:54:50Z</time>
      </trkpt>
      <trkpt lat="47.17439" lon="5.93968">
        <ele>234.2</ele>
        <time>2019-08-17T14:54:51Z</time>
      </trkpt>
      <trkpt lat="47.17436" lon="5.93961">
        <ele>234.5</ele>
        <time>2019-08-17T14:54:52Z</time>
      </trkpt>
      <trkpt lat="47.17434" lon="5.93955">
        <ele>234.8</ele>
        <time>2019-08-17T14:54:53Z</time>
      </trkpt>
      <trkpt lat="47.17432" lon="5.93948">
        <ele>235.1</ele>
        <time>2019-08-17T14:54:54Z</time>
      </trkpt>
      <trkpt lat="47.17432" lon="5.93942">
        <ele>235</ele>
        <time>2019-08-17T14:54:55Z</time>
      </trkpt>
      <trkpt lat="47.17431" lon="5.93936">
        <ele>234.9</ele>
        <time>2019-08-17T14:54:56Z</time>
      </trkpt>
      <trkpt lat="47.1743" lon="5.93929">
        <ele>234.6</ele>
        <time>2019-08-17T14:54:57Z</time>
      </trkpt>
      <trkpt lat="47.17428" lon="5.93923">
        <ele>234.3</ele>
        <time>2019-08-17T14:54:58Z</time>
      </trkpt>
      <trkpt lat="47.17426" lon="5.93916">
        <ele>233.9</ele>
        <time>2019-08-17T14:54:59Z</time>
      </trkpt>
      <trkpt lat="47.17425" lon="5.93909">
        <ele>233.6</ele>
        <time>2019-08-17T14:55:00Z</time>
      </trkpt>
      <trkpt lat="47.17422" lon="5.93902">
        <ele>233.2</ele>
        <time>2019-08-17T14:55:01Z</time>
      </trkpt>
      <trkpt lat="47.17421" lon="5.93895">
        <ele>232.9</ele>
        <time>2019-08-17T14:55:02Z</time>
      </trkpt>
      <trkpt lat="47.17419" lon="5.93889">
        <ele>232.7</ele>
        <time>2019-08-17T14:55:03Z</time>
      </trkpt>
      <trkpt lat="47.17418" lon="5.93883">
        <ele>232.7</ele>
        <time>2019-08-17T14:55:04Z</time>
      </trkpt>
      <trkpt lat="47.17416" lon="5.93876">
        <ele>232.7</ele>
        <time>2019-08-17T14:55:05Z</time>
      </trkpt>
      <trkpt lat="47.17414" lon="5.93869">
        <ele>232.7</ele>
        <time>2019-08-17T14:55:06Z</time>
      </trkpt>
      <trkpt lat="47.17411" lon="5.93863">
        <ele>232.7</ele>
        <time>2019-08-17T14:55:07Z</time>
      </trkpt>
      <trkpt lat="47.17409" lon="5.93853">
        <ele>232.7</ele>
        <time>2019-08-17T14:55:08Z</time>
      </trkpt>
      <trkpt lat="47.17407" lon="5.93847">
        <ele>232.7</ele>
        <time>2019-08-17T14:55:09Z</time>
      </trkpt>
      <trkpt lat="47.17405" lon="5.9384">
        <ele>232.7</ele>
        <time>2019-08-17T14:55:10Z</time>
      </trkpt>
      <trkpt lat="47.17404" lon="5.93833">
        <ele>232.5</ele>
        <time>2019-08-17T14:55:11Z</time>
      </trkpt>
      <trkpt lat="47.17403" lon="5.93827">
        <ele>232.3</ele>
        <time>2019-08-17T14:55:12Z</time>
      </trkpt>
      <trkpt lat="47.17401" lon="5.93819">
        <ele>232.1</ele>
        <time>2019-08-17T14:55:13Z</time>
      </trkpt>
      <trkpt lat="47.174" lon="5.93813">
        <ele>231.8</ele>
        <time>2019-08-17T14:55:14Z</time>
      </trkpt>
      <trkpt lat="47.17399" lon="5.93804">
        <ele>231.3</ele>
        <time>2019-08-17T14:55:15Z</time>
      </trkpt>
      <trkpt lat="47.17398" lon="5.93799">
        <ele>231</ele>
        <time>2019-08-17T14:55:16Z</time>
      </trkpt>
      <trkpt lat="47.17398" lon="5.93793">
        <ele>230.8</ele>
        <time>2019-08-17T14:55:17Z</time>
      </trkpt>
      <trkpt lat="47.17397" lon="5.93786">
        <ele>230.6</ele>
        <time>2019-08-17T14:55:18Z</time>
      </trkpt>
      <trkpt lat="47.17395" lon="5.9378">
        <ele>230.5</ele>
        <time>2019-08-17T14:55:19Z</time>
      </trkpt>
      <trkpt lat="47.17394" lon="5.93773">
        <ele>230.4</ele>
        <time>2019-08-17T14:55:20Z</time>
      </trkpt>
      <trkpt lat="47.17391" lon="5.93764">
        <ele>230.5</ele>
        <time>2019-08-17T14:55:21Z</time>
      </trkpt>
      <trkpt lat="47.17389" lon="5.93756">
        <ele>230.6</ele>
        <time>2019-08-17T14:55:22Z</time>
      </trkpt>
      <trkpt lat="47.17387" lon="5.93749">
        <ele>230.7</ele>
        <time>2019-08-17T14:55:23Z</time>
      </trkpt>
      <trkpt lat="47.17385" lon="5.93742">
        <ele>230.8</ele>
        <time>2019-08-17T14:55:24Z</time>
      </trkpt>
      <trkpt lat="47.17384" lon="5.93736">
        <ele>230.9</ele>
        <time>2019-08-17T14:55:25Z</time>
      </trkpt>
      <trkpt lat="47.17383" lon="5.93729">
        <ele>230.9</ele>
        <time>2019-08-17T14:55:26Z</time>
      </trkpt>
      <trkpt lat="47.17382" lon="5.93723">
        <ele>231</ele>
        <time>2019-08-17T14:55:27Z</time>
      </trkpt>
      <trkpt lat="47.17381" lon="5.93715">
        <ele>231</ele>
        <time>2019-08-17T14:55:28Z</time>
      </trkpt>
      <trkpt lat="47.1738" lon="5.93709">
        <ele>231</ele>
        <time>2019-08-17T14:55:29Z</time>
      </trkpt>
      <trkpt lat="47.17378" lon="5.93704">
        <ele>231</ele>
        <time>2019-08-17T14:55:30Z</time>
      </trkpt>
      <trkpt lat="47.17376" lon="5.93699">
        <ele>231</ele>
        <time>2019-08-17T14:55:31Z</time>
      </trkpt>
      <trkpt lat="47.17375" lon="5.93694">
        <ele>231.1</ele>
        <time>2019-08-17T14:55:32Z</time>
      </trkpt>
      <trkpt lat="47.17372" lon="5.93687">
        <ele>231.2</ele>
        <time>2019-08-17T14:55:33Z</time>
      </trkpt>
      <trkpt lat="47.17369" lon="5.9368">
        <ele>231.4</ele>
        <time>2019-08-17T14:55:34Z</time>
      </trkpt>
      <trkpt lat="47.17367" lon="5.93673">
        <ele>231.5</ele>
        <time>2019-08-17T14:55:35Z</time>
      </trkpt>
      <trkpt lat="47.17365" lon="5.93666">
        <ele>231.7</ele>
        <time>2019-08-17T14:55:36Z</time>
      </trkpt>
      <trkpt lat="47.17363" lon="5.9366">
        <ele>231.7</ele>
        <time>2019-08-17T14:55:37Z</time>
      </trkpt>
      <trkpt lat="47.17361" lon="5.93655">
        <ele>231.8</ele>
        <time>2019-08-17T14:55:38Z</time>
      </trkpt>
      <trkpt lat="47.17359" lon="5.9365">
        <ele>231.8</ele>
        <time>2019-08-17T14:55:39Z</time>
      </trkpt>
      <trkpt lat="47.17357" lon="5.93644">
        <ele>231.8</ele>
        <time>2019-08-17T14:55:40Z</time>
      </trkpt>
      <trkpt lat="47.17355" lon="5.93638">
        <ele>231.8</ele>
        <time>2019-08-17T14:55:41Z</time>
      </trkpt>
      <trkpt lat="47.17352" lon="5.93632">
        <ele>231.8</ele>
        <time>2019-08-17T14:55:42Z</time>
      </trkpt>
      <trkpt lat="47.1735" lon="5.93627">
        <ele>231.8</ele>
        <time>2019-08-17T14:55:43Z</time>
      </trkpt>
      <trkpt lat="47.17348" lon="5.93622">
        <ele>231.7</ele>
        <time>2019-08-17T14:55:44Z</time>
      </trkpt>
      <trkpt lat="47.17345" lon="5.93615">
        <ele>231.7</ele>
        <time>2019-08-17T14:55:45Z</time>
      </trkpt>
      <trkpt lat="47.17342" lon="5.93609">
        <ele>231.7</ele>
        <time>2019-08-17T14:55:46Z</time>
      </trkpt>
      <trkpt lat="47.1734" lon="5.93603">
        <ele>231.7</ele>
        <time>2019-08-17T14:55:47Z</time>
      </trkpt>
      <trkpt lat="47.17338" lon="5.93598">
        <ele>231.7</ele>
        <time>2019-08-17T14:55:48Z</time>
      </trkpt>
      <trkpt lat="47.17335" lon="5.93591">
        <ele>231.6</ele>
        <time>2019-08-17T14:55:49Z</time>
      </trkpt>
      <trkpt lat="47.17332" lon="5.93584">
        <ele>231.6</ele>
        <time>2019-08-17T14:55:50Z</time>
      </trkpt>
      <trkpt lat="47.17329" lon="5.93577">
        <ele>231.6</ele>
        <time>2019-08-17T14:55:51Z</time>
      </trkpt>
      <trkpt lat="47.17328" lon="5.93571">
        <ele>231.5</ele>
        <time>2019-08-17T14:55:52Z</time>
      </trkpt>
      <trkpt lat="47.17326" lon="5.93565">
        <ele>231.5</ele>
        <time>2019-08-17T14:55:53Z</time>
      </trkpt>
      <trkpt lat="47.17323" lon="5.93558">
        <ele>231.5</ele>
        <time>2019-08-17T14:55:54Z</time>
      </trkpt>
      <trkpt lat="47.1732" lon="5.93552">
        <ele>231.4</ele>
        <time>2019-08-17T14:55:55Z</time>
      </trkpt>
      <trkpt lat="47.17319" lon="5.93545">
        <ele>231.4</ele>
        <time>2019-08-17T14:55:56Z</time>
      </trkpt>
      <trkpt lat="47.17316" lon="5.9354">
        <ele>231.3</ele>
        <time>2019-08-17T14:55:57Z</time>
      </trkpt>
      <trkpt lat="47.17313" lon="5.93535">
        <ele>231.3</ele>
        <time>2019-08-17T14:55:58Z</time>
      </trkpt>
      <trkpt lat="47.17311" lon="5.93529">
        <ele>231.3</ele>
        <time>2019-08-17T14:55:59Z</time>
      </trkpt>
      <trkpt lat="47.17309" lon="5.93523">
        <ele>231.2</ele>
        <time>2019-08-17T14:56:00Z</time>
      </trkpt>
      <trkpt lat="47.17306" lon="5.93516">
        <ele>231.2</ele>
        <time>2019-08-17T14:56:01Z</time>
      </trkpt>
      <trkpt lat="47.17304" lon="5.9351">
        <ele>231.2</ele>
        <time>2019-08-17T14:56:02Z</time>
      </trkpt>
      <trkpt lat="47.17302" lon="5.93504">
        <ele>231.1</ele>
        <time>2019-08-17T14:56:03Z</time>
      </trkpt>
      <trkpt lat="47.173" lon="5.93498">
        <ele>231.1</ele>
        <time>2019-08-17T14:56:04Z</time>
      </trkpt>
      <trkpt lat="47.17299" lon="5.93494">
        <ele>231.1</ele>
        <time>2019-08-17T14:56:05Z</time>
      </trkpt>
      <trkpt lat="47.17297" lon="5.93488">
        <ele>231.1</ele>
        <time>2019-08-17T14:56:06Z</time>
      </trkpt>
      <trkpt lat="47.17295" lon="5.93481">
        <ele>231</ele>
        <time>2019-08-17T14:56:07Z</time>
      </trkpt>
      <trkpt lat="47.17292" lon="5.93468">
        <ele>231</ele>
        <time>2019-08-17T14:56:09Z</time>
      </trkpt>
      <trkpt lat="47.1729" lon="5.93462">
        <ele>231</ele>
        <time>2019-08-17T14:56:10Z</time>
      </trkpt>
      <trkpt lat="47.17289" lon="5.93456">
        <ele>231</ele>
        <time>2019-08-17T14:56:11Z</time>
      </trkpt>
      <trkpt lat="47.17286" lon="5.93452">
        <ele>230.9</ele>
        <time>2019-08-17T14:56:12Z</time>
      </trkpt>
      <trkpt lat="47.17284" lon="5.93448">
        <ele>230.9</ele>
        <time>2019-08-17T14:56:13Z</time>
      </trkpt>
      <trkpt lat="47.17282" lon="5.93441">
        <ele>230.9</ele>
        <time>2019-08-17T14:56:14Z</time>
      </trkpt>
      <trkpt lat="47.17281" lon="5.93435">
        <ele>230.9</ele>
        <time>2019-08-17T14:56:15Z</time>
      </trkpt>
      <trkpt lat="47.1728" lon="5.93429">
        <ele>230.9</ele>
        <time>2019-08-17T14:56:16Z</time>
      </trkpt>
      <trkpt lat="47.17278" lon="5.93423">
        <ele>230.8</ele>
        <time>2019-08-17T14:56:17Z</time>
      </trkpt>
      <trkpt lat="47.17275" lon="5.93419">
        <ele>230.8</ele>
        <time>2019-08-17T14:56:18Z</time>
      </trkpt>
      <trkpt lat="47.17272" lon="5.93412">
        <ele>230.8</ele>
        <time>2019-08-17T14:56:19Z</time>
      </trkpt>
      <trkpt lat="47.17269" lon="5.93405">
        <ele>230.7</ele>
        <time>2019-08-17T14:56:20Z</time>
      </trkpt>
      <trkpt lat="47.17267" lon="5.93398">
        <ele>230.7</ele>
        <time>2019-08-17T14:56:21Z</time>
      </trkpt>
      <trkpt lat="47.17265" lon="5.93393">
        <ele>230.7</ele>
        <time>2019-08-17T14:56:22Z</time>
      </trkpt>
      <trkpt lat="47.17263" lon="5.93389">
        <ele>230.6</ele>
        <time>2019-08-17T14:56:23Z</time>
      </trkpt>
      <trkpt lat="47.1726" lon="5.93384">
        <ele>230.6</ele>
        <time>2019-08-17T14:56:24Z</time>
      </trkpt>
      <trkpt lat="47.17257" lon="5.93379">
        <ele>230.6</ele>
        <time>2019-08-17T14:56:25Z</time>
      </trkpt>
      <trkpt lat="47.17254" lon="5.93371">
        <ele>230.6</ele>
        <time>2019-08-17T14:56:26Z</time>
      </trkpt>
      <trkpt lat="47.17252" lon="5.93364">
        <ele>230.5</ele>
        <time>2019-08-17T14:56:27Z</time>
      </trkpt>
      <trkpt lat="47.17249" lon="5.93357">
        <ele>230.5</ele>
        <time>2019-08-17T14:56:28Z</time>
      </trkpt>
      <trkpt lat="47.17247" lon="5.93352">
        <ele>230.5</ele>
        <time>2019-08-17T14:56:29Z</time>
      </trkpt>
      <trkpt lat="47.17245" lon="5.93346">
        <ele>230.4</ele>
        <time>2019-08-17T14:56:30Z</time>
      </trkpt>
      <trkpt lat="47.17242" lon="5.9334">
        <ele>230.4</ele>
        <time>2019-08-17T14:56:31Z</time>
      </trkpt>
      <trkpt lat="47.17239" lon="5.93336">
        <ele>230.3</ele>
        <time>2019-08-17T14:56:32Z</time>
      </trkpt>
      <trkpt lat="47.17237" lon="5.93329">
        <ele>230.3</ele>
        <time>2019-08-17T14:56:33Z</time>
      </trkpt>
      <trkpt lat="47.17234" lon="5.93323">
        <ele>230.2</ele>
        <time>2019-08-17T14:56:34Z</time>
      </trkpt>
      <trkpt lat="47.17232" lon="5.93317">
        <ele>230.2</ele>
        <time>2019-08-17T14:56:35Z</time>
      </trkpt>
      <trkpt lat="47.1723" lon="5.9331">
        <ele>230.2</ele>
        <time>2019-08-17T14:56:36Z</time>
      </trkpt>
      <trkpt lat="47.17229" lon="5.93304">
        <ele>230.1</ele>
        <time>2019-08-17T14:56:37Z</time>
      </trkpt>
      <trkpt lat="47.17226" lon="5.93297">
        <ele>230.1</ele>
        <time>2019-08-17T14:56:38Z</time>
      </trkpt>
      <trkpt lat="47.17224" lon="5.93292">
        <ele>230</ele>
        <time>2019-08-17T14:56:39Z</time>
      </trkpt>
      <trkpt lat="47.17222" lon="5.93285">
        <ele>230</ele>
        <time>2019-08-17T14:56:40Z</time>
      </trkpt>
      <trkpt lat="47.1722" lon="5.9328">
        <ele>229.9</ele>
        <time>2019-08-17T14:56:41Z</time>
      </trkpt>
      <trkpt lat="47.17218" lon="5.93273">
        <ele>229.9</ele>
        <time>2019-08-17T14:56:42Z</time>
      </trkpt>
      <trkpt lat="47.17216" lon="5.93267">
        <ele>229.8</ele>
        <time>2019-08-17T14:56:43Z</time>
      </trkpt>
      <trkpt lat="47.17215" lon="5.93261">
        <ele>229.7</ele>
        <time>2019-08-17T14:56:44Z</time>
      </trkpt>
      <trkpt lat="47.17214" lon="5.93255">
        <ele>229.7</ele>
        <time>2019-08-17T14:56:45Z</time>
      </trkpt>
      <trkpt lat="47.17212" lon="5.93248">
        <ele>229.6</ele>
        <time>2019-08-17T14:56:46Z</time>
      </trkpt>
      <trkpt lat="47.1721" lon="5.93242">
        <ele>229.6</ele>
        <time>2019-08-17T14:56:47Z</time>
      </trkpt>
      <trkpt lat="47.17209" lon="5.93234">
        <ele>229.5</ele>
        <time>2019-08-17T14:56:48Z</time>
      </trkpt>
      <trkpt lat="47.17207" lon="5.9323">
        <ele>229.5</ele>
        <time>2019-08-17T14:56:49Z</time>
      </trkpt>
      <trkpt lat="47.17206" lon="5.93224">
        <ele>229.4</ele>
        <time>2019-08-17T14:56:50Z</time>
      </trkpt>
      <trkpt lat="47.17205" lon="5.93218">
        <ele>229.4</ele>
        <time>2019-08-17T14:56:51Z</time>
      </trkpt>
      <trkpt lat="47.17203" lon="5.93212">
        <ele>229.3</ele>
        <time>2019-08-17T14:56:52Z</time>
      </trkpt>
      <trkpt lat="47.17202" lon="5.93206">
        <ele>229.3</ele>
        <time>2019-08-17T14:56:53Z</time>
      </trkpt>
      <trkpt lat="47.172" lon="5.93199">
        <ele>229.2</ele>
        <time>2019-08-17T14:56:54Z</time>
      </trkpt>
      <trkpt lat="47.17198" lon="5.93192">
        <ele>229.2</ele>
        <time>2019-08-17T14:56:55Z</time>
      </trkpt>
      <trkpt lat="47.17197" lon="5.93184">
        <ele>229.1</ele>
        <time>2019-08-17T14:56:56Z</time>
      </trkpt>
      <trkpt lat="47.17195" lon="5.93178">
        <ele>229.1</ele>
        <time>2019-08-17T14:56:57Z</time>
      </trkpt>
      <trkpt lat="47.17193" lon="5.93173">
        <ele>229</ele>
        <time>2019-08-17T14:56:58Z</time>
      </trkpt>
      <trkpt lat="47.17192" lon="5.93167">
        <ele>229</ele>
        <time>2019-08-17T14:56:59Z</time>
      </trkpt>
      <trkpt lat="47.1719" lon="5.93161">
        <ele>228.9</ele>
        <time>2019-08-17T14:57:00Z</time>
      </trkpt>
      <trkpt lat="47.17188" lon="5.93155">
        <ele>228.9</ele>
        <time>2019-08-17T14:57:01Z</time>
      </trkpt>
      <trkpt lat="47.17187" lon="5.9315">
        <ele>228.8</ele>
        <time>2019-08-17T14:57:02Z</time>
      </trkpt>
      <trkpt lat="47.17186" lon="5.93146">
        <ele>228.8</ele>
        <time>2019-08-17T14:57:03Z</time>
      </trkpt>
      <trkpt lat="47.17185" lon="5.9314">
        <ele>228.7</ele>
        <time>2019-08-17T14:57:04Z</time>
      </trkpt>
      <trkpt lat="47.17183" lon="5.93134">
        <ele>228.7</ele>
        <time>2019-08-17T14:57:05Z</time>
      </trkpt>
      <trkpt lat="47.17181" lon="5.93128">
        <ele>228.6</ele>
        <time>2019-08-17T14:57:06Z</time>
      </trkpt>
      <trkpt lat="47.1718" lon="5.93122">
        <ele>228.5</ele>
        <time>2019-08-17T14:57:07Z</time>
      </trkpt>
      <trkpt lat="47.17178" lon="5.93115">
        <ele>228.5</ele>
        <time>2019-08-17T14:57:08Z</time>
      </trkpt>
      <trkpt lat="47.17176" lon="5.93109">
        <ele>228.4</ele>
        <time>2019-08-17T14:57:09Z</time>
      </trkpt>
      <trkpt lat="47.17174" lon="5.93103">
        <ele>228.4</ele>
        <time>2019-08-17T14:57:10Z</time>
      </trkpt>
      <trkpt lat="47.17173" lon="5.93097">
        <ele>228.3</ele>
        <time>2019-08-17T14:57:11Z</time>
      </trkpt>
      <trkpt lat="47.17171" lon="5.9309">
        <ele>228.2</ele>
        <time>2019-08-17T14:57:12Z</time>
      </trkpt>
      <trkpt lat="47.1717" lon="5.93083">
        <ele>228.1</ele>
        <time>2019-08-17T14:57:13Z</time>
      </trkpt>
      <trkpt lat="47.17167" lon="5.93078">
        <ele>228</ele>
        <time>2019-08-17T14:57:14Z</time>
      </trkpt>
      <trkpt lat="47.17166" lon="5.93071">
        <ele>228</ele>
        <time>2019-08-17T14:57:15Z</time>
      </trkpt>
      <trkpt lat="47.17165" lon="5.93065">
        <ele>227.9</ele>
        <time>2019-08-17T14:57:16Z</time>
      </trkpt>
      <trkpt lat="47.17162" lon="5.93059">
        <ele>227.8</ele>
        <time>2019-08-17T14:57:17Z</time>
      </trkpt>
      <trkpt lat="47.1716" lon="5.93052">
        <ele>227.8</ele>
        <time>2019-08-17T14:57:18Z</time>
      </trkpt>
      <trkpt lat="47.17158" lon="5.93046">
        <ele>227.7</ele>
        <time>2019-08-17T14:57:19Z</time>
      </trkpt>
      <trkpt lat="47.17156" lon="5.9304">
        <ele>227.6</ele>
        <time>2019-08-17T14:57:20Z</time>
      </trkpt>
      <trkpt lat="47.17155" lon="5.93033">
        <ele>227.6</ele>
        <time>2019-08-17T14:57:21Z</time>
      </trkpt>
      <trkpt lat="47.17154" lon="5.93026">
        <ele>227.5</ele>
        <time>2019-08-17T14:57:22Z</time>
      </trkpt>
      <trkpt lat="47.17152" lon="5.93019">
        <ele>227.4</ele>
        <time>2019-08-17T14:57:23Z</time>
      </trkpt>
      <trkpt lat="47.17151" lon="5.93013">
        <ele>227.3</ele>
        <time>2019-08-17T14:57:24Z</time>
      </trkpt>
      <trkpt lat="47.17149" lon="5.93007">
        <ele>227.2</ele>
        <time>2019-08-17T14:57:25Z</time>
      </trkpt>
      <trkpt lat="47.17148" lon="5.93001">
        <ele>227.1</ele>
        <time>2019-08-17T14:57:26Z</time>
      </trkpt>
      <trkpt lat="47.17146" lon="5.92994">
        <ele>227</ele>
        <time>2019-08-17T14:57:27Z</time>
      </trkpt>
      <trkpt lat="47.17145" lon="5.92987">
        <ele>227</ele>
        <time>2019-08-17T14:57:28Z</time>
      </trkpt>
      <trkpt lat="47.17143" lon="5.9298">
        <ele>226.9</ele>
        <time>2019-08-17T14:57:29Z</time>
      </trkpt>
      <trkpt lat="47.17142" lon="5.92973">
        <ele>226.8</ele>
        <time>2019-08-17T14:57:30Z</time>
      </trkpt>
      <trkpt lat="47.17141" lon="5.92967">
        <ele>226.8</ele>
        <time>2019-08-17T14:57:31Z</time>
      </trkpt>
      <trkpt lat="47.1714" lon="5.92961">
        <ele>226.7</ele>
        <time>2019-08-17T14:57:32Z</time>
      </trkpt>
      <trkpt lat="47.17139" lon="5.92953">
        <ele>226.6</ele>
        <time>2019-08-17T14:57:33Z</time>
      </trkpt>
      <trkpt lat="47.17138" lon="5.92947">
        <ele>226.6</ele>
        <time>2019-08-17T14:57:34Z</time>
      </trkpt>
      <trkpt lat="47.17137" lon="5.92941">
        <ele>226.5</ele>
        <time>2019-08-17T14:57:35Z</time>
      </trkpt>
      <trkpt lat="47.17136" lon="5.92934">
        <ele>226.5</ele>
        <time>2019-08-17T14:57:36Z</time>
      </trkpt>
      <trkpt lat="47.17134" lon="5.92928">
        <ele>226.4</ele>
        <time>2019-08-17T14:57:37Z</time>
      </trkpt>
      <trkpt lat="47.17133" lon="5.92921">
        <ele>226.3</ele>
        <time>2019-08-17T14:57:38Z</time>
      </trkpt>
      <trkpt lat="47.17132" lon="5.92915">
        <ele>226.3</ele>
        <time>2019-08-17T14:57:39Z</time>
      </trkpt>
      <trkpt lat="47.17131" lon="5.92909">
        <ele>226.2</ele>
        <time>2019-08-17T14:57:40Z</time>
      </trkpt>
      <trkpt lat="47.1713" lon="5.92902">
        <ele>226.2</ele>
        <time>2019-08-17T14:57:41Z</time>
      </trkpt>
      <trkpt lat="47.17129" lon="5.92896">
        <ele>226.1</ele>
        <time>2019-08-17T14:57:42Z</time>
      </trkpt>
      <trkpt lat="47.17127" lon="5.92889">
        <ele>226.1</ele>
        <time>2019-08-17T14:57:43Z</time>
      </trkpt>
      <trkpt lat="47.17126" lon="5.92882">
        <ele>226</ele>
        <time>2019-08-17T14:57:44Z</time>
      </trkpt>
      <trkpt lat="47.17125" lon="5.92875">
        <ele>225.9</ele>
        <time>2019-08-17T14:57:45Z</time>
      </trkpt>
      <trkpt lat="47.17124" lon="5.92868">
        <ele>225.9</ele>
        <time>2019-08-17T14:57:46Z</time>
      </trkpt>
      <trkpt lat="47.17123" lon="5.92861">
        <ele>225.8</ele>
        <time>2019-08-17T14:57:47Z</time>
      </trkpt>
      <trkpt lat="47.17123" lon="5.92855">
        <ele>225.8</ele>
        <time>2019-08-17T14:57:48Z</time>
      </trkpt>
      <trkpt lat="47.17122" lon="5.92848">
        <ele>225.7</ele>
        <time>2019-08-17T14:57:49Z</time>
      </trkpt>
      <trkpt lat="47.17121" lon="5.92841">
        <ele>225.6</ele>
        <time>2019-08-17T14:57:50Z</time>
      </trkpt>
      <trkpt lat="47.17121" lon="5.92834">
        <ele>225.6</ele>
        <time>2019-08-17T14:57:51Z</time>
      </trkpt>
      <trkpt lat="47.17121" lon="5.92827">
        <ele>225.5</ele>
        <time>2019-08-17T14:57:52Z</time>
      </trkpt>
      <trkpt lat="47.17121" lon="5.9282">
        <ele>225.5</ele>
        <time>2019-08-17T14:57:53Z</time>
      </trkpt>
      <trkpt lat="47.1712" lon="5.92812">
        <ele>225.4</ele>
        <time>2019-08-17T14:57:54Z</time>
      </trkpt>
      <trkpt lat="47.17119" lon="5.92805">
        <ele>225.4</ele>
        <time>2019-08-17T14:57:55Z</time>
      </trkpt>
      <trkpt lat="47.17119" lon="5.92799">
        <ele>225.3</ele>
        <time>2019-08-17T14:57:56Z</time>
      </trkpt>
      <trkpt lat="47.17119" lon="5.92791">
        <ele>225.2</ele>
        <time>2019-08-17T14:57:57Z</time>
      </trkpt>
      <trkpt lat="47.17118" lon="5.92785">
        <ele>225.2</ele>
        <time>2019-08-17T14:57:58Z</time>
      </trkpt>
      <trkpt lat="47.17116" lon="5.92778">
        <ele>225.2</ele>
        <time>2019-08-17T14:57:59Z</time>
      </trkpt>
      <trkpt lat="47.17115" lon="5.9277">
        <ele>225.1</ele>
        <time>2019-08-17T14:58:00Z</time>
      </trkpt>
      <trkpt lat="47.17114" lon="5.92763">
        <ele>225.1</ele>
        <time>2019-08-17T14:58:01Z</time>
      </trkpt>
      <trkpt lat="47.17112" lon="5.92755">
        <ele>225</ele>
        <time>2019-08-17T14:58:02Z</time>
      </trkpt>
      <trkpt lat="47.1711" lon="5.92747">
        <ele>224.9</ele>
        <time>2019-08-17T14:58:03Z</time>
      </trkpt>
      <trkpt lat="47.17109" lon="5.9274">
        <ele>224.9</ele>
        <time>2019-08-17T14:58:04Z</time>
      </trkpt>
      <trkpt lat="47.17108" lon="5.92732">
        <ele>224.8</ele>
        <time>2019-08-17T14:58:05Z</time>
      </trkpt>
      <trkpt lat="47.17107" lon="5.92725">
        <ele>224.7</ele>
        <time>2019-08-17T14:58:06Z</time>
      </trkpt>
      <trkpt lat="47.17106" lon="5.92719">
        <ele>224.7</ele>
        <time>2019-08-17T14:58:07Z</time>
      </trkpt>
      <trkpt lat="47.17105" lon="5.92712">
        <ele>224.6</ele>
        <time>2019-08-17T14:58:08Z</time>
      </trkpt>
      <trkpt lat="47.17104" lon="5.92705">
        <ele>224.5</ele>
        <time>2019-08-17T14:58:09Z</time>
      </trkpt>
      <trkpt lat="47.17103" lon="5.92698">
        <ele>224.5</ele>
        <time>2019-08-17T14:58:10Z</time>
      </trkpt>
      <trkpt lat="47.17102" lon="5.92691">
        <ele>224.4</ele>
        <time>2019-08-17T14:58:11Z</time>
      </trkpt>
      <trkpt lat="47.17101" lon="5.92684">
        <ele>224.3</ele>
        <time>2019-08-17T14:58:12Z</time>
      </trkpt>
      <trkpt lat="47.171" lon="5.92677">
        <ele>224.2</ele>
        <time>2019-08-17T14:58:13Z</time>
      </trkpt>
      <trkpt lat="47.17099" lon="5.9267">
        <ele>224.1</ele>
        <time>2019-08-17T14:58:14Z</time>
      </trkpt>
      <trkpt lat="47.17098" lon="5.92663">
        <ele>224</ele>
        <time>2019-08-17T14:58:15Z</time>
      </trkpt>
      <trkpt lat="47.17096" lon="5.92655">
        <ele>223.9</ele>
        <time>2019-08-17T14:58:16Z</time>
      </trkpt>
      <trkpt lat="47.17095" lon="5.92646">
        <ele>223.7</ele>
        <time>2019-08-17T14:58:17Z</time>
      </trkpt>
      <trkpt lat="47.17095" lon="5.92639">
        <ele>223.6</ele>
        <time>2019-08-17T14:58:18Z</time>
      </trkpt>
      <trkpt lat="47.17094" lon="5.92632">
        <ele>223.5</ele>
        <time>2019-08-17T14:58:19Z</time>
      </trkpt>
      <trkpt lat="47.17094" lon="5.92625">
        <ele>223.4</ele>
        <time>2019-08-17T14:58:20Z</time>
      </trkpt>
      <trkpt lat="47.17094" lon="5.92617">
        <ele>223.3</ele>
        <time>2019-08-17T14:58:21Z</time>
      </trkpt>
      <trkpt lat="47.17094" lon="5.92609">
        <ele>223.2</ele>
        <time>2019-08-17T14:58:22Z</time>
      </trkpt>
      <trkpt lat="47.17093" lon="5.92601">
        <ele>223</ele>
        <time>2019-08-17T14:58:23Z</time>
      </trkpt>
      <trkpt lat="47.17092" lon="5.92593">
        <ele>222.9</ele>
        <time>2019-08-17T14:58:24Z</time>
      </trkpt>
      <trkpt lat="47.17091" lon="5.92585">
        <ele>222.9</ele>
        <time>2019-08-17T14:58:25Z</time>
      </trkpt>
      <trkpt lat="47.1709" lon="5.92577">
        <ele>222.9</ele>
        <time>2019-08-17T14:58:26Z</time>
      </trkpt>
      <trkpt lat="47.1709" lon="5.9257">
        <ele>222.9</ele>
        <time>2019-08-17T14:58:27Z</time>
      </trkpt>
      <trkpt lat="47.1709" lon="5.92562">
        <ele>222.8</ele>
        <time>2019-08-17T14:58:28Z</time>
      </trkpt>
      <trkpt lat="47.17089" lon="5.92554">
        <ele>222.8</ele>
        <time>2019-08-17T14:58:29Z</time>
      </trkpt>
      <trkpt lat="47.17089" lon="5.92547">
        <ele>222.8</ele>
        <time>2019-08-17T14:58:30Z</time>
      </trkpt>
      <trkpt lat="47.17089" lon="5.9254">
        <ele>222.8</ele>
        <time>2019-08-17T14:58:31Z</time>
      </trkpt>
      <trkpt lat="47.17088" lon="5.92533">
        <ele>222.8</ele>
        <time>2019-08-17T14:58:32Z</time>
      </trkpt>
      <trkpt lat="47.17088" lon="5.92528">
        <ele>222.8</ele>
        <time>2019-08-17T14:58:33Z</time>
      </trkpt>
      <trkpt lat="47.17087" lon="5.92522">
        <ele>222.7</ele>
        <time>2019-08-17T14:58:34Z</time>
      </trkpt>
      <trkpt lat="47.17087" lon="5.92516">
        <ele>222.7</ele>
        <time>2019-08-17T14:58:35Z</time>
      </trkpt>
      <trkpt lat="47.17087" lon="5.92509">
        <ele>222.7</ele>
        <time>2019-08-17T14:58:36Z</time>
      </trkpt>
      <trkpt lat="47.17087" lon="5.92503">
        <ele>222.7</ele>
        <time>2019-08-17T14:58:37Z</time>
      </trkpt>
      <trkpt lat="47.17087" lon="5.92497">
        <ele>222.7</ele>
        <time>2019-08-17T14:58:38Z</time>
      </trkpt>
      <trkpt lat="47.17087" lon="5.9249">
        <ele>222.7</ele>
        <time>2019-08-17T14:58:39Z</time>
      </trkpt>
      <trkpt lat="47.17086" lon="5.92483">
        <ele>222.7</ele>
        <time>2019-08-17T14:58:40Z</time>
      </trkpt>
      <trkpt lat="47.17084" lon="5.92476">
        <ele>222.7</ele>
        <time>2019-08-17T14:58:41Z</time>
      </trkpt>
      <trkpt lat="47.17083" lon="5.92468">
        <ele>222.7</ele>
        <time>2019-08-17T14:58:42Z</time>
      </trkpt>
      <trkpt lat="47.17082" lon="5.92462">
        <ele>222.7</ele>
        <time>2019-08-17T14:58:43Z</time>
      </trkpt>
      <trkpt lat="47.17081" lon="5.92455">
        <ele>222.7</ele>
        <time>2019-08-17T14:58:44Z</time>
      </trkpt>
      <trkpt lat="47.17081" lon="5.92448">
        <ele>222.7</ele>
        <time>2019-08-17T14:58:45Z</time>
      </trkpt>
      <trkpt lat="47.17081" lon="5.92441">
        <ele>222.7</ele>
        <time>2019-08-17T14:58:46Z</time>
      </trkpt>
      <trkpt lat="47.1708" lon="5.92435">
        <ele>222.6</ele>
        <time>2019-08-17T14:58:47Z</time>
      </trkpt>
      <trkpt lat="47.1708" lon="5.92428">
        <ele>222.6</ele>
        <time>2019-08-17T14:58:48Z</time>
      </trkpt>
      <trkpt lat="47.17079" lon="5.92422">
        <ele>222.6</ele>
        <time>2019-08-17T14:58:49Z</time>
      </trkpt>
      <trkpt lat="47.17078" lon="5.92416">
        <ele>222.6</ele>
        <time>2019-08-17T14:58:50Z</time>
      </trkpt>
      <trkpt lat="47.17078" lon="5.92409">
        <ele>222.6</ele>
        <time>2019-08-17T14:58:51Z</time>
      </trkpt>
      <trkpt lat="47.17077" lon="5.92402">
        <ele>222.6</ele>
        <time>2019-08-17T14:58:52Z</time>
      </trkpt>
      <trkpt lat="47.17078" lon="5.92397">
        <ele>222.6</ele>
        <time>2019-08-17T14:58:53Z</time>
      </trkpt>
      <trkpt lat="47.17078" lon="5.92391">
        <ele>222.6</ele>
        <time>2019-08-17T14:58:54Z</time>
      </trkpt>
      <trkpt lat="47.17077" lon="5.92383">
        <ele>222.6</ele>
        <time>2019-08-17T14:58:55Z</time>
      </trkpt>
      <trkpt lat="47.17077" lon="5.92376">
        <ele>222.6</ele>
        <time>2019-08-17T14:58:56Z</time>
      </trkpt>
      <trkpt lat="47.17075" lon="5.9237">
        <ele>222.6</ele>
        <time>2019-08-17T14:58:57Z</time>
      </trkpt>
      <trkpt lat="47.17074" lon="5.92363">
        <ele>222.6</ele>
        <time>2019-08-17T14:58:58Z</time>
      </trkpt>
      <trkpt lat="47.17073" lon="5.92356">
        <ele>222.6</ele>
        <time>2019-08-17T14:58:59Z</time>
      </trkpt>
      <trkpt lat="47.17072" lon="5.92348">
        <ele>222.6</ele>
        <time>2019-08-17T14:59:00Z</time>
      </trkpt>
      <trkpt lat="47.17072" lon="5.92341">
        <ele>222.6</ele>
        <time>2019-08-17T14:59:01Z</time>
      </trkpt>
      <trkpt lat="47.17071" lon="5.92334">
        <ele>222.7</ele>
        <time>2019-08-17T14:59:02Z</time>
      </trkpt>
      <trkpt lat="47.1707" lon="5.92328">
        <ele>222.7</ele>
        <time>2019-08-17T14:59:03Z</time>
      </trkpt>
      <trkpt lat="47.17069" lon="5.9232">
        <ele>222.7</ele>
        <time>2019-08-17T14:59:04Z</time>
      </trkpt>
      <trkpt lat="47.17069" lon="5.92313">
        <ele>222.7</ele>
        <time>2019-08-17T14:59:05Z</time>
      </trkpt>
      <trkpt lat="47.17069" lon="5.92306">
        <ele>222.7</ele>
        <time>2019-08-17T14:59:06Z</time>
      </trkpt>
      <trkpt lat="47.17067" lon="5.923">
        <ele>222.7</ele>
        <time>2019-08-17T14:59:07Z</time>
      </trkpt>
      <trkpt lat="47.17067" lon="5.92293">
        <ele>222.7</ele>
        <time>2019-08-17T14:59:08Z</time>
      </trkpt>
      <trkpt lat="47.17067" lon="5.92286">
        <ele>222.7</ele>
        <time>2019-08-17T14:59:09Z</time>
      </trkpt>
      <trkpt lat="47.17067" lon="5.92279">
        <ele>222.7</ele>
        <time>2019-08-17T14:59:10Z</time>
      </trkpt>
      <trkpt lat="47.17067" lon="5.92272">
        <ele>222.7</ele>
        <time>2019-08-17T14:59:11Z</time>
      </trkpt>
      <trkpt lat="47.17066" lon="5.92266">
        <ele>222.7</ele>
        <time>2019-08-17T14:59:12Z</time>
      </trkpt>
      <trkpt lat="47.17065" lon="5.92258">
        <ele>222.7</ele>
        <time>2019-08-17T14:59:13Z</time>
      </trkpt>
      <trkpt lat="47.17065" lon="5.92251">
        <ele>222.7</ele>
        <time>2019-08-17T14:59:14Z</time>
      </trkpt>
      <trkpt lat="47.17065" lon="5.92244">
        <ele>222.7</ele>
        <time>2019-08-17T14:59:15Z</time>
      </trkpt>
      <trkpt lat="47.17065" lon="5.92236">
        <ele>222.8</ele>
        <time>2019-08-17T14:59:16Z</time>
      </trkpt>
      <trkpt lat="47.17065" lon="5.92229">
        <ele>222.8</ele>
        <time>2019-08-17T14:59:17Z</time>
      </trkpt>
      <trkpt lat="47.17066" lon="5.92223">
        <ele>222.8</ele>
        <time>2019-08-17T14:59:18Z</time>
      </trkpt>
      <trkpt lat="47.17065" lon="5.92216">
        <ele>222.8</ele>
        <time>2019-08-17T14:59:19Z</time>
      </trkpt>
      <trkpt lat="47.17065" lon="5.92209">
        <ele>222.9</ele>
        <time>2019-08-17T14:59:20Z</time>
      </trkpt>
      <trkpt lat="47.17066" lon="5.92202">
        <ele>222.9</ele>
        <time>2019-08-17T14:59:21Z</time>
      </trkpt>
      <trkpt lat="47.17066" lon="5.92196">
        <ele>222.9</ele>
        <time>2019-08-17T14:59:22Z</time>
      </trkpt>
      <trkpt lat="47.17066" lon="5.92188">
        <ele>222.9</ele>
        <time>2019-08-17T14:59:23Z</time>
      </trkpt>
      <trkpt lat="47.17066" lon="5.92181">
        <ele>222.9</ele>
        <time>2019-08-17T14:59:24Z</time>
      </trkpt>
      <trkpt lat="47.17065" lon="5.92174">
        <ele>223</ele>
        <time>2019-08-17T14:59:25Z</time>
      </trkpt>
      <trkpt lat="47.17064" lon="5.92166">
        <ele>223</ele>
        <time>2019-08-17T14:59:26Z</time>
      </trkpt>
      <trkpt lat="47.17064" lon="5.9216">
        <ele>223</ele>
        <time>2019-08-17T14:59:27Z</time>
      </trkpt>
      <trkpt lat="47.17064" lon="5.92153">
        <ele>223</ele>
        <time>2019-08-17T14:59:28Z</time>
      </trkpt>
      <trkpt lat="47.17063" lon="5.92146">
        <ele>223</ele>
        <time>2019-08-17T14:59:29Z</time>
      </trkpt>
      <trkpt lat="47.17063" lon="5.9214">
        <ele>223.1</ele>
        <time>2019-08-17T14:59:30Z</time>
      </trkpt>
      <trkpt lat="47.17063" lon="5.92134">
        <ele>223.1</ele>
        <time>2019-08-17T14:59:31Z</time>
      </trkpt>
      <trkpt lat="47.17063" lon="5.92127">
        <ele>223.1</ele>
        <time>2019-08-17T14:59:32Z</time>
      </trkpt>
      <trkpt lat="47.17063" lon="5.9212">
        <ele>223.1</ele>
        <time>2019-08-17T14:59:33Z</time>
      </trkpt>
      <trkpt lat="47.17063" lon="5.92113">
        <ele>223.1</ele>
        <time>2019-08-17T14:59:34Z</time>
      </trkpt>
      <trkpt lat="47.17062" lon="5.92106">
        <ele>223.1</ele>
        <time>2019-08-17T14:59:35Z</time>
      </trkpt>
      <trkpt lat="47.17061" lon="5.921">
        <ele>223.2</ele>
        <time>2019-08-17T14:59:36Z</time>
      </trkpt>
      <trkpt lat="47.17061" lon="5.92094">
        <ele>223.2</ele>
        <time>2019-08-17T14:59:37Z</time>
      </trkpt>
      <trkpt lat="47.17062" lon="5.92088">
        <ele>223.2</ele>
        <time>2019-08-17T14:59:38Z</time>
      </trkpt>
      <trkpt lat="47.17061" lon="5.92081">
        <ele>223.2</ele>
        <time>2019-08-17T14:59:39Z</time>
      </trkpt>
      <trkpt lat="47.17061" lon="5.92073">
        <ele>223.3</ele>
        <time>2019-08-17T14:59:40Z</time>
      </trkpt>
      <trkpt lat="47.1706" lon="5.92066">
        <ele>223.3</ele>
        <time>2019-08-17T14:59:41Z</time>
      </trkpt>
      <trkpt lat="47.1706" lon="5.92059">
        <ele>223.3</ele>
        <time>2019-08-17T14:59:42Z</time>
      </trkpt>
      <trkpt lat="47.17059" lon="5.92052">
        <ele>223.3</ele>
        <time>2019-08-17T14:59:43Z</time>
      </trkpt>
      <trkpt lat="47.17058" lon="5.92045">
        <ele>223.4</ele>
        <time>2019-08-17T14:59:44Z</time>
      </trkpt>
      <trkpt lat="47.17057" lon="5.92038">
        <ele>223.4</ele>
        <time>2019-08-17T14:59:45Z</time>
      </trkpt>
      <trkpt lat="47.17056" lon="5.9203">
        <ele>223.4</ele>
        <time>2019-08-17T14:59:46Z</time>
      </trkpt>
      <trkpt lat="47.17055" lon="5.92023">
        <ele>223.4</ele>
        <time>2019-08-17T14:59:47Z</time>
      </trkpt>
      <trkpt lat="47.17054" lon="5.92015">
        <ele>223.4</ele>
        <time>2019-08-17T14:59:48Z</time>
      </trkpt>
      <trkpt lat="47.17053" lon="5.92007">
        <ele>223.4</ele>
        <time>2019-08-17T14:59:49Z</time>
      </trkpt>
      <trkpt lat="47.17053" lon="5.92">
        <ele>223.4</ele>
        <time>2019-08-17T14:59:50Z</time>
      </trkpt>
      <trkpt lat="47.17053" lon="5.91993">
        <ele>223.4</ele>
        <time>2019-08-17T14:59:51Z</time>
      </trkpt>
      <trkpt lat="47.17054" lon="5.91985">
        <ele>223.4</ele>
        <time>2019-08-17T14:59:52Z</time>
      </trkpt>
      <trkpt lat="47.17055" lon="5.91979">
        <ele>223.4</ele>
        <time>2019-08-17T14:59:53Z</time>
      </trkpt>
      <trkpt lat="47.17055" lon="5.91973">
        <ele>223.4</ele>
        <time>2019-08-17T14:59:54Z</time>
      </trkpt>
      <trkpt lat="47.17055" lon="5.91966">
        <ele>223.4</ele>
        <time>2019-08-17T14:59:55Z</time>
      </trkpt>
      <trkpt lat="47.17055" lon="5.91959">
        <ele>223.3</ele>
        <time>2019-08-17T14:59:56Z</time>
      </trkpt>
      <trkpt lat="47.17055" lon="5.91952">
        <ele>223.3</ele>
        <time>2019-08-17T14:59:57Z</time>
      </trkpt>
      <trkpt lat="47.17055" lon="5.91945">
        <ele>223.3</ele>
        <time>2019-08-17T14:59:58Z</time>
      </trkpt>
      <trkpt lat="47.17056" lon="5.91937">
        <ele>223.3</ele>
        <time>2019-08-17T14:59:59Z</time>
      </trkpt>
      <trkpt lat="47.17056" lon="5.9193">
        <ele>223.3</ele>
        <time>2019-08-17T15:00:00Z</time>
      </trkpt>
      <trkpt lat="47.17056" lon="5.91923">
        <ele>223.3</ele>
        <time>2019-08-17T15:00:01Z</time>
      </trkpt>
      <trkpt lat="47.17056" lon="5.91916">
        <ele>223.3</ele>
        <time>2019-08-17T15:00:02Z</time>
      </trkpt>
      <trkpt lat="47.17056" lon="5.91909">
        <ele>223.3</ele>
        <time>2019-08-17T15:00:03Z</time>
      </trkpt>
      <trkpt lat="47.17056" lon="5.91901">
        <ele>223.4</ele>
        <time>2019-08-17T15:00:04Z</time>
      </trkpt>
      <trkpt lat="47.17056" lon="5.91896">
        <ele>223.4</ele>
        <time>2019-08-17T15:00:05Z</time>
      </trkpt>
      <trkpt lat="47.17056" lon="5.9189">
        <ele>223.4</ele>
        <time>2019-08-17T15:00:06Z</time>
      </trkpt>
      <trkpt lat="47.17057" lon="5.91884">
        <ele>223.5</ele>
        <time>2019-08-17T15:00:07Z</time>
      </trkpt>
      <trkpt lat="47.17058" lon="5.91878">
        <ele>223.5</ele>
        <time>2019-08-17T15:00:08Z</time>
      </trkpt>
      <trkpt lat="47.17059" lon="5.91872">
        <ele>223.6</ele>
        <time>2019-08-17T15:00:09Z</time>
      </trkpt>
      <trkpt lat="47.1706" lon="5.91866">
        <ele>223.6</ele>
        <time>2019-08-17T15:00:10Z</time>
      </trkpt>
      <trkpt lat="47.1706" lon="5.91859">
        <ele>223.7</ele>
        <time>2019-08-17T15:00:11Z</time>
      </trkpt>
      <trkpt lat="47.17061" lon="5.91852">
        <ele>223.7</ele>
        <time>2019-08-17T15:00:12Z</time>
      </trkpt>
      <trkpt lat="47.17061" lon="5.91844">
        <ele>223.8</ele>
        <time>2019-08-17T15:00:13Z</time>
      </trkpt>
      <trkpt lat="47.17061" lon="5.91837">
        <ele>223.9</ele>
        <time>2019-08-17T15:00:14Z</time>
      </trkpt>
      <trkpt lat="47.17061" lon="5.91829">
        <ele>224</ele>
        <time>2019-08-17T15:00:15Z</time>
      </trkpt>
      <trkpt lat="47.17061" lon="5.91821">
        <ele>224</ele>
        <time>2019-08-17T15:00:16Z</time>
      </trkpt>
      <trkpt lat="47.17062" lon="5.91814">
        <ele>224.1</ele>
        <time>2019-08-17T15:00:17Z</time>
      </trkpt>
      <trkpt lat="47.17062" lon="5.91807">
        <ele>224.1</ele>
        <time>2019-08-17T15:00:18Z</time>
      </trkpt>
      <trkpt lat="47.17061" lon="5.91801">
        <ele>224.1</ele>
        <time>2019-08-17T15:00:19Z</time>
      </trkpt>
      <trkpt lat="47.17061" lon="5.91796">
        <ele>224.2</ele>
        <time>2019-08-17T15:00:20Z</time>
      </trkpt>
      <trkpt lat="47.17061" lon="5.91789">
        <ele>224.2</ele>
        <time>2019-08-17T15:00:21Z</time>
      </trkpt>
      <trkpt lat="47.1706" lon="5.91783">
        <ele>224.2</ele>
        <time>2019-08-17T15:00:22Z</time>
      </trkpt>
      <trkpt lat="47.1706" lon="5.91776">
        <ele>224.3</ele>
        <time>2019-08-17T15:00:23Z</time>
      </trkpt>
      <trkpt lat="47.1706" lon="5.91768">
        <ele>224.3</ele>
        <time>2019-08-17T15:00:24Z</time>
      </trkpt>
      <trkpt lat="47.1706" lon="5.91761">
        <ele>224.3</ele>
        <time>2019-08-17T15:00:25Z</time>
      </trkpt>
      <trkpt lat="47.17059" lon="5.91755">
        <ele>224.3</ele>
        <time>2019-08-17T15:00:26Z</time>
      </trkpt>
      <trkpt lat="47.17058" lon="5.91748">
        <ele>224.3</ele>
        <time>2019-08-17T15:00:27Z</time>
      </trkpt>
      <trkpt lat="47.17058" lon="5.91741">
        <ele>224.3</ele>
        <time>2019-08-17T15:00:28Z</time>
      </trkpt>
      <trkpt lat="47.17056" lon="5.91734">
        <ele>224.3</ele>
        <time>2019-08-17T15:00:29Z</time>
      </trkpt>
      <trkpt lat="47.17054" lon="5.91727">
        <ele>224.3</ele>
        <time>2019-08-17T15:00:30Z</time>
      </trkpt>
      <trkpt lat="47.17053" lon="5.9172">
        <ele>224.3</ele>
        <time>2019-08-17T15:00:31Z</time>
      </trkpt>
      <trkpt lat="47.17051" lon="5.91714">
        <ele>224.3</ele>
        <time>2019-08-17T15:00:32Z</time>
      </trkpt>
      <trkpt lat="47.1705" lon="5.91708">
        <ele>224.3</ele>
        <time>2019-08-17T15:00:33Z</time>
      </trkpt>
      <trkpt lat="47.17048" lon="5.91701">
        <ele>224.3</ele>
        <time>2019-08-17T15:00:34Z</time>
      </trkpt>
      <trkpt lat="47.17047" lon="5.91695">
        <ele>224.3</ele>
        <time>2019-08-17T15:00:35Z</time>
      </trkpt>
      <trkpt lat="47.17045" lon="5.91688">
        <ele>224.3</ele>
        <time>2019-08-17T15:00:36Z</time>
      </trkpt>
      <trkpt lat="47.17044" lon="5.91681">
        <ele>224.4</ele>
        <time>2019-08-17T15:00:37Z</time>
      </trkpt>
      <trkpt lat="47.17042" lon="5.91676">
        <ele>224.4</ele>
        <time>2019-08-17T15:00:38Z</time>
      </trkpt>
      <trkpt lat="47.1704" lon="5.91669">
        <ele>224.4</ele>
        <time>2019-08-17T15:00:39Z</time>
      </trkpt>
      <trkpt lat="47.17038" lon="5.91662">
        <ele>224.4</ele>
        <time>2019-08-17T15:00:40Z</time>
      </trkpt>
      <trkpt lat="47.17035" lon="5.91654">
        <ele>224.5</ele>
        <time>2019-08-17T15:00:41Z</time>
      </trkpt>
      <trkpt lat="47.17033" lon="5.91648">
        <ele>224.6</ele>
        <time>2019-08-17T15:00:42Z</time>
      </trkpt>
      <trkpt lat="47.17031" lon="5.91641">
        <ele>224.7</ele>
        <time>2019-08-17T15:00:43Z</time>
      </trkpt>
      <trkpt lat="47.1703" lon="5.91634">
        <ele>224.7</ele>
        <time>2019-08-17T15:00:44Z</time>
      </trkpt>
      <trkpt lat="47.17028" lon="5.91628">
        <ele>224.8</ele>
        <time>2019-08-17T15:00:45Z</time>
      </trkpt>
      <trkpt lat="47.17027" lon="5.91621">
        <ele>224.8</ele>
        <time>2019-08-17T15:00:46Z</time>
      </trkpt>
      <trkpt lat="47.17025" lon="5.91615">
        <ele>224.9</ele>
        <time>2019-08-17T15:00:47Z</time>
      </trkpt>
      <trkpt lat="47.17023" lon="5.91609">
        <ele>225</ele>
        <time>2019-08-17T15:00:48Z</time>
      </trkpt>
      <trkpt lat="47.17021" lon="5.91602">
        <ele>225.1</ele>
        <time>2019-08-17T15:00:49Z</time>
      </trkpt>
      <trkpt lat="47.1702" lon="5.91595">
        <ele>225.2</ele>
        <time>2019-08-17T15:00:50Z</time>
      </trkpt>
      <trkpt lat="47.17019" lon="5.91588">
        <ele>225.3</ele>
        <time>2019-08-17T15:00:51Z</time>
      </trkpt>
      <trkpt lat="47.17016" lon="5.91582">
        <ele>225.4</ele>
        <time>2019-08-17T15:00:52Z</time>
      </trkpt>
      <trkpt lat="47.17014" lon="5.91575">
        <ele>225.6</ele>
        <time>2019-08-17T15:00:53Z</time>
      </trkpt>
      <trkpt lat="47.17012" lon="5.91569">
        <ele>225.7</ele>
        <time>2019-08-17T15:00:54Z</time>
      </trkpt>
      <trkpt lat="47.1701" lon="5.91562">
        <ele>225.8</ele>
        <time>2019-08-17T15:00:55Z</time>
      </trkpt>
      <trkpt lat="47.17009" lon="5.91556">
        <ele>226</ele>
        <time>2019-08-17T15:00:56Z</time>
      </trkpt>
      <trkpt lat="47.17007" lon="5.9155">
        <ele>226.1</ele>
        <time>2019-08-17T15:00:57Z</time>
      </trkpt>
      <trkpt lat="47.17007" lon="5.91544">
        <ele>226.2</ele>
        <time>2019-08-17T15:00:58Z</time>
      </trkpt>
      <trkpt lat="47.17007" lon="5.91539">
        <ele>226.3</ele>
        <time>2019-08-17T15:00:59Z</time>
      </trkpt>
      <trkpt lat="47.17006" lon="5.91533">
        <ele>226.5</ele>
        <time>2019-08-17T15:01:00Z</time>
      </trkpt>
      <trkpt lat="47.17005" lon="5.91528">
        <ele>226.7</ele>
        <time>2019-08-17T15:01:01Z</time>
      </trkpt>
      <trkpt lat="47.17003" lon="5.91522">
        <ele>226.8</ele>
        <time>2019-08-17T15:01:02Z</time>
      </trkpt>
      <trkpt lat="47.17002" lon="5.91517">
        <ele>227</ele>
        <time>2019-08-17T15:01:03Z</time>
      </trkpt>
      <trkpt lat="47.17" lon="5.91511">
        <ele>227.1</ele>
        <time>2019-08-17T15:01:04Z</time>
      </trkpt>
      <trkpt lat="47.16999" lon="5.91506">
        <ele>227.3</ele>
        <time>2019-08-17T15:01:05Z</time>
      </trkpt>
      <trkpt lat="47.16998" lon="5.91501">
        <ele>227.4</ele>
        <time>2019-08-17T15:01:06Z</time>
      </trkpt>
      <trkpt lat="47.16997" lon="5.91497">
        <ele>227.6</ele>
        <time>2019-08-17T15:01:07Z</time>
      </trkpt>
      <trkpt lat="47.16995" lon="5.91493">
        <ele>227.7</ele>
        <time>2019-08-17T15:01:08Z</time>
      </trkpt>
      <trkpt lat="47.16994" lon="5.91486">
        <ele>228.3</ele>
        <time>2019-08-17T15:01:10Z</time>
      </trkpt>
      <trkpt lat="47.16996" lon="5.91482">
        <ele>228.3</ele>
        <time>2019-08-17T15:01:12Z</time>
      </trkpt>
      <trkpt lat="47.16999" lon="5.91481">
        <ele>228.3</ele>
        <time>2019-08-17T15:01:13Z</time>
      </trkpt>
      <trkpt lat="47.17002" lon="5.91479">
        <ele>228</ele>
        <time>2019-08-17T15:01:14Z</time>
      </trkpt>
      <trkpt lat="47.17007" lon="5.91478">
        <ele>228</ele>
        <time>2019-08-17T15:01:16Z</time>
      </trkpt>
      <trkpt lat="47.1701" lon="5.91477">
        <ele>228</ele>
        <time>2019-08-17T15:01:17Z</time>
      </trkpt>
      <trkpt lat="47.17012" lon="5.91476">
        <ele>227.9</ele>
        <time>2019-08-17T15:01:18Z</time>
      </trkpt>
      <trkpt lat="47.17015" lon="5.91475">
        <ele>228</ele>
        <time>2019-08-17T15:01:19Z</time>
      </trkpt>
      <trkpt lat="47.17018" lon="5.91473">
        <ele>228</ele>
        <time>2019-08-17T15:01:20Z</time>
      </trkpt>
      <trkpt lat="47.1702" lon="5.91468">
        <ele>228</ele>
        <time>2019-08-17T15:01:21Z</time>
      </trkpt>
      <trkpt lat="47.17021" lon="5.91459">
        <ele>228</ele>
        <time>2019-08-17T15:01:22Z</time>
      </trkpt>
      <trkpt lat="47.17022" lon="5.91451">
        <ele>228</ele>
        <time>2019-08-17T15:01:23Z</time>
      </trkpt>
      <trkpt lat="47.17021" lon="5.91444">
        <ele>228</ele>
        <time>2019-08-17T15:01:24Z</time>
      </trkpt>
      <trkpt lat="47.17019" lon="5.91439">
        <ele>228</ele>
        <time>2019-08-17T15:01:25Z</time>
      </trkpt>
      <trkpt lat="47.17017" lon="5.91433">
        <ele>227.9</ele>
        <time>2019-08-17T15:01:26Z</time>
      </trkpt>
      <trkpt lat="47.17014" lon="5.91426">
        <ele>227.8</ele>
        <time>2019-08-17T15:01:27Z</time>
      </trkpt>
      <trkpt lat="47.17012" lon="5.91421">
        <ele>227.7</ele>
        <time>2019-08-17T15:01:28Z</time>
      </trkpt>
      <trkpt lat="47.17009" lon="5.91414">
        <ele>227.6</ele>
        <time>2019-08-17T15:01:29Z</time>
      </trkpt>
      <trkpt lat="47.17006" lon="5.91408">
        <ele>227.5</ele>
        <time>2019-08-17T15:01:30Z</time>
      </trkpt>
      <trkpt lat="47.17004" lon="5.914">
        <ele>227.4</ele>
        <time>2019-08-17T15:01:31Z</time>
      </trkpt>
      <trkpt lat="47.17001" lon="5.91394">
        <ele>227.3</ele>
        <time>2019-08-17T15:01:32Z</time>
      </trkpt>
      <trkpt lat="47.16998" lon="5.91386">
        <ele>227.2</ele>
        <time>2019-08-17T15:01:33Z</time>
      </trkpt>
      <trkpt lat="47.16996" lon="5.9138">
        <ele>227.1</ele>
        <time>2019-08-17T15:01:34Z</time>
      </trkpt>
      <trkpt lat="47.16994" lon="5.91373">
        <ele>227</ele>
        <time>2019-08-17T15:01:35Z</time>
      </trkpt>
      <trkpt lat="47.16992" lon="5.91366">
        <ele>226.9</ele>
        <time>2019-08-17T15:01:36Z</time>
      </trkpt>
      <trkpt lat="47.1699" lon="5.9136">
        <ele>226.8</ele>
        <time>2019-08-17T15:01:37Z</time>
      </trkpt>
      <trkpt lat="47.16989" lon="5.91353">
        <ele>226.7</ele>
        <time>2019-08-17T15:01:38Z</time>
      </trkpt>
      <trkpt lat="47.16988" lon="5.91345">
        <ele>226.7</ele>
        <time>2019-08-17T15:01:39Z</time>
      </trkpt>
      <trkpt lat="47.16987" lon="5.91338">
        <ele>226.6</ele>
        <time>2019-08-17T15:01:40Z</time>
      </trkpt>
      <trkpt lat="47.16986" lon="5.9133">
        <ele>226.5</ele>
        <time>2019-08-17T15:01:41Z</time>
      </trkpt>
      <trkpt lat="47.16985" lon="5.91322">
        <ele>226.4</ele>
        <time>2019-08-17T15:01:42Z</time>
      </trkpt>
      <trkpt lat="47.16983" lon="5.91315">
        <ele>226.3</ele>
        <time>2019-08-17T15:01:43Z</time>
      </trkpt>
      <trkpt lat="47.16982" lon="5.91308">
        <ele>226.2</ele>
        <time>2019-08-17T15:01:44Z</time>
      </trkpt>
      <trkpt lat="47.16981" lon="5.91301">
        <ele>226.2</ele>
        <time>2019-08-17T15:01:45Z</time>
      </trkpt>
      <trkpt lat="47.1698" lon="5.91294">
        <ele>226.1</ele>
        <time>2019-08-17T15:01:46Z</time>
      </trkpt>
      <trkpt lat="47.1698" lon="5.91286">
        <ele>226</ele>
        <time>2019-08-17T15:01:47Z</time>
      </trkpt>
      <trkpt lat="47.16981" lon="5.9128">
        <ele>226</ele>
        <time>2019-08-17T15:01:48Z</time>
      </trkpt>
      <trkpt lat="47.16983" lon="5.91272">
        <ele>225.9</ele>
        <time>2019-08-17T15:01:49Z</time>
      </trkpt>
      <trkpt lat="47.16984" lon="5.91266">
        <ele>225.9</ele>
        <time>2019-08-17T15:01:50Z</time>
      </trkpt>
      <trkpt lat="47.16986" lon="5.9126">
        <ele>225.8</ele>
        <time>2019-08-17T15:01:51Z</time>
      </trkpt>
      <trkpt lat="47.16987" lon="5.91253">
        <ele>225.7</ele>
        <time>2019-08-17T15:01:52Z</time>
      </trkpt>
      <trkpt lat="47.16988" lon="5.91246">
        <ele>225.6</ele>
        <time>2019-08-17T15:01:53Z</time>
      </trkpt>
      <trkpt lat="47.16991" lon="5.91242">
        <ele>225.5</ele>
        <time>2019-08-17T15:01:54Z</time>
      </trkpt>
      <trkpt lat="47.16993" lon="5.91235">
        <ele>225.4</ele>
        <time>2019-08-17T15:01:55Z</time>
      </trkpt>
      <trkpt lat="47.16995" lon="5.91229">
        <ele>225.3</ele>
        <time>2019-08-17T15:01:56Z</time>
      </trkpt>
      <trkpt lat="47.16997" lon="5.91224">
        <ele>225.2</ele>
        <time>2019-08-17T15:01:57Z</time>
      </trkpt>
      <trkpt lat="47.16999" lon="5.91218">
        <ele>225</ele>
        <time>2019-08-17T15:01:58Z</time>
      </trkpt>
      <trkpt lat="47.17" lon="5.91213">
        <ele>224.9</ele>
        <time>2019-08-17T15:01:59Z</time>
      </trkpt>
      <trkpt lat="47.17001" lon="5.91207">
        <ele>224.8</ele>
        <time>2019-08-17T15:02:00Z</time>
      </trkpt>
      <trkpt lat="47.17002" lon="5.91202">
        <ele>224.7</ele>
        <time>2019-08-17T15:02:01Z</time>
      </trkpt>
      <trkpt lat="47.17004" lon="5.91197">
        <ele>224.6</ele>
        <time>2019-08-17T15:02:02Z</time>
      </trkpt>
      <trkpt lat="47.17006" lon="5.91191">
        <ele>224.5</ele>
        <time>2019-08-17T15:02:03Z</time>
      </trkpt>
      <trkpt lat="47.17008" lon="5.91186">
        <ele>224.4</ele>
        <time>2019-08-17T15:02:04Z</time>
      </trkpt>
      <trkpt lat="47.17009" lon="5.9118">
        <ele>224.2</ele>
        <time>2019-08-17T15:02:05Z</time>
      </trkpt>
      <trkpt lat="47.17011" lon="5.91175">
        <ele>224.1</ele>
        <time>2019-08-17T15:02:06Z</time>
      </trkpt>
      <trkpt lat="47.17012" lon="5.91169">
        <ele>224</ele>
        <time>2019-08-17T15:02:07Z</time>
      </trkpt>
      <trkpt lat="47.17013" lon="5.91163">
        <ele>223.8</ele>
        <time>2019-08-17T15:02:08Z</time>
      </trkpt>
      <trkpt lat="47.17015" lon="5.91156">
        <ele>223.7</ele>
        <time>2019-08-17T15:02:09Z</time>
      </trkpt>
      <trkpt lat="47.17016" lon="5.91149">
        <ele>223.6</ele>
        <time>2019-08-17T15:02:10Z</time>
      </trkpt>
      <trkpt lat="47.17017" lon="5.91143">
        <ele>223.5</ele>
        <time>2019-08-17T15:02:11Z</time>
      </trkpt>
      <trkpt lat="47.17018" lon="5.91136">
        <ele>223.4</ele>
        <time>2019-08-17T15:02:12Z</time>
      </trkpt>
      <trkpt lat="47.1702" lon="5.9113">
        <ele>223.3</ele>
        <time>2019-08-17T15:02:13Z</time>
      </trkpt>
      <trkpt lat="47.17021" lon="5.91124">
        <ele>223.3</ele>
        <time>2019-08-17T15:02:14Z</time>
      </trkpt>
      <trkpt lat="47.17024" lon="5.91117">
        <ele>223.2</ele>
        <time>2019-08-17T15:02:15Z</time>
      </trkpt>
      <trkpt lat="47.17025" lon="5.91111">
        <ele>223.2</ele>
        <time>2019-08-17T15:02:16Z</time>
      </trkpt>
      <trkpt lat="47.17026" lon="5.91104">
        <ele>223.2</ele>
        <time>2019-08-17T15:02:17Z</time>
      </trkpt>
      <trkpt lat="47.17028" lon="5.91097">
        <ele>223.2</ele>
        <time>2019-08-17T15:02:18Z</time>
      </trkpt>
      <trkpt lat="47.17029" lon="5.91091">
        <ele>223.1</ele>
        <time>2019-08-17T15:02:19Z</time>
      </trkpt>
      <trkpt lat="47.17031" lon="5.91084">
        <ele>223.1</ele>
        <time>2019-08-17T15:02:20Z</time>
      </trkpt>
      <trkpt lat="47.17032" lon="5.91077">
        <ele>223.1</ele>
        <time>2019-08-17T15:02:21Z</time>
      </trkpt>
      <trkpt lat="47.17035" lon="5.9107">
        <ele>223.1</ele>
        <time>2019-08-17T15:02:22Z</time>
      </trkpt>
      <trkpt lat="47.17038" lon="5.91064">
        <ele>223.1</ele>
        <time>2019-08-17T15:02:23Z</time>
      </trkpt>
      <trkpt lat="47.1704" lon="5.91057">
        <ele>223.2</ele>
        <time>2019-08-17T15:02:24Z</time>
      </trkpt>
      <trkpt lat="47.17042" lon="5.91052">
        <ele>223.2</ele>
        <time>2019-08-17T15:02:25Z</time>
      </trkpt>
      <trkpt lat="47.17044" lon="5.91045">
        <ele>223.2</ele>
        <time>2019-08-17T15:02:26Z</time>
      </trkpt>
      <trkpt lat="47.17046" lon="5.9104">
        <ele>223.2</ele>
        <time>2019-08-17T15:02:27Z</time>
      </trkpt>
      <trkpt lat="47.17047" lon="5.91034">
        <ele>223.2</ele>
        <time>2019-08-17T15:02:28Z</time>
      </trkpt>
      <trkpt lat="47.17049" lon="5.91029">
        <ele>223.1</ele>
        <time>2019-08-17T15:02:29Z</time>
      </trkpt>
      <trkpt lat="47.17051" lon="5.91023">
        <ele>223.1</ele>
        <time>2019-08-17T15:02:30Z</time>
      </trkpt>
      <trkpt lat="47.17052" lon="5.91018">
        <ele>223.1</ele>
        <time>2019-08-17T15:02:31Z</time>
      </trkpt>
      <trkpt lat="47.17054" lon="5.91012">
        <ele>223</ele>
        <time>2019-08-17T15:02:32Z</time>
      </trkpt>
      <trkpt lat="47.17056" lon="5.91005">
        <ele>223</ele>
        <time>2019-08-17T15:02:33Z</time>
      </trkpt>
      <trkpt lat="47.17057" lon="5.91">
        <ele>222.9</ele>
        <time>2019-08-17T15:02:34Z</time>
      </trkpt>
      <trkpt lat="47.17059" lon="5.90992">
        <ele>222.9</ele>
        <time>2019-08-17T15:02:35Z</time>
      </trkpt>
      <trkpt lat="47.17061" lon="5.90986">
        <ele>222.8</ele>
        <time>2019-08-17T15:02:36Z</time>
      </trkpt>
      <trkpt lat="47.17063" lon="5.90979">
        <ele>222.8</ele>
        <time>2019-08-17T15:02:37Z</time>
      </trkpt>
      <trkpt lat="47.17066" lon="5.90973">
        <ele>222.8</ele>
        <time>2019-08-17T15:02:38Z</time>
      </trkpt>
      <trkpt lat="47.1707" lon="5.90968">
        <ele>222.7</ele>
        <time>2019-08-17T15:02:39Z</time>
      </trkpt>
      <trkpt lat="47.17073" lon="5.90963">
        <ele>222.7</ele>
        <time>2019-08-17T15:02:40Z</time>
      </trkpt>
      <trkpt lat="47.17076" lon="5.90958">
        <ele>222.6</ele>
        <time>2019-08-17T15:02:41Z</time>
      </trkpt>
      <trkpt lat="47.17077" lon="5.90951">
        <ele>222.6</ele>
        <time>2019-08-17T15:02:42Z</time>
      </trkpt>
      <trkpt lat="47.17079" lon="5.90946">
        <ele>222.6</ele>
        <time>2019-08-17T15:02:43Z</time>
      </trkpt>
      <trkpt lat="47.17082" lon="5.9094">
        <ele>222.6</ele>
        <time>2019-08-17T15:02:44Z</time>
      </trkpt>
      <trkpt lat="47.17084" lon="5.90935">
        <ele>222.5</ele>
        <time>2019-08-17T15:02:45Z</time>
      </trkpt>
      <trkpt lat="47.17086" lon="5.9093">
        <ele>222.5</ele>
        <time>2019-08-17T15:02:46Z</time>
      </trkpt>
      <trkpt lat="47.17088" lon="5.90924">
        <ele>222.5</ele>
        <time>2019-08-17T15:02:47Z</time>
      </trkpt>
      <trkpt lat="47.1709" lon="5.90917">
        <ele>222.5</ele>
        <time>2019-08-17T15:02:48Z</time>
      </trkpt>
      <trkpt lat="47.17091" lon="5.90911">
        <ele>222.4</ele>
        <time>2019-08-17T15:02:49Z</time>
      </trkpt>
      <trkpt lat="47.17093" lon="5.90905">
        <ele>222.4</ele>
        <time>2019-08-17T15:02:50Z</time>
      </trkpt>
      <trkpt lat="47.17095" lon="5.90898">
        <ele>222.4</ele>
        <time>2019-08-17T15:02:51Z</time>
      </trkpt>
      <trkpt lat="47.17098" lon="5.90892">
        <ele>222.3</ele>
        <time>2019-08-17T15:02:52Z</time>
      </trkpt>
      <trkpt lat="47.17101" lon="5.90886">
        <ele>222.3</ele>
        <time>2019-08-17T15:02:53Z</time>
      </trkpt>
      <trkpt lat="47.17104" lon="5.9088">
        <ele>222.3</ele>
        <time>2019-08-17T15:02:54Z</time>
      </trkpt>
      <trkpt lat="47.17107" lon="5.90874">
        <ele>222.2</ele>
        <time>2019-08-17T15:02:55Z</time>
      </trkpt>
      <trkpt lat="47.1711" lon="5.90869">
        <ele>222.2</ele>
        <time>2019-08-17T15:02:56Z</time>
      </trkpt>
      <trkpt lat="47.17113" lon="5.90863">
        <ele>222.1</ele>
        <time>2019-08-17T15:02:57Z</time>
      </trkpt>
      <trkpt lat="47.17116" lon="5.90858">
        <ele>222.1</ele>
        <time>2019-08-17T15:02:58Z</time>
      </trkpt>
      <trkpt lat="47.1712" lon="5.90853">
        <ele>222</ele>
        <time>2019-08-17T15:02:59Z</time>
      </trkpt>
      <trkpt lat="47.17123" lon="5.90848">
        <ele>221.9</ele>
        <time>2019-08-17T15:03:00Z</time>
      </trkpt>
      <trkpt lat="47.17127" lon="5.90843">
        <ele>221.8</ele>
        <time>2019-08-17T15:03:01Z</time>
      </trkpt>
      <trkpt lat="47.17131" lon="5.90839">
        <ele>221.7</ele>
        <time>2019-08-17T15:03:02Z</time>
      </trkpt>
      <trkpt lat="47.17135" lon="5.90836">
        <ele>221.6</ele>
        <time>2019-08-17T15:03:03Z</time>
      </trkpt>
      <trkpt lat="47.17138" lon="5.90832">
        <ele>221.6</ele>
        <time>2019-08-17T15:03:04Z</time>
      </trkpt>
      <trkpt lat="47.17141" lon="5.90828">
        <ele>221.5</ele>
        <time>2019-08-17T15:03:05Z</time>
      </trkpt>
      <trkpt lat="47.17145" lon="5.90824">
        <ele>221.5</ele>
        <time>2019-08-17T15:03:06Z</time>
      </trkpt>
      <trkpt lat="47.17148" lon="5.90816">
        <ele>221.6</ele>
        <time>2019-08-17T15:03:07Z</time>
      </trkpt>
      <trkpt lat="47.17149" lon="5.90808">
        <ele>222.1</ele>
        <time>2019-08-17T15:03:08Z</time>
      </trkpt>
      <trkpt lat="47.1715" lon="5.908">
        <ele>222.7</ele>
        <time>2019-08-17T15:03:09Z</time>
      </trkpt>
      <trkpt lat="47.17151" lon="5.90794">
        <ele>223.1</ele>
        <time>2019-08-17T15:03:10Z</time>
      </trkpt>
      <trkpt lat="47.17152" lon="5.90788">
        <ele>224.8</ele>
        <time>2019-08-17T15:03:11Z</time>
      </trkpt>
      <trkpt lat="47.17153" lon="5.90784">
        <ele>225.4</ele>
        <time>2019-08-17T15:03:12Z</time>
      </trkpt>
      <trkpt lat="47.17155" lon="5.90778">
        <ele>226</ele>
        <time>2019-08-17T15:03:13Z</time>
      </trkpt>
      <trkpt lat="47.17157" lon="5.90772">
        <ele>226.8</ele>
        <time>2019-08-17T15:03:14Z</time>
      </trkpt>
      <trkpt lat="47.17159" lon="5.90766">
        <ele>227.6</ele>
        <time>2019-08-17T15:03:15Z</time>
      </trkpt>
      <trkpt lat="47.1716" lon="5.9076">
        <ele>228.2</ele>
        <time>2019-08-17T15:03:16Z</time>
      </trkpt>
      <trkpt lat="47.17162" lon="5.90754">
        <ele>228.9</ele>
        <time>2019-08-17T15:03:17Z</time>
      </trkpt>
      <trkpt lat="47.17164" lon="5.9075">
        <ele>229.5</ele>
        <time>2019-08-17T15:03:18Z</time>
      </trkpt>
      <trkpt lat="47.17165" lon="5.90745">
        <ele>230</ele>
        <time>2019-08-17T15:03:19Z</time>
      </trkpt>
      <trkpt lat="47.17167" lon="5.90741">
        <ele>230.4</ele>
        <time>2019-08-17T15:03:20Z</time>
      </trkpt>
      <trkpt lat="47.17167" lon="5.90736">
        <ele>230.7</ele>
        <time>2019-08-17T15:03:21Z</time>
      </trkpt>
      <trkpt lat="47.17169" lon="5.9073">
        <ele>231.2</ele>
        <time>2019-08-17T15:03:22Z</time>
      </trkpt>
      <trkpt lat="47.1717" lon="5.90724">
        <ele>231.7</ele>
        <time>2019-08-17T15:03:23Z</time>
      </trkpt>
      <trkpt lat="47.1717" lon="5.90718">
        <ele>232.2</ele>
        <time>2019-08-17T15:03:24Z</time>
      </trkpt>
      <trkpt lat="47.17171" lon="5.90713">
        <ele>232.8</ele>
        <time>2019-08-17T15:03:25Z</time>
      </trkpt>
      <trkpt lat="47.17173" lon="5.90708">
        <ele>233.3</ele>
        <time>2019-08-17T15:03:26Z</time>
      </trkpt>
      <trkpt lat="47.17175" lon="5.90702">
        <ele>234.1</ele>
        <time>2019-08-17T15:03:27Z</time>
      </trkpt>
      <trkpt lat="47.17177" lon="5.90697">
        <ele>234.7</ele>
        <time>2019-08-17T15:03:28Z</time>
      </trkpt>
      <trkpt lat="47.17178" lon="5.90692">
        <ele>235.5</ele>
        <time>2019-08-17T15:03:29Z</time>
      </trkpt>
      <trkpt lat="47.1718" lon="5.90687">
        <ele>235.8</ele>
        <time>2019-08-17T15:03:30Z</time>
      </trkpt>
      <trkpt lat="47.17182" lon="5.90682">
        <ele>236</ele>
        <time>2019-08-17T15:03:31Z</time>
      </trkpt>
      <trkpt lat="47.17184" lon="5.90677">
        <ele>236.2</ele>
        <time>2019-08-17T15:03:32Z</time>
      </trkpt>
      <trkpt lat="47.17185" lon="5.90673">
        <ele>236.4</ele>
        <time>2019-08-17T15:03:33Z</time>
      </trkpt>
      <trkpt lat="47.17188" lon="5.9067">
        <ele>236.6</ele>
        <time>2019-08-17T15:03:34Z</time>
      </trkpt>
      <trkpt lat="47.17191" lon="5.90665">
        <ele>236.8</ele>
        <time>2019-08-17T15:03:36Z</time>
      </trkpt>
      <trkpt lat="47.17194" lon="5.90658">
        <ele>237</ele>
        <time>2019-08-17T15:03:38Z</time>
      </trkpt>
      <trkpt lat="47.17198" lon="5.90653">
        <ele>237.2</ele>
        <time>2019-08-17T15:03:40Z</time>
      </trkpt>
      <trkpt lat="47.172" lon="5.9065">
        <ele>237.4</ele>
        <time>2019-08-17T15:03:41Z</time>
      </trkpt>
      <trkpt lat="47.17202" lon="5.90647">
        <ele>237.5</ele>
        <time>2019-08-17T15:03:42Z</time>
      </trkpt>
      <trkpt lat="47.17204" lon="5.90644">
        <ele>237.6</ele>
        <time>2019-08-17T15:03:43Z</time>
      </trkpt>
      <trkpt lat="47.17206" lon="5.90641">
        <ele>237.8</ele>
        <time>2019-08-17T15:03:44Z</time>
      </trkpt>
      <trkpt lat="47.17209" lon="5.90636">
        <ele>238.1</ele>
        <time>2019-08-17T15:03:46Z</time>
      </trkpt>
      <trkpt lat="47.17213" lon="5.90631">
        <ele>238.3</ele>
        <time>2019-08-17T15:03:48Z</time>
      </trkpt>
      <trkpt lat="47.17217" lon="5.90626">
        <ele>238.6</ele>
        <time>2019-08-17T15:03:50Z</time>
      </trkpt>
      <trkpt lat="47.17219" lon="5.90623">
        <ele>238.8</ele>
        <time>2019-08-17T15:03:51Z</time>
      </trkpt>
      <trkpt lat="47.1722" lon="5.9062">
        <ele>239</ele>
        <time>2019-08-17T15:03:52Z</time>
      </trkpt>
      <trkpt lat="47.17222" lon="5.90616">
        <ele>239.1</ele>
        <time>2019-08-17T15:03:53Z</time>
      </trkpt>
      <trkpt lat="47.17224" lon="5.9061">
        <ele>239.4</ele>
        <time>2019-08-17T15:03:55Z</time>
      </trkpt>
      <trkpt lat="47.17227" lon="5.90604">
        <ele>239.7</ele>
        <time>2019-08-17T15:03:57Z</time>
      </trkpt>
      <trkpt lat="47.17231" lon="5.90599">
        <ele>240</ele>
        <time>2019-08-17T15:03:59Z</time>
      </trkpt>
      <trkpt lat="47.17235" lon="5.90594">
        <ele>240.4</ele>
        <time>2019-08-17T15:04:01Z</time>
      </trkpt>
      <trkpt lat="47.17237" lon="5.90592">
        <ele>240.7</ele>
        <time>2019-08-17T15:04:02Z</time>
      </trkpt>
      <trkpt lat="47.1724" lon="5.90589">
        <ele>240.9</ele>
        <time>2019-08-17T15:04:03Z</time>
      </trkpt>
      <trkpt lat="47.17243" lon="5.90587">
        <ele>241.1</ele>
        <time>2019-08-17T15:04:04Z</time>
      </trkpt>
      <trkpt lat="47.17245" lon="5.90585">
        <ele>241.3</ele>
        <time>2019-08-17T15:04:05Z</time>
      </trkpt>
      <trkpt lat="47.17247" lon="5.90583">
        <ele>241.4</ele>
        <time>2019-08-17T15:04:06Z</time>
      </trkpt>
      <trkpt lat="47.1725" lon="5.90581">
        <ele>241.6</ele>
        <time>2019-08-17T15:04:07Z</time>
      </trkpt>
      <trkpt lat="47.17253" lon="5.90577">
        <ele>241.8</ele>
        <time>2019-08-17T15:04:09Z</time>
      </trkpt>
      <trkpt lat="47.17258" lon="5.90573">
        <ele>242.1</ele>
        <time>2019-08-17T15:04:11Z</time>
      </trkpt>
      <trkpt lat="47.17261" lon="5.90567">
        <ele>242.4</ele>
        <time>2019-08-17T15:04:13Z</time>
      </trkpt>
      <trkpt lat="47.17262" lon="5.90562">
        <ele>242.7</ele>
        <time>2019-08-17T15:04:14Z</time>
      </trkpt>
      <trkpt lat="47.17261" lon="5.90557">
        <ele>243.1</ele>
        <time>2019-08-17T15:04:15Z</time>
      </trkpt>
      <trkpt lat="47.17259" lon="5.90553">
        <ele>243.4</ele>
        <time>2019-08-17T15:04:16Z</time>
      </trkpt>
      <trkpt lat="47.17256" lon="5.90547">
        <ele>243.8</ele>
        <time>2019-08-17T15:04:18Z</time>
      </trkpt>
      <trkpt lat="47.17253" lon="5.90543">
        <ele>244.1</ele>
        <time>2019-08-17T15:04:20Z</time>
      </trkpt>
      <trkpt lat="47.1725" lon="5.90537">
        <ele>244.4</ele>
        <time>2019-08-17T15:04:22Z</time>
      </trkpt>
      <trkpt lat="47.17247" lon="5.90531">
        <ele>244.8</ele>
        <time>2019-08-17T15:04:24Z</time>
      </trkpt>
      <trkpt lat="47.17245" lon="5.90525">
        <ele>245.3</ele>
        <time>2019-08-17T15:04:26Z</time>
      </trkpt>
      <trkpt lat="47.17244" lon="5.9052">
        <ele>245.5</ele>
        <time>2019-08-17T15:04:27Z</time>
      </trkpt>
      <trkpt lat="47.17244" lon="5.90512">
        <ele>246</ele>
        <time>2019-08-17T15:04:29Z</time>
      </trkpt>
      <trkpt lat="47.17243" lon="5.90507">
        <ele>246.2</ele>
        <time>2019-08-17T15:04:30Z</time>
      </trkpt>
      <trkpt lat="47.17243" lon="5.90502">
        <ele>246.5</ele>
        <time>2019-08-17T15:04:31Z</time>
      </trkpt>
      <trkpt lat="47.17244" lon="5.90496">
        <ele>246.8</ele>
        <time>2019-08-17T15:04:33Z</time>
      </trkpt>
      <trkpt lat="47.17239" lon="5.90492">
        <ele>247.2</ele>
        <time>2019-08-17T15:04:38Z</time>
      </trkpt>
      <trkpt lat="47.17235" lon="5.90492">
        <ele>247.5</ele>
        <time>2019-08-17T15:04:41Z</time>
      </trkpt>
      <trkpt lat="47.17231" lon="5.90493">
        <ele>247.7</ele>
        <time>2019-08-17T15:04:43Z</time>
      </trkpt>
      <trkpt lat="47.17227" lon="5.90493">
        <ele>247.4</ele>
        <time>2019-08-17T15:04:45Z</time>
      </trkpt>
      <trkpt lat="47.17223" lon="5.90493">
        <ele>246.8</ele>
        <time>2019-08-17T15:05:06Z</time>
      </trkpt>
      <trkpt lat="47.17219" lon="5.90493">
        <ele>246.3</ele>
        <time>2019-08-17T15:05:07Z</time>
      </trkpt>
      <trkpt lat="47.17211" lon="5.90495">
        <ele>245.2</ele>
        <time>2019-08-17T15:05:08Z</time>
      </trkpt>
      <trkpt lat="47.17205" lon="5.90496">
        <ele>244.4</ele>
        <time>2019-08-17T15:05:09Z</time>
      </trkpt>
      <trkpt lat="47.172" lon="5.90497">
        <ele>243.7</ele>
        <time>2019-08-17T15:05:10Z</time>
      </trkpt>
      <trkpt lat="47.17195" lon="5.90498">
        <ele>243</ele>
        <time>2019-08-17T15:05:11Z</time>
      </trkpt>
      <trkpt lat="47.1719" lon="5.90498">
        <ele>242.3</ele>
        <time>2019-08-17T15:05:12Z</time>
      </trkpt>
      <trkpt lat="47.17179" lon="5.90494">
        <ele>241.3</ele>
        <time>2019-08-17T15:05:13Z</time>
      </trkpt>
      <trkpt lat="47.17171" lon="5.90495">
        <ele>240.7</ele>
        <time>2019-08-17T15:05:14Z</time>
      </trkpt>
      <trkpt lat="47.17164" lon="5.90497">
        <ele>240.2</ele>
        <time>2019-08-17T15:05:15Z</time>
      </trkpt>
      <trkpt lat="47.17156" lon="5.90499">
        <ele>239.6</ele>
        <time>2019-08-17T15:05:16Z</time>
      </trkpt>
      <trkpt lat="47.1715" lon="5.90502">
        <ele>239</ele>
        <time>2019-08-17T15:05:17Z</time>
      </trkpt>
      <trkpt lat="47.17144" lon="5.90506">
        <ele>238.4</ele>
        <time>2019-08-17T15:05:18Z</time>
      </trkpt>
      <trkpt lat="47.17138" lon="5.90509">
        <ele>237.7</ele>
        <time>2019-08-17T15:05:19Z</time>
      </trkpt>
      <trkpt lat="47.17133" lon="5.90512">
        <ele>236.9</ele>
        <time>2019-08-17T15:05:20Z</time>
      </trkpt>
      <trkpt lat="47.17127" lon="5.90515">
        <ele>236.2</ele>
        <time>2019-08-17T15:05:21Z</time>
      </trkpt>
      <trkpt lat="47.17123" lon="5.90518">
        <ele>235.8</ele>
        <time>2019-08-17T15:05:22Z</time>
      </trkpt>
      <trkpt lat="47.17119" lon="5.90521">
        <ele>235.4</ele>
        <time>2019-08-17T15:05:23Z</time>
      </trkpt>
      <trkpt lat="47.17114" lon="5.90524">
        <ele>235.1</ele>
        <time>2019-08-17T15:05:24Z</time>
      </trkpt>
      <trkpt lat="47.1711" lon="5.90529">
        <ele>234.6</ele>
        <time>2019-08-17T15:05:25Z</time>
      </trkpt>
      <trkpt lat="47.17105" lon="5.90533">
        <ele>234.2</ele>
        <time>2019-08-17T15:05:26Z</time>
      </trkpt>
      <trkpt lat="47.171" lon="5.90537">
        <ele>233.8</ele>
        <time>2019-08-17T15:05:27Z</time>
      </trkpt>
      <trkpt lat="47.17096" lon="5.9054">
        <ele>233.4</ele>
        <time>2019-08-17T15:05:28Z</time>
      </trkpt>
      <trkpt lat="47.17092" lon="5.90541">
        <ele>233.2</ele>
        <time>2019-08-17T15:05:29Z</time>
      </trkpt>
      <trkpt lat="47.17089" lon="5.90543">
        <ele>232.9</ele>
        <time>2019-08-17T15:05:31Z</time>
      </trkpt>
      <trkpt lat="47.17086" lon="5.90547">
        <ele>232.6</ele>
        <time>2019-08-17T15:05:35Z</time>
      </trkpt>
      <trkpt lat="47.17083" lon="5.90549">
        <ele>232.3</ele>
        <time>2019-08-17T15:05:37Z</time>
      </trkpt>
      <trkpt lat="47.17079" lon="5.90552">
        <ele>232</ele>
        <time>2019-08-17T15:05:39Z</time>
      </trkpt>
      <trkpt lat="47.17076" lon="5.90553">
        <ele>231.7</ele>
        <time>2019-08-17T15:05:41Z</time>
      </trkpt>
      <trkpt lat="47.17073" lon="5.90555">
        <ele>231.4</ele>
        <time>2019-08-17T15:05:42Z</time>
      </trkpt>
      <trkpt lat="47.17069" lon="5.90556">
        <ele>231</ele>
        <time>2019-08-17T15:05:43Z</time>
      </trkpt>
      <trkpt lat="47.17065" lon="5.90559">
        <ele>230.6</ele>
        <time>2019-08-17T15:05:44Z</time>
      </trkpt>
      <trkpt lat="47.17061" lon="5.90563">
        <ele>230.3</ele>
        <time>2019-08-17T15:05:45Z</time>
      </trkpt>
      <trkpt lat="47.17056" lon="5.90565">
        <ele>230.1</ele>
        <time>2019-08-17T15:05:46Z</time>
      </trkpt>
      <trkpt lat="47.17051" lon="5.90568">
        <ele>229.7</ele>
        <time>2019-08-17T15:05:47Z</time>
      </trkpt>
      <trkpt lat="47.17046" lon="5.90571">
        <ele>229.4</ele>
        <time>2019-08-17T15:05:48Z</time>
      </trkpt>
      <trkpt lat="47.1704" lon="5.90574">
        <ele>229.1</ele>
        <time>2019-08-17T15:05:49Z</time>
      </trkpt>
      <trkpt lat="47.17035" lon="5.90577">
        <ele>228.8</ele>
        <time>2019-08-17T15:05:50Z</time>
      </trkpt>
      <trkpt lat="47.17029" lon="5.9058">
        <ele>228.5</ele>
        <time>2019-08-17T15:05:51Z</time>
      </trkpt>
      <trkpt lat="47.17023" lon="5.90582">
        <ele>228.1</ele>
        <time>2019-08-17T15:05:52Z</time>
      </trkpt>
      <trkpt lat="47.17017" lon="5.90583">
        <ele>227.7</ele>
        <time>2019-08-17T15:05:53Z</time>
      </trkpt>
      <trkpt lat="47.1701" lon="5.90583">
        <ele>227.5</ele>
        <time>2019-08-17T15:05:54Z</time>
      </trkpt>
      <trkpt lat="47.17003" lon="5.90583">
        <ele>227.3</ele>
        <time>2019-08-17T15:05:55Z</time>
      </trkpt>
      <trkpt lat="47.16997" lon="5.90581">
        <ele>227.1</ele>
        <time>2019-08-17T15:05:56Z</time>
      </trkpt>
      <trkpt lat="47.16991" lon="5.90579">
        <ele>227</ele>
        <time>2019-08-17T15:05:57Z</time>
      </trkpt>
      <trkpt lat="47.16986" lon="5.90574">
        <ele>226.8</ele>
        <time>2019-08-17T15:05:58Z</time>
      </trkpt>
      <trkpt lat="47.16982" lon="5.90569">
        <ele>226.7</ele>
        <time>2019-08-17T15:05:59Z</time>
      </trkpt>
      <trkpt lat="47.16978" lon="5.9056">
        <ele>226.6</ele>
        <time>2019-08-17T15:06:00Z</time>
      </trkpt>
      <trkpt lat="47.16974" lon="5.90554">
        <ele>226.5</ele>
        <time>2019-08-17T15:06:01Z</time>
      </trkpt>
      <trkpt lat="47.16969" lon="5.90549">
        <ele>226.4</ele>
        <time>2019-08-17T15:06:02Z</time>
      </trkpt>
      <trkpt lat="47.16965" lon="5.90545">
        <ele>226.3</ele>
        <time>2019-08-17T15:06:03Z</time>
      </trkpt>
      <trkpt lat="47.16961" lon="5.90541">
        <ele>226.2</ele>
        <time>2019-08-17T15:06:04Z</time>
      </trkpt>
      <trkpt lat="47.16957" lon="5.90537">
        <ele>226.1</ele>
        <time>2019-08-17T15:06:05Z</time>
      </trkpt>
      <trkpt lat="47.16953" lon="5.90533">
        <ele>226</ele>
        <time>2019-08-17T15:06:06Z</time>
      </trkpt>
      <trkpt lat="47.16949" lon="5.90527">
        <ele>225.9</ele>
        <time>2019-08-17T15:06:07Z</time>
      </trkpt>
      <trkpt lat="47.16944" lon="5.9052">
        <ele>225.8</ele>
        <time>2019-08-17T15:06:08Z</time>
      </trkpt>
      <trkpt lat="47.16941" lon="5.90515">
        <ele>225.7</ele>
        <time>2019-08-17T15:06:09Z</time>
      </trkpt>
      <trkpt lat="47.16938" lon="5.9051">
        <ele>225.5</ele>
        <time>2019-08-17T15:06:10Z</time>
      </trkpt>
      <trkpt lat="47.16935" lon="5.90506">
        <ele>225.4</ele>
        <time>2019-08-17T15:06:11Z</time>
      </trkpt>
      <trkpt lat="47.16932" lon="5.905">
        <ele>225.3</ele>
        <time>2019-08-17T15:06:12Z</time>
      </trkpt>
      <trkpt lat="47.16928" lon="5.90494">
        <ele>225.1</ele>
        <time>2019-08-17T15:06:13Z</time>
      </trkpt>
      <trkpt lat="47.16924" lon="5.90487">
        <ele>225</ele>
        <time>2019-08-17T15:06:14Z</time>
      </trkpt>
      <trkpt lat="47.16921" lon="5.90482">
        <ele>224.8</ele>
        <time>2019-08-17T15:06:15Z</time>
      </trkpt>
      <trkpt lat="47.16917" lon="5.90475">
        <ele>224.6</ele>
        <time>2019-08-17T15:06:16Z</time>
      </trkpt>
      <trkpt lat="47.16913" lon="5.9047">
        <ele>224.4</ele>
        <time>2019-08-17T15:06:17Z</time>
      </trkpt>
      <trkpt lat="47.16908" lon="5.90464">
        <ele>224.1</ele>
        <time>2019-08-17T15:06:18Z</time>
      </trkpt>
      <trkpt lat="47.16902" lon="5.90458">
        <ele>224</ele>
        <time>2019-08-17T15:06:19Z</time>
      </trkpt>
      <trkpt lat="47.16897" lon="5.90451">
        <ele>223.8</ele>
        <time>2019-08-17T15:06:20Z</time>
      </trkpt>
      <trkpt lat="47.16891" lon="5.90444">
        <ele>223.6</ele>
        <time>2019-08-17T15:06:21Z</time>
      </trkpt>
      <trkpt lat="47.16886" lon="5.90438">
        <ele>223.6</ele>
        <time>2019-08-17T15:06:22Z</time>
      </trkpt>
      <trkpt lat="47.16881" lon="5.90432">
        <ele>223.5</ele>
        <time>2019-08-17T15:06:23Z</time>
      </trkpt>
      <trkpt lat="47.16875" lon="5.90423">
        <ele>223.5</ele>
        <time>2019-08-17T15:06:24Z</time>
      </trkpt>
      <trkpt lat="47.16871" lon="5.90416">
        <ele>223.5</ele>
        <time>2019-08-17T15:06:25Z</time>
      </trkpt>
      <trkpt lat="47.16867" lon="5.9041">
        <ele>223.5</ele>
        <time>2019-08-17T15:06:26Z</time>
      </trkpt>
      <trkpt lat="47.16863" lon="5.90403">
        <ele>223.5</ele>
        <time>2019-08-17T15:06:27Z</time>
      </trkpt>
      <trkpt lat="47.16858" lon="5.90397">
        <ele>223.5</ele>
        <time>2019-08-17T15:06:28Z</time>
      </trkpt>
      <trkpt lat="47.16853" lon="5.90391">
        <ele>223.5</ele>
        <time>2019-08-17T15:06:29Z</time>
      </trkpt>
      <trkpt lat="47.16849" lon="5.90385">
        <ele>223.6</ele>
        <time>2019-08-17T15:06:30Z</time>
      </trkpt>
      <trkpt lat="47.16845" lon="5.90378">
        <ele>223.6</ele>
        <time>2019-08-17T15:06:31Z</time>
      </trkpt>
      <trkpt lat="47.1684" lon="5.90373">
        <ele>223.7</ele>
        <time>2019-08-17T15:06:32Z</time>
      </trkpt>
      <trkpt lat="47.16834" lon="5.90368">
        <ele>223.7</ele>
        <time>2019-08-17T15:06:33Z</time>
      </trkpt>
      <trkpt lat="47.16829" lon="5.90362">
        <ele>223.8</ele>
        <time>2019-08-17T15:06:34Z</time>
      </trkpt>
      <trkpt lat="47.16824" lon="5.90357">
        <ele>223.8</ele>
        <time>2019-08-17T15:06:35Z</time>
      </trkpt>
      <trkpt lat="47.1682" lon="5.90352">
        <ele>223.9</ele>
        <time>2019-08-17T15:06:36Z</time>
      </trkpt>
      <trkpt lat="47.16817" lon="5.90348">
        <ele>223.9</ele>
        <time>2019-08-17T15:06:37Z</time>
      </trkpt>
      <trkpt lat="47.16813" lon="5.90342">
        <ele>223.9</ele>
        <time>2019-08-17T15:06:38Z</time>
      </trkpt>
      <trkpt lat="47.1681" lon="5.90337">
        <ele>223.9</ele>
        <time>2019-08-17T15:06:39Z</time>
      </trkpt>
      <trkpt lat="47.16806" lon="5.90333">
        <ele>223.9</ele>
        <time>2019-08-17T15:06:40Z</time>
      </trkpt>
      <trkpt lat="47.16803" lon="5.90327">
        <ele>223.9</ele>
        <time>2019-08-17T15:06:41Z</time>
      </trkpt>
      <trkpt lat="47.168" lon="5.90323">
        <ele>223.9</ele>
        <time>2019-08-17T15:06:42Z</time>
      </trkpt>
      <trkpt lat="47.16797" lon="5.90317">
        <ele>223.8</ele>
        <time>2019-08-17T15:06:43Z</time>
      </trkpt>
      <trkpt lat="47.16794" lon="5.90313">
        <ele>223.8</ele>
        <time>2019-08-17T15:06:44Z</time>
      </trkpt>
      <trkpt lat="47.1679" lon="5.90308">
        <ele>223.7</ele>
        <time>2019-08-17T15:06:45Z</time>
      </trkpt>
      <trkpt lat="47.16787" lon="5.90304">
        <ele>223.6</ele>
        <time>2019-08-17T15:06:46Z</time>
      </trkpt>
      <trkpt lat="47.16784" lon="5.903">
        <ele>223.5</ele>
        <time>2019-08-17T15:06:47Z</time>
      </trkpt>
      <trkpt lat="47.16782" lon="5.90298">
        <ele>223.4</ele>
        <time>2019-08-17T15:06:48Z</time>
      </trkpt>
      <trkpt lat="47.16777" lon="5.90296">
        <ele>223.2</ele>
        <time>2019-08-17T15:06:49Z</time>
      </trkpt>
      <trkpt lat="47.16771" lon="5.90296">
        <ele>223</ele>
        <time>2019-08-17T15:06:50Z</time>
      </trkpt>
      <trkpt lat="47.16765" lon="5.903">
        <ele>223.3</ele>
        <time>2019-08-17T15:06:51Z</time>
      </trkpt>
      <trkpt lat="47.16762" lon="5.90302">
        <ele>223.4</ele>
        <time>2019-08-17T15:06:52Z</time>
      </trkpt>
      <trkpt lat="47.16761" lon="5.90306">
        <ele>223.5</ele>
        <time>2019-08-17T15:06:53Z</time>
      </trkpt>
      <trkpt lat="47.16759" lon="5.90309">
        <ele>223.5</ele>
        <time>2019-08-17T15:06:54Z</time>
      </trkpt>
      <trkpt lat="47.16756" lon="5.90316">
        <ele>223.7</ele>
        <time>2019-08-17T15:06:56Z</time>
      </trkpt>
      <trkpt lat="47.16753" lon="5.9032">
        <ele>223.7</ele>
        <time>2019-08-17T15:06:57Z</time>
      </trkpt>
      <trkpt lat="47.16749" lon="5.90323">
        <ele>224</ele>
        <time>2019-08-17T15:06:58Z</time>
      </trkpt>
      <trkpt lat="47.16744" lon="5.90323">
        <ele>224.9</ele>
        <time>2019-08-17T15:06:59Z</time>
      </trkpt>
      <trkpt lat="47.16739" lon="5.90322">
        <ele>226</ele>
        <time>2019-08-17T15:07:00Z</time>
      </trkpt>
      <trkpt lat="47.16734" lon="5.90321">
        <ele>227</ele>
        <time>2019-08-17T15:07:01Z</time>
      </trkpt>
      <trkpt lat="47.16728" lon="5.90321">
        <ele>227.9</ele>
        <time>2019-08-17T15:07:02Z</time>
      </trkpt>
      <trkpt lat="47.16721" lon="5.90322">
        <ele>228.8</ele>
        <time>2019-08-17T15:07:03Z</time>
      </trkpt>
      <trkpt lat="47.16714" lon="5.90322">
        <ele>229.8</ele>
        <time>2019-08-17T15:07:04Z</time>
      </trkpt>
      <trkpt lat="47.16708" lon="5.90323">
        <ele>230.6</ele>
        <time>2019-08-17T15:07:05Z</time>
      </trkpt>
      <trkpt lat="47.16702" lon="5.90324">
        <ele>231.5</ele>
        <time>2019-08-17T15:07:06Z</time>
      </trkpt>
      <trkpt lat="47.16696" lon="5.90325">
        <ele>232.3</ele>
        <time>2019-08-17T15:07:07Z</time>
      </trkpt>
      <trkpt lat="47.16689" lon="5.90328">
        <ele>233.1</ele>
        <time>2019-08-17T15:07:08Z</time>
      </trkpt>
      <trkpt lat="47.16682" lon="5.90329">
        <ele>234</ele>
        <time>2019-08-17T15:07:09Z</time>
      </trkpt>
      <trkpt lat="47.16674" lon="5.90332">
        <ele>234.9</ele>
        <time>2019-08-17T15:07:10Z</time>
      </trkpt>
      <trkpt lat="47.16668" lon="5.90333">
        <ele>235.7</ele>
        <time>2019-08-17T15:07:11Z</time>
      </trkpt>
      <trkpt lat="47.16663" lon="5.90334">
        <ele>236.4</ele>
        <time>2019-08-17T15:07:12Z</time>
      </trkpt>
      <trkpt lat="47.16656" lon="5.90335">
        <ele>237.1</ele>
        <time>2019-08-17T15:07:13Z</time>
      </trkpt>
      <trkpt lat="47.16651" lon="5.90335">
        <ele>237.8</ele>
        <time>2019-08-17T15:07:14Z</time>
      </trkpt>
      <trkpt lat="47.16645" lon="5.90336">
        <ele>238.4</ele>
        <time>2019-08-17T15:07:15Z</time>
      </trkpt>
      <trkpt lat="47.16639" lon="5.90337">
        <ele>239.1</ele>
        <time>2019-08-17T15:07:16Z</time>
      </trkpt>
      <trkpt lat="47.16633" lon="5.90339">
        <ele>239.8</ele>
        <time>2019-08-17T15:07:17Z</time>
      </trkpt>
      <trkpt lat="47.16628" lon="5.90341">
        <ele>240.4</ele>
        <time>2019-08-17T15:07:18Z</time>
      </trkpt>
      <trkpt lat="47.16622" lon="5.90341">
        <ele>241.1</ele>
        <time>2019-08-17T15:07:19Z</time>
      </trkpt>
      <trkpt lat="47.16616" lon="5.90341">
        <ele>241.8</ele>
        <time>2019-08-17T15:07:20Z</time>
      </trkpt>
      <trkpt lat="47.16611" lon="5.9034">
        <ele>242.4</ele>
        <time>2019-08-17T15:07:21Z</time>
      </trkpt>
      <trkpt lat="47.16607" lon="5.90337">
        <ele>243</ele>
        <time>2019-08-17T15:07:22Z</time>
      </trkpt>
      <trkpt lat="47.16602" lon="5.90336">
        <ele>243.6</ele>
        <time>2019-08-17T15:07:23Z</time>
      </trkpt>
      <trkpt lat="47.16597" lon="5.90334">
        <ele>244.3</ele>
        <time>2019-08-17T15:07:24Z</time>
      </trkpt>
      <trkpt lat="47.16592" lon="5.90331">
        <ele>245</ele>
        <time>2019-08-17T15:07:25Z</time>
      </trkpt>
      <trkpt lat="47.16588" lon="5.90328">
        <ele>245.5</ele>
        <time>2019-08-17T15:07:26Z</time>
      </trkpt>
      <trkpt lat="47.16583" lon="5.90326">
        <ele>246.2</ele>
        <time>2019-08-17T15:07:27Z</time>
      </trkpt>
      <trkpt lat="47.16577" lon="5.90325">
        <ele>247</ele>
        <time>2019-08-17T15:07:28Z</time>
      </trkpt>
      <trkpt lat="47.16572" lon="5.90323">
        <ele>247.9</ele>
        <time>2019-08-17T15:07:29Z</time>
      </trkpt>
      <trkpt lat="47.16566" lon="5.90321">
        <ele>248.9</ele>
        <time>2019-08-17T15:07:30Z</time>
      </trkpt>
      <trkpt lat="47.1656" lon="5.90318">
        <ele>249.7</ele>
        <time>2019-08-17T15:07:31Z</time>
      </trkpt>
      <trkpt lat="47.16555" lon="5.90314">
        <ele>250.6</ele>
        <time>2019-08-17T15:07:32Z</time>
      </trkpt>
      <trkpt lat="47.1655" lon="5.9031">
        <ele>251.4</ele>
        <time>2019-08-17T15:07:33Z</time>
      </trkpt>
      <trkpt lat="47.16546" lon="5.90306">
        <ele>252.1</ele>
        <time>2019-08-17T15:07:34Z</time>
      </trkpt>
      <trkpt lat="47.16543" lon="5.90302">
        <ele>252.8</ele>
        <time>2019-08-17T15:07:35Z</time>
      </trkpt>
      <trkpt lat="47.1654" lon="5.90299">
        <ele>253.3</ele>
        <time>2019-08-17T15:07:36Z</time>
      </trkpt>
      <trkpt lat="47.16538" lon="5.90296">
        <ele>253.8</ele>
        <time>2019-08-17T15:07:37Z</time>
      </trkpt>
      <trkpt lat="47.16535" lon="5.90291">
        <ele>254.4</ele>
        <time>2019-08-17T15:07:39Z</time>
      </trkpt>
      <trkpt lat="47.16532" lon="5.90288">
        <ele>255</ele>
        <time>2019-08-17T15:07:42Z</time>
      </trkpt>
      <trkpt lat="47.16529" lon="5.90284">
        <ele>255.7</ele>
        <time>2019-08-17T15:07:44Z</time>
      </trkpt>
      <trkpt lat="47.16528" lon="5.9028">
        <ele>255.7</ele>
        <time>2019-08-17T15:07:45Z</time>
      </trkpt>
      <trkpt lat="47.16526" lon="5.90275">
        <ele>255.8</ele>
        <time>2019-08-17T15:07:47Z</time>
      </trkpt>
      <trkpt lat="47.16523" lon="5.90273">
        <ele>255.8</ele>
        <time>2019-08-17T15:07:49Z</time>
      </trkpt>
      <trkpt lat="47.1652" lon="5.90268">
        <ele>255.8</ele>
        <time>2019-08-17T15:07:51Z</time>
      </trkpt>
      <trkpt lat="47.16519" lon="5.90265">
        <ele>255.8</ele>
        <time>2019-08-17T15:07:52Z</time>
      </trkpt>
      <trkpt lat="47.16515" lon="5.90259">
        <ele>255.8</ele>
        <time>2019-08-17T15:07:54Z</time>
      </trkpt>
      <trkpt lat="47.16512" lon="5.90254">
        <ele>255.8</ele>
        <time>2019-08-17T15:07:56Z</time>
      </trkpt>
      <trkpt lat="47.16509" lon="5.90251">
        <ele>255.8</ele>
        <time>2019-08-17T15:07:58Z</time>
      </trkpt>
      <trkpt lat="47.16506" lon="5.90246">
        <ele>255.8</ele>
        <time>2019-08-17T15:08:00Z</time>
      </trkpt>
      <trkpt lat="47.16506" lon="5.90242">
        <ele>255.8</ele>
        <time>2019-08-17T15:08:02Z</time>
      </trkpt>
      <trkpt lat="47.16503" lon="5.90239">
        <ele>255.8</ele>
        <time>2019-08-17T15:08:07Z</time>
      </trkpt>
      <trkpt lat="47.16501" lon="5.90234">
        <ele>255.8</ele>
        <time>2019-08-17T15:08:11Z</time>
      </trkpt>
      <trkpt lat="47.16499" lon="5.90232">
        <ele>255.8</ele>
        <time>2019-08-17T15:08:13Z</time>
      </trkpt>
      <trkpt lat="47.16496" lon="5.90228">
        <ele>255.7</ele>
        <time>2019-08-17T15:08:15Z</time>
      </trkpt>
      <trkpt lat="47.16494" lon="5.90223">
        <ele>255.7</ele>
        <time>2019-08-17T15:08:17Z</time>
      </trkpt>
      <trkpt lat="47.1649" lon="5.90217">
        <ele>255.6</ele>
        <time>2019-08-17T15:08:19Z</time>
      </trkpt>
      <trkpt lat="47.16486" lon="5.90211">
        <ele>255.5</ele>
        <time>2019-08-17T15:08:21Z</time>
      </trkpt>
      <trkpt lat="47.16484" lon="5.90206">
        <ele>255.4</ele>
        <time>2019-08-17T15:08:22Z</time>
      </trkpt>
      <trkpt lat="47.16481" lon="5.90202">
        <ele>255.3</ele>
        <time>2019-08-17T15:08:23Z</time>
      </trkpt>
      <trkpt lat="47.16478" lon="5.90198">
        <ele>255.2</ele>
        <time>2019-08-17T15:08:24Z</time>
      </trkpt>
      <trkpt lat="47.16475" lon="5.90193">
        <ele>255.1</ele>
        <time>2019-08-17T15:08:25Z</time>
      </trkpt>
      <trkpt lat="47.16472" lon="5.90188">
        <ele>255</ele>
        <time>2019-08-17T15:08:26Z</time>
      </trkpt>
      <trkpt lat="47.16469" lon="5.90182">
        <ele>254.9</ele>
        <time>2019-08-17T15:08:27Z</time>
      </trkpt>
      <trkpt lat="47.16466" lon="5.90178">
        <ele>254.8</ele>
        <time>2019-08-17T15:08:28Z</time>
      </trkpt>
      <trkpt lat="47.16463" lon="5.90172">
        <ele>254.7</ele>
        <time>2019-08-17T15:08:29Z</time>
      </trkpt>
      <trkpt lat="47.16459" lon="5.90166">
        <ele>254.6</ele>
        <time>2019-08-17T15:08:30Z</time>
      </trkpt>
      <trkpt lat="47.16456" lon="5.90161">
        <ele>254.5</ele>
        <time>2019-08-17T15:08:31Z</time>
      </trkpt>
      <trkpt lat="47.16453" lon="5.90155">
        <ele>254.4</ele>
        <time>2019-08-17T15:08:32Z</time>
      </trkpt>
      <trkpt lat="47.1645" lon="5.9015">
        <ele>254.3</ele>
        <time>2019-08-17T15:08:33Z</time>
      </trkpt>
      <trkpt lat="47.16446" lon="5.90144">
        <ele>254.2</ele>
        <time>2019-08-17T15:08:34Z</time>
      </trkpt>
      <trkpt lat="47.16442" lon="5.90139">
        <ele>254.1</ele>
        <time>2019-08-17T15:08:35Z</time>
      </trkpt>
      <trkpt lat="47.16438" lon="5.90133">
        <ele>254</ele>
        <time>2019-08-17T15:08:36Z</time>
      </trkpt>
      <trkpt lat="47.16435" lon="5.90127">
        <ele>253.9</ele>
        <time>2019-08-17T15:08:37Z</time>
      </trkpt>
      <trkpt lat="47.16431" lon="5.90122">
        <ele>253.8</ele>
        <time>2019-08-17T15:08:38Z</time>
      </trkpt>
      <trkpt lat="47.16428" lon="5.90118">
        <ele>253.8</ele>
        <time>2019-08-17T15:08:39Z</time>
      </trkpt>
      <trkpt lat="47.16424" lon="5.90113">
        <ele>253.7</ele>
        <time>2019-08-17T15:08:40Z</time>
      </trkpt>
      <trkpt lat="47.16422" lon="5.90106">
        <ele>253.6</ele>
        <time>2019-08-17T15:08:41Z</time>
      </trkpt>
      <trkpt lat="47.1642" lon="5.90101">
        <ele>253.6</ele>
        <time>2019-08-17T15:08:42Z</time>
      </trkpt>
      <trkpt lat="47.16418" lon="5.90097">
        <ele>253.6</ele>
        <time>2019-08-17T15:08:43Z</time>
      </trkpt>
      <trkpt lat="47.16416" lon="5.90093">
        <ele>253.6</ele>
        <time>2019-08-17T15:08:44Z</time>
      </trkpt>
      <trkpt lat="47.16415" lon="5.90089">
        <ele>253.6</ele>
        <time>2019-08-17T15:08:45Z</time>
      </trkpt>
      <trkpt lat="47.16413" lon="5.90086">
        <ele>253.6</ele>
        <time>2019-08-17T15:08:46Z</time>
      </trkpt>
      <trkpt lat="47.16412" lon="5.90082">
        <ele>253.6</ele>
        <time>2019-08-17T15:08:48Z</time>
      </trkpt>
      <trkpt lat="47.16407" lon="5.90085">
        <ele>253.6</ele>
        <time>2019-08-17T15:08:51Z</time>
      </trkpt>
      <trkpt lat="47.16405" lon="5.90089">
        <ele>253.5</ele>
        <time>2019-08-17T15:08:55Z</time>
      </trkpt>
      <trkpt lat="47.16401" lon="5.90087">
        <ele>253.5</ele>
        <time>2019-08-17T15:08:59Z</time>
      </trkpt>
      <trkpt lat="47.16397" lon="5.90086">
        <ele>253.4</ele>
        <time>2019-08-17T15:09:01Z</time>
      </trkpt>
      <trkpt lat="47.16396" lon="5.9008">
        <ele>253.4</ele>
        <time>2019-08-17T15:09:23Z</time>
      </trkpt>
      <trkpt lat="47.16399" lon="5.90076">
        <ele>253.3</ele>
        <time>2019-08-17T15:09:29Z</time>
      </trkpt>
      <trkpt lat="47.16399" lon="5.90071">
        <ele>253.2</ele>
        <time>2019-08-17T15:09:33Z</time>
      </trkpt>
      <trkpt lat="47.164" lon="5.90067">
        <ele>253.2</ele>
        <time>2019-08-17T15:09:41Z</time>
      </trkpt>
      <trkpt lat="47.164" lon="5.90071">
        <ele>253.1</ele>
        <time>2019-08-17T15:09:44Z</time>
      </trkpt>
      <trkpt lat="47.16399" lon="5.90076">
        <ele>253.1</ele>
        <time>2019-08-17T15:09:49Z</time>
      </trkpt>
      <trkpt lat="47.16398" lon="5.9008">
        <ele>253</ele>
        <time>2019-08-17T15:09:53Z</time>
      </trkpt>
      <trkpt lat="47.16396" lon="5.90079">
        <ele>253</ele>
        <time>2019-08-17T15:10:31Z</time>
      </trkpt>
      <trkpt lat="47.16394" lon="5.90074">
        <ele>252.9</ele>
        <time>2019-08-17T15:10:33Z</time>
      </trkpt>
      <trkpt lat="47.16391" lon="5.90069">
        <ele>252.8</ele>
        <time>2019-08-17T15:10:35Z</time>
      </trkpt>
      <trkpt lat="47.1639" lon="5.90066">
        <ele>252.7</ele>
        <time>2019-08-17T15:10:36Z</time>
      </trkpt>
      <trkpt lat="47.16388" lon="5.90062">
        <ele>252.6</ele>
        <time>2019-08-17T15:10:37Z</time>
      </trkpt>
      <trkpt lat="47.16386" lon="5.90058">
        <ele>252.5</ele>
        <time>2019-08-17T15:10:38Z</time>
      </trkpt>
      <trkpt lat="47.16384" lon="5.90055">
        <ele>252.5</ele>
        <time>2019-08-17T15:10:39Z</time>
      </trkpt>
      <trkpt lat="47.16382" lon="5.90051">
        <ele>252.4</ele>
        <time>2019-08-17T15:10:40Z</time>
      </trkpt>
      <trkpt lat="47.16379" lon="5.90047">
        <ele>252.3</ele>
        <time>2019-08-17T15:10:41Z</time>
      </trkpt>
      <trkpt lat="47.16377" lon="5.90042">
        <ele>252.2</ele>
        <time>2019-08-17T15:10:42Z</time>
      </trkpt>
      <trkpt lat="47.16375" lon="5.90036">
        <ele>252.1</ele>
        <time>2019-08-17T15:10:43Z</time>
      </trkpt>
      <trkpt lat="47.16373" lon="5.90031">
        <ele>252</ele>
        <time>2019-08-17T15:10:44Z</time>
      </trkpt>
      <trkpt lat="47.1637" lon="5.90026">
        <ele>251.9</ele>
        <time>2019-08-17T15:10:45Z</time>
      </trkpt>
      <trkpt lat="47.16367" lon="5.90021">
        <ele>251.8</ele>
        <time>2019-08-17T15:10:46Z</time>
      </trkpt>
      <trkpt lat="47.16365" lon="5.90016">
        <ele>251.7</ele>
        <time>2019-08-17T15:10:47Z</time>
      </trkpt>
      <trkpt lat="47.16362" lon="5.9001">
        <ele>251.5</ele>
        <time>2019-08-17T15:10:48Z</time>
      </trkpt>
      <trkpt lat="47.16359" lon="5.90004">
        <ele>251.4</ele>
        <time>2019-08-17T15:10:49Z</time>
      </trkpt>
      <trkpt lat="47.16356" lon="5.89998">
        <ele>251.2</ele>
        <time>2019-08-17T15:10:50Z</time>
      </trkpt>
      <trkpt lat="47.16353" lon="5.89992">
        <ele>251</ele>
        <time>2019-08-17T15:10:51Z</time>
      </trkpt>
      <trkpt lat="47.16351" lon="5.89986">
        <ele>250.9</ele>
        <time>2019-08-17T15:10:52Z</time>
      </trkpt>
      <trkpt lat="47.16347" lon="5.89979">
        <ele>250.7</ele>
        <time>2019-08-17T15:10:53Z</time>
      </trkpt>
      <trkpt lat="47.16345" lon="5.89972">
        <ele>250.6</ele>
        <time>2019-08-17T15:10:54Z</time>
      </trkpt>
      <trkpt lat="47.16342" lon="5.89966">
        <ele>250.5</ele>
        <time>2019-08-17T15:10:55Z</time>
      </trkpt>
      <trkpt lat="47.16339" lon="5.8996">
        <ele>250.4</ele>
        <time>2019-08-17T15:10:56Z</time>
      </trkpt>
      <trkpt lat="47.16337" lon="5.89954">
        <ele>250.3</ele>
        <time>2019-08-17T15:10:57Z</time>
      </trkpt>
      <trkpt lat="47.16335" lon="5.89948">
        <ele>250.3</ele>
        <time>2019-08-17T15:10:58Z</time>
      </trkpt>
      <trkpt lat="47.16332" lon="5.89942">
        <ele>250.2</ele>
        <time>2019-08-17T15:10:59Z</time>
      </trkpt>
      <trkpt lat="47.1633" lon="5.89935">
        <ele>250.1</ele>
        <time>2019-08-17T15:11:00Z</time>
      </trkpt>
      <trkpt lat="47.16328" lon="5.89928">
        <ele>250</ele>
        <time>2019-08-17T15:11:01Z</time>
      </trkpt>
      <trkpt lat="47.16326" lon="5.89923">
        <ele>249.9</ele>
        <time>2019-08-17T15:11:02Z</time>
      </trkpt>
      <trkpt lat="47.16323" lon="5.89915">
        <ele>249.8</ele>
        <time>2019-08-17T15:11:03Z</time>
      </trkpt>
      <trkpt lat="47.1632" lon="5.89908">
        <ele>249.7</ele>
        <time>2019-08-17T15:11:04Z</time>
      </trkpt>
      <trkpt lat="47.16317" lon="5.89901">
        <ele>249.6</ele>
        <time>2019-08-17T15:11:05Z</time>
      </trkpt>
      <trkpt lat="47.16315" lon="5.89893">
        <ele>249.4</ele>
        <time>2019-08-17T15:11:06Z</time>
      </trkpt>
      <trkpt lat="47.16311" lon="5.89885">
        <ele>249.2</ele>
        <time>2019-08-17T15:11:07Z</time>
      </trkpt>
      <trkpt lat="47.16309" lon="5.89878">
        <ele>249</ele>
        <time>2019-08-17T15:11:08Z</time>
      </trkpt>
      <trkpt lat="47.16308" lon="5.89871">
        <ele>248.9</ele>
        <time>2019-08-17T15:11:09Z</time>
      </trkpt>
      <trkpt lat="47.16306" lon="5.89864">
        <ele>248.6</ele>
        <time>2019-08-17T15:11:10Z</time>
      </trkpt>
      <trkpt lat="47.16304" lon="5.89856">
        <ele>248.4</ele>
        <time>2019-08-17T15:11:11Z</time>
      </trkpt>
      <trkpt lat="47.16301" lon="5.89848">
        <ele>248.1</ele>
        <time>2019-08-17T15:11:12Z</time>
      </trkpt>
      <trkpt lat="47.16298" lon="5.8984">
        <ele>247.9</ele>
        <time>2019-08-17T15:11:13Z</time>
      </trkpt>
      <trkpt lat="47.16295" lon="5.89832">
        <ele>247.8</ele>
        <time>2019-08-17T15:11:14Z</time>
      </trkpt>
      <trkpt lat="47.16291" lon="5.89824">
        <ele>247.7</ele>
        <time>2019-08-17T15:11:15Z</time>
      </trkpt>
      <trkpt lat="47.16288" lon="5.89816">
        <ele>247.5</ele>
        <time>2019-08-17T15:11:16Z</time>
      </trkpt>
      <trkpt lat="47.16284" lon="5.89808">
        <ele>247.3</ele>
        <time>2019-08-17T15:11:17Z</time>
      </trkpt>
      <trkpt lat="47.16282" lon="5.89799">
        <ele>247.1</ele>
        <time>2019-08-17T15:11:18Z</time>
      </trkpt>
      <trkpt lat="47.1628" lon="5.89791">
        <ele>246.9</ele>
        <time>2019-08-17T15:11:19Z</time>
      </trkpt>
      <trkpt lat="47.1628" lon="5.89783">
        <ele>246.7</ele>
        <time>2019-08-17T15:11:20Z</time>
      </trkpt>
      <trkpt lat="47.16282" lon="5.89776">
        <ele>246.4</ele>
        <time>2019-08-17T15:11:21Z</time>
      </trkpt>
      <trkpt lat="47.16284" lon="5.89767">
        <ele>246.2</ele>
        <time>2019-08-17T15:11:22Z</time>
      </trkpt>
      <trkpt lat="47.16283" lon="5.89759">
        <ele>246</ele>
        <time>2019-08-17T15:11:23Z</time>
      </trkpt>
      <trkpt lat="47.16283" lon="5.89751">
        <ele>245.9</ele>
        <time>2019-08-17T15:11:24Z</time>
      </trkpt>
      <trkpt lat="47.16282" lon="5.89742">
        <ele>245.7</ele>
        <time>2019-08-17T15:11:25Z</time>
      </trkpt>
      <trkpt lat="47.16282" lon="5.89733">
        <ele>245.6</ele>
        <time>2019-08-17T15:11:26Z</time>
      </trkpt>
      <trkpt lat="47.16281" lon="5.89724">
        <ele>245.5</ele>
        <time>2019-08-17T15:11:27Z</time>
      </trkpt>
      <trkpt lat="47.16279" lon="5.89714">
        <ele>245.4</ele>
        <time>2019-08-17T15:11:28Z</time>
      </trkpt>
      <trkpt lat="47.16278" lon="5.89707">
        <ele>245.3</ele>
        <time>2019-08-17T15:11:29Z</time>
      </trkpt>
      <trkpt lat="47.16276" lon="5.89698">
        <ele>245.2</ele>
        <time>2019-08-17T15:11:30Z</time>
      </trkpt>
      <trkpt lat="47.16273" lon="5.8969">
        <ele>245.1</ele>
        <time>2019-08-17T15:11:31Z</time>
      </trkpt>
      <trkpt lat="47.16271" lon="5.89681">
        <ele>245</ele>
        <time>2019-08-17T15:11:32Z</time>
      </trkpt>
      <trkpt lat="47.16268" lon="5.89673">
        <ele>244.9</ele>
        <time>2019-08-17T15:11:33Z</time>
      </trkpt>
      <trkpt lat="47.16265" lon="5.89663">
        <ele>244.8</ele>
        <time>2019-08-17T15:11:34Z</time>
      </trkpt>
      <trkpt lat="47.16263" lon="5.89655">
        <ele>244.7</ele>
        <time>2019-08-17T15:11:35Z</time>
      </trkpt>
      <trkpt lat="47.1626" lon="5.89646">
        <ele>244.6</ele>
        <time>2019-08-17T15:11:36Z</time>
      </trkpt>
      <trkpt lat="47.16257" lon="5.89639">
        <ele>244.5</ele>
        <time>2019-08-17T15:11:37Z</time>
      </trkpt>
      <trkpt lat="47.16253" lon="5.89633">
        <ele>244.4</ele>
        <time>2019-08-17T15:11:38Z</time>
      </trkpt>
      <trkpt lat="47.1625" lon="5.89625">
        <ele>244.3</ele>
        <time>2019-08-17T15:11:39Z</time>
      </trkpt>
      <trkpt lat="47.16247" lon="5.89617">
        <ele>244.1</ele>
        <time>2019-08-17T15:11:40Z</time>
      </trkpt>
      <trkpt lat="47.16243" lon="5.89608">
        <ele>244</ele>
        <time>2019-08-17T15:11:41Z</time>
      </trkpt>
      <trkpt lat="47.1624" lon="5.896">
        <ele>243.8</ele>
        <time>2019-08-17T15:11:42Z</time>
      </trkpt>
      <trkpt lat="47.16237" lon="5.89591">
        <ele>243.6</ele>
        <time>2019-08-17T15:11:43Z</time>
      </trkpt>
      <trkpt lat="47.16233" lon="5.89581">
        <ele>243.3</ele>
        <time>2019-08-17T15:11:44Z</time>
      </trkpt>
      <trkpt lat="47.1623" lon="5.89571">
        <ele>243.1</ele>
        <time>2019-08-17T15:11:45Z</time>
      </trkpt>
      <trkpt lat="47.16228" lon="5.89561">
        <ele>242.8</ele>
        <time>2019-08-17T15:11:46Z</time>
      </trkpt>
      <trkpt lat="47.16227" lon="5.89553">
        <ele>242.6</ele>
        <time>2019-08-17T15:11:47Z</time>
      </trkpt>
      <trkpt lat="47.16226" lon="5.89544">
        <ele>242.3</ele>
        <time>2019-08-17T15:11:48Z</time>
      </trkpt>
      <trkpt lat="47.16224" lon="5.89535">
        <ele>242</ele>
        <time>2019-08-17T15:11:49Z</time>
      </trkpt>
      <trkpt lat="47.16223" lon="5.89524">
        <ele>241.6</ele>
        <time>2019-08-17T15:11:50Z</time>
      </trkpt>
      <trkpt lat="47.16222" lon="5.89515">
        <ele>241.3</ele>
        <time>2019-08-17T15:11:51Z</time>
      </trkpt>
      <trkpt lat="47.16221" lon="5.89506">
        <ele>241</ele>
        <time>2019-08-17T15:11:52Z</time>
      </trkpt>
      <trkpt lat="47.16221" lon="5.89496">
        <ele>240.7</ele>
        <time>2019-08-17T15:11:53Z</time>
      </trkpt>
      <trkpt lat="47.16219" lon="5.89487">
        <ele>240.4</ele>
        <time>2019-08-17T15:11:54Z</time>
      </trkpt>
      <trkpt lat="47.16219" lon="5.89478">
        <ele>240.1</ele>
        <time>2019-08-17T15:11:55Z</time>
      </trkpt>
      <trkpt lat="47.16217" lon="5.89468">
        <ele>239.8</ele>
        <time>2019-08-17T15:11:56Z</time>
      </trkpt>
      <trkpt lat="47.16217" lon="5.89459">
        <ele>239.5</ele>
        <time>2019-08-17T15:11:57Z</time>
      </trkpt>
      <trkpt lat="47.16217" lon="5.8945">
        <ele>239.2</ele>
        <time>2019-08-17T15:11:58Z</time>
      </trkpt>
      <trkpt lat="47.16217" lon="5.89442">
        <ele>238.9</ele>
        <time>2019-08-17T15:11:59Z</time>
      </trkpt>
      <trkpt lat="47.16216" lon="5.89432">
        <ele>238.6</ele>
        <time>2019-08-17T15:12:00Z</time>
      </trkpt>
      <trkpt lat="47.16214" lon="5.89422">
        <ele>238.3</ele>
        <time>2019-08-17T15:12:01Z</time>
      </trkpt>
      <trkpt lat="47.16212" lon="5.89411">
        <ele>238</ele>
        <time>2019-08-17T15:12:02Z</time>
      </trkpt>
      <trkpt lat="47.16211" lon="5.89401">
        <ele>237.7</ele>
        <time>2019-08-17T15:12:03Z</time>
      </trkpt>
      <trkpt lat="47.1621" lon="5.89392">
        <ele>237.6</ele>
        <time>2019-08-17T15:12:04Z</time>
      </trkpt>
      <trkpt lat="47.16209" lon="5.89382">
        <ele>237.5</ele>
        <time>2019-08-17T15:12:05Z</time>
      </trkpt>
      <trkpt lat="47.16206" lon="5.89373">
        <ele>237.3</ele>
        <time>2019-08-17T15:12:06Z</time>
      </trkpt>
      <trkpt lat="47.16205" lon="5.89363">
        <ele>237.2</ele>
        <time>2019-08-17T15:12:07Z</time>
      </trkpt>
      <trkpt lat="47.16204" lon="5.89352">
        <ele>237.1</ele>
        <time>2019-08-17T15:12:08Z</time>
      </trkpt>
      <trkpt lat="47.16203" lon="5.89343">
        <ele>237</ele>
        <time>2019-08-17T15:12:09Z</time>
      </trkpt>
      <trkpt lat="47.16201" lon="5.89335">
        <ele>236.9</ele>
        <time>2019-08-17T15:12:10Z</time>
      </trkpt>
      <trkpt lat="47.162" lon="5.89327">
        <ele>236.8</ele>
        <time>2019-08-17T15:12:11Z</time>
      </trkpt>
      <trkpt lat="47.16199" lon="5.89319">
        <ele>236.7</ele>
        <time>2019-08-17T15:12:12Z</time>
      </trkpt>
      <trkpt lat="47.16197" lon="5.89311">
        <ele>236.6</ele>
        <time>2019-08-17T15:12:13Z</time>
      </trkpt>
      <trkpt lat="47.16195" lon="5.89304">
        <ele>236.4</ele>
        <time>2019-08-17T15:12:14Z</time>
      </trkpt>
      <trkpt lat="47.16193" lon="5.89295">
        <ele>236.3</ele>
        <time>2019-08-17T15:12:15Z</time>
      </trkpt>
      <trkpt lat="47.16192" lon="5.89287">
        <ele>236.2</ele>
        <time>2019-08-17T15:12:16Z</time>
      </trkpt>
      <trkpt lat="47.16189" lon="5.89277">
        <ele>236</ele>
        <time>2019-08-17T15:12:17Z</time>
      </trkpt>
      <trkpt lat="47.16188" lon="5.89268">
        <ele>235.8</ele>
        <time>2019-08-17T15:12:18Z</time>
      </trkpt>
      <trkpt lat="47.16186" lon="5.8926">
        <ele>235.6</ele>
        <time>2019-08-17T15:12:19Z</time>
      </trkpt>
      <trkpt lat="47.16184" lon="5.89251">
        <ele>235.4</ele>
        <time>2019-08-17T15:12:20Z</time>
      </trkpt>
      <trkpt lat="47.16182" lon="5.8924">
        <ele>235.1</ele>
        <time>2019-08-17T15:12:21Z</time>
      </trkpt>
      <trkpt lat="47.1618" lon="5.89231">
        <ele>234.9</ele>
        <time>2019-08-17T15:12:22Z</time>
      </trkpt>
      <trkpt lat="47.16178" lon="5.89222">
        <ele>234.7</ele>
        <time>2019-08-17T15:12:23Z</time>
      </trkpt>
      <trkpt lat="47.16176" lon="5.89213">
        <ele>234.5</ele>
        <time>2019-08-17T15:12:24Z</time>
      </trkpt>
      <trkpt lat="47.16174" lon="5.89204">
        <ele>234.4</ele>
        <time>2019-08-17T15:12:25Z</time>
      </trkpt>
      <trkpt lat="47.16171" lon="5.89195">
        <ele>234.3</ele>
        <time>2019-08-17T15:12:26Z</time>
      </trkpt>
      <trkpt lat="47.16169" lon="5.89188">
        <ele>234.2</ele>
        <time>2019-08-17T15:12:27Z</time>
      </trkpt>
      <trkpt lat="47.16167" lon="5.8918">
        <ele>234.1</ele>
        <time>2019-08-17T15:12:28Z</time>
      </trkpt>
      <trkpt lat="47.16165" lon="5.89173">
        <ele>234</ele>
        <time>2019-08-17T15:12:29Z</time>
      </trkpt>
      <trkpt lat="47.16162" lon="5.89165">
        <ele>233.9</ele>
        <time>2019-08-17T15:12:30Z</time>
      </trkpt>
      <trkpt lat="47.16159" lon="5.89158">
        <ele>233.8</ele>
        <time>2019-08-17T15:12:31Z</time>
      </trkpt>
      <trkpt lat="47.16157" lon="5.89152">
        <ele>233.8</ele>
        <time>2019-08-17T15:12:32Z</time>
      </trkpt>
      <trkpt lat="47.16154" lon="5.89144">
        <ele>233.7</ele>
        <time>2019-08-17T15:12:33Z</time>
      </trkpt>
      <trkpt lat="47.16152" lon="5.89138">
        <ele>233.6</ele>
        <time>2019-08-17T15:12:34Z</time>
      </trkpt>
      <trkpt lat="47.16149" lon="5.89132">
        <ele>233.5</ele>
        <time>2019-08-17T15:12:35Z</time>
      </trkpt>
      <trkpt lat="47.16147" lon="5.89126">
        <ele>233.4</ele>
        <time>2019-08-17T15:12:36Z</time>
      </trkpt>
      <trkpt lat="47.16145" lon="5.89121">
        <ele>233.4</ele>
        <time>2019-08-17T15:12:37Z</time>
      </trkpt>
      <trkpt lat="47.16143" lon="5.89117">
        <ele>233.3</ele>
        <time>2019-08-17T15:12:38Z</time>
      </trkpt>
      <trkpt lat="47.1614" lon="5.89111">
        <ele>233.2</ele>
        <time>2019-08-17T15:12:39Z</time>
      </trkpt>
      <trkpt lat="47.16137" lon="5.89107">
        <ele>233.1</ele>
        <time>2019-08-17T15:12:40Z</time>
      </trkpt>
      <trkpt lat="47.16135" lon="5.89102">
        <ele>233.1</ele>
        <time>2019-08-17T15:12:41Z</time>
      </trkpt>
      <trkpt lat="47.16132" lon="5.89097">
        <ele>233</ele>
        <time>2019-08-17T15:12:42Z</time>
      </trkpt>
      <trkpt lat="47.1613" lon="5.89092">
        <ele>232.3</ele>
        <time>2019-08-17T15:12:43Z</time>
      </trkpt>
      <trkpt lat="47.16133" lon="5.89087">
        <ele>232.1</ele>
        <time>2019-08-17T15:12:45Z</time>
      </trkpt>
      <trkpt lat="47.16134" lon="5.89083">
        <ele>232</ele>
        <time>2019-08-17T15:12:46Z</time>
      </trkpt>
      <trkpt lat="47.16135" lon="5.89077">
        <ele>231.8</ele>
        <time>2019-08-17T15:12:47Z</time>
      </trkpt>
      <trkpt lat="47.16137" lon="5.89068">
        <ele>231.5</ele>
        <time>2019-08-17T15:12:48Z</time>
      </trkpt>
      <trkpt lat="47.16138" lon="5.8906">
        <ele>231</ele>
        <time>2019-08-17T15:12:49Z</time>
      </trkpt>
      <trkpt lat="47.16139" lon="5.89052">
        <ele>230.5</ele>
        <time>2019-08-17T15:12:50Z</time>
      </trkpt>
      <trkpt lat="47.1614" lon="5.89045">
        <ele>230.1</ele>
        <time>2019-08-17T15:12:51Z</time>
      </trkpt>
      <trkpt lat="47.16141" lon="5.89037">
        <ele>229.8</ele>
        <time>2019-08-17T15:12:52Z</time>
      </trkpt>
      <trkpt lat="47.16142" lon="5.89032">
        <ele>229.5</ele>
        <time>2019-08-17T15:12:53Z</time>
      </trkpt>
      <trkpt lat="47.16143" lon="5.89025">
        <ele>229.3</ele>
        <time>2019-08-17T15:12:54Z</time>
      </trkpt>
      <trkpt lat="47.16143" lon="5.89017">
        <ele>228.9</ele>
        <time>2019-08-17T15:12:55Z</time>
      </trkpt>
      <trkpt lat="47.16144" lon="5.89012">
        <ele>228.5</ele>
        <time>2019-08-17T15:12:56Z</time>
      </trkpt>
      <trkpt lat="47.16142" lon="5.89009">
        <ele>228.3</ele>
        <time>2019-08-17T15:12:57Z</time>
      </trkpt>
      <trkpt lat="47.16139" lon="5.89002">
        <ele>227.9</ele>
        <time>2019-08-17T15:12:58Z</time>
      </trkpt>
      <trkpt lat="47.16136" lon="5.88996">
        <ele>227.5</ele>
        <time>2019-08-17T15:12:59Z</time>
      </trkpt>
      <trkpt lat="47.16132" lon="5.88988">
        <ele>226.9</ele>
        <time>2019-08-17T15:13:00Z</time>
      </trkpt>
      <trkpt lat="47.16128" lon="5.88981">
        <ele>226.7</ele>
        <time>2019-08-17T15:13:01Z</time>
      </trkpt>
      <trkpt lat="47.16124" lon="5.88974">
        <ele>226.4</ele>
        <time>2019-08-17T15:13:02Z</time>
      </trkpt>
      <trkpt lat="47.16121" lon="5.88968">
        <ele>226.2</ele>
        <time>2019-08-17T15:13:03Z</time>
      </trkpt>
      <trkpt lat="47.16119" lon="5.88963">
        <ele>226.1</ele>
        <time>2019-08-17T15:13:04Z</time>
      </trkpt>
      <trkpt lat="47.16116" lon="5.88958">
        <ele>225.9</ele>
        <time>2019-08-17T15:13:05Z</time>
      </trkpt>
      <trkpt lat="47.16113" lon="5.88953">
        <ele>225.7</ele>
        <time>2019-08-17T15:13:06Z</time>
      </trkpt>
      <trkpt lat="47.16108" lon="5.88946">
        <ele>225.5</ele>
        <time>2019-08-17T15:13:08Z</time>
      </trkpt>
      <trkpt lat="47.16105" lon="5.88941">
        <ele>225.5</ele>
        <time>2019-08-17T15:13:09Z</time>
      </trkpt>
      <trkpt lat="47.16102" lon="5.88936">
        <ele>225.6</ele>
        <time>2019-08-17T15:13:10Z</time>
      </trkpt>
      <trkpt lat="47.16098" lon="5.88929">
        <ele>225.6</ele>
        <time>2019-08-17T15:13:11Z</time>
      </trkpt>
      <trkpt lat="47.16094" lon="5.88922">
        <ele>225.6</ele>
        <time>2019-08-17T15:13:12Z</time>
      </trkpt>
      <trkpt lat="47.1609" lon="5.88916">
        <ele>225.6</ele>
        <time>2019-08-17T15:13:13Z</time>
      </trkpt>
      <trkpt lat="47.16085" lon="5.8891">
        <ele>225.6</ele>
        <time>2019-08-17T15:13:14Z</time>
      </trkpt>
      <trkpt lat="47.16081" lon="5.88905">
        <ele>225.6</ele>
        <time>2019-08-17T15:13:15Z</time>
      </trkpt>
      <trkpt lat="47.16077" lon="5.88901">
        <ele>225.6</ele>
        <time>2019-08-17T15:13:16Z</time>
      </trkpt>
      <trkpt lat="47.16073" lon="5.88897">
        <ele>225.7</ele>
        <time>2019-08-17T15:13:17Z</time>
      </trkpt>
      <trkpt lat="47.16068" lon="5.88893">
        <ele>225.7</ele>
        <time>2019-08-17T15:13:18Z</time>
      </trkpt>
      <trkpt lat="47.16064" lon="5.88889">
        <ele>225.9</ele>
        <time>2019-08-17T15:13:19Z</time>
      </trkpt>
      <trkpt lat="47.16059" lon="5.88884">
        <ele>226.1</ele>
        <time>2019-08-17T15:13:20Z</time>
      </trkpt>
      <trkpt lat="47.16055" lon="5.8888">
        <ele>226.3</ele>
        <time>2019-08-17T15:13:21Z</time>
      </trkpt>
      <trkpt lat="47.1605" lon="5.88875">
        <ele>226.4</ele>
        <time>2019-08-17T15:13:22Z</time>
      </trkpt>
      <trkpt lat="47.16046" lon="5.8887">
        <ele>226.6</ele>
        <time>2019-08-17T15:13:23Z</time>
      </trkpt>
      <trkpt lat="47.16041" lon="5.88865">
        <ele>226.7</ele>
        <time>2019-08-17T15:13:24Z</time>
      </trkpt>
      <trkpt lat="47.16037" lon="5.88861">
        <ele>226.8</ele>
        <time>2019-08-17T15:13:25Z</time>
      </trkpt>
      <trkpt lat="47.16033" lon="5.88856">
        <ele>227</ele>
        <time>2019-08-17T15:13:26Z</time>
      </trkpt>
      <trkpt lat="47.1603" lon="5.88852">
        <ele>227.1</ele>
        <time>2019-08-17T15:13:27Z</time>
      </trkpt>
      <trkpt lat="47.16026" lon="5.88848">
        <ele>227.2</ele>
        <time>2019-08-17T15:13:28Z</time>
      </trkpt>
      <trkpt lat="47.16022" lon="5.88843">
        <ele>227.3</ele>
        <time>2019-08-17T15:13:29Z</time>
      </trkpt>
      <trkpt lat="47.16019" lon="5.88838">
        <ele>227.5</ele>
        <time>2019-08-17T15:13:30Z</time>
      </trkpt>
      <trkpt lat="47.16015" lon="5.88833">
        <ele>227.7</ele>
        <time>2019-08-17T15:13:31Z</time>
      </trkpt>
      <trkpt lat="47.16011" lon="5.88828">
        <ele>227.8</ele>
        <time>2019-08-17T15:13:32Z</time>
      </trkpt>
      <trkpt lat="47.16007" lon="5.88823">
        <ele>228</ele>
        <time>2019-08-17T15:13:33Z</time>
      </trkpt>
      <trkpt lat="47.16003" lon="5.88819">
        <ele>228.1</ele>
        <time>2019-08-17T15:13:34Z</time>
      </trkpt>
      <trkpt lat="47.15999" lon="5.88815">
        <ele>228.3</ele>
        <time>2019-08-17T15:13:35Z</time>
      </trkpt>
      <trkpt lat="47.15995" lon="5.88811">
        <ele>228.4</ele>
        <time>2019-08-17T15:13:36Z</time>
      </trkpt>
      <trkpt lat="47.15992" lon="5.88808">
        <ele>228.5</ele>
        <time>2019-08-17T15:13:37Z</time>
      </trkpt>
      <trkpt lat="47.15989" lon="5.88805">
        <ele>228.5</ele>
        <time>2019-08-17T15:13:38Z</time>
      </trkpt>
      <trkpt lat="47.15986" lon="5.88802">
        <ele>228.6</ele>
        <time>2019-08-17T15:13:39Z</time>
      </trkpt>
      <trkpt lat="47.15984" lon="5.888">
        <ele>228.7</ele>
        <time>2019-08-17T15:13:40Z</time>
      </trkpt>
      <trkpt lat="47.15979" lon="5.88794">
        <ele>228.8</ele>
        <time>2019-08-17T15:13:42Z</time>
      </trkpt>
      <trkpt lat="47.15977" lon="5.88791">
        <ele>228.8</ele>
        <time>2019-08-17T15:13:43Z</time>
      </trkpt>
      <trkpt lat="47.15975" lon="5.88787">
        <ele>228.9</ele>
        <time>2019-08-17T15:13:44Z</time>
      </trkpt>
      <trkpt lat="47.15973" lon="5.88784">
        <ele>228.9</ele>
        <time>2019-08-17T15:13:45Z</time>
      </trkpt>
      <trkpt lat="47.15971" lon="5.8878">
        <ele>229</ele>
        <time>2019-08-17T15:13:46Z</time>
      </trkpt>
      <trkpt lat="47.15969" lon="5.88775">
        <ele>229.2</ele>
        <time>2019-08-17T15:13:48Z</time>
      </trkpt>
      <trkpt lat="47.15969" lon="5.8877">
        <ele>229.2</ele>
        <time>2019-08-17T15:13:50Z</time>
      </trkpt>
      <trkpt lat="47.1597" lon="5.88765">
        <ele>229.2</ele>
        <time>2019-08-17T15:13:52Z</time>
      </trkpt>
      <trkpt lat="47.15973" lon="5.88762">
        <ele>229.2</ele>
        <time>2019-08-17T15:13:53Z</time>
      </trkpt>
      <trkpt lat="47.15975" lon="5.88757">
        <ele>229.2</ele>
        <time>2019-08-17T15:13:54Z</time>
      </trkpt>
      <trkpt lat="47.15978" lon="5.88754">
        <ele>229.1</ele>
        <time>2019-08-17T15:13:55Z</time>
      </trkpt>
      <trkpt lat="47.1598" lon="5.88751">
        <ele>229.1</ele>
        <time>2019-08-17T15:13:56Z</time>
      </trkpt>
      <trkpt lat="47.15981" lon="5.88747">
        <ele>229.1</ele>
        <time>2019-08-17T15:13:57Z</time>
      </trkpt>
      <trkpt lat="47.15983" lon="5.88743">
        <ele>229.1</ele>
        <time>2019-08-17T15:13:58Z</time>
      </trkpt>
      <trkpt lat="47.15985" lon="5.8874">
        <ele>229.1</ele>
        <time>2019-08-17T15:13:59Z</time>
      </trkpt>
      <trkpt lat="47.15987" lon="5.88738">
        <ele>229.1</ele>
        <time>2019-08-17T15:14:00Z</time>
      </trkpt>
      <trkpt lat="47.15991" lon="5.88736">
        <ele>229.1</ele>
        <time>2019-08-17T15:14:01Z</time>
      </trkpt>
      <trkpt lat="47.15994" lon="5.88734">
        <ele>229</ele>
        <time>2019-08-17T15:14:02Z</time>
      </trkpt>
      <trkpt lat="47.15997" lon="5.88732">
        <ele>229</ele>
        <time>2019-08-17T15:14:03Z</time>
      </trkpt>
      <trkpt lat="47.16" lon="5.8873">
        <ele>229</ele>
        <time>2019-08-17T15:14:04Z</time>
      </trkpt>
      <trkpt lat="47.16003" lon="5.88729">
        <ele>228.9</ele>
        <time>2019-08-17T15:14:05Z</time>
      </trkpt>
      <trkpt lat="47.16006" lon="5.88726">
        <ele>228.9</ele>
        <time>2019-08-17T15:14:06Z</time>
      </trkpt>
      <trkpt lat="47.16008" lon="5.88724">
        <ele>228.9</ele>
        <time>2019-08-17T15:14:07Z</time>
      </trkpt>
      <trkpt lat="47.16011" lon="5.88723">
        <ele>228.8</ele>
        <time>2019-08-17T15:14:08Z</time>
      </trkpt>
      <trkpt lat="47.16016" lon="5.88722">
        <ele>228.8</ele>
        <time>2019-08-17T15:14:10Z</time>
      </trkpt>
      <trkpt lat="47.1602" lon="5.88722">
        <ele>228.7</ele>
        <time>2019-08-17T15:14:12Z</time>
      </trkpt>
      <trkpt lat="47.16024" lon="5.8872">
        <ele>228.7</ele>
        <time>2019-08-17T15:14:14Z</time>
      </trkpt>
      <trkpt lat="47.16028" lon="5.88719">
        <ele>228.6</ele>
        <time>2019-08-17T15:14:16Z</time>
      </trkpt>
      <trkpt lat="47.16032" lon="5.88717">
        <ele>228.6</ele>
        <time>2019-08-17T15:14:17Z</time>
      </trkpt>
      <trkpt lat="47.16035" lon="5.88716">
        <ele>228.5</ele>
        <time>2019-08-17T15:14:18Z</time>
      </trkpt>
      <trkpt lat="47.16038" lon="5.88715">
        <ele>228.5</ele>
        <time>2019-08-17T15:14:19Z</time>
      </trkpt>
      <trkpt lat="47.16041" lon="5.88714">
        <ele>228.5</ele>
        <time>2019-08-17T15:14:20Z</time>
      </trkpt>
      <trkpt lat="47.16046" lon="5.88714">
        <ele>228.5</ele>
        <time>2019-08-17T15:14:22Z</time>
      </trkpt>
      <trkpt lat="47.16051" lon="5.88712">
        <ele>228.5</ele>
        <time>2019-08-17T15:14:24Z</time>
      </trkpt>
      <trkpt lat="47.16054" lon="5.88711">
        <ele>228.5</ele>
        <time>2019-08-17T15:14:25Z</time>
      </trkpt>
      <trkpt lat="47.16057" lon="5.8871">
        <ele>228.5</ele>
        <time>2019-08-17T15:14:26Z</time>
      </trkpt>
      <trkpt lat="47.16061" lon="5.88708">
        <ele>228.5</ele>
        <time>2019-08-17T15:14:27Z</time>
      </trkpt>
      <trkpt lat="47.16066" lon="5.88706">
        <ele>228.5</ele>
        <time>2019-08-17T15:14:28Z</time>
      </trkpt>
      <trkpt lat="47.16069" lon="5.88705">
        <ele>228.5</ele>
        <time>2019-08-17T15:14:29Z</time>
      </trkpt>
      <trkpt lat="47.16073" lon="5.88704">
        <ele>228.5</ele>
        <time>2019-08-17T15:14:30Z</time>
      </trkpt>
      <trkpt lat="47.16076" lon="5.88703">
        <ele>228.5</ele>
        <time>2019-08-17T15:14:31Z</time>
      </trkpt>
      <trkpt lat="47.16079" lon="5.88701">
        <ele>228.5</ele>
        <time>2019-08-17T15:14:32Z</time>
      </trkpt>
      <trkpt lat="47.16083" lon="5.88699">
        <ele>228.5</ele>
        <time>2019-08-17T15:14:33Z</time>
      </trkpt>
      <trkpt lat="47.16087" lon="5.88697">
        <ele>228.5</ele>
        <time>2019-08-17T15:14:34Z</time>
      </trkpt>
      <trkpt lat="47.1609" lon="5.88695">
        <ele>228.4</ele>
        <time>2019-08-17T15:14:35Z</time>
      </trkpt>
      <trkpt lat="47.16094" lon="5.88692">
        <ele>228.4</ele>
        <time>2019-08-17T15:14:36Z</time>
      </trkpt>
      <trkpt lat="47.16097" lon="5.88689">
        <ele>228.4</ele>
        <time>2019-08-17T15:14:37Z</time>
      </trkpt>
      <trkpt lat="47.16101" lon="5.88687">
        <ele>228.3</ele>
        <time>2019-08-17T15:14:38Z</time>
      </trkpt>
      <trkpt lat="47.16104" lon="5.88686">
        <ele>228.3</ele>
        <time>2019-08-17T15:14:39Z</time>
      </trkpt>
      <trkpt lat="47.16108" lon="5.88683">
        <ele>228.2</ele>
        <time>2019-08-17T15:14:40Z</time>
      </trkpt>
      <trkpt lat="47.16111" lon="5.88681">
        <ele>228.1</ele>
        <time>2019-08-17T15:14:41Z</time>
      </trkpt>
      <trkpt lat="47.16115" lon="5.88678">
        <ele>228</ele>
        <time>2019-08-17T15:14:42Z</time>
      </trkpt>
      <trkpt lat="47.16118" lon="5.88676">
        <ele>227.9</ele>
        <time>2019-08-17T15:14:43Z</time>
      </trkpt>
      <trkpt lat="47.16122" lon="5.88672">
        <ele>227.7</ele>
        <time>2019-08-17T15:14:44Z</time>
      </trkpt>
      <trkpt lat="47.16126" lon="5.88669">
        <ele>227.6</ele>
        <time>2019-08-17T15:14:45Z</time>
      </trkpt>
      <trkpt lat="47.16128" lon="5.88665">
        <ele>227.4</ele>
        <time>2019-08-17T15:14:46Z</time>
      </trkpt>
      <trkpt lat="47.16131" lon="5.88662">
        <ele>227.3</ele>
        <time>2019-08-17T15:14:47Z</time>
      </trkpt>
      <trkpt lat="47.16135" lon="5.88661">
        <ele>227.1</ele>
        <time>2019-08-17T15:14:48Z</time>
      </trkpt>
      <trkpt lat="47.1614" lon="5.88659">
        <ele>226.8</ele>
        <time>2019-08-17T15:14:49Z</time>
      </trkpt>
      <trkpt lat="47.16144" lon="5.88657">
        <ele>226.6</ele>
        <time>2019-08-17T15:14:50Z</time>
      </trkpt>
      <trkpt lat="47.16148" lon="5.88654">
        <ele>226.3</ele>
        <time>2019-08-17T15:14:51Z</time>
      </trkpt>
      <trkpt lat="47.16152" lon="5.88652">
        <ele>226</ele>
        <time>2019-08-17T15:14:52Z</time>
      </trkpt>
      <trkpt lat="47.16156" lon="5.8865">
        <ele>225.7</ele>
        <time>2019-08-17T15:14:53Z</time>
      </trkpt>
      <trkpt lat="47.1616" lon="5.88647">
        <ele>225.3</ele>
        <time>2019-08-17T15:14:54Z</time>
      </trkpt>
      <trkpt lat="47.16165" lon="5.88645">
        <ele>224.8</ele>
        <time>2019-08-17T15:14:55Z</time>
      </trkpt>
      <trkpt lat="47.1617" lon="5.88642">
        <ele>224.3</ele>
        <time>2019-08-17T15:14:56Z</time>
      </trkpt>
      <trkpt lat="47.16175" lon="5.88638">
        <ele>223.7</ele>
        <time>2019-08-17T15:14:57Z</time>
      </trkpt>
      <trkpt lat="47.1618" lon="5.88635">
        <ele>223.1</ele>
        <time>2019-08-17T15:14:58Z</time>
      </trkpt>
      <trkpt lat="47.16185" lon="5.88632">
        <ele>222.6</ele>
        <time>2019-08-17T15:14:59Z</time>
      </trkpt>
      <trkpt lat="47.16191" lon="5.88629">
        <ele>222.2</ele>
        <time>2019-08-17T15:15:00Z</time>
      </trkpt>
      <trkpt lat="47.16196" lon="5.88627">
        <ele>221.9</ele>
        <time>2019-08-17T15:15:01Z</time>
      </trkpt>
      <trkpt lat="47.16203" lon="5.88624">
        <ele>221.5</ele>
        <time>2019-08-17T15:15:02Z</time>
      </trkpt>
      <trkpt lat="47.16209" lon="5.88621">
        <ele>221.1</ele>
        <time>2019-08-17T15:15:03Z</time>
      </trkpt>
      <trkpt lat="47.16216" lon="5.88617">
        <ele>220.6</ele>
        <time>2019-08-17T15:15:04Z</time>
      </trkpt>
      <trkpt lat="47.16224" lon="5.88612">
        <ele>220.3</ele>
        <time>2019-08-17T15:15:05Z</time>
      </trkpt>
      <trkpt lat="47.1623" lon="5.88608">
        <ele>220</ele>
        <time>2019-08-17T15:15:06Z</time>
      </trkpt>
      <trkpt lat="47.16237" lon="5.88604">
        <ele>219.9</ele>
        <time>2019-08-17T15:15:07Z</time>
      </trkpt>
      <trkpt lat="47.16242" lon="5.88601">
        <ele>220.6</ele>
        <time>2019-08-17T15:15:08Z</time>
      </trkpt>
      <trkpt lat="47.16246" lon="5.886">
        <ele>221.4</ele>
        <time>2019-08-17T15:15:09Z</time>
      </trkpt>
      <trkpt lat="47.16252" lon="5.88598">
        <ele>222.4</ele>
        <time>2019-08-17T15:15:10Z</time>
      </trkpt>
      <trkpt lat="47.16257" lon="5.88597">
        <ele>223.5</ele>
        <time>2019-08-17T15:15:11Z</time>
      </trkpt>
      <trkpt lat="47.16262" lon="5.88594">
        <ele>224.4</ele>
        <time>2019-08-17T15:15:12Z</time>
      </trkpt>
      <trkpt lat="47.16267" lon="5.88592">
        <ele>225.5</ele>
        <time>2019-08-17T15:15:13Z</time>
      </trkpt>
      <trkpt lat="47.16272" lon="5.88589">
        <ele>226.5</ele>
        <time>2019-08-17T15:15:14Z</time>
      </trkpt>
      <trkpt lat="47.16276" lon="5.88586">
        <ele>227.6</ele>
        <time>2019-08-17T15:15:15Z</time>
      </trkpt>
      <trkpt lat="47.16281" lon="5.88584">
        <ele>228.7</ele>
        <time>2019-08-17T15:15:16Z</time>
      </trkpt>
      <trkpt lat="47.16285" lon="5.8858">
        <ele>230.3</ele>
        <time>2019-08-17T15:15:17Z</time>
      </trkpt>
      <trkpt lat="47.1629" lon="5.88579">
        <ele>231.5</ele>
        <time>2019-08-17T15:15:18Z</time>
      </trkpt>
      <trkpt lat="47.16294" lon="5.88578">
        <ele>232.2</ele>
        <time>2019-08-17T15:15:19Z</time>
      </trkpt>
      <trkpt lat="47.16299" lon="5.88579">
        <ele>233.2</ele>
        <time>2019-08-17T15:15:20Z</time>
      </trkpt>
      <trkpt lat="47.16303" lon="5.8858">
        <ele>233.8</ele>
        <time>2019-08-17T15:15:21Z</time>
      </trkpt>
      <trkpt lat="47.16306" lon="5.88579">
        <ele>234.3</ele>
        <time>2019-08-17T15:15:22Z</time>
      </trkpt>
      <trkpt lat="47.16308" lon="5.88578">
        <ele>234.8</ele>
        <time>2019-08-17T15:15:23Z</time>
      </trkpt>
      <trkpt lat="47.16312" lon="5.88572">
        <ele>236</ele>
        <time>2019-08-17T15:15:25Z</time>
      </trkpt>
      <trkpt lat="47.16313" lon="5.88566">
        <ele>237.1</ele>
        <time>2019-08-17T15:15:26Z</time>
      </trkpt>
      <trkpt lat="47.16313" lon="5.88561">
        <ele>237.9</ele>
        <time>2019-08-17T15:15:27Z</time>
      </trkpt>
      <trkpt lat="47.16314" lon="5.88555">
        <ele>238.5</ele>
        <time>2019-08-17T15:15:29Z</time>
      </trkpt>
      <trkpt lat="47.16314" lon="5.88549">
        <ele>238.8</ele>
        <time>2019-08-17T15:15:30Z</time>
      </trkpt>
      <trkpt lat="47.16314" lon="5.88541">
        <ele>239.4</ele>
        <time>2019-08-17T15:15:31Z</time>
      </trkpt>
      <trkpt lat="47.16313" lon="5.88534">
        <ele>239.6</ele>
        <time>2019-08-17T15:15:32Z</time>
      </trkpt>
      <trkpt lat="47.16313" lon="5.88529">
        <ele>239.8</ele>
        <time>2019-08-17T15:15:33Z</time>
      </trkpt>
      <trkpt lat="47.16312" lon="5.88524">
        <ele>239.9</ele>
        <time>2019-08-17T15:15:34Z</time>
      </trkpt>
      <trkpt lat="47.16311" lon="5.88519">
        <ele>240.1</ele>
        <time>2019-08-17T15:15:35Z</time>
      </trkpt>
      <trkpt lat="47.16309" lon="5.88514">
        <ele>240.2</ele>
        <time>2019-08-17T15:15:36Z</time>
      </trkpt>
      <trkpt lat="47.16308" lon="5.88506">
        <ele>240.4</ele>
        <time>2019-08-17T15:15:38Z</time>
      </trkpt>
      <trkpt lat="47.16307" lon="5.88502">
        <ele>240.6</ele>
        <time>2019-08-17T15:15:39Z</time>
      </trkpt>
      <trkpt lat="47.16306" lon="5.88497">
        <ele>240.7</ele>
        <time>2019-08-17T15:15:40Z</time>
      </trkpt>
      <trkpt lat="47.16305" lon="5.88492">
        <ele>240.8</ele>
        <time>2019-08-17T15:15:41Z</time>
      </trkpt>
      <trkpt lat="47.16304" lon="5.88487">
        <ele>241</ele>
        <time>2019-08-17T15:15:42Z</time>
      </trkpt>
      <trkpt lat="47.16302" lon="5.88483">
        <ele>241.1</ele>
        <time>2019-08-17T15:15:43Z</time>
      </trkpt>
      <trkpt lat="47.16301" lon="5.88478">
        <ele>240.8</ele>
        <time>2019-08-17T15:15:44Z</time>
      </trkpt>
      <trkpt lat="47.16298" lon="5.88472">
        <ele>240.6</ele>
        <time>2019-08-17T15:15:45Z</time>
      </trkpt>
      <trkpt lat="47.16295" lon="5.88466">
        <ele>240.3</ele>
        <time>2019-08-17T15:15:46Z</time>
      </trkpt>
      <trkpt lat="47.16294" lon="5.88462">
        <ele>240.1</ele>
        <time>2019-08-17T15:15:47Z</time>
      </trkpt>
      <trkpt lat="47.16292" lon="5.88457">
        <ele>240</ele>
        <time>2019-08-17T15:15:48Z</time>
      </trkpt>
      <trkpt lat="47.16289" lon="5.88449">
        <ele>239.8</ele>
        <time>2019-08-17T15:15:50Z</time>
      </trkpt>
      <trkpt lat="47.16287" lon="5.88446">
        <ele>239.7</ele>
        <time>2019-08-17T15:15:51Z</time>
      </trkpt>
      <trkpt lat="47.16285" lon="5.88442">
        <ele>239.6</ele>
        <time>2019-08-17T15:15:52Z</time>
      </trkpt>
      <trkpt lat="47.16282" lon="5.88438">
        <ele>239.5</ele>
        <time>2019-08-17T15:15:53Z</time>
      </trkpt>
      <trkpt lat="47.16279" lon="5.88434">
        <ele>239.4</ele>
        <time>2019-08-17T15:15:54Z</time>
      </trkpt>
      <trkpt lat="47.16275" lon="5.8843">
        <ele>239.3</ele>
        <time>2019-08-17T15:15:55Z</time>
      </trkpt>
      <trkpt lat="47.16272" lon="5.88426">
        <ele>238.9</ele>
        <time>2019-08-17T15:15:56Z</time>
      </trkpt>
      <trkpt lat="47.16268" lon="5.88421">
        <ele>238.3</ele>
        <time>2019-08-17T15:15:57Z</time>
      </trkpt>
      <trkpt lat="47.16265" lon="5.88417">
        <ele>238.3</ele>
        <time>2019-08-17T15:15:58Z</time>
      </trkpt>
      <trkpt lat="47.16262" lon="5.88411">
        <ele>238.3</ele>
        <time>2019-08-17T15:15:59Z</time>
      </trkpt>
      <trkpt lat="47.1626" lon="5.88407">
        <ele>238.3</ele>
        <time>2019-08-17T15:16:00Z</time>
      </trkpt>
      <trkpt lat="47.16258" lon="5.88402">
        <ele>238.4</ele>
        <time>2019-08-17T15:16:01Z</time>
      </trkpt>
      <trkpt lat="47.16255" lon="5.88398">
        <ele>238.5</ele>
        <time>2019-08-17T15:16:02Z</time>
      </trkpt>
      <trkpt lat="47.16252" lon="5.88393">
        <ele>238.7</ele>
        <time>2019-08-17T15:16:03Z</time>
      </trkpt>
      <trkpt lat="47.1625" lon="5.88389">
        <ele>239</ele>
        <time>2019-08-17T15:16:04Z</time>
      </trkpt>
      <trkpt lat="47.16247" lon="5.88384">
        <ele>239.1</ele>
        <time>2019-08-17T15:16:05Z</time>
      </trkpt>
      <trkpt lat="47.16244" lon="5.88379">
        <ele>239.1</ele>
        <time>2019-08-17T15:16:06Z</time>
      </trkpt>
      <trkpt lat="47.16241" lon="5.88374">
        <ele>239.2</ele>
        <time>2019-08-17T15:16:07Z</time>
      </trkpt>
      <trkpt lat="47.16238" lon="5.8837">
        <ele>239.3</ele>
        <time>2019-08-17T15:16:08Z</time>
      </trkpt>
      <trkpt lat="47.16236" lon="5.88366">
        <ele>239.4</ele>
        <time>2019-08-17T15:16:09Z</time>
      </trkpt>
      <trkpt lat="47.16233" lon="5.88363">
        <ele>239.5</ele>
        <time>2019-08-17T15:16:10Z</time>
      </trkpt>
      <trkpt lat="47.1623" lon="5.8836">
        <ele>239.6</ele>
        <time>2019-08-17T15:16:11Z</time>
      </trkpt>
      <trkpt lat="47.16227" lon="5.88355">
        <ele>239.7</ele>
        <time>2019-08-17T15:16:12Z</time>
      </trkpt>
      <trkpt lat="47.16223" lon="5.88351">
        <ele>239.9</ele>
        <time>2019-08-17T15:16:13Z</time>
      </trkpt>
      <trkpt lat="47.16219" lon="5.88346">
        <ele>240.1</ele>
        <time>2019-08-17T15:16:14Z</time>
      </trkpt>
      <trkpt lat="47.16215" lon="5.88342">
        <ele>240.4</ele>
        <time>2019-08-17T15:16:15Z</time>
      </trkpt>
      <trkpt lat="47.16212" lon="5.88338">
        <ele>240.6</ele>
        <time>2019-08-17T15:16:16Z</time>
      </trkpt>
      <trkpt lat="47.16208" lon="5.88334">
        <ele>240.8</ele>
        <time>2019-08-17T15:16:17Z</time>
      </trkpt>
      <trkpt lat="47.16204" lon="5.8833">
        <ele>241</ele>
        <time>2019-08-17T15:16:18Z</time>
      </trkpt>
      <trkpt lat="47.16201" lon="5.88326">
        <ele>241.2</ele>
        <time>2019-08-17T15:16:19Z</time>
      </trkpt>
      <trkpt lat="47.16197" lon="5.88322">
        <ele>241.4</ele>
        <time>2019-08-17T15:16:20Z</time>
      </trkpt>
      <trkpt lat="47.16193" lon="5.88317">
        <ele>241.7</ele>
        <time>2019-08-17T15:16:21Z</time>
      </trkpt>
      <trkpt lat="47.16188" lon="5.88313">
        <ele>242</ele>
        <time>2019-08-17T15:16:22Z</time>
      </trkpt>
      <trkpt lat="47.16184" lon="5.88309">
        <ele>242.3</ele>
        <time>2019-08-17T15:16:23Z</time>
      </trkpt>
      <trkpt lat="47.1618" lon="5.88305">
        <ele>242.6</ele>
        <time>2019-08-17T15:16:24Z</time>
      </trkpt>
      <trkpt lat="47.16177" lon="5.88301">
        <ele>242.9</ele>
        <time>2019-08-17T15:16:25Z</time>
      </trkpt>
      <trkpt lat="47.16173" lon="5.88298">
        <ele>243.4</ele>
        <time>2019-08-17T15:16:26Z</time>
      </trkpt>
      <trkpt lat="47.16169" lon="5.88295">
        <ele>243.8</ele>
        <time>2019-08-17T15:16:27Z</time>
      </trkpt>
      <trkpt lat="47.16165" lon="5.88292">
        <ele>244.3</ele>
        <time>2019-08-17T15:16:28Z</time>
      </trkpt>
      <trkpt lat="47.16162" lon="5.8829">
        <ele>244.8</ele>
        <time>2019-08-17T15:16:29Z</time>
      </trkpt>
      <trkpt lat="47.16159" lon="5.88287">
        <ele>245.4</ele>
        <time>2019-08-17T15:16:30Z</time>
      </trkpt>
      <trkpt lat="47.16155" lon="5.88284">
        <ele>246.1</ele>
        <time>2019-08-17T15:16:31Z</time>
      </trkpt>
      <trkpt lat="47.16151" lon="5.88282">
        <ele>246.8</ele>
        <time>2019-08-17T15:16:32Z</time>
      </trkpt>
      <trkpt lat="47.16147" lon="5.88279">
        <ele>247.7</ele>
        <time>2019-08-17T15:16:33Z</time>
      </trkpt>
      <trkpt lat="47.16142" lon="5.88276">
        <ele>248.9</ele>
        <time>2019-08-17T15:16:34Z</time>
      </trkpt>
      <trkpt lat="47.16137" lon="5.88273">
        <ele>249.7</ele>
        <time>2019-08-17T15:16:35Z</time>
      </trkpt>
      <trkpt lat="47.16134" lon="5.88269">
        <ele>250.5</ele>
        <time>2019-08-17T15:16:36Z</time>
      </trkpt>
      <trkpt lat="47.1613" lon="5.88265">
        <ele>251.5</ele>
        <time>2019-08-17T15:16:37Z</time>
      </trkpt>
      <trkpt lat="47.16125" lon="5.88262">
        <ele>252.5</ele>
        <time>2019-08-17T15:16:38Z</time>
      </trkpt>
      <trkpt lat="47.16121" lon="5.88259">
        <ele>253.5</ele>
        <time>2019-08-17T15:16:39Z</time>
      </trkpt>
      <trkpt lat="47.16116" lon="5.88256">
        <ele>254.6</ele>
        <time>2019-08-17T15:16:40Z</time>
      </trkpt>
      <trkpt lat="47.16111" lon="5.88253">
        <ele>255.6</ele>
        <time>2019-08-17T15:16:41Z</time>
      </trkpt>
      <trkpt lat="47.16107" lon="5.88251">
        <ele>256.6</ele>
        <time>2019-08-17T15:16:42Z</time>
      </trkpt>
      <trkpt lat="47.16102" lon="5.88248">
        <ele>257.7</ele>
        <time>2019-08-17T15:16:43Z</time>
      </trkpt>
      <trkpt lat="47.16097" lon="5.88246">
        <ele>259</ele>
        <time>2019-08-17T15:16:44Z</time>
      </trkpt>
      <trkpt lat="47.16093" lon="5.88243">
        <ele>258.8</ele>
        <time>2019-08-17T15:16:45Z</time>
      </trkpt>
      <trkpt lat="47.16088" lon="5.88239">
        <ele>258.7</ele>
        <time>2019-08-17T15:16:46Z</time>
      </trkpt>
      <trkpt lat="47.16084" lon="5.88235">
        <ele>258.6</ele>
        <time>2019-08-17T15:16:47Z</time>
      </trkpt>
      <trkpt lat="47.1608" lon="5.88233">
        <ele>258.5</ele>
        <time>2019-08-17T15:16:48Z</time>
      </trkpt>
      <trkpt lat="47.16075" lon="5.88231">
        <ele>258.4</ele>
        <time>2019-08-17T15:16:49Z</time>
      </trkpt>
      <trkpt lat="47.1607" lon="5.88228">
        <ele>258.3</ele>
        <time>2019-08-17T15:16:50Z</time>
      </trkpt>
      <trkpt lat="47.16065" lon="5.88226">
        <ele>258.1</ele>
        <time>2019-08-17T15:16:51Z</time>
      </trkpt>
      <trkpt lat="47.16061" lon="5.88224">
        <ele>258</ele>
        <time>2019-08-17T15:16:52Z</time>
      </trkpt>
      <trkpt lat="47.16056" lon="5.88222">
        <ele>257.9</ele>
        <time>2019-08-17T15:16:53Z</time>
      </trkpt>
      <trkpt lat="47.16051" lon="5.8822">
        <ele>257.8</ele>
        <time>2019-08-17T15:16:54Z</time>
      </trkpt>
      <trkpt lat="47.16047" lon="5.88219">
        <ele>257.6</ele>
        <time>2019-08-17T15:16:55Z</time>
      </trkpt>
      <trkpt lat="47.16042" lon="5.88217">
        <ele>257.5</ele>
        <time>2019-08-17T15:16:56Z</time>
      </trkpt>
      <trkpt lat="47.16037" lon="5.88216">
        <ele>257.4</ele>
        <time>2019-08-17T15:16:57Z</time>
      </trkpt>
      <trkpt lat="47.16033" lon="5.88215">
        <ele>257.2</ele>
        <time>2019-08-17T15:16:58Z</time>
      </trkpt>
      <trkpt lat="47.16029" lon="5.88214">
        <ele>257.1</ele>
        <time>2019-08-17T15:16:59Z</time>
      </trkpt>
      <trkpt lat="47.16025" lon="5.88213">
        <ele>255.9</ele>
        <time>2019-08-17T15:17:00Z</time>
      </trkpt>
      <trkpt lat="47.16021" lon="5.88212">
        <ele>255.1</ele>
        <time>2019-08-17T15:17:01Z</time>
      </trkpt>
      <trkpt lat="47.16016" lon="5.8821">
        <ele>254.2</ele>
        <time>2019-08-17T15:17:02Z</time>
      </trkpt>
      <trkpt lat="47.16012" lon="5.88208">
        <ele>253.5</ele>
        <time>2019-08-17T15:17:03Z</time>
      </trkpt>
      <trkpt lat="47.16008" lon="5.88207">
        <ele>252.7</ele>
        <time>2019-08-17T15:17:04Z</time>
      </trkpt>
      <trkpt lat="47.16003" lon="5.88208">
        <ele>251.9</ele>
        <time>2019-08-17T15:17:05Z</time>
      </trkpt>
      <trkpt lat="47.15998" lon="5.88208">
        <ele>251.1</ele>
        <time>2019-08-17T15:17:06Z</time>
      </trkpt>
      <trkpt lat="47.15994" lon="5.8821">
        <ele>250.4</ele>
        <time>2019-08-17T15:17:07Z</time>
      </trkpt>
      <trkpt lat="47.15989" lon="5.88211">
        <ele>249.6</ele>
        <time>2019-08-17T15:17:08Z</time>
      </trkpt>
      <trkpt lat="47.15983" lon="5.88211">
        <ele>248.7</ele>
        <time>2019-08-17T15:17:09Z</time>
      </trkpt>
      <trkpt lat="47.15978" lon="5.88211">
        <ele>247.9</ele>
        <time>2019-08-17T15:17:10Z</time>
      </trkpt>
      <trkpt lat="47.15974" lon="5.88211">
        <ele>247.3</ele>
        <time>2019-08-17T15:17:11Z</time>
      </trkpt>
      <trkpt lat="47.15969" lon="5.88211">
        <ele>246.5</ele>
        <time>2019-08-17T15:17:12Z</time>
      </trkpt>
      <trkpt lat="47.15963" lon="5.88212">
        <ele>244.9</ele>
        <time>2019-08-17T15:17:13Z</time>
      </trkpt>
      <trkpt lat="47.15957" lon="5.88213">
        <ele>243.5</ele>
        <time>2019-08-17T15:17:14Z</time>
      </trkpt>
      <trkpt lat="47.15953" lon="5.88215">
        <ele>242.4</ele>
        <time>2019-08-17T15:17:15Z</time>
      </trkpt>
      <trkpt lat="47.15949" lon="5.88217">
        <ele>241.3</ele>
        <time>2019-08-17T15:17:16Z</time>
      </trkpt>
      <trkpt lat="47.15945" lon="5.88219">
        <ele>240.3</ele>
        <time>2019-08-17T15:17:17Z</time>
      </trkpt>
      <trkpt lat="47.15941" lon="5.88221">
        <ele>239.3</ele>
        <time>2019-08-17T15:17:18Z</time>
      </trkpt>
      <trkpt lat="47.15937" lon="5.88222">
        <ele>238.3</ele>
        <time>2019-08-17T15:17:19Z</time>
      </trkpt>
      <trkpt lat="47.15932" lon="5.88224">
        <ele>237.3</ele>
        <time>2019-08-17T15:17:20Z</time>
      </trkpt>
      <trkpt lat="47.15927" lon="5.88226">
        <ele>236.3</ele>
        <time>2019-08-17T15:17:21Z</time>
      </trkpt>
      <trkpt lat="47.15923" lon="5.88228">
        <ele>235.3</ele>
        <time>2019-08-17T15:17:22Z</time>
      </trkpt>
      <trkpt lat="47.15917" lon="5.88229">
        <ele>234</ele>
        <time>2019-08-17T15:17:23Z</time>
      </trkpt>
      <trkpt lat="47.15912" lon="5.8823">
        <ele>232.5</ele>
        <time>2019-08-17T15:17:24Z</time>
      </trkpt>
      <trkpt lat="47.15907" lon="5.88231">
        <ele>231.1</ele>
        <time>2019-08-17T15:17:25Z</time>
      </trkpt>
      <trkpt lat="47.15903" lon="5.88232">
        <ele>230</ele>
        <time>2019-08-17T15:17:26Z</time>
      </trkpt>
      <trkpt lat="47.15898" lon="5.88232">
        <ele>228.7</ele>
        <time>2019-08-17T15:17:27Z</time>
      </trkpt>
      <trkpt lat="47.15892" lon="5.88231">
        <ele>227.2</ele>
        <time>2019-08-17T15:17:28Z</time>
      </trkpt>
      <trkpt lat="47.15887" lon="5.88232">
        <ele>225.7</ele>
        <time>2019-08-17T15:17:29Z</time>
      </trkpt>
      <trkpt lat="47.15882" lon="5.88233">
        <ele>224.3</ele>
        <time>2019-08-17T15:17:30Z</time>
      </trkpt>
      <trkpt lat="47.15877" lon="5.88235">
        <ele>222.9</ele>
        <time>2019-08-17T15:17:31Z</time>
      </trkpt>
      <trkpt lat="47.15872" lon="5.88236">
        <ele>221.5</ele>
        <time>2019-08-17T15:17:32Z</time>
      </trkpt>
      <trkpt lat="47.15867" lon="5.88237">
        <ele>220.9</ele>
        <time>2019-08-17T15:17:33Z</time>
      </trkpt>
      <trkpt lat="47.15863" lon="5.88238">
        <ele>220.9</ele>
        <time>2019-08-17T15:17:34Z</time>
      </trkpt>
      <trkpt lat="47.15859" lon="5.88238">
        <ele>220.8</ele>
        <time>2019-08-17T15:17:35Z</time>
      </trkpt>
      <trkpt lat="47.15855" lon="5.88239">
        <ele>220.8</ele>
        <time>2019-08-17T15:17:36Z</time>
      </trkpt>
      <trkpt lat="47.15852" lon="5.88239">
        <ele>220.8</ele>
        <time>2019-08-17T15:17:37Z</time>
      </trkpt>
      <trkpt lat="47.15848" lon="5.88241">
        <ele>220.8</ele>
        <time>2019-08-17T15:17:38Z</time>
      </trkpt>
      <trkpt lat="47.15844" lon="5.88242">
        <ele>220.8</ele>
        <time>2019-08-17T15:17:39Z</time>
      </trkpt>
      <trkpt lat="47.15839" lon="5.88244">
        <ele>220.8</ele>
        <time>2019-08-17T15:17:40Z</time>
      </trkpt>
      <trkpt lat="47.15834" lon="5.88247">
        <ele>220.7</ele>
        <time>2019-08-17T15:17:41Z</time>
      </trkpt>
      <trkpt lat="47.1583" lon="5.88249">
        <ele>220.7</ele>
        <time>2019-08-17T15:17:42Z</time>
      </trkpt>
      <trkpt lat="47.15825" lon="5.88251">
        <ele>220.7</ele>
        <time>2019-08-17T15:17:43Z</time>
      </trkpt>
      <trkpt lat="47.15821" lon="5.88253">
        <ele>220.7</ele>
        <time>2019-08-17T15:17:44Z</time>
      </trkpt>
      <trkpt lat="47.15816" lon="5.88255">
        <ele>220.6</ele>
        <time>2019-08-17T15:17:45Z</time>
      </trkpt>
      <trkpt lat="47.15812" lon="5.88256">
        <ele>220.6</ele>
        <time>2019-08-17T15:17:46Z</time>
      </trkpt>
      <trkpt lat="47.15808" lon="5.88258">
        <ele>220.5</ele>
        <time>2019-08-17T15:17:47Z</time>
      </trkpt>
      <trkpt lat="47.15805" lon="5.88258">
        <ele>220.5</ele>
        <time>2019-08-17T15:17:48Z</time>
      </trkpt>
      <trkpt lat="47.15801" lon="5.88259">
        <ele>220.4</ele>
        <time>2019-08-17T15:17:49Z</time>
      </trkpt>
      <trkpt lat="47.15797" lon="5.8826">
        <ele>220.4</ele>
        <time>2019-08-17T15:17:50Z</time>
      </trkpt>
      <trkpt lat="47.15793" lon="5.8826">
        <ele>220.3</ele>
        <time>2019-08-17T15:17:51Z</time>
      </trkpt>
      <trkpt lat="47.15789" lon="5.88262">
        <ele>220.3</ele>
        <time>2019-08-17T15:17:52Z</time>
      </trkpt>
      <trkpt lat="47.15786" lon="5.88264">
        <ele>220.2</ele>
        <time>2019-08-17T15:17:53Z</time>
      </trkpt>
      <trkpt lat="47.15782" lon="5.88266">
        <ele>220.2</ele>
        <time>2019-08-17T15:17:54Z</time>
      </trkpt>
      <trkpt lat="47.15777" lon="5.88269">
        <ele>220.1</ele>
        <time>2019-08-17T15:17:55Z</time>
      </trkpt>
      <trkpt lat="47.15773" lon="5.88271">
        <ele>220.1</ele>
        <time>2019-08-17T15:17:56Z</time>
      </trkpt>
      <trkpt lat="47.15769" lon="5.88274">
        <ele>220.1</ele>
        <time>2019-08-17T15:17:57Z</time>
      </trkpt>
      <trkpt lat="47.15765" lon="5.88276">
        <ele>220</ele>
        <time>2019-08-17T15:17:58Z</time>
      </trkpt>
      <trkpt lat="47.1576" lon="5.88278">
        <ele>220</ele>
        <time>2019-08-17T15:17:59Z</time>
      </trkpt>
      <trkpt lat="47.15755" lon="5.8828">
        <ele>220</ele>
        <time>2019-08-17T15:18:00Z</time>
      </trkpt>
      <trkpt lat="47.15751" lon="5.88281">
        <ele>220</ele>
        <time>2019-08-17T15:18:01Z</time>
      </trkpt>
      <trkpt lat="47.15747" lon="5.88283">
        <ele>220</ele>
        <time>2019-08-17T15:18:02Z</time>
      </trkpt>
      <trkpt lat="47.15743" lon="5.88285">
        <ele>220</ele>
        <time>2019-08-17T15:18:03Z</time>
      </trkpt>
      <trkpt lat="47.15739" lon="5.88287">
        <ele>220</ele>
        <time>2019-08-17T15:18:04Z</time>
      </trkpt>
      <trkpt lat="47.15734" lon="5.88289">
        <ele>219.9</ele>
        <time>2019-08-17T15:18:05Z</time>
      </trkpt>
      <trkpt lat="47.1573" lon="5.88291">
        <ele>219.9</ele>
        <time>2019-08-17T15:18:06Z</time>
      </trkpt>
      <trkpt lat="47.15725" lon="5.88294">
        <ele>219.9</ele>
        <time>2019-08-17T15:18:07Z</time>
      </trkpt>
      <trkpt lat="47.15721" lon="5.88296">
        <ele>219.9</ele>
        <time>2019-08-17T15:18:08Z</time>
      </trkpt>
      <trkpt lat="47.15716" lon="5.88299">
        <ele>219.9</ele>
        <time>2019-08-17T15:18:09Z</time>
      </trkpt>
      <trkpt lat="47.15712" lon="5.88301">
        <ele>219.9</ele>
        <time>2019-08-17T15:18:10Z</time>
      </trkpt>
      <trkpt lat="47.15708" lon="5.88304">
        <ele>219.9</ele>
        <time>2019-08-17T15:18:11Z</time>
      </trkpt>
      <trkpt lat="47.15704" lon="5.88306">
        <ele>219.9</ele>
        <time>2019-08-17T15:18:12Z</time>
      </trkpt>
      <trkpt lat="47.15699" lon="5.88307">
        <ele>219.9</ele>
        <time>2019-08-17T15:18:13Z</time>
      </trkpt>
      <trkpt lat="47.15695" lon="5.88309">
        <ele>219.9</ele>
        <time>2019-08-17T15:18:14Z</time>
      </trkpt>
      <trkpt lat="47.15691" lon="5.8831">
        <ele>219.9</ele>
        <time>2019-08-17T15:18:15Z</time>
      </trkpt>
      <trkpt lat="47.15687" lon="5.88313">
        <ele>219.9</ele>
        <time>2019-08-17T15:18:16Z</time>
      </trkpt>
      <trkpt lat="47.15682" lon="5.88315">
        <ele>219.9</ele>
        <time>2019-08-17T15:18:17Z</time>
      </trkpt>
      <trkpt lat="47.15677" lon="5.88316">
        <ele>219.9</ele>
        <time>2019-08-17T15:18:18Z</time>
      </trkpt>
      <trkpt lat="47.15673" lon="5.88318">
        <ele>219.8</ele>
        <time>2019-08-17T15:18:19Z</time>
      </trkpt>
      <trkpt lat="47.15668" lon="5.8832">
        <ele>219.8</ele>
        <time>2019-08-17T15:18:20Z</time>
      </trkpt>
      <trkpt lat="47.15664" lon="5.88322">
        <ele>219.8</ele>
        <time>2019-08-17T15:18:21Z</time>
      </trkpt>
      <trkpt lat="47.15659" lon="5.88324">
        <ele>219.8</ele>
        <time>2019-08-17T15:18:22Z</time>
      </trkpt>
      <trkpt lat="47.15655" lon="5.88325">
        <ele>219.8</ele>
        <time>2019-08-17T15:18:23Z</time>
      </trkpt>
      <trkpt lat="47.15651" lon="5.88327">
        <ele>219.7</ele>
        <time>2019-08-17T15:18:24Z</time>
      </trkpt>
      <trkpt lat="47.15647" lon="5.88328">
        <ele>219.7</ele>
        <time>2019-08-17T15:18:25Z</time>
      </trkpt>
      <trkpt lat="47.15644" lon="5.88329">
        <ele>219.6</ele>
        <time>2019-08-17T15:18:26Z</time>
      </trkpt>
      <trkpt lat="47.1564" lon="5.8833">
        <ele>219.6</ele>
        <time>2019-08-17T15:18:27Z</time>
      </trkpt>
      <trkpt lat="47.15635" lon="5.88331">
        <ele>219.6</ele>
        <time>2019-08-17T15:18:28Z</time>
      </trkpt>
      <trkpt lat="47.15628" lon="5.88333">
        <ele>219.5</ele>
        <time>2019-08-17T15:18:29Z</time>
      </trkpt>
      <trkpt lat="47.15624" lon="5.88334">
        <ele>219.4</ele>
        <time>2019-08-17T15:18:30Z</time>
      </trkpt>
      <trkpt lat="47.15619" lon="5.88336">
        <ele>219.4</ele>
        <time>2019-08-17T15:18:31Z</time>
      </trkpt>
      <trkpt lat="47.15615" lon="5.88336">
        <ele>219.3</ele>
        <time>2019-08-17T15:18:32Z</time>
      </trkpt>
      <trkpt lat="47.1561" lon="5.88337">
        <ele>219.3</ele>
        <time>2019-08-17T15:18:33Z</time>
      </trkpt>
      <trkpt lat="47.15606" lon="5.88338">
        <ele>219.3</ele>
        <time>2019-08-17T15:18:34Z</time>
      </trkpt>
      <trkpt lat="47.15603" lon="5.88338">
        <ele>219.3</ele>
        <time>2019-08-17T15:18:35Z</time>
      </trkpt>
      <trkpt lat="47.156" lon="5.88339">
        <ele>219.3</ele>
        <time>2019-08-17T15:18:36Z</time>
      </trkpt>
      <trkpt lat="47.15596" lon="5.88339">
        <ele>219.3</ele>
        <time>2019-08-17T15:18:37Z</time>
      </trkpt>
      <trkpt lat="47.15593" lon="5.88339">
        <ele>219.3</ele>
        <time>2019-08-17T15:18:38Z</time>
      </trkpt>
      <trkpt lat="47.15589" lon="5.8834">
        <ele>219.3</ele>
        <time>2019-08-17T15:18:39Z</time>
      </trkpt>
      <trkpt lat="47.15586" lon="5.8834">
        <ele>219.3</ele>
        <time>2019-08-17T15:18:40Z</time>
      </trkpt>
      <trkpt lat="47.15584" lon="5.88341">
        <ele>219.3</ele>
        <time>2019-08-17T15:18:41Z</time>
      </trkpt>
      <trkpt lat="47.1558" lon="5.88341">
        <ele>219.3</ele>
        <time>2019-08-17T15:18:42Z</time>
      </trkpt>
      <trkpt lat="47.15576" lon="5.88341">
        <ele>219.4</ele>
        <time>2019-08-17T15:18:43Z</time>
      </trkpt>
      <trkpt lat="47.15573" lon="5.88341">
        <ele>219.4</ele>
        <time>2019-08-17T15:18:44Z</time>
      </trkpt>
      <trkpt lat="47.15569" lon="5.8834">
        <ele>219.4</ele>
        <time>2019-08-17T15:18:45Z</time>
      </trkpt>
      <trkpt lat="47.15565" lon="5.88338">
        <ele>219.5</ele>
        <time>2019-08-17T15:18:46Z</time>
      </trkpt>
      <trkpt lat="47.1556" lon="5.88337">
        <ele>219.5</ele>
        <time>2019-08-17T15:18:47Z</time>
      </trkpt>
      <trkpt lat="47.15557" lon="5.88336">
        <ele>219.6</ele>
        <time>2019-08-17T15:18:48Z</time>
      </trkpt>
      <trkpt lat="47.15554" lon="5.88335">
        <ele>219.6</ele>
        <time>2019-08-17T15:18:49Z</time>
      </trkpt>
      <trkpt lat="47.1555" lon="5.88334">
        <ele>219.6</ele>
        <time>2019-08-17T15:18:50Z</time>
      </trkpt>
      <trkpt lat="47.15546" lon="5.88334">
        <ele>219.7</ele>
        <time>2019-08-17T15:18:51Z</time>
      </trkpt>
      <trkpt lat="47.15542" lon="5.88333">
        <ele>219.7</ele>
        <time>2019-08-17T15:18:52Z</time>
      </trkpt>
      <trkpt lat="47.15535" lon="5.88328">
        <ele>219.8</ele>
        <time>2019-08-17T15:18:53Z</time>
      </trkpt>
      <trkpt lat="47.1553" lon="5.88327">
        <ele>219.8</ele>
        <time>2019-08-17T15:18:54Z</time>
      </trkpt>
      <trkpt lat="47.15525" lon="5.88327">
        <ele>219.9</ele>
        <time>2019-08-17T15:18:55Z</time>
      </trkpt>
      <trkpt lat="47.15519" lon="5.88328">
        <ele>219.9</ele>
        <time>2019-08-17T15:18:56Z</time>
      </trkpt>
      <trkpt lat="47.15513" lon="5.88329">
        <ele>220</ele>
        <time>2019-08-17T15:18:57Z</time>
      </trkpt>
      <trkpt lat="47.15507" lon="5.88331">
        <ele>220</ele>
        <time>2019-08-17T15:18:58Z</time>
      </trkpt>
      <trkpt lat="47.15502" lon="5.88332">
        <ele>220</ele>
        <time>2019-08-17T15:18:59Z</time>
      </trkpt>
      <trkpt lat="47.15497" lon="5.88332">
        <ele>220</ele>
        <time>2019-08-17T15:19:00Z</time>
      </trkpt>
      <trkpt lat="47.15492" lon="5.88333">
        <ele>220</ele>
        <time>2019-08-17T15:19:01Z</time>
      </trkpt>
      <trkpt lat="47.15488" lon="5.88332">
        <ele>220</ele>
        <time>2019-08-17T15:19:02Z</time>
      </trkpt>
      <trkpt lat="47.15484" lon="5.88331">
        <ele>220</ele>
        <time>2019-08-17T15:19:03Z</time>
      </trkpt>
      <trkpt lat="47.15479" lon="5.88331">
        <ele>220</ele>
        <time>2019-08-17T15:19:04Z</time>
      </trkpt>
      <trkpt lat="47.15475" lon="5.8833">
        <ele>220</ele>
        <time>2019-08-17T15:19:05Z</time>
      </trkpt>
      <trkpt lat="47.1547" lon="5.88329">
        <ele>220</ele>
        <time>2019-08-17T15:19:06Z</time>
      </trkpt>
      <trkpt lat="47.15467" lon="5.88328">
        <ele>219.9</ele>
        <time>2019-08-17T15:19:07Z</time>
      </trkpt>
      <trkpt lat="47.15464" lon="5.88329">
        <ele>219.9</ele>
        <time>2019-08-17T15:19:08Z</time>
      </trkpt>
      <trkpt lat="47.15458" lon="5.88328">
        <ele>219.9</ele>
        <time>2019-08-17T15:19:10Z</time>
      </trkpt>
      <trkpt lat="47.1545" lon="5.88329">
        <ele>219.7</ele>
        <time>2019-08-17T15:19:12Z</time>
      </trkpt>
      <trkpt lat="47.15446" lon="5.88329">
        <ele>219.7</ele>
        <time>2019-08-17T15:19:13Z</time>
      </trkpt>
      <trkpt lat="47.15442" lon="5.8833">
        <ele>219.6</ele>
        <time>2019-08-17T15:19:14Z</time>
      </trkpt>
      <trkpt lat="47.15438" lon="5.88331">
        <ele>219.6</ele>
        <time>2019-08-17T15:19:15Z</time>
      </trkpt>
      <trkpt lat="47.15434" lon="5.88332">
        <ele>219.5</ele>
        <time>2019-08-17T15:19:16Z</time>
      </trkpt>
      <trkpt lat="47.1543" lon="5.88332">
        <ele>219.5</ele>
        <time>2019-08-17T15:19:17Z</time>
      </trkpt>
      <trkpt lat="47.15426" lon="5.88332">
        <ele>219.5</ele>
        <time>2019-08-17T15:19:18Z</time>
      </trkpt>
      <trkpt lat="47.15422" lon="5.88333">
        <ele>219.4</ele>
        <time>2019-08-17T15:19:19Z</time>
      </trkpt>
      <trkpt lat="47.15417" lon="5.88333">
        <ele>219.4</ele>
        <time>2019-08-17T15:19:20Z</time>
      </trkpt>
      <trkpt lat="47.15414" lon="5.88333">
        <ele>219.4</ele>
        <time>2019-08-17T15:19:21Z</time>
      </trkpt>
      <trkpt lat="47.15408" lon="5.88332">
        <ele>219.4</ele>
        <time>2019-08-17T15:19:23Z</time>
      </trkpt>
      <trkpt lat="47.15402" lon="5.88331">
        <ele>219.3</ele>
        <time>2019-08-17T15:19:25Z</time>
      </trkpt>
      <trkpt lat="47.15399" lon="5.88331">
        <ele>219.3</ele>
        <time>2019-08-17T15:19:26Z</time>
      </trkpt>
      <trkpt lat="47.15395" lon="5.88332">
        <ele>219.3</ele>
        <time>2019-08-17T15:19:27Z</time>
      </trkpt>
      <trkpt lat="47.15391" lon="5.88333">
        <ele>219.3</ele>
        <time>2019-08-17T15:19:28Z</time>
      </trkpt>
      <trkpt lat="47.15387" lon="5.88333">
        <ele>219.3</ele>
        <time>2019-08-17T15:19:29Z</time>
      </trkpt>
      <trkpt lat="47.15383" lon="5.88333">
        <ele>219.3</ele>
        <time>2019-08-17T15:19:30Z</time>
      </trkpt>
      <trkpt lat="47.15378" lon="5.88333">
        <ele>219.3</ele>
        <time>2019-08-17T15:19:31Z</time>
      </trkpt>
      <trkpt lat="47.15374" lon="5.88333">
        <ele>219.3</ele>
        <time>2019-08-17T15:19:32Z</time>
      </trkpt>
      <trkpt lat="47.1537" lon="5.88334">
        <ele>219.3</ele>
        <time>2019-08-17T15:19:33Z</time>
      </trkpt>
      <trkpt lat="47.15364" lon="5.88336">
        <ele>219.3</ele>
        <time>2019-08-17T15:19:34Z</time>
      </trkpt>
      <trkpt lat="47.15359" lon="5.88337">
        <ele>219.3</ele>
        <time>2019-08-17T15:19:35Z</time>
      </trkpt>
      <trkpt lat="47.15355" lon="5.88338">
        <ele>219.3</ele>
        <time>2019-08-17T15:19:36Z</time>
      </trkpt>
      <trkpt lat="47.15352" lon="5.88338">
        <ele>219.2</ele>
        <time>2019-08-17T15:19:37Z</time>
      </trkpt>
      <trkpt lat="47.15349" lon="5.88338">
        <ele>219.2</ele>
        <time>2019-08-17T15:19:38Z</time>
      </trkpt>
      <trkpt lat="47.15345" lon="5.88338">
        <ele>219.2</ele>
        <time>2019-08-17T15:19:39Z</time>
      </trkpt>
      <trkpt lat="47.15341" lon="5.88337">
        <ele>219.2</ele>
        <time>2019-08-17T15:19:40Z</time>
      </trkpt>
      <trkpt lat="47.15337" lon="5.88336">
        <ele>219.1</ele>
        <time>2019-08-17T15:19:41Z</time>
      </trkpt>
      <trkpt lat="47.15335" lon="5.88336">
        <ele>219.1</ele>
        <time>2019-08-17T15:19:42Z</time>
      </trkpt>
      <trkpt lat="47.15331" lon="5.88336">
        <ele>219.1</ele>
        <time>2019-08-17T15:19:43Z</time>
      </trkpt>
      <trkpt lat="47.15326" lon="5.88336">
        <ele>219</ele>
        <time>2019-08-17T15:19:44Z</time>
      </trkpt>
      <trkpt lat="47.15322" lon="5.88336">
        <ele>218.9</ele>
        <time>2019-08-17T15:19:45Z</time>
      </trkpt>
      <trkpt lat="47.15318" lon="5.88334">
        <ele>218.9</ele>
        <time>2019-08-17T15:19:46Z</time>
      </trkpt>
      <trkpt lat="47.15314" lon="5.88334">
        <ele>218.8</ele>
        <time>2019-08-17T15:19:47Z</time>
      </trkpt>
      <trkpt lat="47.1531" lon="5.88333">
        <ele>218.8</ele>
        <time>2019-08-17T15:19:48Z</time>
      </trkpt>
      <trkpt lat="47.15306" lon="5.88332">
        <ele>218.8</ele>
        <time>2019-08-17T15:19:49Z</time>
      </trkpt>
      <trkpt lat="47.15302" lon="5.88332">
        <ele>218.7</ele>
        <time>2019-08-17T15:19:50Z</time>
      </trkpt>
      <trkpt lat="47.15298" lon="5.88331">
        <ele>218.7</ele>
        <time>2019-08-17T15:19:51Z</time>
      </trkpt>
      <trkpt lat="47.15293" lon="5.8833">
        <ele>218.7</ele>
        <time>2019-08-17T15:19:52Z</time>
      </trkpt>
      <trkpt lat="47.15288" lon="5.8833">
        <ele>218.9</ele>
        <time>2019-08-17T15:19:53Z</time>
      </trkpt>
      <trkpt lat="47.15283" lon="5.88331">
        <ele>219.2</ele>
        <time>2019-08-17T15:19:54Z</time>
      </trkpt>
      <trkpt lat="47.15278" lon="5.88332">
        <ele>219.5</ele>
        <time>2019-08-17T15:19:55Z</time>
      </trkpt>
      <trkpt lat="47.15274" lon="5.88333">
        <ele>219.7</ele>
        <time>2019-08-17T15:19:56Z</time>
      </trkpt>
      <trkpt lat="47.15269" lon="5.88333">
        <ele>219.9</ele>
        <time>2019-08-17T15:19:57Z</time>
      </trkpt>
      <trkpt lat="47.15265" lon="5.88335">
        <ele>220.1</ele>
        <time>2019-08-17T15:19:58Z</time>
      </trkpt>
      <trkpt lat="47.1526" lon="5.88336">
        <ele>220.3</ele>
        <time>2019-08-17T15:19:59Z</time>
      </trkpt>
      <trkpt lat="47.15256" lon="5.88337">
        <ele>220.5</ele>
        <time>2019-08-17T15:20:00Z</time>
      </trkpt>
      <trkpt lat="47.15252" lon="5.88339">
        <ele>220.7</ele>
        <time>2019-08-17T15:20:01Z</time>
      </trkpt>
      <trkpt lat="47.15249" lon="5.88341">
        <ele>220.8</ele>
        <time>2019-08-17T15:20:02Z</time>
      </trkpt>
      <trkpt lat="47.15245" lon="5.88342">
        <ele>220.9</ele>
        <time>2019-08-17T15:20:03Z</time>
      </trkpt>
      <trkpt lat="47.15241" lon="5.88343">
        <ele>221</ele>
        <time>2019-08-17T15:20:04Z</time>
      </trkpt>
      <trkpt lat="47.15237" lon="5.88344">
        <ele>221</ele>
        <time>2019-08-17T15:20:05Z</time>
      </trkpt>
      <trkpt lat="47.15233" lon="5.88344">
        <ele>221</ele>
        <time>2019-08-17T15:20:06Z</time>
      </trkpt>
      <trkpt lat="47.15229" lon="5.88344">
        <ele>221</ele>
        <time>2019-08-17T15:20:07Z</time>
      </trkpt>
      <trkpt lat="47.15225" lon="5.88344">
        <ele>221</ele>
        <time>2019-08-17T15:20:08Z</time>
      </trkpt>
      <trkpt lat="47.15221" lon="5.88343">
        <ele>220.9</ele>
        <time>2019-08-17T15:20:09Z</time>
      </trkpt>
      <trkpt lat="47.15217" lon="5.88343">
        <ele>220.8</ele>
        <time>2019-08-17T15:20:10Z</time>
      </trkpt>
      <trkpt lat="47.15212" lon="5.88343">
        <ele>220.7</ele>
        <time>2019-08-17T15:20:11Z</time>
      </trkpt>
      <trkpt lat="47.15207" lon="5.88342">
        <ele>220.6</ele>
        <time>2019-08-17T15:20:12Z</time>
      </trkpt>
      <trkpt lat="47.15203" lon="5.88342">
        <ele>220.5</ele>
        <time>2019-08-17T15:20:13Z</time>
      </trkpt>
      <trkpt lat="47.15198" lon="5.88341">
        <ele>220.4</ele>
        <time>2019-08-17T15:20:14Z</time>
      </trkpt>
      <trkpt lat="47.15193" lon="5.88341">
        <ele>220.3</ele>
        <time>2019-08-17T15:20:15Z</time>
      </trkpt>
      <trkpt lat="47.15188" lon="5.88341">
        <ele>220.3</ele>
        <time>2019-08-17T15:20:16Z</time>
      </trkpt>
      <trkpt lat="47.15184" lon="5.8834">
        <ele>220.3</ele>
        <time>2019-08-17T15:20:17Z</time>
      </trkpt>
      <trkpt lat="47.15181" lon="5.88339">
        <ele>220.3</ele>
        <time>2019-08-17T15:20:18Z</time>
      </trkpt>
      <trkpt lat="47.15177" lon="5.8834">
        <ele>220.3</ele>
        <time>2019-08-17T15:20:19Z</time>
      </trkpt>
      <trkpt lat="47.15174" lon="5.88339">
        <ele>220.4</ele>
        <time>2019-08-17T15:20:20Z</time>
      </trkpt>
      <trkpt lat="47.1517" lon="5.88339">
        <ele>220.4</ele>
        <time>2019-08-17T15:20:21Z</time>
      </trkpt>
      <trkpt lat="47.15167" lon="5.88338">
        <ele>220.5</ele>
        <time>2019-08-17T15:20:22Z</time>
      </trkpt>
      <trkpt lat="47.15163" lon="5.88338">
        <ele>220.6</ele>
        <time>2019-08-17T15:20:23Z</time>
      </trkpt>
      <trkpt lat="47.15159" lon="5.88338">
        <ele>220.7</ele>
        <time>2019-08-17T15:20:24Z</time>
      </trkpt>
      <trkpt lat="47.15156" lon="5.88338">
        <ele>220.8</ele>
        <time>2019-08-17T15:20:25Z</time>
      </trkpt>
      <trkpt lat="47.15152" lon="5.88337">
        <ele>220.9</ele>
        <time>2019-08-17T15:20:26Z</time>
      </trkpt>
      <trkpt lat="47.15147" lon="5.88337">
        <ele>221</ele>
        <time>2019-08-17T15:20:28Z</time>
      </trkpt>
      <trkpt lat="47.15143" lon="5.88337">
        <ele>221.1</ele>
        <time>2019-08-17T15:20:29Z</time>
      </trkpt>
      <trkpt lat="47.15141" lon="5.88336">
        <ele>221.2</ele>
        <time>2019-08-17T15:20:30Z</time>
      </trkpt>
      <trkpt lat="47.15137" lon="5.88335">
        <ele>221.2</ele>
        <time>2019-08-17T15:20:31Z</time>
      </trkpt>
      <trkpt lat="47.15132" lon="5.88335">
        <ele>221.3</ele>
        <time>2019-08-17T15:20:32Z</time>
      </trkpt>
      <trkpt lat="47.15127" lon="5.88334">
        <ele>221.3</ele>
        <time>2019-08-17T15:20:33Z</time>
      </trkpt>
      <trkpt lat="47.15123" lon="5.88334">
        <ele>221.4</ele>
        <time>2019-08-17T15:20:34Z</time>
      </trkpt>
      <trkpt lat="47.15118" lon="5.88333">
        <ele>221.4</ele>
        <time>2019-08-17T15:20:35Z</time>
      </trkpt>
      <trkpt lat="47.15113" lon="5.88333">
        <ele>221.4</ele>
        <time>2019-08-17T15:20:36Z</time>
      </trkpt>
      <trkpt lat="47.15109" lon="5.88333">
        <ele>221.4</ele>
        <time>2019-08-17T15:20:37Z</time>
      </trkpt>
      <trkpt lat="47.15105" lon="5.88333">
        <ele>221.5</ele>
        <time>2019-08-17T15:20:38Z</time>
      </trkpt>
      <trkpt lat="47.15101" lon="5.88333">
        <ele>221.5</ele>
        <time>2019-08-17T15:20:39Z</time>
      </trkpt>
      <trkpt lat="47.15097" lon="5.88332">
        <ele>221.5</ele>
        <time>2019-08-17T15:20:40Z</time>
      </trkpt>
      <trkpt lat="47.15092" lon="5.88332">
        <ele>221.6</ele>
        <time>2019-08-17T15:20:41Z</time>
      </trkpt>
      <trkpt lat="47.15087" lon="5.88331">
        <ele>221.7</ele>
        <time>2019-08-17T15:20:42Z</time>
      </trkpt>
      <trkpt lat="47.15083" lon="5.8833">
        <ele>221.8</ele>
        <time>2019-08-17T15:20:43Z</time>
      </trkpt>
      <trkpt lat="47.15078" lon="5.8833">
        <ele>221.9</ele>
        <time>2019-08-17T15:20:44Z</time>
      </trkpt>
      <trkpt lat="47.15074" lon="5.8833">
        <ele>222</ele>
        <time>2019-08-17T15:20:45Z</time>
      </trkpt>
      <trkpt lat="47.1507" lon="5.88329">
        <ele>222.1</ele>
        <time>2019-08-17T15:20:46Z</time>
      </trkpt>
      <trkpt lat="47.15065" lon="5.88329">
        <ele>222.2</ele>
        <time>2019-08-17T15:20:47Z</time>
      </trkpt>
      <trkpt lat="47.15061" lon="5.8833">
        <ele>222.2</ele>
        <time>2019-08-17T15:20:48Z</time>
      </trkpt>
      <trkpt lat="47.15057" lon="5.8833">
        <ele>222.1</ele>
        <time>2019-08-17T15:20:49Z</time>
      </trkpt>
      <trkpt lat="47.15052" lon="5.8833">
        <ele>222.1</ele>
        <time>2019-08-17T15:20:50Z</time>
      </trkpt>
      <trkpt lat="47.15047" lon="5.8833">
        <ele>222</ele>
        <time>2019-08-17T15:20:51Z</time>
      </trkpt>
      <trkpt lat="47.15043" lon="5.88329">
        <ele>222</ele>
        <time>2019-08-17T15:20:52Z</time>
      </trkpt>
      <trkpt lat="47.15038" lon="5.88328">
        <ele>221.9</ele>
        <time>2019-08-17T15:20:53Z</time>
      </trkpt>
      <trkpt lat="47.15033" lon="5.88326">
        <ele>221.9</ele>
        <time>2019-08-17T15:20:54Z</time>
      </trkpt>
      <trkpt lat="47.15027" lon="5.88326">
        <ele>221.9</ele>
        <time>2019-08-17T15:20:55Z</time>
      </trkpt>
      <trkpt lat="47.15022" lon="5.88326">
        <ele>221.9</ele>
        <time>2019-08-17T15:20:56Z</time>
      </trkpt>
      <trkpt lat="47.15017" lon="5.88324">
        <ele>222</ele>
        <time>2019-08-17T15:20:57Z</time>
      </trkpt>
      <trkpt lat="47.15013" lon="5.88323">
        <ele>222.1</ele>
        <time>2019-08-17T15:20:58Z</time>
      </trkpt>
      <trkpt lat="47.1501" lon="5.88322">
        <ele>222.2</ele>
        <time>2019-08-17T15:20:59Z</time>
      </trkpt>
      <trkpt lat="47.15006" lon="5.88321">
        <ele>222.4</ele>
        <time>2019-08-17T15:21:00Z</time>
      </trkpt>
      <trkpt lat="47.15002" lon="5.8832">
        <ele>222.6</ele>
        <time>2019-08-17T15:21:01Z</time>
      </trkpt>
      <trkpt lat="47.14998" lon="5.88319">
        <ele>222.8</ele>
        <time>2019-08-17T15:21:02Z</time>
      </trkpt>
      <trkpt lat="47.14994" lon="5.88318">
        <ele>223.1</ele>
        <time>2019-08-17T15:21:03Z</time>
      </trkpt>
      <trkpt lat="47.14989" lon="5.88318">
        <ele>223.3</ele>
        <time>2019-08-17T15:21:04Z</time>
      </trkpt>
      <trkpt lat="47.14985" lon="5.88317">
        <ele>223.5</ele>
        <time>2019-08-17T15:21:05Z</time>
      </trkpt>
      <trkpt lat="47.1498" lon="5.88317">
        <ele>223.7</ele>
        <time>2019-08-17T15:21:06Z</time>
      </trkpt>
      <trkpt lat="47.14976" lon="5.88316">
        <ele>223.9</ele>
        <time>2019-08-17T15:21:07Z</time>
      </trkpt>
      <trkpt lat="47.14971" lon="5.88316">
        <ele>224</ele>
        <time>2019-08-17T15:21:08Z</time>
      </trkpt>
      <trkpt lat="47.14966" lon="5.88316">
        <ele>224.1</ele>
        <time>2019-08-17T15:21:09Z</time>
      </trkpt>
      <trkpt lat="47.14962" lon="5.88316">
        <ele>224.2</ele>
        <time>2019-08-17T15:21:10Z</time>
      </trkpt>
      <trkpt lat="47.14958" lon="5.88317">
        <ele>224.2</ele>
        <time>2019-08-17T15:21:11Z</time>
      </trkpt>
      <trkpt lat="47.14953" lon="5.88318">
        <ele>224.2</ele>
        <time>2019-08-17T15:21:12Z</time>
      </trkpt>
      <trkpt lat="47.14948" lon="5.88318">
        <ele>224.3</ele>
        <time>2019-08-17T15:21:13Z</time>
      </trkpt>
      <trkpt lat="47.14943" lon="5.88319">
        <ele>224.3</ele>
        <time>2019-08-17T15:21:14Z</time>
      </trkpt>
      <trkpt lat="47.14939" lon="5.8832">
        <ele>224.3</ele>
        <time>2019-08-17T15:21:15Z</time>
      </trkpt>
      <trkpt lat="47.14934" lon="5.8832">
        <ele>224.3</ele>
        <time>2019-08-17T15:21:16Z</time>
      </trkpt>
      <trkpt lat="47.1493" lon="5.8832">
        <ele>224.3</ele>
        <time>2019-08-17T15:21:17Z</time>
      </trkpt>
      <trkpt lat="47.14925" lon="5.8832">
        <ele>224.3</ele>
        <time>2019-08-17T15:21:18Z</time>
      </trkpt>
      <trkpt lat="47.14921" lon="5.8832">
        <ele>224.4</ele>
        <time>2019-08-17T15:21:19Z</time>
      </trkpt>
      <trkpt lat="47.14916" lon="5.8832">
        <ele>224.4</ele>
        <time>2019-08-17T15:21:20Z</time>
      </trkpt>
      <trkpt lat="47.14912" lon="5.88319">
        <ele>224.4</ele>
        <time>2019-08-17T15:21:21Z</time>
      </trkpt>
      <trkpt lat="47.14907" lon="5.88318">
        <ele>224.5</ele>
        <time>2019-08-17T15:21:22Z</time>
      </trkpt>
      <trkpt lat="47.14903" lon="5.88317">
        <ele>224.5</ele>
        <time>2019-08-17T15:21:23Z</time>
      </trkpt>
      <trkpt lat="47.14898" lon="5.88317">
        <ele>224.6</ele>
        <time>2019-08-17T15:21:24Z</time>
      </trkpt>
      <trkpt lat="47.14893" lon="5.88317">
        <ele>224.7</ele>
        <time>2019-08-17T15:21:25Z</time>
      </trkpt>
      <trkpt lat="47.14888" lon="5.88318">
        <ele>224.8</ele>
        <time>2019-08-17T15:21:26Z</time>
      </trkpt>
      <trkpt lat="47.14883" lon="5.88318">
        <ele>224.9</ele>
        <time>2019-08-17T15:21:27Z</time>
      </trkpt>
      <trkpt lat="47.14879" lon="5.88318">
        <ele>225.1</ele>
        <time>2019-08-17T15:21:28Z</time>
      </trkpt>
      <trkpt lat="47.14875" lon="5.88318">
        <ele>225.2</ele>
        <time>2019-08-17T15:21:29Z</time>
      </trkpt>
      <trkpt lat="47.1487" lon="5.88318">
        <ele>225.3</ele>
        <time>2019-08-17T15:21:30Z</time>
      </trkpt>
      <trkpt lat="47.14865" lon="5.88318">
        <ele>225.4</ele>
        <time>2019-08-17T15:21:31Z</time>
      </trkpt>
      <trkpt lat="47.14861" lon="5.88318">
        <ele>225.5</ele>
        <time>2019-08-17T15:21:32Z</time>
      </trkpt>
      <trkpt lat="47.14856" lon="5.88317">
        <ele>225.6</ele>
        <time>2019-08-17T15:21:33Z</time>
      </trkpt>
      <trkpt lat="47.14851" lon="5.88317">
        <ele>225.6</ele>
        <time>2019-08-17T15:21:34Z</time>
      </trkpt>
      <trkpt lat="47.14846" lon="5.88315">
        <ele>225.6</ele>
        <time>2019-08-17T15:21:35Z</time>
      </trkpt>
      <trkpt lat="47.14841" lon="5.88314">
        <ele>225.6</ele>
        <time>2019-08-17T15:21:36Z</time>
      </trkpt>
      <trkpt lat="47.14837" lon="5.88314">
        <ele>225.6</ele>
        <time>2019-08-17T15:21:37Z</time>
      </trkpt>
      <trkpt lat="47.14832" lon="5.88312">
        <ele>225.5</ele>
        <time>2019-08-17T15:21:38Z</time>
      </trkpt>
      <trkpt lat="47.14827" lon="5.88311">
        <ele>225.4</ele>
        <time>2019-08-17T15:21:39Z</time>
      </trkpt>
      <trkpt lat="47.14822" lon="5.8831">
        <ele>225.4</ele>
        <time>2019-08-17T15:21:40Z</time>
      </trkpt>
      <trkpt lat="47.14818" lon="5.88308">
        <ele>225.3</ele>
        <time>2019-08-17T15:21:41Z</time>
      </trkpt>
      <trkpt lat="47.14813" lon="5.88305">
        <ele>225.3</ele>
        <time>2019-08-17T15:21:42Z</time>
      </trkpt>
      <trkpt lat="47.14809" lon="5.88303">
        <ele>225.3</ele>
        <time>2019-08-17T15:21:43Z</time>
      </trkpt>
      <trkpt lat="47.14804" lon="5.883">
        <ele>225.2</ele>
        <time>2019-08-17T15:21:44Z</time>
      </trkpt>
      <trkpt lat="47.148" lon="5.88298">
        <ele>225.3</ele>
        <time>2019-08-17T15:21:45Z</time>
      </trkpt>
      <trkpt lat="47.14796" lon="5.88295">
        <ele>225.3</ele>
        <time>2019-08-17T15:21:46Z</time>
      </trkpt>
      <trkpt lat="47.14792" lon="5.88292">
        <ele>225.4</ele>
        <time>2019-08-17T15:21:47Z</time>
      </trkpt>
      <trkpt lat="47.14788" lon="5.88289">
        <ele>225.5</ele>
        <time>2019-08-17T15:21:48Z</time>
      </trkpt>
      <trkpt lat="47.14784" lon="5.88285">
        <ele>225.6</ele>
        <time>2019-08-17T15:21:49Z</time>
      </trkpt>
      <trkpt lat="47.1478" lon="5.88282">
        <ele>225.7</ele>
        <time>2019-08-17T15:21:50Z</time>
      </trkpt>
      <trkpt lat="47.14776" lon="5.88277">
        <ele>225.7</ele>
        <time>2019-08-17T15:21:51Z</time>
      </trkpt>
      <trkpt lat="47.14772" lon="5.88274">
        <ele>225.7</ele>
        <time>2019-08-17T15:21:52Z</time>
      </trkpt>
      <trkpt lat="47.14767" lon="5.8827">
        <ele>225.6</ele>
        <time>2019-08-17T15:21:53Z</time>
      </trkpt>
      <trkpt lat="47.14763" lon="5.88265">
        <ele>225.5</ele>
        <time>2019-08-17T15:21:54Z</time>
      </trkpt>
      <trkpt lat="47.14759" lon="5.88262">
        <ele>225.3</ele>
        <time>2019-08-17T15:21:55Z</time>
      </trkpt>
      <trkpt lat="47.14756" lon="5.88259">
        <ele>225.1</ele>
        <time>2019-08-17T15:21:56Z</time>
      </trkpt>
      <trkpt lat="47.14753" lon="5.88257">
        <ele>224.8</ele>
        <time>2019-08-17T15:21:57Z</time>
      </trkpt>
      <trkpt lat="47.1475" lon="5.88253">
        <ele>224.4</ele>
        <time>2019-08-17T15:21:58Z</time>
      </trkpt>
      <trkpt lat="47.14747" lon="5.8825">
        <ele>224.1</ele>
        <time>2019-08-17T15:21:59Z</time>
      </trkpt>
      <trkpt lat="47.14744" lon="5.88247">
        <ele>223.6</ele>
        <time>2019-08-17T15:22:00Z</time>
      </trkpt>
      <trkpt lat="47.1474" lon="5.88244">
        <ele>223.2</ele>
        <time>2019-08-17T15:22:01Z</time>
      </trkpt>
      <trkpt lat="47.14737" lon="5.88242">
        <ele>222.8</ele>
        <time>2019-08-17T15:22:02Z</time>
      </trkpt>
      <trkpt lat="47.14733" lon="5.88239">
        <ele>222.3</ele>
        <time>2019-08-17T15:22:03Z</time>
      </trkpt>
      <trkpt lat="47.14729" lon="5.88235">
        <ele>221.8</ele>
        <time>2019-08-17T15:22:04Z</time>
      </trkpt>
      <trkpt lat="47.14726" lon="5.88232">
        <ele>221.5</ele>
        <time>2019-08-17T15:22:05Z</time>
      </trkpt>
      <trkpt lat="47.14722" lon="5.88228">
        <ele>221.1</ele>
        <time>2019-08-17T15:22:06Z</time>
      </trkpt>
      <trkpt lat="47.14718" lon="5.88224">
        <ele>220.8</ele>
        <time>2019-08-17T15:22:07Z</time>
      </trkpt>
      <trkpt lat="47.14713" lon="5.88221">
        <ele>220.5</ele>
        <time>2019-08-17T15:22:08Z</time>
      </trkpt>
      <trkpt lat="47.14709" lon="5.88218">
        <ele>220.3</ele>
        <time>2019-08-17T15:22:09Z</time>
      </trkpt>
      <trkpt lat="47.14704" lon="5.88214">
        <ele>220.2</ele>
        <time>2019-08-17T15:22:10Z</time>
      </trkpt>
      <trkpt lat="47.147" lon="5.88211">
        <ele>220.1</ele>
        <time>2019-08-17T15:22:11Z</time>
      </trkpt>
      <trkpt lat="47.14696" lon="5.88208">
        <ele>220.1</ele>
        <time>2019-08-17T15:22:12Z</time>
      </trkpt>
      <trkpt lat="47.14692" lon="5.88205">
        <ele>220.1</ele>
        <time>2019-08-17T15:22:13Z</time>
      </trkpt>
      <trkpt lat="47.14688" lon="5.88203">
        <ele>220.1</ele>
        <time>2019-08-17T15:22:14Z</time>
      </trkpt>
      <trkpt lat="47.14684" lon="5.88199">
        <ele>220.2</ele>
        <time>2019-08-17T15:22:15Z</time>
      </trkpt>
      <trkpt lat="47.1468" lon="5.88196">
        <ele>220.4</ele>
        <time>2019-08-17T15:22:16Z</time>
      </trkpt>
      <trkpt lat="47.14676" lon="5.88192">
        <ele>220.6</ele>
        <time>2019-08-17T15:22:17Z</time>
      </trkpt>
      <trkpt lat="47.14672" lon="5.88188">
        <ele>220.8</ele>
        <time>2019-08-17T15:22:18Z</time>
      </trkpt>
      <trkpt lat="47.14668" lon="5.88185">
        <ele>221</ele>
        <time>2019-08-17T15:22:19Z</time>
      </trkpt>
      <trkpt lat="47.14665" lon="5.8818">
        <ele>221.3</ele>
        <time>2019-08-17T15:22:20Z</time>
      </trkpt>
      <trkpt lat="47.14661" lon="5.88176">
        <ele>221.5</ele>
        <time>2019-08-17T15:22:21Z</time>
      </trkpt>
      <trkpt lat="47.14657" lon="5.88172">
        <ele>221.8</ele>
        <time>2019-08-17T15:22:22Z</time>
      </trkpt>
      <trkpt lat="47.14654" lon="5.88167">
        <ele>222.1</ele>
        <time>2019-08-17T15:22:23Z</time>
      </trkpt>
      <trkpt lat="47.1465" lon="5.88161">
        <ele>222.4</ele>
        <time>2019-08-17T15:22:24Z</time>
      </trkpt>
      <trkpt lat="47.14646" lon="5.88157">
        <ele>222.7</ele>
        <time>2019-08-17T15:22:25Z</time>
      </trkpt>
      <trkpt lat="47.14643" lon="5.88153">
        <ele>222.9</ele>
        <time>2019-08-17T15:22:26Z</time>
      </trkpt>
      <trkpt lat="47.14639" lon="5.8815">
        <ele>223.1</ele>
        <time>2019-08-17T15:22:27Z</time>
      </trkpt>
      <trkpt lat="47.14635" lon="5.88147">
        <ele>223.3</ele>
        <time>2019-08-17T15:22:28Z</time>
      </trkpt>
      <trkpt lat="47.14631" lon="5.88143">
        <ele>223.4</ele>
        <time>2019-08-17T15:22:29Z</time>
      </trkpt>
      <trkpt lat="47.14627" lon="5.88139">
        <ele>223.5</ele>
        <time>2019-08-17T15:22:30Z</time>
      </trkpt>
      <trkpt lat="47.14624" lon="5.88135">
        <ele>223.5</ele>
        <time>2019-08-17T15:22:31Z</time>
      </trkpt>
      <trkpt lat="47.1462" lon="5.88132">
        <ele>223.6</ele>
        <time>2019-08-17T15:22:32Z</time>
      </trkpt>
      <trkpt lat="47.14617" lon="5.88129">
        <ele>223.6</ele>
        <time>2019-08-17T15:22:33Z</time>
      </trkpt>
      <trkpt lat="47.14613" lon="5.88126">
        <ele>223.6</ele>
        <time>2019-08-17T15:22:34Z</time>
      </trkpt>
      <trkpt lat="47.14609" lon="5.88122">
        <ele>223.6</ele>
        <time>2019-08-17T15:22:35Z</time>
      </trkpt>
      <trkpt lat="47.14606" lon="5.88118">
        <ele>223.7</ele>
        <time>2019-08-17T15:22:36Z</time>
      </trkpt>
      <trkpt lat="47.14602" lon="5.88115">
        <ele>223.7</ele>
        <time>2019-08-17T15:22:37Z</time>
      </trkpt>
      <trkpt lat="47.14597" lon="5.88111">
        <ele>223.7</ele>
        <time>2019-08-17T15:22:38Z</time>
      </trkpt>
      <trkpt lat="47.14593" lon="5.88107">
        <ele>223.8</ele>
        <time>2019-08-17T15:22:39Z</time>
      </trkpt>
      <trkpt lat="47.14589" lon="5.88104">
        <ele>223.8</ele>
        <time>2019-08-17T15:22:40Z</time>
      </trkpt>
      <trkpt lat="47.14584" lon="5.88101">
        <ele>223.9</ele>
        <time>2019-08-17T15:22:41Z</time>
      </trkpt>
      <trkpt lat="47.1458" lon="5.88098">
        <ele>223.9</ele>
        <time>2019-08-17T15:22:42Z</time>
      </trkpt>
      <trkpt lat="47.14576" lon="5.88095">
        <ele>224</ele>
        <time>2019-08-17T15:22:43Z</time>
      </trkpt>
      <trkpt lat="47.14572" lon="5.88092">
        <ele>224.1</ele>
        <time>2019-08-17T15:22:44Z</time>
      </trkpt>
      <trkpt lat="47.14568" lon="5.88088">
        <ele>224.2</ele>
        <time>2019-08-17T15:22:45Z</time>
      </trkpt>
      <trkpt lat="47.14564" lon="5.88085">
        <ele>224.3</ele>
        <time>2019-08-17T15:22:46Z</time>
      </trkpt>
      <trkpt lat="47.1456" lon="5.88082">
        <ele>224.4</ele>
        <time>2019-08-17T15:22:47Z</time>
      </trkpt>
      <trkpt lat="47.14556" lon="5.88078">
        <ele>224.5</ele>
        <time>2019-08-17T15:22:48Z</time>
      </trkpt>
      <trkpt lat="47.14553" lon="5.88075">
        <ele>224.7</ele>
        <time>2019-08-17T15:22:49Z</time>
      </trkpt>
      <trkpt lat="47.1455" lon="5.88072">
        <ele>224.8</ele>
        <time>2019-08-17T15:22:50Z</time>
      </trkpt>
      <trkpt lat="47.14546" lon="5.8807">
        <ele>224.9</ele>
        <time>2019-08-17T15:22:51Z</time>
      </trkpt>
      <trkpt lat="47.14543" lon="5.88065">
        <ele>225.1</ele>
        <time>2019-08-17T15:22:52Z</time>
      </trkpt>
      <trkpt lat="47.14539" lon="5.88062">
        <ele>225.2</ele>
        <time>2019-08-17T15:22:53Z</time>
      </trkpt>
      <trkpt lat="47.14535" lon="5.88058">
        <ele>225.3</ele>
        <time>2019-08-17T15:22:54Z</time>
      </trkpt>
      <trkpt lat="47.14532" lon="5.88054">
        <ele>225.5</ele>
        <time>2019-08-17T15:22:55Z</time>
      </trkpt>
      <trkpt lat="47.14528" lon="5.8805">
        <ele>225.6</ele>
        <time>2019-08-17T15:22:56Z</time>
      </trkpt>
      <trkpt lat="47.14525" lon="5.88047">
        <ele>225.7</ele>
        <time>2019-08-17T15:22:57Z</time>
      </trkpt>
      <trkpt lat="47.14521" lon="5.88045">
        <ele>225.8</ele>
        <time>2019-08-17T15:22:58Z</time>
      </trkpt>
      <trkpt lat="47.14518" lon="5.88039">
        <ele>225.9</ele>
        <time>2019-08-17T15:22:59Z</time>
      </trkpt>
      <trkpt lat="47.14514" lon="5.88035">
        <ele>226</ele>
        <time>2019-08-17T15:23:00Z</time>
      </trkpt>
      <trkpt lat="47.1451" lon="5.88032">
        <ele>226</ele>
        <time>2019-08-17T15:23:01Z</time>
      </trkpt>
      <trkpt lat="47.14506" lon="5.88027">
        <ele>226.1</ele>
        <time>2019-08-17T15:23:02Z</time>
      </trkpt>
      <trkpt lat="47.14502" lon="5.88023">
        <ele>226.2</ele>
        <time>2019-08-17T15:23:03Z</time>
      </trkpt>
      <trkpt lat="47.14499" lon="5.88018">
        <ele>226.3</ele>
        <time>2019-08-17T15:23:04Z</time>
      </trkpt>
      <trkpt lat="47.14495" lon="5.88013">
        <ele>226.3</ele>
        <time>2019-08-17T15:23:05Z</time>
      </trkpt>
      <trkpt lat="47.14492" lon="5.88008">
        <ele>226.4</ele>
        <time>2019-08-17T15:23:06Z</time>
      </trkpt>
      <trkpt lat="47.14489" lon="5.88004">
        <ele>226.5</ele>
        <time>2019-08-17T15:23:07Z</time>
      </trkpt>
      <trkpt lat="47.14486" lon="5.88">
        <ele>226.5</ele>
        <time>2019-08-17T15:23:08Z</time>
      </trkpt>
      <trkpt lat="47.14484" lon="5.87995">
        <ele>226.6</ele>
        <time>2019-08-17T15:23:09Z</time>
      </trkpt>
      <trkpt lat="47.14481" lon="5.8799">
        <ele>226.6</ele>
        <time>2019-08-17T15:23:10Z</time>
      </trkpt>
      <trkpt lat="47.14479" lon="5.87985">
        <ele>226.7</ele>
        <time>2019-08-17T15:23:11Z</time>
      </trkpt>
      <trkpt lat="47.14477" lon="5.8798">
        <ele>226.7</ele>
        <time>2019-08-17T15:23:12Z</time>
      </trkpt>
      <trkpt lat="47.14474" lon="5.87975">
        <ele>226.7</ele>
        <time>2019-08-17T15:23:13Z</time>
      </trkpt>
      <trkpt lat="47.14473" lon="5.8797">
        <ele>226.8</ele>
        <time>2019-08-17T15:23:14Z</time>
      </trkpt>
      <trkpt lat="47.14472" lon="5.87965">
        <ele>226.8</ele>
        <time>2019-08-17T15:23:15Z</time>
      </trkpt>
      <trkpt lat="47.1447" lon="5.8796">
        <ele>226.8</ele>
        <time>2019-08-17T15:23:16Z</time>
      </trkpt>
      <trkpt lat="47.14468" lon="5.87955">
        <ele>226.9</ele>
        <time>2019-08-17T15:23:17Z</time>
      </trkpt>
      <trkpt lat="47.14466" lon="5.8795">
        <ele>226.9</ele>
        <time>2019-08-17T15:23:18Z</time>
      </trkpt>
      <trkpt lat="47.14464" lon="5.87944">
        <ele>226.9</ele>
        <time>2019-08-17T15:23:19Z</time>
      </trkpt>
      <trkpt lat="47.14462" lon="5.87939">
        <ele>227</ele>
        <time>2019-08-17T15:23:20Z</time>
      </trkpt>
      <trkpt lat="47.1446" lon="5.87934">
        <ele>227.1</ele>
        <time>2019-08-17T15:23:21Z</time>
      </trkpt>
      <trkpt lat="47.14458" lon="5.87929">
        <ele>227.2</ele>
        <time>2019-08-17T15:23:22Z</time>
      </trkpt>
      <trkpt lat="47.14456" lon="5.87924">
        <ele>227.3</ele>
        <time>2019-08-17T15:23:23Z</time>
      </trkpt>
      <trkpt lat="47.14454" lon="5.87918">
        <ele>227.4</ele>
        <time>2019-08-17T15:23:24Z</time>
      </trkpt>
      <trkpt lat="47.14452" lon="5.87912">
        <ele>227.6</ele>
        <time>2019-08-17T15:23:25Z</time>
      </trkpt>
      <trkpt lat="47.1445" lon="5.87906">
        <ele>227.8</ele>
        <time>2019-08-17T15:23:26Z</time>
      </trkpt>
      <trkpt lat="47.14449" lon="5.87901">
        <ele>227.9</ele>
        <time>2019-08-17T15:23:27Z</time>
      </trkpt>
      <trkpt lat="47.14447" lon="5.87895">
        <ele>228.1</ele>
        <time>2019-08-17T15:23:28Z</time>
      </trkpt>
      <trkpt lat="47.14445" lon="5.87889">
        <ele>228.2</ele>
        <time>2019-08-17T15:23:29Z</time>
      </trkpt>
      <trkpt lat="47.14443" lon="5.87883">
        <ele>228.3</ele>
        <time>2019-08-17T15:23:30Z</time>
      </trkpt>
      <trkpt lat="47.1444" lon="5.87878">
        <ele>228.3</ele>
        <time>2019-08-17T15:23:31Z</time>
      </trkpt>
      <trkpt lat="47.14438" lon="5.87873">
        <ele>228.4</ele>
        <time>2019-08-17T15:23:32Z</time>
      </trkpt>
      <trkpt lat="47.14435" lon="5.87868">
        <ele>228.4</ele>
        <time>2019-08-17T15:23:33Z</time>
      </trkpt>
      <trkpt lat="47.14433" lon="5.87863">
        <ele>228.4</ele>
        <time>2019-08-17T15:23:34Z</time>
      </trkpt>
      <trkpt lat="47.14431" lon="5.87858">
        <ele>228.4</ele>
        <time>2019-08-17T15:23:35Z</time>
      </trkpt>
      <trkpt lat="47.14428" lon="5.87853">
        <ele>228.5</ele>
        <time>2019-08-17T15:23:36Z</time>
      </trkpt>
      <trkpt lat="47.14425" lon="5.87848">
        <ele>228.5</ele>
        <time>2019-08-17T15:23:37Z</time>
      </trkpt>
      <trkpt lat="47.14422" lon="5.87842">
        <ele>228.6</ele>
        <time>2019-08-17T15:23:38Z</time>
      </trkpt>
      <trkpt lat="47.14419" lon="5.87836">
        <ele>228.7</ele>
        <time>2019-08-17T15:23:39Z</time>
      </trkpt>
      <trkpt lat="47.14417" lon="5.8783">
        <ele>228.8</ele>
        <time>2019-08-17T15:23:40Z</time>
      </trkpt>
      <trkpt lat="47.14414" lon="5.87824">
        <ele>228.9</ele>
        <time>2019-08-17T15:23:41Z</time>
      </trkpt>
      <trkpt lat="47.14411" lon="5.87818">
        <ele>229</ele>
        <time>2019-08-17T15:23:42Z</time>
      </trkpt>
      <trkpt lat="47.14408" lon="5.87812">
        <ele>229.1</ele>
        <time>2019-08-17T15:23:43Z</time>
      </trkpt>
      <trkpt lat="47.14406" lon="5.87805">
        <ele>229.2</ele>
        <time>2019-08-17T15:23:44Z</time>
      </trkpt>
      <trkpt lat="47.14403" lon="5.87799">
        <ele>229.3</ele>
        <time>2019-08-17T15:23:45Z</time>
      </trkpt>
      <trkpt lat="47.144" lon="5.87793">
        <ele>229.3</ele>
        <time>2019-08-17T15:23:46Z</time>
      </trkpt>
      <trkpt lat="47.14396" lon="5.87786">
        <ele>229.4</ele>
        <time>2019-08-17T15:23:47Z</time>
      </trkpt>
      <trkpt lat="47.14394" lon="5.87781">
        <ele>229.4</ele>
        <time>2019-08-17T15:23:48Z</time>
      </trkpt>
      <trkpt lat="47.14391" lon="5.87777">
        <ele>229.4</ele>
        <time>2019-08-17T15:23:49Z</time>
      </trkpt>
      <trkpt lat="47.14389" lon="5.87772">
        <ele>229.5</ele>
        <time>2019-08-17T15:23:50Z</time>
      </trkpt>
      <trkpt lat="47.14386" lon="5.87766">
        <ele>229.5</ele>
        <time>2019-08-17T15:23:51Z</time>
      </trkpt>
      <trkpt lat="47.14384" lon="5.8776">
        <ele>229.6</ele>
        <time>2019-08-17T15:23:52Z</time>
      </trkpt>
      <trkpt lat="47.14382" lon="5.87754">
        <ele>229.6</ele>
        <time>2019-08-17T15:23:53Z</time>
      </trkpt>
      <trkpt lat="47.14379" lon="5.87748">
        <ele>229.6</ele>
        <time>2019-08-17T15:23:54Z</time>
      </trkpt>
      <trkpt lat="47.14377" lon="5.87742">
        <ele>229.7</ele>
        <time>2019-08-17T15:23:55Z</time>
      </trkpt>
      <trkpt lat="47.14374" lon="5.87737">
        <ele>229.7</ele>
        <time>2019-08-17T15:23:56Z</time>
      </trkpt>
      <trkpt lat="47.14371" lon="5.8773">
        <ele>229.8</ele>
        <time>2019-08-17T15:23:57Z</time>
      </trkpt>
      <trkpt lat="47.14368" lon="5.87723">
        <ele>229.8</ele>
        <time>2019-08-17T15:23:58Z</time>
      </trkpt>
      <trkpt lat="47.14365" lon="5.87716">
        <ele>229.8</ele>
        <time>2019-08-17T15:23:59Z</time>
      </trkpt>
      <trkpt lat="47.14363" lon="5.8771">
        <ele>229.7</ele>
        <time>2019-08-17T15:24:00Z</time>
      </trkpt>
      <trkpt lat="47.14361" lon="5.87703">
        <ele>229.7</ele>
        <time>2019-08-17T15:24:01Z</time>
      </trkpt>
      <trkpt lat="47.14359" lon="5.87698">
        <ele>229.7</ele>
        <time>2019-08-17T15:24:02Z</time>
      </trkpt>
      <trkpt lat="47.14357" lon="5.87692">
        <ele>229.7</ele>
        <time>2019-08-17T15:24:03Z</time>
      </trkpt>
      <trkpt lat="47.14355" lon="5.87686">
        <ele>229.8</ele>
        <time>2019-08-17T15:24:04Z</time>
      </trkpt>
      <trkpt lat="47.14353" lon="5.87681">
        <ele>229.8</ele>
        <time>2019-08-17T15:24:05Z</time>
      </trkpt>
      <trkpt lat="47.14351" lon="5.87676">
        <ele>229.8</ele>
        <time>2019-08-17T15:24:06Z</time>
      </trkpt>
      <trkpt lat="47.14349" lon="5.87671">
        <ele>229.9</ele>
        <time>2019-08-17T15:24:07Z</time>
      </trkpt>
      <trkpt lat="47.14347" lon="5.87665">
        <ele>230</ele>
        <time>2019-08-17T15:24:08Z</time>
      </trkpt>
      <trkpt lat="47.14345" lon="5.87659">
        <ele>230.1</ele>
        <time>2019-08-17T15:24:09Z</time>
      </trkpt>
      <trkpt lat="47.14344" lon="5.87651">
        <ele>230.2</ele>
        <time>2019-08-17T15:24:10Z</time>
      </trkpt>
      <trkpt lat="47.14341" lon="5.87644">
        <ele>230.4</ele>
        <time>2019-08-17T15:24:11Z</time>
      </trkpt>
      <trkpt lat="47.14339" lon="5.87637">
        <ele>230.5</ele>
        <time>2019-08-17T15:24:12Z</time>
      </trkpt>
      <trkpt lat="47.14337" lon="5.8763">
        <ele>230.7</ele>
        <time>2019-08-17T15:24:13Z</time>
      </trkpt>
      <trkpt lat="47.14335" lon="5.87623">
        <ele>230.9</ele>
        <time>2019-08-17T15:24:14Z</time>
      </trkpt>
      <trkpt lat="47.14333" lon="5.87616">
        <ele>231</ele>
        <time>2019-08-17T15:24:15Z</time>
      </trkpt>
      <trkpt lat="47.14331" lon="5.8761">
        <ele>231.2</ele>
        <time>2019-08-17T15:24:16Z</time>
      </trkpt>
      <trkpt lat="47.14328" lon="5.87604">
        <ele>231.3</ele>
        <time>2019-08-17T15:24:17Z</time>
      </trkpt>
      <trkpt lat="47.14325" lon="5.87597">
        <ele>231.4</ele>
        <time>2019-08-17T15:24:18Z</time>
      </trkpt>
      <trkpt lat="47.14323" lon="5.87591">
        <ele>231.4</ele>
        <time>2019-08-17T15:24:19Z</time>
      </trkpt>
      <trkpt lat="47.1432" lon="5.87586">
        <ele>231.4</ele>
        <time>2019-08-17T15:24:20Z</time>
      </trkpt>
      <trkpt lat="47.14318" lon="5.87581">
        <ele>231.3</ele>
        <time>2019-08-17T15:24:21Z</time>
      </trkpt>
      <trkpt lat="47.14316" lon="5.87576">
        <ele>231.2</ele>
        <time>2019-08-17T15:24:22Z</time>
      </trkpt>
      <trkpt lat="47.14314" lon="5.8757">
        <ele>231.1</ele>
        <time>2019-08-17T15:24:23Z</time>
      </trkpt>
      <trkpt lat="47.14312" lon="5.87564">
        <ele>231</ele>
        <time>2019-08-17T15:24:24Z</time>
      </trkpt>
      <trkpt lat="47.14311" lon="5.87559">
        <ele>230.9</ele>
        <time>2019-08-17T15:24:25Z</time>
      </trkpt>
      <trkpt lat="47.14309" lon="5.87554">
        <ele>230.8</ele>
        <time>2019-08-17T15:24:26Z</time>
      </trkpt>
      <trkpt lat="47.14308" lon="5.87548">
        <ele>230.7</ele>
        <time>2019-08-17T15:24:27Z</time>
      </trkpt>
      <trkpt lat="47.14306" lon="5.87543">
        <ele>230.6</ele>
        <time>2019-08-17T15:24:28Z</time>
      </trkpt>
      <trkpt lat="47.14303" lon="5.87537">
        <ele>230.5</ele>
        <time>2019-08-17T15:24:29Z</time>
      </trkpt>
      <trkpt lat="47.14301" lon="5.8753">
        <ele>230.5</ele>
        <time>2019-08-17T15:24:30Z</time>
      </trkpt>
      <trkpt lat="47.14298" lon="5.87525">
        <ele>230.5</ele>
        <time>2019-08-17T15:24:31Z</time>
      </trkpt>
      <trkpt lat="47.14296" lon="5.87519">
        <ele>230.5</ele>
        <time>2019-08-17T15:24:32Z</time>
      </trkpt>
      <trkpt lat="47.14293" lon="5.87513">
        <ele>230.5</ele>
        <time>2019-08-17T15:24:33Z</time>
      </trkpt>
      <trkpt lat="47.1429" lon="5.87508">
        <ele>230.6</ele>
        <time>2019-08-17T15:24:34Z</time>
      </trkpt>
      <trkpt lat="47.14286" lon="5.87502">
        <ele>230.6</ele>
        <time>2019-08-17T15:24:35Z</time>
      </trkpt>
      <trkpt lat="47.14283" lon="5.87497">
        <ele>230.6</ele>
        <time>2019-08-17T15:24:36Z</time>
      </trkpt>
      <trkpt lat="47.1428" lon="5.87493">
        <ele>230.6</ele>
        <time>2019-08-17T15:24:37Z</time>
      </trkpt>
      <trkpt lat="47.14276" lon="5.87488">
        <ele>230.6</ele>
        <time>2019-08-17T15:24:38Z</time>
      </trkpt>
      <trkpt lat="47.14273" lon="5.87483">
        <ele>230.5</ele>
        <time>2019-08-17T15:24:39Z</time>
      </trkpt>
      <trkpt lat="47.1427" lon="5.87477">
        <ele>230.3</ele>
        <time>2019-08-17T15:24:40Z</time>
      </trkpt>
      <trkpt lat="47.14268" lon="5.8747">
        <ele>230.1</ele>
        <time>2019-08-17T15:24:41Z</time>
      </trkpt>
      <trkpt lat="47.14265" lon="5.87464">
        <ele>229.9</ele>
        <time>2019-08-17T15:24:42Z</time>
      </trkpt>
      <trkpt lat="47.14263" lon="5.87458">
        <ele>229.5</ele>
        <time>2019-08-17T15:24:43Z</time>
      </trkpt>
      <trkpt lat="47.1426" lon="5.87451">
        <ele>229.1</ele>
        <time>2019-08-17T15:24:44Z</time>
      </trkpt>
      <trkpt lat="47.14257" lon="5.87444">
        <ele>228.7</ele>
        <time>2019-08-17T15:24:45Z</time>
      </trkpt>
      <trkpt lat="47.14255" lon="5.87437">
        <ele>228.4</ele>
        <time>2019-08-17T15:24:46Z</time>
      </trkpt>
      <trkpt lat="47.14252" lon="5.87431">
        <ele>228.1</ele>
        <time>2019-08-17T15:24:47Z</time>
      </trkpt>
      <trkpt lat="47.14249" lon="5.87424">
        <ele>227.9</ele>
        <time>2019-08-17T15:24:48Z</time>
      </trkpt>
      <trkpt lat="47.14247" lon="5.87418">
        <ele>227.8</ele>
        <time>2019-08-17T15:24:49Z</time>
      </trkpt>
      <trkpt lat="47.14244" lon="5.87412">
        <ele>227.7</ele>
        <time>2019-08-17T15:24:50Z</time>
      </trkpt>
      <trkpt lat="47.14242" lon="5.87407">
        <ele>227.7</ele>
        <time>2019-08-17T15:24:51Z</time>
      </trkpt>
      <trkpt lat="47.14239" lon="5.87401">
        <ele>227.8</ele>
        <time>2019-08-17T15:24:52Z</time>
      </trkpt>
      <trkpt lat="47.14236" lon="5.87396">
        <ele>227.8</ele>
        <time>2019-08-17T15:24:53Z</time>
      </trkpt>
      <trkpt lat="47.14233" lon="5.8739">
        <ele>227.9</ele>
        <time>2019-08-17T15:24:54Z</time>
      </trkpt>
      <trkpt lat="47.14231" lon="5.87384">
        <ele>228</ele>
        <time>2019-08-17T15:24:55Z</time>
      </trkpt>
      <trkpt lat="47.14228" lon="5.87377">
        <ele>228.1</ele>
        <time>2019-08-17T15:24:56Z</time>
      </trkpt>
      <trkpt lat="47.14225" lon="5.87371">
        <ele>228.1</ele>
        <time>2019-08-17T15:24:57Z</time>
      </trkpt>
      <trkpt lat="47.14223" lon="5.87364">
        <ele>228.2</ele>
        <time>2019-08-17T15:24:58Z</time>
      </trkpt>
      <trkpt lat="47.1422" lon="5.87359">
        <ele>228.2</ele>
        <time>2019-08-17T15:24:59Z</time>
      </trkpt>
      <trkpt lat="47.14217" lon="5.87352">
        <ele>228.1</ele>
        <time>2019-08-17T15:25:00Z</time>
      </trkpt>
      <trkpt lat="47.14214" lon="5.87347">
        <ele>228.1</ele>
        <time>2019-08-17T15:25:01Z</time>
      </trkpt>
      <trkpt lat="47.14211" lon="5.87343">
        <ele>228</ele>
        <time>2019-08-17T15:25:02Z</time>
      </trkpt>
      <trkpt lat="47.14208" lon="5.8734">
        <ele>228</ele>
        <time>2019-08-17T15:25:03Z</time>
      </trkpt>
      <trkpt lat="47.14204" lon="5.87336">
        <ele>227.8</ele>
        <time>2019-08-17T15:25:04Z</time>
      </trkpt>
      <trkpt lat="47.14201" lon="5.87333">
        <ele>227.7</ele>
        <time>2019-08-17T15:25:05Z</time>
      </trkpt>
      <trkpt lat="47.14196" lon="5.8733">
        <ele>227.6</ele>
        <time>2019-08-17T15:25:06Z</time>
      </trkpt>
      <trkpt lat="47.14193" lon="5.87326">
        <ele>227.6</ele>
        <time>2019-08-17T15:25:07Z</time>
      </trkpt>
      <trkpt lat="47.1419" lon="5.87322">
        <ele>227.5</ele>
        <time>2019-08-17T15:25:08Z</time>
      </trkpt>
      <trkpt lat="47.14187" lon="5.87318">
        <ele>227.4</ele>
        <time>2019-08-17T15:25:09Z</time>
      </trkpt>
      <trkpt lat="47.14185" lon="5.87314">
        <ele>227.3</ele>
        <time>2019-08-17T15:25:10Z</time>
      </trkpt>
      <trkpt lat="47.14183" lon="5.87309">
        <ele>227.4</ele>
        <time>2019-08-17T15:25:11Z</time>
      </trkpt>
      <trkpt lat="47.14181" lon="5.87303">
        <ele>227.4</ele>
        <time>2019-08-17T15:25:12Z</time>
      </trkpt>
      <trkpt lat="47.1418" lon="5.87295">
        <ele>227.5</ele>
        <time>2019-08-17T15:25:13Z</time>
      </trkpt>
      <trkpt lat="47.1418" lon="5.87285">
        <ele>227.6</ele>
        <time>2019-08-17T15:25:14Z</time>
      </trkpt>
      <trkpt lat="47.1418" lon="5.87275">
        <ele>227.7</ele>
        <time>2019-08-17T15:25:15Z</time>
      </trkpt>
      <trkpt lat="47.14179" lon="5.87267">
        <ele>227.8</ele>
        <time>2019-08-17T15:25:16Z</time>
      </trkpt>
      <trkpt lat="47.14178" lon="5.87259">
        <ele>227.9</ele>
        <time>2019-08-17T15:25:17Z</time>
      </trkpt>
      <trkpt lat="47.14176" lon="5.87252">
        <ele>228</ele>
        <time>2019-08-17T15:25:18Z</time>
      </trkpt>
      <trkpt lat="47.14175" lon="5.87245">
        <ele>228.1</ele>
        <time>2019-08-17T15:25:19Z</time>
      </trkpt>
      <trkpt lat="47.14173" lon="5.87237">
        <ele>228.1</ele>
        <time>2019-08-17T15:25:20Z</time>
      </trkpt>
      <trkpt lat="47.14171" lon="5.87231">
        <ele>228.1</ele>
        <time>2019-08-17T15:25:21Z</time>
      </trkpt>
      <trkpt lat="47.14169" lon="5.87226">
        <ele>228.1</ele>
        <time>2019-08-17T15:25:22Z</time>
      </trkpt>
      <trkpt lat="47.14167" lon="5.8722">
        <ele>228.2</ele>
        <time>2019-08-17T15:25:23Z</time>
      </trkpt>
      <trkpt lat="47.14165" lon="5.87215">
        <ele>228.2</ele>
        <time>2019-08-17T15:25:24Z</time>
      </trkpt>
      <trkpt lat="47.14163" lon="5.87208">
        <ele>228.2</ele>
        <time>2019-08-17T15:25:25Z</time>
      </trkpt>
      <trkpt lat="47.14161" lon="5.87203">
        <ele>228.2</ele>
        <time>2019-08-17T15:25:26Z</time>
      </trkpt>
      <trkpt lat="47.1416" lon="5.87197">
        <ele>228.2</ele>
        <time>2019-08-17T15:25:27Z</time>
      </trkpt>
      <trkpt lat="47.14158" lon="5.8719">
        <ele>228.2</ele>
        <time>2019-08-17T15:25:28Z</time>
      </trkpt>
      <trkpt lat="47.14156" lon="5.87184">
        <ele>228.2</ele>
        <time>2019-08-17T15:25:29Z</time>
      </trkpt>
      <trkpt lat="47.14153" lon="5.87178">
        <ele>228.2</ele>
        <time>2019-08-17T15:25:30Z</time>
      </trkpt>
      <trkpt lat="47.1415" lon="5.87173">
        <ele>228.2</ele>
        <time>2019-08-17T15:25:31Z</time>
      </trkpt>
      <trkpt lat="47.14147" lon="5.87166">
        <ele>228.2</ele>
        <time>2019-08-17T15:25:32Z</time>
      </trkpt>
      <trkpt lat="47.14144" lon="5.8716">
        <ele>228.2</ele>
        <time>2019-08-17T15:25:33Z</time>
      </trkpt>
      <trkpt lat="47.14141" lon="5.87154">
        <ele>228.3</ele>
        <time>2019-08-17T15:25:34Z</time>
      </trkpt>
      <trkpt lat="47.14138" lon="5.87147">
        <ele>228.3</ele>
        <time>2019-08-17T15:25:35Z</time>
      </trkpt>
      <trkpt lat="47.14135" lon="5.87141">
        <ele>228.3</ele>
        <time>2019-08-17T15:25:36Z</time>
      </trkpt>
      <trkpt lat="47.14132" lon="5.87134">
        <ele>228.4</ele>
        <time>2019-08-17T15:25:37Z</time>
      </trkpt>
      <trkpt lat="47.1413" lon="5.87127">
        <ele>228.4</ele>
        <time>2019-08-17T15:25:38Z</time>
      </trkpt>
      <trkpt lat="47.14129" lon="5.87121">
        <ele>228.4</ele>
        <time>2019-08-17T15:25:39Z</time>
      </trkpt>
      <trkpt lat="47.14127" lon="5.87115">
        <ele>228.5</ele>
        <time>2019-08-17T15:25:40Z</time>
      </trkpt>
      <trkpt lat="47.14125" lon="5.87109">
        <ele>228.5</ele>
        <time>2019-08-17T15:25:41Z</time>
      </trkpt>
      <trkpt lat="47.14123" lon="5.87103">
        <ele>228.6</ele>
        <time>2019-08-17T15:25:42Z</time>
      </trkpt>
      <trkpt lat="47.14121" lon="5.87096">
        <ele>228.6</ele>
        <time>2019-08-17T15:25:43Z</time>
      </trkpt>
      <trkpt lat="47.14119" lon="5.87089">
        <ele>228.7</ele>
        <time>2019-08-17T15:25:44Z</time>
      </trkpt>
      <trkpt lat="47.14117" lon="5.8708">
        <ele>228.8</ele>
        <time>2019-08-17T15:25:45Z</time>
      </trkpt>
      <trkpt lat="47.14116" lon="5.87073">
        <ele>228.8</ele>
        <time>2019-08-17T15:25:46Z</time>
      </trkpt>
      <trkpt lat="47.14115" lon="5.87065">
        <ele>228.9</ele>
        <time>2019-08-17T15:25:47Z</time>
      </trkpt>
      <trkpt lat="47.14114" lon="5.87058">
        <ele>229</ele>
        <time>2019-08-17T15:25:48Z</time>
      </trkpt>
      <trkpt lat="47.14111" lon="5.87051">
        <ele>229.1</ele>
        <time>2019-08-17T15:25:49Z</time>
      </trkpt>
      <trkpt lat="47.14109" lon="5.87046">
        <ele>229.1</ele>
        <time>2019-08-17T15:25:50Z</time>
      </trkpt>
      <trkpt lat="47.14107" lon="5.87041">
        <ele>229.2</ele>
        <time>2019-08-17T15:25:51Z</time>
      </trkpt>
      <trkpt lat="47.14104" lon="5.87037">
        <ele>229.2</ele>
        <time>2019-08-17T15:25:52Z</time>
      </trkpt>
      <trkpt lat="47.14101" lon="5.87032">
        <ele>229.3</ele>
        <time>2019-08-17T15:25:53Z</time>
      </trkpt>
      <trkpt lat="47.14099" lon="5.87028">
        <ele>229.4</ele>
        <time>2019-08-17T15:25:54Z</time>
      </trkpt>
      <trkpt lat="47.14096" lon="5.87024">
        <ele>229.5</ele>
        <time>2019-08-17T15:25:55Z</time>
      </trkpt>
      <trkpt lat="47.14093" lon="5.8702">
        <ele>229.6</ele>
        <time>2019-08-17T15:25:56Z</time>
      </trkpt>
      <trkpt lat="47.14091" lon="5.87017">
        <ele>229.7</ele>
        <time>2019-08-17T15:25:57Z</time>
      </trkpt>
      <trkpt lat="47.14088" lon="5.87011">
        <ele>229.8</ele>
        <time>2019-08-17T15:25:59Z</time>
      </trkpt>
      <trkpt lat="47.14086" lon="5.87008">
        <ele>229.9</ele>
        <time>2019-08-17T15:26:00Z</time>
      </trkpt>
      <trkpt lat="47.14084" lon="5.87">
        <ele>230.1</ele>
        <time>2019-08-17T15:26:02Z</time>
      </trkpt>
      <trkpt lat="47.14082" lon="5.86995">
        <ele>230.2</ele>
        <time>2019-08-17T15:26:03Z</time>
      </trkpt>
      <trkpt lat="47.14079" lon="5.86988">
        <ele>230.4</ele>
        <time>2019-08-17T15:26:04Z</time>
      </trkpt>
      <trkpt lat="47.14077" lon="5.86981">
        <ele>230.5</ele>
        <time>2019-08-17T15:26:05Z</time>
      </trkpt>
      <trkpt lat="47.14074" lon="5.86972">
        <ele>230.8</ele>
        <time>2019-08-17T15:26:06Z</time>
      </trkpt>
      <trkpt lat="47.14071" lon="5.86964">
        <ele>231.1</ele>
        <time>2019-08-17T15:26:07Z</time>
      </trkpt>
      <trkpt lat="47.14068" lon="5.86955">
        <ele>231.4</ele>
        <time>2019-08-17T15:26:08Z</time>
      </trkpt>
      <trkpt lat="47.14064" lon="5.86947">
        <ele>231.6</ele>
        <time>2019-08-17T15:26:09Z</time>
      </trkpt>
      <trkpt lat="47.14062" lon="5.8694">
        <ele>231.8</ele>
        <time>2019-08-17T15:26:10Z</time>
      </trkpt>
      <trkpt lat="47.14059" lon="5.86933">
        <ele>232</ele>
        <time>2019-08-17T15:26:11Z</time>
      </trkpt>
      <trkpt lat="47.14056" lon="5.86927">
        <ele>232.2</ele>
        <time>2019-08-17T15:26:12Z</time>
      </trkpt>
      <trkpt lat="47.14053" lon="5.86921">
        <ele>232.3</ele>
        <time>2019-08-17T15:26:13Z</time>
      </trkpt>
      <trkpt lat="47.14051" lon="5.86914">
        <ele>232.4</ele>
        <time>2019-08-17T15:26:14Z</time>
      </trkpt>
      <trkpt lat="47.14048" lon="5.86908">
        <ele>232.4</ele>
        <time>2019-08-17T15:26:15Z</time>
      </trkpt>
      <trkpt lat="47.14046" lon="5.86903">
        <ele>232.4</ele>
        <time>2019-08-17T15:26:16Z</time>
      </trkpt>
      <trkpt lat="47.14044" lon="5.86898">
        <ele>232.4</ele>
        <time>2019-08-17T15:26:17Z</time>
      </trkpt>
      <trkpt lat="47.14042" lon="5.86892">
        <ele>232.4</ele>
        <time>2019-08-17T15:26:18Z</time>
      </trkpt>
      <trkpt lat="47.14041" lon="5.86887">
        <ele>232.4</ele>
        <time>2019-08-17T15:26:19Z</time>
      </trkpt>
      <trkpt lat="47.14038" lon="5.86881">
        <ele>232.3</ele>
        <time>2019-08-17T15:26:20Z</time>
      </trkpt>
      <trkpt lat="47.14036" lon="5.86876">
        <ele>232.3</ele>
        <time>2019-08-17T15:26:21Z</time>
      </trkpt>
      <trkpt lat="47.14035" lon="5.86871">
        <ele>232.3</ele>
        <time>2019-08-17T15:26:22Z</time>
      </trkpt>
      <trkpt lat="47.14033" lon="5.86865">
        <ele>232.2</ele>
        <time>2019-08-17T15:26:23Z</time>
      </trkpt>
      <trkpt lat="47.1403" lon="5.86857">
        <ele>232.1</ele>
        <time>2019-08-17T15:26:24Z</time>
      </trkpt>
      <trkpt lat="47.14028" lon="5.86851">
        <ele>232</ele>
        <time>2019-08-17T15:26:25Z</time>
      </trkpt>
      <trkpt lat="47.14026" lon="5.86844">
        <ele>231.9</ele>
        <time>2019-08-17T15:26:26Z</time>
      </trkpt>
      <trkpt lat="47.14024" lon="5.86838">
        <ele>231.8</ele>
        <time>2019-08-17T15:26:27Z</time>
      </trkpt>
      <trkpt lat="47.14022" lon="5.86832">
        <ele>231.6</ele>
        <time>2019-08-17T15:26:28Z</time>
      </trkpt>
      <trkpt lat="47.1402" lon="5.86824">
        <ele>231.5</ele>
        <time>2019-08-17T15:26:29Z</time>
      </trkpt>
      <trkpt lat="47.1402" lon="5.86816">
        <ele>231.4</ele>
        <time>2019-08-17T15:26:30Z</time>
      </trkpt>
      <trkpt lat="47.14018" lon="5.86809">
        <ele>231.3</ele>
        <time>2019-08-17T15:26:31Z</time>
      </trkpt>
      <trkpt lat="47.14017" lon="5.86802">
        <ele>231.2</ele>
        <time>2019-08-17T15:26:32Z</time>
      </trkpt>
      <trkpt lat="47.14015" lon="5.86796">
        <ele>231.1</ele>
        <time>2019-08-17T15:26:33Z</time>
      </trkpt>
      <trkpt lat="47.14014" lon="5.86789">
        <ele>231</ele>
        <time>2019-08-17T15:26:34Z</time>
      </trkpt>
      <trkpt lat="47.14013" lon="5.86782">
        <ele>231</ele>
        <time>2019-08-17T15:26:35Z</time>
      </trkpt>
      <trkpt lat="47.14013" lon="5.86776">
        <ele>231</ele>
        <time>2019-08-17T15:26:36Z</time>
      </trkpt>
      <trkpt lat="47.14012" lon="5.8677">
        <ele>230.9</ele>
        <time>2019-08-17T15:26:37Z</time>
      </trkpt>
      <trkpt lat="47.14011" lon="5.86764">
        <ele>230.9</ele>
        <time>2019-08-17T15:26:38Z</time>
      </trkpt>
      <trkpt lat="47.14011" lon="5.86759">
        <ele>230.9</ele>
        <time>2019-08-17T15:26:39Z</time>
      </trkpt>
      <trkpt lat="47.14011" lon="5.86752">
        <ele>230.8</ele>
        <time>2019-08-17T15:26:40Z</time>
      </trkpt>
      <trkpt lat="47.14011" lon="5.86747">
        <ele>230.8</ele>
        <time>2019-08-17T15:26:41Z</time>
      </trkpt>
      <trkpt lat="47.1401" lon="5.86742">
        <ele>230.7</ele>
        <time>2019-08-17T15:26:42Z</time>
      </trkpt>
      <trkpt lat="47.14009" lon="5.86738">
        <ele>230.6</ele>
        <time>2019-08-17T15:26:43Z</time>
      </trkpt>
      <trkpt lat="47.14007" lon="5.86732">
        <ele>230.5</ele>
        <time>2019-08-17T15:26:44Z</time>
      </trkpt>
      <trkpt lat="47.14005" lon="5.86728">
        <ele>230.4</ele>
        <time>2019-08-17T15:26:45Z</time>
      </trkpt>
      <trkpt lat="47.14003" lon="5.86723">
        <ele>230.3</ele>
        <time>2019-08-17T15:26:46Z</time>
      </trkpt>
      <trkpt lat="47.14001" lon="5.86718">
        <ele>230.2</ele>
        <time>2019-08-17T15:26:47Z</time>
      </trkpt>
      <trkpt lat="47.14" lon="5.86712">
        <ele>230.1</ele>
        <time>2019-08-17T15:26:48Z</time>
      </trkpt>
      <trkpt lat="47.13998" lon="5.86707">
        <ele>229.9</ele>
        <time>2019-08-17T15:26:49Z</time>
      </trkpt>
      <trkpt lat="47.13996" lon="5.86702">
        <ele>229.8</ele>
        <time>2019-08-17T15:26:50Z</time>
      </trkpt>
      <trkpt lat="47.13995" lon="5.86698">
        <ele>229.8</ele>
        <time>2019-08-17T15:26:51Z</time>
      </trkpt>
      <trkpt lat="47.13994" lon="5.86693">
        <ele>229.7</ele>
        <time>2019-08-17T15:26:52Z</time>
      </trkpt>
      <trkpt lat="47.13993" lon="5.86689">
        <ele>229.6</ele>
        <time>2019-08-17T15:26:53Z</time>
      </trkpt>
      <trkpt lat="47.13992" lon="5.86684">
        <ele>229.6</ele>
        <time>2019-08-17T15:26:54Z</time>
      </trkpt>
      <trkpt lat="47.1399" lon="5.86678">
        <ele>229.5</ele>
        <time>2019-08-17T15:26:55Z</time>
      </trkpt>
      <trkpt lat="47.13988" lon="5.86673">
        <ele>229.5</ele>
        <time>2019-08-17T15:26:56Z</time>
      </trkpt>
      <trkpt lat="47.13986" lon="5.86667">
        <ele>229.4</ele>
        <time>2019-08-17T15:26:57Z</time>
      </trkpt>
      <trkpt lat="47.13984" lon="5.86663">
        <ele>229.3</ele>
        <time>2019-08-17T15:26:58Z</time>
      </trkpt>
      <trkpt lat="47.13983" lon="5.86658">
        <ele>229.3</ele>
        <time>2019-08-17T15:26:59Z</time>
      </trkpt>
      <trkpt lat="47.13982" lon="5.86653">
        <ele>229.3</ele>
        <time>2019-08-17T15:27:00Z</time>
      </trkpt>
      <trkpt lat="47.1398" lon="5.86647">
        <ele>229.2</ele>
        <time>2019-08-17T15:27:01Z</time>
      </trkpt>
      <trkpt lat="47.13978" lon="5.86641">
        <ele>229.1</ele>
        <time>2019-08-17T15:27:02Z</time>
      </trkpt>
      <trkpt lat="47.13977" lon="5.86636">
        <ele>229.1</ele>
        <time>2019-08-17T15:27:03Z</time>
      </trkpt>
      <trkpt lat="47.13975" lon="5.8663">
        <ele>229</ele>
        <time>2019-08-17T15:27:04Z</time>
      </trkpt>
      <trkpt lat="47.13974" lon="5.86626">
        <ele>228.9</ele>
        <time>2019-08-17T15:27:05Z</time>
      </trkpt>
      <trkpt lat="47.13973" lon="5.86621">
        <ele>228.9</ele>
        <time>2019-08-17T15:27:06Z</time>
      </trkpt>
      <trkpt lat="47.13971" lon="5.86616">
        <ele>228.8</ele>
        <time>2019-08-17T15:27:07Z</time>
      </trkpt>
      <trkpt lat="47.13969" lon="5.8661">
        <ele>228.7</ele>
        <time>2019-08-17T15:27:08Z</time>
      </trkpt>
      <trkpt lat="47.13968" lon="5.86605">
        <ele>228.6</ele>
        <time>2019-08-17T15:27:09Z</time>
      </trkpt>
      <trkpt lat="47.13966" lon="5.86599">
        <ele>228.5</ele>
        <time>2019-08-17T15:27:10Z</time>
      </trkpt>
      <trkpt lat="47.13965" lon="5.86593">
        <ele>228.4</ele>
        <time>2019-08-17T15:27:11Z</time>
      </trkpt>
      <trkpt lat="47.13963" lon="5.86588">
        <ele>228.3</ele>
        <time>2019-08-17T15:27:12Z</time>
      </trkpt>
      <trkpt lat="47.13962" lon="5.86582">
        <ele>228.2</ele>
        <time>2019-08-17T15:27:13Z</time>
      </trkpt>
      <trkpt lat="47.1396" lon="5.86577">
        <ele>228.1</ele>
        <time>2019-08-17T15:27:14Z</time>
      </trkpt>
      <trkpt lat="47.13959" lon="5.86572">
        <ele>228</ele>
        <time>2019-08-17T15:27:15Z</time>
      </trkpt>
      <trkpt lat="47.13958" lon="5.86565">
        <ele>227.9</ele>
        <time>2019-08-17T15:27:16Z</time>
      </trkpt>
      <trkpt lat="47.13956" lon="5.8656">
        <ele>227.8</ele>
        <time>2019-08-17T15:27:17Z</time>
      </trkpt>
      <trkpt lat="47.13955" lon="5.86555">
        <ele>227.7</ele>
        <time>2019-08-17T15:27:18Z</time>
      </trkpt>
      <trkpt lat="47.13954" lon="5.86548">
        <ele>227.5</ele>
        <time>2019-08-17T15:27:19Z</time>
      </trkpt>
      <trkpt lat="47.13953" lon="5.86543">
        <ele>227.4</ele>
        <time>2019-08-17T15:27:20Z</time>
      </trkpt>
      <trkpt lat="47.13952" lon="5.86537">
        <ele>227.3</ele>
        <time>2019-08-17T15:27:21Z</time>
      </trkpt>
      <trkpt lat="47.1395" lon="5.86531">
        <ele>227.2</ele>
        <time>2019-08-17T15:27:22Z</time>
      </trkpt>
      <trkpt lat="47.13948" lon="5.86525">
        <ele>227.1</ele>
        <time>2019-08-17T15:27:23Z</time>
      </trkpt>
      <trkpt lat="47.13947" lon="5.86518">
        <ele>227</ele>
        <time>2019-08-17T15:27:24Z</time>
      </trkpt>
      <trkpt lat="47.13946" lon="5.86512">
        <ele>227</ele>
        <time>2019-08-17T15:27:25Z</time>
      </trkpt>
      <trkpt lat="47.13943" lon="5.86505">
        <ele>226.9</ele>
        <time>2019-08-17T15:27:26Z</time>
      </trkpt>
      <trkpt lat="47.13941" lon="5.86498">
        <ele>226.8</ele>
        <time>2019-08-17T15:27:27Z</time>
      </trkpt>
      <trkpt lat="47.1394" lon="5.86491">
        <ele>226.7</ele>
        <time>2019-08-17T15:27:28Z</time>
      </trkpt>
      <trkpt lat="47.13939" lon="5.86484">
        <ele>226.6</ele>
        <time>2019-08-17T15:27:29Z</time>
      </trkpt>
      <trkpt lat="47.13936" lon="5.86478">
        <ele>226.5</ele>
        <time>2019-08-17T15:27:30Z</time>
      </trkpt>
      <trkpt lat="47.13935" lon="5.86472">
        <ele>226.4</ele>
        <time>2019-08-17T15:27:31Z</time>
      </trkpt>
      <trkpt lat="47.13933" lon="5.86466">
        <ele>226.3</ele>
        <time>2019-08-17T15:27:32Z</time>
      </trkpt>
      <trkpt lat="47.13931" lon="5.86459">
        <ele>226.1</ele>
        <time>2019-08-17T15:27:33Z</time>
      </trkpt>
      <trkpt lat="47.13929" lon="5.86453">
        <ele>226</ele>
        <time>2019-08-17T15:27:34Z</time>
      </trkpt>
      <trkpt lat="47.13928" lon="5.86447">
        <ele>225.9</ele>
        <time>2019-08-17T15:27:35Z</time>
      </trkpt>
      <trkpt lat="47.13926" lon="5.86441">
        <ele>225.8</ele>
        <time>2019-08-17T15:27:36Z</time>
      </trkpt>
      <trkpt lat="47.13926" lon="5.86435">
        <ele>225.7</ele>
        <time>2019-08-17T15:27:37Z</time>
      </trkpt>
      <trkpt lat="47.13924" lon="5.8643">
        <ele>225.6</ele>
        <time>2019-08-17T15:27:38Z</time>
      </trkpt>
      <trkpt lat="47.13922" lon="5.86424">
        <ele>225.5</ele>
        <time>2019-08-17T15:27:39Z</time>
      </trkpt>
      <trkpt lat="47.13921" lon="5.86417">
        <ele>225.3</ele>
        <time>2019-08-17T15:27:40Z</time>
      </trkpt>
      <trkpt lat="47.13919" lon="5.86411">
        <ele>225</ele>
        <time>2019-08-17T15:27:41Z</time>
      </trkpt>
      <trkpt lat="47.13917" lon="5.86405">
        <ele>224.7</ele>
        <time>2019-08-17T15:27:42Z</time>
      </trkpt>
      <trkpt lat="47.13915" lon="5.86399">
        <ele>224.4</ele>
        <time>2019-08-17T15:27:43Z</time>
      </trkpt>
      <trkpt lat="47.13913" lon="5.86393">
        <ele>224</ele>
        <time>2019-08-17T15:27:44Z</time>
      </trkpt>
      <trkpt lat="47.13911" lon="5.86388">
        <ele>223.7</ele>
        <time>2019-08-17T15:27:45Z</time>
      </trkpt>
      <trkpt lat="47.13909" lon="5.86382">
        <ele>223.4</ele>
        <time>2019-08-17T15:27:46Z</time>
      </trkpt>
      <trkpt lat="47.13907" lon="5.86376">
        <ele>223.2</ele>
        <time>2019-08-17T15:27:47Z</time>
      </trkpt>
      <trkpt lat="47.13905" lon="5.8637">
        <ele>222.9</ele>
        <time>2019-08-17T15:27:48Z</time>
      </trkpt>
      <trkpt lat="47.13904" lon="5.86364">
        <ele>222.7</ele>
        <time>2019-08-17T15:27:49Z</time>
      </trkpt>
      <trkpt lat="47.13902" lon="5.86358">
        <ele>222.6</ele>
        <time>2019-08-17T15:27:50Z</time>
      </trkpt>
      <trkpt lat="47.139" lon="5.86351">
        <ele>222.4</ele>
        <time>2019-08-17T15:27:51Z</time>
      </trkpt>
      <trkpt lat="47.13898" lon="5.86344">
        <ele>222.3</ele>
        <time>2019-08-17T15:27:52Z</time>
      </trkpt>
      <trkpt lat="47.13897" lon="5.86337">
        <ele>222.2</ele>
        <time>2019-08-17T15:27:53Z</time>
      </trkpt>
      <trkpt lat="47.13895" lon="5.8633">
        <ele>222.1</ele>
        <time>2019-08-17T15:27:54Z</time>
      </trkpt>
      <trkpt lat="47.13894" lon="5.86323">
        <ele>222</ele>
        <time>2019-08-17T15:27:55Z</time>
      </trkpt>
      <trkpt lat="47.13893" lon="5.86317">
        <ele>222</ele>
        <time>2019-08-17T15:27:56Z</time>
      </trkpt>
      <trkpt lat="47.13891" lon="5.86309">
        <ele>221.9</ele>
        <time>2019-08-17T15:27:57Z</time>
      </trkpt>
      <trkpt lat="47.1389" lon="5.86302">
        <ele>221.8</ele>
        <time>2019-08-17T15:27:58Z</time>
      </trkpt>
      <trkpt lat="47.13889" lon="5.86296">
        <ele>221.7</ele>
        <time>2019-08-17T15:27:59Z</time>
      </trkpt>
      <trkpt lat="47.13889" lon="5.86288">
        <ele>221.6</ele>
        <time>2019-08-17T15:28:00Z</time>
      </trkpt>
      <trkpt lat="47.13888" lon="5.8628">
        <ele>221.5</ele>
        <time>2019-08-17T15:28:01Z</time>
      </trkpt>
      <trkpt lat="47.13888" lon="5.86274">
        <ele>221.4</ele>
        <time>2019-08-17T15:28:02Z</time>
      </trkpt>
      <trkpt lat="47.13888" lon="5.86267">
        <ele>221.3</ele>
        <time>2019-08-17T15:28:03Z</time>
      </trkpt>
      <trkpt lat="47.13889" lon="5.8626">
        <ele>221.2</ele>
        <time>2019-08-17T15:28:04Z</time>
      </trkpt>
      <trkpt lat="47.1389" lon="5.86254">
        <ele>221.1</ele>
        <time>2019-08-17T15:28:05Z</time>
      </trkpt>
      <trkpt lat="47.13891" lon="5.86247">
        <ele>221.2</ele>
        <time>2019-08-17T15:28:06Z</time>
      </trkpt>
      <trkpt lat="47.13892" lon="5.86241">
        <ele>221.2</ele>
        <time>2019-08-17T15:28:07Z</time>
      </trkpt>
      <trkpt lat="47.13892" lon="5.86234">
        <ele>221.2</ele>
        <time>2019-08-17T15:28:08Z</time>
      </trkpt>
      <trkpt lat="47.13892" lon="5.86227">
        <ele>221.2</ele>
        <time>2019-08-17T15:28:09Z</time>
      </trkpt>
      <trkpt lat="47.13893" lon="5.8622">
        <ele>221.2</ele>
        <time>2019-08-17T15:28:10Z</time>
      </trkpt>
      <trkpt lat="47.13894" lon="5.86213">
        <ele>221.3</ele>
        <time>2019-08-17T15:28:11Z</time>
      </trkpt>
      <trkpt lat="47.13895" lon="5.86206">
        <ele>221.3</ele>
        <time>2019-08-17T15:28:12Z</time>
      </trkpt>
      <trkpt lat="47.13895" lon="5.86199">
        <ele>221.3</ele>
        <time>2019-08-17T15:28:13Z</time>
      </trkpt>
      <trkpt lat="47.13896" lon="5.86192">
        <ele>221.3</ele>
        <time>2019-08-17T15:28:14Z</time>
      </trkpt>
      <trkpt lat="47.13897" lon="5.86185">
        <ele>221.3</ele>
        <time>2019-08-17T15:28:15Z</time>
      </trkpt>
      <trkpt lat="47.13898" lon="5.8618">
        <ele>221.3</ele>
        <time>2019-08-17T15:28:16Z</time>
      </trkpt>
      <trkpt lat="47.139" lon="5.86174">
        <ele>221.4</ele>
        <time>2019-08-17T15:28:17Z</time>
      </trkpt>
      <trkpt lat="47.139" lon="5.86167">
        <ele>221.4</ele>
        <time>2019-08-17T15:28:18Z</time>
      </trkpt>
      <trkpt lat="47.13901" lon="5.86159">
        <ele>221.3</ele>
        <time>2019-08-17T15:28:19Z</time>
      </trkpt>
      <trkpt lat="47.13901" lon="5.86153">
        <ele>221.3</ele>
        <time>2019-08-17T15:28:20Z</time>
      </trkpt>
      <trkpt lat="47.13902" lon="5.86145">
        <ele>221.3</ele>
        <time>2019-08-17T15:28:21Z</time>
      </trkpt>
      <trkpt lat="47.13902" lon="5.86138">
        <ele>221.3</ele>
        <time>2019-08-17T15:28:22Z</time>
      </trkpt>
      <trkpt lat="47.13903" lon="5.86131">
        <ele>221.3</ele>
        <time>2019-08-17T15:28:23Z</time>
      </trkpt>
      <trkpt lat="47.13903" lon="5.86124">
        <ele>221.3</ele>
        <time>2019-08-17T15:28:24Z</time>
      </trkpt>
      <trkpt lat="47.13904" lon="5.86116">
        <ele>221.3</ele>
        <time>2019-08-17T15:28:25Z</time>
      </trkpt>
      <trkpt lat="47.13905" lon="5.86111">
        <ele>221.3</ele>
        <time>2019-08-17T15:28:26Z</time>
      </trkpt>
      <trkpt lat="47.13905" lon="5.86104">
        <ele>221.3</ele>
        <time>2019-08-17T15:28:27Z</time>
      </trkpt>
      <trkpt lat="47.13905" lon="5.86098">
        <ele>221.2</ele>
        <time>2019-08-17T15:28:28Z</time>
      </trkpt>
      <trkpt lat="47.13905" lon="5.86091">
        <ele>221.2</ele>
        <time>2019-08-17T15:28:29Z</time>
      </trkpt>
      <trkpt lat="47.13906" lon="5.86085">
        <ele>221.2</ele>
        <time>2019-08-17T15:28:30Z</time>
      </trkpt>
      <trkpt lat="47.13906" lon="5.86077">
        <ele>221.2</ele>
        <time>2019-08-17T15:28:31Z</time>
      </trkpt>
      <trkpt lat="47.13906" lon="5.8607">
        <ele>221.2</ele>
        <time>2019-08-17T15:28:32Z</time>
      </trkpt>
      <trkpt lat="47.13906" lon="5.86063">
        <ele>221.2</ele>
        <time>2019-08-17T15:28:33Z</time>
      </trkpt>
      <trkpt lat="47.13907" lon="5.86056">
        <ele>221.2</ele>
        <time>2019-08-17T15:28:34Z</time>
      </trkpt>
      <trkpt lat="47.13909" lon="5.8605">
        <ele>221.2</ele>
        <time>2019-08-17T15:28:35Z</time>
      </trkpt>
      <trkpt lat="47.1391" lon="5.86044">
        <ele>221.2</ele>
        <time>2019-08-17T15:28:36Z</time>
      </trkpt>
      <trkpt lat="47.13911" lon="5.86038">
        <ele>221.2</ele>
        <time>2019-08-17T15:28:37Z</time>
      </trkpt>
      <trkpt lat="47.13912" lon="5.86031">
        <ele>221.1</ele>
        <time>2019-08-17T15:28:38Z</time>
      </trkpt>
      <trkpt lat="47.13913" lon="5.86023">
        <ele>221.1</ele>
        <time>2019-08-17T15:28:39Z</time>
      </trkpt>
      <trkpt lat="47.13913" lon="5.86016">
        <ele>221.1</ele>
        <time>2019-08-17T15:28:40Z</time>
      </trkpt>
      <trkpt lat="47.13914" lon="5.86009">
        <ele>221.1</ele>
        <time>2019-08-17T15:28:41Z</time>
      </trkpt>
      <trkpt lat="47.13915" lon="5.86001">
        <ele>221.1</ele>
        <time>2019-08-17T15:28:42Z</time>
      </trkpt>
      <trkpt lat="47.13915" lon="5.85994">
        <ele>221.1</ele>
        <time>2019-08-17T15:28:43Z</time>
      </trkpt>
      <trkpt lat="47.13916" lon="5.85987">
        <ele>221.1</ele>
        <time>2019-08-17T15:28:44Z</time>
      </trkpt>
      <trkpt lat="47.13916" lon="5.85979">
        <ele>221.1</ele>
        <time>2019-08-17T15:28:45Z</time>
      </trkpt>
      <trkpt lat="47.13917" lon="5.85973">
        <ele>221.1</ele>
        <time>2019-08-17T15:28:46Z</time>
      </trkpt>
      <trkpt lat="47.13918" lon="5.85966">
        <ele>221.1</ele>
        <time>2019-08-17T15:28:47Z</time>
      </trkpt>
      <trkpt lat="47.13919" lon="5.85961">
        <ele>221.1</ele>
        <time>2019-08-17T15:28:48Z</time>
      </trkpt>
      <trkpt lat="47.1392" lon="5.85955">
        <ele>221.1</ele>
        <time>2019-08-17T15:28:49Z</time>
      </trkpt>
      <trkpt lat="47.1392" lon="5.85948">
        <ele>221.1</ele>
        <time>2019-08-17T15:28:50Z</time>
      </trkpt>
      <trkpt lat="47.13921" lon="5.85942">
        <ele>221.1</ele>
        <time>2019-08-17T15:28:51Z</time>
      </trkpt>
      <trkpt lat="47.13921" lon="5.85937">
        <ele>221.1</ele>
        <time>2019-08-17T15:28:52Z</time>
      </trkpt>
      <trkpt lat="47.13921" lon="5.85932">
        <ele>221.1</ele>
        <time>2019-08-17T15:28:53Z</time>
      </trkpt>
      <trkpt lat="47.13922" lon="5.85926">
        <ele>221.1</ele>
        <time>2019-08-17T15:28:54Z</time>
      </trkpt>
      <trkpt lat="47.13922" lon="5.85919">
        <ele>221.1</ele>
        <time>2019-08-17T15:28:55Z</time>
      </trkpt>
      <trkpt lat="47.13922" lon="5.85912">
        <ele>221</ele>
        <time>2019-08-17T15:28:56Z</time>
      </trkpt>
      <trkpt lat="47.13922" lon="5.85905">
        <ele>221</ele>
        <time>2019-08-17T15:28:57Z</time>
      </trkpt>
      <trkpt lat="47.13923" lon="5.85899">
        <ele>221</ele>
        <time>2019-08-17T15:28:58Z</time>
      </trkpt>
      <trkpt lat="47.13924" lon="5.85893">
        <ele>221</ele>
        <time>2019-08-17T15:28:59Z</time>
      </trkpt>
      <trkpt lat="47.13924" lon="5.85888">
        <ele>221</ele>
        <time>2019-08-17T15:29:00Z</time>
      </trkpt>
      <trkpt lat="47.13925" lon="5.85882">
        <ele>221</ele>
        <time>2019-08-17T15:29:01Z</time>
      </trkpt>
      <trkpt lat="47.13926" lon="5.85876">
        <ele>220.9</ele>
        <time>2019-08-17T15:29:02Z</time>
      </trkpt>
      <trkpt lat="47.13926" lon="5.85869">
        <ele>220.9</ele>
        <time>2019-08-17T15:29:03Z</time>
      </trkpt>
      <trkpt lat="47.13927" lon="5.85863">
        <ele>220.9</ele>
        <time>2019-08-17T15:29:04Z</time>
      </trkpt>
      <trkpt lat="47.13928" lon="5.85857">
        <ele>220.8</ele>
        <time>2019-08-17T15:29:05Z</time>
      </trkpt>
      <trkpt lat="47.13929" lon="5.8585">
        <ele>220.8</ele>
        <time>2019-08-17T15:29:06Z</time>
      </trkpt>
      <trkpt lat="47.13931" lon="5.85843">
        <ele>220.7</ele>
        <time>2019-08-17T15:29:07Z</time>
      </trkpt>
      <trkpt lat="47.13931" lon="5.85837">
        <ele>220.7</ele>
        <time>2019-08-17T15:29:08Z</time>
      </trkpt>
      <trkpt lat="47.13932" lon="5.85831">
        <ele>220.7</ele>
        <time>2019-08-17T15:29:09Z</time>
      </trkpt>
      <trkpt lat="47.13933" lon="5.85826">
        <ele>220.6</ele>
        <time>2019-08-17T15:29:10Z</time>
      </trkpt>
      <trkpt lat="47.13934" lon="5.85819">
        <ele>220.6</ele>
        <time>2019-08-17T15:29:11Z</time>
      </trkpt>
      <trkpt lat="47.13934" lon="5.85813">
        <ele>220.5</ele>
        <time>2019-08-17T15:29:12Z</time>
      </trkpt>
      <trkpt lat="47.13935" lon="5.85806">
        <ele>220.5</ele>
        <time>2019-08-17T15:29:13Z</time>
      </trkpt>
      <trkpt lat="47.13935" lon="5.85799">
        <ele>220.4</ele>
        <time>2019-08-17T15:29:14Z</time>
      </trkpt>
      <trkpt lat="47.13935" lon="5.85792">
        <ele>220.4</ele>
        <time>2019-08-17T15:29:15Z</time>
      </trkpt>
      <trkpt lat="47.13936" lon="5.85785">
        <ele>220.4</ele>
        <time>2019-08-17T15:29:16Z</time>
      </trkpt>
      <trkpt lat="47.13937" lon="5.85778">
        <ele>220.3</ele>
        <time>2019-08-17T15:29:17Z</time>
      </trkpt>
      <trkpt lat="47.13938" lon="5.85771">
        <ele>220.3</ele>
        <time>2019-08-17T15:29:18Z</time>
      </trkpt>
      <trkpt lat="47.13939" lon="5.85765">
        <ele>220.3</ele>
        <time>2019-08-17T15:29:19Z</time>
      </trkpt>
      <trkpt lat="47.1394" lon="5.85758">
        <ele>220.2</ele>
        <time>2019-08-17T15:29:20Z</time>
      </trkpt>
      <trkpt lat="47.1394" lon="5.8575">
        <ele>220.2</ele>
        <time>2019-08-17T15:29:21Z</time>
      </trkpt>
      <trkpt lat="47.13941" lon="5.85743">
        <ele>220.2</ele>
        <time>2019-08-17T15:29:22Z</time>
      </trkpt>
      <trkpt lat="47.13942" lon="5.85736">
        <ele>220.2</ele>
        <time>2019-08-17T15:29:23Z</time>
      </trkpt>
      <trkpt lat="47.13943" lon="5.85729">
        <ele>220.1</ele>
        <time>2019-08-17T15:29:24Z</time>
      </trkpt>
      <trkpt lat="47.13943" lon="5.85722">
        <ele>220.1</ele>
        <time>2019-08-17T15:29:25Z</time>
      </trkpt>
      <trkpt lat="47.13944" lon="5.85714">
        <ele>220.1</ele>
        <time>2019-08-17T15:29:26Z</time>
      </trkpt>
      <trkpt lat="47.13945" lon="5.85707">
        <ele>220.1</ele>
        <time>2019-08-17T15:29:27Z</time>
      </trkpt>
      <trkpt lat="47.13946" lon="5.857">
        <ele>220.1</ele>
        <time>2019-08-17T15:29:28Z</time>
      </trkpt>
      <trkpt lat="47.13947" lon="5.85693">
        <ele>220</ele>
        <time>2019-08-17T15:29:29Z</time>
      </trkpt>
      <trkpt lat="47.13948" lon="5.85686">
        <ele>220</ele>
        <time>2019-08-17T15:29:30Z</time>
      </trkpt>
      <trkpt lat="47.13949" lon="5.85679">
        <ele>220</ele>
        <time>2019-08-17T15:29:31Z</time>
      </trkpt>
      <trkpt lat="47.13949" lon="5.85672">
        <ele>220</ele>
        <time>2019-08-17T15:29:32Z</time>
      </trkpt>
      <trkpt lat="47.13949" lon="5.85665">
        <ele>220</ele>
        <time>2019-08-17T15:29:33Z</time>
      </trkpt>
      <trkpt lat="47.13949" lon="5.85658">
        <ele>219.9</ele>
        <time>2019-08-17T15:29:34Z</time>
      </trkpt>
      <trkpt lat="47.13949" lon="5.85652">
        <ele>219.9</ele>
        <time>2019-08-17T15:29:35Z</time>
      </trkpt>
      <trkpt lat="47.13948" lon="5.85646">
        <ele>219.9</ele>
        <time>2019-08-17T15:29:36Z</time>
      </trkpt>
      <trkpt lat="47.13948" lon="5.8564">
        <ele>219.9</ele>
        <time>2019-08-17T15:29:37Z</time>
      </trkpt>
      <trkpt lat="47.13948" lon="5.85634">
        <ele>219.9</ele>
        <time>2019-08-17T15:29:38Z</time>
      </trkpt>
      <trkpt lat="47.13949" lon="5.85628">
        <ele>219.9</ele>
        <time>2019-08-17T15:29:39Z</time>
      </trkpt>
      <trkpt lat="47.1395" lon="5.85622">
        <ele>219.9</ele>
        <time>2019-08-17T15:29:40Z</time>
      </trkpt>
      <trkpt lat="47.13951" lon="5.85616">
        <ele>219.9</ele>
        <time>2019-08-17T15:29:41Z</time>
      </trkpt>
      <trkpt lat="47.13951" lon="5.85609">
        <ele>219.9</ele>
        <time>2019-08-17T15:29:42Z</time>
      </trkpt>
      <trkpt lat="47.13951" lon="5.85604">
        <ele>219.9</ele>
        <time>2019-08-17T15:29:43Z</time>
      </trkpt>
      <trkpt lat="47.13952" lon="5.85599">
        <ele>219.9</ele>
        <time>2019-08-17T15:29:44Z</time>
      </trkpt>
      <trkpt lat="47.13953" lon="5.85594">
        <ele>219.9</ele>
        <time>2019-08-17T15:29:45Z</time>
      </trkpt>
      <trkpt lat="47.13954" lon="5.85589">
        <ele>219.9</ele>
        <time>2019-08-17T15:29:46Z</time>
      </trkpt>
      <trkpt lat="47.13954" lon="5.85583">
        <ele>219.9</ele>
        <time>2019-08-17T15:29:47Z</time>
      </trkpt>
      <trkpt lat="47.13955" lon="5.85577">
        <ele>219.9</ele>
        <time>2019-08-17T15:29:48Z</time>
      </trkpt>
      <trkpt lat="47.13956" lon="5.85571">
        <ele>219.9</ele>
        <time>2019-08-17T15:29:49Z</time>
      </trkpt>
      <trkpt lat="47.13957" lon="5.85565">
        <ele>219.9</ele>
        <time>2019-08-17T15:29:50Z</time>
      </trkpt>
      <trkpt lat="47.13957" lon="5.85558">
        <ele>219.9</ele>
        <time>2019-08-17T15:29:51Z</time>
      </trkpt>
      <trkpt lat="47.13958" lon="5.85551">
        <ele>219.9</ele>
        <time>2019-08-17T15:29:52Z</time>
      </trkpt>
      <trkpt lat="47.13958" lon="5.85543">
        <ele>220</ele>
        <time>2019-08-17T15:29:53Z</time>
      </trkpt>
      <trkpt lat="47.1396" lon="5.85535">
        <ele>220</ele>
        <time>2019-08-17T15:29:54Z</time>
      </trkpt>
      <trkpt lat="47.1396" lon="5.85528">
        <ele>220</ele>
        <time>2019-08-17T15:29:55Z</time>
      </trkpt>
      <trkpt lat="47.13961" lon="5.85521">
        <ele>220</ele>
        <time>2019-08-17T15:29:56Z</time>
      </trkpt>
      <trkpt lat="47.13961" lon="5.85513">
        <ele>220</ele>
        <time>2019-08-17T15:29:57Z</time>
      </trkpt>
      <trkpt lat="47.1396" lon="5.85507">
        <ele>220</ele>
        <time>2019-08-17T15:29:58Z</time>
      </trkpt>
      <trkpt lat="47.1396" lon="5.85502">
        <ele>220</ele>
        <time>2019-08-17T15:29:59Z</time>
      </trkpt>
      <trkpt lat="47.1396" lon="5.85496">
        <ele>220</ele>
        <time>2019-08-17T15:30:00Z</time>
      </trkpt>
      <trkpt lat="47.13961" lon="5.85491">
        <ele>220.1</ele>
        <time>2019-08-17T15:30:01Z</time>
      </trkpt>
      <trkpt lat="47.13962" lon="5.85485">
        <ele>220.1</ele>
        <time>2019-08-17T15:30:02Z</time>
      </trkpt>
      <trkpt lat="47.13963" lon="5.85478">
        <ele>220.1</ele>
        <time>2019-08-17T15:30:03Z</time>
      </trkpt>
      <trkpt lat="47.13964" lon="5.8547">
        <ele>220.1</ele>
        <time>2019-08-17T15:30:04Z</time>
      </trkpt>
      <trkpt lat="47.13964" lon="5.85463">
        <ele>220.1</ele>
        <time>2019-08-17T15:30:05Z</time>
      </trkpt>
      <trkpt lat="47.13965" lon="5.85455">
        <ele>220.1</ele>
        <time>2019-08-17T15:30:06Z</time>
      </trkpt>
      <trkpt lat="47.13966" lon="5.85447">
        <ele>220.1</ele>
        <time>2019-08-17T15:30:07Z</time>
      </trkpt>
      <trkpt lat="47.13967" lon="5.8544">
        <ele>220</ele>
        <time>2019-08-17T15:30:08Z</time>
      </trkpt>
      <trkpt lat="47.13968" lon="5.85434">
        <ele>220</ele>
        <time>2019-08-17T15:30:09Z</time>
      </trkpt>
      <trkpt lat="47.13968" lon="5.85427">
        <ele>220</ele>
        <time>2019-08-17T15:30:10Z</time>
      </trkpt>
      <trkpt lat="47.13969" lon="5.8542">
        <ele>220</ele>
        <time>2019-08-17T15:30:11Z</time>
      </trkpt>
      <trkpt lat="47.1397" lon="5.85413">
        <ele>220</ele>
        <time>2019-08-17T15:30:12Z</time>
      </trkpt>
      <trkpt lat="47.1397" lon="5.85406">
        <ele>220</ele>
        <time>2019-08-17T15:30:13Z</time>
      </trkpt>
      <trkpt lat="47.1397" lon="5.85399">
        <ele>220</ele>
        <time>2019-08-17T15:30:14Z</time>
      </trkpt>
      <trkpt lat="47.13971" lon="5.85392">
        <ele>220</ele>
        <time>2019-08-17T15:30:15Z</time>
      </trkpt>
      <trkpt lat="47.13971" lon="5.85386">
        <ele>219.9</ele>
        <time>2019-08-17T15:30:16Z</time>
      </trkpt>
      <trkpt lat="47.13972" lon="5.85379">
        <ele>219.9</ele>
        <time>2019-08-17T15:30:17Z</time>
      </trkpt>
      <trkpt lat="47.13972" lon="5.85372">
        <ele>219.9</ele>
        <time>2019-08-17T15:30:18Z</time>
      </trkpt>
      <trkpt lat="47.13973" lon="5.85366">
        <ele>219.9</ele>
        <time>2019-08-17T15:30:19Z</time>
      </trkpt>
      <trkpt lat="47.13973" lon="5.85359">
        <ele>219.9</ele>
        <time>2019-08-17T15:30:20Z</time>
      </trkpt>
      <trkpt lat="47.13974" lon="5.85353">
        <ele>219.9</ele>
        <time>2019-08-17T15:30:21Z</time>
      </trkpt>
      <trkpt lat="47.13974" lon="5.85347">
        <ele>219.9</ele>
        <time>2019-08-17T15:30:22Z</time>
      </trkpt>
      <trkpt lat="47.13974" lon="5.8534">
        <ele>219.9</ele>
        <time>2019-08-17T15:30:23Z</time>
      </trkpt>
      <trkpt lat="47.13974" lon="5.85334">
        <ele>220</ele>
        <time>2019-08-17T15:30:24Z</time>
      </trkpt>
      <trkpt lat="47.13975" lon="5.85327">
        <ele>220</ele>
        <time>2019-08-17T15:30:25Z</time>
      </trkpt>
      <trkpt lat="47.13976" lon="5.8532">
        <ele>220.1</ele>
        <time>2019-08-17T15:30:26Z</time>
      </trkpt>
      <trkpt lat="47.13977" lon="5.85314">
        <ele>220.2</ele>
        <time>2019-08-17T15:30:27Z</time>
      </trkpt>
      <trkpt lat="47.13978" lon="5.85307">
        <ele>220.2</ele>
        <time>2019-08-17T15:30:28Z</time>
      </trkpt>
      <trkpt lat="47.13979" lon="5.85301">
        <ele>220.3</ele>
        <time>2019-08-17T15:30:29Z</time>
      </trkpt>
      <trkpt lat="47.13979" lon="5.85293">
        <ele>220.4</ele>
        <time>2019-08-17T15:30:30Z</time>
      </trkpt>
      <trkpt lat="47.1398" lon="5.85287">
        <ele>220.5</ele>
        <time>2019-08-17T15:30:31Z</time>
      </trkpt>
      <trkpt lat="47.13981" lon="5.85283">
        <ele>220.6</ele>
        <time>2019-08-17T15:30:32Z</time>
      </trkpt>
      <trkpt lat="47.13981" lon="5.85279">
        <ele>220.6</ele>
        <time>2019-08-17T15:30:33Z</time>
      </trkpt>
      <trkpt lat="47.13983" lon="5.85274">
        <ele>220.7</ele>
        <time>2019-08-17T15:30:43Z</time>
      </trkpt>
      <trkpt lat="47.13983" lon="5.8527">
        <ele>220.8</ele>
        <time>2019-08-17T15:30:45Z</time>
      </trkpt>
      <trkpt lat="47.13978" lon="5.85269">
        <ele>220.8</ele>
        <time>2019-08-17T15:30:48Z</time>
      </trkpt>
      <trkpt lat="47.13974" lon="5.85268">
        <ele>220.8</ele>
        <time>2019-08-17T15:30:49Z</time>
      </trkpt>
      <trkpt lat="47.13971" lon="5.85267">
        <ele>220.8</ele>
        <time>2019-08-17T15:30:50Z</time>
      </trkpt>
      <trkpt lat="47.13967" lon="5.85266">
        <ele>220.7</ele>
        <time>2019-08-17T15:30:51Z</time>
      </trkpt>
      <trkpt lat="47.13964" lon="5.85266">
        <ele>220.7</ele>
        <time>2019-08-17T15:30:52Z</time>
      </trkpt>
      <trkpt lat="47.13962" lon="5.85265">
        <ele>220.7</ele>
        <time>2019-08-17T15:30:53Z</time>
      </trkpt>
      <trkpt lat="47.13957" lon="5.8526">
        <ele>220.7</ele>
        <time>2019-08-17T15:30:55Z</time>
      </trkpt>
      <trkpt lat="47.13957" lon="5.85255">
        <ele>220.7</ele>
        <time>2019-08-17T15:30:56Z</time>
      </trkpt>
      <trkpt lat="47.13957" lon="5.85248">
        <ele>220.6</ele>
        <time>2019-08-17T15:30:57Z</time>
      </trkpt>
      <trkpt lat="47.13958" lon="5.85242">
        <ele>220.6</ele>
        <time>2019-08-17T15:30:58Z</time>
      </trkpt>
      <trkpt lat="47.13959" lon="5.85236">
        <ele>220.6</ele>
        <time>2019-08-17T15:30:59Z</time>
      </trkpt>
      <trkpt lat="47.1396" lon="5.85231">
        <ele>220.5</ele>
        <time>2019-08-17T15:31:00Z</time>
      </trkpt>
      <trkpt lat="47.13961" lon="5.85226">
        <ele>220.5</ele>
        <time>2019-08-17T15:31:01Z</time>
      </trkpt>
      <trkpt lat="47.13962" lon="5.85221">
        <ele>220.5</ele>
        <time>2019-08-17T15:31:02Z</time>
      </trkpt>
      <trkpt lat="47.13964" lon="5.85215">
        <ele>220.4</ele>
        <time>2019-08-17T15:31:03Z</time>
      </trkpt>
      <trkpt lat="47.13966" lon="5.8521">
        <ele>220.4</ele>
        <time>2019-08-17T15:31:04Z</time>
      </trkpt>
      <trkpt lat="47.13967" lon="5.85204">
        <ele>220.4</ele>
        <time>2019-08-17T15:31:05Z</time>
      </trkpt>
      <trkpt lat="47.13969" lon="5.85199">
        <ele>220.4</ele>
        <time>2019-08-17T15:31:06Z</time>
      </trkpt>
      <trkpt lat="47.1397" lon="5.85194">
        <ele>220.4</ele>
        <time>2019-08-17T15:31:07Z</time>
      </trkpt>
      <trkpt lat="47.13972" lon="5.85189">
        <ele>220.3</ele>
        <time>2019-08-17T15:31:08Z</time>
      </trkpt>
      <trkpt lat="47.13973" lon="5.85185">
        <ele>220.3</ele>
        <time>2019-08-17T15:31:09Z</time>
      </trkpt>
      <trkpt lat="47.13975" lon="5.85182">
        <ele>220.3</ele>
        <time>2019-08-17T15:31:10Z</time>
      </trkpt>
      <trkpt lat="47.13978" lon="5.85176">
        <ele>220.2</ele>
        <time>2019-08-17T15:31:12Z</time>
      </trkpt>
      <trkpt lat="47.1398" lon="5.85172">
        <ele>220.2</ele>
        <time>2019-08-17T15:31:13Z</time>
      </trkpt>
      <trkpt lat="47.13982" lon="5.85168">
        <ele>220.2</ele>
        <time>2019-08-17T15:31:14Z</time>
      </trkpt>
      <trkpt lat="47.13983" lon="5.85162">
        <ele>220.1</ele>
        <time>2019-08-17T15:31:16Z</time>
      </trkpt>
      <trkpt lat="47.13987" lon="5.85154">
        <ele>220.1</ele>
        <time>2019-08-17T15:31:18Z</time>
      </trkpt>
      <trkpt lat="47.13989" lon="5.85151">
        <ele>220</ele>
        <time>2019-08-17T15:31:19Z</time>
      </trkpt>
      <trkpt lat="47.13991" lon="5.85147">
        <ele>220</ele>
        <time>2019-08-17T15:31:20Z</time>
      </trkpt>
      <trkpt lat="47.13994" lon="5.85143">
        <ele>219.9</ele>
        <time>2019-08-17T15:31:21Z</time>
      </trkpt>
      <trkpt lat="47.13996" lon="5.85139">
        <ele>219.9</ele>
        <time>2019-08-17T15:31:22Z</time>
      </trkpt>
      <trkpt lat="47.14" lon="5.85136">
        <ele>219.9</ele>
        <time>2019-08-17T15:31:23Z</time>
      </trkpt>
      <trkpt lat="47.14002" lon="5.85133">
        <ele>219.8</ele>
        <time>2019-08-17T15:31:24Z</time>
      </trkpt>
      <trkpt lat="47.14004" lon="5.85129">
        <ele>219.8</ele>
        <time>2019-08-17T15:31:25Z</time>
      </trkpt>
      <trkpt lat="47.14007" lon="5.85126">
        <ele>219.7</ele>
        <time>2019-08-17T15:31:26Z</time>
      </trkpt>
      <trkpt lat="47.1401" lon="5.85121">
        <ele>219.7</ele>
        <time>2019-08-17T15:31:27Z</time>
      </trkpt>
      <trkpt lat="47.14012" lon="5.85117">
        <ele>219.6</ele>
        <time>2019-08-17T15:31:28Z</time>
      </trkpt>
      <trkpt lat="47.14015" lon="5.85112">
        <ele>219.6</ele>
        <time>2019-08-17T15:31:29Z</time>
      </trkpt>
      <trkpt lat="47.14018" lon="5.85109">
        <ele>219.6</ele>
        <time>2019-08-17T15:31:30Z</time>
      </trkpt>
      <trkpt lat="47.1402" lon="5.85105">
        <ele>219.5</ele>
        <time>2019-08-17T15:31:31Z</time>
      </trkpt>
      <trkpt lat="47.14025" lon="5.85098">
        <ele>219.4</ele>
        <time>2019-08-17T15:31:33Z</time>
      </trkpt>
      <trkpt lat="47.14027" lon="5.85096">
        <ele>219.4</ele>
        <time>2019-08-17T15:31:34Z</time>
      </trkpt>
      <trkpt lat="47.1403" lon="5.85093">
        <ele>219.3</ele>
        <time>2019-08-17T15:31:35Z</time>
      </trkpt>
      <trkpt lat="47.14032" lon="5.8509">
        <ele>219.3</ele>
        <time>2019-08-17T15:31:36Z</time>
      </trkpt>
      <trkpt lat="47.14034" lon="5.85086">
        <ele>219.2</ele>
        <time>2019-08-17T15:31:37Z</time>
      </trkpt>
      <trkpt lat="47.14036" lon="5.85082">
        <ele>219.1</ele>
        <time>2019-08-17T15:31:38Z</time>
      </trkpt>
      <trkpt lat="47.14041" lon="5.8508">
        <ele>219.2</ele>
        <time>2019-08-17T15:31:40Z</time>
      </trkpt>
      <trkpt lat="47.14046" lon="5.85077">
        <ele>219.2</ele>
        <time>2019-08-17T15:31:42Z</time>
      </trkpt>
      <trkpt lat="47.14049" lon="5.85076">
        <ele>219.3</ele>
        <time>2019-08-17T15:31:44Z</time>
      </trkpt>
      <trkpt lat="47.14056" lon="5.85076">
        <ele>219.4</ele>
        <time>2019-08-17T15:33:30Z</time>
      </trkpt>
      <trkpt lat="47.14059" lon="5.85073">
        <ele>219.4</ele>
        <time>2019-08-17T15:33:32Z</time>
      </trkpt>
      <trkpt lat="47.14063" lon="5.8507">
        <ele>219.5</ele>
        <time>2019-08-17T15:33:34Z</time>
      </trkpt>
      <trkpt lat="47.14066" lon="5.85069">
        <ele>219.5</ele>
        <time>2019-08-17T15:33:35Z</time>
      </trkpt>
      <trkpt lat="47.14069" lon="5.85066">
        <ele>219.5</ele>
        <time>2019-08-17T15:33:36Z</time>
      </trkpt>
      <trkpt lat="47.14071" lon="5.85065">
        <ele>219.6</ele>
        <time>2019-08-17T15:33:37Z</time>
      </trkpt>
      <trkpt lat="47.14074" lon="5.85063">
        <ele>219.6</ele>
        <time>2019-08-17T15:33:38Z</time>
      </trkpt>
      <trkpt lat="47.14077" lon="5.85065">
        <ele>219.6</ele>
        <time>2019-08-17T15:33:39Z</time>
      </trkpt>
      <trkpt lat="47.14079" lon="5.85063">
        <ele>219.6</ele>
        <time>2019-08-17T15:33:40Z</time>
      </trkpt>
      <trkpt lat="47.14082" lon="5.85061">
        <ele>219.6</ele>
        <time>2019-08-17T15:33:41Z</time>
      </trkpt>
      <trkpt lat="47.14086" lon="5.85059">
        <ele>219.6</ele>
        <time>2019-08-17T15:33:42Z</time>
      </trkpt>
      <trkpt lat="47.1409" lon="5.85058">
        <ele>219.6</ele>
        <time>2019-08-17T15:33:43Z</time>
      </trkpt>
      <trkpt lat="47.14093" lon="5.85056">
        <ele>219.6</ele>
        <time>2019-08-17T15:33:44Z</time>
      </trkpt>
      <trkpt lat="47.14096" lon="5.85054">
        <ele>219.6</ele>
        <time>2019-08-17T15:33:45Z</time>
      </trkpt>
      <trkpt lat="47.141" lon="5.85054">
        <ele>219.6</ele>
        <time>2019-08-17T15:33:46Z</time>
      </trkpt>
      <trkpt lat="47.14103" lon="5.8505">
        <ele>219.6</ele>
        <time>2019-08-17T15:33:47Z</time>
      </trkpt>
      <trkpt lat="47.14107" lon="5.8505">
        <ele>219.6</ele>
        <time>2019-08-17T15:33:48Z</time>
      </trkpt>
      <trkpt lat="47.14111" lon="5.8505">
        <ele>219.6</ele>
        <time>2019-08-17T15:33:49Z</time>
      </trkpt>
      <trkpt lat="47.14116" lon="5.85048">
        <ele>219.6</ele>
        <time>2019-08-17T15:33:50Z</time>
      </trkpt>
      <trkpt lat="47.1412" lon="5.85048">
        <ele>219.6</ele>
        <time>2019-08-17T15:33:51Z</time>
      </trkpt>
      <trkpt lat="47.14124" lon="5.85046">
        <ele>219.6</ele>
        <time>2019-08-17T15:33:52Z</time>
      </trkpt>
      <trkpt lat="47.14128" lon="5.85044">
        <ele>219.6</ele>
        <time>2019-08-17T15:33:53Z</time>
      </trkpt>
      <trkpt lat="47.14132" lon="5.85044">
        <ele>219.5</ele>
        <time>2019-08-17T15:33:54Z</time>
      </trkpt>
      <trkpt lat="47.14136" lon="5.85044">
        <ele>219.5</ele>
        <time>2019-08-17T15:33:55Z</time>
      </trkpt>
      <trkpt lat="47.14141" lon="5.85043">
        <ele>219.5</ele>
        <time>2019-08-17T15:33:56Z</time>
      </trkpt>
      <trkpt lat="47.14146" lon="5.85043">
        <ele>219.4</ele>
        <time>2019-08-17T15:33:57Z</time>
      </trkpt>
      <trkpt lat="47.1415" lon="5.85043">
        <ele>219.4</ele>
        <time>2019-08-17T15:33:58Z</time>
      </trkpt>
      <trkpt lat="47.14155" lon="5.85043">
        <ele>219.4</ele>
        <time>2019-08-17T15:33:59Z</time>
      </trkpt>
      <trkpt lat="47.14159" lon="5.85042">
        <ele>219.4</ele>
        <time>2019-08-17T15:34:00Z</time>
      </trkpt>
      <trkpt lat="47.14163" lon="5.85042">
        <ele>219.3</ele>
        <time>2019-08-17T15:34:01Z</time>
      </trkpt>
      <trkpt lat="47.14167" lon="5.85042">
        <ele>219.3</ele>
        <time>2019-08-17T15:34:02Z</time>
      </trkpt>
      <trkpt lat="47.14171" lon="5.85042">
        <ele>219.3</ele>
        <time>2019-08-17T15:34:03Z</time>
      </trkpt>
      <trkpt lat="47.14175" lon="5.85044">
        <ele>219.3</ele>
        <time>2019-08-17T15:34:04Z</time>
      </trkpt>
      <trkpt lat="47.14179" lon="5.85045">
        <ele>219.2</ele>
        <time>2019-08-17T15:34:05Z</time>
      </trkpt>
      <trkpt lat="47.14183" lon="5.85046">
        <ele>219.2</ele>
        <time>2019-08-17T15:34:06Z</time>
      </trkpt>
      <trkpt lat="47.14188" lon="5.85047">
        <ele>219.2</ele>
        <time>2019-08-17T15:34:07Z</time>
      </trkpt>
      <trkpt lat="47.14192" lon="5.85049">
        <ele>219.2</ele>
        <time>2019-08-17T15:34:08Z</time>
      </trkpt>
      <trkpt lat="47.14196" lon="5.8505">
        <ele>219.2</ele>
        <time>2019-08-17T15:34:09Z</time>
      </trkpt>
      <trkpt lat="47.14201" lon="5.85052">
        <ele>219.1</ele>
        <time>2019-08-17T15:34:10Z</time>
      </trkpt>
      <trkpt lat="47.14205" lon="5.85054">
        <ele>219.1</ele>
        <time>2019-08-17T15:34:11Z</time>
      </trkpt>
      <trkpt lat="47.14209" lon="5.85056">
        <ele>219.1</ele>
        <time>2019-08-17T15:34:12Z</time>
      </trkpt>
      <trkpt lat="47.14214" lon="5.85058">
        <ele>219.1</ele>
        <time>2019-08-17T15:34:13Z</time>
      </trkpt>
      <trkpt lat="47.14217" lon="5.85061">
        <ele>219.1</ele>
        <time>2019-08-17T15:34:14Z</time>
      </trkpt>
      <trkpt lat="47.1422" lon="5.85064">
        <ele>219.1</ele>
        <time>2019-08-17T15:34:15Z</time>
      </trkpt>
      <trkpt lat="47.14224" lon="5.85066">
        <ele>219.1</ele>
        <time>2019-08-17T15:34:16Z</time>
      </trkpt>
      <trkpt lat="47.14229" lon="5.85068">
        <ele>219</ele>
        <time>2019-08-17T15:34:17Z</time>
      </trkpt>
      <trkpt lat="47.14232" lon="5.8507">
        <ele>219</ele>
        <time>2019-08-17T15:34:18Z</time>
      </trkpt>
      <trkpt lat="47.14237" lon="5.85073">
        <ele>219</ele>
        <time>2019-08-17T15:34:19Z</time>
      </trkpt>
      <trkpt lat="47.14241" lon="5.85076">
        <ele>219</ele>
        <time>2019-08-17T15:34:20Z</time>
      </trkpt>
      <trkpt lat="47.14245" lon="5.85078">
        <ele>219</ele>
        <time>2019-08-17T15:34:21Z</time>
      </trkpt>
      <trkpt lat="47.14249" lon="5.8508">
        <ele>219</ele>
        <time>2019-08-17T15:34:22Z</time>
      </trkpt>
      <trkpt lat="47.14254" lon="5.85081">
        <ele>219</ele>
        <time>2019-08-17T15:34:23Z</time>
      </trkpt>
      <trkpt lat="47.14258" lon="5.85083">
        <ele>218.9</ele>
        <time>2019-08-17T15:34:24Z</time>
      </trkpt>
      <trkpt lat="47.14263" lon="5.85085">
        <ele>218.9</ele>
        <time>2019-08-17T15:34:25Z</time>
      </trkpt>
      <trkpt lat="47.14266" lon="5.85088">
        <ele>218.9</ele>
        <time>2019-08-17T15:34:26Z</time>
      </trkpt>
      <trkpt lat="47.1427" lon="5.85091">
        <ele>218.9</ele>
        <time>2019-08-17T15:34:27Z</time>
      </trkpt>
      <trkpt lat="47.14274" lon="5.85093">
        <ele>218.9</ele>
        <time>2019-08-17T15:34:28Z</time>
      </trkpt>
      <trkpt lat="47.14279" lon="5.85094">
        <ele>218.9</ele>
        <time>2019-08-17T15:34:29Z</time>
      </trkpt>
      <trkpt lat="47.14282" lon="5.85095">
        <ele>218.9</ele>
        <time>2019-08-17T15:34:30Z</time>
      </trkpt>
      <trkpt lat="47.14286" lon="5.85096">
        <ele>218.8</ele>
        <time>2019-08-17T15:34:31Z</time>
      </trkpt>
      <trkpt lat="47.1429" lon="5.85097">
        <ele>218.8</ele>
        <time>2019-08-17T15:34:32Z</time>
      </trkpt>
      <trkpt lat="47.14294" lon="5.85101">
        <ele>218.8</ele>
        <time>2019-08-17T15:34:33Z</time>
      </trkpt>
      <trkpt lat="47.14298" lon="5.85102">
        <ele>218.8</ele>
        <time>2019-08-17T15:34:34Z</time>
      </trkpt>
      <trkpt lat="47.14302" lon="5.85104">
        <ele>218.8</ele>
        <time>2019-08-17T15:34:35Z</time>
      </trkpt>
      <trkpt lat="47.14307" lon="5.85107">
        <ele>218.8</ele>
        <time>2019-08-17T15:34:36Z</time>
      </trkpt>
      <trkpt lat="47.14311" lon="5.85109">
        <ele>218.7</ele>
        <time>2019-08-17T15:34:37Z</time>
      </trkpt>
      <trkpt lat="47.14315" lon="5.85111">
        <ele>218.7</ele>
        <time>2019-08-17T15:34:38Z</time>
      </trkpt>
      <trkpt lat="47.14319" lon="5.85113">
        <ele>218.7</ele>
        <time>2019-08-17T15:34:39Z</time>
      </trkpt>
      <trkpt lat="47.14324" lon="5.85117">
        <ele>218.7</ele>
        <time>2019-08-17T15:34:40Z</time>
      </trkpt>
      <trkpt lat="47.14328" lon="5.8512">
        <ele>218.7</ele>
        <time>2019-08-17T15:34:41Z</time>
      </trkpt>
      <trkpt lat="47.14332" lon="5.85123">
        <ele>218.7</ele>
        <time>2019-08-17T15:34:42Z</time>
      </trkpt>
      <trkpt lat="47.14337" lon="5.85125">
        <ele>218.6</ele>
        <time>2019-08-17T15:34:43Z</time>
      </trkpt>
      <trkpt lat="47.14342" lon="5.85125">
        <ele>218.6</ele>
        <time>2019-08-17T15:34:44Z</time>
      </trkpt>
      <trkpt lat="47.14346" lon="5.85127">
        <ele>218.6</ele>
        <time>2019-08-17T15:34:45Z</time>
      </trkpt>
      <trkpt lat="47.1435" lon="5.8513">
        <ele>218.6</ele>
        <time>2019-08-17T15:34:46Z</time>
      </trkpt>
      <trkpt lat="47.14355" lon="5.85132">
        <ele>218.5</ele>
        <time>2019-08-17T15:34:47Z</time>
      </trkpt>
      <trkpt lat="47.14359" lon="5.85135">
        <ele>218.5</ele>
        <time>2019-08-17T15:34:48Z</time>
      </trkpt>
      <trkpt lat="47.14362" lon="5.85138">
        <ele>218.5</ele>
        <time>2019-08-17T15:34:49Z</time>
      </trkpt>
      <trkpt lat="47.14367" lon="5.85141">
        <ele>218.5</ele>
        <time>2019-08-17T15:34:50Z</time>
      </trkpt>
      <trkpt lat="47.14371" lon="5.85144">
        <ele>218.4</ele>
        <time>2019-08-17T15:34:51Z</time>
      </trkpt>
      <trkpt lat="47.14376" lon="5.85148">
        <ele>218.4</ele>
        <time>2019-08-17T15:34:52Z</time>
      </trkpt>
      <trkpt lat="47.1438" lon="5.85151">
        <ele>218.4</ele>
        <time>2019-08-17T15:34:53Z</time>
      </trkpt>
      <trkpt lat="47.14385" lon="5.85154">
        <ele>218.4</ele>
        <time>2019-08-17T15:34:54Z</time>
      </trkpt>
      <trkpt lat="47.14389" lon="5.85156">
        <ele>218.3</ele>
        <time>2019-08-17T15:34:55Z</time>
      </trkpt>
      <trkpt lat="47.14393" lon="5.85159">
        <ele>218.3</ele>
        <time>2019-08-17T15:34:56Z</time>
      </trkpt>
      <trkpt lat="47.14398" lon="5.85161">
        <ele>218.3</ele>
        <time>2019-08-17T15:34:57Z</time>
      </trkpt>
      <trkpt lat="47.14402" lon="5.85163">
        <ele>218.3</ele>
        <time>2019-08-17T15:34:58Z</time>
      </trkpt>
      <trkpt lat="47.14406" lon="5.85166">
        <ele>218.3</ele>
        <time>2019-08-17T15:34:59Z</time>
      </trkpt>
      <trkpt lat="47.14412" lon="5.85168">
        <ele>218.3</ele>
        <time>2019-08-17T15:35:00Z</time>
      </trkpt>
      <trkpt lat="47.14416" lon="5.85171">
        <ele>218.3</ele>
        <time>2019-08-17T15:35:01Z</time>
      </trkpt>
      <trkpt lat="47.14421" lon="5.85172">
        <ele>218.2</ele>
        <time>2019-08-17T15:35:02Z</time>
      </trkpt>
      <trkpt lat="47.14425" lon="5.85174">
        <ele>218.2</ele>
        <time>2019-08-17T15:35:03Z</time>
      </trkpt>
      <trkpt lat="47.1443" lon="5.85175">
        <ele>218.2</ele>
        <time>2019-08-17T15:35:04Z</time>
      </trkpt>
      <trkpt lat="47.14435" lon="5.85176">
        <ele>218.2</ele>
        <time>2019-08-17T15:35:05Z</time>
      </trkpt>
      <trkpt lat="47.1444" lon="5.85177">
        <ele>218.2</ele>
        <time>2019-08-17T15:35:06Z</time>
      </trkpt>
      <trkpt lat="47.14445" lon="5.85179">
        <ele>218.2</ele>
        <time>2019-08-17T15:35:07Z</time>
      </trkpt>
      <trkpt lat="47.14449" lon="5.85181">
        <ele>218.2</ele>
        <time>2019-08-17T15:35:08Z</time>
      </trkpt>
      <trkpt lat="47.14454" lon="5.85183">
        <ele>218.2</ele>
        <time>2019-08-17T15:35:09Z</time>
      </trkpt>
      <trkpt lat="47.14458" lon="5.85185">
        <ele>218.2</ele>
        <time>2019-08-17T15:35:10Z</time>
      </trkpt>
      <trkpt lat="47.14462" lon="5.85187">
        <ele>218.2</ele>
        <time>2019-08-17T15:35:11Z</time>
      </trkpt>
      <trkpt lat="47.14467" lon="5.85189">
        <ele>218.2</ele>
        <time>2019-08-17T15:35:12Z</time>
      </trkpt>
      <trkpt lat="47.14472" lon="5.8519">
        <ele>218.2</ele>
        <time>2019-08-17T15:35:13Z</time>
      </trkpt>
      <trkpt lat="47.14477" lon="5.85191">
        <ele>218.2</ele>
        <time>2019-08-17T15:35:14Z</time>
      </trkpt>
      <trkpt lat="47.14481" lon="5.85192">
        <ele>218.2</ele>
        <time>2019-08-17T15:35:15Z</time>
      </trkpt>
      <trkpt lat="47.14486" lon="5.85194">
        <ele>218.2</ele>
        <time>2019-08-17T15:35:16Z</time>
      </trkpt>
      <trkpt lat="47.14491" lon="5.85196">
        <ele>218.2</ele>
        <time>2019-08-17T15:35:17Z</time>
      </trkpt>
      <trkpt lat="47.14495" lon="5.85198">
        <ele>218.2</ele>
        <time>2019-08-17T15:35:18Z</time>
      </trkpt>
      <trkpt lat="47.145" lon="5.85201">
        <ele>218.2</ele>
        <time>2019-08-17T15:35:19Z</time>
      </trkpt>
      <trkpt lat="47.14504" lon="5.85203">
        <ele>218.2</ele>
        <time>2019-08-17T15:35:20Z</time>
      </trkpt>
      <trkpt lat="47.14509" lon="5.85203">
        <ele>218.2</ele>
        <time>2019-08-17T15:35:21Z</time>
      </trkpt>
      <trkpt lat="47.14514" lon="5.85204">
        <ele>218.2</ele>
        <time>2019-08-17T15:35:22Z</time>
      </trkpt>
      <trkpt lat="47.14518" lon="5.85206">
        <ele>218.2</ele>
        <time>2019-08-17T15:35:23Z</time>
      </trkpt>
      <trkpt lat="47.14523" lon="5.85208">
        <ele>218.2</ele>
        <time>2019-08-17T15:35:24Z</time>
      </trkpt>
      <trkpt lat="47.14527" lon="5.8521">
        <ele>218.2</ele>
        <time>2019-08-17T15:35:25Z</time>
      </trkpt>
      <trkpt lat="47.14532" lon="5.85212">
        <ele>218.2</ele>
        <time>2019-08-17T15:35:26Z</time>
      </trkpt>
      <trkpt lat="47.14536" lon="5.85214">
        <ele>218.2</ele>
        <time>2019-08-17T15:35:27Z</time>
      </trkpt>
      <trkpt lat="47.1454" lon="5.85217">
        <ele>218.2</ele>
        <time>2019-08-17T15:35:28Z</time>
      </trkpt>
      <trkpt lat="47.14545" lon="5.8522">
        <ele>218.2</ele>
        <time>2019-08-17T15:35:29Z</time>
      </trkpt>
      <trkpt lat="47.14549" lon="5.85221">
        <ele>218.2</ele>
        <time>2019-08-17T15:35:30Z</time>
      </trkpt>
      <trkpt lat="47.14554" lon="5.85225">
        <ele>218.2</ele>
        <time>2019-08-17T15:35:31Z</time>
      </trkpt>
      <trkpt lat="47.14558" lon="5.85228">
        <ele>218.1</ele>
        <time>2019-08-17T15:35:32Z</time>
      </trkpt>
      <trkpt lat="47.14562" lon="5.85229">
        <ele>218.1</ele>
        <time>2019-08-17T15:35:33Z</time>
      </trkpt>
      <trkpt lat="47.14567" lon="5.85231">
        <ele>218.1</ele>
        <time>2019-08-17T15:35:34Z</time>
      </trkpt>
      <trkpt lat="47.14571" lon="5.85234">
        <ele>218.1</ele>
        <time>2019-08-17T15:35:35Z</time>
      </trkpt>
      <trkpt lat="47.14576" lon="5.85237">
        <ele>218.1</ele>
        <time>2019-08-17T15:35:36Z</time>
      </trkpt>
      <trkpt lat="47.1458" lon="5.8524">
        <ele>218.1</ele>
        <time>2019-08-17T15:35:37Z</time>
      </trkpt>
      <trkpt lat="47.14585" lon="5.85242">
        <ele>218</ele>
        <time>2019-08-17T15:35:38Z</time>
      </trkpt>
      <trkpt lat="47.14589" lon="5.85244">
        <ele>218</ele>
        <time>2019-08-17T15:35:39Z</time>
      </trkpt>
      <trkpt lat="47.14594" lon="5.85246">
        <ele>218</ele>
        <time>2019-08-17T15:35:40Z</time>
      </trkpt>
      <trkpt lat="47.14599" lon="5.85248">
        <ele>218</ele>
        <time>2019-08-17T15:35:41Z</time>
      </trkpt>
      <trkpt lat="47.14602" lon="5.85248">
        <ele>218</ele>
        <time>2019-08-17T15:35:42Z</time>
      </trkpt>
      <trkpt lat="47.14607" lon="5.8525">
        <ele>218</ele>
        <time>2019-08-17T15:35:43Z</time>
      </trkpt>
      <trkpt lat="47.14612" lon="5.85253">
        <ele>218</ele>
        <time>2019-08-17T15:35:44Z</time>
      </trkpt>
      <trkpt lat="47.14617" lon="5.85256">
        <ele>218</ele>
        <time>2019-08-17T15:35:45Z</time>
      </trkpt>
      <trkpt lat="47.14622" lon="5.85258">
        <ele>218</ele>
        <time>2019-08-17T15:35:46Z</time>
      </trkpt>
      <trkpt lat="47.14626" lon="5.8526">
        <ele>218</ele>
        <time>2019-08-17T15:35:47Z</time>
      </trkpt>
      <trkpt lat="47.14631" lon="5.8526">
        <ele>218</ele>
        <time>2019-08-17T15:35:48Z</time>
      </trkpt>
      <trkpt lat="47.14636" lon="5.85262">
        <ele>218</ele>
        <time>2019-08-17T15:35:49Z</time>
      </trkpt>
      <trkpt lat="47.1464" lon="5.85263">
        <ele>218</ele>
        <time>2019-08-17T15:35:50Z</time>
      </trkpt>
      <trkpt lat="47.14645" lon="5.85266">
        <ele>218</ele>
        <time>2019-08-17T15:35:51Z</time>
      </trkpt>
      <trkpt lat="47.1465" lon="5.85268">
        <ele>218</ele>
        <time>2019-08-17T15:35:52Z</time>
      </trkpt>
      <trkpt lat="47.14655" lon="5.8527">
        <ele>218</ele>
        <time>2019-08-17T15:35:53Z</time>
      </trkpt>
      <trkpt lat="47.14659" lon="5.85272">
        <ele>218</ele>
        <time>2019-08-17T15:35:54Z</time>
      </trkpt>
      <trkpt lat="47.14664" lon="5.85274">
        <ele>218</ele>
        <time>2019-08-17T15:35:55Z</time>
      </trkpt>
      <trkpt lat="47.14668" lon="5.85276">
        <ele>218</ele>
        <time>2019-08-17T15:35:56Z</time>
      </trkpt>
      <trkpt lat="47.14672" lon="5.8528">
        <ele>218</ele>
        <time>2019-08-17T15:35:57Z</time>
      </trkpt>
      <trkpt lat="47.14676" lon="5.85281">
        <ele>218</ele>
        <time>2019-08-17T15:35:58Z</time>
      </trkpt>
      <trkpt lat="47.14681" lon="5.85282">
        <ele>218</ele>
        <time>2019-08-17T15:35:59Z</time>
      </trkpt>
      <trkpt lat="47.14686" lon="5.85284">
        <ele>218</ele>
        <time>2019-08-17T15:36:00Z</time>
      </trkpt>
      <trkpt lat="47.1469" lon="5.85285">
        <ele>217.9</ele>
        <time>2019-08-17T15:36:01Z</time>
      </trkpt>
      <trkpt lat="47.14695" lon="5.85287">
        <ele>217.9</ele>
        <time>2019-08-17T15:36:02Z</time>
      </trkpt>
      <trkpt lat="47.14698" lon="5.8529">
        <ele>217.9</ele>
        <time>2019-08-17T15:36:03Z</time>
      </trkpt>
      <trkpt lat="47.14703" lon="5.85292">
        <ele>217.9</ele>
        <time>2019-08-17T15:36:04Z</time>
      </trkpt>
      <trkpt lat="47.14707" lon="5.85295">
        <ele>217.9</ele>
        <time>2019-08-17T15:36:05Z</time>
      </trkpt>
      <trkpt lat="47.14711" lon="5.85298">
        <ele>217.9</ele>
        <time>2019-08-17T15:36:06Z</time>
      </trkpt>
      <trkpt lat="47.14716" lon="5.853">
        <ele>217.8</ele>
        <time>2019-08-17T15:36:07Z</time>
      </trkpt>
      <trkpt lat="47.1472" lon="5.85304">
        <ele>217.8</ele>
        <time>2019-08-17T15:36:08Z</time>
      </trkpt>
      <trkpt lat="47.14724" lon="5.85306">
        <ele>217.8</ele>
        <time>2019-08-17T15:36:09Z</time>
      </trkpt>
      <trkpt lat="47.14729" lon="5.85309">
        <ele>217.8</ele>
        <time>2019-08-17T15:36:10Z</time>
      </trkpt>
      <trkpt lat="47.14734" lon="5.8531">
        <ele>217.8</ele>
        <time>2019-08-17T15:36:11Z</time>
      </trkpt>
      <trkpt lat="47.14739" lon="5.85313">
        <ele>217.8</ele>
        <time>2019-08-17T15:36:12Z</time>
      </trkpt>
      <trkpt lat="47.14744" lon="5.85315">
        <ele>217.8</ele>
        <time>2019-08-17T15:36:13Z</time>
      </trkpt>
      <trkpt lat="47.14749" lon="5.85316">
        <ele>217.8</ele>
        <time>2019-08-17T15:36:14Z</time>
      </trkpt>
      <trkpt lat="47.14753" lon="5.85317">
        <ele>217.8</ele>
        <time>2019-08-17T15:36:15Z</time>
      </trkpt>
      <trkpt lat="47.14757" lon="5.8532">
        <ele>217.8</ele>
        <time>2019-08-17T15:36:16Z</time>
      </trkpt>
      <trkpt lat="47.14762" lon="5.85323">
        <ele>217.8</ele>
        <time>2019-08-17T15:36:17Z</time>
      </trkpt>
      <trkpt lat="47.14766" lon="5.85325">
        <ele>217.7</ele>
        <time>2019-08-17T15:36:18Z</time>
      </trkpt>
      <trkpt lat="47.1477" lon="5.85327">
        <ele>217.7</ele>
        <time>2019-08-17T15:36:19Z</time>
      </trkpt>
      <trkpt lat="47.14774" lon="5.8533">
        <ele>217.7</ele>
        <time>2019-08-17T15:36:20Z</time>
      </trkpt>
      <trkpt lat="47.14779" lon="5.85332">
        <ele>217.7</ele>
        <time>2019-08-17T15:36:21Z</time>
      </trkpt>
      <trkpt lat="47.14783" lon="5.85335">
        <ele>217.7</ele>
        <time>2019-08-17T15:36:22Z</time>
      </trkpt>
      <trkpt lat="47.14787" lon="5.85338">
        <ele>217.7</ele>
        <time>2019-08-17T15:36:23Z</time>
      </trkpt>
      <trkpt lat="47.14791" lon="5.8534">
        <ele>217.7</ele>
        <time>2019-08-17T15:36:24Z</time>
      </trkpt>
      <trkpt lat="47.14795" lon="5.85341">
        <ele>217.7</ele>
        <time>2019-08-17T15:36:25Z</time>
      </trkpt>
      <trkpt lat="47.148" lon="5.85343">
        <ele>217.7</ele>
        <time>2019-08-17T15:36:26Z</time>
      </trkpt>
      <trkpt lat="47.14804" lon="5.85345">
        <ele>217.7</ele>
        <time>2019-08-17T15:36:27Z</time>
      </trkpt>
      <trkpt lat="47.14809" lon="5.85346">
        <ele>217.7</ele>
        <time>2019-08-17T15:36:28Z</time>
      </trkpt>
      <trkpt lat="47.14813" lon="5.85348">
        <ele>217.7</ele>
        <time>2019-08-17T15:36:29Z</time>
      </trkpt>
      <trkpt lat="47.14817" lon="5.8535">
        <ele>217.7</ele>
        <time>2019-08-17T15:36:30Z</time>
      </trkpt>
      <trkpt lat="47.1482" lon="5.85352">
        <ele>217.7</ele>
        <time>2019-08-17T15:36:31Z</time>
      </trkpt>
      <trkpt lat="47.14824" lon="5.85354">
        <ele>217.7</ele>
        <time>2019-08-17T15:36:32Z</time>
      </trkpt>
      <trkpt lat="47.14827" lon="5.85356">
        <ele>217.7</ele>
        <time>2019-08-17T15:36:33Z</time>
      </trkpt>
      <trkpt lat="47.1483" lon="5.85358">
        <ele>217.6</ele>
        <time>2019-08-17T15:36:34Z</time>
      </trkpt>
      <trkpt lat="47.14835" lon="5.85362">
        <ele>217.6</ele>
        <time>2019-08-17T15:36:35Z</time>
      </trkpt>
      <trkpt lat="47.14839" lon="5.85364">
        <ele>217.6</ele>
        <time>2019-08-17T15:36:36Z</time>
      </trkpt>
      <trkpt lat="47.14843" lon="5.85367">
        <ele>217.6</ele>
        <time>2019-08-17T15:36:37Z</time>
      </trkpt>
      <trkpt lat="47.14848" lon="5.8537">
        <ele>217.6</ele>
        <time>2019-08-17T15:36:38Z</time>
      </trkpt>
      <trkpt lat="47.14853" lon="5.85372">
        <ele>217.6</ele>
        <time>2019-08-17T15:36:39Z</time>
      </trkpt>
      <trkpt lat="47.14857" lon="5.85375">
        <ele>217.6</ele>
        <time>2019-08-17T15:36:40Z</time>
      </trkpt>
      <trkpt lat="47.14863" lon="5.85377">
        <ele>217.6</ele>
        <time>2019-08-17T15:36:41Z</time>
      </trkpt>
      <trkpt lat="47.14868" lon="5.85379">
        <ele>217.6</ele>
        <time>2019-08-17T15:36:42Z</time>
      </trkpt>
      <trkpt lat="47.14872" lon="5.85382">
        <ele>217.6</ele>
        <time>2019-08-17T15:36:43Z</time>
      </trkpt>
      <trkpt lat="47.14877" lon="5.85384">
        <ele>217.6</ele>
        <time>2019-08-17T15:36:44Z</time>
      </trkpt>
      <trkpt lat="47.14881" lon="5.85386">
        <ele>217.6</ele>
        <time>2019-08-17T15:36:45Z</time>
      </trkpt>
      <trkpt lat="47.14886" lon="5.85388">
        <ele>217.6</ele>
        <time>2019-08-17T15:36:46Z</time>
      </trkpt>
      <trkpt lat="47.14891" lon="5.8539">
        <ele>217.6</ele>
        <time>2019-08-17T15:36:47Z</time>
      </trkpt>
      <trkpt lat="47.14895" lon="5.85393">
        <ele>217.6</ele>
        <time>2019-08-17T15:36:48Z</time>
      </trkpt>
      <trkpt lat="47.149" lon="5.85394">
        <ele>217.6</ele>
        <time>2019-08-17T15:36:49Z</time>
      </trkpt>
      <trkpt lat="47.14904" lon="5.85396">
        <ele>217.6</ele>
        <time>2019-08-17T15:36:50Z</time>
      </trkpt>
      <trkpt lat="47.14909" lon="5.85398">
        <ele>217.6</ele>
        <time>2019-08-17T15:36:51Z</time>
      </trkpt>
      <trkpt lat="47.14913" lon="5.85401">
        <ele>217.6</ele>
        <time>2019-08-17T15:36:52Z</time>
      </trkpt>
      <trkpt lat="47.14918" lon="5.85404">
        <ele>217.6</ele>
        <time>2019-08-17T15:36:53Z</time>
      </trkpt>
      <trkpt lat="47.14922" lon="5.85406">
        <ele>217.6</ele>
        <time>2019-08-17T15:36:54Z</time>
      </trkpt>
      <trkpt lat="47.14928" lon="5.85409">
        <ele>217.5</ele>
        <time>2019-08-17T15:36:55Z</time>
      </trkpt>
      <trkpt lat="47.14933" lon="5.8541">
        <ele>217.5</ele>
        <time>2019-08-17T15:36:56Z</time>
      </trkpt>
      <trkpt lat="47.14937" lon="5.85412">
        <ele>217.5</ele>
        <time>2019-08-17T15:36:57Z</time>
      </trkpt>
      <trkpt lat="47.14941" lon="5.85414">
        <ele>217.5</ele>
        <time>2019-08-17T15:36:58Z</time>
      </trkpt>
      <trkpt lat="47.14945" lon="5.85416">
        <ele>217.5</ele>
        <time>2019-08-17T15:36:59Z</time>
      </trkpt>
      <trkpt lat="47.14949" lon="5.85419">
        <ele>217.4</ele>
        <time>2019-08-17T15:37:00Z</time>
      </trkpt>
      <trkpt lat="47.14953" lon="5.85421">
        <ele>217.4</ele>
        <time>2019-08-17T15:37:01Z</time>
      </trkpt>
      <trkpt lat="47.14957" lon="5.85423">
        <ele>217.4</ele>
        <time>2019-08-17T15:37:02Z</time>
      </trkpt>
      <trkpt lat="47.14961" lon="5.85424">
        <ele>217.4</ele>
        <time>2019-08-17T15:37:03Z</time>
      </trkpt>
      <trkpt lat="47.14966" lon="5.85425">
        <ele>217.4</ele>
        <time>2019-08-17T15:37:04Z</time>
      </trkpt>
      <trkpt lat="47.1497" lon="5.85427">
        <ele>217.4</ele>
        <time>2019-08-17T15:37:05Z</time>
      </trkpt>
      <trkpt lat="47.14976" lon="5.8543">
        <ele>217.4</ele>
        <time>2019-08-17T15:37:06Z</time>
      </trkpt>
      <trkpt lat="47.1498" lon="5.85433">
        <ele>217.3</ele>
        <time>2019-08-17T15:37:07Z</time>
      </trkpt>
      <trkpt lat="47.14985" lon="5.85435">
        <ele>217.3</ele>
        <time>2019-08-17T15:37:08Z</time>
      </trkpt>
      <trkpt lat="47.1499" lon="5.85438">
        <ele>217.3</ele>
        <time>2019-08-17T15:37:09Z</time>
      </trkpt>
      <trkpt lat="47.14995" lon="5.8544">
        <ele>217.3</ele>
        <time>2019-08-17T15:37:10Z</time>
      </trkpt>
      <trkpt lat="47.15" lon="5.85443">
        <ele>217.3</ele>
        <time>2019-08-17T15:37:11Z</time>
      </trkpt>
      <trkpt lat="47.15005" lon="5.85446">
        <ele>217.3</ele>
        <time>2019-08-17T15:37:12Z</time>
      </trkpt>
      <trkpt lat="47.15009" lon="5.85449">
        <ele>217.3</ele>
        <time>2019-08-17T15:37:13Z</time>
      </trkpt>
      <trkpt lat="47.15013" lon="5.8545">
        <ele>217.3</ele>
        <time>2019-08-17T15:37:14Z</time>
      </trkpt>
      <trkpt lat="47.15018" lon="5.8545">
        <ele>217.3</ele>
        <time>2019-08-17T15:37:15Z</time>
      </trkpt>
      <trkpt lat="47.15023" lon="5.85452">
        <ele>217.3</ele>
        <time>2019-08-17T15:37:16Z</time>
      </trkpt>
      <trkpt lat="47.15027" lon="5.85453">
        <ele>217.3</ele>
        <time>2019-08-17T15:37:17Z</time>
      </trkpt>
      <trkpt lat="47.15032" lon="5.85455">
        <ele>217.3</ele>
        <time>2019-08-17T15:37:18Z</time>
      </trkpt>
      <trkpt lat="47.15036" lon="5.85456">
        <ele>217.3</ele>
        <time>2019-08-17T15:37:19Z</time>
      </trkpt>
      <trkpt lat="47.15041" lon="5.85458">
        <ele>217.3</ele>
        <time>2019-08-17T15:37:20Z</time>
      </trkpt>
      <trkpt lat="47.15045" lon="5.85461">
        <ele>217.3</ele>
        <time>2019-08-17T15:37:21Z</time>
      </trkpt>
      <trkpt lat="47.15049" lon="5.85463">
        <ele>217.3</ele>
        <time>2019-08-17T15:37:22Z</time>
      </trkpt>
      <trkpt lat="47.15053" lon="5.85466">
        <ele>217.3</ele>
        <time>2019-08-17T15:37:23Z</time>
      </trkpt>
      <trkpt lat="47.15058" lon="5.85468">
        <ele>217.3</ele>
        <time>2019-08-17T15:37:24Z</time>
      </trkpt>
      <trkpt lat="47.15062" lon="5.8547">
        <ele>217.3</ele>
        <time>2019-08-17T15:37:25Z</time>
      </trkpt>
      <trkpt lat="47.15067" lon="5.85472">
        <ele>217.3</ele>
        <time>2019-08-17T15:37:26Z</time>
      </trkpt>
      <trkpt lat="47.15071" lon="5.85473">
        <ele>217.3</ele>
        <time>2019-08-17T15:37:27Z</time>
      </trkpt>
      <trkpt lat="47.15076" lon="5.85475">
        <ele>217.3</ele>
        <time>2019-08-17T15:37:28Z</time>
      </trkpt>
      <trkpt lat="47.15081" lon="5.85478">
        <ele>217.3</ele>
        <time>2019-08-17T15:37:29Z</time>
      </trkpt>
      <trkpt lat="47.15086" lon="5.85479">
        <ele>217.3</ele>
        <time>2019-08-17T15:37:30Z</time>
      </trkpt>
      <trkpt lat="47.1509" lon="5.85482">
        <ele>217.3</ele>
        <time>2019-08-17T15:37:31Z</time>
      </trkpt>
      <trkpt lat="47.15094" lon="5.85485">
        <ele>217.3</ele>
        <time>2019-08-17T15:37:32Z</time>
      </trkpt>
      <trkpt lat="47.15099" lon="5.85488">
        <ele>217.3</ele>
        <time>2019-08-17T15:37:33Z</time>
      </trkpt>
      <trkpt lat="47.15104" lon="5.85491">
        <ele>217.3</ele>
        <time>2019-08-17T15:37:34Z</time>
      </trkpt>
      <trkpt lat="47.15109" lon="5.85494">
        <ele>217.3</ele>
        <time>2019-08-17T15:37:35Z</time>
      </trkpt>
      <trkpt lat="47.15113" lon="5.85497">
        <ele>217.3</ele>
        <time>2019-08-17T15:37:36Z</time>
      </trkpt>
      <trkpt lat="47.15119" lon="5.85498">
        <ele>217.3</ele>
        <time>2019-08-17T15:37:37Z</time>
      </trkpt>
      <trkpt lat="47.15123" lon="5.85501">
        <ele>217.3</ele>
        <time>2019-08-17T15:37:38Z</time>
      </trkpt>
      <trkpt lat="47.15127" lon="5.85504">
        <ele>217.2</ele>
        <time>2019-08-17T15:37:39Z</time>
      </trkpt>
      <trkpt lat="47.15131" lon="5.85506">
        <ele>217.2</ele>
        <time>2019-08-17T15:37:40Z</time>
      </trkpt>
      <trkpt lat="47.15136" lon="5.85509">
        <ele>217.2</ele>
        <time>2019-08-17T15:37:41Z</time>
      </trkpt>
      <trkpt lat="47.1514" lon="5.85511">
        <ele>217.2</ele>
        <time>2019-08-17T15:37:42Z</time>
      </trkpt>
      <trkpt lat="47.15145" lon="5.85514">
        <ele>217.2</ele>
        <time>2019-08-17T15:37:43Z</time>
      </trkpt>
      <trkpt lat="47.15149" lon="5.85516">
        <ele>217.2</ele>
        <time>2019-08-17T15:37:44Z</time>
      </trkpt>
      <trkpt lat="47.15153" lon="5.85518">
        <ele>217.2</ele>
        <time>2019-08-17T15:37:45Z</time>
      </trkpt>
      <trkpt lat="47.15157" lon="5.85521">
        <ele>217.2</ele>
        <time>2019-08-17T15:37:46Z</time>
      </trkpt>
      <trkpt lat="47.15162" lon="5.85523">
        <ele>217.2</ele>
        <time>2019-08-17T15:37:47Z</time>
      </trkpt>
      <trkpt lat="47.15166" lon="5.85524">
        <ele>217.2</ele>
        <time>2019-08-17T15:37:48Z</time>
      </trkpt>
      <trkpt lat="47.15171" lon="5.85526">
        <ele>217.2</ele>
        <time>2019-08-17T15:37:49Z</time>
      </trkpt>
      <trkpt lat="47.15175" lon="5.85526">
        <ele>217.2</ele>
        <time>2019-08-17T15:37:50Z</time>
      </trkpt>
      <trkpt lat="47.1518" lon="5.85528">
        <ele>217.2</ele>
        <time>2019-08-17T15:37:51Z</time>
      </trkpt>
      <trkpt lat="47.15184" lon="5.85529">
        <ele>217.2</ele>
        <time>2019-08-17T15:37:52Z</time>
      </trkpt>
      <trkpt lat="47.15189" lon="5.85532">
        <ele>217.2</ele>
        <time>2019-08-17T15:37:53Z</time>
      </trkpt>
      <trkpt lat="47.15194" lon="5.85534">
        <ele>217.1</ele>
        <time>2019-08-17T15:37:54Z</time>
      </trkpt>
      <trkpt lat="47.15198" lon="5.85537">
        <ele>217.1</ele>
        <time>2019-08-17T15:37:55Z</time>
      </trkpt>
      <trkpt lat="47.15203" lon="5.85541">
        <ele>217.1</ele>
        <time>2019-08-17T15:37:56Z</time>
      </trkpt>
      <trkpt lat="47.15207" lon="5.85542">
        <ele>217.1</ele>
        <time>2019-08-17T15:37:57Z</time>
      </trkpt>
      <trkpt lat="47.15211" lon="5.85541">
        <ele>217.1</ele>
        <time>2019-08-17T15:37:58Z</time>
      </trkpt>
      <trkpt lat="47.15215" lon="5.85543">
        <ele>217.1</ele>
        <time>2019-08-17T15:37:59Z</time>
      </trkpt>
      <trkpt lat="47.15219" lon="5.85544">
        <ele>217.1</ele>
        <time>2019-08-17T15:38:00Z</time>
      </trkpt>
      <trkpt lat="47.15223" lon="5.85548">
        <ele>217.1</ele>
        <time>2019-08-17T15:38:01Z</time>
      </trkpt>
      <trkpt lat="47.15227" lon="5.85551">
        <ele>217.1</ele>
        <time>2019-08-17T15:38:02Z</time>
      </trkpt>
      <trkpt lat="47.15232" lon="5.85553">
        <ele>217.1</ele>
        <time>2019-08-17T15:38:03Z</time>
      </trkpt>
      <trkpt lat="47.15237" lon="5.85556">
        <ele>217.1</ele>
        <time>2019-08-17T15:38:04Z</time>
      </trkpt>
      <trkpt lat="47.15242" lon="5.85559">
        <ele>217.1</ele>
        <time>2019-08-17T15:38:05Z</time>
      </trkpt>
      <trkpt lat="47.15246" lon="5.8556">
        <ele>217.1</ele>
        <time>2019-08-17T15:38:06Z</time>
      </trkpt>
      <trkpt lat="47.15251" lon="5.85563">
        <ele>217.1</ele>
        <time>2019-08-17T15:38:07Z</time>
      </trkpt>
      <trkpt lat="47.15255" lon="5.85566">
        <ele>217.1</ele>
        <time>2019-08-17T15:38:08Z</time>
      </trkpt>
      <trkpt lat="47.15259" lon="5.85568">
        <ele>217.1</ele>
        <time>2019-08-17T15:38:09Z</time>
      </trkpt>
      <trkpt lat="47.15263" lon="5.8557">
        <ele>217.1</ele>
        <time>2019-08-17T15:38:10Z</time>
      </trkpt>
      <trkpt lat="47.15267" lon="5.85573">
        <ele>217.1</ele>
        <time>2019-08-17T15:38:11Z</time>
      </trkpt>
      <trkpt lat="47.15271" lon="5.85576">
        <ele>217.1</ele>
        <time>2019-08-17T15:38:12Z</time>
      </trkpt>
      <trkpt lat="47.15275" lon="5.85579">
        <ele>217.1</ele>
        <time>2019-08-17T15:38:13Z</time>
      </trkpt>
      <trkpt lat="47.15279" lon="5.85581">
        <ele>217.1</ele>
        <time>2019-08-17T15:38:14Z</time>
      </trkpt>
      <trkpt lat="47.15284" lon="5.85584">
        <ele>217</ele>
        <time>2019-08-17T15:38:15Z</time>
      </trkpt>
      <trkpt lat="47.15289" lon="5.85587">
        <ele>217</ele>
        <time>2019-08-17T15:38:16Z</time>
      </trkpt>
      <trkpt lat="47.15294" lon="5.85591">
        <ele>217</ele>
        <time>2019-08-17T15:38:17Z</time>
      </trkpt>
      <trkpt lat="47.15299" lon="5.85593">
        <ele>217</ele>
        <time>2019-08-17T15:38:18Z</time>
      </trkpt>
      <trkpt lat="47.15304" lon="5.85595">
        <ele>217</ele>
        <time>2019-08-17T15:38:19Z</time>
      </trkpt>
      <trkpt lat="47.15308" lon="5.85597">
        <ele>217</ele>
        <time>2019-08-17T15:38:20Z</time>
      </trkpt>
      <trkpt lat="47.15312" lon="5.85599">
        <ele>217</ele>
        <time>2019-08-17T15:38:21Z</time>
      </trkpt>
      <trkpt lat="47.15316" lon="5.85601">
        <ele>217</ele>
        <time>2019-08-17T15:38:22Z</time>
      </trkpt>
      <trkpt lat="47.15321" lon="5.85604">
        <ele>217</ele>
        <time>2019-08-17T15:38:23Z</time>
      </trkpt>
      <trkpt lat="47.15326" lon="5.85606">
        <ele>217</ele>
        <time>2019-08-17T15:38:24Z</time>
      </trkpt>
      <trkpt lat="47.15331" lon="5.85609">
        <ele>217</ele>
        <time>2019-08-17T15:38:25Z</time>
      </trkpt>
      <trkpt lat="47.15336" lon="5.8561">
        <ele>217</ele>
        <time>2019-08-17T15:38:26Z</time>
      </trkpt>
      <trkpt lat="47.15342" lon="5.85612">
        <ele>217</ele>
        <time>2019-08-17T15:38:27Z</time>
      </trkpt>
      <trkpt lat="47.15347" lon="5.85615">
        <ele>217</ele>
        <time>2019-08-17T15:38:28Z</time>
      </trkpt>
      <trkpt lat="47.15352" lon="5.85617">
        <ele>217</ele>
        <time>2019-08-17T15:38:29Z</time>
      </trkpt>
      <trkpt lat="47.15357" lon="5.85619">
        <ele>217</ele>
        <time>2019-08-17T15:38:30Z</time>
      </trkpt>
      <trkpt lat="47.15361" lon="5.8562">
        <ele>217</ele>
        <time>2019-08-17T15:38:31Z</time>
      </trkpt>
      <trkpt lat="47.15366" lon="5.8562">
        <ele>217</ele>
        <time>2019-08-17T15:38:32Z</time>
      </trkpt>
      <trkpt lat="47.1537" lon="5.8562">
        <ele>217</ele>
        <time>2019-08-17T15:38:33Z</time>
      </trkpt>
      <trkpt lat="47.15374" lon="5.85621">
        <ele>217</ele>
        <time>2019-08-17T15:38:34Z</time>
      </trkpt>
      <trkpt lat="47.15379" lon="5.85621">
        <ele>217</ele>
        <time>2019-08-17T15:38:35Z</time>
      </trkpt>
      <trkpt lat="47.15384" lon="5.85622">
        <ele>217</ele>
        <time>2019-08-17T15:38:36Z</time>
      </trkpt>
      <trkpt lat="47.15388" lon="5.85622">
        <ele>217</ele>
        <time>2019-08-17T15:38:37Z</time>
      </trkpt>
      <trkpt lat="47.15393" lon="5.85622">
        <ele>217</ele>
        <time>2019-08-17T15:38:38Z</time>
      </trkpt>
      <trkpt lat="47.15398" lon="5.85622">
        <ele>217</ele>
        <time>2019-08-17T15:38:39Z</time>
      </trkpt>
      <trkpt lat="47.15403" lon="5.85624">
        <ele>217</ele>
        <time>2019-08-17T15:38:40Z</time>
      </trkpt>
      <trkpt lat="47.15408" lon="5.85624">
        <ele>217</ele>
        <time>2019-08-17T15:38:41Z</time>
      </trkpt>
      <trkpt lat="47.15413" lon="5.85624">
        <ele>217</ele>
        <time>2019-08-17T15:38:42Z</time>
      </trkpt>
      <trkpt lat="47.15417" lon="5.85625">
        <ele>217</ele>
        <time>2019-08-17T15:38:43Z</time>
      </trkpt>
      <trkpt lat="47.15421" lon="5.85626">
        <ele>217</ele>
        <time>2019-08-17T15:38:44Z</time>
      </trkpt>
      <trkpt lat="47.15426" lon="5.85625">
        <ele>216.9</ele>
        <time>2019-08-17T15:38:45Z</time>
      </trkpt>
      <trkpt lat="47.15429" lon="5.85626">
        <ele>216.9</ele>
        <time>2019-08-17T15:38:46Z</time>
      </trkpt>
      <trkpt lat="47.15434" lon="5.85626">
        <ele>216.9</ele>
        <time>2019-08-17T15:38:47Z</time>
      </trkpt>
      <trkpt lat="47.15439" lon="5.85626">
        <ele>216.9</ele>
        <time>2019-08-17T15:38:48Z</time>
      </trkpt>
      <trkpt lat="47.15443" lon="5.85626">
        <ele>216.9</ele>
        <time>2019-08-17T15:38:49Z</time>
      </trkpt>
      <trkpt lat="47.15447" lon="5.85627">
        <ele>216.8</ele>
        <time>2019-08-17T15:38:50Z</time>
      </trkpt>
      <trkpt lat="47.15452" lon="5.85627">
        <ele>216.8</ele>
        <time>2019-08-17T15:38:51Z</time>
      </trkpt>
      <trkpt lat="47.15456" lon="5.85627">
        <ele>216.8</ele>
        <time>2019-08-17T15:38:52Z</time>
      </trkpt>
      <trkpt lat="47.15461" lon="5.85626">
        <ele>216.8</ele>
        <time>2019-08-17T15:38:53Z</time>
      </trkpt>
      <trkpt lat="47.15467" lon="5.85624">
        <ele>216.8</ele>
        <time>2019-08-17T15:38:54Z</time>
      </trkpt>
      <trkpt lat="47.15472" lon="5.85624">
        <ele>216.8</ele>
        <time>2019-08-17T15:38:55Z</time>
      </trkpt>
      <trkpt lat="47.15478" lon="5.85623">
        <ele>216.8</ele>
        <time>2019-08-17T15:38:56Z</time>
      </trkpt>
      <trkpt lat="47.15483" lon="5.85625">
        <ele>216.8</ele>
        <time>2019-08-17T15:38:57Z</time>
      </trkpt>
      <trkpt lat="47.15487" lon="5.85626">
        <ele>216.8</ele>
        <time>2019-08-17T15:38:58Z</time>
      </trkpt>
      <trkpt lat="47.15493" lon="5.85626">
        <ele>216.9</ele>
        <time>2019-08-17T15:38:59Z</time>
      </trkpt>
      <trkpt lat="47.15498" lon="5.85626">
        <ele>216.9</ele>
        <time>2019-08-17T15:39:00Z</time>
      </trkpt>
      <trkpt lat="47.15503" lon="5.85626">
        <ele>217</ele>
        <time>2019-08-17T15:39:01Z</time>
      </trkpt>
      <trkpt lat="47.15508" lon="5.85627">
        <ele>217.1</ele>
        <time>2019-08-17T15:39:02Z</time>
      </trkpt>
      <trkpt lat="47.15512" lon="5.85628">
        <ele>217.1</ele>
        <time>2019-08-17T15:39:03Z</time>
      </trkpt>
      <trkpt lat="47.15517" lon="5.85629">
        <ele>217.2</ele>
        <time>2019-08-17T15:39:04Z</time>
      </trkpt>
      <trkpt lat="47.15521" lon="5.85629">
        <ele>217.3</ele>
        <time>2019-08-17T15:39:05Z</time>
      </trkpt>
      <trkpt lat="47.15525" lon="5.85628">
        <ele>217.4</ele>
        <time>2019-08-17T15:39:06Z</time>
      </trkpt>
      <trkpt lat="47.15529" lon="5.85627">
        <ele>217.5</ele>
        <time>2019-08-17T15:39:07Z</time>
      </trkpt>
      <trkpt lat="47.15533" lon="5.85625">
        <ele>217.7</ele>
        <time>2019-08-17T15:39:08Z</time>
      </trkpt>
      <trkpt lat="47.15538" lon="5.85623">
        <ele>217.8</ele>
        <time>2019-08-17T15:39:09Z</time>
      </trkpt>
      <trkpt lat="47.15543" lon="5.85622">
        <ele>218.1</ele>
        <time>2019-08-17T15:39:10Z</time>
      </trkpt>
      <trkpt lat="47.15548" lon="5.8562">
        <ele>218.3</ele>
        <time>2019-08-17T15:39:11Z</time>
      </trkpt>
      <trkpt lat="47.15553" lon="5.85619">
        <ele>218.6</ele>
        <time>2019-08-17T15:39:12Z</time>
      </trkpt>
      <trkpt lat="47.15558" lon="5.8562">
        <ele>218.8</ele>
        <time>2019-08-17T15:39:13Z</time>
      </trkpt>
      <trkpt lat="47.15561" lon="5.85618">
        <ele>219.1</ele>
        <time>2019-08-17T15:39:14Z</time>
      </trkpt>
      <trkpt lat="47.15564" lon="5.85618">
        <ele>219.2</ele>
        <time>2019-08-17T15:39:15Z</time>
      </trkpt>
      <trkpt lat="47.15567" lon="5.85617">
        <ele>219.4</ele>
        <time>2019-08-17T15:39:16Z</time>
      </trkpt>
      <trkpt lat="47.15572" lon="5.85621">
        <ele>219.8</ele>
        <time>2019-08-17T15:39:18Z</time>
      </trkpt>
      <trkpt lat="47.15575" lon="5.85625">
        <ele>220.1</ele>
        <time>2019-08-17T15:39:20Z</time>
      </trkpt>
      <trkpt lat="47.15576" lon="5.85631">
        <ele>220.4</ele>
        <time>2019-08-17T15:39:22Z</time>
      </trkpt>
      <trkpt lat="47.15578" lon="5.85636">
        <ele>221.1</ele>
        <time>2019-08-17T15:39:24Z</time>
      </trkpt>
      <trkpt lat="47.15577" lon="5.85641">
        <ele>221.7</ele>
        <time>2019-08-17T15:39:25Z</time>
      </trkpt>
      <trkpt lat="47.15577" lon="5.85646">
        <ele>222.3</ele>
        <time>2019-08-17T15:39:28Z</time>
      </trkpt>
      <trkpt lat="47.15577" lon="5.8565">
        <ele>222.8</ele>
        <time>2019-08-17T15:39:30Z</time>
      </trkpt>
      <trkpt lat="47.15575" lon="5.85653">
        <ele>225.5</ele>
        <time>2019-08-17T15:39:32Z</time>
      </trkpt>
      <trkpt lat="47.15579" lon="5.85661">
        <ele>225.1</ele>
        <time>2019-08-17T15:39:34Z</time>
      </trkpt>
      <trkpt lat="47.15583" lon="5.85666">
        <ele>224.8</ele>
        <time>2019-08-17T15:39:35Z</time>
      </trkpt>
      <trkpt lat="47.1559" lon="5.85672">
        <ele>224.3</ele>
        <time>2019-08-17T15:39:36Z</time>
      </trkpt>
      <trkpt lat="47.15596" lon="5.85676">
        <ele>223.9</ele>
        <time>2019-08-17T15:39:37Z</time>
      </trkpt>
      <trkpt lat="47.15603" lon="5.85677">
        <ele>223.5</ele>
        <time>2019-08-17T15:39:38Z</time>
      </trkpt>
      <trkpt lat="47.15609" lon="5.85675">
        <ele>223.2</ele>
        <time>2019-08-17T15:39:39Z</time>
      </trkpt>
      <trkpt lat="47.15615" lon="5.8567">
        <ele>222.9</ele>
        <time>2019-08-17T15:39:40Z</time>
      </trkpt>
      <trkpt lat="47.15621" lon="5.85666">
        <ele>222.6</ele>
        <time>2019-08-17T15:39:41Z</time>
      </trkpt>
      <trkpt lat="47.15626" lon="5.85662">
        <ele>222.2</ele>
        <time>2019-08-17T15:39:42Z</time>
      </trkpt>
      <trkpt lat="47.15632" lon="5.8566">
        <ele>222.1</ele>
        <time>2019-08-17T15:39:43Z</time>
      </trkpt>
      <trkpt lat="47.15638" lon="5.8566">
        <ele>222</ele>
        <time>2019-08-17T15:39:44Z</time>
      </trkpt>
      <trkpt lat="47.15645" lon="5.8566">
        <ele>221.9</ele>
        <time>2019-08-17T15:39:45Z</time>
      </trkpt>
      <trkpt lat="47.15651" lon="5.8566">
        <ele>221.8</ele>
        <time>2019-08-17T15:39:46Z</time>
      </trkpt>
      <trkpt lat="47.15656" lon="5.85658">
        <ele>221.8</ele>
        <time>2019-08-17T15:39:47Z</time>
      </trkpt>
      <trkpt lat="47.15661" lon="5.85656">
        <ele>221.7</ele>
        <time>2019-08-17T15:39:48Z</time>
      </trkpt>
      <trkpt lat="47.15667" lon="5.85655">
        <ele>221.7</ele>
        <time>2019-08-17T15:39:49Z</time>
      </trkpt>
      <trkpt lat="47.15673" lon="5.85653">
        <ele>221.6</ele>
        <time>2019-08-17T15:39:50Z</time>
      </trkpt>
      <trkpt lat="47.15678" lon="5.85652">
        <ele>221.6</ele>
        <time>2019-08-17T15:39:51Z</time>
      </trkpt>
      <trkpt lat="47.15684" lon="5.8565">
        <ele>221.6</ele>
        <time>2019-08-17T15:39:52Z</time>
      </trkpt>
      <trkpt lat="47.15688" lon="5.85648">
        <ele>221.5</ele>
        <time>2019-08-17T15:39:53Z</time>
      </trkpt>
      <trkpt lat="47.15693" lon="5.85646">
        <ele>221.5</ele>
        <time>2019-08-17T15:39:54Z</time>
      </trkpt>
      <trkpt lat="47.15699" lon="5.85645">
        <ele>221.5</ele>
        <time>2019-08-17T15:39:55Z</time>
      </trkpt>
      <trkpt lat="47.15703" lon="5.85641">
        <ele>221.5</ele>
        <time>2019-08-17T15:39:56Z</time>
      </trkpt>
      <trkpt lat="47.15708" lon="5.85639">
        <ele>221.5</ele>
        <time>2019-08-17T15:39:57Z</time>
      </trkpt>
      <trkpt lat="47.15714" lon="5.85641">
        <ele>221.5</ele>
        <time>2019-08-17T15:39:58Z</time>
      </trkpt>
      <trkpt lat="47.15719" lon="5.85639">
        <ele>221.5</ele>
        <time>2019-08-17T15:39:59Z</time>
      </trkpt>
      <trkpt lat="47.15724" lon="5.85638">
        <ele>221.4</ele>
        <time>2019-08-17T15:40:00Z</time>
      </trkpt>
      <trkpt lat="47.15729" lon="5.85635">
        <ele>221.4</ele>
        <time>2019-08-17T15:40:01Z</time>
      </trkpt>
      <trkpt lat="47.15734" lon="5.85632">
        <ele>221.4</ele>
        <time>2019-08-17T15:40:02Z</time>
      </trkpt>
      <trkpt lat="47.15739" lon="5.85629">
        <ele>221.4</ele>
        <time>2019-08-17T15:40:03Z</time>
      </trkpt>
      <trkpt lat="47.15744" lon="5.85627">
        <ele>221.4</ele>
        <time>2019-08-17T15:40:04Z</time>
      </trkpt>
      <trkpt lat="47.15749" lon="5.85624">
        <ele>221.3</ele>
        <time>2019-08-17T15:40:05Z</time>
      </trkpt>
      <trkpt lat="47.15754" lon="5.85622">
        <ele>221.3</ele>
        <time>2019-08-17T15:40:06Z</time>
      </trkpt>
      <trkpt lat="47.15759" lon="5.85618">
        <ele>221.2</ele>
        <time>2019-08-17T15:40:07Z</time>
      </trkpt>
      <trkpt lat="47.15764" lon="5.85616">
        <ele>221.2</ele>
        <time>2019-08-17T15:40:08Z</time>
      </trkpt>
      <trkpt lat="47.15769" lon="5.85613">
        <ele>221.1</ele>
        <time>2019-08-17T15:40:09Z</time>
      </trkpt>
      <trkpt lat="47.15773" lon="5.8561">
        <ele>221.1</ele>
        <time>2019-08-17T15:40:10Z</time>
      </trkpt>
      <trkpt lat="47.15778" lon="5.85608">
        <ele>221</ele>
        <time>2019-08-17T15:40:11Z</time>
      </trkpt>
      <trkpt lat="47.15783" lon="5.85605">
        <ele>221</ele>
        <time>2019-08-17T15:40:12Z</time>
      </trkpt>
      <trkpt lat="47.15788" lon="5.85601">
        <ele>220.9</ele>
        <time>2019-08-17T15:40:13Z</time>
      </trkpt>
      <trkpt lat="47.15792" lon="5.85599">
        <ele>220.9</ele>
        <time>2019-08-17T15:40:14Z</time>
      </trkpt>
      <trkpt lat="47.15797" lon="5.85597">
        <ele>220.8</ele>
        <time>2019-08-17T15:40:15Z</time>
      </trkpt>
      <trkpt lat="47.15801" lon="5.85595">
        <ele>220.8</ele>
        <time>2019-08-17T15:40:16Z</time>
      </trkpt>
      <trkpt lat="47.15806" lon="5.85593">
        <ele>220.7</ele>
        <time>2019-08-17T15:40:17Z</time>
      </trkpt>
      <trkpt lat="47.15809" lon="5.85589">
        <ele>220.7</ele>
        <time>2019-08-17T15:40:18Z</time>
      </trkpt>
      <trkpt lat="47.15814" lon="5.85587">
        <ele>220.6</ele>
        <time>2019-08-17T15:40:19Z</time>
      </trkpt>
      <trkpt lat="47.15819" lon="5.85584">
        <ele>220.6</ele>
        <time>2019-08-17T15:40:20Z</time>
      </trkpt>
      <trkpt lat="47.15823" lon="5.85581">
        <ele>220.6</ele>
        <time>2019-08-17T15:40:21Z</time>
      </trkpt>
      <trkpt lat="47.15827" lon="5.85578">
        <ele>220.6</ele>
        <time>2019-08-17T15:40:22Z</time>
      </trkpt>
      <trkpt lat="47.15831" lon="5.85576">
        <ele>220.5</ele>
        <time>2019-08-17T15:40:23Z</time>
      </trkpt>
      <trkpt lat="47.15836" lon="5.85573">
        <ele>220.5</ele>
        <time>2019-08-17T15:40:24Z</time>
      </trkpt>
      <trkpt lat="47.1584" lon="5.85569">
        <ele>220.5</ele>
        <time>2019-08-17T15:40:25Z</time>
      </trkpt>
      <trkpt lat="47.15844" lon="5.85566">
        <ele>220.5</ele>
        <time>2019-08-17T15:40:26Z</time>
      </trkpt>
      <trkpt lat="47.15848" lon="5.85562">
        <ele>220.4</ele>
        <time>2019-08-17T15:40:27Z</time>
      </trkpt>
      <trkpt lat="47.15852" lon="5.85559">
        <ele>220.4</ele>
        <time>2019-08-17T15:40:28Z</time>
      </trkpt>
      <trkpt lat="47.15856" lon="5.85557">
        <ele>220.4</ele>
        <time>2019-08-17T15:40:29Z</time>
      </trkpt>
      <trkpt lat="47.1586" lon="5.85554">
        <ele>220.3</ele>
        <time>2019-08-17T15:40:30Z</time>
      </trkpt>
      <trkpt lat="47.15865" lon="5.85551">
        <ele>220.2</ele>
        <time>2019-08-17T15:40:31Z</time>
      </trkpt>
      <trkpt lat="47.15868" lon="5.85547">
        <ele>220.2</ele>
        <time>2019-08-17T15:40:32Z</time>
      </trkpt>
      <trkpt lat="47.15873" lon="5.85545">
        <ele>220.1</ele>
        <time>2019-08-17T15:40:33Z</time>
      </trkpt>
      <trkpt lat="47.15877" lon="5.85543">
        <ele>220</ele>
        <time>2019-08-17T15:40:34Z</time>
      </trkpt>
      <trkpt lat="47.15881" lon="5.85541">
        <ele>219.9</ele>
        <time>2019-08-17T15:40:35Z</time>
      </trkpt>
      <trkpt lat="47.15885" lon="5.85537">
        <ele>219.9</ele>
        <time>2019-08-17T15:40:36Z</time>
      </trkpt>
      <trkpt lat="47.15889" lon="5.85533">
        <ele>219.8</ele>
        <time>2019-08-17T15:40:37Z</time>
      </trkpt>
      <trkpt lat="47.15894" lon="5.85531">
        <ele>219.7</ele>
        <time>2019-08-17T15:40:38Z</time>
      </trkpt>
      <trkpt lat="47.15898" lon="5.85528">
        <ele>219.6</ele>
        <time>2019-08-17T15:40:39Z</time>
      </trkpt>
      <trkpt lat="47.15902" lon="5.85524">
        <ele>219.6</ele>
        <time>2019-08-17T15:40:40Z</time>
      </trkpt>
      <trkpt lat="47.15907" lon="5.85521">
        <ele>219.5</ele>
        <time>2019-08-17T15:40:41Z</time>
      </trkpt>
      <trkpt lat="47.15911" lon="5.85516">
        <ele>219.5</ele>
        <time>2019-08-17T15:40:42Z</time>
      </trkpt>
      <trkpt lat="47.15915" lon="5.85512">
        <ele>219.4</ele>
        <time>2019-08-17T15:40:43Z</time>
      </trkpt>
      <trkpt lat="47.1592" lon="5.85508">
        <ele>219.4</ele>
        <time>2019-08-17T15:40:44Z</time>
      </trkpt>
      <trkpt lat="47.15923" lon="5.85504">
        <ele>219.4</ele>
        <time>2019-08-17T15:40:45Z</time>
      </trkpt>
      <trkpt lat="47.15928" lon="5.855">
        <ele>219.3</ele>
        <time>2019-08-17T15:40:46Z</time>
      </trkpt>
      <trkpt lat="47.15932" lon="5.85497">
        <ele>219.3</ele>
        <time>2019-08-17T15:40:47Z</time>
      </trkpt>
      <trkpt lat="47.15936" lon="5.85492">
        <ele>219.3</ele>
        <time>2019-08-17T15:40:48Z</time>
      </trkpt>
      <trkpt lat="47.15941" lon="5.85489">
        <ele>219.2</ele>
        <time>2019-08-17T15:40:49Z</time>
      </trkpt>
      <trkpt lat="47.15945" lon="5.85485">
        <ele>219.2</ele>
        <time>2019-08-17T15:40:50Z</time>
      </trkpt>
      <trkpt lat="47.15949" lon="5.85482">
        <ele>219.1</ele>
        <time>2019-08-17T15:40:51Z</time>
      </trkpt>
      <trkpt lat="47.15954" lon="5.85479">
        <ele>219.1</ele>
        <time>2019-08-17T15:40:52Z</time>
      </trkpt>
      <trkpt lat="47.15958" lon="5.85476">
        <ele>219.1</ele>
        <time>2019-08-17T15:40:53Z</time>
      </trkpt>
      <trkpt lat="47.15962" lon="5.85473">
        <ele>219.1</ele>
        <time>2019-08-17T15:40:54Z</time>
      </trkpt>
      <trkpt lat="47.15966" lon="5.85471">
        <ele>219</ele>
        <time>2019-08-17T15:40:55Z</time>
      </trkpt>
      <trkpt lat="47.15969" lon="5.85467">
        <ele>219</ele>
        <time>2019-08-17T15:40:56Z</time>
      </trkpt>
      <trkpt lat="47.15973" lon="5.85464">
        <ele>219</ele>
        <time>2019-08-17T15:40:57Z</time>
      </trkpt>
      <trkpt lat="47.15977" lon="5.85461">
        <ele>218.9</ele>
        <time>2019-08-17T15:40:58Z</time>
      </trkpt>
      <trkpt lat="47.15982" lon="5.85458">
        <ele>218.8</ele>
        <time>2019-08-17T15:40:59Z</time>
      </trkpt>
      <trkpt lat="47.15986" lon="5.85454">
        <ele>218.6</ele>
        <time>2019-08-17T15:41:00Z</time>
      </trkpt>
      <trkpt lat="47.15991" lon="5.85451">
        <ele>218.6</ele>
        <time>2019-08-17T15:41:01Z</time>
      </trkpt>
      <trkpt lat="47.15995" lon="5.85448">
        <ele>218.5</ele>
        <time>2019-08-17T15:41:02Z</time>
      </trkpt>
      <trkpt lat="47.15999" lon="5.85445">
        <ele>218.4</ele>
        <time>2019-08-17T15:41:03Z</time>
      </trkpt>
      <trkpt lat="47.16003" lon="5.85441">
        <ele>218.4</ele>
        <time>2019-08-17T15:41:04Z</time>
      </trkpt>
      <trkpt lat="47.16007" lon="5.85438">
        <ele>218.3</ele>
        <time>2019-08-17T15:41:05Z</time>
      </trkpt>
      <trkpt lat="47.16012" lon="5.85435">
        <ele>218.2</ele>
        <time>2019-08-17T15:41:06Z</time>
      </trkpt>
      <trkpt lat="47.16016" lon="5.85432">
        <ele>218.2</ele>
        <time>2019-08-17T15:41:07Z</time>
      </trkpt>
      <trkpt lat="47.1602" lon="5.85428">
        <ele>218.1</ele>
        <time>2019-08-17T15:41:08Z</time>
      </trkpt>
      <trkpt lat="47.16024" lon="5.85424">
        <ele>218</ele>
        <time>2019-08-17T15:41:09Z</time>
      </trkpt>
      <trkpt lat="47.16029" lon="5.8542">
        <ele>218</ele>
        <time>2019-08-17T15:41:10Z</time>
      </trkpt>
      <trkpt lat="47.16032" lon="5.85416">
        <ele>217.9</ele>
        <time>2019-08-17T15:41:11Z</time>
      </trkpt>
      <trkpt lat="47.16036" lon="5.85412">
        <ele>217.8</ele>
        <time>2019-08-17T15:41:12Z</time>
      </trkpt>
      <trkpt lat="47.16041" lon="5.85408">
        <ele>217.8</ele>
        <time>2019-08-17T15:41:13Z</time>
      </trkpt>
      <trkpt lat="47.16045" lon="5.85405">
        <ele>217.7</ele>
        <time>2019-08-17T15:41:14Z</time>
      </trkpt>
      <trkpt lat="47.1605" lon="5.85402">
        <ele>217.7</ele>
        <time>2019-08-17T15:41:15Z</time>
      </trkpt>
      <trkpt lat="47.16054" lon="5.85397">
        <ele>217.6</ele>
        <time>2019-08-17T15:41:16Z</time>
      </trkpt>
      <trkpt lat="47.16058" lon="5.85393">
        <ele>217.6</ele>
        <time>2019-08-17T15:41:17Z</time>
      </trkpt>
      <trkpt lat="47.16062" lon="5.85389">
        <ele>217.6</ele>
        <time>2019-08-17T15:41:18Z</time>
      </trkpt>
      <trkpt lat="47.16067" lon="5.85385">
        <ele>217.6</ele>
        <time>2019-08-17T15:41:19Z</time>
      </trkpt>
      <trkpt lat="47.16071" lon="5.85382">
        <ele>217.6</ele>
        <time>2019-08-17T15:41:20Z</time>
      </trkpt>
      <trkpt lat="47.16075" lon="5.85378">
        <ele>217.6</ele>
        <time>2019-08-17T15:41:21Z</time>
      </trkpt>
      <trkpt lat="47.16079" lon="5.85374">
        <ele>217.6</ele>
        <time>2019-08-17T15:41:22Z</time>
      </trkpt>
      <trkpt lat="47.16083" lon="5.8537">
        <ele>217.6</ele>
        <time>2019-08-17T15:41:23Z</time>
      </trkpt>
      <trkpt lat="47.16088" lon="5.85367">
        <ele>217.6</ele>
        <time>2019-08-17T15:41:24Z</time>
      </trkpt>
      <trkpt lat="47.16092" lon="5.85363">
        <ele>217.6</ele>
        <time>2019-08-17T15:41:25Z</time>
      </trkpt>
      <trkpt lat="47.16097" lon="5.8536">
        <ele>217.6</ele>
        <time>2019-08-17T15:41:26Z</time>
      </trkpt>
      <trkpt lat="47.161" lon="5.85355">
        <ele>217.6</ele>
        <time>2019-08-17T15:41:27Z</time>
      </trkpt>
      <trkpt lat="47.16104" lon="5.85351">
        <ele>217.6</ele>
        <time>2019-08-17T15:41:28Z</time>
      </trkpt>
      <trkpt lat="47.16109" lon="5.85348">
        <ele>217.6</ele>
        <time>2019-08-17T15:41:29Z</time>
      </trkpt>
      <trkpt lat="47.16114" lon="5.85345">
        <ele>217.5</ele>
        <time>2019-08-17T15:41:30Z</time>
      </trkpt>
      <trkpt lat="47.16119" lon="5.85343">
        <ele>217.5</ele>
        <time>2019-08-17T15:41:31Z</time>
      </trkpt>
      <trkpt lat="47.16123" lon="5.8534">
        <ele>217.5</ele>
        <time>2019-08-17T15:41:32Z</time>
      </trkpt>
      <trkpt lat="47.16126" lon="5.85335">
        <ele>217.5</ele>
        <time>2019-08-17T15:41:33Z</time>
      </trkpt>
      <trkpt lat="47.1613" lon="5.85332">
        <ele>217.5</ele>
        <time>2019-08-17T15:41:34Z</time>
      </trkpt>
      <trkpt lat="47.16134" lon="5.85329">
        <ele>217.5</ele>
        <time>2019-08-17T15:41:35Z</time>
      </trkpt>
      <trkpt lat="47.16138" lon="5.85326">
        <ele>217.5</ele>
        <time>2019-08-17T15:41:36Z</time>
      </trkpt>
      <trkpt lat="47.16142" lon="5.85324">
        <ele>217.5</ele>
        <time>2019-08-17T15:41:37Z</time>
      </trkpt>
      <trkpt lat="47.16146" lon="5.85321">
        <ele>217.5</ele>
        <time>2019-08-17T15:41:38Z</time>
      </trkpt>
      <trkpt lat="47.16151" lon="5.85318">
        <ele>217.5</ele>
        <time>2019-08-17T15:41:39Z</time>
      </trkpt>
      <trkpt lat="47.16155" lon="5.85315">
        <ele>217.5</ele>
        <time>2019-08-17T15:41:40Z</time>
      </trkpt>
      <trkpt lat="47.1616" lon="5.85311">
        <ele>217.5</ele>
        <time>2019-08-17T15:41:41Z</time>
      </trkpt>
      <trkpt lat="47.16164" lon="5.85307">
        <ele>217.5</ele>
        <time>2019-08-17T15:41:42Z</time>
      </trkpt>
      <trkpt lat="47.16169" lon="5.85304">
        <ele>217.4</ele>
        <time>2019-08-17T15:41:43Z</time>
      </trkpt>
      <trkpt lat="47.16174" lon="5.85301">
        <ele>217.4</ele>
        <time>2019-08-17T15:41:44Z</time>
      </trkpt>
      <trkpt lat="47.16179" lon="5.85297">
        <ele>217.4</ele>
        <time>2019-08-17T15:41:45Z</time>
      </trkpt>
      <trkpt lat="47.16184" lon="5.85292">
        <ele>217.3</ele>
        <time>2019-08-17T15:41:46Z</time>
      </trkpt>
      <trkpt lat="47.16188" lon="5.85288">
        <ele>217.3</ele>
        <time>2019-08-17T15:41:47Z</time>
      </trkpt>
      <trkpt lat="47.16192" lon="5.85285">
        <ele>217.3</ele>
        <time>2019-08-17T15:41:48Z</time>
      </trkpt>
      <trkpt lat="47.16196" lon="5.85281">
        <ele>217.2</ele>
        <time>2019-08-17T15:41:49Z</time>
      </trkpt>
      <trkpt lat="47.162" lon="5.85277">
        <ele>217.2</ele>
        <time>2019-08-17T15:41:50Z</time>
      </trkpt>
      <trkpt lat="47.16205" lon="5.85274">
        <ele>217.1</ele>
        <time>2019-08-17T15:41:51Z</time>
      </trkpt>
      <trkpt lat="47.16209" lon="5.85271">
        <ele>217.1</ele>
        <time>2019-08-17T15:41:52Z</time>
      </trkpt>
      <trkpt lat="47.16214" lon="5.85267">
        <ele>217.1</ele>
        <time>2019-08-17T15:41:53Z</time>
      </trkpt>
      <trkpt lat="47.16218" lon="5.85263">
        <ele>217.1</ele>
        <time>2019-08-17T15:41:54Z</time>
      </trkpt>
      <trkpt lat="47.16221" lon="5.8526">
        <ele>217.1</ele>
        <time>2019-08-17T15:41:55Z</time>
      </trkpt>
      <trkpt lat="47.16225" lon="5.85257">
        <ele>217.1</ele>
        <time>2019-08-17T15:41:56Z</time>
      </trkpt>
      <trkpt lat="47.1623" lon="5.85255">
        <ele>217.1</ele>
        <time>2019-08-17T15:41:57Z</time>
      </trkpt>
      <trkpt lat="47.16233" lon="5.85252">
        <ele>217.1</ele>
        <time>2019-08-17T15:41:58Z</time>
      </trkpt>
      <trkpt lat="47.16236" lon="5.8525">
        <ele>217.1</ele>
        <time>2019-08-17T15:41:59Z</time>
      </trkpt>
      <trkpt lat="47.16241" lon="5.85248">
        <ele>217.1</ele>
        <time>2019-08-17T15:42:00Z</time>
      </trkpt>
      <trkpt lat="47.16244" lon="5.85244">
        <ele>217.2</ele>
        <time>2019-08-17T15:42:01Z</time>
      </trkpt>
      <trkpt lat="47.16248" lon="5.85242">
        <ele>217.2</ele>
        <time>2019-08-17T15:42:02Z</time>
      </trkpt>
      <trkpt lat="47.16253" lon="5.85239">
        <ele>217.2</ele>
        <time>2019-08-17T15:42:03Z</time>
      </trkpt>
      <trkpt lat="47.16257" lon="5.85237">
        <ele>217.2</ele>
        <time>2019-08-17T15:42:04Z</time>
      </trkpt>
      <trkpt lat="47.16262" lon="5.85233">
        <ele>217.2</ele>
        <time>2019-08-17T15:42:05Z</time>
      </trkpt>
      <trkpt lat="47.16266" lon="5.85228">
        <ele>217.2</ele>
        <time>2019-08-17T15:42:06Z</time>
      </trkpt>
      <trkpt lat="47.16271" lon="5.85224">
        <ele>217.2</ele>
        <time>2019-08-17T15:42:07Z</time>
      </trkpt>
      <trkpt lat="47.16274" lon="5.85222">
        <ele>217.2</ele>
        <time>2019-08-17T15:42:08Z</time>
      </trkpt>
      <trkpt lat="47.16278" lon="5.85217">
        <ele>217.2</ele>
        <time>2019-08-17T15:42:09Z</time>
      </trkpt>
      <trkpt lat="47.16282" lon="5.85213">
        <ele>217.2</ele>
        <time>2019-08-17T15:42:10Z</time>
      </trkpt>
      <trkpt lat="47.16286" lon="5.8521">
        <ele>217.2</ele>
        <time>2019-08-17T15:42:11Z</time>
      </trkpt>
      <trkpt lat="47.16291" lon="5.85205">
        <ele>217.1</ele>
        <time>2019-08-17T15:42:12Z</time>
      </trkpt>
      <trkpt lat="47.16294" lon="5.85201">
        <ele>217.1</ele>
        <time>2019-08-17T15:42:13Z</time>
      </trkpt>
      <trkpt lat="47.16298" lon="5.85197">
        <ele>217.1</ele>
        <time>2019-08-17T15:42:14Z</time>
      </trkpt>
      <trkpt lat="47.16302" lon="5.85193">
        <ele>217.1</ele>
        <time>2019-08-17T15:42:15Z</time>
      </trkpt>
      <trkpt lat="47.16306" lon="5.8519">
        <ele>217.1</ele>
        <time>2019-08-17T15:42:16Z</time>
      </trkpt>
      <trkpt lat="47.1631" lon="5.85186">
        <ele>217.1</ele>
        <time>2019-08-17T15:42:17Z</time>
      </trkpt>
      <trkpt lat="47.16314" lon="5.85181">
        <ele>217.1</ele>
        <time>2019-08-17T15:42:18Z</time>
      </trkpt>
      <trkpt lat="47.16318" lon="5.85177">
        <ele>217.1</ele>
        <time>2019-08-17T15:42:19Z</time>
      </trkpt>
      <trkpt lat="47.16322" lon="5.85173">
        <ele>217.1</ele>
        <time>2019-08-17T15:42:20Z</time>
      </trkpt>
      <trkpt lat="47.16326" lon="5.85169">
        <ele>217</ele>
        <time>2019-08-17T15:42:21Z</time>
      </trkpt>
      <trkpt lat="47.16331" lon="5.85164">
        <ele>217</ele>
        <time>2019-08-17T15:42:22Z</time>
      </trkpt>
      <trkpt lat="47.16335" lon="5.8516">
        <ele>217</ele>
        <time>2019-08-17T15:42:23Z</time>
      </trkpt>
      <trkpt lat="47.16339" lon="5.85156">
        <ele>217</ele>
        <time>2019-08-17T15:42:24Z</time>
      </trkpt>
      <trkpt lat="47.16343" lon="5.85153">
        <ele>217</ele>
        <time>2019-08-17T15:42:25Z</time>
      </trkpt>
      <trkpt lat="47.16346" lon="5.85147">
        <ele>217</ele>
        <time>2019-08-17T15:42:26Z</time>
      </trkpt>
      <trkpt lat="47.16349" lon="5.85143">
        <ele>217</ele>
        <time>2019-08-17T15:42:27Z</time>
      </trkpt>
      <trkpt lat="47.16353" lon="5.85138">
        <ele>217</ele>
        <time>2019-08-17T15:42:28Z</time>
      </trkpt>
      <trkpt lat="47.16357" lon="5.85133">
        <ele>217</ele>
        <time>2019-08-17T15:42:29Z</time>
      </trkpt>
      <trkpt lat="47.16361" lon="5.85127">
        <ele>217</ele>
        <time>2019-08-17T15:42:30Z</time>
      </trkpt>
      <trkpt lat="47.16365" lon="5.85123">
        <ele>217</ele>
        <time>2019-08-17T15:42:31Z</time>
      </trkpt>
      <trkpt lat="47.1637" lon="5.85118">
        <ele>217</ele>
        <time>2019-08-17T15:42:32Z</time>
      </trkpt>
      <trkpt lat="47.16374" lon="5.85113">
        <ele>217</ele>
        <time>2019-08-17T15:42:33Z</time>
      </trkpt>
      <trkpt lat="47.16377" lon="5.85106">
        <ele>217</ele>
        <time>2019-08-17T15:42:34Z</time>
      </trkpt>
      <trkpt lat="47.16381" lon="5.85101">
        <ele>216.9</ele>
        <time>2019-08-17T15:42:35Z</time>
      </trkpt>
      <trkpt lat="47.16385" lon="5.85096">
        <ele>216.9</ele>
        <time>2019-08-17T15:42:36Z</time>
      </trkpt>
      <trkpt lat="47.16389" lon="5.85091">
        <ele>216.9</ele>
        <time>2019-08-17T15:42:37Z</time>
      </trkpt>
      <trkpt lat="47.16392" lon="5.85087">
        <ele>216.8</ele>
        <time>2019-08-17T15:42:38Z</time>
      </trkpt>
      <trkpt lat="47.16395" lon="5.85081">
        <ele>216.8</ele>
        <time>2019-08-17T15:42:39Z</time>
      </trkpt>
      <trkpt lat="47.16398" lon="5.85077">
        <ele>216.8</ele>
        <time>2019-08-17T15:42:40Z</time>
      </trkpt>
      <trkpt lat="47.16402" lon="5.85072">
        <ele>216.8</ele>
        <time>2019-08-17T15:42:41Z</time>
      </trkpt>
      <trkpt lat="47.16405" lon="5.85068">
        <ele>216.7</ele>
        <time>2019-08-17T15:42:42Z</time>
      </trkpt>
      <trkpt lat="47.16408" lon="5.85063">
        <ele>216.7</ele>
        <time>2019-08-17T15:42:43Z</time>
      </trkpt>
      <trkpt lat="47.16411" lon="5.85058">
        <ele>216.7</ele>
        <time>2019-08-17T15:42:44Z</time>
      </trkpt>
      <trkpt lat="47.16414" lon="5.85053">
        <ele>216.7</ele>
        <time>2019-08-17T15:42:45Z</time>
      </trkpt>
      <trkpt lat="47.16417" lon="5.85049">
        <ele>216.7</ele>
        <time>2019-08-17T15:42:46Z</time>
      </trkpt>
      <trkpt lat="47.1642" lon="5.85045">
        <ele>216.7</ele>
        <time>2019-08-17T15:42:47Z</time>
      </trkpt>
      <trkpt lat="47.16423" lon="5.8504">
        <ele>216.6</ele>
        <time>2019-08-17T15:42:48Z</time>
      </trkpt>
      <trkpt lat="47.16427" lon="5.85036">
        <ele>216.6</ele>
        <time>2019-08-17T15:42:49Z</time>
      </trkpt>
      <trkpt lat="47.16429" lon="5.85032">
        <ele>216.6</ele>
        <time>2019-08-17T15:42:50Z</time>
      </trkpt>
      <trkpt lat="47.16432" lon="5.85027">
        <ele>216.6</ele>
        <time>2019-08-17T15:42:51Z</time>
      </trkpt>
      <trkpt lat="47.16435" lon="5.85022">
        <ele>216.6</ele>
        <time>2019-08-17T15:42:52Z</time>
      </trkpt>
      <trkpt lat="47.16438" lon="5.85017">
        <ele>216.6</ele>
        <time>2019-08-17T15:42:53Z</time>
      </trkpt>
      <trkpt lat="47.16441" lon="5.85013">
        <ele>216.5</ele>
        <time>2019-08-17T15:42:54Z</time>
      </trkpt>
      <trkpt lat="47.16444" lon="5.85008">
        <ele>216.5</ele>
        <time>2019-08-17T15:42:55Z</time>
      </trkpt>
      <trkpt lat="47.16447" lon="5.85003">
        <ele>216.5</ele>
        <time>2019-08-17T15:42:56Z</time>
      </trkpt>
      <trkpt lat="47.1645" lon="5.84997">
        <ele>216.5</ele>
        <time>2019-08-17T15:42:57Z</time>
      </trkpt>
      <trkpt lat="47.16454" lon="5.84992">
        <ele>216.5</ele>
        <time>2019-08-17T15:42:58Z</time>
      </trkpt>
      <trkpt lat="47.16457" lon="5.84986">
        <ele>216.5</ele>
        <time>2019-08-17T15:42:59Z</time>
      </trkpt>
      <trkpt lat="47.1646" lon="5.84981">
        <ele>216.4</ele>
        <time>2019-08-17T15:43:00Z</time>
      </trkpt>
      <trkpt lat="47.16463" lon="5.84976">
        <ele>216.5</ele>
        <time>2019-08-17T15:43:01Z</time>
      </trkpt>
      <trkpt lat="47.16466" lon="5.84972">
        <ele>216.5</ele>
        <time>2019-08-17T15:43:02Z</time>
      </trkpt>
      <trkpt lat="47.16468" lon="5.84968">
        <ele>216.5</ele>
        <time>2019-08-17T15:43:03Z</time>
      </trkpt>
      <trkpt lat="47.16471" lon="5.84963">
        <ele>216.5</ele>
        <time>2019-08-17T15:43:04Z</time>
      </trkpt>
      <trkpt lat="47.16474" lon="5.84959">
        <ele>216.5</ele>
        <time>2019-08-17T15:43:05Z</time>
      </trkpt>
      <trkpt lat="47.16477" lon="5.84954">
        <ele>216.6</ele>
        <time>2019-08-17T15:43:06Z</time>
      </trkpt>
      <trkpt lat="47.1648" lon="5.84948">
        <ele>216.6</ele>
        <time>2019-08-17T15:43:07Z</time>
      </trkpt>
      <trkpt lat="47.16483" lon="5.84943">
        <ele>216.6</ele>
        <time>2019-08-17T15:43:08Z</time>
      </trkpt>
      <trkpt lat="47.16486" lon="5.84939">
        <ele>216.7</ele>
        <time>2019-08-17T15:43:09Z</time>
      </trkpt>
      <trkpt lat="47.16488" lon="5.84934">
        <ele>216.7</ele>
        <time>2019-08-17T15:43:10Z</time>
      </trkpt>
      <trkpt lat="47.1649" lon="5.84929">
        <ele>216.7</ele>
        <time>2019-08-17T15:43:11Z</time>
      </trkpt>
      <trkpt lat="47.16493" lon="5.84924">
        <ele>216.8</ele>
        <time>2019-08-17T15:43:12Z</time>
      </trkpt>
      <trkpt lat="47.16496" lon="5.84919">
        <ele>216.8</ele>
        <time>2019-08-17T15:43:13Z</time>
      </trkpt>
      <trkpt lat="47.16498" lon="5.84913">
        <ele>216.8</ele>
        <time>2019-08-17T15:43:14Z</time>
      </trkpt>
      <trkpt lat="47.16501" lon="5.84908">
        <ele>216.9</ele>
        <time>2019-08-17T15:43:15Z</time>
      </trkpt>
      <trkpt lat="47.16503" lon="5.84902">
        <ele>216.9</ele>
        <time>2019-08-17T15:43:16Z</time>
      </trkpt>
      <trkpt lat="47.16505" lon="5.84896">
        <ele>216.9</ele>
        <time>2019-08-17T15:43:17Z</time>
      </trkpt>
      <trkpt lat="47.16507" lon="5.8489">
        <ele>217</ele>
        <time>2019-08-17T15:43:18Z</time>
      </trkpt>
      <trkpt lat="47.16509" lon="5.84885">
        <ele>217</ele>
        <time>2019-08-17T15:43:19Z</time>
      </trkpt>
      <trkpt lat="47.1651" lon="5.84879">
        <ele>217</ele>
        <time>2019-08-17T15:43:20Z</time>
      </trkpt>
      <trkpt lat="47.16512" lon="5.84873">
        <ele>217</ele>
        <time>2019-08-17T15:43:21Z</time>
      </trkpt>
      <trkpt lat="47.16514" lon="5.84868">
        <ele>217</ele>
        <time>2019-08-17T15:43:22Z</time>
      </trkpt>
      <trkpt lat="47.16517" lon="5.84864">
        <ele>217</ele>
        <time>2019-08-17T15:43:23Z</time>
      </trkpt>
      <trkpt lat="47.16519" lon="5.84858">
        <ele>217</ele>
        <time>2019-08-17T15:43:24Z</time>
      </trkpt>
      <trkpt lat="47.16522" lon="5.84852">
        <ele>217</ele>
        <time>2019-08-17T15:43:25Z</time>
      </trkpt>
      <trkpt lat="47.16524" lon="5.84846">
        <ele>217.1</ele>
        <time>2019-08-17T15:43:26Z</time>
      </trkpt>
      <trkpt lat="47.16525" lon="5.8484">
        <ele>217.1</ele>
        <time>2019-08-17T15:43:27Z</time>
      </trkpt>
      <trkpt lat="47.16528" lon="5.84834">
        <ele>217.1</ele>
        <time>2019-08-17T15:43:28Z</time>
      </trkpt>
      <trkpt lat="47.1653" lon="5.84829">
        <ele>217.1</ele>
        <time>2019-08-17T15:43:29Z</time>
      </trkpt>
      <trkpt lat="47.16532" lon="5.84823">
        <ele>217.1</ele>
        <time>2019-08-17T15:43:30Z</time>
      </trkpt>
      <trkpt lat="47.16534" lon="5.84817">
        <ele>217.1</ele>
        <time>2019-08-17T15:43:31Z</time>
      </trkpt>
      <trkpt lat="47.16537" lon="5.84811">
        <ele>217.1</ele>
        <time>2019-08-17T15:43:32Z</time>
      </trkpt>
      <trkpt lat="47.16539" lon="5.84803">
        <ele>217.2</ele>
        <time>2019-08-17T15:43:33Z</time>
      </trkpt>
      <trkpt lat="47.16541" lon="5.84796">
        <ele>217.2</ele>
        <time>2019-08-17T15:43:34Z</time>
      </trkpt>
      <trkpt lat="47.16542" lon="5.84788">
        <ele>217.2</ele>
        <time>2019-08-17T15:43:35Z</time>
      </trkpt>
      <trkpt lat="47.16545" lon="5.84782">
        <ele>217.3</ele>
        <time>2019-08-17T15:43:36Z</time>
      </trkpt>
      <trkpt lat="47.16547" lon="5.84775">
        <ele>217.3</ele>
        <time>2019-08-17T15:43:37Z</time>
      </trkpt>
      <trkpt lat="47.16549" lon="5.84769">
        <ele>217.3</ele>
        <time>2019-08-17T15:43:38Z</time>
      </trkpt>
      <trkpt lat="47.16551" lon="5.84762">
        <ele>217.4</ele>
        <time>2019-08-17T15:43:39Z</time>
      </trkpt>
      <trkpt lat="47.16553" lon="5.84756">
        <ele>217.4</ele>
        <time>2019-08-17T15:43:40Z</time>
      </trkpt>
      <trkpt lat="47.16555" lon="5.84749">
        <ele>217.4</ele>
        <time>2019-08-17T15:43:41Z</time>
      </trkpt>
      <trkpt lat="47.16557" lon="5.84743">
        <ele>217.4</ele>
        <time>2019-08-17T15:43:42Z</time>
      </trkpt>
      <trkpt lat="47.16559" lon="5.84737">
        <ele>217.4</ele>
        <time>2019-08-17T15:43:43Z</time>
      </trkpt>
      <trkpt lat="47.16561" lon="5.84731">
        <ele>217.5</ele>
        <time>2019-08-17T15:43:44Z</time>
      </trkpt>
      <trkpt lat="47.16563" lon="5.84724">
        <ele>217.5</ele>
        <time>2019-08-17T15:43:45Z</time>
      </trkpt>
      <trkpt lat="47.16564" lon="5.84717">
        <ele>217.5</ele>
        <time>2019-08-17T15:43:46Z</time>
      </trkpt>
      <trkpt lat="47.16566" lon="5.84712">
        <ele>217.5</ele>
        <time>2019-08-17T15:43:47Z</time>
      </trkpt>
      <trkpt lat="47.16568" lon="5.84705">
        <ele>217.6</ele>
        <time>2019-08-17T15:43:48Z</time>
      </trkpt>
      <trkpt lat="47.16569" lon="5.84699">
        <ele>217.6</ele>
        <time>2019-08-17T15:43:49Z</time>
      </trkpt>
      <trkpt lat="47.16571" lon="5.84693">
        <ele>217.6</ele>
        <time>2019-08-17T15:43:50Z</time>
      </trkpt>
      <trkpt lat="47.16573" lon="5.84686">
        <ele>217.6</ele>
        <time>2019-08-17T15:43:51Z</time>
      </trkpt>
      <trkpt lat="47.16575" lon="5.84678">
        <ele>217.7</ele>
        <time>2019-08-17T15:43:52Z</time>
      </trkpt>
      <trkpt lat="47.16577" lon="5.84674">
        <ele>217.7</ele>
        <time>2019-08-17T15:43:53Z</time>
      </trkpt>
      <trkpt lat="47.16578" lon="5.84668">
        <ele>217.7</ele>
        <time>2019-08-17T15:43:54Z</time>
      </trkpt>
      <trkpt lat="47.16579" lon="5.84663">
        <ele>217.7</ele>
        <time>2019-08-17T15:43:55Z</time>
      </trkpt>
      <trkpt lat="47.1658" lon="5.84657">
        <ele>217.7</ele>
        <time>2019-08-17T15:43:56Z</time>
      </trkpt>
      <trkpt lat="47.16581" lon="5.84653">
        <ele>217.8</ele>
        <time>2019-08-17T15:43:57Z</time>
      </trkpt>
      <trkpt lat="47.16582" lon="5.84648">
        <ele>217.8</ele>
        <time>2019-08-17T15:43:58Z</time>
      </trkpt>
      <trkpt lat="47.16583" lon="5.84643">
        <ele>217.8</ele>
        <time>2019-08-17T15:43:59Z</time>
      </trkpt>
      <trkpt lat="47.16584" lon="5.84638">
        <ele>217.8</ele>
        <time>2019-08-17T15:44:00Z</time>
      </trkpt>
      <trkpt lat="47.16585" lon="5.84631">
        <ele>217.8</ele>
        <time>2019-08-17T15:44:01Z</time>
      </trkpt>
      <trkpt lat="47.16586" lon="5.84625">
        <ele>217.8</ele>
        <time>2019-08-17T15:44:02Z</time>
      </trkpt>
      <trkpt lat="47.16588" lon="5.84617">
        <ele>217.8</ele>
        <time>2019-08-17T15:44:03Z</time>
      </trkpt>
      <trkpt lat="47.16589" lon="5.8461">
        <ele>217.9</ele>
        <time>2019-08-17T15:44:04Z</time>
      </trkpt>
      <trkpt lat="47.1659" lon="5.84603">
        <ele>217.9</ele>
        <time>2019-08-17T15:44:05Z</time>
      </trkpt>
      <trkpt lat="47.16592" lon="5.84596">
        <ele>217.9</ele>
        <time>2019-08-17T15:44:06Z</time>
      </trkpt>
      <trkpt lat="47.16593" lon="5.8459">
        <ele>217.9</ele>
        <time>2019-08-17T15:44:07Z</time>
      </trkpt>
      <trkpt lat="47.16594" lon="5.84583">
        <ele>217.9</ele>
        <time>2019-08-17T15:44:08Z</time>
      </trkpt>
      <trkpt lat="47.16595" lon="5.84577">
        <ele>217.9</ele>
        <time>2019-08-17T15:44:09Z</time>
      </trkpt>
      <trkpt lat="47.16596" lon="5.84571">
        <ele>217.9</ele>
        <time>2019-08-17T15:44:10Z</time>
      </trkpt>
      <trkpt lat="47.16596" lon="5.84566">
        <ele>217.9</ele>
        <time>2019-08-17T15:44:11Z</time>
      </trkpt>
      <trkpt lat="47.16597" lon="5.8456">
        <ele>217.9</ele>
        <time>2019-08-17T15:44:12Z</time>
      </trkpt>
      <trkpt lat="47.16599" lon="5.84553">
        <ele>217.9</ele>
        <time>2019-08-17T15:44:13Z</time>
      </trkpt>
      <trkpt lat="47.16601" lon="5.84542">
        <ele>218</ele>
        <time>2019-08-17T15:44:14Z</time>
      </trkpt>
      <trkpt lat="47.16603" lon="5.84534">
        <ele>218</ele>
        <time>2019-08-17T15:44:15Z</time>
      </trkpt>
      <trkpt lat="47.16604" lon="5.84525">
        <ele>218</ele>
        <time>2019-08-17T15:44:16Z</time>
      </trkpt>
      <trkpt lat="47.16606" lon="5.84516">
        <ele>218</ele>
        <time>2019-08-17T15:44:17Z</time>
      </trkpt>
      <trkpt lat="47.16607" lon="5.84508">
        <ele>218.1</ele>
        <time>2019-08-17T15:44:18Z</time>
      </trkpt>
      <trkpt lat="47.16609" lon="5.845">
        <ele>218.2</ele>
        <time>2019-08-17T15:44:19Z</time>
      </trkpt>
      <trkpt lat="47.16611" lon="5.84491">
        <ele>218.3</ele>
        <time>2019-08-17T15:44:20Z</time>
      </trkpt>
      <trkpt lat="47.16612" lon="5.84484">
        <ele>218.3</ele>
        <time>2019-08-17T15:44:21Z</time>
      </trkpt>
      <trkpt lat="47.16613" lon="5.84476">
        <ele>218.4</ele>
        <time>2019-08-17T15:44:22Z</time>
      </trkpt>
      <trkpt lat="47.16615" lon="5.8447">
        <ele>218.4</ele>
        <time>2019-08-17T15:44:23Z</time>
      </trkpt>
      <trkpt lat="47.16616" lon="5.84463">
        <ele>218.5</ele>
        <time>2019-08-17T15:44:24Z</time>
      </trkpt>
      <trkpt lat="47.16617" lon="5.84457">
        <ele>218.5</ele>
        <time>2019-08-17T15:44:25Z</time>
      </trkpt>
      <trkpt lat="47.16618" lon="5.84451">
        <ele>218.6</ele>
        <time>2019-08-17T15:44:26Z</time>
      </trkpt>
      <trkpt lat="47.16619" lon="5.84444">
        <ele>218.6</ele>
        <time>2019-08-17T15:44:27Z</time>
      </trkpt>
      <trkpt lat="47.1662" lon="5.84438">
        <ele>218.7</ele>
        <time>2019-08-17T15:44:28Z</time>
      </trkpt>
      <trkpt lat="47.16622" lon="5.84431">
        <ele>218.8</ele>
        <time>2019-08-17T15:44:29Z</time>
      </trkpt>
      <trkpt lat="47.16622" lon="5.84424">
        <ele>218.8</ele>
        <time>2019-08-17T15:44:30Z</time>
      </trkpt>
      <trkpt lat="47.16623" lon="5.84416">
        <ele>218.9</ele>
        <time>2019-08-17T15:44:31Z</time>
      </trkpt>
      <trkpt lat="47.16625" lon="5.84408">
        <ele>218.9</ele>
        <time>2019-08-17T15:44:32Z</time>
      </trkpt>
      <trkpt lat="47.16626" lon="5.844">
        <ele>219</ele>
        <time>2019-08-17T15:44:33Z</time>
      </trkpt>
      <trkpt lat="47.16627" lon="5.84394">
        <ele>219.1</ele>
        <time>2019-08-17T15:44:34Z</time>
      </trkpt>
      <trkpt lat="47.16628" lon="5.84387">
        <ele>219.1</ele>
        <time>2019-08-17T15:44:35Z</time>
      </trkpt>
      <trkpt lat="47.16629" lon="5.8438">
        <ele>219.2</ele>
        <time>2019-08-17T15:44:36Z</time>
      </trkpt>
      <trkpt lat="47.16631" lon="5.84373">
        <ele>219.2</ele>
        <time>2019-08-17T15:44:37Z</time>
      </trkpt>
      <trkpt lat="47.16633" lon="5.84368">
        <ele>219.3</ele>
        <time>2019-08-17T15:44:38Z</time>
      </trkpt>
      <trkpt lat="47.16633" lon="5.84361">
        <ele>219.3</ele>
        <time>2019-08-17T15:44:39Z</time>
      </trkpt>
      <trkpt lat="47.16633" lon="5.84354">
        <ele>219.4</ele>
        <time>2019-08-17T15:44:40Z</time>
      </trkpt>
      <trkpt lat="47.16634" lon="5.84347">
        <ele>219.4</ele>
        <time>2019-08-17T15:44:41Z</time>
      </trkpt>
      <trkpt lat="47.16635" lon="5.8434">
        <ele>219.5</ele>
        <time>2019-08-17T15:44:42Z</time>
      </trkpt>
      <trkpt lat="47.16637" lon="5.84334">
        <ele>219.5</ele>
        <time>2019-08-17T15:44:43Z</time>
      </trkpt>
      <trkpt lat="47.16638" lon="5.84329">
        <ele>219.6</ele>
        <time>2019-08-17T15:44:44Z</time>
      </trkpt>
      <trkpt lat="47.1664" lon="5.84321">
        <ele>219.7</ele>
        <time>2019-08-17T15:44:45Z</time>
      </trkpt>
      <trkpt lat="47.1664" lon="5.84314">
        <ele>219.7</ele>
        <time>2019-08-17T15:44:46Z</time>
      </trkpt>
      <trkpt lat="47.16641" lon="5.84305">
        <ele>219.8</ele>
        <time>2019-08-17T15:44:47Z</time>
      </trkpt>
      <trkpt lat="47.16642" lon="5.84298">
        <ele>219.8</ele>
        <time>2019-08-17T15:44:48Z</time>
      </trkpt>
      <trkpt lat="47.16644" lon="5.84291">
        <ele>219.9</ele>
        <time>2019-08-17T15:44:49Z</time>
      </trkpt>
      <trkpt lat="47.16645" lon="5.84284">
        <ele>219.9</ele>
        <time>2019-08-17T15:44:50Z</time>
      </trkpt>
      <trkpt lat="47.16645" lon="5.84277">
        <ele>220</ele>
        <time>2019-08-17T15:44:51Z</time>
      </trkpt>
      <trkpt lat="47.16646" lon="5.84272">
        <ele>220</ele>
        <time>2019-08-17T15:44:52Z</time>
      </trkpt>
      <trkpt lat="47.16647" lon="5.84266">
        <ele>220</ele>
        <time>2019-08-17T15:44:53Z</time>
      </trkpt>
      <trkpt lat="47.16648" lon="5.84258">
        <ele>220</ele>
        <time>2019-08-17T15:44:54Z</time>
      </trkpt>
      <trkpt lat="47.16648" lon="5.84252">
        <ele>219.9</ele>
        <time>2019-08-17T15:44:55Z</time>
      </trkpt>
      <trkpt lat="47.16649" lon="5.84245">
        <ele>219.8</ele>
        <time>2019-08-17T15:44:56Z</time>
      </trkpt>
      <trkpt lat="47.1665" lon="5.84239">
        <ele>219.8</ele>
        <time>2019-08-17T15:44:57Z</time>
      </trkpt>
      <trkpt lat="47.16651" lon="5.84233">
        <ele>219.7</ele>
        <time>2019-08-17T15:44:58Z</time>
      </trkpt>
      <trkpt lat="47.16652" lon="5.84227">
        <ele>219.7</ele>
        <time>2019-08-17T15:44:59Z</time>
      </trkpt>
      <trkpt lat="47.16653" lon="5.84221">
        <ele>219.7</ele>
        <time>2019-08-17T15:45:00Z</time>
      </trkpt>
      <trkpt lat="47.16653" lon="5.84215">
        <ele>219.7</ele>
        <time>2019-08-17T15:45:01Z</time>
      </trkpt>
      <trkpt lat="47.16654" lon="5.84209">
        <ele>219.8</ele>
        <time>2019-08-17T15:45:02Z</time>
      </trkpt>
      <trkpt lat="47.16655" lon="5.84203">
        <ele>219.8</ele>
        <time>2019-08-17T15:45:03Z</time>
      </trkpt>
      <trkpt lat="47.16657" lon="5.84196">
        <ele>219.9</ele>
        <time>2019-08-17T15:45:04Z</time>
      </trkpt>
      <trkpt lat="47.1666" lon="5.84192">
        <ele>220</ele>
        <time>2019-08-17T15:45:05Z</time>
      </trkpt>
      <trkpt lat="47.16662" lon="5.84187">
        <ele>220.2</ele>
        <time>2019-08-17T15:45:06Z</time>
      </trkpt>
      <trkpt lat="47.16665" lon="5.84182">
        <ele>220.4</ele>
        <time>2019-08-17T15:45:07Z</time>
      </trkpt>
      <trkpt lat="47.16667" lon="5.84177">
        <ele>220.5</ele>
        <time>2019-08-17T15:45:08Z</time>
      </trkpt>
      <trkpt lat="47.16668" lon="5.84171">
        <ele>220.6</ele>
        <time>2019-08-17T15:45:09Z</time>
      </trkpt>
      <trkpt lat="47.1667" lon="5.84165">
        <ele>220.8</ele>
        <time>2019-08-17T15:45:10Z</time>
      </trkpt>
      <trkpt lat="47.16671" lon="5.8416">
        <ele>220.9</ele>
        <time>2019-08-17T15:45:11Z</time>
      </trkpt>
      <trkpt lat="47.16673" lon="5.84153">
        <ele>221</ele>
        <time>2019-08-17T15:45:12Z</time>
      </trkpt>
      <trkpt lat="47.16674" lon="5.84145">
        <ele>221.1</ele>
        <time>2019-08-17T15:45:13Z</time>
      </trkpt>
      <trkpt lat="47.16675" lon="5.84138">
        <ele>221.2</ele>
        <time>2019-08-17T15:45:14Z</time>
      </trkpt>
      <trkpt lat="47.16676" lon="5.84131">
        <ele>221.3</ele>
        <time>2019-08-17T15:45:15Z</time>
      </trkpt>
      <trkpt lat="47.16677" lon="5.84123">
        <ele>221.3</ele>
        <time>2019-08-17T15:45:16Z</time>
      </trkpt>
      <trkpt lat="47.16679" lon="5.84117">
        <ele>221.4</ele>
        <time>2019-08-17T15:45:17Z</time>
      </trkpt>
      <trkpt lat="47.1668" lon="5.8411">
        <ele>221.4</ele>
        <time>2019-08-17T15:45:18Z</time>
      </trkpt>
      <trkpt lat="47.16681" lon="5.84103">
        <ele>221.5</ele>
        <time>2019-08-17T15:45:19Z</time>
      </trkpt>
      <trkpt lat="47.16681" lon="5.84096">
        <ele>221.6</ele>
        <time>2019-08-17T15:45:20Z</time>
      </trkpt>
      <trkpt lat="47.16682" lon="5.84089">
        <ele>221.6</ele>
        <time>2019-08-17T15:45:21Z</time>
      </trkpt>
      <trkpt lat="47.16682" lon="5.84083">
        <ele>221.7</ele>
        <time>2019-08-17T15:45:22Z</time>
      </trkpt>
      <trkpt lat="47.16683" lon="5.84077">
        <ele>221.7</ele>
        <time>2019-08-17T15:45:23Z</time>
      </trkpt>
      <trkpt lat="47.16684" lon="5.8407">
        <ele>221.8</ele>
        <time>2019-08-17T15:45:24Z</time>
      </trkpt>
      <trkpt lat="47.16685" lon="5.84061">
        <ele>221.8</ele>
        <time>2019-08-17T15:45:25Z</time>
      </trkpt>
      <trkpt lat="47.16686" lon="5.84054">
        <ele>221.9</ele>
        <time>2019-08-17T15:45:26Z</time>
      </trkpt>
      <trkpt lat="47.16688" lon="5.84047">
        <ele>221.9</ele>
        <time>2019-08-17T15:45:27Z</time>
      </trkpt>
      <trkpt lat="47.1669" lon="5.8404">
        <ele>221.8</ele>
        <time>2019-08-17T15:45:28Z</time>
      </trkpt>
      <trkpt lat="47.16692" lon="5.84034">
        <ele>221.8</ele>
        <time>2019-08-17T15:45:29Z</time>
      </trkpt>
      <trkpt lat="47.16694" lon="5.84027">
        <ele>221.7</ele>
        <time>2019-08-17T15:45:30Z</time>
      </trkpt>
      <trkpt lat="47.16695" lon="5.8402">
        <ele>221.7</ele>
        <time>2019-08-17T15:45:31Z</time>
      </trkpt>
      <trkpt lat="47.16697" lon="5.84012">
        <ele>221.6</ele>
        <time>2019-08-17T15:45:32Z</time>
      </trkpt>
      <trkpt lat="47.16698" lon="5.84005">
        <ele>221.6</ele>
        <time>2019-08-17T15:45:33Z</time>
      </trkpt>
      <trkpt lat="47.16697" lon="5.83999">
        <ele>221.6</ele>
        <time>2019-08-17T15:45:34Z</time>
      </trkpt>
      <trkpt lat="47.16699" lon="5.83993">
        <ele>221.6</ele>
        <time>2019-08-17T15:45:35Z</time>
      </trkpt>
      <trkpt lat="47.167" lon="5.83987">
        <ele>221.6</ele>
        <time>2019-08-17T15:45:36Z</time>
      </trkpt>
      <trkpt lat="47.16702" lon="5.83982">
        <ele>221.7</ele>
        <time>2019-08-17T15:45:37Z</time>
      </trkpt>
      <trkpt lat="47.16703" lon="5.83975">
        <ele>221.8</ele>
        <time>2019-08-17T15:45:38Z</time>
      </trkpt>
      <trkpt lat="47.16705" lon="5.83968">
        <ele>222</ele>
        <time>2019-08-17T15:45:39Z</time>
      </trkpt>
      <trkpt lat="47.16707" lon="5.83962">
        <ele>222.1</ele>
        <time>2019-08-17T15:45:40Z</time>
      </trkpt>
      <trkpt lat="47.16709" lon="5.83956">
        <ele>222.3</ele>
        <time>2019-08-17T15:45:41Z</time>
      </trkpt>
      <trkpt lat="47.1671" lon="5.83948">
        <ele>222.5</ele>
        <time>2019-08-17T15:45:42Z</time>
      </trkpt>
      <trkpt lat="47.16711" lon="5.83941">
        <ele>222.6</ele>
        <time>2019-08-17T15:45:43Z</time>
      </trkpt>
      <trkpt lat="47.16711" lon="5.83934">
        <ele>222.8</ele>
        <time>2019-08-17T15:45:44Z</time>
      </trkpt>
      <trkpt lat="47.16712" lon="5.83926">
        <ele>222.9</ele>
        <time>2019-08-17T15:45:45Z</time>
      </trkpt>
      <trkpt lat="47.16714" lon="5.83919">
        <ele>223</ele>
        <time>2019-08-17T15:45:46Z</time>
      </trkpt>
      <trkpt lat="47.16715" lon="5.8391">
        <ele>223.1</ele>
        <time>2019-08-17T15:45:47Z</time>
      </trkpt>
      <trkpt lat="47.16717" lon="5.83904">
        <ele>223.2</ele>
        <time>2019-08-17T15:45:48Z</time>
      </trkpt>
      <trkpt lat="47.16717" lon="5.83896">
        <ele>223.2</ele>
        <time>2019-08-17T15:45:49Z</time>
      </trkpt>
      <trkpt lat="47.16718" lon="5.83888">
        <ele>223.3</ele>
        <time>2019-08-17T15:45:50Z</time>
      </trkpt>
      <trkpt lat="47.16718" lon="5.83881">
        <ele>223.4</ele>
        <time>2019-08-17T15:45:51Z</time>
      </trkpt>
      <trkpt lat="47.16719" lon="5.83873">
        <ele>223.5</ele>
        <time>2019-08-17T15:45:52Z</time>
      </trkpt>
      <trkpt lat="47.1672" lon="5.83865">
        <ele>223.5</ele>
        <time>2019-08-17T15:45:53Z</time>
      </trkpt>
      <trkpt lat="47.1672" lon="5.83857">
        <ele>223.5</ele>
        <time>2019-08-17T15:45:54Z</time>
      </trkpt>
      <trkpt lat="47.16722" lon="5.8385">
        <ele>223.6</ele>
        <time>2019-08-17T15:45:55Z</time>
      </trkpt>
      <trkpt lat="47.16723" lon="5.83844">
        <ele>223.6</ele>
        <time>2019-08-17T15:45:56Z</time>
      </trkpt>
      <trkpt lat="47.16724" lon="5.83837">
        <ele>223.7</ele>
        <time>2019-08-17T15:45:57Z</time>
      </trkpt>
      <trkpt lat="47.16725" lon="5.8383">
        <ele>223.8</ele>
        <time>2019-08-17T15:45:58Z</time>
      </trkpt>
      <trkpt lat="47.16726" lon="5.83822">
        <ele>223.8</ele>
        <time>2019-08-17T15:45:59Z</time>
      </trkpt>
      <trkpt lat="47.16727" lon="5.83815">
        <ele>223.9</ele>
        <time>2019-08-17T15:46:00Z</time>
      </trkpt>
      <trkpt lat="47.16728" lon="5.83808">
        <ele>224</ele>
        <time>2019-08-17T15:46:01Z</time>
      </trkpt>
      <trkpt lat="47.16729" lon="5.83801">
        <ele>224</ele>
        <time>2019-08-17T15:46:02Z</time>
      </trkpt>
      <trkpt lat="47.1673" lon="5.83795">
        <ele>224.1</ele>
        <time>2019-08-17T15:46:03Z</time>
      </trkpt>
      <trkpt lat="47.16731" lon="5.83789">
        <ele>224.1</ele>
        <time>2019-08-17T15:46:04Z</time>
      </trkpt>
      <trkpt lat="47.16732" lon="5.83783">
        <ele>224.2</ele>
        <time>2019-08-17T15:46:05Z</time>
      </trkpt>
      <trkpt lat="47.16733" lon="5.83777">
        <ele>224.3</ele>
        <time>2019-08-17T15:46:06Z</time>
      </trkpt>
      <trkpt lat="47.16734" lon="5.83771">
        <ele>224.4</ele>
        <time>2019-08-17T15:46:07Z</time>
      </trkpt>
      <trkpt lat="47.16735" lon="5.83765">
        <ele>224.5</ele>
        <time>2019-08-17T15:46:08Z</time>
      </trkpt>
      <trkpt lat="47.16735" lon="5.83758">
        <ele>224.6</ele>
        <time>2019-08-17T15:46:09Z</time>
      </trkpt>
      <trkpt lat="47.16737" lon="5.83751">
        <ele>224.8</ele>
        <time>2019-08-17T15:46:10Z</time>
      </trkpt>
      <trkpt lat="47.16738" lon="5.83745">
        <ele>225</ele>
        <time>2019-08-17T15:46:11Z</time>
      </trkpt>
      <trkpt lat="47.1674" lon="5.83738">
        <ele>225.2</ele>
        <time>2019-08-17T15:46:12Z</time>
      </trkpt>
      <trkpt lat="47.16741" lon="5.83732">
        <ele>225.3</ele>
        <time>2019-08-17T15:46:13Z</time>
      </trkpt>
      <trkpt lat="47.16741" lon="5.83724">
        <ele>225.5</ele>
        <time>2019-08-17T15:46:14Z</time>
      </trkpt>
      <trkpt lat="47.16742" lon="5.83716">
        <ele>225.7</ele>
        <time>2019-08-17T15:46:15Z</time>
      </trkpt>
      <trkpt lat="47.16742" lon="5.8371">
        <ele>225.8</ele>
        <time>2019-08-17T15:46:16Z</time>
      </trkpt>
      <trkpt lat="47.16741" lon="5.83703">
        <ele>225.9</ele>
        <time>2019-08-17T15:46:17Z</time>
      </trkpt>
      <trkpt lat="47.16741" lon="5.83696">
        <ele>225.9</ele>
        <time>2019-08-17T15:46:18Z</time>
      </trkpt>
      <trkpt lat="47.16741" lon="5.83689">
        <ele>226</ele>
        <time>2019-08-17T15:46:19Z</time>
      </trkpt>
      <trkpt lat="47.16741" lon="5.83681">
        <ele>226.1</ele>
        <time>2019-08-17T15:46:20Z</time>
      </trkpt>
      <trkpt lat="47.16742" lon="5.83674">
        <ele>226.2</ele>
        <time>2019-08-17T15:46:21Z</time>
      </trkpt>
      <trkpt lat="47.16742" lon="5.83667">
        <ele>226.2</ele>
        <time>2019-08-17T15:46:22Z</time>
      </trkpt>
      <trkpt lat="47.16743" lon="5.8366">
        <ele>226.1</ele>
        <time>2019-08-17T15:46:23Z</time>
      </trkpt>
      <trkpt lat="47.16743" lon="5.83652">
        <ele>226.1</ele>
        <time>2019-08-17T15:46:24Z</time>
      </trkpt>
      <trkpt lat="47.16742" lon="5.83645">
        <ele>226.1</ele>
        <time>2019-08-17T15:46:25Z</time>
      </trkpt>
      <trkpt lat="47.16742" lon="5.83637">
        <ele>226.1</ele>
        <time>2019-08-17T15:46:26Z</time>
      </trkpt>
      <trkpt lat="47.16742" lon="5.8363">
        <ele>226.2</ele>
        <time>2019-08-17T15:46:27Z</time>
      </trkpt>
      <trkpt lat="47.16742" lon="5.83622">
        <ele>226.2</ele>
        <time>2019-08-17T15:46:28Z</time>
      </trkpt>
      <trkpt lat="47.16742" lon="5.83615">
        <ele>226.3</ele>
        <time>2019-08-17T15:46:29Z</time>
      </trkpt>
      <trkpt lat="47.16742" lon="5.83608">
        <ele>226.4</ele>
        <time>2019-08-17T15:46:30Z</time>
      </trkpt>
      <trkpt lat="47.16742" lon="5.83601">
        <ele>226.3</ele>
        <time>2019-08-17T15:46:31Z</time>
      </trkpt>
      <trkpt lat="47.16742" lon="5.83595">
        <ele>226.3</ele>
        <time>2019-08-17T15:46:32Z</time>
      </trkpt>
      <trkpt lat="47.16741" lon="5.83588">
        <ele>226.2</ele>
        <time>2019-08-17T15:46:33Z</time>
      </trkpt>
      <trkpt lat="47.16742" lon="5.83581">
        <ele>226</ele>
        <time>2019-08-17T15:46:34Z</time>
      </trkpt>
      <trkpt lat="47.16742" lon="5.83575">
        <ele>225.8</ele>
        <time>2019-08-17T15:46:35Z</time>
      </trkpt>
      <trkpt lat="47.16741" lon="5.83568">
        <ele>225.6</ele>
        <time>2019-08-17T15:46:36Z</time>
      </trkpt>
      <trkpt lat="47.16741" lon="5.83561">
        <ele>225.4</ele>
        <time>2019-08-17T15:46:37Z</time>
      </trkpt>
      <trkpt lat="47.16741" lon="5.83556">
        <ele>225.1</ele>
        <time>2019-08-17T15:46:38Z</time>
      </trkpt>
      <trkpt lat="47.16742" lon="5.8355">
        <ele>224.9</ele>
        <time>2019-08-17T15:46:39Z</time>
      </trkpt>
      <trkpt lat="47.16741" lon="5.83542">
        <ele>224.6</ele>
        <time>2019-08-17T15:46:40Z</time>
      </trkpt>
      <trkpt lat="47.16741" lon="5.83536">
        <ele>224.3</ele>
        <time>2019-08-17T15:46:41Z</time>
      </trkpt>
      <trkpt lat="47.16741" lon="5.83529">
        <ele>224</ele>
        <time>2019-08-17T15:46:42Z</time>
      </trkpt>
      <trkpt lat="47.16742" lon="5.83522">
        <ele>223.7</ele>
        <time>2019-08-17T15:46:43Z</time>
      </trkpt>
      <trkpt lat="47.16742" lon="5.83515">
        <ele>223.4</ele>
        <time>2019-08-17T15:46:44Z</time>
      </trkpt>
      <trkpt lat="47.16742" lon="5.83508">
        <ele>223</ele>
        <time>2019-08-17T15:46:45Z</time>
      </trkpt>
      <trkpt lat="47.16742" lon="5.83502">
        <ele>222.7</ele>
        <time>2019-08-17T15:46:46Z</time>
      </trkpt>
      <trkpt lat="47.16742" lon="5.83495">
        <ele>222.4</ele>
        <time>2019-08-17T15:46:47Z</time>
      </trkpt>
      <trkpt lat="47.16742" lon="5.83489">
        <ele>222.1</ele>
        <time>2019-08-17T15:46:48Z</time>
      </trkpt>
      <trkpt lat="47.16741" lon="5.83481">
        <ele>221.8</ele>
        <time>2019-08-17T15:46:49Z</time>
      </trkpt>
      <trkpt lat="47.16741" lon="5.83474">
        <ele>221.6</ele>
        <time>2019-08-17T15:46:50Z</time>
      </trkpt>
      <trkpt lat="47.1674" lon="5.83468">
        <ele>221.5</ele>
        <time>2019-08-17T15:46:51Z</time>
      </trkpt>
      <trkpt lat="47.16739" lon="5.83463">
        <ele>221.4</ele>
        <time>2019-08-17T15:46:52Z</time>
      </trkpt>
      <trkpt lat="47.16739" lon="5.83458">
        <ele>221.3</ele>
        <time>2019-08-17T15:46:53Z</time>
      </trkpt>
      <trkpt lat="47.16739" lon="5.83453">
        <ele>221.3</ele>
        <time>2019-08-17T15:46:54Z</time>
      </trkpt>
      <trkpt lat="47.16738" lon="5.83448">
        <ele>221.3</ele>
        <time>2019-08-17T15:46:55Z</time>
      </trkpt>
      <trkpt lat="47.16738" lon="5.83442">
        <ele>221.2</ele>
        <time>2019-08-17T15:46:56Z</time>
      </trkpt>
      <trkpt lat="47.16737" lon="5.83435">
        <ele>221.3</ele>
        <time>2019-08-17T15:46:57Z</time>
      </trkpt>
      <trkpt lat="47.16735" lon="5.83429">
        <ele>221.3</ele>
        <time>2019-08-17T15:46:58Z</time>
      </trkpt>
      <trkpt lat="47.16735" lon="5.83422">
        <ele>221.3</ele>
        <time>2019-08-17T15:46:59Z</time>
      </trkpt>
      <trkpt lat="47.16734" lon="5.83416">
        <ele>221.4</ele>
        <time>2019-08-17T15:47:00Z</time>
      </trkpt>
      <trkpt lat="47.16733" lon="5.8341">
        <ele>221.5</ele>
        <time>2019-08-17T15:47:01Z</time>
      </trkpt>
      <trkpt lat="47.16733" lon="5.83405">
        <ele>221.6</ele>
        <time>2019-08-17T15:47:02Z</time>
      </trkpt>
      <trkpt lat="47.16732" lon="5.83399">
        <ele>221.7</ele>
        <time>2019-08-17T15:47:03Z</time>
      </trkpt>
      <trkpt lat="47.16732" lon="5.83394">
        <ele>221.7</ele>
        <time>2019-08-17T15:47:04Z</time>
      </trkpt>
      <trkpt lat="47.16732" lon="5.83388">
        <ele>221.8</ele>
        <time>2019-08-17T15:47:05Z</time>
      </trkpt>
      <trkpt lat="47.16731" lon="5.83383">
        <ele>221.8</ele>
        <time>2019-08-17T15:47:06Z</time>
      </trkpt>
      <trkpt lat="47.1673" lon="5.83377">
        <ele>221.8</ele>
        <time>2019-08-17T15:47:07Z</time>
      </trkpt>
      <trkpt lat="47.1673" lon="5.83372">
        <ele>221.8</ele>
        <time>2019-08-17T15:47:08Z</time>
      </trkpt>
      <trkpt lat="47.16729" lon="5.83367">
        <ele>221.8</ele>
        <time>2019-08-17T15:47:09Z</time>
      </trkpt>
      <trkpt lat="47.16729" lon="5.83361">
        <ele>221.7</ele>
        <time>2019-08-17T15:47:10Z</time>
      </trkpt>
      <trkpt lat="47.16728" lon="5.83355">
        <ele>221.6</ele>
        <time>2019-08-17T15:47:11Z</time>
      </trkpt>
      <trkpt lat="47.16728" lon="5.83349">
        <ele>221.5</ele>
        <time>2019-08-17T15:47:12Z</time>
      </trkpt>
      <trkpt lat="47.16727" lon="5.83343">
        <ele>221.4</ele>
        <time>2019-08-17T15:47:13Z</time>
      </trkpt>
      <trkpt lat="47.16726" lon="5.83336">
        <ele>221.2</ele>
        <time>2019-08-17T15:47:14Z</time>
      </trkpt>
      <trkpt lat="47.16725" lon="5.8333">
        <ele>221</ele>
        <time>2019-08-17T15:47:15Z</time>
      </trkpt>
      <trkpt lat="47.16724" lon="5.83323">
        <ele>220.8</ele>
        <time>2019-08-17T15:47:16Z</time>
      </trkpt>
      <trkpt lat="47.16722" lon="5.83317">
        <ele>220.6</ele>
        <time>2019-08-17T15:47:17Z</time>
      </trkpt>
      <trkpt lat="47.1672" lon="5.83311">
        <ele>220.4</ele>
        <time>2019-08-17T15:47:18Z</time>
      </trkpt>
      <trkpt lat="47.16719" lon="5.83303">
        <ele>220.2</ele>
        <time>2019-08-17T15:47:19Z</time>
      </trkpt>
      <trkpt lat="47.16718" lon="5.83297">
        <ele>220.1</ele>
        <time>2019-08-17T15:47:20Z</time>
      </trkpt>
      <trkpt lat="47.16716" lon="5.8329">
        <ele>219.9</ele>
        <time>2019-08-17T15:47:21Z</time>
      </trkpt>
      <trkpt lat="47.16715" lon="5.83283">
        <ele>219.7</ele>
        <time>2019-08-17T15:47:22Z</time>
      </trkpt>
      <trkpt lat="47.16714" lon="5.83276">
        <ele>219.6</ele>
        <time>2019-08-17T15:47:23Z</time>
      </trkpt>
      <trkpt lat="47.16712" lon="5.8327">
        <ele>219.5</ele>
        <time>2019-08-17T15:47:24Z</time>
      </trkpt>
      <trkpt lat="47.16711" lon="5.83265">
        <ele>219.5</ele>
        <time>2019-08-17T15:47:25Z</time>
      </trkpt>
      <trkpt lat="47.1671" lon="5.83259">
        <ele>219.4</ele>
        <time>2019-08-17T15:47:26Z</time>
      </trkpt>
      <trkpt lat="47.16708" lon="5.83253">
        <ele>219.4</ele>
        <time>2019-08-17T15:47:27Z</time>
      </trkpt>
      <trkpt lat="47.16707" lon="5.83248">
        <ele>219.3</ele>
        <time>2019-08-17T15:47:28Z</time>
      </trkpt>
      <trkpt lat="47.16706" lon="5.83242">
        <ele>219.3</ele>
        <time>2019-08-17T15:47:29Z</time>
      </trkpt>
      <trkpt lat="47.16705" lon="5.83236">
        <ele>219.3</ele>
        <time>2019-08-17T15:47:30Z</time>
      </trkpt>
      <trkpt lat="47.16703" lon="5.83231">
        <ele>219.3</ele>
        <time>2019-08-17T15:47:31Z</time>
      </trkpt>
      <trkpt lat="47.16702" lon="5.83226">
        <ele>219.2</ele>
        <time>2019-08-17T15:47:32Z</time>
      </trkpt>
      <trkpt lat="47.167" lon="5.8322">
        <ele>219.2</ele>
        <time>2019-08-17T15:47:33Z</time>
      </trkpt>
      <trkpt lat="47.16699" lon="5.83214">
        <ele>219.2</ele>
        <time>2019-08-17T15:47:34Z</time>
      </trkpt>
      <trkpt lat="47.16697" lon="5.83209">
        <ele>219.2</ele>
        <time>2019-08-17T15:47:35Z</time>
      </trkpt>
      <trkpt lat="47.16695" lon="5.83203">
        <ele>219.2</ele>
        <time>2019-08-17T15:47:36Z</time>
      </trkpt>
      <trkpt lat="47.16693" lon="5.83198">
        <ele>219.3</ele>
        <time>2019-08-17T15:47:37Z</time>
      </trkpt>
      <trkpt lat="47.16691" lon="5.83192">
        <ele>219.4</ele>
        <time>2019-08-17T15:47:38Z</time>
      </trkpt>
      <trkpt lat="47.16689" lon="5.83186">
        <ele>219.5</ele>
        <time>2019-08-17T15:47:39Z</time>
      </trkpt>
      <trkpt lat="47.16688" lon="5.83179">
        <ele>219.7</ele>
        <time>2019-08-17T15:47:40Z</time>
      </trkpt>
      <trkpt lat="47.16687" lon="5.83174">
        <ele>219.8</ele>
        <time>2019-08-17T15:47:41Z</time>
      </trkpt>
      <trkpt lat="47.16686" lon="5.83168">
        <ele>220</ele>
        <time>2019-08-17T15:47:42Z</time>
      </trkpt>
      <trkpt lat="47.16684" lon="5.83162">
        <ele>220.2</ele>
        <time>2019-08-17T15:47:43Z</time>
      </trkpt>
      <trkpt lat="47.16683" lon="5.83155">
        <ele>220.4</ele>
        <time>2019-08-17T15:47:44Z</time>
      </trkpt>
      <trkpt lat="47.16681" lon="5.83148">
        <ele>220.6</ele>
        <time>2019-08-17T15:47:45Z</time>
      </trkpt>
      <trkpt lat="47.16679" lon="5.83141">
        <ele>220.8</ele>
        <time>2019-08-17T15:47:46Z</time>
      </trkpt>
      <trkpt lat="47.16678" lon="5.83134">
        <ele>221</ele>
        <time>2019-08-17T15:47:47Z</time>
      </trkpt>
      <trkpt lat="47.16676" lon="5.83128">
        <ele>221.2</ele>
        <time>2019-08-17T15:47:48Z</time>
      </trkpt>
      <trkpt lat="47.16674" lon="5.83122">
        <ele>221.3</ele>
        <time>2019-08-17T15:47:49Z</time>
      </trkpt>
      <trkpt lat="47.16673" lon="5.83116">
        <ele>221.5</ele>
        <time>2019-08-17T15:47:50Z</time>
      </trkpt>
      <trkpt lat="47.16671" lon="5.8311">
        <ele>221.6</ele>
        <time>2019-08-17T15:47:51Z</time>
      </trkpt>
      <trkpt lat="47.16669" lon="5.83104">
        <ele>221.7</ele>
        <time>2019-08-17T15:47:52Z</time>
      </trkpt>
      <trkpt lat="47.16667" lon="5.83097">
        <ele>221.8</ele>
        <time>2019-08-17T15:47:53Z</time>
      </trkpt>
      <trkpt lat="47.16664" lon="5.83091">
        <ele>222</ele>
        <time>2019-08-17T15:47:54Z</time>
      </trkpt>
      <trkpt lat="47.16662" lon="5.83084">
        <ele>222.1</ele>
        <time>2019-08-17T15:47:55Z</time>
      </trkpt>
      <trkpt lat="47.16661" lon="5.8308">
        <ele>222.2</ele>
        <time>2019-08-17T15:47:56Z</time>
      </trkpt>
      <trkpt lat="47.16659" lon="5.83074">
        <ele>222.3</ele>
        <time>2019-08-17T15:47:57Z</time>
      </trkpt>
      <trkpt lat="47.16658" lon="5.83068">
        <ele>222.4</ele>
        <time>2019-08-17T15:47:58Z</time>
      </trkpt>
      <trkpt lat="47.16656" lon="5.83063">
        <ele>222.5</ele>
        <time>2019-08-17T15:47:59Z</time>
      </trkpt>
      <trkpt lat="47.16653" lon="5.83057">
        <ele>222.6</ele>
        <time>2019-08-17T15:48:00Z</time>
      </trkpt>
      <trkpt lat="47.16651" lon="5.83052">
        <ele>222.7</ele>
        <time>2019-08-17T15:48:01Z</time>
      </trkpt>
      <trkpt lat="47.16649" lon="5.83047">
        <ele>222.8</ele>
        <time>2019-08-17T15:48:02Z</time>
      </trkpt>
      <trkpt lat="47.16647" lon="5.83042">
        <ele>222.9</ele>
        <time>2019-08-17T15:48:03Z</time>
      </trkpt>
      <trkpt lat="47.16645" lon="5.83036">
        <ele>223</ele>
        <time>2019-08-17T15:48:04Z</time>
      </trkpt>
      <trkpt lat="47.16643" lon="5.83029">
        <ele>223.1</ele>
        <time>2019-08-17T15:48:05Z</time>
      </trkpt>
      <trkpt lat="47.16641" lon="5.83023">
        <ele>223.1</ele>
        <time>2019-08-17T15:48:06Z</time>
      </trkpt>
      <trkpt lat="47.1664" lon="5.83016">
        <ele>223.2</ele>
        <time>2019-08-17T15:48:07Z</time>
      </trkpt>
      <trkpt lat="47.16638" lon="5.83011">
        <ele>223.2</ele>
        <time>2019-08-17T15:48:08Z</time>
      </trkpt>
      <trkpt lat="47.16637" lon="5.83006">
        <ele>223.1</ele>
        <time>2019-08-17T15:48:09Z</time>
      </trkpt>
      <trkpt lat="47.16636" lon="5.83001">
        <ele>223.1</ele>
        <time>2019-08-17T15:48:10Z</time>
      </trkpt>
      <trkpt lat="47.16635" lon="5.82997">
        <ele>223.1</ele>
        <time>2019-08-17T15:48:11Z</time>
      </trkpt>
      <trkpt lat="47.16635" lon="5.82993">
        <ele>223.1</ele>
        <time>2019-08-17T15:48:12Z</time>
      </trkpt>
      <trkpt lat="47.16634" lon="5.82989">
        <ele>223.1</ele>
        <time>2019-08-17T15:48:13Z</time>
      </trkpt>
      <trkpt lat="47.16633" lon="5.82985">
        <ele>223.1</ele>
        <time>2019-08-17T15:48:14Z</time>
      </trkpt>
      <trkpt lat="47.16631" lon="5.8298">
        <ele>223.1</ele>
        <time>2019-08-17T15:48:15Z</time>
      </trkpt>
      <trkpt lat="47.1663" lon="5.82977">
        <ele>223</ele>
        <time>2019-08-17T15:48:16Z</time>
      </trkpt>
      <trkpt lat="47.16627" lon="5.82969">
        <ele>223</ele>
        <time>2019-08-17T15:48:18Z</time>
      </trkpt>
      <trkpt lat="47.16626" lon="5.82965">
        <ele>223</ele>
        <time>2019-08-17T15:48:19Z</time>
      </trkpt>
      <trkpt lat="47.16626" lon="5.8296">
        <ele>222.9</ele>
        <time>2019-08-17T15:48:20Z</time>
      </trkpt>
      <trkpt lat="47.16625" lon="5.82954">
        <ele>222.9</ele>
        <time>2019-08-17T15:48:21Z</time>
      </trkpt>
      <trkpt lat="47.16625" lon="5.82949">
        <ele>222.9</ele>
        <time>2019-08-17T15:48:22Z</time>
      </trkpt>
      <trkpt lat="47.16624" lon="5.82942">
        <ele>222.8</ele>
        <time>2019-08-17T15:48:23Z</time>
      </trkpt>
      <trkpt lat="47.16623" lon="5.82935">
        <ele>222.7</ele>
        <time>2019-08-17T15:48:24Z</time>
      </trkpt>
      <trkpt lat="47.16623" lon="5.82927">
        <ele>222.6</ele>
        <time>2019-08-17T15:48:25Z</time>
      </trkpt>
      <trkpt lat="47.16623" lon="5.82918">
        <ele>222.4</ele>
        <time>2019-08-17T15:48:26Z</time>
      </trkpt>
      <trkpt lat="47.16622" lon="5.8291">
        <ele>222.2</ele>
        <time>2019-08-17T15:48:27Z</time>
      </trkpt>
      <trkpt lat="47.16622" lon="5.82902">
        <ele>221.9</ele>
        <time>2019-08-17T15:48:28Z</time>
      </trkpt>
      <trkpt lat="47.16622" lon="5.82895">
        <ele>221.7</ele>
        <time>2019-08-17T15:48:29Z</time>
      </trkpt>
      <trkpt lat="47.16622" lon="5.82889">
        <ele>221.5</ele>
        <time>2019-08-17T15:48:30Z</time>
      </trkpt>
      <trkpt lat="47.16621" lon="5.82883">
        <ele>221.3</ele>
        <time>2019-08-17T15:48:31Z</time>
      </trkpt>
      <trkpt lat="47.16619" lon="5.82877">
        <ele>221.1</ele>
        <time>2019-08-17T15:48:32Z</time>
      </trkpt>
      <trkpt lat="47.16618" lon="5.82871">
        <ele>220.9</ele>
        <time>2019-08-17T15:48:33Z</time>
      </trkpt>
      <trkpt lat="47.16618" lon="5.82865">
        <ele>220.6</ele>
        <time>2019-08-17T15:48:34Z</time>
      </trkpt>
      <trkpt lat="47.16618" lon="5.82859">
        <ele>220.3</ele>
        <time>2019-08-17T15:48:35Z</time>
      </trkpt>
      <trkpt lat="47.16618" lon="5.82851">
        <ele>219.9</ele>
        <time>2019-08-17T15:48:36Z</time>
      </trkpt>
      <trkpt lat="47.16618" lon="5.82845">
        <ele>219.6</ele>
        <time>2019-08-17T15:48:37Z</time>
      </trkpt>
      <trkpt lat="47.16617" lon="5.82838">
        <ele>219.2</ele>
        <time>2019-08-17T15:48:38Z</time>
      </trkpt>
      <trkpt lat="47.16616" lon="5.82831">
        <ele>218.8</ele>
        <time>2019-08-17T15:48:39Z</time>
      </trkpt>
      <trkpt lat="47.16616" lon="5.82825">
        <ele>218.4</ele>
        <time>2019-08-17T15:48:40Z</time>
      </trkpt>
      <trkpt lat="47.16615" lon="5.82819">
        <ele>218.1</ele>
        <time>2019-08-17T15:48:41Z</time>
      </trkpt>
      <trkpt lat="47.16614" lon="5.82813">
        <ele>217.9</ele>
        <time>2019-08-17T15:48:42Z</time>
      </trkpt>
      <trkpt lat="47.16614" lon="5.82807">
        <ele>217.8</ele>
        <time>2019-08-17T15:48:43Z</time>
      </trkpt>
      <trkpt lat="47.16613" lon="5.82802">
        <ele>217.6</ele>
        <time>2019-08-17T15:48:44Z</time>
      </trkpt>
      <trkpt lat="47.16612" lon="5.82797">
        <ele>217.5</ele>
        <time>2019-08-17T15:48:45Z</time>
      </trkpt>
      <trkpt lat="47.16611" lon="5.82791">
        <ele>217.3</ele>
        <time>2019-08-17T15:48:46Z</time>
      </trkpt>
      <trkpt lat="47.1661" lon="5.82786">
        <ele>217.2</ele>
        <time>2019-08-17T15:48:47Z</time>
      </trkpt>
      <trkpt lat="47.16611" lon="5.82778">
        <ele>216.9</ele>
        <time>2019-08-17T15:48:49Z</time>
      </trkpt>
      <trkpt lat="47.16612" lon="5.82774">
        <ele>216.8</ele>
        <time>2019-08-17T15:48:50Z</time>
      </trkpt>
      <trkpt lat="47.16613" lon="5.82769">
        <ele>216.6</ele>
        <time>2019-08-17T15:48:51Z</time>
      </trkpt>
      <trkpt lat="47.16614" lon="5.82764">
        <ele>216.6</ele>
        <time>2019-08-17T15:48:52Z</time>
      </trkpt>
      <trkpt lat="47.16615" lon="5.82759">
        <ele>216.6</ele>
        <time>2019-08-17T15:48:53Z</time>
      </trkpt>
      <trkpt lat="47.16615" lon="5.82753">
        <ele>216.6</ele>
        <time>2019-08-17T15:48:54Z</time>
      </trkpt>
      <trkpt lat="47.16615" lon="5.82748">
        <ele>216.6</ele>
        <time>2019-08-17T15:48:55Z</time>
      </trkpt>
      <trkpt lat="47.16616" lon="5.82743">
        <ele>216.6</ele>
        <time>2019-08-17T15:48:56Z</time>
      </trkpt>
      <trkpt lat="47.16616" lon="5.82737">
        <ele>216.6</ele>
        <time>2019-08-17T15:48:57Z</time>
      </trkpt>
      <trkpt lat="47.16617" lon="5.82731">
        <ele>216.6</ele>
        <time>2019-08-17T15:48:58Z</time>
      </trkpt>
      <trkpt lat="47.16618" lon="5.82725">
        <ele>216.5</ele>
        <time>2019-08-17T15:48:59Z</time>
      </trkpt>
      <trkpt lat="47.16618" lon="5.82718">
        <ele>216.5</ele>
        <time>2019-08-17T15:49:00Z</time>
      </trkpt>
      <trkpt lat="47.16618" lon="5.82712">
        <ele>216.5</ele>
        <time>2019-08-17T15:49:01Z</time>
      </trkpt>
      <trkpt lat="47.16618" lon="5.82705">
        <ele>216.5</ele>
        <time>2019-08-17T15:49:02Z</time>
      </trkpt>
      <trkpt lat="47.16618" lon="5.82698">
        <ele>216.4</ele>
        <time>2019-08-17T15:49:03Z</time>
      </trkpt>
      <trkpt lat="47.16619" lon="5.82692">
        <ele>216.4</ele>
        <time>2019-08-17T15:49:04Z</time>
      </trkpt>
      <trkpt lat="47.16618" lon="5.82685">
        <ele>216.2</ele>
        <time>2019-08-17T15:49:05Z</time>
      </trkpt>
      <trkpt lat="47.16618" lon="5.82677">
        <ele>216.1</ele>
        <time>2019-08-17T15:49:06Z</time>
      </trkpt>
      <trkpt lat="47.16619" lon="5.82671">
        <ele>215.9</ele>
        <time>2019-08-17T15:49:07Z</time>
      </trkpt>
      <trkpt lat="47.16619" lon="5.82666">
        <ele>215.7</ele>
        <time>2019-08-17T15:49:08Z</time>
      </trkpt>
      <trkpt lat="47.16619" lon="5.8266">
        <ele>215.5</ele>
        <time>2019-08-17T15:49:09Z</time>
      </trkpt>
      <trkpt lat="47.16619" lon="5.82655">
        <ele>215.4</ele>
        <time>2019-08-17T15:49:10Z</time>
      </trkpt>
      <trkpt lat="47.16619" lon="5.82649">
        <ele>215.2</ele>
        <time>2019-08-17T15:49:11Z</time>
      </trkpt>
      <trkpt lat="47.16619" lon="5.82644">
        <ele>215.1</ele>
        <time>2019-08-17T15:49:12Z</time>
      </trkpt>
      <trkpt lat="47.16619" lon="5.82639">
        <ele>215</ele>
        <time>2019-08-17T15:49:13Z</time>
      </trkpt>
      <trkpt lat="47.16619" lon="5.82633">
        <ele>214.9</ele>
        <time>2019-08-17T15:49:14Z</time>
      </trkpt>
      <trkpt lat="47.16619" lon="5.82627">
        <ele>214.8</ele>
        <time>2019-08-17T15:49:15Z</time>
      </trkpt>
      <trkpt lat="47.16619" lon="5.82621">
        <ele>214.7</ele>
        <time>2019-08-17T15:49:16Z</time>
      </trkpt>
      <trkpt lat="47.16619" lon="5.82615">
        <ele>214.7</ele>
        <time>2019-08-17T15:49:17Z</time>
      </trkpt>
      <trkpt lat="47.16618" lon="5.82609">
        <ele>214.7</ele>
        <time>2019-08-17T15:49:18Z</time>
      </trkpt>
      <trkpt lat="47.16618" lon="5.82603">
        <ele>214.7</ele>
        <time>2019-08-17T15:49:19Z</time>
      </trkpt>
      <trkpt lat="47.16617" lon="5.82597">
        <ele>214.6</ele>
        <time>2019-08-17T15:49:20Z</time>
      </trkpt>
      <trkpt lat="47.16617" lon="5.82592">
        <ele>214.6</ele>
        <time>2019-08-17T15:49:21Z</time>
      </trkpt>
      <trkpt lat="47.16616" lon="5.82587">
        <ele>214.6</ele>
        <time>2019-08-17T15:49:22Z</time>
      </trkpt>
      <trkpt lat="47.16616" lon="5.82581">
        <ele>214.6</ele>
        <time>2019-08-17T15:49:23Z</time>
      </trkpt>
      <trkpt lat="47.16615" lon="5.82576">
        <ele>214.6</ele>
        <time>2019-08-17T15:49:24Z</time>
      </trkpt>
      <trkpt lat="47.16615" lon="5.82571">
        <ele>214.6</ele>
        <time>2019-08-17T15:49:25Z</time>
      </trkpt>
      <trkpt lat="47.16614" lon="5.82564">
        <ele>214.6</ele>
        <time>2019-08-17T15:49:26Z</time>
      </trkpt>
      <trkpt lat="47.16614" lon="5.82557">
        <ele>214.6</ele>
        <time>2019-08-17T15:49:27Z</time>
      </trkpt>
      <trkpt lat="47.16614" lon="5.82551">
        <ele>214.6</ele>
        <time>2019-08-17T15:49:28Z</time>
      </trkpt>
      <trkpt lat="47.16613" lon="5.82544">
        <ele>214.6</ele>
        <time>2019-08-17T15:49:29Z</time>
      </trkpt>
      <trkpt lat="47.16613" lon="5.82537">
        <ele>214.6</ele>
        <time>2019-08-17T15:49:30Z</time>
      </trkpt>
      <trkpt lat="47.16613" lon="5.8253">
        <ele>214.6</ele>
        <time>2019-08-17T15:49:31Z</time>
      </trkpt>
      <trkpt lat="47.16613" lon="5.82523">
        <ele>214.6</ele>
        <time>2019-08-17T15:49:32Z</time>
      </trkpt>
      <trkpt lat="47.16612" lon="5.82515">
        <ele>214.6</ele>
        <time>2019-08-17T15:49:33Z</time>
      </trkpt>
      <trkpt lat="47.16613" lon="5.82508">
        <ele>214.6</ele>
        <time>2019-08-17T15:49:34Z</time>
      </trkpt>
      <trkpt lat="47.16614" lon="5.82502">
        <ele>214.6</ele>
        <time>2019-08-17T15:49:35Z</time>
      </trkpt>
      <trkpt lat="47.16616" lon="5.82496">
        <ele>214.6</ele>
        <time>2019-08-17T15:49:36Z</time>
      </trkpt>
      <trkpt lat="47.16617" lon="5.8249">
        <ele>214.6</ele>
        <time>2019-08-17T15:49:37Z</time>
      </trkpt>
      <trkpt lat="47.16619" lon="5.82484">
        <ele>214.6</ele>
        <time>2019-08-17T15:49:38Z</time>
      </trkpt>
      <trkpt lat="47.1662" lon="5.82478">
        <ele>214.6</ele>
        <time>2019-08-17T15:49:39Z</time>
      </trkpt>
      <trkpt lat="47.16622" lon="5.82472">
        <ele>214.6</ele>
        <time>2019-08-17T15:49:40Z</time>
      </trkpt>
      <trkpt lat="47.16623" lon="5.82466">
        <ele>214.6</ele>
        <time>2019-08-17T15:49:41Z</time>
      </trkpt>
      <trkpt lat="47.16625" lon="5.82461">
        <ele>214.6</ele>
        <time>2019-08-17T15:49:42Z</time>
      </trkpt>
      <trkpt lat="47.16626" lon="5.82455">
        <ele>214.5</ele>
        <time>2019-08-17T15:49:43Z</time>
      </trkpt>
      <trkpt lat="47.16627" lon="5.82449">
        <ele>214.5</ele>
        <time>2019-08-17T15:49:44Z</time>
      </trkpt>
      <trkpt lat="47.16629" lon="5.82443">
        <ele>214.4</ele>
        <time>2019-08-17T15:49:45Z</time>
      </trkpt>
      <trkpt lat="47.16631" lon="5.82437">
        <ele>214.4</ele>
        <time>2019-08-17T15:49:46Z</time>
      </trkpt>
      <trkpt lat="47.16633" lon="5.82431">
        <ele>214.2</ele>
        <time>2019-08-17T15:49:47Z</time>
      </trkpt>
      <trkpt lat="47.16636" lon="5.82426">
        <ele>214.1</ele>
        <time>2019-08-17T15:49:48Z</time>
      </trkpt>
      <trkpt lat="47.16638" lon="5.8242">
        <ele>214</ele>
        <time>2019-08-17T15:49:49Z</time>
      </trkpt>
      <trkpt lat="47.16641" lon="5.82414">
        <ele>213.9</ele>
        <time>2019-08-17T15:49:50Z</time>
      </trkpt>
      <trkpt lat="47.16643" lon="5.82407">
        <ele>213.8</ele>
        <time>2019-08-17T15:49:51Z</time>
      </trkpt>
      <trkpt lat="47.16646" lon="5.82401">
        <ele>213.7</ele>
        <time>2019-08-17T15:49:52Z</time>
      </trkpt>
      <trkpt lat="47.16648" lon="5.82394">
        <ele>213.7</ele>
        <time>2019-08-17T15:49:53Z</time>
      </trkpt>
      <trkpt lat="47.1665" lon="5.82388">
        <ele>213.6</ele>
        <time>2019-08-17T15:49:54Z</time>
      </trkpt>
      <trkpt lat="47.16652" lon="5.82382">
        <ele>213.6</ele>
        <time>2019-08-17T15:49:55Z</time>
      </trkpt>
      <trkpt lat="47.16655" lon="5.82375">
        <ele>213.6</ele>
        <time>2019-08-17T15:49:56Z</time>
      </trkpt>
      <trkpt lat="47.16655" lon="5.82369">
        <ele>213.6</ele>
        <time>2019-08-17T15:49:57Z</time>
      </trkpt>
      <trkpt lat="47.16657" lon="5.82363">
        <ele>213.6</ele>
        <time>2019-08-17T15:49:58Z</time>
      </trkpt>
      <trkpt lat="47.16658" lon="5.82356">
        <ele>213.6</ele>
        <time>2019-08-17T15:49:59Z</time>
      </trkpt>
      <trkpt lat="47.1666" lon="5.8235">
        <ele>213.6</ele>
        <time>2019-08-17T15:50:00Z</time>
      </trkpt>
      <trkpt lat="47.16663" lon="5.82345">
        <ele>213.6</ele>
        <time>2019-08-17T15:50:01Z</time>
      </trkpt>
      <trkpt lat="47.16666" lon="5.8234">
        <ele>213.6</ele>
        <time>2019-08-17T15:50:02Z</time>
      </trkpt>
      <trkpt lat="47.16668" lon="5.82335">
        <ele>213.6</ele>
        <time>2019-08-17T15:50:03Z</time>
      </trkpt>
      <trkpt lat="47.16671" lon="5.82329">
        <ele>213.6</ele>
        <time>2019-08-17T15:50:04Z</time>
      </trkpt>
      <trkpt lat="47.16673" lon="5.82323">
        <ele>213.6</ele>
        <time>2019-08-17T15:50:05Z</time>
      </trkpt>
      <trkpt lat="47.16676" lon="5.82318">
        <ele>213.6</ele>
        <time>2019-08-17T15:50:06Z</time>
      </trkpt>
      <trkpt lat="47.16678" lon="5.82312">
        <ele>213.6</ele>
        <time>2019-08-17T15:50:07Z</time>
      </trkpt>
      <trkpt lat="47.16681" lon="5.82306">
        <ele>213.6</ele>
        <time>2019-08-17T15:50:08Z</time>
      </trkpt>
      <trkpt lat="47.16683" lon="5.82301">
        <ele>213.6</ele>
        <time>2019-08-17T15:50:09Z</time>
      </trkpt>
      <trkpt lat="47.16686" lon="5.82295">
        <ele>213.6</ele>
        <time>2019-08-17T15:50:10Z</time>
      </trkpt>
      <trkpt lat="47.16687" lon="5.82291">
        <ele>213.6</ele>
        <time>2019-08-17T15:50:11Z</time>
      </trkpt>
      <trkpt lat="47.1669" lon="5.82285">
        <ele>213.6</ele>
        <time>2019-08-17T15:50:12Z</time>
      </trkpt>
      <trkpt lat="47.16693" lon="5.82278">
        <ele>213.6</ele>
        <time>2019-08-17T15:50:13Z</time>
      </trkpt>
      <trkpt lat="47.16696" lon="5.82271">
        <ele>213.6</ele>
        <time>2019-08-17T15:50:14Z</time>
      </trkpt>
      <trkpt lat="47.167" lon="5.82264">
        <ele>213.5</ele>
        <time>2019-08-17T15:50:15Z</time>
      </trkpt>
      <trkpt lat="47.16703" lon="5.82259">
        <ele>213.5</ele>
        <time>2019-08-17T15:50:16Z</time>
      </trkpt>
      <trkpt lat="47.16706" lon="5.82254">
        <ele>213.5</ele>
        <time>2019-08-17T15:50:17Z</time>
      </trkpt>
      <trkpt lat="47.16709" lon="5.82248">
        <ele>213.5</ele>
        <time>2019-08-17T15:50:18Z</time>
      </trkpt>
      <trkpt lat="47.16711" lon="5.82244">
        <ele>213.5</ele>
        <time>2019-08-17T15:50:19Z</time>
      </trkpt>
      <trkpt lat="47.16714" lon="5.82237">
        <ele>213.5</ele>
        <time>2019-08-17T15:50:20Z</time>
      </trkpt>
      <trkpt lat="47.16717" lon="5.82232">
        <ele>213.5</ele>
        <time>2019-08-17T15:50:21Z</time>
      </trkpt>
      <trkpt lat="47.1672" lon="5.82227">
        <ele>213.2</ele>
        <time>2019-08-17T15:50:22Z</time>
      </trkpt>
      <trkpt lat="47.16722" lon="5.82222">
        <ele>213</ele>
        <time>2019-08-17T15:50:23Z</time>
      </trkpt>
      <trkpt lat="47.16723" lon="5.82217">
        <ele>212.9</ele>
        <time>2019-08-17T15:50:24Z</time>
      </trkpt>
      <trkpt lat="47.16724" lon="5.82211">
        <ele>212.7</ele>
        <time>2019-08-17T15:50:25Z</time>
      </trkpt>
      <trkpt lat="47.16726" lon="5.82206">
        <ele>212.7</ele>
        <time>2019-08-17T15:50:26Z</time>
      </trkpt>
      <trkpt lat="47.16728" lon="5.82199">
        <ele>212.6</ele>
        <time>2019-08-17T15:50:27Z</time>
      </trkpt>
      <trkpt lat="47.16729" lon="5.82192">
        <ele>212.6</ele>
        <time>2019-08-17T15:50:28Z</time>
      </trkpt>
      <trkpt lat="47.16731" lon="5.82187">
        <ele>212.6</ele>
        <time>2019-08-17T15:50:29Z</time>
      </trkpt>
      <trkpt lat="47.16734" lon="5.82181">
        <ele>212.5</ele>
        <time>2019-08-17T15:50:30Z</time>
      </trkpt>
      <trkpt lat="47.16736" lon="5.82174">
        <ele>212.5</ele>
        <time>2019-08-17T15:50:31Z</time>
      </trkpt>
      <trkpt lat="47.16737" lon="5.82169">
        <ele>212.5</ele>
        <time>2019-08-17T15:50:32Z</time>
      </trkpt>
      <trkpt lat="47.1674" lon="5.82163">
        <ele>212.5</ele>
        <time>2019-08-17T15:50:33Z</time>
      </trkpt>
      <trkpt lat="47.16742" lon="5.82157">
        <ele>212.5</ele>
        <time>2019-08-17T15:50:34Z</time>
      </trkpt>
      <trkpt lat="47.16744" lon="5.82152">
        <ele>212.5</ele>
        <time>2019-08-17T15:50:35Z</time>
      </trkpt>
      <trkpt lat="47.16745" lon="5.82146">
        <ele>212.5</ele>
        <time>2019-08-17T15:50:36Z</time>
      </trkpt>
      <trkpt lat="47.16746" lon="5.8214">
        <ele>212.5</ele>
        <time>2019-08-17T15:50:37Z</time>
      </trkpt>
      <trkpt lat="47.16748" lon="5.82135">
        <ele>212.5</ele>
        <time>2019-08-17T15:50:38Z</time>
      </trkpt>
      <trkpt lat="47.1675" lon="5.82129">
        <ele>212.5</ele>
        <time>2019-08-17T15:50:39Z</time>
      </trkpt>
      <trkpt lat="47.16752" lon="5.82124">
        <ele>212.5</ele>
        <time>2019-08-17T15:50:40Z</time>
      </trkpt>
      <trkpt lat="47.16754" lon="5.82118">
        <ele>212.5</ele>
        <time>2019-08-17T15:50:41Z</time>
      </trkpt>
      <trkpt lat="47.16756" lon="5.82112">
        <ele>212.5</ele>
        <time>2019-08-17T15:50:42Z</time>
      </trkpt>
      <trkpt lat="47.16757" lon="5.82105">
        <ele>212.5</ele>
        <time>2019-08-17T15:50:43Z</time>
      </trkpt>
      <trkpt lat="47.16759" lon="5.82099">
        <ele>212.5</ele>
        <time>2019-08-17T15:50:44Z</time>
      </trkpt>
      <trkpt lat="47.16761" lon="5.82093">
        <ele>212.5</ele>
        <time>2019-08-17T15:50:45Z</time>
      </trkpt>
      <trkpt lat="47.16765" lon="5.82088">
        <ele>212.5</ele>
        <time>2019-08-17T15:50:46Z</time>
      </trkpt>
      <trkpt lat="47.16767" lon="5.82082">
        <ele>212.5</ele>
        <time>2019-08-17T15:50:47Z</time>
      </trkpt>
      <trkpt lat="47.16768" lon="5.82076">
        <ele>212.5</ele>
        <time>2019-08-17T15:50:48Z</time>
      </trkpt>
      <trkpt lat="47.1677" lon="5.82069">
        <ele>212.5</ele>
        <time>2019-08-17T15:50:49Z</time>
      </trkpt>
      <trkpt lat="47.16771" lon="5.82062">
        <ele>212.5</ele>
        <time>2019-08-17T15:50:50Z</time>
      </trkpt>
      <trkpt lat="47.16773" lon="5.82056">
        <ele>212.5</ele>
        <time>2019-08-17T15:50:51Z</time>
      </trkpt>
      <trkpt lat="47.16774" lon="5.82051">
        <ele>212.6</ele>
        <time>2019-08-17T15:50:52Z</time>
      </trkpt>
      <trkpt lat="47.16776" lon="5.82045">
        <ele>212.6</ele>
        <time>2019-08-17T15:50:53Z</time>
      </trkpt>
      <trkpt lat="47.16777" lon="5.82037">
        <ele>212.7</ele>
        <time>2019-08-17T15:50:54Z</time>
      </trkpt>
      <trkpt lat="47.16779" lon="5.8203">
        <ele>212.8</ele>
        <time>2019-08-17T15:50:55Z</time>
      </trkpt>
      <trkpt lat="47.1678" lon="5.82024">
        <ele>213</ele>
        <time>2019-08-17T15:50:56Z</time>
      </trkpt>
      <trkpt lat="47.16781" lon="5.82017">
        <ele>213.1</ele>
        <time>2019-08-17T15:50:57Z</time>
      </trkpt>
      <trkpt lat="47.16783" lon="5.8201">
        <ele>213.3</ele>
        <time>2019-08-17T15:50:58Z</time>
      </trkpt>
      <trkpt lat="47.16784" lon="5.82003">
        <ele>213.4</ele>
        <time>2019-08-17T15:50:59Z</time>
      </trkpt>
      <trkpt lat="47.16785" lon="5.81995">
        <ele>213.4</ele>
        <time>2019-08-17T15:51:00Z</time>
      </trkpt>
      <trkpt lat="47.16786" lon="5.81988">
        <ele>213.3</ele>
        <time>2019-08-17T15:51:01Z</time>
      </trkpt>
      <trkpt lat="47.16787" lon="5.81981">
        <ele>213.3</ele>
        <time>2019-08-17T15:51:02Z</time>
      </trkpt>
      <trkpt lat="47.16788" lon="5.81973">
        <ele>213.2</ele>
        <time>2019-08-17T15:51:03Z</time>
      </trkpt>
      <trkpt lat="47.16788" lon="5.81964">
        <ele>213.1</ele>
        <time>2019-08-17T15:51:04Z</time>
      </trkpt>
      <trkpt lat="47.16789" lon="5.81956">
        <ele>213</ele>
        <time>2019-08-17T15:51:05Z</time>
      </trkpt>
      <trkpt lat="47.16791" lon="5.81948">
        <ele>213</ele>
        <time>2019-08-17T15:51:06Z</time>
      </trkpt>
      <trkpt lat="47.16792" lon="5.81941">
        <ele>213</ele>
        <time>2019-08-17T15:51:07Z</time>
      </trkpt>
      <trkpt lat="47.16792" lon="5.81935">
        <ele>213</ele>
        <time>2019-08-17T15:51:08Z</time>
      </trkpt>
      <trkpt lat="47.16793" lon="5.81927">
        <ele>213</ele>
        <time>2019-08-17T15:51:09Z</time>
      </trkpt>
      <trkpt lat="47.16793" lon="5.8192">
        <ele>213.1</ele>
        <time>2019-08-17T15:51:10Z</time>
      </trkpt>
      <trkpt lat="47.16795" lon="5.81913">
        <ele>213.2</ele>
        <time>2019-08-17T15:51:11Z</time>
      </trkpt>
      <trkpt lat="47.16797" lon="5.81907">
        <ele>213.3</ele>
        <time>2019-08-17T15:51:12Z</time>
      </trkpt>
      <trkpt lat="47.16798" lon="5.81901">
        <ele>213.3</ele>
        <time>2019-08-17T15:51:13Z</time>
      </trkpt>
      <trkpt lat="47.16799" lon="5.81893">
        <ele>213.4</ele>
        <time>2019-08-17T15:51:14Z</time>
      </trkpt>
      <trkpt lat="47.16801" lon="5.81887">
        <ele>213.4</ele>
        <time>2019-08-17T15:51:15Z</time>
      </trkpt>
      <trkpt lat="47.16801" lon="5.81878">
        <ele>213.5</ele>
        <time>2019-08-17T15:51:16Z</time>
      </trkpt>
      <trkpt lat="47.16802" lon="5.8187">
        <ele>213.5</ele>
        <time>2019-08-17T15:51:17Z</time>
      </trkpt>
      <trkpt lat="47.16803" lon="5.81862">
        <ele>213.5</ele>
        <time>2019-08-17T15:51:18Z</time>
      </trkpt>
      <trkpt lat="47.16804" lon="5.81854">
        <ele>213.5</ele>
        <time>2019-08-17T15:51:19Z</time>
      </trkpt>
      <trkpt lat="47.16805" lon="5.81845">
        <ele>213.5</ele>
        <time>2019-08-17T15:51:20Z</time>
      </trkpt>
      <trkpt lat="47.16806" lon="5.81839">
        <ele>213.5</ele>
        <time>2019-08-17T15:51:21Z</time>
      </trkpt>
      <trkpt lat="47.16807" lon="5.81832">
        <ele>213.4</ele>
        <time>2019-08-17T15:51:22Z</time>
      </trkpt>
      <trkpt lat="47.16808" lon="5.81825">
        <ele>213.3</ele>
        <time>2019-08-17T15:51:23Z</time>
      </trkpt>
      <trkpt lat="47.16809" lon="5.81818">
        <ele>213.2</ele>
        <time>2019-08-17T15:51:24Z</time>
      </trkpt>
      <trkpt lat="47.1681" lon="5.81811">
        <ele>213.2</ele>
        <time>2019-08-17T15:51:25Z</time>
      </trkpt>
      <trkpt lat="47.16809" lon="5.81804">
        <ele>213</ele>
        <time>2019-08-17T15:51:26Z</time>
      </trkpt>
      <trkpt lat="47.16809" lon="5.81796">
        <ele>212.9</ele>
        <time>2019-08-17T15:51:27Z</time>
      </trkpt>
      <trkpt lat="47.16809" lon="5.81788">
        <ele>212.9</ele>
        <time>2019-08-17T15:51:28Z</time>
      </trkpt>
      <trkpt lat="47.16809" lon="5.81781">
        <ele>212.8</ele>
        <time>2019-08-17T15:51:29Z</time>
      </trkpt>
      <trkpt lat="47.16809" lon="5.81773">
        <ele>212.7</ele>
        <time>2019-08-17T15:51:30Z</time>
      </trkpt>
      <trkpt lat="47.16809" lon="5.81766">
        <ele>212.7</ele>
        <time>2019-08-17T15:51:31Z</time>
      </trkpt>
      <trkpt lat="47.16809" lon="5.81757">
        <ele>212.7</ele>
        <time>2019-08-17T15:51:32Z</time>
      </trkpt>
      <trkpt lat="47.1681" lon="5.8175">
        <ele>212.7</ele>
        <time>2019-08-17T15:51:33Z</time>
      </trkpt>
      <trkpt lat="47.16811" lon="5.81742">
        <ele>212.7</ele>
        <time>2019-08-17T15:51:34Z</time>
      </trkpt>
      <trkpt lat="47.16811" lon="5.81735">
        <ele>212.7</ele>
        <time>2019-08-17T15:51:35Z</time>
      </trkpt>
      <trkpt lat="47.16811" lon="5.81728">
        <ele>212.7</ele>
        <time>2019-08-17T15:51:36Z</time>
      </trkpt>
      <trkpt lat="47.16812" lon="5.81722">
        <ele>212.7</ele>
        <time>2019-08-17T15:51:37Z</time>
      </trkpt>
      <trkpt lat="47.16812" lon="5.81716">
        <ele>212.8</ele>
        <time>2019-08-17T15:51:38Z</time>
      </trkpt>
      <trkpt lat="47.16811" lon="5.81707">
        <ele>212.8</ele>
        <time>2019-08-17T15:51:39Z</time>
      </trkpt>
      <trkpt lat="47.16812" lon="5.81699">
        <ele>212.8</ele>
        <time>2019-08-17T15:51:40Z</time>
      </trkpt>
      <trkpt lat="47.16812" lon="5.81691">
        <ele>212.8</ele>
        <time>2019-08-17T15:51:41Z</time>
      </trkpt>
      <trkpt lat="47.16812" lon="5.81683">
        <ele>212.8</ele>
        <time>2019-08-17T15:51:42Z</time>
      </trkpt>
      <trkpt lat="47.16812" lon="5.81677">
        <ele>212.8</ele>
        <time>2019-08-17T15:51:43Z</time>
      </trkpt>
      <trkpt lat="47.16812" lon="5.81669">
        <ele>212.8</ele>
        <time>2019-08-17T15:51:44Z</time>
      </trkpt>
      <trkpt lat="47.16811" lon="5.81661">
        <ele>212.8</ele>
        <time>2019-08-17T15:51:45Z</time>
      </trkpt>
      <trkpt lat="47.16811" lon="5.81654">
        <ele>212.8</ele>
        <time>2019-08-17T15:51:46Z</time>
      </trkpt>
      <trkpt lat="47.16811" lon="5.81647">
        <ele>212.8</ele>
        <time>2019-08-17T15:51:47Z</time>
      </trkpt>
      <trkpt lat="47.16811" lon="5.8164">
        <ele>212.9</ele>
        <time>2019-08-17T15:51:48Z</time>
      </trkpt>
      <trkpt lat="47.1681" lon="5.81633">
        <ele>212.9</ele>
        <time>2019-08-17T15:51:49Z</time>
      </trkpt>
      <trkpt lat="47.1681" lon="5.81627">
        <ele>212.9</ele>
        <time>2019-08-17T15:51:50Z</time>
      </trkpt>
      <trkpt lat="47.16809" lon="5.8162">
        <ele>212.9</ele>
        <time>2019-08-17T15:51:51Z</time>
      </trkpt>
      <trkpt lat="47.16809" lon="5.81612">
        <ele>213</ele>
        <time>2019-08-17T15:51:52Z</time>
      </trkpt>
      <trkpt lat="47.16808" lon="5.81605">
        <ele>213</ele>
        <time>2019-08-17T15:51:53Z</time>
      </trkpt>
      <trkpt lat="47.16809" lon="5.81597">
        <ele>213</ele>
        <time>2019-08-17T15:51:54Z</time>
      </trkpt>
      <trkpt lat="47.16808" lon="5.81589">
        <ele>213.1</ele>
        <time>2019-08-17T15:51:55Z</time>
      </trkpt>
      <trkpt lat="47.16809" lon="5.81583">
        <ele>213.1</ele>
        <time>2019-08-17T15:51:56Z</time>
      </trkpt>
      <trkpt lat="47.16808" lon="5.81575">
        <ele>213.1</ele>
        <time>2019-08-17T15:51:57Z</time>
      </trkpt>
      <trkpt lat="47.16807" lon="5.81567">
        <ele>213.1</ele>
        <time>2019-08-17T15:51:58Z</time>
      </trkpt>
      <trkpt lat="47.16807" lon="5.8156">
        <ele>213.1</ele>
        <time>2019-08-17T15:51:59Z</time>
      </trkpt>
      <trkpt lat="47.16807" lon="5.81552">
        <ele>213.1</ele>
        <time>2019-08-17T15:52:00Z</time>
      </trkpt>
      <trkpt lat="47.16807" lon="5.81545">
        <ele>213.1</ele>
        <time>2019-08-17T15:52:01Z</time>
      </trkpt>
      <trkpt lat="47.16806" lon="5.81537">
        <ele>213.1</ele>
        <time>2019-08-17T15:52:02Z</time>
      </trkpt>
      <trkpt lat="47.16807" lon="5.81529">
        <ele>213.1</ele>
        <time>2019-08-17T15:52:03Z</time>
      </trkpt>
      <trkpt lat="47.16806" lon="5.81523">
        <ele>213.1</ele>
        <time>2019-08-17T15:52:04Z</time>
      </trkpt>
      <trkpt lat="47.16805" lon="5.81515">
        <ele>213</ele>
        <time>2019-08-17T15:52:05Z</time>
      </trkpt>
      <trkpt lat="47.16805" lon="5.81508">
        <ele>213</ele>
        <time>2019-08-17T15:52:06Z</time>
      </trkpt>
      <trkpt lat="47.16805" lon="5.81502">
        <ele>213</ele>
        <time>2019-08-17T15:52:07Z</time>
      </trkpt>
      <trkpt lat="47.16805" lon="5.81495">
        <ele>213</ele>
        <time>2019-08-17T15:52:08Z</time>
      </trkpt>
      <trkpt lat="47.16804" lon="5.81488">
        <ele>213</ele>
        <time>2019-08-17T15:52:09Z</time>
      </trkpt>
      <trkpt lat="47.16804" lon="5.81481">
        <ele>213</ele>
        <time>2019-08-17T15:52:10Z</time>
      </trkpt>
      <trkpt lat="47.16804" lon="5.81474">
        <ele>213</ele>
        <time>2019-08-17T15:52:11Z</time>
      </trkpt>
      <trkpt lat="47.16805" lon="5.81467">
        <ele>213.1</ele>
        <time>2019-08-17T15:52:12Z</time>
      </trkpt>
      <trkpt lat="47.16805" lon="5.81459">
        <ele>213.1</ele>
        <time>2019-08-17T15:52:13Z</time>
      </trkpt>
      <trkpt lat="47.16805" lon="5.81451">
        <ele>213.1</ele>
        <time>2019-08-17T15:52:14Z</time>
      </trkpt>
      <trkpt lat="47.16806" lon="5.81444">
        <ele>213.1</ele>
        <time>2019-08-17T15:52:15Z</time>
      </trkpt>
      <trkpt lat="47.16807" lon="5.81436">
        <ele>213.2</ele>
        <time>2019-08-17T15:52:16Z</time>
      </trkpt>
      <trkpt lat="47.16809" lon="5.81429">
        <ele>213.2</ele>
        <time>2019-08-17T15:52:17Z</time>
      </trkpt>
      <trkpt lat="47.1681" lon="5.81422">
        <ele>213.2</ele>
        <time>2019-08-17T15:52:18Z</time>
      </trkpt>
      <trkpt lat="47.16811" lon="5.81416">
        <ele>213.3</ele>
        <time>2019-08-17T15:52:19Z</time>
      </trkpt>
      <trkpt lat="47.16812" lon="5.81409">
        <ele>213.3</ele>
        <time>2019-08-17T15:52:20Z</time>
      </trkpt>
      <trkpt lat="47.16813" lon="5.81403">
        <ele>213.3</ele>
        <time>2019-08-17T15:52:21Z</time>
      </trkpt>
      <trkpt lat="47.16813" lon="5.81397">
        <ele>213.3</ele>
        <time>2019-08-17T15:52:22Z</time>
      </trkpt>
      <trkpt lat="47.16815" lon="5.81393">
        <ele>213.3</ele>
        <time>2019-08-17T15:52:23Z</time>
      </trkpt>
      <trkpt lat="47.16817" lon="5.81387">
        <ele>213.4</ele>
        <time>2019-08-17T15:52:24Z</time>
      </trkpt>
      <trkpt lat="47.16818" lon="5.81381">
        <ele>213.4</ele>
        <time>2019-08-17T15:52:25Z</time>
      </trkpt>
      <trkpt lat="47.16819" lon="5.81374">
        <ele>213.4</ele>
        <time>2019-08-17T15:52:26Z</time>
      </trkpt>
      <trkpt lat="47.16821" lon="5.81367">
        <ele>213.4</ele>
        <time>2019-08-17T15:52:27Z</time>
      </trkpt>
      <trkpt lat="47.16823" lon="5.81361">
        <ele>213.4</ele>
        <time>2019-08-17T15:52:28Z</time>
      </trkpt>
      <trkpt lat="47.16826" lon="5.81354">
        <ele>213.4</ele>
        <time>2019-08-17T15:52:29Z</time>
      </trkpt>
      <trkpt lat="47.16828" lon="5.81347">
        <ele>213.4</ele>
        <time>2019-08-17T15:52:30Z</time>
      </trkpt>
      <trkpt lat="47.16831" lon="5.8134">
        <ele>213.5</ele>
        <time>2019-08-17T15:52:31Z</time>
      </trkpt>
      <trkpt lat="47.16834" lon="5.81334">
        <ele>213.5</ele>
        <time>2019-08-17T15:52:32Z</time>
      </trkpt>
      <trkpt lat="47.16837" lon="5.81329">
        <ele>213.5</ele>
        <time>2019-08-17T15:52:33Z</time>
      </trkpt>
      <trkpt lat="47.1684" lon="5.81323">
        <ele>213.5</ele>
        <time>2019-08-17T15:52:34Z</time>
      </trkpt>
      <trkpt lat="47.16843" lon="5.81318">
        <ele>213.6</ele>
        <time>2019-08-17T15:52:35Z</time>
      </trkpt>
      <trkpt lat="47.16848" lon="5.81313">
        <ele>213.6</ele>
        <time>2019-08-17T15:52:36Z</time>
      </trkpt>
      <trkpt lat="47.16852" lon="5.81308">
        <ele>213.7</ele>
        <time>2019-08-17T15:52:37Z</time>
      </trkpt>
      <trkpt lat="47.16856" lon="5.81302">
        <ele>213.8</ele>
        <time>2019-08-17T15:52:38Z</time>
      </trkpt>
      <trkpt lat="47.16859" lon="5.81297">
        <ele>213.9</ele>
        <time>2019-08-17T15:52:39Z</time>
      </trkpt>
      <trkpt lat="47.16863" lon="5.81293">
        <ele>214</ele>
        <time>2019-08-17T15:52:40Z</time>
      </trkpt>
      <trkpt lat="47.16867" lon="5.81289">
        <ele>214</ele>
        <time>2019-08-17T15:52:41Z</time>
      </trkpt>
      <trkpt lat="47.16871" lon="5.81283">
        <ele>214.1</ele>
        <time>2019-08-17T15:52:42Z</time>
      </trkpt>
      <trkpt lat="47.16876" lon="5.81279">
        <ele>214.1</ele>
        <time>2019-08-17T15:52:43Z</time>
      </trkpt>
      <trkpt lat="47.1688" lon="5.81272">
        <ele>214.1</ele>
        <time>2019-08-17T15:52:44Z</time>
      </trkpt>
      <trkpt lat="47.16885" lon="5.81266">
        <ele>214.2</ele>
        <time>2019-08-17T15:52:45Z</time>
      </trkpt>
      <trkpt lat="47.16889" lon="5.8126">
        <ele>214.2</ele>
        <time>2019-08-17T15:52:46Z</time>
      </trkpt>
      <trkpt lat="47.16895" lon="5.81256">
        <ele>214.2</ele>
        <time>2019-08-17T15:52:47Z</time>
      </trkpt>
      <trkpt lat="47.16899" lon="5.81252">
        <ele>214.2</ele>
        <time>2019-08-17T15:52:48Z</time>
      </trkpt>
      <trkpt lat="47.16903" lon="5.81247">
        <ele>214.2</ele>
        <time>2019-08-17T15:52:49Z</time>
      </trkpt>
      <trkpt lat="47.16907" lon="5.81242">
        <ele>214.2</ele>
        <time>2019-08-17T15:52:50Z</time>
      </trkpt>
      <trkpt lat="47.16912" lon="5.81237">
        <ele>214.3</ele>
        <time>2019-08-17T15:52:51Z</time>
      </trkpt>
      <trkpt lat="47.16915" lon="5.81233">
        <ele>214.3</ele>
        <time>2019-08-17T15:52:52Z</time>
      </trkpt>
      <trkpt lat="47.1692" lon="5.81229">
        <ele>214.3</ele>
        <time>2019-08-17T15:52:53Z</time>
      </trkpt>
      <trkpt lat="47.16925" lon="5.81225">
        <ele>214.3</ele>
        <time>2019-08-17T15:52:54Z</time>
      </trkpt>
      <trkpt lat="47.1693" lon="5.81222">
        <ele>214.3</ele>
        <time>2019-08-17T15:52:55Z</time>
      </trkpt>
      <trkpt lat="47.16934" lon="5.81219">
        <ele>214.3</ele>
        <time>2019-08-17T15:52:56Z</time>
      </trkpt>
      <trkpt lat="47.16938" lon="5.81215">
        <ele>214.2</ele>
        <time>2019-08-17T15:52:57Z</time>
      </trkpt>
      <trkpt lat="47.16941" lon="5.81209">
        <ele>214.2</ele>
        <time>2019-08-17T15:52:58Z</time>
      </trkpt>
      <trkpt lat="47.16945" lon="5.81203">
        <ele>214.2</ele>
        <time>2019-08-17T15:52:59Z</time>
      </trkpt>
      <trkpt lat="47.16948" lon="5.81196">
        <ele>214.2</ele>
        <time>2019-08-17T15:53:00Z</time>
      </trkpt>
      <trkpt lat="47.16951" lon="5.8119">
        <ele>214.2</ele>
        <time>2019-08-17T15:53:01Z</time>
      </trkpt>
      <trkpt lat="47.16954" lon="5.81184">
        <ele>214.2</ele>
        <time>2019-08-17T15:53:02Z</time>
      </trkpt>
      <trkpt lat="47.16958" lon="5.81178">
        <ele>214.2</ele>
        <time>2019-08-17T15:53:03Z</time>
      </trkpt>
      <trkpt lat="47.16961" lon="5.81172">
        <ele>214.2</ele>
        <time>2019-08-17T15:53:04Z</time>
      </trkpt>
      <trkpt lat="47.16964" lon="5.81165">
        <ele>214.2</ele>
        <time>2019-08-17T15:53:05Z</time>
      </trkpt>
      <trkpt lat="47.16968" lon="5.81159">
        <ele>214.2</ele>
        <time>2019-08-17T15:53:06Z</time>
      </trkpt>
      <trkpt lat="47.16971" lon="5.81153">
        <ele>214.2</ele>
        <time>2019-08-17T15:53:07Z</time>
      </trkpt>
      <trkpt lat="47.16975" lon="5.81147">
        <ele>214.2</ele>
        <time>2019-08-17T15:53:08Z</time>
      </trkpt>
      <trkpt lat="47.16979" lon="5.81141">
        <ele>214.3</ele>
        <time>2019-08-17T15:53:09Z</time>
      </trkpt>
      <trkpt lat="47.16983" lon="5.81136">
        <ele>214.3</ele>
        <time>2019-08-17T15:53:10Z</time>
      </trkpt>
      <trkpt lat="47.16987" lon="5.8113">
        <ele>214.3</ele>
        <time>2019-08-17T15:53:11Z</time>
      </trkpt>
      <trkpt lat="47.16991" lon="5.81123">
        <ele>214.4</ele>
        <time>2019-08-17T15:53:12Z</time>
      </trkpt>
      <trkpt lat="47.16994" lon="5.81116">
        <ele>214.5</ele>
        <time>2019-08-17T15:53:13Z</time>
      </trkpt>
      <trkpt lat="47.16998" lon="5.81111">
        <ele>214.5</ele>
        <time>2019-08-17T15:53:14Z</time>
      </trkpt>
      <trkpt lat="47.17001" lon="5.81105">
        <ele>214.6</ele>
        <time>2019-08-17T15:53:15Z</time>
      </trkpt>
      <trkpt lat="47.17005" lon="5.811">
        <ele>214.6</ele>
        <time>2019-08-17T15:53:16Z</time>
      </trkpt>
      <trkpt lat="47.17009" lon="5.81095">
        <ele>214.6</ele>
        <time>2019-08-17T15:53:17Z</time>
      </trkpt>
      <trkpt lat="47.17012" lon="5.81088">
        <ele>214.6</ele>
        <time>2019-08-17T15:53:18Z</time>
      </trkpt>
      <trkpt lat="47.17016" lon="5.81082">
        <ele>214.6</ele>
        <time>2019-08-17T15:53:19Z</time>
      </trkpt>
      <trkpt lat="47.1702" lon="5.81076">
        <ele>214.6</ele>
        <time>2019-08-17T15:53:20Z</time>
      </trkpt>
      <trkpt lat="47.17024" lon="5.8107">
        <ele>214.6</ele>
        <time>2019-08-17T15:53:21Z</time>
      </trkpt>
      <trkpt lat="47.17028" lon="5.81065">
        <ele>214.6</ele>
        <time>2019-08-17T15:53:22Z</time>
      </trkpt>
      <trkpt lat="47.17032" lon="5.81059">
        <ele>214.6</ele>
        <time>2019-08-17T15:53:23Z</time>
      </trkpt>
      <trkpt lat="47.17036" lon="5.81053">
        <ele>214.6</ele>
        <time>2019-08-17T15:53:24Z</time>
      </trkpt>
      <trkpt lat="47.1704" lon="5.81048">
        <ele>214.6</ele>
        <time>2019-08-17T15:53:25Z</time>
      </trkpt>
      <trkpt lat="47.17044" lon="5.81042">
        <ele>214.6</ele>
        <time>2019-08-17T15:53:26Z</time>
      </trkpt>
      <trkpt lat="47.17048" lon="5.81036">
        <ele>214.6</ele>
        <time>2019-08-17T15:53:27Z</time>
      </trkpt>
      <trkpt lat="47.17051" lon="5.8103">
        <ele>214.6</ele>
        <time>2019-08-17T15:53:28Z</time>
      </trkpt>
      <trkpt lat="47.17055" lon="5.81024">
        <ele>214.6</ele>
        <time>2019-08-17T15:53:29Z</time>
      </trkpt>
      <trkpt lat="47.17058" lon="5.81017">
        <ele>214.6</ele>
        <time>2019-08-17T15:53:30Z</time>
      </trkpt>
      <trkpt lat="47.17061" lon="5.81012">
        <ele>214.6</ele>
        <time>2019-08-17T15:53:31Z</time>
      </trkpt>
      <trkpt lat="47.17064" lon="5.81007">
        <ele>214.6</ele>
        <time>2019-08-17T15:53:32Z</time>
      </trkpt>
      <trkpt lat="47.17067" lon="5.81001">
        <ele>214.6</ele>
        <time>2019-08-17T15:53:33Z</time>
      </trkpt>
      <trkpt lat="47.17069" lon="5.80996">
        <ele>214.6</ele>
        <time>2019-08-17T15:53:34Z</time>
      </trkpt>
      <trkpt lat="47.1707" lon="5.80989">
        <ele>214.6</ele>
        <time>2019-08-17T15:53:35Z</time>
      </trkpt>
      <trkpt lat="47.17074" lon="5.80985">
        <ele>214.6</ele>
        <time>2019-08-17T15:53:36Z</time>
      </trkpt>
      <trkpt lat="47.17077" lon="5.80979">
        <ele>214.6</ele>
        <time>2019-08-17T15:53:37Z</time>
      </trkpt>
      <trkpt lat="47.17081" lon="5.80973">
        <ele>214.6</ele>
        <time>2019-08-17T15:53:38Z</time>
      </trkpt>
      <trkpt lat="47.17084" lon="5.80967">
        <ele>214.6</ele>
        <time>2019-08-17T15:53:39Z</time>
      </trkpt>
      <trkpt lat="47.17088" lon="5.80961">
        <ele>214.6</ele>
        <time>2019-08-17T15:53:40Z</time>
      </trkpt>
      <trkpt lat="47.17091" lon="5.80956">
        <ele>214.6</ele>
        <time>2019-08-17T15:53:41Z</time>
      </trkpt>
      <trkpt lat="47.17095" lon="5.8095">
        <ele>214.6</ele>
        <time>2019-08-17T15:53:42Z</time>
      </trkpt>
      <trkpt lat="47.17099" lon="5.80944">
        <ele>214.6</ele>
        <time>2019-08-17T15:53:43Z</time>
      </trkpt>
      <trkpt lat="47.17102" lon="5.80938">
        <ele>214.6</ele>
        <time>2019-08-17T15:53:44Z</time>
      </trkpt>
      <trkpt lat="47.17105" lon="5.80932">
        <ele>214.6</ele>
        <time>2019-08-17T15:53:45Z</time>
      </trkpt>
      <trkpt lat="47.17108" lon="5.80927">
        <ele>214.6</ele>
        <time>2019-08-17T15:53:46Z</time>
      </trkpt>
      <trkpt lat="47.17112" lon="5.80923">
        <ele>214.6</ele>
        <time>2019-08-17T15:53:47Z</time>
      </trkpt>
      <trkpt lat="47.17115" lon="5.80918">
        <ele>214.6</ele>
        <time>2019-08-17T15:53:48Z</time>
      </trkpt>
      <trkpt lat="47.17118" lon="5.8091">
        <ele>214.6</ele>
        <time>2019-08-17T15:53:49Z</time>
      </trkpt>
      <trkpt lat="47.17122" lon="5.80904">
        <ele>214.5</ele>
        <time>2019-08-17T15:53:50Z</time>
      </trkpt>
      <trkpt lat="47.17125" lon="5.80898">
        <ele>214.5</ele>
        <time>2019-08-17T15:53:51Z</time>
      </trkpt>
      <trkpt lat="47.17127" lon="5.80892">
        <ele>214.5</ele>
        <time>2019-08-17T15:53:52Z</time>
      </trkpt>
      <trkpt lat="47.1713" lon="5.80885">
        <ele>214.5</ele>
        <time>2019-08-17T15:53:53Z</time>
      </trkpt>
      <trkpt lat="47.17134" lon="5.80879">
        <ele>214.5</ele>
        <time>2019-08-17T15:53:54Z</time>
      </trkpt>
      <trkpt lat="47.17136" lon="5.80871">
        <ele>214.5</ele>
        <time>2019-08-17T15:53:55Z</time>
      </trkpt>
      <trkpt lat="47.17139" lon="5.80864">
        <ele>214.4</ele>
        <time>2019-08-17T15:53:56Z</time>
      </trkpt>
      <trkpt lat="47.17142" lon="5.80857">
        <ele>214.2</ele>
        <time>2019-08-17T15:53:57Z</time>
      </trkpt>
      <trkpt lat="47.17145" lon="5.80851">
        <ele>214.1</ele>
        <time>2019-08-17T15:53:58Z</time>
      </trkpt>
      <trkpt lat="47.17147" lon="5.80845">
        <ele>213.9</ele>
        <time>2019-08-17T15:53:59Z</time>
      </trkpt>
      <trkpt lat="47.1715" lon="5.80839">
        <ele>213.7</ele>
        <time>2019-08-17T15:54:00Z</time>
      </trkpt>
      <trkpt lat="47.17153" lon="5.80834">
        <ele>213.5</ele>
        <time>2019-08-17T15:54:01Z</time>
      </trkpt>
      <trkpt lat="47.17156" lon="5.80828">
        <ele>213.4</ele>
        <time>2019-08-17T15:54:02Z</time>
      </trkpt>
      <trkpt lat="47.17159" lon="5.80822">
        <ele>213.2</ele>
        <time>2019-08-17T15:54:03Z</time>
      </trkpt>
      <trkpt lat="47.17162" lon="5.80815">
        <ele>213.2</ele>
        <time>2019-08-17T15:54:04Z</time>
      </trkpt>
      <trkpt lat="47.17166" lon="5.80811">
        <ele>213.1</ele>
        <time>2019-08-17T15:54:05Z</time>
      </trkpt>
      <trkpt lat="47.17169" lon="5.80804">
        <ele>213.1</ele>
        <time>2019-08-17T15:54:06Z</time>
      </trkpt>
      <trkpt lat="47.17172" lon="5.80797">
        <ele>213.1</ele>
        <time>2019-08-17T15:54:07Z</time>
      </trkpt>
      <trkpt lat="47.17174" lon="5.8079">
        <ele>213.1</ele>
        <time>2019-08-17T15:54:08Z</time>
      </trkpt>
      <trkpt lat="47.17177" lon="5.80784">
        <ele>213.1</ele>
        <time>2019-08-17T15:54:09Z</time>
      </trkpt>
      <trkpt lat="47.1718" lon="5.80778">
        <ele>213.1</ele>
        <time>2019-08-17T15:54:10Z</time>
      </trkpt>
      <trkpt lat="47.17183" lon="5.80772">
        <ele>213.1</ele>
        <time>2019-08-17T15:54:11Z</time>
      </trkpt>
      <trkpt lat="47.17186" lon="5.80766">
        <ele>213.1</ele>
        <time>2019-08-17T15:54:12Z</time>
      </trkpt>
      <trkpt lat="47.17189" lon="5.8076">
        <ele>213.1</ele>
        <time>2019-08-17T15:54:13Z</time>
      </trkpt>
      <trkpt lat="47.17192" lon="5.80752">
        <ele>213.1</ele>
        <time>2019-08-17T15:54:14Z</time>
      </trkpt>
      <trkpt lat="47.17195" lon="5.80746">
        <ele>213.1</ele>
        <time>2019-08-17T15:54:15Z</time>
      </trkpt>
      <trkpt lat="47.17198" lon="5.8074">
        <ele>213.1</ele>
        <time>2019-08-17T15:54:16Z</time>
      </trkpt>
      <trkpt lat="47.172" lon="5.80734">
        <ele>213.1</ele>
        <time>2019-08-17T15:54:17Z</time>
      </trkpt>
      <trkpt lat="47.17202" lon="5.80727">
        <ele>213.1</ele>
        <time>2019-08-17T15:54:18Z</time>
      </trkpt>
      <trkpt lat="47.17204" lon="5.80719">
        <ele>213.1</ele>
        <time>2019-08-17T15:54:19Z</time>
      </trkpt>
      <trkpt lat="47.17207" lon="5.80712">
        <ele>213.1</ele>
        <time>2019-08-17T15:54:20Z</time>
      </trkpt>
      <trkpt lat="47.17209" lon="5.80706">
        <ele>213.1</ele>
        <time>2019-08-17T15:54:21Z</time>
      </trkpt>
      <trkpt lat="47.17212" lon="5.807">
        <ele>213.2</ele>
        <time>2019-08-17T15:54:22Z</time>
      </trkpt>
      <trkpt lat="47.17214" lon="5.80694">
        <ele>213.3</ele>
        <time>2019-08-17T15:54:23Z</time>
      </trkpt>
      <trkpt lat="47.17216" lon="5.80689">
        <ele>213.5</ele>
        <time>2019-08-17T15:54:24Z</time>
      </trkpt>
      <trkpt lat="47.17218" lon="5.80682">
        <ele>213.5</ele>
        <time>2019-08-17T15:54:25Z</time>
      </trkpt>
      <trkpt lat="47.17221" lon="5.80675">
        <ele>213.5</ele>
        <time>2019-08-17T15:54:26Z</time>
      </trkpt>
      <trkpt lat="47.17224" lon="5.80669">
        <ele>213.5</ele>
        <time>2019-08-17T15:54:27Z</time>
      </trkpt>
      <trkpt lat="47.17227" lon="5.80663">
        <ele>213.6</ele>
        <time>2019-08-17T15:54:28Z</time>
      </trkpt>
      <trkpt lat="47.1723" lon="5.80657">
        <ele>213.6</ele>
        <time>2019-08-17T15:54:29Z</time>
      </trkpt>
      <trkpt lat="47.17232" lon="5.80652">
        <ele>213.6</ele>
        <time>2019-08-17T15:54:30Z</time>
      </trkpt>
      <trkpt lat="47.17234" lon="5.80646">
        <ele>213.7</ele>
        <time>2019-08-17T15:54:31Z</time>
      </trkpt>
      <trkpt lat="47.17236" lon="5.80639">
        <ele>213.7</ele>
        <time>2019-08-17T15:54:32Z</time>
      </trkpt>
      <trkpt lat="47.17237" lon="5.80632">
        <ele>213.7</ele>
        <time>2019-08-17T15:54:33Z</time>
      </trkpt>
      <trkpt lat="47.17239" lon="5.80625">
        <ele>213.7</ele>
        <time>2019-08-17T15:54:34Z</time>
      </trkpt>
      <trkpt lat="47.17241" lon="5.80618">
        <ele>213.8</ele>
        <time>2019-08-17T15:54:35Z</time>
      </trkpt>
      <trkpt lat="47.17243" lon="5.80611">
        <ele>213.8</ele>
        <time>2019-08-17T15:54:36Z</time>
      </trkpt>
      <trkpt lat="47.17244" lon="5.80603">
        <ele>213.8</ele>
        <time>2019-08-17T15:54:37Z</time>
      </trkpt>
      <trkpt lat="47.17246" lon="5.80596">
        <ele>213.8</ele>
        <time>2019-08-17T15:54:38Z</time>
      </trkpt>
      <trkpt lat="47.17247" lon="5.80588">
        <ele>213.8</ele>
        <time>2019-08-17T15:54:39Z</time>
      </trkpt>
      <trkpt lat="47.17249" lon="5.80581">
        <ele>213.7</ele>
        <time>2019-08-17T15:54:40Z</time>
      </trkpt>
      <trkpt lat="47.17251" lon="5.80574">
        <ele>213.7</ele>
        <time>2019-08-17T15:54:41Z</time>
      </trkpt>
      <trkpt lat="47.17253" lon="5.80566">
        <ele>213.7</ele>
        <time>2019-08-17T15:54:42Z</time>
      </trkpt>
      <trkpt lat="47.17255" lon="5.8056">
        <ele>213.7</ele>
        <time>2019-08-17T15:54:43Z</time>
      </trkpt>
      <trkpt lat="47.17257" lon="5.80552">
        <ele>213.6</ele>
        <time>2019-08-17T15:54:44Z</time>
      </trkpt>
      <trkpt lat="47.17259" lon="5.80546">
        <ele>213.6</ele>
        <time>2019-08-17T15:54:45Z</time>
      </trkpt>
      <trkpt lat="47.17261" lon="5.80542">
        <ele>213.6</ele>
        <time>2019-08-17T15:54:46Z</time>
      </trkpt>
      <trkpt lat="47.17263" lon="5.80537">
        <ele>213.6</ele>
        <time>2019-08-17T15:54:47Z</time>
      </trkpt>
      <trkpt lat="47.17265" lon="5.80531">
        <ele>213.6</ele>
        <time>2019-08-17T15:54:48Z</time>
      </trkpt>
      <trkpt lat="47.17266" lon="5.80525">
        <ele>213.6</ele>
        <time>2019-08-17T15:54:49Z</time>
      </trkpt>
      <trkpt lat="47.17267" lon="5.80518">
        <ele>213.6</ele>
        <time>2019-08-17T15:54:50Z</time>
      </trkpt>
      <trkpt lat="47.17269" lon="5.80513">
        <ele>213.6</ele>
        <time>2019-08-17T15:54:51Z</time>
      </trkpt>
      <trkpt lat="47.1727" lon="5.80506">
        <ele>213.6</ele>
        <time>2019-08-17T15:54:52Z</time>
      </trkpt>
      <trkpt lat="47.17272" lon="5.805">
        <ele>213.6</ele>
        <time>2019-08-17T15:54:53Z</time>
      </trkpt>
      <trkpt lat="47.17273" lon="5.80492">
        <ele>213.6</ele>
        <time>2019-08-17T15:54:54Z</time>
      </trkpt>
      <trkpt lat="47.17274" lon="5.80486">
        <ele>213.6</ele>
        <time>2019-08-17T15:54:55Z</time>
      </trkpt>
      <trkpt lat="47.17276" lon="5.80479">
        <ele>213.5</ele>
        <time>2019-08-17T15:54:56Z</time>
      </trkpt>
      <trkpt lat="47.17277" lon="5.80472">
        <ele>213.5</ele>
        <time>2019-08-17T15:54:57Z</time>
      </trkpt>
      <trkpt lat="47.17279" lon="5.80466">
        <ele>213.5</ele>
        <time>2019-08-17T15:54:58Z</time>
      </trkpt>
      <trkpt lat="47.17281" lon="5.80459">
        <ele>213.5</ele>
        <time>2019-08-17T15:54:59Z</time>
      </trkpt>
      <trkpt lat="47.17282" lon="5.80451">
        <ele>213.5</ele>
        <time>2019-08-17T15:55:00Z</time>
      </trkpt>
      <trkpt lat="47.17284" lon="5.80444">
        <ele>213.5</ele>
        <time>2019-08-17T15:55:01Z</time>
      </trkpt>
      <trkpt lat="47.17285" lon="5.80436">
        <ele>213.4</ele>
        <time>2019-08-17T15:55:02Z</time>
      </trkpt>
      <trkpt lat="47.17286" lon="5.80429">
        <ele>213.4</ele>
        <time>2019-08-17T15:55:03Z</time>
      </trkpt>
      <trkpt lat="47.17287" lon="5.80422">
        <ele>213.4</ele>
        <time>2019-08-17T15:55:04Z</time>
      </trkpt>
      <trkpt lat="47.17288" lon="5.80416">
        <ele>213.4</ele>
        <time>2019-08-17T15:55:05Z</time>
      </trkpt>
      <trkpt lat="47.17289" lon="5.80409">
        <ele>213.3</ele>
        <time>2019-08-17T15:55:06Z</time>
      </trkpt>
      <trkpt lat="47.1729" lon="5.80403">
        <ele>213.3</ele>
        <time>2019-08-17T15:55:07Z</time>
      </trkpt>
      <trkpt lat="47.17291" lon="5.80395">
        <ele>213.3</ele>
        <time>2019-08-17T15:55:08Z</time>
      </trkpt>
      <trkpt lat="47.17292" lon="5.80389">
        <ele>213.3</ele>
        <time>2019-08-17T15:55:09Z</time>
      </trkpt>
      <trkpt lat="47.17293" lon="5.80382">
        <ele>213.3</ele>
        <time>2019-08-17T15:55:10Z</time>
      </trkpt>
      <trkpt lat="47.17294" lon="5.80376">
        <ele>213.3</ele>
        <time>2019-08-17T15:55:11Z</time>
      </trkpt>
      <trkpt lat="47.17294" lon="5.8037">
        <ele>213.3</ele>
        <time>2019-08-17T15:55:12Z</time>
      </trkpt>
      <trkpt lat="47.17295" lon="5.80364">
        <ele>213.3</ele>
        <time>2019-08-17T15:55:13Z</time>
      </trkpt>
      <trkpt lat="47.17295" lon="5.80358">
        <ele>213.3</ele>
        <time>2019-08-17T15:55:14Z</time>
      </trkpt>
      <trkpt lat="47.17296" lon="5.80352">
        <ele>213.3</ele>
        <time>2019-08-17T15:55:15Z</time>
      </trkpt>
      <trkpt lat="47.17297" lon="5.80345">
        <ele>213.3</ele>
        <time>2019-08-17T15:55:16Z</time>
      </trkpt>
      <trkpt lat="47.17297" lon="5.80339">
        <ele>213.4</ele>
        <time>2019-08-17T15:55:17Z</time>
      </trkpt>
      <trkpt lat="47.17299" lon="5.80333">
        <ele>213.4</ele>
        <time>2019-08-17T15:55:18Z</time>
      </trkpt>
      <trkpt lat="47.17299" lon="5.80327">
        <ele>213.4</ele>
        <time>2019-08-17T15:55:19Z</time>
      </trkpt>
      <trkpt lat="47.173" lon="5.80321">
        <ele>213.4</ele>
        <time>2019-08-17T15:55:20Z</time>
      </trkpt>
      <trkpt lat="47.173" lon="5.80314">
        <ele>213.5</ele>
        <time>2019-08-17T15:55:21Z</time>
      </trkpt>
      <trkpt lat="47.17299" lon="5.80306">
        <ele>213.5</ele>
        <time>2019-08-17T15:55:22Z</time>
      </trkpt>
      <trkpt lat="47.17299" lon="5.80298">
        <ele>213.5</ele>
        <time>2019-08-17T15:55:23Z</time>
      </trkpt>
      <trkpt lat="47.17298" lon="5.80292">
        <ele>213.5</ele>
        <time>2019-08-17T15:55:24Z</time>
      </trkpt>
      <trkpt lat="47.17298" lon="5.80286">
        <ele>213.6</ele>
        <time>2019-08-17T15:55:25Z</time>
      </trkpt>
      <trkpt lat="47.17298" lon="5.80279">
        <ele>213.6</ele>
        <time>2019-08-17T15:55:26Z</time>
      </trkpt>
      <trkpt lat="47.17299" lon="5.80272">
        <ele>213.6</ele>
        <time>2019-08-17T15:55:27Z</time>
      </trkpt>
      <trkpt lat="47.17299" lon="5.80264">
        <ele>213.6</ele>
        <time>2019-08-17T15:55:28Z</time>
      </trkpt>
      <trkpt lat="47.17301" lon="5.80257">
        <ele>213.6</ele>
        <time>2019-08-17T15:55:29Z</time>
      </trkpt>
      <trkpt lat="47.17301" lon="5.80249">
        <ele>213.7</ele>
        <time>2019-08-17T15:55:30Z</time>
      </trkpt>
      <trkpt lat="47.17302" lon="5.80241">
        <ele>213.7</ele>
        <time>2019-08-17T15:55:31Z</time>
      </trkpt>
      <trkpt lat="47.17303" lon="5.80235">
        <ele>213.7</ele>
        <time>2019-08-17T15:55:32Z</time>
      </trkpt>
      <trkpt lat="47.17304" lon="5.80228">
        <ele>213.7</ele>
        <time>2019-08-17T15:55:33Z</time>
      </trkpt>
      <trkpt lat="47.17305" lon="5.80222">
        <ele>213.7</ele>
        <time>2019-08-17T15:55:34Z</time>
      </trkpt>
      <trkpt lat="47.17306" lon="5.80215">
        <ele>213.6</ele>
        <time>2019-08-17T15:55:35Z</time>
      </trkpt>
      <trkpt lat="47.17307" lon="5.80208">
        <ele>213.6</ele>
        <time>2019-08-17T15:55:36Z</time>
      </trkpt>
      <trkpt lat="47.17308" lon="5.80201">
        <ele>213.6</ele>
        <time>2019-08-17T15:55:37Z</time>
      </trkpt>
      <trkpt lat="47.17308" lon="5.80194">
        <ele>213.6</ele>
        <time>2019-08-17T15:55:38Z</time>
      </trkpt>
      <trkpt lat="47.17309" lon="5.80186">
        <ele>213.6</ele>
        <time>2019-08-17T15:55:39Z</time>
      </trkpt>
      <trkpt lat="47.17309" lon="5.80178">
        <ele>213.5</ele>
        <time>2019-08-17T15:55:40Z</time>
      </trkpt>
      <trkpt lat="47.17311" lon="5.80171">
        <ele>213.5</ele>
        <time>2019-08-17T15:55:41Z</time>
      </trkpt>
      <trkpt lat="47.17312" lon="5.80163">
        <ele>213.5</ele>
        <time>2019-08-17T15:55:42Z</time>
      </trkpt>
      <trkpt lat="47.17313" lon="5.80155">
        <ele>213.5</ele>
        <time>2019-08-17T15:55:43Z</time>
      </trkpt>
      <trkpt lat="47.17314" lon="5.80148">
        <ele>213.4</ele>
        <time>2019-08-17T15:55:44Z</time>
      </trkpt>
      <trkpt lat="47.17315" lon="5.80141">
        <ele>213.4</ele>
        <time>2019-08-17T15:55:45Z</time>
      </trkpt>
      <trkpt lat="47.17316" lon="5.80133">
        <ele>213.4</ele>
        <time>2019-08-17T15:55:46Z</time>
      </trkpt>
      <trkpt lat="47.17317" lon="5.80125">
        <ele>213.3</ele>
        <time>2019-08-17T15:55:47Z</time>
      </trkpt>
      <trkpt lat="47.17317" lon="5.80118">
        <ele>213.3</ele>
        <time>2019-08-17T15:55:48Z</time>
      </trkpt>
      <trkpt lat="47.17319" lon="5.80111">
        <ele>213.2</ele>
        <time>2019-08-17T15:55:49Z</time>
      </trkpt>
      <trkpt lat="47.17319" lon="5.80103">
        <ele>213.2</ele>
        <time>2019-08-17T15:55:50Z</time>
      </trkpt>
      <trkpt lat="47.1732" lon="5.80096">
        <ele>213.2</ele>
        <time>2019-08-17T15:55:51Z</time>
      </trkpt>
      <trkpt lat="47.1732" lon="5.80088">
        <ele>213.1</ele>
        <time>2019-08-17T15:55:52Z</time>
      </trkpt>
      <trkpt lat="47.17321" lon="5.80082">
        <ele>213.1</ele>
        <time>2019-08-17T15:55:53Z</time>
      </trkpt>
      <trkpt lat="47.17322" lon="5.80074">
        <ele>213.1</ele>
        <time>2019-08-17T15:55:54Z</time>
      </trkpt>
      <trkpt lat="47.17323" lon="5.80067">
        <ele>213</ele>
        <time>2019-08-17T15:55:55Z</time>
      </trkpt>
      <trkpt lat="47.17324" lon="5.80058">
        <ele>213</ele>
        <time>2019-08-17T15:55:56Z</time>
      </trkpt>
      <trkpt lat="47.17325" lon="5.80049">
        <ele>213</ele>
        <time>2019-08-17T15:55:57Z</time>
      </trkpt>
      <trkpt lat="47.17325" lon="5.8004">
        <ele>213</ele>
        <time>2019-08-17T15:55:58Z</time>
      </trkpt>
      <trkpt lat="47.17325" lon="5.80033">
        <ele>213</ele>
        <time>2019-08-17T15:55:59Z</time>
      </trkpt>
      <trkpt lat="47.17326" lon="5.80026">
        <ele>213</ele>
        <time>2019-08-17T15:56:00Z</time>
      </trkpt>
      <trkpt lat="47.17326" lon="5.80017">
        <ele>213</ele>
        <time>2019-08-17T15:56:01Z</time>
      </trkpt>
      <trkpt lat="47.17327" lon="5.80009">
        <ele>213.1</ele>
        <time>2019-08-17T15:56:02Z</time>
      </trkpt>
      <trkpt lat="47.17327" lon="5.80002">
        <ele>213.1</ele>
        <time>2019-08-17T15:56:03Z</time>
      </trkpt>
      <trkpt lat="47.17328" lon="5.79996">
        <ele>213.1</ele>
        <time>2019-08-17T15:56:04Z</time>
      </trkpt>
      <trkpt lat="47.17329" lon="5.7999">
        <ele>213.2</ele>
        <time>2019-08-17T15:56:05Z</time>
      </trkpt>
      <trkpt lat="47.1733" lon="5.79982">
        <ele>213.2</ele>
        <time>2019-08-17T15:56:06Z</time>
      </trkpt>
      <trkpt lat="47.17331" lon="5.79976">
        <ele>213.3</ele>
        <time>2019-08-17T15:56:07Z</time>
      </trkpt>
      <trkpt lat="47.17333" lon="5.79968">
        <ele>213.3</ele>
        <time>2019-08-17T15:56:08Z</time>
      </trkpt>
      <trkpt lat="47.17335" lon="5.7996">
        <ele>213.3</ele>
        <time>2019-08-17T15:56:09Z</time>
      </trkpt>
      <trkpt lat="47.17335" lon="5.79952">
        <ele>213.4</ele>
        <time>2019-08-17T15:56:10Z</time>
      </trkpt>
      <trkpt lat="47.17336" lon="5.79943">
        <ele>213.4</ele>
        <time>2019-08-17T15:56:11Z</time>
      </trkpt>
      <trkpt lat="47.17337" lon="5.79936">
        <ele>213.5</ele>
        <time>2019-08-17T15:56:12Z</time>
      </trkpt>
      <trkpt lat="47.17338" lon="5.79928">
        <ele>213.5</ele>
        <time>2019-08-17T15:56:13Z</time>
      </trkpt>
      <trkpt lat="47.17339" lon="5.79921">
        <ele>213.5</ele>
        <time>2019-08-17T15:56:14Z</time>
      </trkpt>
      <trkpt lat="47.1734" lon="5.79913">
        <ele>213.5</ele>
        <time>2019-08-17T15:56:15Z</time>
      </trkpt>
      <trkpt lat="47.17341" lon="5.79905">
        <ele>213.5</ele>
        <time>2019-08-17T15:56:16Z</time>
      </trkpt>
      <trkpt lat="47.17342" lon="5.79897">
        <ele>213.5</ele>
        <time>2019-08-17T15:56:17Z</time>
      </trkpt>
      <trkpt lat="47.17343" lon="5.7989">
        <ele>213.5</ele>
        <time>2019-08-17T15:56:18Z</time>
      </trkpt>
      <trkpt lat="47.17344" lon="5.79883">
        <ele>213.5</ele>
        <time>2019-08-17T15:56:19Z</time>
      </trkpt>
      <trkpt lat="47.17345" lon="5.79875">
        <ele>213.4</ele>
        <time>2019-08-17T15:56:20Z</time>
      </trkpt>
      <trkpt lat="47.17346" lon="5.79869">
        <ele>213.4</ele>
        <time>2019-08-17T15:56:21Z</time>
      </trkpt>
      <trkpt lat="47.17347" lon="5.79861">
        <ele>213.3</ele>
        <time>2019-08-17T15:56:22Z</time>
      </trkpt>
      <trkpt lat="47.17349" lon="5.79854">
        <ele>213.3</ele>
        <time>2019-08-17T15:56:23Z</time>
      </trkpt>
      <trkpt lat="47.17351" lon="5.79848">
        <ele>213.2</ele>
        <time>2019-08-17T15:56:24Z</time>
      </trkpt>
      <trkpt lat="47.17352" lon="5.79841">
        <ele>213.1</ele>
        <time>2019-08-17T15:56:25Z</time>
      </trkpt>
      <trkpt lat="47.17354" lon="5.79833">
        <ele>213</ele>
        <time>2019-08-17T15:56:26Z</time>
      </trkpt>
      <trkpt lat="47.17356" lon="5.79827">
        <ele>212.9</ele>
        <time>2019-08-17T15:56:27Z</time>
      </trkpt>
      <trkpt lat="47.17357" lon="5.7982">
        <ele>212.9</ele>
        <time>2019-08-17T15:56:28Z</time>
      </trkpt>
      <trkpt lat="47.17359" lon="5.79813">
        <ele>212.8</ele>
        <time>2019-08-17T15:56:29Z</time>
      </trkpt>
      <trkpt lat="47.1736" lon="5.79806">
        <ele>212.7</ele>
        <time>2019-08-17T15:56:30Z</time>
      </trkpt>
      <trkpt lat="47.17362" lon="5.79799">
        <ele>212.7</ele>
        <time>2019-08-17T15:56:31Z</time>
      </trkpt>
      <trkpt lat="47.17363" lon="5.79793">
        <ele>212.6</ele>
        <time>2019-08-17T15:56:32Z</time>
      </trkpt>
      <trkpt lat="47.17364" lon="5.79787">
        <ele>212.6</ele>
        <time>2019-08-17T15:56:33Z</time>
      </trkpt>
      <trkpt lat="47.17365" lon="5.7978">
        <ele>212.6</ele>
        <time>2019-08-17T15:56:34Z</time>
      </trkpt>
      <trkpt lat="47.17366" lon="5.79772">
        <ele>212.5</ele>
        <time>2019-08-17T15:56:35Z</time>
      </trkpt>
      <trkpt lat="47.17369" lon="5.79766">
        <ele>212.5</ele>
        <time>2019-08-17T15:56:36Z</time>
      </trkpt>
      <trkpt lat="47.1737" lon="5.79758">
        <ele>212.5</ele>
        <time>2019-08-17T15:56:37Z</time>
      </trkpt>
      <trkpt lat="47.17371" lon="5.79751">
        <ele>212.4</ele>
        <time>2019-08-17T15:56:38Z</time>
      </trkpt>
      <trkpt lat="47.17373" lon="5.79743">
        <ele>212.4</ele>
        <time>2019-08-17T15:56:39Z</time>
      </trkpt>
      <trkpt lat="47.17374" lon="5.79737">
        <ele>212.4</ele>
        <time>2019-08-17T15:56:40Z</time>
      </trkpt>
      <trkpt lat="47.17376" lon="5.7973">
        <ele>212.4</ele>
        <time>2019-08-17T15:56:41Z</time>
      </trkpt>
      <trkpt lat="47.17377" lon="5.79723">
        <ele>212.5</ele>
        <time>2019-08-17T15:56:42Z</time>
      </trkpt>
      <trkpt lat="47.17378" lon="5.79717">
        <ele>212.5</ele>
        <time>2019-08-17T15:56:43Z</time>
      </trkpt>
      <trkpt lat="47.17379" lon="5.79711">
        <ele>212.6</ele>
        <time>2019-08-17T15:56:44Z</time>
      </trkpt>
      <trkpt lat="47.17381" lon="5.79705">
        <ele>212.7</ele>
        <time>2019-08-17T15:56:45Z</time>
      </trkpt>
      <trkpt lat="47.17382" lon="5.79699">
        <ele>212.8</ele>
        <time>2019-08-17T15:56:46Z</time>
      </trkpt>
      <trkpt lat="47.17384" lon="5.79691">
        <ele>212.9</ele>
        <time>2019-08-17T15:56:47Z</time>
      </trkpt>
      <trkpt lat="47.17385" lon="5.79682">
        <ele>213.1</ele>
        <time>2019-08-17T15:56:48Z</time>
      </trkpt>
      <trkpt lat="47.17386" lon="5.79675">
        <ele>213.2</ele>
        <time>2019-08-17T15:56:49Z</time>
      </trkpt>
      <trkpt lat="47.17388" lon="5.79667">
        <ele>213.3</ele>
        <time>2019-08-17T15:56:50Z</time>
      </trkpt>
      <trkpt lat="47.1739" lon="5.7966">
        <ele>213.4</ele>
        <time>2019-08-17T15:56:51Z</time>
      </trkpt>
      <trkpt lat="47.17392" lon="5.79652">
        <ele>213.5</ele>
        <time>2019-08-17T15:56:52Z</time>
      </trkpt>
      <trkpt lat="47.17393" lon="5.79647">
        <ele>213.6</ele>
        <time>2019-08-17T15:56:53Z</time>
      </trkpt>
      <trkpt lat="47.17395" lon="5.79641">
        <ele>213.6</ele>
        <time>2019-08-17T15:56:54Z</time>
      </trkpt>
      <trkpt lat="47.17397" lon="5.79635">
        <ele>213.7</ele>
        <time>2019-08-17T15:56:55Z</time>
      </trkpt>
      <trkpt lat="47.17398" lon="5.79628">
        <ele>213.8</ele>
        <time>2019-08-17T15:56:56Z</time>
      </trkpt>
      <trkpt lat="47.17398" lon="5.79621">
        <ele>213.9</ele>
        <time>2019-08-17T15:56:57Z</time>
      </trkpt>
      <trkpt lat="47.17399" lon="5.79614">
        <ele>214</ele>
        <time>2019-08-17T15:56:58Z</time>
      </trkpt>
      <trkpt lat="47.174" lon="5.79607">
        <ele>214.1</ele>
        <time>2019-08-17T15:56:59Z</time>
      </trkpt>
      <trkpt lat="47.17401" lon="5.796">
        <ele>214.1</ele>
        <time>2019-08-17T15:57:00Z</time>
      </trkpt>
      <trkpt lat="47.17402" lon="5.79594">
        <ele>214.2</ele>
        <time>2019-08-17T15:57:01Z</time>
      </trkpt>
      <trkpt lat="47.17404" lon="5.79587">
        <ele>214.3</ele>
        <time>2019-08-17T15:57:02Z</time>
      </trkpt>
      <trkpt lat="47.17405" lon="5.7958">
        <ele>214.4</ele>
        <time>2019-08-17T15:57:03Z</time>
      </trkpt>
      <trkpt lat="47.17406" lon="5.79572">
        <ele>214.4</ele>
        <time>2019-08-17T15:57:04Z</time>
      </trkpt>
      <trkpt lat="47.17407" lon="5.79565">
        <ele>214.5</ele>
        <time>2019-08-17T15:57:05Z</time>
      </trkpt>
      <trkpt lat="47.17408" lon="5.79558">
        <ele>214.6</ele>
        <time>2019-08-17T15:57:06Z</time>
      </trkpt>
      <trkpt lat="47.17409" lon="5.79552">
        <ele>214.7</ele>
        <time>2019-08-17T15:57:07Z</time>
      </trkpt>
      <trkpt lat="47.17411" lon="5.79545">
        <ele>214.9</ele>
        <time>2019-08-17T15:57:08Z</time>
      </trkpt>
      <trkpt lat="47.17413" lon="5.79539">
        <ele>214.9</ele>
        <time>2019-08-17T15:57:09Z</time>
      </trkpt>
      <trkpt lat="47.17414" lon="5.79534">
        <ele>215</ele>
        <time>2019-08-17T15:57:10Z</time>
      </trkpt>
      <trkpt lat="47.17415" lon="5.79528">
        <ele>215</ele>
        <time>2019-08-17T15:57:11Z</time>
      </trkpt>
      <trkpt lat="47.17416" lon="5.79523">
        <ele>215.1</ele>
        <time>2019-08-17T15:57:12Z</time>
      </trkpt>
      <trkpt lat="47.17417" lon="5.79518">
        <ele>215.1</ele>
        <time>2019-08-17T15:57:13Z</time>
      </trkpt>
      <trkpt lat="47.17418" lon="5.79513">
        <ele>215.2</ele>
        <time>2019-08-17T15:57:14Z</time>
      </trkpt>
      <trkpt lat="47.1742" lon="5.79508">
        <ele>215.2</ele>
        <time>2019-08-17T15:57:15Z</time>
      </trkpt>
      <trkpt lat="47.17423" lon="5.79502">
        <ele>215.3</ele>
        <time>2019-08-17T15:57:16Z</time>
      </trkpt>
      <trkpt lat="47.17425" lon="5.79496">
        <ele>215.3</ele>
        <time>2019-08-17T15:57:17Z</time>
      </trkpt>
      <trkpt lat="47.17428" lon="5.7949">
        <ele>215.4</ele>
        <time>2019-08-17T15:57:18Z</time>
      </trkpt>
      <trkpt lat="47.17431" lon="5.79483">
        <ele>215.4</ele>
        <time>2019-08-17T15:57:19Z</time>
      </trkpt>
      <trkpt lat="47.17433" lon="5.79477">
        <ele>215.5</ele>
        <time>2019-08-17T15:57:20Z</time>
      </trkpt>
      <trkpt lat="47.17436" lon="5.79471">
        <ele>215.5</ele>
        <time>2019-08-17T15:57:21Z</time>
      </trkpt>
      <trkpt lat="47.17439" lon="5.79466">
        <ele>215.5</ele>
        <time>2019-08-17T15:57:22Z</time>
      </trkpt>
      <trkpt lat="47.17443" lon="5.7946">
        <ele>215.5</ele>
        <time>2019-08-17T15:57:23Z</time>
      </trkpt>
      <trkpt lat="47.17446" lon="5.79453">
        <ele>215.5</ele>
        <time>2019-08-17T15:57:24Z</time>
      </trkpt>
      <trkpt lat="47.17449" lon="5.79447">
        <ele>215.5</ele>
        <time>2019-08-17T15:57:25Z</time>
      </trkpt>
      <trkpt lat="47.17452" lon="5.79441">
        <ele>215.5</ele>
        <time>2019-08-17T15:57:26Z</time>
      </trkpt>
      <trkpt lat="47.17455" lon="5.79434">
        <ele>215.5</ele>
        <time>2019-08-17T15:57:27Z</time>
      </trkpt>
      <trkpt lat="47.17458" lon="5.79429">
        <ele>215.5</ele>
        <time>2019-08-17T15:57:28Z</time>
      </trkpt>
      <trkpt lat="47.17462" lon="5.79425">
        <ele>215.5</ele>
        <time>2019-08-17T15:57:29Z</time>
      </trkpt>
      <trkpt lat="47.17465" lon="5.7942">
        <ele>215.5</ele>
        <time>2019-08-17T15:57:30Z</time>
      </trkpt>
      <trkpt lat="47.17467" lon="5.79414">
        <ele>215.5</ele>
        <time>2019-08-17T15:57:31Z</time>
      </trkpt>
      <trkpt lat="47.1747" lon="5.79408">
        <ele>215.5</ele>
        <time>2019-08-17T15:57:32Z</time>
      </trkpt>
      <trkpt lat="47.17473" lon="5.79402">
        <ele>215.5</ele>
        <time>2019-08-17T15:57:33Z</time>
      </trkpt>
      <trkpt lat="47.17476" lon="5.79397">
        <ele>215.5</ele>
        <time>2019-08-17T15:57:34Z</time>
      </trkpt>
      <trkpt lat="47.17479" lon="5.79391">
        <ele>215.5</ele>
        <time>2019-08-17T15:57:35Z</time>
      </trkpt>
      <trkpt lat="47.17482" lon="5.79386">
        <ele>215.5</ele>
        <time>2019-08-17T15:57:36Z</time>
      </trkpt>
      <trkpt lat="47.17485" lon="5.79381">
        <ele>215.4</ele>
        <time>2019-08-17T15:57:37Z</time>
      </trkpt>
      <trkpt lat="47.17489" lon="5.79377">
        <ele>215.3</ele>
        <time>2019-08-17T15:57:38Z</time>
      </trkpt>
      <trkpt lat="47.17493" lon="5.79371">
        <ele>215.3</ele>
        <time>2019-08-17T15:57:39Z</time>
      </trkpt>
      <trkpt lat="47.17496" lon="5.79367">
        <ele>215.1</ele>
        <time>2019-08-17T15:57:40Z</time>
      </trkpt>
      <trkpt lat="47.175" lon="5.79362">
        <ele>215</ele>
        <time>2019-08-17T15:57:41Z</time>
      </trkpt>
      <trkpt lat="47.17502" lon="5.79358">
        <ele>214.8</ele>
        <time>2019-08-17T15:57:42Z</time>
      </trkpt>
      <trkpt lat="47.17504" lon="5.79355">
        <ele>214.7</ele>
        <time>2019-08-17T15:57:43Z</time>
      </trkpt>
      <trkpt lat="47.17506" lon="5.79352">
        <ele>214.6</ele>
        <time>2019-08-17T15:57:44Z</time>
      </trkpt>
      <trkpt lat="47.17507" lon="5.79348">
        <ele>214.4</ele>
        <time>2019-08-17T15:57:45Z</time>
      </trkpt>
      <trkpt lat="47.17509" lon="5.79344">
        <ele>214.2</ele>
        <time>2019-08-17T15:57:46Z</time>
      </trkpt>
      <trkpt lat="47.1751" lon="5.79336">
        <ele>213.8</ele>
        <time>2019-08-17T15:57:48Z</time>
      </trkpt>
      <trkpt lat="47.17509" lon="5.79329">
        <ele>213.5</ele>
        <time>2019-08-17T15:57:49Z</time>
      </trkpt>
      <trkpt lat="47.17507" lon="5.79324">
        <ele>213.6</ele>
        <time>2019-08-17T15:57:50Z</time>
      </trkpt>
      <trkpt lat="47.17506" lon="5.79318">
        <ele>213.7</ele>
        <time>2019-08-17T15:57:51Z</time>
      </trkpt>
      <trkpt lat="47.17505" lon="5.79313">
        <ele>213.9</ele>
        <time>2019-08-17T15:57:52Z</time>
      </trkpt>
      <trkpt lat="47.17504" lon="5.79308">
        <ele>214</ele>
        <time>2019-08-17T15:57:53Z</time>
      </trkpt>
      <trkpt lat="47.17502" lon="5.79301">
        <ele>214.2</ele>
        <time>2019-08-17T15:57:55Z</time>
      </trkpt>
      <trkpt lat="47.175" lon="5.79297">
        <ele>214.3</ele>
        <time>2019-08-17T15:57:56Z</time>
      </trkpt>
      <trkpt lat="47.17499" lon="5.79293">
        <ele>214.4</ele>
        <time>2019-08-17T15:57:57Z</time>
      </trkpt>
      <trkpt lat="47.17497" lon="5.79288">
        <ele>214.5</ele>
        <time>2019-08-17T15:57:58Z</time>
      </trkpt>
      <trkpt lat="47.17496" lon="5.79284">
        <ele>214.5</ele>
        <time>2019-08-17T15:57:59Z</time>
      </trkpt>
      <trkpt lat="47.17494" lon="5.7928">
        <ele>214.6</ele>
        <time>2019-08-17T15:58:00Z</time>
      </trkpt>
      <trkpt lat="47.17492" lon="5.79276">
        <ele>214.7</ele>
        <time>2019-08-17T15:58:01Z</time>
      </trkpt>
      <trkpt lat="47.1749" lon="5.79273">
        <ele>214.8</ele>
        <time>2019-08-17T15:58:02Z</time>
      </trkpt>
      <trkpt lat="47.17488" lon="5.7927">
        <ele>214.8</ele>
        <time>2019-08-17T15:58:03Z</time>
      </trkpt>
      <trkpt lat="47.17486" lon="5.79267">
        <ele>214.9</ele>
        <time>2019-08-17T15:58:04Z</time>
      </trkpt>
      <trkpt lat="47.17484" lon="5.79263">
        <ele>215</ele>
        <time>2019-08-17T15:58:05Z</time>
      </trkpt>
      <trkpt lat="47.17481" lon="5.79259">
        <ele>215.1</ele>
        <time>2019-08-17T15:58:06Z</time>
      </trkpt>
      <trkpt lat="47.17478" lon="5.79254">
        <ele>215.2</ele>
        <time>2019-08-17T15:58:07Z</time>
      </trkpt>
      <trkpt lat="47.17476" lon="5.79248">
        <ele>215.3</ele>
        <time>2019-08-17T15:58:08Z</time>
      </trkpt>
      <trkpt lat="47.17473" lon="5.79245">
        <ele>215.4</ele>
        <time>2019-08-17T15:58:09Z</time>
      </trkpt>
      <trkpt lat="47.17471" lon="5.79241">
        <ele>215.6</ele>
        <time>2019-08-17T15:58:10Z</time>
      </trkpt>
      <trkpt lat="47.17469" lon="5.79238">
        <ele>215.7</ele>
        <time>2019-08-17T15:58:11Z</time>
      </trkpt>
      <trkpt lat="47.17467" lon="5.79235">
        <ele>215.8</ele>
        <time>2019-08-17T15:58:12Z</time>
      </trkpt>
      <trkpt lat="47.17465" lon="5.79232">
        <ele>215.9</ele>
        <time>2019-08-17T15:58:13Z</time>
      </trkpt>
      <trkpt lat="47.17463" lon="5.79225">
        <ele>216.2</ele>
        <time>2019-08-17T15:58:15Z</time>
      </trkpt>
      <trkpt lat="47.17461" lon="5.79221">
        <ele>216.3</ele>
        <time>2019-08-17T15:58:16Z</time>
      </trkpt>
      <trkpt lat="47.17459" lon="5.79213">
        <ele>216.6</ele>
        <time>2019-08-17T15:58:18Z</time>
      </trkpt>
      <trkpt lat="47.17455" lon="5.79212">
        <ele>216.6</ele>
        <time>2019-08-17T15:58:19Z</time>
      </trkpt>
      <trkpt lat="47.17452" lon="5.79208">
        <ele>216.6</ele>
        <time>2019-08-17T15:58:20Z</time>
      </trkpt>
      <trkpt lat="47.17448" lon="5.79202">
        <ele>216.6</ele>
        <time>2019-08-17T15:58:21Z</time>
      </trkpt>
      <trkpt lat="47.17444" lon="5.79197">
        <ele>216.6</ele>
        <time>2019-08-17T15:58:22Z</time>
      </trkpt>
      <trkpt lat="47.17439" lon="5.79192">
        <ele>216.6</ele>
        <time>2019-08-17T15:58:23Z</time>
      </trkpt>
      <trkpt lat="47.17433" lon="5.79186">
        <ele>216.6</ele>
        <time>2019-08-17T15:58:24Z</time>
      </trkpt>
      <trkpt lat="47.17428" lon="5.79182">
        <ele>216.6</ele>
        <time>2019-08-17T15:58:25Z</time>
      </trkpt>
      <trkpt lat="47.17423" lon="5.79176">
        <ele>216.6</ele>
        <time>2019-08-17T15:58:26Z</time>
      </trkpt>
      <trkpt lat="47.17419" lon="5.79171">
        <ele>216.6</ele>
        <time>2019-08-17T15:58:27Z</time>
      </trkpt>
      <trkpt lat="47.17415" lon="5.79166">
        <ele>216.5</ele>
        <time>2019-08-17T15:58:28Z</time>
      </trkpt>
      <trkpt lat="47.17413" lon="5.79161">
        <ele>216.5</ele>
        <time>2019-08-17T15:58:29Z</time>
      </trkpt>
      <trkpt lat="47.17411" lon="5.79157">
        <ele>216.4</ele>
        <time>2019-08-17T15:58:30Z</time>
      </trkpt>
      <trkpt lat="47.17408" lon="5.79152">
        <ele>216.4</ele>
        <time>2019-08-17T15:58:31Z</time>
      </trkpt>
      <trkpt lat="47.17406" lon="5.79146">
        <ele>216.2</ele>
        <time>2019-08-17T15:58:32Z</time>
      </trkpt>
      <trkpt lat="47.17405" lon="5.7914">
        <ele>216.1</ele>
        <time>2019-08-17T15:58:33Z</time>
      </trkpt>
      <trkpt lat="47.17404" lon="5.79135">
        <ele>215.9</ele>
        <time>2019-08-17T15:58:34Z</time>
      </trkpt>
      <trkpt lat="47.17404" lon="5.79128">
        <ele>215.6</ele>
        <time>2019-08-17T15:58:35Z</time>
      </trkpt>
      <trkpt lat="47.17404" lon="5.7912">
        <ele>215.2</ele>
        <time>2019-08-17T15:58:36Z</time>
      </trkpt>
      <trkpt lat="47.17403" lon="5.79113">
        <ele>214.9</ele>
        <time>2019-08-17T15:58:37Z</time>
      </trkpt>
      <trkpt lat="47.17401" lon="5.79105">
        <ele>214.5</ele>
        <time>2019-08-17T15:58:38Z</time>
      </trkpt>
      <trkpt lat="47.174" lon="5.79098">
        <ele>214.3</ele>
        <time>2019-08-17T15:58:39Z</time>
      </trkpt>
      <trkpt lat="47.17398" lon="5.79091">
        <ele>214.1</ele>
        <time>2019-08-17T15:58:40Z</time>
      </trkpt>
      <trkpt lat="47.17397" lon="5.79083">
        <ele>213.9</ele>
        <time>2019-08-17T15:58:41Z</time>
      </trkpt>
      <trkpt lat="47.17398" lon="5.79077">
        <ele>213.8</ele>
        <time>2019-08-17T15:58:42Z</time>
      </trkpt>
      <trkpt lat="47.17398" lon="5.79069">
        <ele>213.7</ele>
        <time>2019-08-17T15:58:43Z</time>
      </trkpt>
      <trkpt lat="47.17397" lon="5.79061">
        <ele>213.7</ele>
        <time>2019-08-17T15:58:44Z</time>
      </trkpt>
      <trkpt lat="47.17395" lon="5.79054">
        <ele>213.6</ele>
        <time>2019-08-17T15:58:45Z</time>
      </trkpt>
      <trkpt lat="47.17395" lon="5.79047">
        <ele>213.6</ele>
        <time>2019-08-17T15:58:46Z</time>
      </trkpt>
      <trkpt lat="47.17394" lon="5.79041">
        <ele>213.6</ele>
        <time>2019-08-17T15:58:47Z</time>
      </trkpt>
      <trkpt lat="47.17393" lon="5.79035">
        <ele>213.6</ele>
        <time>2019-08-17T15:58:48Z</time>
      </trkpt>
      <trkpt lat="47.17392" lon="5.79029">
        <ele>213.6</ele>
        <time>2019-08-17T15:58:49Z</time>
      </trkpt>
      <trkpt lat="47.17391" lon="5.79023">
        <ele>213.6</ele>
        <time>2019-08-17T15:58:50Z</time>
      </trkpt>
      <trkpt lat="47.1739" lon="5.79016">
        <ele>213.6</ele>
        <time>2019-08-17T15:58:51Z</time>
      </trkpt>
      <trkpt lat="47.1739" lon="5.7901">
        <ele>213.6</ele>
        <time>2019-08-17T15:58:52Z</time>
      </trkpt>
      <trkpt lat="47.17388" lon="5.79004">
        <ele>213.6</ele>
        <time>2019-08-17T15:58:53Z</time>
      </trkpt>
      <trkpt lat="47.17387" lon="5.78999">
        <ele>213.6</ele>
        <time>2019-08-17T15:58:54Z</time>
      </trkpt>
      <trkpt lat="47.17386" lon="5.78993">
        <ele>213.6</ele>
        <time>2019-08-17T15:58:55Z</time>
      </trkpt>
      <trkpt lat="47.17385" lon="5.78987">
        <ele>213.6</ele>
        <time>2019-08-17T15:58:56Z</time>
      </trkpt>
      <trkpt lat="47.17383" lon="5.78979">
        <ele>213.6</ele>
        <time>2019-08-17T15:58:57Z</time>
      </trkpt>
      <trkpt lat="47.17381" lon="5.78973">
        <ele>213.6</ele>
        <time>2019-08-17T15:58:58Z</time>
      </trkpt>
      <trkpt lat="47.17379" lon="5.78968">
        <ele>213.6</ele>
        <time>2019-08-17T15:58:59Z</time>
      </trkpt>
      <trkpt lat="47.17378" lon="5.78963">
        <ele>213.6</ele>
        <time>2019-08-17T15:59:00Z</time>
      </trkpt>
      <trkpt lat="47.17377" lon="5.78957">
        <ele>213.6</ele>
        <time>2019-08-17T15:59:01Z</time>
      </trkpt>
      <trkpt lat="47.17375" lon="5.78951">
        <ele>213.6</ele>
        <time>2019-08-17T15:59:02Z</time>
      </trkpt>
      <trkpt lat="47.17374" lon="5.78945">
        <ele>213.6</ele>
        <time>2019-08-17T15:59:03Z</time>
      </trkpt>
      <trkpt lat="47.17373" lon="5.78939">
        <ele>213.6</ele>
        <time>2019-08-17T15:59:04Z</time>
      </trkpt>
      <trkpt lat="47.17372" lon="5.78931">
        <ele>213.6</ele>
        <time>2019-08-17T15:59:05Z</time>
      </trkpt>
      <trkpt lat="47.1737" lon="5.78924">
        <ele>213.6</ele>
        <time>2019-08-17T15:59:06Z</time>
      </trkpt>
      <trkpt lat="47.17369" lon="5.78917">
        <ele>213.6</ele>
        <time>2019-08-17T15:59:07Z</time>
      </trkpt>
      <trkpt lat="47.17368" lon="5.78911">
        <ele>213.6</ele>
        <time>2019-08-17T15:59:08Z</time>
      </trkpt>
      <trkpt lat="47.17366" lon="5.78904">
        <ele>213.6</ele>
        <time>2019-08-17T15:59:09Z</time>
      </trkpt>
      <trkpt lat="47.17365" lon="5.78896">
        <ele>213.6</ele>
        <time>2019-08-17T15:59:10Z</time>
      </trkpt>
      <trkpt lat="47.17363" lon="5.78889">
        <ele>213.6</ele>
        <time>2019-08-17T15:59:11Z</time>
      </trkpt>
      <trkpt lat="47.17361" lon="5.78882">
        <ele>213.6</ele>
        <time>2019-08-17T15:59:12Z</time>
      </trkpt>
      <trkpt lat="47.1736" lon="5.78874">
        <ele>213.6</ele>
        <time>2019-08-17T15:59:13Z</time>
      </trkpt>
      <trkpt lat="47.17359" lon="5.78867">
        <ele>213.6</ele>
        <time>2019-08-17T15:59:14Z</time>
      </trkpt>
      <trkpt lat="47.17357" lon="5.7886">
        <ele>213.6</ele>
        <time>2019-08-17T15:59:15Z</time>
      </trkpt>
      <trkpt lat="47.17355" lon="5.78852">
        <ele>213.6</ele>
        <time>2019-08-17T15:59:16Z</time>
      </trkpt>
      <trkpt lat="47.17353" lon="5.78846">
        <ele>213.6</ele>
        <time>2019-08-17T15:59:17Z</time>
      </trkpt>
      <trkpt lat="47.17352" lon="5.78841">
        <ele>213.6</ele>
        <time>2019-08-17T15:59:18Z</time>
      </trkpt>
      <trkpt lat="47.17351" lon="5.78835">
        <ele>213.6</ele>
        <time>2019-08-17T15:59:19Z</time>
      </trkpt>
      <trkpt lat="47.17349" lon="5.7883">
        <ele>213.6</ele>
        <time>2019-08-17T15:59:20Z</time>
      </trkpt>
      <trkpt lat="47.17346" lon="5.78824">
        <ele>213.6</ele>
        <time>2019-08-17T15:59:21Z</time>
      </trkpt>
      <trkpt lat="47.17345" lon="5.78817">
        <ele>213.6</ele>
        <time>2019-08-17T15:59:22Z</time>
      </trkpt>
      <trkpt lat="47.17342" lon="5.7881">
        <ele>213.6</ele>
        <time>2019-08-17T15:59:23Z</time>
      </trkpt>
      <trkpt lat="47.1734" lon="5.78802">
        <ele>213.6</ele>
        <time>2019-08-17T15:59:24Z</time>
      </trkpt>
      <trkpt lat="47.17338" lon="5.78796">
        <ele>213.7</ele>
        <time>2019-08-17T15:59:25Z</time>
      </trkpt>
      <trkpt lat="47.17336" lon="5.7879">
        <ele>213.7</ele>
        <time>2019-08-17T15:59:26Z</time>
      </trkpt>
      <trkpt lat="47.17333" lon="5.78785">
        <ele>213.8</ele>
        <time>2019-08-17T15:59:27Z</time>
      </trkpt>
      <trkpt lat="47.1733" lon="5.78779">
        <ele>213.8</ele>
        <time>2019-08-17T15:59:28Z</time>
      </trkpt>
      <trkpt lat="47.17327" lon="5.78773">
        <ele>213.9</ele>
        <time>2019-08-17T15:59:29Z</time>
      </trkpt>
      <trkpt lat="47.17325" lon="5.78767">
        <ele>213.9</ele>
        <time>2019-08-17T15:59:30Z</time>
      </trkpt>
      <trkpt lat="47.17322" lon="5.7876">
        <ele>213.9</ele>
        <time>2019-08-17T15:59:31Z</time>
      </trkpt>
      <trkpt lat="47.1732" lon="5.78754">
        <ele>214</ele>
        <time>2019-08-17T15:59:32Z</time>
      </trkpt>
      <trkpt lat="47.17318" lon="5.78748">
        <ele>214</ele>
        <time>2019-08-17T15:59:33Z</time>
      </trkpt>
      <trkpt lat="47.17316" lon="5.78741">
        <ele>214</ele>
        <time>2019-08-17T15:59:34Z</time>
      </trkpt>
      <trkpt lat="47.17316" lon="5.78737">
        <ele>214</ele>
        <time>2019-08-17T15:59:35Z</time>
      </trkpt>
      <trkpt lat="47.17314" lon="5.78731">
        <ele>214</ele>
        <time>2019-08-17T15:59:36Z</time>
      </trkpt>
      <trkpt lat="47.17312" lon="5.78725">
        <ele>214</ele>
        <time>2019-08-17T15:59:37Z</time>
      </trkpt>
      <trkpt lat="47.1731" lon="5.7872">
        <ele>214</ele>
        <time>2019-08-17T15:59:38Z</time>
      </trkpt>
      <trkpt lat="47.17309" lon="5.78714">
        <ele>214</ele>
        <time>2019-08-17T15:59:39Z</time>
      </trkpt>
      <trkpt lat="47.17307" lon="5.78709">
        <ele>214</ele>
        <time>2019-08-17T15:59:40Z</time>
      </trkpt>
      <trkpt lat="47.17305" lon="5.78703">
        <ele>214</ele>
        <time>2019-08-17T15:59:41Z</time>
      </trkpt>
      <trkpt lat="47.17303" lon="5.78697">
        <ele>214.1</ele>
        <time>2019-08-17T15:59:42Z</time>
      </trkpt>
      <trkpt lat="47.17301" lon="5.78692">
        <ele>214.1</ele>
        <time>2019-08-17T15:59:43Z</time>
      </trkpt>
      <trkpt lat="47.17298" lon="5.78686">
        <ele>214.1</ele>
        <time>2019-08-17T15:59:44Z</time>
      </trkpt>
      <trkpt lat="47.17296" lon="5.7868">
        <ele>214.2</ele>
        <time>2019-08-17T15:59:45Z</time>
      </trkpt>
      <trkpt lat="47.17293" lon="5.78674">
        <ele>214.2</ele>
        <time>2019-08-17T15:59:46Z</time>
      </trkpt>
      <trkpt lat="47.1729" lon="5.78669">
        <ele>214.2</ele>
        <time>2019-08-17T15:59:47Z</time>
      </trkpt>
      <trkpt lat="47.17288" lon="5.78661">
        <ele>214.2</ele>
        <time>2019-08-17T15:59:48Z</time>
      </trkpt>
      <trkpt lat="47.17285" lon="5.78656">
        <ele>214.2</ele>
        <time>2019-08-17T15:59:49Z</time>
      </trkpt>
      <trkpt lat="47.17282" lon="5.78649">
        <ele>214.2</ele>
        <time>2019-08-17T15:59:50Z</time>
      </trkpt>
      <trkpt lat="47.17279" lon="5.78644">
        <ele>214.2</ele>
        <time>2019-08-17T15:59:51Z</time>
      </trkpt>
      <trkpt lat="47.17277" lon="5.78638">
        <ele>214.2</ele>
        <time>2019-08-17T15:59:52Z</time>
      </trkpt>
      <trkpt lat="47.17274" lon="5.78633">
        <ele>214.2</ele>
        <time>2019-08-17T15:59:53Z</time>
      </trkpt>
      <trkpt lat="47.17271" lon="5.78628">
        <ele>214.2</ele>
        <time>2019-08-17T15:59:54Z</time>
      </trkpt>
      <trkpt lat="47.17268" lon="5.78623">
        <ele>214.2</ele>
        <time>2019-08-17T15:59:55Z</time>
      </trkpt>
      <trkpt lat="47.17265" lon="5.78617">
        <ele>214.2</ele>
        <time>2019-08-17T15:59:56Z</time>
      </trkpt>
      <trkpt lat="47.17261" lon="5.78612">
        <ele>214.2</ele>
        <time>2019-08-17T15:59:57Z</time>
      </trkpt>
      <trkpt lat="47.17258" lon="5.78605">
        <ele>214.2</ele>
        <time>2019-08-17T15:59:58Z</time>
      </trkpt>
      <trkpt lat="47.17254" lon="5.786">
        <ele>214.2</ele>
        <time>2019-08-17T15:59:59Z</time>
      </trkpt>
      <trkpt lat="47.1725" lon="5.78594">
        <ele>214.2</ele>
        <time>2019-08-17T16:00:00Z</time>
      </trkpt>
      <trkpt lat="47.17247" lon="5.78588">
        <ele>214.2</ele>
        <time>2019-08-17T16:00:01Z</time>
      </trkpt>
      <trkpt lat="47.17244" lon="5.78583">
        <ele>214.2</ele>
        <time>2019-08-17T16:00:02Z</time>
      </trkpt>
      <trkpt lat="47.1724" lon="5.78578">
        <ele>214.2</ele>
        <time>2019-08-17T16:00:03Z</time>
      </trkpt>
      <trkpt lat="47.17237" lon="5.78572">
        <ele>214.1</ele>
        <time>2019-08-17T16:00:04Z</time>
      </trkpt>
      <trkpt lat="47.17233" lon="5.78567">
        <ele>214.1</ele>
        <time>2019-08-17T16:00:05Z</time>
      </trkpt>
      <trkpt lat="47.1723" lon="5.78562">
        <ele>214.1</ele>
        <time>2019-08-17T16:00:06Z</time>
      </trkpt>
      <trkpt lat="47.17227" lon="5.78557">
        <ele>214.1</ele>
        <time>2019-08-17T16:00:07Z</time>
      </trkpt>
      <trkpt lat="47.17224" lon="5.78552">
        <ele>214</ele>
        <time>2019-08-17T16:00:08Z</time>
      </trkpt>
      <trkpt lat="47.17221" lon="5.78548">
        <ele>214</ele>
        <time>2019-08-17T16:00:09Z</time>
      </trkpt>
      <trkpt lat="47.17218" lon="5.78543">
        <ele>214</ele>
        <time>2019-08-17T16:00:10Z</time>
      </trkpt>
      <trkpt lat="47.17215" lon="5.78538">
        <ele>214</ele>
        <time>2019-08-17T16:00:11Z</time>
      </trkpt>
      <trkpt lat="47.17211" lon="5.78534">
        <ele>214</ele>
        <time>2019-08-17T16:00:12Z</time>
      </trkpt>
      <trkpt lat="47.17207" lon="5.78529">
        <ele>214</ele>
        <time>2019-08-17T16:00:13Z</time>
      </trkpt>
      <trkpt lat="47.17204" lon="5.78526">
        <ele>214</ele>
        <time>2019-08-17T16:00:14Z</time>
      </trkpt>
      <trkpt lat="47.172" lon="5.78522">
        <ele>214</ele>
        <time>2019-08-17T16:00:15Z</time>
      </trkpt>
      <trkpt lat="47.17196" lon="5.78518">
        <ele>214</ele>
        <time>2019-08-17T16:00:16Z</time>
      </trkpt>
      <trkpt lat="47.17192" lon="5.78514">
        <ele>214</ele>
        <time>2019-08-17T16:00:17Z</time>
      </trkpt>
      <trkpt lat="47.17187" lon="5.78511">
        <ele>214</ele>
        <time>2019-08-17T16:00:18Z</time>
      </trkpt>
      <trkpt lat="47.17183" lon="5.78508">
        <ele>214</ele>
        <time>2019-08-17T16:00:19Z</time>
      </trkpt>
      <trkpt lat="47.17179" lon="5.78505">
        <ele>214</ele>
        <time>2019-08-17T16:00:20Z</time>
      </trkpt>
      <trkpt lat="47.17175" lon="5.78503">
        <ele>214</ele>
        <time>2019-08-17T16:00:21Z</time>
      </trkpt>
      <trkpt lat="47.17171" lon="5.78499">
        <ele>214</ele>
        <time>2019-08-17T16:00:22Z</time>
      </trkpt>
      <trkpt lat="47.17167" lon="5.78496">
        <ele>214</ele>
        <time>2019-08-17T16:00:23Z</time>
      </trkpt>
      <trkpt lat="47.17163" lon="5.78492">
        <ele>214</ele>
        <time>2019-08-17T16:00:24Z</time>
      </trkpt>
      <trkpt lat="47.17159" lon="5.78487">
        <ele>214</ele>
        <time>2019-08-17T16:00:25Z</time>
      </trkpt>
      <trkpt lat="47.17155" lon="5.78484">
        <ele>214</ele>
        <time>2019-08-17T16:00:26Z</time>
      </trkpt>
      <trkpt lat="47.17152" lon="5.7848">
        <ele>214</ele>
        <time>2019-08-17T16:00:27Z</time>
      </trkpt>
      <trkpt lat="47.17148" lon="5.78477">
        <ele>214</ele>
        <time>2019-08-17T16:00:28Z</time>
      </trkpt>
      <trkpt lat="47.17144" lon="5.78475">
        <ele>214</ele>
        <time>2019-08-17T16:00:29Z</time>
      </trkpt>
      <trkpt lat="47.1714" lon="5.78473">
        <ele>214</ele>
        <time>2019-08-17T16:00:30Z</time>
      </trkpt>
      <trkpt lat="47.17136" lon="5.7847">
        <ele>214</ele>
        <time>2019-08-17T16:00:31Z</time>
      </trkpt>
      <trkpt lat="47.17132" lon="5.78467">
        <ele>214</ele>
        <time>2019-08-17T16:00:32Z</time>
      </trkpt>
      <trkpt lat="47.17128" lon="5.78464">
        <ele>214</ele>
        <time>2019-08-17T16:00:33Z</time>
      </trkpt>
      <trkpt lat="47.17125" lon="5.7846">
        <ele>214</ele>
        <time>2019-08-17T16:00:34Z</time>
      </trkpt>
      <trkpt lat="47.17121" lon="5.78455">
        <ele>214</ele>
        <time>2019-08-17T16:00:35Z</time>
      </trkpt>
      <trkpt lat="47.17117" lon="5.78452">
        <ele>214</ele>
        <time>2019-08-17T16:00:36Z</time>
      </trkpt>
      <trkpt lat="47.17113" lon="5.78449">
        <ele>214</ele>
        <time>2019-08-17T16:00:37Z</time>
      </trkpt>
      <trkpt lat="47.17109" lon="5.78448">
        <ele>214</ele>
        <time>2019-08-17T16:00:38Z</time>
      </trkpt>
      <trkpt lat="47.17105" lon="5.78444">
        <ele>214</ele>
        <time>2019-08-17T16:00:39Z</time>
      </trkpt>
      <trkpt lat="47.17102" lon="5.78442">
        <ele>214</ele>
        <time>2019-08-17T16:00:40Z</time>
      </trkpt>
      <trkpt lat="47.17099" lon="5.78438">
        <ele>214</ele>
        <time>2019-08-17T16:00:41Z</time>
      </trkpt>
      <trkpt lat="47.17097" lon="5.78437">
        <ele>214</ele>
        <time>2019-08-17T16:00:42Z</time>
      </trkpt>
      <trkpt lat="47.17093" lon="5.78433">
        <ele>214</ele>
        <time>2019-08-17T16:00:44Z</time>
      </trkpt>
      <trkpt lat="47.1709" lon="5.7843">
        <ele>214</ele>
        <time>2019-08-17T16:00:45Z</time>
      </trkpt>
      <trkpt lat="47.17087" lon="5.78428">
        <ele>214</ele>
        <time>2019-08-17T16:00:46Z</time>
      </trkpt>
      <trkpt lat="47.17083" lon="5.78425">
        <ele>214</ele>
        <time>2019-08-17T16:00:47Z</time>
      </trkpt>
      <trkpt lat="47.17078" lon="5.78423">
        <ele>214</ele>
        <time>2019-08-17T16:00:48Z</time>
      </trkpt>
      <trkpt lat="47.17075" lon="5.7842">
        <ele>214</ele>
        <time>2019-08-17T16:00:49Z</time>
      </trkpt>
      <trkpt lat="47.17071" lon="5.78417">
        <ele>214</ele>
        <time>2019-08-17T16:00:50Z</time>
      </trkpt>
      <trkpt lat="47.17067" lon="5.78414">
        <ele>214</ele>
        <time>2019-08-17T16:00:51Z</time>
      </trkpt>
      <trkpt lat="47.17063" lon="5.78411">
        <ele>214</ele>
        <time>2019-08-17T16:00:52Z</time>
      </trkpt>
      <trkpt lat="47.17059" lon="5.78408">
        <ele>214</ele>
        <time>2019-08-17T16:00:53Z</time>
      </trkpt>
      <trkpt lat="47.17055" lon="5.78405">
        <ele>214</ele>
        <time>2019-08-17T16:00:54Z</time>
      </trkpt>
      <trkpt lat="47.17052" lon="5.78403">
        <ele>214</ele>
        <time>2019-08-17T16:00:55Z</time>
      </trkpt>
      <trkpt lat="47.17048" lon="5.784">
        <ele>214</ele>
        <time>2019-08-17T16:00:56Z</time>
      </trkpt>
      <trkpt lat="47.17044" lon="5.78396">
        <ele>214</ele>
        <time>2019-08-17T16:00:57Z</time>
      </trkpt>
      <trkpt lat="47.1704" lon="5.78393">
        <ele>214</ele>
        <time>2019-08-17T16:00:58Z</time>
      </trkpt>
      <trkpt lat="47.17036" lon="5.7839">
        <ele>214</ele>
        <time>2019-08-17T16:00:59Z</time>
      </trkpt>
      <trkpt lat="47.17032" lon="5.78387">
        <ele>213.9</ele>
        <time>2019-08-17T16:01:00Z</time>
      </trkpt>
      <trkpt lat="47.17028" lon="5.78383">
        <ele>213.9</ele>
        <time>2019-08-17T16:01:01Z</time>
      </trkpt>
      <trkpt lat="47.17023" lon="5.78381">
        <ele>213.9</ele>
        <time>2019-08-17T16:01:02Z</time>
      </trkpt>
      <trkpt lat="47.17019" lon="5.78378">
        <ele>213.9</ele>
        <time>2019-08-17T16:01:03Z</time>
      </trkpt>
      <trkpt lat="47.17014" lon="5.78374">
        <ele>213.8</ele>
        <time>2019-08-17T16:01:04Z</time>
      </trkpt>
      <trkpt lat="47.1701" lon="5.78371">
        <ele>213.8</ele>
        <time>2019-08-17T16:01:05Z</time>
      </trkpt>
      <trkpt lat="47.17006" lon="5.7837">
        <ele>213.8</ele>
        <time>2019-08-17T16:01:06Z</time>
      </trkpt>
      <trkpt lat="47.17002" lon="5.78368">
        <ele>213.8</ele>
        <time>2019-08-17T16:01:07Z</time>
      </trkpt>
      <trkpt lat="47.16999" lon="5.78367">
        <ele>213.8</ele>
        <time>2019-08-17T16:01:08Z</time>
      </trkpt>
      <trkpt lat="47.16995" lon="5.78365">
        <ele>213.8</ele>
        <time>2019-08-17T16:01:09Z</time>
      </trkpt>
      <trkpt lat="47.1699" lon="5.78364">
        <ele>213.8</ele>
        <time>2019-08-17T16:01:10Z</time>
      </trkpt>
      <trkpt lat="47.16986" lon="5.78361">
        <ele>213.8</ele>
        <time>2019-08-17T16:01:11Z</time>
      </trkpt>
      <trkpt lat="47.16983" lon="5.78359">
        <ele>213.8</ele>
        <time>2019-08-17T16:01:12Z</time>
      </trkpt>
      <trkpt lat="47.16979" lon="5.78357">
        <ele>213.8</ele>
        <time>2019-08-17T16:01:13Z</time>
      </trkpt>
      <trkpt lat="47.16976" lon="5.78355">
        <ele>213.8</ele>
        <time>2019-08-17T16:01:14Z</time>
      </trkpt>
      <trkpt lat="47.16973" lon="5.78353">
        <ele>213.8</ele>
        <time>2019-08-17T16:01:15Z</time>
      </trkpt>
      <trkpt lat="47.16969" lon="5.78352">
        <ele>213.8</ele>
        <time>2019-08-17T16:01:16Z</time>
      </trkpt>
      <trkpt lat="47.16965" lon="5.78351">
        <ele>213.8</ele>
        <time>2019-08-17T16:01:17Z</time>
      </trkpt>
      <trkpt lat="47.16962" lon="5.78351">
        <ele>213.8</ele>
        <time>2019-08-17T16:01:18Z</time>
      </trkpt>
      <trkpt lat="47.16958" lon="5.7835">
        <ele>213.8</ele>
        <time>2019-08-17T16:01:19Z</time>
      </trkpt>
      <trkpt lat="47.16955" lon="5.78349">
        <ele>213.8</ele>
        <time>2019-08-17T16:01:20Z</time>
      </trkpt>
      <trkpt lat="47.1695" lon="5.78347">
        <ele>213.8</ele>
        <time>2019-08-17T16:01:21Z</time>
      </trkpt>
      <trkpt lat="47.16945" lon="5.78345">
        <ele>213.8</ele>
        <time>2019-08-17T16:01:22Z</time>
      </trkpt>
      <trkpt lat="47.1694" lon="5.78342">
        <ele>213.8</ele>
        <time>2019-08-17T16:01:23Z</time>
      </trkpt>
      <trkpt lat="47.16936" lon="5.7834">
        <ele>213.8</ele>
        <time>2019-08-17T16:01:24Z</time>
      </trkpt>
      <trkpt lat="47.1693" lon="5.78337">
        <ele>213.8</ele>
        <time>2019-08-17T16:01:25Z</time>
      </trkpt>
      <trkpt lat="47.16926" lon="5.78336">
        <ele>213.8</ele>
        <time>2019-08-17T16:01:26Z</time>
      </trkpt>
      <trkpt lat="47.16922" lon="5.78334">
        <ele>213.8</ele>
        <time>2019-08-17T16:01:27Z</time>
      </trkpt>
      <trkpt lat="47.16919" lon="5.78333">
        <ele>213.8</ele>
        <time>2019-08-17T16:01:28Z</time>
      </trkpt>
      <trkpt lat="47.16916" lon="5.78332">
        <ele>213.8</ele>
        <time>2019-08-17T16:01:29Z</time>
      </trkpt>
      <trkpt lat="47.16912" lon="5.78331">
        <ele>213.8</ele>
        <time>2019-08-17T16:01:30Z</time>
      </trkpt>
      <trkpt lat="47.16909" lon="5.78329">
        <ele>213.8</ele>
        <time>2019-08-17T16:01:31Z</time>
      </trkpt>
      <trkpt lat="47.16905" lon="5.78327">
        <ele>213.8</ele>
        <time>2019-08-17T16:01:32Z</time>
      </trkpt>
      <trkpt lat="47.16901" lon="5.78325">
        <ele>213.8</ele>
        <time>2019-08-17T16:01:33Z</time>
      </trkpt>
      <trkpt lat="47.16898" lon="5.78323">
        <ele>213.7</ele>
        <time>2019-08-17T16:01:34Z</time>
      </trkpt>
      <trkpt lat="47.16894" lon="5.7832">
        <ele>213.7</ele>
        <time>2019-08-17T16:01:35Z</time>
      </trkpt>
      <trkpt lat="47.16889" lon="5.78317">
        <ele>213.7</ele>
        <time>2019-08-17T16:01:36Z</time>
      </trkpt>
      <trkpt lat="47.16884" lon="5.78313">
        <ele>213.7</ele>
        <time>2019-08-17T16:01:37Z</time>
      </trkpt>
      <trkpt lat="47.16878" lon="5.78309">
        <ele>213.6</ele>
        <time>2019-08-17T16:01:38Z</time>
      </trkpt>
      <trkpt lat="47.16873" lon="5.78306">
        <ele>213.6</ele>
        <time>2019-08-17T16:01:39Z</time>
      </trkpt>
      <trkpt lat="47.16867" lon="5.78302">
        <ele>213.6</ele>
        <time>2019-08-17T16:01:40Z</time>
      </trkpt>
      <trkpt lat="47.16862" lon="5.78298">
        <ele>213.6</ele>
        <time>2019-08-17T16:01:41Z</time>
      </trkpt>
      <trkpt lat="47.16858" lon="5.78294">
        <ele>213.6</ele>
        <time>2019-08-17T16:01:42Z</time>
      </trkpt>
      <trkpt lat="47.16855" lon="5.78293">
        <ele>213.6</ele>
        <time>2019-08-17T16:01:43Z</time>
      </trkpt>
      <trkpt lat="47.16851" lon="5.78289">
        <ele>213.6</ele>
        <time>2019-08-17T16:01:44Z</time>
      </trkpt>
      <trkpt lat="47.16846" lon="5.78287">
        <ele>213.7</ele>
        <time>2019-08-17T16:01:45Z</time>
      </trkpt>
      <trkpt lat="47.16841" lon="5.78284">
        <ele>213.7</ele>
        <time>2019-08-17T16:01:46Z</time>
      </trkpt>
      <trkpt lat="47.16838" lon="5.7828">
        <ele>213.7</ele>
        <time>2019-08-17T16:01:47Z</time>
      </trkpt>
      <trkpt lat="47.16834" lon="5.78277">
        <ele>213.6</ele>
        <time>2019-08-17T16:01:48Z</time>
      </trkpt>
      <trkpt lat="47.1683" lon="5.78274">
        <ele>213.6</ele>
        <time>2019-08-17T16:01:49Z</time>
      </trkpt>
      <trkpt lat="47.16826" lon="5.78269">
        <ele>213.6</ele>
        <time>2019-08-17T16:01:50Z</time>
      </trkpt>
      <trkpt lat="47.1682" lon="5.78267">
        <ele>213.6</ele>
        <time>2019-08-17T16:01:51Z</time>
      </trkpt>
      <trkpt lat="47.16815" lon="5.78264">
        <ele>213.6</ele>
        <time>2019-08-17T16:01:52Z</time>
      </trkpt>
      <trkpt lat="47.1681" lon="5.78261">
        <ele>213.5</ele>
        <time>2019-08-17T16:01:53Z</time>
      </trkpt>
      <trkpt lat="47.16805" lon="5.78258">
        <ele>213.5</ele>
        <time>2019-08-17T16:01:54Z</time>
      </trkpt>
      <trkpt lat="47.168" lon="5.78256">
        <ele>213.5</ele>
        <time>2019-08-17T16:01:55Z</time>
      </trkpt>
      <trkpt lat="47.16796" lon="5.78253">
        <ele>213.5</ele>
        <time>2019-08-17T16:01:56Z</time>
      </trkpt>
      <trkpt lat="47.16792" lon="5.7825">
        <ele>213.4</ele>
        <time>2019-08-17T16:01:57Z</time>
      </trkpt>
      <trkpt lat="47.16788" lon="5.78246">
        <ele>213.4</ele>
        <time>2019-08-17T16:01:58Z</time>
      </trkpt>
      <trkpt lat="47.16784" lon="5.78242">
        <ele>213.4</ele>
        <time>2019-08-17T16:01:59Z</time>
      </trkpt>
      <trkpt lat="47.16781" lon="5.78238">
        <ele>213.4</ele>
        <time>2019-08-17T16:02:00Z</time>
      </trkpt>
      <trkpt lat="47.16777" lon="5.78234">
        <ele>213.3</ele>
        <time>2019-08-17T16:02:01Z</time>
      </trkpt>
      <trkpt lat="47.16774" lon="5.78231">
        <ele>213.3</ele>
        <time>2019-08-17T16:02:02Z</time>
      </trkpt>
      <trkpt lat="47.16771" lon="5.78227">
        <ele>213.3</ele>
        <time>2019-08-17T16:02:03Z</time>
      </trkpt>
      <trkpt lat="47.16767" lon="5.78225">
        <ele>213.3</ele>
        <time>2019-08-17T16:02:04Z</time>
      </trkpt>
      <trkpt lat="47.16764" lon="5.78222">
        <ele>213.3</ele>
        <time>2019-08-17T16:02:05Z</time>
      </trkpt>
      <trkpt lat="47.16761" lon="5.78218">
        <ele>213.3</ele>
        <time>2019-08-17T16:02:06Z</time>
      </trkpt>
      <trkpt lat="47.16757" lon="5.78214">
        <ele>213.3</ele>
        <time>2019-08-17T16:02:07Z</time>
      </trkpt>
      <trkpt lat="47.16754" lon="5.78211">
        <ele>213.4</ele>
        <time>2019-08-17T16:02:08Z</time>
      </trkpt>
      <trkpt lat="47.1675" lon="5.78208">
        <ele>213.4</ele>
        <time>2019-08-17T16:02:09Z</time>
      </trkpt>
      <trkpt lat="47.16746" lon="5.78205">
        <ele>213.5</ele>
        <time>2019-08-17T16:02:10Z</time>
      </trkpt>
      <trkpt lat="47.16743" lon="5.78201">
        <ele>213.5</ele>
        <time>2019-08-17T16:02:11Z</time>
      </trkpt>
      <trkpt lat="47.16739" lon="5.78198">
        <ele>213.6</ele>
        <time>2019-08-17T16:02:12Z</time>
      </trkpt>
      <trkpt lat="47.16734" lon="5.78195">
        <ele>213.6</ele>
        <time>2019-08-17T16:02:13Z</time>
      </trkpt>
      <trkpt lat="47.16729" lon="5.78192">
        <ele>213.6</ele>
        <time>2019-08-17T16:02:14Z</time>
      </trkpt>
      <trkpt lat="47.16724" lon="5.78189">
        <ele>213.6</ele>
        <time>2019-08-17T16:02:15Z</time>
      </trkpt>
      <trkpt lat="47.16719" lon="5.78185">
        <ele>213.6</ele>
        <time>2019-08-17T16:02:16Z</time>
      </trkpt>
      <trkpt lat="47.16714" lon="5.78182">
        <ele>213.5</ele>
        <time>2019-08-17T16:02:17Z</time>
      </trkpt>
      <trkpt lat="47.1671" lon="5.78178">
        <ele>213.5</ele>
        <time>2019-08-17T16:02:18Z</time>
      </trkpt>
      <trkpt lat="47.16706" lon="5.78174">
        <ele>213.5</ele>
        <time>2019-08-17T16:02:19Z</time>
      </trkpt>
      <trkpt lat="47.16702" lon="5.7817">
        <ele>213.4</ele>
        <time>2019-08-17T16:02:20Z</time>
      </trkpt>
      <trkpt lat="47.16699" lon="5.78166">
        <ele>213.4</ele>
        <time>2019-08-17T16:02:21Z</time>
      </trkpt>
      <trkpt lat="47.16695" lon="5.78163">
        <ele>213.4</ele>
        <time>2019-08-17T16:02:22Z</time>
      </trkpt>
      <trkpt lat="47.16692" lon="5.7816">
        <ele>213.4</ele>
        <time>2019-08-17T16:02:23Z</time>
      </trkpt>
      <trkpt lat="47.16688" lon="5.78157">
        <ele>213.4</ele>
        <time>2019-08-17T16:02:24Z</time>
      </trkpt>
      <trkpt lat="47.16683" lon="5.78154">
        <ele>213.4</ele>
        <time>2019-08-17T16:02:25Z</time>
      </trkpt>
      <trkpt lat="47.16679" lon="5.78149">
        <ele>213.4</ele>
        <time>2019-08-17T16:02:26Z</time>
      </trkpt>
      <trkpt lat="47.16675" lon="5.78146">
        <ele>213.5</ele>
        <time>2019-08-17T16:02:27Z</time>
      </trkpt>
      <trkpt lat="47.16671" lon="5.78142">
        <ele>213.5</ele>
        <time>2019-08-17T16:02:28Z</time>
      </trkpt>
      <trkpt lat="47.16666" lon="5.78139">
        <ele>213.5</ele>
        <time>2019-08-17T16:02:29Z</time>
      </trkpt>
      <trkpt lat="47.16662" lon="5.78135">
        <ele>213.6</ele>
        <time>2019-08-17T16:02:30Z</time>
      </trkpt>
      <trkpt lat="47.16658" lon="5.78132">
        <ele>213.6</ele>
        <time>2019-08-17T16:02:31Z</time>
      </trkpt>
      <trkpt lat="47.16653" lon="5.78129">
        <ele>213.6</ele>
        <time>2019-08-17T16:02:32Z</time>
      </trkpt>
      <trkpt lat="47.1665" lon="5.78125">
        <ele>213.7</ele>
        <time>2019-08-17T16:02:33Z</time>
      </trkpt>
      <trkpt lat="47.16646" lon="5.78122">
        <ele>213.7</ele>
        <time>2019-08-17T16:02:34Z</time>
      </trkpt>
      <trkpt lat="47.16642" lon="5.78117">
        <ele>213.7</ele>
        <time>2019-08-17T16:02:35Z</time>
      </trkpt>
      <trkpt lat="47.16638" lon="5.78113">
        <ele>213.7</ele>
        <time>2019-08-17T16:02:36Z</time>
      </trkpt>
      <trkpt lat="47.16634" lon="5.78109">
        <ele>213.6</ele>
        <time>2019-08-17T16:02:37Z</time>
      </trkpt>
      <trkpt lat="47.1663" lon="5.78106">
        <ele>213.6</ele>
        <time>2019-08-17T16:02:38Z</time>
      </trkpt>
      <trkpt lat="47.16626" lon="5.78102">
        <ele>213.6</ele>
        <time>2019-08-17T16:02:39Z</time>
      </trkpt>
      <trkpt lat="47.16622" lon="5.78098">
        <ele>213.6</ele>
        <time>2019-08-17T16:02:40Z</time>
      </trkpt>
      <trkpt lat="47.16618" lon="5.78094">
        <ele>213.6</ele>
        <time>2019-08-17T16:02:41Z</time>
      </trkpt>
      <trkpt lat="47.16614" lon="5.7809">
        <ele>213.6</ele>
        <time>2019-08-17T16:02:42Z</time>
      </trkpt>
      <trkpt lat="47.1661" lon="5.78085">
        <ele>213.6</ele>
        <time>2019-08-17T16:02:43Z</time>
      </trkpt>
      <trkpt lat="47.16605" lon="5.78082">
        <ele>213.5</ele>
        <time>2019-08-17T16:02:44Z</time>
      </trkpt>
      <trkpt lat="47.16602" lon="5.78078">
        <ele>213.5</ele>
        <time>2019-08-17T16:02:45Z</time>
      </trkpt>
      <trkpt lat="47.16597" lon="5.78074">
        <ele>213.5</ele>
        <time>2019-08-17T16:02:46Z</time>
      </trkpt>
      <trkpt lat="47.16593" lon="5.78071">
        <ele>213.5</ele>
        <time>2019-08-17T16:02:47Z</time>
      </trkpt>
      <trkpt lat="47.16589" lon="5.78067">
        <ele>213.5</ele>
        <time>2019-08-17T16:02:48Z</time>
      </trkpt>
      <trkpt lat="47.16585" lon="5.78064">
        <ele>213.4</ele>
        <time>2019-08-17T16:02:49Z</time>
      </trkpt>
      <trkpt lat="47.16582" lon="5.78061">
        <ele>213.4</ele>
        <time>2019-08-17T16:02:50Z</time>
      </trkpt>
      <trkpt lat="47.16578" lon="5.78058">
        <ele>213.4</ele>
        <time>2019-08-17T16:02:51Z</time>
      </trkpt>
      <trkpt lat="47.16575" lon="5.78055">
        <ele>213.4</ele>
        <time>2019-08-17T16:02:52Z</time>
      </trkpt>
      <trkpt lat="47.16572" lon="5.78052">
        <ele>213.4</ele>
        <time>2019-08-17T16:02:53Z</time>
      </trkpt>
      <trkpt lat="47.1657" lon="5.78048">
        <ele>213.4</ele>
        <time>2019-08-17T16:02:54Z</time>
      </trkpt>
      <trkpt lat="47.16566" lon="5.78044">
        <ele>213.4</ele>
        <time>2019-08-17T16:02:55Z</time>
      </trkpt>
      <trkpt lat="47.16563" lon="5.78041">
        <ele>213.4</ele>
        <time>2019-08-17T16:02:56Z</time>
      </trkpt>
      <trkpt lat="47.1656" lon="5.78037">
        <ele>213.4</ele>
        <time>2019-08-17T16:02:57Z</time>
      </trkpt>
      <trkpt lat="47.16557" lon="5.78034">
        <ele>213.3</ele>
        <time>2019-08-17T16:02:58Z</time>
      </trkpt>
      <trkpt lat="47.16554" lon="5.7803">
        <ele>213.3</ele>
        <time>2019-08-17T16:02:59Z</time>
      </trkpt>
      <trkpt lat="47.1655" lon="5.78026">
        <ele>213.3</ele>
        <time>2019-08-17T16:03:00Z</time>
      </trkpt>
      <trkpt lat="47.16545" lon="5.78023">
        <ele>213.3</ele>
        <time>2019-08-17T16:03:01Z</time>
      </trkpt>
      <trkpt lat="47.16541" lon="5.78019">
        <ele>213.3</ele>
        <time>2019-08-17T16:03:02Z</time>
      </trkpt>
      <trkpt lat="47.16537" lon="5.78015">
        <ele>213.3</ele>
        <time>2019-08-17T16:03:03Z</time>
      </trkpt>
      <trkpt lat="47.16533" lon="5.7801">
        <ele>213.3</ele>
        <time>2019-08-17T16:03:04Z</time>
      </trkpt>
      <trkpt lat="47.16528" lon="5.78004">
        <ele>213.4</ele>
        <time>2019-08-17T16:03:05Z</time>
      </trkpt>
      <trkpt lat="47.16524" lon="5.77998">
        <ele>213.4</ele>
        <time>2019-08-17T16:03:06Z</time>
      </trkpt>
      <trkpt lat="47.16519" lon="5.77993">
        <ele>213.5</ele>
        <time>2019-08-17T16:03:07Z</time>
      </trkpt>
      <trkpt lat="47.16515" lon="5.77987">
        <ele>213.6</ele>
        <time>2019-08-17T16:03:08Z</time>
      </trkpt>
      <trkpt lat="47.16511" lon="5.77982">
        <ele>213.7</ele>
        <time>2019-08-17T16:03:09Z</time>
      </trkpt>
      <trkpt lat="47.16507" lon="5.77977">
        <ele>213.8</ele>
        <time>2019-08-17T16:03:10Z</time>
      </trkpt>
      <trkpt lat="47.16503" lon="5.77973">
        <ele>213.9</ele>
        <time>2019-08-17T16:03:11Z</time>
      </trkpt>
      <trkpt lat="47.16499" lon="5.77969">
        <ele>213.9</ele>
        <time>2019-08-17T16:03:12Z</time>
      </trkpt>
      <trkpt lat="47.16496" lon="5.77964">
        <ele>213.9</ele>
        <time>2019-08-17T16:03:13Z</time>
      </trkpt>
      <trkpt lat="47.16492" lon="5.77958">
        <ele>213.9</ele>
        <time>2019-08-17T16:03:14Z</time>
      </trkpt>
      <trkpt lat="47.16487" lon="5.77954">
        <ele>213.8</ele>
        <time>2019-08-17T16:03:15Z</time>
      </trkpt>
      <trkpt lat="47.16483" lon="5.77948">
        <ele>213.7</ele>
        <time>2019-08-17T16:03:16Z</time>
      </trkpt>
      <trkpt lat="47.16478" lon="5.77944">
        <ele>213.7</ele>
        <time>2019-08-17T16:03:17Z</time>
      </trkpt>
      <trkpt lat="47.16474" lon="5.7794">
        <ele>213.6</ele>
        <time>2019-08-17T16:03:18Z</time>
      </trkpt>
      <trkpt lat="47.16469" lon="5.77936">
        <ele>213.6</ele>
        <time>2019-08-17T16:03:19Z</time>
      </trkpt>
      <trkpt lat="47.16465" lon="5.77933">
        <ele>213.5</ele>
        <time>2019-08-17T16:03:20Z</time>
      </trkpt>
      <trkpt lat="47.1646" lon="5.7793">
        <ele>213.5</ele>
        <time>2019-08-17T16:03:21Z</time>
      </trkpt>
      <trkpt lat="47.16456" lon="5.77926">
        <ele>213.5</ele>
        <time>2019-08-17T16:03:22Z</time>
      </trkpt>
      <trkpt lat="47.16453" lon="5.77922">
        <ele>213.5</ele>
        <time>2019-08-17T16:03:23Z</time>
      </trkpt>
      <trkpt lat="47.16449" lon="5.77918">
        <ele>213.4</ele>
        <time>2019-08-17T16:03:24Z</time>
      </trkpt>
      <trkpt lat="47.16445" lon="5.77914">
        <ele>213.4</ele>
        <time>2019-08-17T16:03:25Z</time>
      </trkpt>
      <trkpt lat="47.16442" lon="5.7791">
        <ele>213.4</ele>
        <time>2019-08-17T16:03:26Z</time>
      </trkpt>
      <trkpt lat="47.16438" lon="5.77905">
        <ele>213.4</ele>
        <time>2019-08-17T16:03:27Z</time>
      </trkpt>
      <trkpt lat="47.16434" lon="5.77901">
        <ele>213.3</ele>
        <time>2019-08-17T16:03:28Z</time>
      </trkpt>
      <trkpt lat="47.16429" lon="5.77897">
        <ele>213.3</ele>
        <time>2019-08-17T16:03:29Z</time>
      </trkpt>
      <trkpt lat="47.16425" lon="5.77893">
        <ele>213.3</ele>
        <time>2019-08-17T16:03:30Z</time>
      </trkpt>
      <trkpt lat="47.16421" lon="5.77887">
        <ele>213.3</ele>
        <time>2019-08-17T16:03:31Z</time>
      </trkpt>
      <trkpt lat="47.16416" lon="5.77881">
        <ele>213.3</ele>
        <time>2019-08-17T16:03:32Z</time>
      </trkpt>
      <trkpt lat="47.16413" lon="5.77876">
        <ele>213.3</ele>
        <time>2019-08-17T16:03:33Z</time>
      </trkpt>
      <trkpt lat="47.16409" lon="5.77871">
        <ele>213.3</ele>
        <time>2019-08-17T16:03:34Z</time>
      </trkpt>
      <trkpt lat="47.16406" lon="5.77866">
        <ele>213.3</ele>
        <time>2019-08-17T16:03:35Z</time>
      </trkpt>
      <trkpt lat="47.16403" lon="5.77861">
        <ele>213.3</ele>
        <time>2019-08-17T16:03:36Z</time>
      </trkpt>
      <trkpt lat="47.164" lon="5.77855">
        <ele>213.3</ele>
        <time>2019-08-17T16:03:37Z</time>
      </trkpt>
      <trkpt lat="47.16396" lon="5.7785">
        <ele>213.4</ele>
        <time>2019-08-17T16:03:38Z</time>
      </trkpt>
      <trkpt lat="47.16393" lon="5.77845">
        <ele>213.4</ele>
        <time>2019-08-17T16:03:39Z</time>
      </trkpt>
      <trkpt lat="47.16389" lon="5.7784">
        <ele>213.4</ele>
        <time>2019-08-17T16:03:40Z</time>
      </trkpt>
      <trkpt lat="47.16385" lon="5.77833">
        <ele>213.4</ele>
        <time>2019-08-17T16:03:41Z</time>
      </trkpt>
      <trkpt lat="47.16382" lon="5.77827">
        <ele>213.5</ele>
        <time>2019-08-17T16:03:42Z</time>
      </trkpt>
      <trkpt lat="47.16379" lon="5.77822">
        <ele>213.5</ele>
        <time>2019-08-17T16:03:43Z</time>
      </trkpt>
      <trkpt lat="47.16374" lon="5.77817">
        <ele>213.6</ele>
        <time>2019-08-17T16:03:44Z</time>
      </trkpt>
      <trkpt lat="47.16371" lon="5.77812">
        <ele>213.6</ele>
        <time>2019-08-17T16:03:45Z</time>
      </trkpt>
      <trkpt lat="47.16368" lon="5.77808">
        <ele>213.6</ele>
        <time>2019-08-17T16:03:46Z</time>
      </trkpt>
      <trkpt lat="47.16364" lon="5.77802">
        <ele>213.7</ele>
        <time>2019-08-17T16:03:47Z</time>
      </trkpt>
      <trkpt lat="47.16361" lon="5.77796">
        <ele>213.7</ele>
        <time>2019-08-17T16:03:48Z</time>
      </trkpt>
      <trkpt lat="47.16358" lon="5.77791">
        <ele>213.7</ele>
        <time>2019-08-17T16:03:49Z</time>
      </trkpt>
      <trkpt lat="47.16354" lon="5.77785">
        <ele>213.7</ele>
        <time>2019-08-17T16:03:50Z</time>
      </trkpt>
      <trkpt lat="47.16352" lon="5.7778">
        <ele>213.7</ele>
        <time>2019-08-17T16:03:51Z</time>
      </trkpt>
      <trkpt lat="47.16349" lon="5.77776">
        <ele>213.7</ele>
        <time>2019-08-17T16:03:52Z</time>
      </trkpt>
      <trkpt lat="47.16346" lon="5.77772">
        <ele>213.7</ele>
        <time>2019-08-17T16:03:53Z</time>
      </trkpt>
      <trkpt lat="47.16344" lon="5.77768">
        <ele>213.7</ele>
        <time>2019-08-17T16:03:54Z</time>
      </trkpt>
      <trkpt lat="47.16341" lon="5.77763">
        <ele>213.7</ele>
        <time>2019-08-17T16:03:55Z</time>
      </trkpt>
      <trkpt lat="47.16338" lon="5.77758">
        <ele>213.7</ele>
        <time>2019-08-17T16:03:56Z</time>
      </trkpt>
      <trkpt lat="47.16336" lon="5.77753">
        <ele>213.7</ele>
        <time>2019-08-17T16:03:57Z</time>
      </trkpt>
      <trkpt lat="47.16334" lon="5.77747">
        <ele>213.7</ele>
        <time>2019-08-17T16:03:58Z</time>
      </trkpt>
      <trkpt lat="47.16331" lon="5.77741">
        <ele>213.7</ele>
        <time>2019-08-17T16:03:59Z</time>
      </trkpt>
      <trkpt lat="47.16329" lon="5.77735">
        <ele>213.7</ele>
        <time>2019-08-17T16:04:00Z</time>
      </trkpt>
      <trkpt lat="47.16326" lon="5.77729">
        <ele>213.7</ele>
        <time>2019-08-17T16:04:01Z</time>
      </trkpt>
      <trkpt lat="47.16324" lon="5.77723">
        <ele>213.7</ele>
        <time>2019-08-17T16:04:02Z</time>
      </trkpt>
      <trkpt lat="47.16321" lon="5.77717">
        <ele>213.7</ele>
        <time>2019-08-17T16:04:03Z</time>
      </trkpt>
      <trkpt lat="47.16319" lon="5.77711">
        <ele>213.6</ele>
        <time>2019-08-17T16:04:04Z</time>
      </trkpt>
      <trkpt lat="47.16316" lon="5.77705">
        <ele>213.5</ele>
        <time>2019-08-17T16:04:05Z</time>
      </trkpt>
      <trkpt lat="47.16314" lon="5.77698">
        <ele>213.5</ele>
        <time>2019-08-17T16:04:06Z</time>
      </trkpt>
      <trkpt lat="47.16312" lon="5.77692">
        <ele>213.4</ele>
        <time>2019-08-17T16:04:07Z</time>
      </trkpt>
      <trkpt lat="47.1631" lon="5.77687">
        <ele>213.4</ele>
        <time>2019-08-17T16:04:08Z</time>
      </trkpt>
      <trkpt lat="47.16308" lon="5.77681">
        <ele>213.3</ele>
        <time>2019-08-17T16:04:09Z</time>
      </trkpt>
      <trkpt lat="47.16306" lon="5.77674">
        <ele>213.3</ele>
        <time>2019-08-17T16:04:10Z</time>
      </trkpt>
      <trkpt lat="47.16303" lon="5.77668">
        <ele>213.2</ele>
        <time>2019-08-17T16:04:11Z</time>
      </trkpt>
      <trkpt lat="47.16302" lon="5.77662">
        <ele>213.2</ele>
        <time>2019-08-17T16:04:12Z</time>
      </trkpt>
      <trkpt lat="47.163" lon="5.77656">
        <ele>213.2</ele>
        <time>2019-08-17T16:04:13Z</time>
      </trkpt>
      <trkpt lat="47.16298" lon="5.7765">
        <ele>213.2</ele>
        <time>2019-08-17T16:04:14Z</time>
      </trkpt>
      <trkpt lat="47.16297" lon="5.77643">
        <ele>213.2</ele>
        <time>2019-08-17T16:04:15Z</time>
      </trkpt>
      <trkpt lat="47.16294" lon="5.77636">
        <ele>213.2</ele>
        <time>2019-08-17T16:04:16Z</time>
      </trkpt>
      <trkpt lat="47.16292" lon="5.77628">
        <ele>213.2</ele>
        <time>2019-08-17T16:04:17Z</time>
      </trkpt>
      <trkpt lat="47.1629" lon="5.77621">
        <ele>213.2</ele>
        <time>2019-08-17T16:04:18Z</time>
      </trkpt>
      <trkpt lat="47.16287" lon="5.77614">
        <ele>213.3</ele>
        <time>2019-08-17T16:04:19Z</time>
      </trkpt>
      <trkpt lat="47.16284" lon="5.77607">
        <ele>213.3</ele>
        <time>2019-08-17T16:04:20Z</time>
      </trkpt>
      <trkpt lat="47.16281" lon="5.77599">
        <ele>213.4</ele>
        <time>2019-08-17T16:04:21Z</time>
      </trkpt>
      <trkpt lat="47.16278" lon="5.77592">
        <ele>213.5</ele>
        <time>2019-08-17T16:04:22Z</time>
      </trkpt>
      <trkpt lat="47.16276" lon="5.77585">
        <ele>213.5</ele>
        <time>2019-08-17T16:04:23Z</time>
      </trkpt>
      <trkpt lat="47.16275" lon="5.77579">
        <ele>213.6</ele>
        <time>2019-08-17T16:04:24Z</time>
      </trkpt>
      <trkpt lat="47.16273" lon="5.77574">
        <ele>213.6</ele>
        <time>2019-08-17T16:04:25Z</time>
      </trkpt>
      <trkpt lat="47.16271" lon="5.77569">
        <ele>213.6</ele>
        <time>2019-08-17T16:04:26Z</time>
      </trkpt>
      <trkpt lat="47.16269" lon="5.77563">
        <ele>213.6</ele>
        <time>2019-08-17T16:04:27Z</time>
      </trkpt>
      <trkpt lat="47.16267" lon="5.77556">
        <ele>213.6</ele>
        <time>2019-08-17T16:04:28Z</time>
      </trkpt>
      <trkpt lat="47.16264" lon="5.77549">
        <ele>213.5</ele>
        <time>2019-08-17T16:04:29Z</time>
      </trkpt>
      <trkpt lat="47.16262" lon="5.77543">
        <ele>213.5</ele>
        <time>2019-08-17T16:04:30Z</time>
      </trkpt>
      <trkpt lat="47.1626" lon="5.77536">
        <ele>213.5</ele>
        <time>2019-08-17T16:04:31Z</time>
      </trkpt>
      <trkpt lat="47.16258" lon="5.7753">
        <ele>213.4</ele>
        <time>2019-08-17T16:04:32Z</time>
      </trkpt>
      <trkpt lat="47.16257" lon="5.77523">
        <ele>213.3</ele>
        <time>2019-08-17T16:04:33Z</time>
      </trkpt>
      <trkpt lat="47.16255" lon="5.77518">
        <ele>213.3</ele>
        <time>2019-08-17T16:04:34Z</time>
      </trkpt>
      <trkpt lat="47.16254" lon="5.77512">
        <ele>213.2</ele>
        <time>2019-08-17T16:04:35Z</time>
      </trkpt>
      <trkpt lat="47.16253" lon="5.77506">
        <ele>213.2</ele>
        <time>2019-08-17T16:04:36Z</time>
      </trkpt>
      <trkpt lat="47.16251" lon="5.775">
        <ele>213.1</ele>
        <time>2019-08-17T16:04:37Z</time>
      </trkpt>
      <trkpt lat="47.16249" lon="5.77493">
        <ele>213.1</ele>
        <time>2019-08-17T16:04:38Z</time>
      </trkpt>
      <trkpt lat="47.16248" lon="5.77486">
        <ele>213</ele>
        <time>2019-08-17T16:04:39Z</time>
      </trkpt>
      <trkpt lat="47.16246" lon="5.77479">
        <ele>212.9</ele>
        <time>2019-08-17T16:04:40Z</time>
      </trkpt>
      <trkpt lat="47.16244" lon="5.77472">
        <ele>212.9</ele>
        <time>2019-08-17T16:04:41Z</time>
      </trkpt>
      <trkpt lat="47.16242" lon="5.77464">
        <ele>212.9</ele>
        <time>2019-08-17T16:04:42Z</time>
      </trkpt>
      <trkpt lat="47.16239" lon="5.77457">
        <ele>212.9</ele>
        <time>2019-08-17T16:04:43Z</time>
      </trkpt>
      <trkpt lat="47.16237" lon="5.77449">
        <ele>212.9</ele>
        <time>2019-08-17T16:04:44Z</time>
      </trkpt>
      <trkpt lat="47.16234" lon="5.77442">
        <ele>212.9</ele>
        <time>2019-08-17T16:04:45Z</time>
      </trkpt>
      <trkpt lat="47.16233" lon="5.77435">
        <ele>213</ele>
        <time>2019-08-17T16:04:46Z</time>
      </trkpt>
      <trkpt lat="47.16229" lon="5.77425">
        <ele>213</ele>
        <time>2019-08-17T16:04:47Z</time>
      </trkpt>
      <trkpt lat="47.16227" lon="5.77419">
        <ele>213.1</ele>
        <time>2019-08-17T16:04:48Z</time>
      </trkpt>
      <trkpt lat="47.16224" lon="5.77412">
        <ele>213.1</ele>
        <time>2019-08-17T16:04:49Z</time>
      </trkpt>
      <trkpt lat="47.16222" lon="5.77406">
        <ele>213.1</ele>
        <time>2019-08-17T16:04:50Z</time>
      </trkpt>
      <trkpt lat="47.1622" lon="5.774">
        <ele>213.1</ele>
        <time>2019-08-17T16:04:51Z</time>
      </trkpt>
      <trkpt lat="47.16217" lon="5.77394">
        <ele>213.1</ele>
        <time>2019-08-17T16:04:52Z</time>
      </trkpt>
      <trkpt lat="47.16215" lon="5.77387">
        <ele>213</ele>
        <time>2019-08-17T16:04:53Z</time>
      </trkpt>
      <trkpt lat="47.16212" lon="5.77381">
        <ele>213</ele>
        <time>2019-08-17T16:04:54Z</time>
      </trkpt>
      <trkpt lat="47.1621" lon="5.77374">
        <ele>213</ele>
        <time>2019-08-17T16:04:55Z</time>
      </trkpt>
      <trkpt lat="47.16208" lon="5.77368">
        <ele>212.9</ele>
        <time>2019-08-17T16:04:56Z</time>
      </trkpt>
      <trkpt lat="47.16205" lon="5.77361">
        <ele>212.9</ele>
        <time>2019-08-17T16:04:57Z</time>
      </trkpt>
      <trkpt lat="47.16204" lon="5.77355">
        <ele>212.9</ele>
        <time>2019-08-17T16:04:58Z</time>
      </trkpt>
      <trkpt lat="47.16202" lon="5.77348">
        <ele>212.9</ele>
        <time>2019-08-17T16:04:59Z</time>
      </trkpt>
      <trkpt lat="47.162" lon="5.77341">
        <ele>212.8</ele>
        <time>2019-08-17T16:05:00Z</time>
      </trkpt>
      <trkpt lat="47.16198" lon="5.77334">
        <ele>212.8</ele>
        <time>2019-08-17T16:05:01Z</time>
      </trkpt>
      <trkpt lat="47.16196" lon="5.77327">
        <ele>212.8</ele>
        <time>2019-08-17T16:05:02Z</time>
      </trkpt>
      <trkpt lat="47.16193" lon="5.7732">
        <ele>212.8</ele>
        <time>2019-08-17T16:05:03Z</time>
      </trkpt>
      <trkpt lat="47.16192" lon="5.77313">
        <ele>212.8</ele>
        <time>2019-08-17T16:05:04Z</time>
      </trkpt>
      <trkpt lat="47.16189" lon="5.77305">
        <ele>212.7</ele>
        <time>2019-08-17T16:05:05Z</time>
      </trkpt>
      <trkpt lat="47.16187" lon="5.77298">
        <ele>212.7</ele>
        <time>2019-08-17T16:05:06Z</time>
      </trkpt>
      <trkpt lat="47.16185" lon="5.77291">
        <ele>212.7</ele>
        <time>2019-08-17T16:05:07Z</time>
      </trkpt>
      <trkpt lat="47.16182" lon="5.77283">
        <ele>212.8</ele>
        <time>2019-08-17T16:05:08Z</time>
      </trkpt>
      <trkpt lat="47.1618" lon="5.77278">
        <ele>212.8</ele>
        <time>2019-08-17T16:05:09Z</time>
      </trkpt>
      <trkpt lat="47.16177" lon="5.7727">
        <ele>212.8</ele>
        <time>2019-08-17T16:05:10Z</time>
      </trkpt>
      <trkpt lat="47.16175" lon="5.77263">
        <ele>212.8</ele>
        <time>2019-08-17T16:05:11Z</time>
      </trkpt>
      <trkpt lat="47.16173" lon="5.77257">
        <ele>212.8</ele>
        <time>2019-08-17T16:05:12Z</time>
      </trkpt>
      <trkpt lat="47.16171" lon="5.77251">
        <ele>212.8</ele>
        <time>2019-08-17T16:05:13Z</time>
      </trkpt>
      <trkpt lat="47.16169" lon="5.77244">
        <ele>212.8</ele>
        <time>2019-08-17T16:05:14Z</time>
      </trkpt>
      <trkpt lat="47.16167" lon="5.77238">
        <ele>212.8</ele>
        <time>2019-08-17T16:05:15Z</time>
      </trkpt>
      <trkpt lat="47.16165" lon="5.77232">
        <ele>212.9</ele>
        <time>2019-08-17T16:05:16Z</time>
      </trkpt>
      <trkpt lat="47.16163" lon="5.77225">
        <ele>212.9</ele>
        <time>2019-08-17T16:05:17Z</time>
      </trkpt>
      <trkpt lat="47.16162" lon="5.77218">
        <ele>212.9</ele>
        <time>2019-08-17T16:05:18Z</time>
      </trkpt>
      <trkpt lat="47.1616" lon="5.77211">
        <ele>213</ele>
        <time>2019-08-17T16:05:19Z</time>
      </trkpt>
      <trkpt lat="47.16158" lon="5.77203">
        <ele>213</ele>
        <time>2019-08-17T16:05:20Z</time>
      </trkpt>
      <trkpt lat="47.16157" lon="5.77196">
        <ele>213</ele>
        <time>2019-08-17T16:05:21Z</time>
      </trkpt>
      <trkpt lat="47.16155" lon="5.77189">
        <ele>213</ele>
        <time>2019-08-17T16:05:22Z</time>
      </trkpt>
      <trkpt lat="47.16153" lon="5.77182">
        <ele>213</ele>
        <time>2019-08-17T16:05:23Z</time>
      </trkpt>
      <trkpt lat="47.16152" lon="5.77175">
        <ele>213</ele>
        <time>2019-08-17T16:05:24Z</time>
      </trkpt>
      <trkpt lat="47.1615" lon="5.77168">
        <ele>212.9</ele>
        <time>2019-08-17T16:05:25Z</time>
      </trkpt>
      <trkpt lat="47.16148" lon="5.7716">
        <ele>212.9</ele>
        <time>2019-08-17T16:05:26Z</time>
      </trkpt>
      <trkpt lat="47.16147" lon="5.77153">
        <ele>212.8</ele>
        <time>2019-08-17T16:05:27Z</time>
      </trkpt>
      <trkpt lat="47.16146" lon="5.77146">
        <ele>212.7</ele>
        <time>2019-08-17T16:05:28Z</time>
      </trkpt>
      <trkpt lat="47.16144" lon="5.77137">
        <ele>212.7</ele>
        <time>2019-08-17T16:05:29Z</time>
      </trkpt>
      <trkpt lat="47.16143" lon="5.77129">
        <ele>212.6</ele>
        <time>2019-08-17T16:05:30Z</time>
      </trkpt>
      <trkpt lat="47.16141" lon="5.77122">
        <ele>212.6</ele>
        <time>2019-08-17T16:05:31Z</time>
      </trkpt>
      <trkpt lat="47.16139" lon="5.77114">
        <ele>212.6</ele>
        <time>2019-08-17T16:05:32Z</time>
      </trkpt>
      <trkpt lat="47.16137" lon="5.77108">
        <ele>212.6</ele>
        <time>2019-08-17T16:05:33Z</time>
      </trkpt>
      <trkpt lat="47.16135" lon="5.77102">
        <ele>212.7</ele>
        <time>2019-08-17T16:05:34Z</time>
      </trkpt>
      <trkpt lat="47.16132" lon="5.77095">
        <ele>212.7</ele>
        <time>2019-08-17T16:05:35Z</time>
      </trkpt>
      <trkpt lat="47.1613" lon="5.77089">
        <ele>212.8</ele>
        <time>2019-08-17T16:05:36Z</time>
      </trkpt>
      <trkpt lat="47.16128" lon="5.77081">
        <ele>212.8</ele>
        <time>2019-08-17T16:05:37Z</time>
      </trkpt>
      <trkpt lat="47.16127" lon="5.77073">
        <ele>212.8</ele>
        <time>2019-08-17T16:05:38Z</time>
      </trkpt>
      <trkpt lat="47.16125" lon="5.77066">
        <ele>212.9</ele>
        <time>2019-08-17T16:05:39Z</time>
      </trkpt>
      <trkpt lat="47.16123" lon="5.77056">
        <ele>212.9</ele>
        <time>2019-08-17T16:05:40Z</time>
      </trkpt>
      <trkpt lat="47.16121" lon="5.77049">
        <ele>212.9</ele>
        <time>2019-08-17T16:05:41Z</time>
      </trkpt>
      <trkpt lat="47.1612" lon="5.77043">
        <ele>212.9</ele>
        <time>2019-08-17T16:05:42Z</time>
      </trkpt>
      <trkpt lat="47.16119" lon="5.77037">
        <ele>212.9</ele>
        <time>2019-08-17T16:05:43Z</time>
      </trkpt>
      <trkpt lat="47.16118" lon="5.77031">
        <ele>212.9</ele>
        <time>2019-08-17T16:05:44Z</time>
      </trkpt>
      <trkpt lat="47.16118" lon="5.77025">
        <ele>212.9</ele>
        <time>2019-08-17T16:05:45Z</time>
      </trkpt>
      <trkpt lat="47.16117" lon="5.7702">
        <ele>212.9</ele>
        <time>2019-08-17T16:05:46Z</time>
      </trkpt>
      <trkpt lat="47.16116" lon="5.77014">
        <ele>212.9</ele>
        <time>2019-08-17T16:05:47Z</time>
      </trkpt>
      <trkpt lat="47.16115" lon="5.77008">
        <ele>212.9</ele>
        <time>2019-08-17T16:05:48Z</time>
      </trkpt>
      <trkpt lat="47.16113" lon="5.77001">
        <ele>212.9</ele>
        <time>2019-08-17T16:05:49Z</time>
      </trkpt>
      <trkpt lat="47.1611" lon="5.76993">
        <ele>213</ele>
        <time>2019-08-17T16:05:50Z</time>
      </trkpt>
      <trkpt lat="47.16108" lon="5.76986">
        <ele>213</ele>
        <time>2019-08-17T16:05:51Z</time>
      </trkpt>
      <trkpt lat="47.16107" lon="5.76979">
        <ele>213</ele>
        <time>2019-08-17T16:05:52Z</time>
      </trkpt>
      <trkpt lat="47.16106" lon="5.76972">
        <ele>213</ele>
        <time>2019-08-17T16:05:53Z</time>
      </trkpt>
      <trkpt lat="47.16104" lon="5.76964">
        <ele>213.1</ele>
        <time>2019-08-17T16:05:54Z</time>
      </trkpt>
      <trkpt lat="47.16103" lon="5.76957">
        <ele>213.1</ele>
        <time>2019-08-17T16:05:55Z</time>
      </trkpt>
      <trkpt lat="47.16102" lon="5.76951">
        <ele>213.2</ele>
        <time>2019-08-17T16:05:56Z</time>
      </trkpt>
      <trkpt lat="47.16101" lon="5.76946">
        <ele>213.3</ele>
        <time>2019-08-17T16:05:57Z</time>
      </trkpt>
      <trkpt lat="47.161" lon="5.76941">
        <ele>213.4</ele>
        <time>2019-08-17T16:05:58Z</time>
      </trkpt>
      <trkpt lat="47.16099" lon="5.76936">
        <ele>213.5</ele>
        <time>2019-08-17T16:05:59Z</time>
      </trkpt>
      <trkpt lat="47.16097" lon="5.7693">
        <ele>213.6</ele>
        <time>2019-08-17T16:06:00Z</time>
      </trkpt>
      <trkpt lat="47.16096" lon="5.76923">
        <ele>213.7</ele>
        <time>2019-08-17T16:06:01Z</time>
      </trkpt>
      <trkpt lat="47.16095" lon="5.76916">
        <ele>213.8</ele>
        <time>2019-08-17T16:06:02Z</time>
      </trkpt>
      <trkpt lat="47.16094" lon="5.7691">
        <ele>213.8</ele>
        <time>2019-08-17T16:06:03Z</time>
      </trkpt>
      <trkpt lat="47.16092" lon="5.76904">
        <ele>213.8</ele>
        <time>2019-08-17T16:06:04Z</time>
      </trkpt>
      <trkpt lat="47.1609" lon="5.76899">
        <ele>213.7</ele>
        <time>2019-08-17T16:06:05Z</time>
      </trkpt>
      <trkpt lat="47.16088" lon="5.76893">
        <ele>213.6</ele>
        <time>2019-08-17T16:06:06Z</time>
      </trkpt>
      <trkpt lat="47.16085" lon="5.76889">
        <ele>213.5</ele>
        <time>2019-08-17T16:06:07Z</time>
      </trkpt>
      <trkpt lat="47.16083" lon="5.76885">
        <ele>213.4</ele>
        <time>2019-08-17T16:06:08Z</time>
      </trkpt>
      <trkpt lat="47.1608" lon="5.76882">
        <ele>213.2</ele>
        <time>2019-08-17T16:06:09Z</time>
      </trkpt>
      <trkpt lat="47.16078" lon="5.76878">
        <ele>213.1</ele>
        <time>2019-08-17T16:06:10Z</time>
      </trkpt>
      <trkpt lat="47.16075" lon="5.76874">
        <ele>213</ele>
        <time>2019-08-17T16:06:11Z</time>
      </trkpt>
      <trkpt lat="47.16073" lon="5.76869">
        <ele>212.8</ele>
        <time>2019-08-17T16:06:12Z</time>
      </trkpt>
      <trkpt lat="47.1607" lon="5.76864">
        <ele>212.8</ele>
        <time>2019-08-17T16:06:13Z</time>
      </trkpt>
      <trkpt lat="47.16067" lon="5.76859">
        <ele>212.7</ele>
        <time>2019-08-17T16:06:14Z</time>
      </trkpt>
      <trkpt lat="47.16064" lon="5.76855">
        <ele>212.7</ele>
        <time>2019-08-17T16:06:15Z</time>
      </trkpt>
      <trkpt lat="47.16061" lon="5.76851">
        <ele>212.6</ele>
        <time>2019-08-17T16:06:16Z</time>
      </trkpt>
      <trkpt lat="47.16058" lon="5.76847">
        <ele>212.6</ele>
        <time>2019-08-17T16:06:17Z</time>
      </trkpt>
      <trkpt lat="47.16055" lon="5.76843">
        <ele>212.7</ele>
        <time>2019-08-17T16:06:18Z</time>
      </trkpt>
      <trkpt lat="47.16052" lon="5.76839">
        <ele>212.7</ele>
        <time>2019-08-17T16:06:19Z</time>
      </trkpt>
      <trkpt lat="47.16049" lon="5.76835">
        <ele>212.8</ele>
        <time>2019-08-17T16:06:20Z</time>
      </trkpt>
      <trkpt lat="47.16046" lon="5.76831">
        <ele>212.8</ele>
        <time>2019-08-17T16:06:21Z</time>
      </trkpt>
      <trkpt lat="47.16043" lon="5.76826">
        <ele>212.8</ele>
        <time>2019-08-17T16:06:22Z</time>
      </trkpt>
      <trkpt lat="47.1604" lon="5.76823">
        <ele>212.9</ele>
        <time>2019-08-17T16:06:23Z</time>
      </trkpt>
      <trkpt lat="47.16038" lon="5.7682">
        <ele>212.9</ele>
        <time>2019-08-17T16:06:24Z</time>
      </trkpt>
      <trkpt lat="47.16035" lon="5.76817">
        <ele>213</ele>
        <time>2019-08-17T16:06:25Z</time>
      </trkpt>
      <trkpt lat="47.16031" lon="5.76812">
        <ele>213</ele>
        <time>2019-08-17T16:06:26Z</time>
      </trkpt>
      <trkpt lat="47.16029" lon="5.76809">
        <ele>213.1</ele>
        <time>2019-08-17T16:06:27Z</time>
      </trkpt>
      <trkpt lat="47.16025" lon="5.76804">
        <ele>213.1</ele>
        <time>2019-08-17T16:06:28Z</time>
      </trkpt>
      <trkpt lat="47.16022" lon="5.76798">
        <ele>213.1</ele>
        <time>2019-08-17T16:06:29Z</time>
      </trkpt>
      <trkpt lat="47.16018" lon="5.76792">
        <ele>213.1</ele>
        <time>2019-08-17T16:06:30Z</time>
      </trkpt>
      <trkpt lat="47.16014" lon="5.76787">
        <ele>213.1</ele>
        <time>2019-08-17T16:06:31Z</time>
      </trkpt>
      <trkpt lat="47.16011" lon="5.76782">
        <ele>213.1</ele>
        <time>2019-08-17T16:06:32Z</time>
      </trkpt>
      <trkpt lat="47.16009" lon="5.76776">
        <ele>213.1</ele>
        <time>2019-08-17T16:06:33Z</time>
      </trkpt>
      <trkpt lat="47.16007" lon="5.7677">
        <ele>213.1</ele>
        <time>2019-08-17T16:06:34Z</time>
      </trkpt>
      <trkpt lat="47.16003" lon="5.76766">
        <ele>213.1</ele>
        <time>2019-08-17T16:06:35Z</time>
      </trkpt>
      <trkpt lat="47.16001" lon="5.76759">
        <ele>213</ele>
        <time>2019-08-17T16:06:36Z</time>
      </trkpt>
      <trkpt lat="47.15999" lon="5.76753">
        <ele>213</ele>
        <time>2019-08-17T16:06:37Z</time>
      </trkpt>
      <trkpt lat="47.15997" lon="5.76745">
        <ele>212.9</ele>
        <time>2019-08-17T16:06:38Z</time>
      </trkpt>
      <trkpt lat="47.15994" lon="5.76738">
        <ele>212.9</ele>
        <time>2019-08-17T16:06:39Z</time>
      </trkpt>
      <trkpt lat="47.15991" lon="5.76731">
        <ele>212.9</ele>
        <time>2019-08-17T16:06:40Z</time>
      </trkpt>
      <trkpt lat="47.15989" lon="5.76724">
        <ele>212.8</ele>
        <time>2019-08-17T16:06:41Z</time>
      </trkpt>
      <trkpt lat="47.15987" lon="5.76717">
        <ele>212.8</ele>
        <time>2019-08-17T16:06:42Z</time>
      </trkpt>
      <trkpt lat="47.15985" lon="5.76709">
        <ele>212.8</ele>
        <time>2019-08-17T16:06:43Z</time>
      </trkpt>
      <trkpt lat="47.15982" lon="5.76703">
        <ele>212.8</ele>
        <time>2019-08-17T16:06:44Z</time>
      </trkpt>
      <trkpt lat="47.15979" lon="5.76696">
        <ele>212.8</ele>
        <time>2019-08-17T16:06:45Z</time>
      </trkpt>
      <trkpt lat="47.15976" lon="5.76691">
        <ele>212.9</ele>
        <time>2019-08-17T16:06:46Z</time>
      </trkpt>
      <trkpt lat="47.15973" lon="5.76686">
        <ele>212.9</ele>
        <time>2019-08-17T16:06:47Z</time>
      </trkpt>
      <trkpt lat="47.1597" lon="5.76682">
        <ele>212.9</ele>
        <time>2019-08-17T16:06:48Z</time>
      </trkpt>
      <trkpt lat="47.15968" lon="5.76678">
        <ele>212.9</ele>
        <time>2019-08-17T16:06:49Z</time>
      </trkpt>
      <trkpt lat="47.15966" lon="5.76674">
        <ele>212.9</ele>
        <time>2019-08-17T16:06:50Z</time>
      </trkpt>
      <trkpt lat="47.15964" lon="5.76667">
        <ele>212.9</ele>
        <time>2019-08-17T16:06:51Z</time>
      </trkpt>
      <trkpt lat="47.15962" lon="5.76661">
        <ele>212.9</ele>
        <time>2019-08-17T16:06:52Z</time>
      </trkpt>
      <trkpt lat="47.1596" lon="5.76654">
        <ele>212.8</ele>
        <time>2019-08-17T16:06:53Z</time>
      </trkpt>
      <trkpt lat="47.15958" lon="5.76647">
        <ele>212.8</ele>
        <time>2019-08-17T16:06:54Z</time>
      </trkpt>
      <trkpt lat="47.15957" lon="5.76641">
        <ele>212.7</ele>
        <time>2019-08-17T16:06:55Z</time>
      </trkpt>
      <trkpt lat="47.15955" lon="5.76635">
        <ele>212.7</ele>
        <time>2019-08-17T16:06:56Z</time>
      </trkpt>
      <trkpt lat="47.15954" lon="5.76629">
        <ele>212.6</ele>
        <time>2019-08-17T16:06:57Z</time>
      </trkpt>
      <trkpt lat="47.15952" lon="5.76624">
        <ele>212.6</ele>
        <time>2019-08-17T16:06:58Z</time>
      </trkpt>
      <trkpt lat="47.1595" lon="5.76618">
        <ele>212.6</ele>
        <time>2019-08-17T16:06:59Z</time>
      </trkpt>
      <trkpt lat="47.15948" lon="5.76613">
        <ele>212.6</ele>
        <time>2019-08-17T16:07:00Z</time>
      </trkpt>
      <trkpt lat="47.15946" lon="5.76608">
        <ele>212.6</ele>
        <time>2019-08-17T16:07:01Z</time>
      </trkpt>
      <trkpt lat="47.15944" lon="5.76602">
        <ele>212.7</ele>
        <time>2019-08-17T16:07:02Z</time>
      </trkpt>
      <trkpt lat="47.15942" lon="5.76596">
        <ele>212.7</ele>
        <time>2019-08-17T16:07:03Z</time>
      </trkpt>
      <trkpt lat="47.1594" lon="5.7659">
        <ele>212.8</ele>
        <time>2019-08-17T16:07:04Z</time>
      </trkpt>
      <trkpt lat="47.15939" lon="5.76584">
        <ele>212.9</ele>
        <time>2019-08-17T16:07:05Z</time>
      </trkpt>
      <trkpt lat="47.15937" lon="5.76578">
        <ele>212.9</ele>
        <time>2019-08-17T16:07:06Z</time>
      </trkpt>
      <trkpt lat="47.15936" lon="5.76572">
        <ele>213</ele>
        <time>2019-08-17T16:07:07Z</time>
      </trkpt>
      <trkpt lat="47.15934" lon="5.76566">
        <ele>213.1</ele>
        <time>2019-08-17T16:07:08Z</time>
      </trkpt>
      <trkpt lat="47.15932" lon="5.7656">
        <ele>213.1</ele>
        <time>2019-08-17T16:07:09Z</time>
      </trkpt>
      <trkpt lat="47.1593" lon="5.76554">
        <ele>213.2</ele>
        <time>2019-08-17T16:07:10Z</time>
      </trkpt>
      <trkpt lat="47.15928" lon="5.76547">
        <ele>213.2</ele>
        <time>2019-08-17T16:07:11Z</time>
      </trkpt>
      <trkpt lat="47.15926" lon="5.7654">
        <ele>213.1</ele>
        <time>2019-08-17T16:07:12Z</time>
      </trkpt>
      <trkpt lat="47.15925" lon="5.76534">
        <ele>213</ele>
        <time>2019-08-17T16:07:13Z</time>
      </trkpt>
      <trkpt lat="47.15923" lon="5.76527">
        <ele>213</ele>
        <time>2019-08-17T16:07:14Z</time>
      </trkpt>
      <trkpt lat="47.15921" lon="5.76521">
        <ele>212.9</ele>
        <time>2019-08-17T16:07:15Z</time>
      </trkpt>
      <trkpt lat="47.1592" lon="5.76515">
        <ele>212.8</ele>
        <time>2019-08-17T16:07:16Z</time>
      </trkpt>
      <trkpt lat="47.15918" lon="5.76507">
        <ele>212.7</ele>
        <time>2019-08-17T16:07:17Z</time>
      </trkpt>
      <trkpt lat="47.15916" lon="5.765">
        <ele>212.6</ele>
        <time>2019-08-17T16:07:18Z</time>
      </trkpt>
      <trkpt lat="47.15914" lon="5.76494">
        <ele>212.6</ele>
        <time>2019-08-17T16:07:19Z</time>
      </trkpt>
      <trkpt lat="47.15913" lon="5.76488">
        <ele>212.6</ele>
        <time>2019-08-17T16:07:20Z</time>
      </trkpt>
      <trkpt lat="47.15912" lon="5.76482">
        <ele>212.6</ele>
        <time>2019-08-17T16:07:21Z</time>
      </trkpt>
      <trkpt lat="47.1591" lon="5.76476">
        <ele>212.7</ele>
        <time>2019-08-17T16:07:22Z</time>
      </trkpt>
      <trkpt lat="47.15908" lon="5.7647">
        <ele>212.7</ele>
        <time>2019-08-17T16:07:23Z</time>
      </trkpt>
      <trkpt lat="47.15906" lon="5.76463">
        <ele>212.8</ele>
        <time>2019-08-17T16:07:24Z</time>
      </trkpt>
      <trkpt lat="47.15904" lon="5.76457">
        <ele>212.9</ele>
        <time>2019-08-17T16:07:25Z</time>
      </trkpt>
      <trkpt lat="47.15902" lon="5.76451">
        <ele>212.9</ele>
        <time>2019-08-17T16:07:26Z</time>
      </trkpt>
      <trkpt lat="47.15899" lon="5.76444">
        <ele>213</ele>
        <time>2019-08-17T16:07:27Z</time>
      </trkpt>
      <trkpt lat="47.15897" lon="5.76438">
        <ele>213</ele>
        <time>2019-08-17T16:07:28Z</time>
      </trkpt>
      <trkpt lat="47.15895" lon="5.76431">
        <ele>213</ele>
        <time>2019-08-17T16:07:29Z</time>
      </trkpt>
      <trkpt lat="47.15892" lon="5.76423">
        <ele>213</ele>
        <time>2019-08-17T16:07:30Z</time>
      </trkpt>
      <trkpt lat="47.1589" lon="5.76414">
        <ele>213</ele>
        <time>2019-08-17T16:07:31Z</time>
      </trkpt>
      <trkpt lat="47.15888" lon="5.76408">
        <ele>213.1</ele>
        <time>2019-08-17T16:07:32Z</time>
      </trkpt>
      <trkpt lat="47.15887" lon="5.76402">
        <ele>213.1</ele>
        <time>2019-08-17T16:07:33Z</time>
      </trkpt>
      <trkpt lat="47.15885" lon="5.76397">
        <ele>213.2</ele>
        <time>2019-08-17T16:07:34Z</time>
      </trkpt>
      <trkpt lat="47.15884" lon="5.76391">
        <ele>213.2</ele>
        <time>2019-08-17T16:07:35Z</time>
      </trkpt>
      <trkpt lat="47.15882" lon="5.76386">
        <ele>213.3</ele>
        <time>2019-08-17T16:07:36Z</time>
      </trkpt>
      <trkpt lat="47.15881" lon="5.76378">
        <ele>213.4</ele>
        <time>2019-08-17T16:07:37Z</time>
      </trkpt>
      <trkpt lat="47.15878" lon="5.76371">
        <ele>213.4</ele>
        <time>2019-08-17T16:07:38Z</time>
      </trkpt>
      <trkpt lat="47.15876" lon="5.76364">
        <ele>213.4</ele>
        <time>2019-08-17T16:07:39Z</time>
      </trkpt>
      <trkpt lat="47.15874" lon="5.76356">
        <ele>213.5</ele>
        <time>2019-08-17T16:07:40Z</time>
      </trkpt>
      <trkpt lat="47.15872" lon="5.76349">
        <ele>213.4</ele>
        <time>2019-08-17T16:07:41Z</time>
      </trkpt>
      <trkpt lat="47.15871" lon="5.76342">
        <ele>213.4</ele>
        <time>2019-08-17T16:07:42Z</time>
      </trkpt>
      <trkpt lat="47.15869" lon="5.76335">
        <ele>213.4</ele>
        <time>2019-08-17T16:07:43Z</time>
      </trkpt>
      <trkpt lat="47.15867" lon="5.76328">
        <ele>213.4</ele>
        <time>2019-08-17T16:07:44Z</time>
      </trkpt>
      <trkpt lat="47.15865" lon="5.7632">
        <ele>213.3</ele>
        <time>2019-08-17T16:07:45Z</time>
      </trkpt>
      <trkpt lat="47.15861" lon="5.76312">
        <ele>213.3</ele>
        <time>2019-08-17T16:07:46Z</time>
      </trkpt>
      <trkpt lat="47.15859" lon="5.76305">
        <ele>213.3</ele>
        <time>2019-08-17T16:07:47Z</time>
      </trkpt>
      <trkpt lat="47.15857" lon="5.763">
        <ele>213.3</ele>
        <time>2019-08-17T16:07:48Z</time>
      </trkpt>
      <trkpt lat="47.15854" lon="5.76295">
        <ele>213.3</ele>
        <time>2019-08-17T16:07:49Z</time>
      </trkpt>
      <trkpt lat="47.15851" lon="5.7629">
        <ele>213.3</ele>
        <time>2019-08-17T16:07:50Z</time>
      </trkpt>
      <trkpt lat="47.15849" lon="5.76284">
        <ele>213.3</ele>
        <time>2019-08-17T16:07:51Z</time>
      </trkpt>
      <trkpt lat="47.15846" lon="5.76276">
        <ele>213.3</ele>
        <time>2019-08-17T16:07:52Z</time>
      </trkpt>
      <trkpt lat="47.15844" lon="5.7627">
        <ele>213.3</ele>
        <time>2019-08-17T16:07:53Z</time>
      </trkpt>
      <trkpt lat="47.15841" lon="5.76263">
        <ele>213.2</ele>
        <time>2019-08-17T16:07:54Z</time>
      </trkpt>
      <trkpt lat="47.15839" lon="5.76256">
        <ele>213.2</ele>
        <time>2019-08-17T16:07:55Z</time>
      </trkpt>
      <trkpt lat="47.15837" lon="5.76249">
        <ele>213.2</ele>
        <time>2019-08-17T16:07:56Z</time>
      </trkpt>
      <trkpt lat="47.15835" lon="5.76243">
        <ele>213.2</ele>
        <time>2019-08-17T16:07:57Z</time>
      </trkpt>
      <trkpt lat="47.15833" lon="5.76236">
        <ele>213.2</ele>
        <time>2019-08-17T16:07:58Z</time>
      </trkpt>
      <trkpt lat="47.15831" lon="5.76229">
        <ele>213.2</ele>
        <time>2019-08-17T16:07:59Z</time>
      </trkpt>
      <trkpt lat="47.15829" lon="5.76222">
        <ele>213.2</ele>
        <time>2019-08-17T16:08:00Z</time>
      </trkpt>
      <trkpt lat="47.15827" lon="5.76217">
        <ele>213.2</ele>
        <time>2019-08-17T16:08:01Z</time>
      </trkpt>
      <trkpt lat="47.15826" lon="5.7621">
        <ele>213.2</ele>
        <time>2019-08-17T16:08:02Z</time>
      </trkpt>
      <trkpt lat="47.15825" lon="5.76204">
        <ele>213.2</ele>
        <time>2019-08-17T16:08:03Z</time>
      </trkpt>
      <trkpt lat="47.15824" lon="5.76198">
        <ele>213.2</ele>
        <time>2019-08-17T16:08:04Z</time>
      </trkpt>
      <trkpt lat="47.15823" lon="5.76191">
        <ele>213.2</ele>
        <time>2019-08-17T16:08:05Z</time>
      </trkpt>
      <trkpt lat="47.15822" lon="5.76186">
        <ele>213.2</ele>
        <time>2019-08-17T16:08:06Z</time>
      </trkpt>
      <trkpt lat="47.15821" lon="5.7618">
        <ele>213.2</ele>
        <time>2019-08-17T16:08:07Z</time>
      </trkpt>
      <trkpt lat="47.1582" lon="5.76175">
        <ele>213.2</ele>
        <time>2019-08-17T16:08:08Z</time>
      </trkpt>
      <trkpt lat="47.15819" lon="5.76169">
        <ele>213.2</ele>
        <time>2019-08-17T16:08:09Z</time>
      </trkpt>
      <trkpt lat="47.15818" lon="5.76163">
        <ele>213.1</ele>
        <time>2019-08-17T16:08:10Z</time>
      </trkpt>
      <trkpt lat="47.15816" lon="5.76157">
        <ele>213.1</ele>
        <time>2019-08-17T16:08:11Z</time>
      </trkpt>
      <trkpt lat="47.15814" lon="5.7615">
        <ele>213.1</ele>
        <time>2019-08-17T16:08:12Z</time>
      </trkpt>
      <trkpt lat="47.15811" lon="5.76145">
        <ele>213.1</ele>
        <time>2019-08-17T16:08:13Z</time>
      </trkpt>
      <trkpt lat="47.15808" lon="5.76138">
        <ele>213.1</ele>
        <time>2019-08-17T16:08:14Z</time>
      </trkpt>
      <trkpt lat="47.15806" lon="5.76132">
        <ele>213.1</ele>
        <time>2019-08-17T16:08:15Z</time>
      </trkpt>
      <trkpt lat="47.15804" lon="5.76125">
        <ele>213.1</ele>
        <time>2019-08-17T16:08:16Z</time>
      </trkpt>
      <trkpt lat="47.15803" lon="5.76118">
        <ele>213.2</ele>
        <time>2019-08-17T16:08:17Z</time>
      </trkpt>
      <trkpt lat="47.15801" lon="5.76113">
        <ele>213.2</ele>
        <time>2019-08-17T16:08:18Z</time>
      </trkpt>
      <trkpt lat="47.158" lon="5.76106">
        <ele>213.3</ele>
        <time>2019-08-17T16:08:19Z</time>
      </trkpt>
      <trkpt lat="47.15798" lon="5.76099">
        <ele>213.3</ele>
        <time>2019-08-17T16:08:20Z</time>
      </trkpt>
      <trkpt lat="47.15796" lon="5.76092">
        <ele>213.5</ele>
        <time>2019-08-17T16:08:21Z</time>
      </trkpt>
      <trkpt lat="47.15794" lon="5.76085">
        <ele>213.6</ele>
        <time>2019-08-17T16:08:22Z</time>
      </trkpt>
      <trkpt lat="47.15793" lon="5.76078">
        <ele>213.7</ele>
        <time>2019-08-17T16:08:23Z</time>
      </trkpt>
      <trkpt lat="47.15791" lon="5.7607">
        <ele>213.9</ele>
        <time>2019-08-17T16:08:24Z</time>
      </trkpt>
      <trkpt lat="47.15789" lon="5.76062">
        <ele>214</ele>
        <time>2019-08-17T16:08:25Z</time>
      </trkpt>
      <trkpt lat="47.15787" lon="5.76054">
        <ele>214.3</ele>
        <time>2019-08-17T16:08:26Z</time>
      </trkpt>
      <trkpt lat="47.15785" lon="5.76046">
        <ele>214.5</ele>
        <time>2019-08-17T16:08:27Z</time>
      </trkpt>
      <trkpt lat="47.15784" lon="5.76039">
        <ele>214.7</ele>
        <time>2019-08-17T16:08:28Z</time>
      </trkpt>
      <trkpt lat="47.15782" lon="5.76033">
        <ele>215</ele>
        <time>2019-08-17T16:08:29Z</time>
      </trkpt>
      <trkpt lat="47.1578" lon="5.76028">
        <ele>215.2</ele>
        <time>2019-08-17T16:08:30Z</time>
      </trkpt>
      <trkpt lat="47.15779" lon="5.76023">
        <ele>215.3</ele>
        <time>2019-08-17T16:08:31Z</time>
      </trkpt>
      <trkpt lat="47.15779" lon="5.76019">
        <ele>215.4</ele>
        <time>2019-08-17T16:08:32Z</time>
      </trkpt>
      <trkpt lat="47.15776" lon="5.76021">
        <ele>215.5</ele>
        <time>2019-08-17T16:08:39Z</time>
      </trkpt>
      <trkpt lat="47.15773" lon="5.76022">
        <ele>215.7</ele>
        <time>2019-08-17T16:08:42Z</time>
      </trkpt>
      <trkpt lat="47.15773" lon="5.76017">
        <ele>215.8</ele>
        <time>2019-08-17T16:09:06Z</time>
      </trkpt>
      <trkpt lat="47.15771" lon="5.7601">
        <ele>215.9</ele>
        <time>2019-08-17T16:09:08Z</time>
      </trkpt>
      <trkpt lat="47.1577" lon="5.76006">
        <ele>215.9</ele>
        <time>2019-08-17T16:09:09Z</time>
      </trkpt>
      <trkpt lat="47.15769" lon="5.76002">
        <ele>215.9</ele>
        <time>2019-08-17T16:09:10Z</time>
      </trkpt>
      <trkpt lat="47.15767" lon="5.75997">
        <ele>215.9</ele>
        <time>2019-08-17T16:09:11Z</time>
      </trkpt>
      <trkpt lat="47.15765" lon="5.7599">
        <ele>215.9</ele>
        <time>2019-08-17T16:09:12Z</time>
      </trkpt>
      <trkpt lat="47.15762" lon="5.75981">
        <ele>215.9</ele>
        <time>2019-08-17T16:09:13Z</time>
      </trkpt>
      <trkpt lat="47.15759" lon="5.75971">
        <ele>215.9</ele>
        <time>2019-08-17T16:09:14Z</time>
      </trkpt>
      <trkpt lat="47.15756" lon="5.75962">
        <ele>215.9</ele>
        <time>2019-08-17T16:09:15Z</time>
      </trkpt>
      <trkpt lat="47.15753" lon="5.75953">
        <ele>215.9</ele>
        <time>2019-08-17T16:09:16Z</time>
      </trkpt>
      <trkpt lat="47.15751" lon="5.75946">
        <ele>215.9</ele>
        <time>2019-08-17T16:09:17Z</time>
      </trkpt>
      <trkpt lat="47.15748" lon="5.75938">
        <ele>215.9</ele>
        <time>2019-08-17T16:09:18Z</time>
      </trkpt>
      <trkpt lat="47.15745" lon="5.7593">
        <ele>215.9</ele>
        <time>2019-08-17T16:09:19Z</time>
      </trkpt>
      <trkpt lat="47.15743" lon="5.75922">
        <ele>215.9</ele>
        <time>2019-08-17T16:09:20Z</time>
      </trkpt>
      <trkpt lat="47.15741" lon="5.75915">
        <ele>215.9</ele>
        <time>2019-08-17T16:09:21Z</time>
      </trkpt>
      <trkpt lat="47.15739" lon="5.75908">
        <ele>215.9</ele>
        <time>2019-08-17T16:09:22Z</time>
      </trkpt>
      <trkpt lat="47.15738" lon="5.75903">
        <ele>215.9</ele>
        <time>2019-08-17T16:09:23Z</time>
      </trkpt>
      <trkpt lat="47.15736" lon="5.75897">
        <ele>215.9</ele>
        <time>2019-08-17T16:09:24Z</time>
      </trkpt>
      <trkpt lat="47.15736" lon="5.75892">
        <ele>215.9</ele>
        <time>2019-08-17T16:09:25Z</time>
      </trkpt>
      <trkpt lat="47.15734" lon="5.75887">
        <ele>215.9</ele>
        <time>2019-08-17T16:09:26Z</time>
      </trkpt>
      <trkpt lat="47.15733" lon="5.7588">
        <ele>215.9</ele>
        <time>2019-08-17T16:09:27Z</time>
      </trkpt>
      <trkpt lat="47.1573" lon="5.75875">
        <ele>215.9</ele>
        <time>2019-08-17T16:09:28Z</time>
      </trkpt>
      <trkpt lat="47.15728" lon="5.75869">
        <ele>215.9</ele>
        <time>2019-08-17T16:09:29Z</time>
      </trkpt>
      <trkpt lat="47.15727" lon="5.75864">
        <ele>215.9</ele>
        <time>2019-08-17T16:09:30Z</time>
      </trkpt>
      <trkpt lat="47.15724" lon="5.75858">
        <ele>215.9</ele>
        <time>2019-08-17T16:09:31Z</time>
      </trkpt>
      <trkpt lat="47.15723" lon="5.75853">
        <ele>215.9</ele>
        <time>2019-08-17T16:09:32Z</time>
      </trkpt>
      <trkpt lat="47.15722" lon="5.75849">
        <ele>215.9</ele>
        <time>2019-08-17T16:09:33Z</time>
      </trkpt>
      <trkpt lat="47.1572" lon="5.75844">
        <ele>215.9</ele>
        <time>2019-08-17T16:09:34Z</time>
      </trkpt>
      <trkpt lat="47.15719" lon="5.7584">
        <ele>215.9</ele>
        <time>2019-08-17T16:09:35Z</time>
      </trkpt>
      <trkpt lat="47.15717" lon="5.75836">
        <ele>215.9</ele>
        <time>2019-08-17T16:09:36Z</time>
      </trkpt>
      <trkpt lat="47.15715" lon="5.75831">
        <ele>215.9</ele>
        <time>2019-08-17T16:09:37Z</time>
      </trkpt>
      <trkpt lat="47.15713" lon="5.75825">
        <ele>215.9</ele>
        <time>2019-08-17T16:09:38Z</time>
      </trkpt>
      <trkpt lat="47.15711" lon="5.7582">
        <ele>215.9</ele>
        <time>2019-08-17T16:09:39Z</time>
      </trkpt>
      <trkpt lat="47.1571" lon="5.75816">
        <ele>215.9</ele>
        <time>2019-08-17T16:09:40Z</time>
      </trkpt>
      <trkpt lat="47.15708" lon="5.75811">
        <ele>215.9</ele>
        <time>2019-08-17T16:09:41Z</time>
      </trkpt>
      <trkpt lat="47.15707" lon="5.75807">
        <ele>215.9</ele>
        <time>2019-08-17T16:09:42Z</time>
      </trkpt>
      <trkpt lat="47.15706" lon="5.75803">
        <ele>215.9</ele>
        <time>2019-08-17T16:09:43Z</time>
      </trkpt>
      <trkpt lat="47.15705" lon="5.75798">
        <ele>215.9</ele>
        <time>2019-08-17T16:09:44Z</time>
      </trkpt>
      <trkpt lat="47.15704" lon="5.75794">
        <ele>215.9</ele>
        <time>2019-08-17T16:09:45Z</time>
      </trkpt>
      <trkpt lat="47.15703" lon="5.75787">
        <ele>215.9</ele>
        <time>2019-08-17T16:09:47Z</time>
      </trkpt>
      <trkpt lat="47.15701" lon="5.75782">
        <ele>215.9</ele>
        <time>2019-08-17T16:09:49Z</time>
      </trkpt>
      <trkpt lat="47.15699" lon="5.75776">
        <ele>215.9</ele>
        <time>2019-08-17T16:09:51Z</time>
      </trkpt>
      <trkpt lat="47.15698" lon="5.75771">
        <ele>215.9</ele>
        <time>2019-08-17T16:09:53Z</time>
      </trkpt>
      <trkpt lat="47.15701" lon="5.75765">
        <ele>215.9</ele>
        <time>2019-08-17T16:10:52Z</time>
      </trkpt>
      <trkpt lat="47.15699" lon="5.75761">
        <ele>215.9</ele>
        <time>2019-08-17T16:10:54Z</time>
      </trkpt>
      <trkpt lat="47.15698" lon="5.75756">
        <ele>215.9</ele>
        <time>2019-08-17T16:10:56Z</time>
      </trkpt>
      <trkpt lat="47.15697" lon="5.7575">
        <ele>215.9</ele>
        <time>2019-08-17T16:10:58Z</time>
      </trkpt>
      <trkpt lat="47.15695" lon="5.75747">
        <ele>215.9</ele>
        <time>2019-08-17T16:10:59Z</time>
      </trkpt>
      <trkpt lat="47.15692" lon="5.7574">
        <ele>215.9</ele>
        <time>2019-08-17T16:11:01Z</time>
      </trkpt>
      <trkpt lat="47.15691" lon="5.75736">
        <ele>215.9</ele>
        <time>2019-08-17T16:11:02Z</time>
      </trkpt>
      <trkpt lat="47.1569" lon="5.75732">
        <ele>215.9</ele>
        <time>2019-08-17T16:11:03Z</time>
      </trkpt>
      <trkpt lat="47.15689" lon="5.75728">
        <ele>215.9</ele>
        <time>2019-08-17T16:11:04Z</time>
      </trkpt>
      <trkpt lat="47.15688" lon="5.75724">
        <ele>215.9</ele>
        <time>2019-08-17T16:11:05Z</time>
      </trkpt>
      <trkpt lat="47.15686" lon="5.7572">
        <ele>215.9</ele>
        <time>2019-08-17T16:11:06Z</time>
      </trkpt>
      <trkpt lat="47.15685" lon="5.75717">
        <ele>215.9</ele>
        <time>2019-08-17T16:11:07Z</time>
      </trkpt>
      <trkpt lat="47.15683" lon="5.75713">
        <ele>215.9</ele>
        <time>2019-08-17T16:11:08Z</time>
      </trkpt>
      <trkpt lat="47.15681" lon="5.75708">
        <ele>215.9</ele>
        <time>2019-08-17T16:11:09Z</time>
      </trkpt>
      <trkpt lat="47.1568" lon="5.75704">
        <ele>215.9</ele>
        <time>2019-08-17T16:11:10Z</time>
      </trkpt>
      <trkpt lat="47.15679" lon="5.75699">
        <ele>215.9</ele>
        <time>2019-08-17T16:11:11Z</time>
      </trkpt>
      <trkpt lat="47.15677" lon="5.75693">
        <ele>215.9</ele>
        <time>2019-08-17T16:11:12Z</time>
      </trkpt>
      <trkpt lat="47.15676" lon="5.75688">
        <ele>215.9</ele>
        <time>2019-08-17T16:11:13Z</time>
      </trkpt>
      <trkpt lat="47.15674" lon="5.75681">
        <ele>215.9</ele>
        <time>2019-08-17T16:11:14Z</time>
      </trkpt>
      <trkpt lat="47.15672" lon="5.75674">
        <ele>215.9</ele>
        <time>2019-08-17T16:11:15Z</time>
      </trkpt>
      <trkpt lat="47.15671" lon="5.75667">
        <ele>215.9</ele>
        <time>2019-08-17T16:11:16Z</time>
      </trkpt>
      <trkpt lat="47.15669" lon="5.75661">
        <ele>215.9</ele>
        <time>2019-08-17T16:11:17Z</time>
      </trkpt>
      <trkpt lat="47.15667" lon="5.75655">
        <ele>215.9</ele>
        <time>2019-08-17T16:11:18Z</time>
      </trkpt>
      <trkpt lat="47.15666" lon="5.7565">
        <ele>215.9</ele>
        <time>2019-08-17T16:11:19Z</time>
      </trkpt>
      <trkpt lat="47.15664" lon="5.75644">
        <ele>215.9</ele>
        <time>2019-08-17T16:11:20Z</time>
      </trkpt>
      <trkpt lat="47.15661" lon="5.75638">
        <ele>215.9</ele>
        <time>2019-08-17T16:11:21Z</time>
      </trkpt>
      <trkpt lat="47.15659" lon="5.75632">
        <ele>215.9</ele>
        <time>2019-08-17T16:11:22Z</time>
      </trkpt>
      <trkpt lat="47.15656" lon="5.75626">
        <ele>215.9</ele>
        <time>2019-08-17T16:11:23Z</time>
      </trkpt>
      <trkpt lat="47.15654" lon="5.75619">
        <ele>215.9</ele>
        <time>2019-08-17T16:11:24Z</time>
      </trkpt>
      <trkpt lat="47.15652" lon="5.75613">
        <ele>215.9</ele>
        <time>2019-08-17T16:11:25Z</time>
      </trkpt>
      <trkpt lat="47.15651" lon="5.75606">
        <ele>215.9</ele>
        <time>2019-08-17T16:11:26Z</time>
      </trkpt>
      <trkpt lat="47.1565" lon="5.756">
        <ele>215.9</ele>
        <time>2019-08-17T16:11:27Z</time>
      </trkpt>
      <trkpt lat="47.15649" lon="5.75593">
        <ele>215.9</ele>
        <time>2019-08-17T16:11:28Z</time>
      </trkpt>
      <trkpt lat="47.15647" lon="5.75588">
        <ele>215.9</ele>
        <time>2019-08-17T16:11:29Z</time>
      </trkpt>
      <trkpt lat="47.15645" lon="5.75582">
        <ele>215.8</ele>
        <time>2019-08-17T16:11:30Z</time>
      </trkpt>
      <trkpt lat="47.15643" lon="5.75575">
        <ele>215.8</ele>
        <time>2019-08-17T16:11:31Z</time>
      </trkpt>
      <trkpt lat="47.15642" lon="5.7557">
        <ele>215.7</ele>
        <time>2019-08-17T16:11:32Z</time>
      </trkpt>
      <trkpt lat="47.1564" lon="5.75564">
        <ele>215.6</ele>
        <time>2019-08-17T16:11:33Z</time>
      </trkpt>
      <trkpt lat="47.15639" lon="5.75558">
        <ele>215.5</ele>
        <time>2019-08-17T16:11:34Z</time>
      </trkpt>
      <trkpt lat="47.15637" lon="5.75553">
        <ele>215.4</ele>
        <time>2019-08-17T16:11:35Z</time>
      </trkpt>
      <trkpt lat="47.15636" lon="5.75546">
        <ele>215.3</ele>
        <time>2019-08-17T16:11:36Z</time>
      </trkpt>
      <trkpt lat="47.15633" lon="5.7554">
        <ele>215.2</ele>
        <time>2019-08-17T16:11:37Z</time>
      </trkpt>
      <trkpt lat="47.15631" lon="5.75534">
        <ele>215.1</ele>
        <time>2019-08-17T16:11:38Z</time>
      </trkpt>
      <trkpt lat="47.15629" lon="5.75529">
        <ele>215.1</ele>
        <time>2019-08-17T16:11:39Z</time>
      </trkpt>
      <trkpt lat="47.15627" lon="5.75524">
        <ele>215</ele>
        <time>2019-08-17T16:11:40Z</time>
      </trkpt>
      <trkpt lat="47.15625" lon="5.75519">
        <ele>215</ele>
        <time>2019-08-17T16:11:41Z</time>
      </trkpt>
      <trkpt lat="47.15623" lon="5.75512">
        <ele>215</ele>
        <time>2019-08-17T16:11:42Z</time>
      </trkpt>
      <trkpt lat="47.15621" lon="5.75506">
        <ele>215</ele>
        <time>2019-08-17T16:11:43Z</time>
      </trkpt>
      <trkpt lat="47.1562" lon="5.755">
        <ele>215</ele>
        <time>2019-08-17T16:11:44Z</time>
      </trkpt>
      <trkpt lat="47.15618" lon="5.75493">
        <ele>215</ele>
        <time>2019-08-17T16:11:45Z</time>
      </trkpt>
      <trkpt lat="47.15617" lon="5.75488">
        <ele>215</ele>
        <time>2019-08-17T16:11:46Z</time>
      </trkpt>
      <trkpt lat="47.15615" lon="5.75483">
        <ele>215</ele>
        <time>2019-08-17T16:11:47Z</time>
      </trkpt>
      <trkpt lat="47.15612" lon="5.75476">
        <ele>215</ele>
        <time>2019-08-17T16:11:48Z</time>
      </trkpt>
      <trkpt lat="47.1561" lon="5.7547">
        <ele>215</ele>
        <time>2019-08-17T16:11:49Z</time>
      </trkpt>
      <trkpt lat="47.15607" lon="5.75465">
        <ele>215</ele>
        <time>2019-08-17T16:11:50Z</time>
      </trkpt>
      <trkpt lat="47.15605" lon="5.75458">
        <ele>215</ele>
        <time>2019-08-17T16:11:51Z</time>
      </trkpt>
      <trkpt lat="47.15603" lon="5.75451">
        <ele>215</ele>
        <time>2019-08-17T16:11:52Z</time>
      </trkpt>
      <trkpt lat="47.15601" lon="5.75444">
        <ele>215</ele>
        <time>2019-08-17T16:11:53Z</time>
      </trkpt>
      <trkpt lat="47.15599" lon="5.75437">
        <ele>215</ele>
        <time>2019-08-17T16:11:54Z</time>
      </trkpt>
      <trkpt lat="47.15597" lon="5.75431">
        <ele>215</ele>
        <time>2019-08-17T16:11:55Z</time>
      </trkpt>
      <trkpt lat="47.15595" lon="5.75424">
        <ele>215</ele>
        <time>2019-08-17T16:11:56Z</time>
      </trkpt>
      <trkpt lat="47.15593" lon="5.75418">
        <ele>215</ele>
        <time>2019-08-17T16:11:57Z</time>
      </trkpt>
      <trkpt lat="47.15592" lon="5.75413">
        <ele>215</ele>
        <time>2019-08-17T16:11:58Z</time>
      </trkpt>
      <trkpt lat="47.15591" lon="5.75408">
        <ele>215</ele>
        <time>2019-08-17T16:11:59Z</time>
      </trkpt>
      <trkpt lat="47.15589" lon="5.75401">
        <ele>215</ele>
        <time>2019-08-17T16:12:00Z</time>
      </trkpt>
      <trkpt lat="47.15587" lon="5.75392">
        <ele>215</ele>
        <time>2019-08-17T16:12:01Z</time>
      </trkpt>
      <trkpt lat="47.15584" lon="5.75386">
        <ele>215</ele>
        <time>2019-08-17T16:12:02Z</time>
      </trkpt>
      <trkpt lat="47.15581" lon="5.75378">
        <ele>215</ele>
        <time>2019-08-17T16:12:03Z</time>
      </trkpt>
      <trkpt lat="47.15579" lon="5.75372">
        <ele>215</ele>
        <time>2019-08-17T16:12:04Z</time>
      </trkpt>
      <trkpt lat="47.15576" lon="5.75366">
        <ele>215</ele>
        <time>2019-08-17T16:12:05Z</time>
      </trkpt>
      <trkpt lat="47.15574" lon="5.7536">
        <ele>215</ele>
        <time>2019-08-17T16:12:06Z</time>
      </trkpt>
      <trkpt lat="47.15571" lon="5.75353">
        <ele>215</ele>
        <time>2019-08-17T16:12:07Z</time>
      </trkpt>
      <trkpt lat="47.15569" lon="5.75346">
        <ele>215</ele>
        <time>2019-08-17T16:12:08Z</time>
      </trkpt>
      <trkpt lat="47.15567" lon="5.75339">
        <ele>215</ele>
        <time>2019-08-17T16:12:09Z</time>
      </trkpt>
      <trkpt lat="47.15565" lon="5.75331">
        <ele>215</ele>
        <time>2019-08-17T16:12:10Z</time>
      </trkpt>
      <trkpt lat="47.15562" lon="5.75324">
        <ele>215</ele>
        <time>2019-08-17T16:12:11Z</time>
      </trkpt>
      <trkpt lat="47.15559" lon="5.75316">
        <ele>215</ele>
        <time>2019-08-17T16:12:12Z</time>
      </trkpt>
      <trkpt lat="47.15556" lon="5.7531">
        <ele>215</ele>
        <time>2019-08-17T16:12:13Z</time>
      </trkpt>
      <trkpt lat="47.15554" lon="5.75303">
        <ele>215</ele>
        <time>2019-08-17T16:12:14Z</time>
      </trkpt>
      <trkpt lat="47.15551" lon="5.75295">
        <ele>215</ele>
        <time>2019-08-17T16:12:15Z</time>
      </trkpt>
      <trkpt lat="47.15549" lon="5.75288">
        <ele>215</ele>
        <time>2019-08-17T16:12:16Z</time>
      </trkpt>
      <trkpt lat="47.15548" lon="5.7528">
        <ele>215</ele>
        <time>2019-08-17T16:12:17Z</time>
      </trkpt>
      <trkpt lat="47.15546" lon="5.75273">
        <ele>215</ele>
        <time>2019-08-17T16:12:18Z</time>
      </trkpt>
      <trkpt lat="47.15544" lon="5.75266">
        <ele>215</ele>
        <time>2019-08-17T16:12:19Z</time>
      </trkpt>
      <trkpt lat="47.15542" lon="5.7526">
        <ele>215</ele>
        <time>2019-08-17T16:12:20Z</time>
      </trkpt>
      <trkpt lat="47.1554" lon="5.75253">
        <ele>215</ele>
        <time>2019-08-17T16:12:21Z</time>
      </trkpt>
      <trkpt lat="47.15538" lon="5.75246">
        <ele>215</ele>
        <time>2019-08-17T16:12:22Z</time>
      </trkpt>
      <trkpt lat="47.15536" lon="5.75239">
        <ele>215</ele>
        <time>2019-08-17T16:12:23Z</time>
      </trkpt>
      <trkpt lat="47.15535" lon="5.75233">
        <ele>215</ele>
        <time>2019-08-17T16:12:24Z</time>
      </trkpt>
      <trkpt lat="47.15533" lon="5.75227">
        <ele>215</ele>
        <time>2019-08-17T16:12:25Z</time>
      </trkpt>
      <trkpt lat="47.15531" lon="5.75221">
        <ele>215</ele>
        <time>2019-08-17T16:12:26Z</time>
      </trkpt>
      <trkpt lat="47.1553" lon="5.75216">
        <ele>215</ele>
        <time>2019-08-17T16:12:27Z</time>
      </trkpt>
      <trkpt lat="47.15528" lon="5.7521">
        <ele>215</ele>
        <time>2019-08-17T16:12:28Z</time>
      </trkpt>
      <trkpt lat="47.15527" lon="5.75203">
        <ele>215</ele>
        <time>2019-08-17T16:12:29Z</time>
      </trkpt>
      <trkpt lat="47.15525" lon="5.75197">
        <ele>215</ele>
        <time>2019-08-17T16:12:30Z</time>
      </trkpt>
      <trkpt lat="47.15524" lon="5.7519">
        <ele>215</ele>
        <time>2019-08-17T16:12:31Z</time>
      </trkpt>
      <trkpt lat="47.15523" lon="5.75184">
        <ele>215</ele>
        <time>2019-08-17T16:12:32Z</time>
      </trkpt>
      <trkpt lat="47.15521" lon="5.75177">
        <ele>215</ele>
        <time>2019-08-17T16:12:33Z</time>
      </trkpt>
      <trkpt lat="47.1552" lon="5.75171">
        <ele>215</ele>
        <time>2019-08-17T16:12:34Z</time>
      </trkpt>
      <trkpt lat="47.15518" lon="5.75164">
        <ele>215</ele>
        <time>2019-08-17T16:12:35Z</time>
      </trkpt>
      <trkpt lat="47.15517" lon="5.75157">
        <ele>215</ele>
        <time>2019-08-17T16:12:36Z</time>
      </trkpt>
      <trkpt lat="47.15515" lon="5.7515">
        <ele>215</ele>
        <time>2019-08-17T16:12:37Z</time>
      </trkpt>
      <trkpt lat="47.15513" lon="5.75142">
        <ele>215</ele>
        <time>2019-08-17T16:12:38Z</time>
      </trkpt>
      <trkpt lat="47.15511" lon="5.75135">
        <ele>215</ele>
        <time>2019-08-17T16:12:39Z</time>
      </trkpt>
      <trkpt lat="47.15509" lon="5.75129">
        <ele>215</ele>
        <time>2019-08-17T16:12:40Z</time>
      </trkpt>
      <trkpt lat="47.15507" lon="5.75122">
        <ele>215</ele>
        <time>2019-08-17T16:12:41Z</time>
      </trkpt>
      <trkpt lat="47.15506" lon="5.75116">
        <ele>215</ele>
        <time>2019-08-17T16:12:42Z</time>
      </trkpt>
      <trkpt lat="47.15504" lon="5.7511">
        <ele>215</ele>
        <time>2019-08-17T16:12:43Z</time>
      </trkpt>
      <trkpt lat="47.15501" lon="5.75104">
        <ele>215</ele>
        <time>2019-08-17T16:12:44Z</time>
      </trkpt>
      <trkpt lat="47.15499" lon="5.75097">
        <ele>215</ele>
        <time>2019-08-17T16:12:45Z</time>
      </trkpt>
      <trkpt lat="47.15498" lon="5.75092">
        <ele>215</ele>
        <time>2019-08-17T16:12:46Z</time>
      </trkpt>
      <trkpt lat="47.15496" lon="5.75085">
        <ele>215</ele>
        <time>2019-08-17T16:12:47Z</time>
      </trkpt>
      <trkpt lat="47.15495" lon="5.75079">
        <ele>215</ele>
        <time>2019-08-17T16:12:48Z</time>
      </trkpt>
      <trkpt lat="47.15493" lon="5.75073">
        <ele>215</ele>
        <time>2019-08-17T16:12:49Z</time>
      </trkpt>
      <trkpt lat="47.15491" lon="5.75067">
        <ele>215</ele>
        <time>2019-08-17T16:12:50Z</time>
      </trkpt>
      <trkpt lat="47.15489" lon="5.75061">
        <ele>215.1</ele>
        <time>2019-08-17T16:12:51Z</time>
      </trkpt>
      <trkpt lat="47.15488" lon="5.75054">
        <ele>215.1</ele>
        <time>2019-08-17T16:12:52Z</time>
      </trkpt>
      <trkpt lat="47.15487" lon="5.75048">
        <ele>215.1</ele>
        <time>2019-08-17T16:12:53Z</time>
      </trkpt>
      <trkpt lat="47.15484" lon="5.7504">
        <ele>215.2</ele>
        <time>2019-08-17T16:12:54Z</time>
      </trkpt>
      <trkpt lat="47.15482" lon="5.75032">
        <ele>215.3</ele>
        <time>2019-08-17T16:12:55Z</time>
      </trkpt>
      <trkpt lat="47.15481" lon="5.75025">
        <ele>215.4</ele>
        <time>2019-08-17T16:12:56Z</time>
      </trkpt>
      <trkpt lat="47.1548" lon="5.75017">
        <ele>215.6</ele>
        <time>2019-08-17T16:12:57Z</time>
      </trkpt>
      <trkpt lat="47.15477" lon="5.7501">
        <ele>215.7</ele>
        <time>2019-08-17T16:12:58Z</time>
      </trkpt>
      <trkpt lat="47.15475" lon="5.75002">
        <ele>215.8</ele>
        <time>2019-08-17T16:12:59Z</time>
      </trkpt>
      <trkpt lat="47.15472" lon="5.74996">
        <ele>215.9</ele>
        <time>2019-08-17T16:13:00Z</time>
      </trkpt>
      <trkpt lat="47.1547" lon="5.74989">
        <ele>215.9</ele>
        <time>2019-08-17T16:13:01Z</time>
      </trkpt>
      <trkpt lat="47.15469" lon="5.74982">
        <ele>216</ele>
        <time>2019-08-17T16:13:02Z</time>
      </trkpt>
      <trkpt lat="47.15467" lon="5.74976">
        <ele>216</ele>
        <time>2019-08-17T16:13:03Z</time>
      </trkpt>
      <trkpt lat="47.15466" lon="5.7497">
        <ele>216</ele>
        <time>2019-08-17T16:13:04Z</time>
      </trkpt>
      <trkpt lat="47.15464" lon="5.74963">
        <ele>216</ele>
        <time>2019-08-17T16:13:05Z</time>
      </trkpt>
      <trkpt lat="47.15461" lon="5.74957">
        <ele>216</ele>
        <time>2019-08-17T16:13:06Z</time>
      </trkpt>
      <trkpt lat="47.15459" lon="5.74951">
        <ele>216</ele>
        <time>2019-08-17T16:13:07Z</time>
      </trkpt>
      <trkpt lat="47.15458" lon="5.74944">
        <ele>216</ele>
        <time>2019-08-17T16:13:08Z</time>
      </trkpt>
      <trkpt lat="47.15457" lon="5.74939">
        <ele>216</ele>
        <time>2019-08-17T16:13:09Z</time>
      </trkpt>
      <trkpt lat="47.15455" lon="5.74933">
        <ele>216</ele>
        <time>2019-08-17T16:13:10Z</time>
      </trkpt>
      <trkpt lat="47.15454" lon="5.74928">
        <ele>216</ele>
        <time>2019-08-17T16:13:11Z</time>
      </trkpt>
      <trkpt lat="47.15453" lon="5.74922">
        <ele>216</ele>
        <time>2019-08-17T16:13:12Z</time>
      </trkpt>
      <trkpt lat="47.15451" lon="5.74916">
        <ele>216</ele>
        <time>2019-08-17T16:13:13Z</time>
      </trkpt>
      <trkpt lat="47.15449" lon="5.7491">
        <ele>216</ele>
        <time>2019-08-17T16:13:14Z</time>
      </trkpt>
      <trkpt lat="47.15447" lon="5.74904">
        <ele>216</ele>
        <time>2019-08-17T16:13:15Z</time>
      </trkpt>
      <trkpt lat="47.15447" lon="5.74897">
        <ele>216</ele>
        <time>2019-08-17T16:13:16Z</time>
      </trkpt>
      <trkpt lat="47.15446" lon="5.74891">
        <ele>216</ele>
        <time>2019-08-17T16:13:17Z</time>
      </trkpt>
      <trkpt lat="47.15444" lon="5.74886">
        <ele>216</ele>
        <time>2019-08-17T16:13:18Z</time>
      </trkpt>
      <trkpt lat="47.15443" lon="5.7488">
        <ele>216</ele>
        <time>2019-08-17T16:13:19Z</time>
      </trkpt>
      <trkpt lat="47.15442" lon="5.74874">
        <ele>216</ele>
        <time>2019-08-17T16:13:20Z</time>
      </trkpt>
      <trkpt lat="47.1544" lon="5.74867">
        <ele>216</ele>
        <time>2019-08-17T16:13:21Z</time>
      </trkpt>
      <trkpt lat="47.15439" lon="5.74861">
        <ele>216</ele>
        <time>2019-08-17T16:13:22Z</time>
      </trkpt>
      <trkpt lat="47.15437" lon="5.74854">
        <ele>216</ele>
        <time>2019-08-17T16:13:23Z</time>
      </trkpt>
      <trkpt lat="47.15436" lon="5.74847">
        <ele>216</ele>
        <time>2019-08-17T16:13:24Z</time>
      </trkpt>
      <trkpt lat="47.15435" lon="5.7484">
        <ele>216</ele>
        <time>2019-08-17T16:13:25Z</time>
      </trkpt>
      <trkpt lat="47.15434" lon="5.74832">
        <ele>216</ele>
        <time>2019-08-17T16:13:26Z</time>
      </trkpt>
      <trkpt lat="47.15432" lon="5.74825">
        <ele>216</ele>
        <time>2019-08-17T16:13:27Z</time>
      </trkpt>
      <trkpt lat="47.15431" lon="5.74817">
        <ele>216</ele>
        <time>2019-08-17T16:13:28Z</time>
      </trkpt>
      <trkpt lat="47.15429" lon="5.74811">
        <ele>216</ele>
        <time>2019-08-17T16:13:29Z</time>
      </trkpt>
      <trkpt lat="47.15426" lon="5.74803">
        <ele>216</ele>
        <time>2019-08-17T16:13:30Z</time>
      </trkpt>
      <trkpt lat="47.15424" lon="5.74796">
        <ele>216</ele>
        <time>2019-08-17T16:13:31Z</time>
      </trkpt>
      <trkpt lat="47.15422" lon="5.7479">
        <ele>216</ele>
        <time>2019-08-17T16:13:32Z</time>
      </trkpt>
      <trkpt lat="47.1542" lon="5.74782">
        <ele>216</ele>
        <time>2019-08-17T16:13:33Z</time>
      </trkpt>
      <trkpt lat="47.15418" lon="5.74773">
        <ele>216</ele>
        <time>2019-08-17T16:13:34Z</time>
      </trkpt>
      <trkpt lat="47.15415" lon="5.74765">
        <ele>216</ele>
        <time>2019-08-17T16:13:35Z</time>
      </trkpt>
      <trkpt lat="47.15412" lon="5.74759">
        <ele>216</ele>
        <time>2019-08-17T16:13:36Z</time>
      </trkpt>
      <trkpt lat="47.15409" lon="5.74754">
        <ele>216</ele>
        <time>2019-08-17T16:13:37Z</time>
      </trkpt>
      <trkpt lat="47.15406" lon="5.74749">
        <ele>216.1</ele>
        <time>2019-08-17T16:13:38Z</time>
      </trkpt>
      <trkpt lat="47.15402" lon="5.74743">
        <ele>216.1</ele>
        <time>2019-08-17T16:13:39Z</time>
      </trkpt>
      <trkpt lat="47.15398" lon="5.74737">
        <ele>216.1</ele>
        <time>2019-08-17T16:13:40Z</time>
      </trkpt>
      <trkpt lat="47.15395" lon="5.74731">
        <ele>216.1</ele>
        <time>2019-08-17T16:13:41Z</time>
      </trkpt>
      <trkpt lat="47.15393" lon="5.74725">
        <ele>216.2</ele>
        <time>2019-08-17T16:13:42Z</time>
      </trkpt>
      <trkpt lat="47.1539" lon="5.7472">
        <ele>216.2</ele>
        <time>2019-08-17T16:13:43Z</time>
      </trkpt>
      <trkpt lat="47.15389" lon="5.74714">
        <ele>216.2</ele>
        <time>2019-08-17T16:13:44Z</time>
      </trkpt>
      <trkpt lat="47.15387" lon="5.74708">
        <ele>216.3</ele>
        <time>2019-08-17T16:13:45Z</time>
      </trkpt>
      <trkpt lat="47.15387" lon="5.74702">
        <ele>216.3</ele>
        <time>2019-08-17T16:13:46Z</time>
      </trkpt>
      <trkpt lat="47.15386" lon="5.74696">
        <ele>216.3</ele>
        <time>2019-08-17T16:13:47Z</time>
      </trkpt>
      <trkpt lat="47.15385" lon="5.74691">
        <ele>216.4</ele>
        <time>2019-08-17T16:13:48Z</time>
      </trkpt>
      <trkpt lat="47.15385" lon="5.74685">
        <ele>216.4</ele>
        <time>2019-08-17T16:13:49Z</time>
      </trkpt>
      <trkpt lat="47.15384" lon="5.74681">
        <ele>216.4</ele>
        <time>2019-08-17T16:13:50Z</time>
      </trkpt>
      <trkpt lat="47.15383" lon="5.74676">
        <ele>216.5</ele>
        <time>2019-08-17T16:13:51Z</time>
      </trkpt>
      <trkpt lat="47.15382" lon="5.74671">
        <ele>216.3</ele>
        <time>2019-08-17T16:13:52Z</time>
      </trkpt>
      <trkpt lat="47.15381" lon="5.74667">
        <ele>215.8</ele>
        <time>2019-08-17T16:13:53Z</time>
      </trkpt>
      <trkpt lat="47.15381" lon="5.74662">
        <ele>215.5</ele>
        <time>2019-08-17T16:13:54Z</time>
      </trkpt>
      <trkpt lat="47.15379" lon="5.74656">
        <ele>215.1</ele>
        <time>2019-08-17T16:13:55Z</time>
      </trkpt>
      <trkpt lat="47.15379" lon="5.74648">
        <ele>214.7</ele>
        <time>2019-08-17T16:13:56Z</time>
      </trkpt>
      <trkpt lat="47.15377" lon="5.74641">
        <ele>214.4</ele>
        <time>2019-08-17T16:13:57Z</time>
      </trkpt>
      <trkpt lat="47.15376" lon="5.74634">
        <ele>214</ele>
        <time>2019-08-17T16:13:58Z</time>
      </trkpt>
      <trkpt lat="47.15374" lon="5.74628">
        <ele>213.8</ele>
        <time>2019-08-17T16:13:59Z</time>
      </trkpt>
      <trkpt lat="47.15373" lon="5.74623">
        <ele>213.6</ele>
        <time>2019-08-17T16:14:00Z</time>
      </trkpt>
      <trkpt lat="47.15371" lon="5.74617">
        <ele>213.4</ele>
        <time>2019-08-17T16:14:01Z</time>
      </trkpt>
      <trkpt lat="47.1537" lon="5.74611">
        <ele>213.3</ele>
        <time>2019-08-17T16:14:02Z</time>
      </trkpt>
      <trkpt lat="47.15367" lon="5.74605">
        <ele>213.2</ele>
        <time>2019-08-17T16:14:03Z</time>
      </trkpt>
      <trkpt lat="47.15366" lon="5.74599">
        <ele>213.2</ele>
        <time>2019-08-17T16:14:04Z</time>
      </trkpt>
      <trkpt lat="47.15364" lon="5.74593">
        <ele>213.1</ele>
        <time>2019-08-17T16:14:05Z</time>
      </trkpt>
      <trkpt lat="47.15362" lon="5.74587">
        <ele>213.1</ele>
        <time>2019-08-17T16:14:06Z</time>
      </trkpt>
      <trkpt lat="47.1536" lon="5.7458">
        <ele>213</ele>
        <time>2019-08-17T16:14:07Z</time>
      </trkpt>
      <trkpt lat="47.15358" lon="5.74573">
        <ele>213</ele>
        <time>2019-08-17T16:14:08Z</time>
      </trkpt>
      <trkpt lat="47.15356" lon="5.74566">
        <ele>212.9</ele>
        <time>2019-08-17T16:14:09Z</time>
      </trkpt>
      <trkpt lat="47.15354" lon="5.74559">
        <ele>212.9</ele>
        <time>2019-08-17T16:14:10Z</time>
      </trkpt>
      <trkpt lat="47.15352" lon="5.74552">
        <ele>212.9</ele>
        <time>2019-08-17T16:14:11Z</time>
      </trkpt>
      <trkpt lat="47.1535" lon="5.74545">
        <ele>212.8</ele>
        <time>2019-08-17T16:14:12Z</time>
      </trkpt>
      <trkpt lat="47.15349" lon="5.74538">
        <ele>212.8</ele>
        <time>2019-08-17T16:14:13Z</time>
      </trkpt>
      <trkpt lat="47.15347" lon="5.74531">
        <ele>212.8</ele>
        <time>2019-08-17T16:14:14Z</time>
      </trkpt>
      <trkpt lat="47.15346" lon="5.74524">
        <ele>212.7</ele>
        <time>2019-08-17T16:14:15Z</time>
      </trkpt>
      <trkpt lat="47.15344" lon="5.74517">
        <ele>212.7</ele>
        <time>2019-08-17T16:14:16Z</time>
      </trkpt>
      <trkpt lat="47.15343" lon="5.74511">
        <ele>212.7</ele>
        <time>2019-08-17T16:14:17Z</time>
      </trkpt>
      <trkpt lat="47.15341" lon="5.74506">
        <ele>212.6</ele>
        <time>2019-08-17T16:14:18Z</time>
      </trkpt>
      <trkpt lat="47.15339" lon="5.74499">
        <ele>212.6</ele>
        <time>2019-08-17T16:14:19Z</time>
      </trkpt>
      <trkpt lat="47.15336" lon="5.74493">
        <ele>212.6</ele>
        <time>2019-08-17T16:14:20Z</time>
      </trkpt>
      <trkpt lat="47.15334" lon="5.74486">
        <ele>212.5</ele>
        <time>2019-08-17T16:14:21Z</time>
      </trkpt>
      <trkpt lat="47.15332" lon="5.74479">
        <ele>212.5</ele>
        <time>2019-08-17T16:14:22Z</time>
      </trkpt>
      <trkpt lat="47.1533" lon="5.74472">
        <ele>212.5</ele>
        <time>2019-08-17T16:14:23Z</time>
      </trkpt>
      <trkpt lat="47.15328" lon="5.74465">
        <ele>212.4</ele>
        <time>2019-08-17T16:14:24Z</time>
      </trkpt>
      <trkpt lat="47.15326" lon="5.74459">
        <ele>212.4</ele>
        <time>2019-08-17T16:14:25Z</time>
      </trkpt>
      <trkpt lat="47.15324" lon="5.74453">
        <ele>212.4</ele>
        <time>2019-08-17T16:14:26Z</time>
      </trkpt>
      <trkpt lat="47.15322" lon="5.74446">
        <ele>212.4</ele>
        <time>2019-08-17T16:14:27Z</time>
      </trkpt>
      <trkpt lat="47.1532" lon="5.74439">
        <ele>212.3</ele>
        <time>2019-08-17T16:14:28Z</time>
      </trkpt>
      <trkpt lat="47.15318" lon="5.74432">
        <ele>212.3</ele>
        <time>2019-08-17T16:14:29Z</time>
      </trkpt>
      <trkpt lat="47.15316" lon="5.74425">
        <ele>212.3</ele>
        <time>2019-08-17T16:14:30Z</time>
      </trkpt>
      <trkpt lat="47.15314" lon="5.74418">
        <ele>212.4</ele>
        <time>2019-08-17T16:14:31Z</time>
      </trkpt>
      <trkpt lat="47.15312" lon="5.74411">
        <ele>212.4</ele>
        <time>2019-08-17T16:14:32Z</time>
      </trkpt>
      <trkpt lat="47.15309" lon="5.74405">
        <ele>212.4</ele>
        <time>2019-08-17T16:14:33Z</time>
      </trkpt>
      <trkpt lat="47.15307" lon="5.74399">
        <ele>212.4</ele>
        <time>2019-08-17T16:14:34Z</time>
      </trkpt>
      <trkpt lat="47.15304" lon="5.74393">
        <ele>212.4</ele>
        <time>2019-08-17T16:14:35Z</time>
      </trkpt>
      <trkpt lat="47.15302" lon="5.74387">
        <ele>212.4</ele>
        <time>2019-08-17T16:14:36Z</time>
      </trkpt>
      <trkpt lat="47.15299" lon="5.7438">
        <ele>212.3</ele>
        <time>2019-08-17T16:14:37Z</time>
      </trkpt>
      <trkpt lat="47.15297" lon="5.74372">
        <ele>212.2</ele>
        <time>2019-08-17T16:14:38Z</time>
      </trkpt>
      <trkpt lat="47.15295" lon="5.74363">
        <ele>212.1</ele>
        <time>2019-08-17T16:14:39Z</time>
      </trkpt>
      <trkpt lat="47.15293" lon="5.74355">
        <ele>212</ele>
        <time>2019-08-17T16:14:40Z</time>
      </trkpt>
      <trkpt lat="47.15291" lon="5.74348">
        <ele>211.9</ele>
        <time>2019-08-17T16:14:41Z</time>
      </trkpt>
      <trkpt lat="47.15288" lon="5.74342">
        <ele>211.8</ele>
        <time>2019-08-17T16:14:42Z</time>
      </trkpt>
      <trkpt lat="47.15286" lon="5.74336">
        <ele>211.8</ele>
        <time>2019-08-17T16:14:43Z</time>
      </trkpt>
      <trkpt lat="47.15285" lon="5.74331">
        <ele>211.8</ele>
        <time>2019-08-17T16:14:44Z</time>
      </trkpt>
      <trkpt lat="47.15283" lon="5.74325">
        <ele>211.7</ele>
        <time>2019-08-17T16:14:45Z</time>
      </trkpt>
      <trkpt lat="47.15282" lon="5.74319">
        <ele>211.7</ele>
        <time>2019-08-17T16:14:46Z</time>
      </trkpt>
      <trkpt lat="47.1528" lon="5.74313">
        <ele>211.7</ele>
        <time>2019-08-17T16:14:47Z</time>
      </trkpt>
      <trkpt lat="47.15278" lon="5.74306">
        <ele>211.6</ele>
        <time>2019-08-17T16:14:48Z</time>
      </trkpt>
      <trkpt lat="47.15275" lon="5.74298">
        <ele>211.6</ele>
        <time>2019-08-17T16:14:49Z</time>
      </trkpt>
      <trkpt lat="47.15273" lon="5.74291">
        <ele>211.6</ele>
        <time>2019-08-17T16:14:50Z</time>
      </trkpt>
      <trkpt lat="47.1527" lon="5.74285">
        <ele>211.6</ele>
        <time>2019-08-17T16:14:51Z</time>
      </trkpt>
      <trkpt lat="47.15268" lon="5.74278">
        <ele>211.6</ele>
        <time>2019-08-17T16:14:52Z</time>
      </trkpt>
      <trkpt lat="47.15265" lon="5.74272">
        <ele>211.7</ele>
        <time>2019-08-17T16:14:53Z</time>
      </trkpt>
      <trkpt lat="47.15262" lon="5.74264">
        <ele>211.7</ele>
        <time>2019-08-17T16:14:54Z</time>
      </trkpt>
      <trkpt lat="47.15261" lon="5.74256">
        <ele>211.7</ele>
        <time>2019-08-17T16:14:55Z</time>
      </trkpt>
      <trkpt lat="47.15258" lon="5.74248">
        <ele>211.7</ele>
        <time>2019-08-17T16:14:56Z</time>
      </trkpt>
      <trkpt lat="47.15255" lon="5.7424">
        <ele>211.6</ele>
        <time>2019-08-17T16:14:57Z</time>
      </trkpt>
      <trkpt lat="47.15253" lon="5.74232">
        <ele>211.5</ele>
        <time>2019-08-17T16:14:58Z</time>
      </trkpt>
      <trkpt lat="47.15251" lon="5.74225">
        <ele>211.4</ele>
        <time>2019-08-17T16:14:59Z</time>
      </trkpt>
      <trkpt lat="47.15249" lon="5.74217">
        <ele>211.3</ele>
        <time>2019-08-17T16:15:00Z</time>
      </trkpt>
      <trkpt lat="47.15247" lon="5.7421">
        <ele>211.2</ele>
        <time>2019-08-17T16:15:01Z</time>
      </trkpt>
      <trkpt lat="47.15246" lon="5.74203">
        <ele>211.1</ele>
        <time>2019-08-17T16:15:02Z</time>
      </trkpt>
      <trkpt lat="47.15244" lon="5.74196">
        <ele>211.1</ele>
        <time>2019-08-17T16:15:03Z</time>
      </trkpt>
      <trkpt lat="47.15242" lon="5.74188">
        <ele>211</ele>
        <time>2019-08-17T16:15:04Z</time>
      </trkpt>
      <trkpt lat="47.1524" lon="5.74182">
        <ele>211</ele>
        <time>2019-08-17T16:15:05Z</time>
      </trkpt>
      <trkpt lat="47.15238" lon="5.74174">
        <ele>211</ele>
        <time>2019-08-17T16:15:06Z</time>
      </trkpt>
      <trkpt lat="47.15237" lon="5.74166">
        <ele>210.9</ele>
        <time>2019-08-17T16:15:07Z</time>
      </trkpt>
      <trkpt lat="47.15234" lon="5.74159">
        <ele>210.9</ele>
        <time>2019-08-17T16:15:08Z</time>
      </trkpt>
      <trkpt lat="47.15232" lon="5.74152">
        <ele>210.9</ele>
        <time>2019-08-17T16:15:09Z</time>
      </trkpt>
      <trkpt lat="47.1523" lon="5.74144">
        <ele>211</ele>
        <time>2019-08-17T16:15:10Z</time>
      </trkpt>
      <trkpt lat="47.15227" lon="5.74136">
        <ele>211</ele>
        <time>2019-08-17T16:15:11Z</time>
      </trkpt>
      <trkpt lat="47.15225" lon="5.74128">
        <ele>211.1</ele>
        <time>2019-08-17T16:15:12Z</time>
      </trkpt>
      <trkpt lat="47.15224" lon="5.74122">
        <ele>211.1</ele>
        <time>2019-08-17T16:15:13Z</time>
      </trkpt>
      <trkpt lat="47.15223" lon="5.74114">
        <ele>211.2</ele>
        <time>2019-08-17T16:15:14Z</time>
      </trkpt>
      <trkpt lat="47.15221" lon="5.74106">
        <ele>211.2</ele>
        <time>2019-08-17T16:15:15Z</time>
      </trkpt>
      <trkpt lat="47.15219" lon="5.74099">
        <ele>211.1</ele>
        <time>2019-08-17T16:15:16Z</time>
      </trkpt>
      <trkpt lat="47.15217" lon="5.74091">
        <ele>211</ele>
        <time>2019-08-17T16:15:17Z</time>
      </trkpt>
      <trkpt lat="47.15215" lon="5.74084">
        <ele>210.9</ele>
        <time>2019-08-17T16:15:18Z</time>
      </trkpt>
      <trkpt lat="47.15212" lon="5.74078">
        <ele>210.8</ele>
        <time>2019-08-17T16:15:19Z</time>
      </trkpt>
      <trkpt lat="47.1521" lon="5.74072">
        <ele>210.7</ele>
        <time>2019-08-17T16:15:20Z</time>
      </trkpt>
      <trkpt lat="47.15209" lon="5.74067">
        <ele>210.6</ele>
        <time>2019-08-17T16:15:21Z</time>
      </trkpt>
      <trkpt lat="47.15207" lon="5.74061">
        <ele>210.5</ele>
        <time>2019-08-17T16:15:22Z</time>
      </trkpt>
      <trkpt lat="47.15205" lon="5.74056">
        <ele>210.4</ele>
        <time>2019-08-17T16:15:23Z</time>
      </trkpt>
      <trkpt lat="47.15203" lon="5.7405">
        <ele>210.4</ele>
        <time>2019-08-17T16:15:24Z</time>
      </trkpt>
      <trkpt lat="47.15202" lon="5.74043">
        <ele>210.3</ele>
        <time>2019-08-17T16:15:25Z</time>
      </trkpt>
      <trkpt lat="47.15199" lon="5.74035">
        <ele>210.3</ele>
        <time>2019-08-17T16:15:26Z</time>
      </trkpt>
      <trkpt lat="47.15196" lon="5.74028">
        <ele>210.2</ele>
        <time>2019-08-17T16:15:27Z</time>
      </trkpt>
      <trkpt lat="47.15193" lon="5.74022">
        <ele>210.2</ele>
        <time>2019-08-17T16:15:28Z</time>
      </trkpt>
      <trkpt lat="47.15189" lon="5.74016">
        <ele>210.1</ele>
        <time>2019-08-17T16:15:29Z</time>
      </trkpt>
      <trkpt lat="47.15186" lon="5.74008">
        <ele>210.1</ele>
        <time>2019-08-17T16:15:30Z</time>
      </trkpt>
      <trkpt lat="47.15183" lon="5.74002">
        <ele>210.1</ele>
        <time>2019-08-17T16:15:31Z</time>
      </trkpt>
      <trkpt lat="47.15181" lon="5.73996">
        <ele>210</ele>
        <time>2019-08-17T16:15:32Z</time>
      </trkpt>
      <trkpt lat="47.15178" lon="5.7399">
        <ele>210</ele>
        <time>2019-08-17T16:15:33Z</time>
      </trkpt>
      <trkpt lat="47.15176" lon="5.73985">
        <ele>210</ele>
        <time>2019-08-17T16:15:34Z</time>
      </trkpt>
      <trkpt lat="47.15175" lon="5.73981">
        <ele>210</ele>
        <time>2019-08-17T16:15:35Z</time>
      </trkpt>
      <trkpt lat="47.15175" lon="5.73976">
        <ele>209.9</ele>
        <time>2019-08-17T16:15:36Z</time>
      </trkpt>
      <trkpt lat="47.15174" lon="5.73971">
        <ele>209.9</ele>
        <time>2019-08-17T16:15:37Z</time>
      </trkpt>
      <trkpt lat="47.15174" lon="5.73965">
        <ele>209.9</ele>
        <time>2019-08-17T16:15:38Z</time>
      </trkpt>
      <trkpt lat="47.15173" lon="5.73957">
        <ele>209.8</ele>
        <time>2019-08-17T16:15:39Z</time>
      </trkpt>
      <trkpt lat="47.15172" lon="5.7395">
        <ele>209.8</ele>
        <time>2019-08-17T16:15:40Z</time>
      </trkpt>
      <trkpt lat="47.15171" lon="5.73941">
        <ele>209.8</ele>
        <time>2019-08-17T16:15:41Z</time>
      </trkpt>
      <trkpt lat="47.15171" lon="5.73935">
        <ele>209.7</ele>
        <time>2019-08-17T16:15:42Z</time>
      </trkpt>
      <trkpt lat="47.1517" lon="5.73927">
        <ele>209.7</ele>
        <time>2019-08-17T16:15:43Z</time>
      </trkpt>
      <trkpt lat="47.15168" lon="5.73919">
        <ele>209.7</ele>
        <time>2019-08-17T16:15:44Z</time>
      </trkpt>
      <trkpt lat="47.15167" lon="5.73913">
        <ele>209.6</ele>
        <time>2019-08-17T16:15:45Z</time>
      </trkpt>
      <trkpt lat="47.15166" lon="5.73905">
        <ele>209.6</ele>
        <time>2019-08-17T16:15:46Z</time>
      </trkpt>
      <trkpt lat="47.15165" lon="5.73898">
        <ele>209.6</ele>
        <time>2019-08-17T16:15:47Z</time>
      </trkpt>
      <trkpt lat="47.15164" lon="5.73891">
        <ele>209.5</ele>
        <time>2019-08-17T16:15:48Z</time>
      </trkpt>
      <trkpt lat="47.15163" lon="5.73884">
        <ele>209.5</ele>
        <time>2019-08-17T16:15:49Z</time>
      </trkpt>
      <trkpt lat="47.15162" lon="5.73877">
        <ele>209.5</ele>
        <time>2019-08-17T16:15:50Z</time>
      </trkpt>
      <trkpt lat="47.15162" lon="5.73871">
        <ele>209.4</ele>
        <time>2019-08-17T16:15:51Z</time>
      </trkpt>
      <trkpt lat="47.15162" lon="5.73864">
        <ele>209.4</ele>
        <time>2019-08-17T16:15:52Z</time>
      </trkpt>
      <trkpt lat="47.15163" lon="5.73857">
        <ele>209.4</ele>
        <time>2019-08-17T16:15:53Z</time>
      </trkpt>
      <trkpt lat="47.15164" lon="5.73847">
        <ele>209.3</ele>
        <time>2019-08-17T16:15:54Z</time>
      </trkpt>
      <trkpt lat="47.15164" lon="5.73838">
        <ele>209.3</ele>
        <time>2019-08-17T16:15:55Z</time>
      </trkpt>
      <trkpt lat="47.15164" lon="5.7383">
        <ele>209.3</ele>
        <time>2019-08-17T16:15:56Z</time>
      </trkpt>
      <trkpt lat="47.15164" lon="5.73822">
        <ele>209.2</ele>
        <time>2019-08-17T16:15:57Z</time>
      </trkpt>
      <trkpt lat="47.15164" lon="5.73813">
        <ele>209.2</ele>
        <time>2019-08-17T16:15:58Z</time>
      </trkpt>
      <trkpt lat="47.15164" lon="5.73806">
        <ele>209.1</ele>
        <time>2019-08-17T16:15:59Z</time>
      </trkpt>
      <trkpt lat="47.15165" lon="5.73797">
        <ele>209.1</ele>
        <time>2019-08-17T16:16:00Z</time>
      </trkpt>
      <trkpt lat="47.15165" lon="5.7379">
        <ele>209.1</ele>
        <time>2019-08-17T16:16:01Z</time>
      </trkpt>
      <trkpt lat="47.15166" lon="5.73784">
        <ele>209</ele>
        <time>2019-08-17T16:16:02Z</time>
      </trkpt>
      <trkpt lat="47.15167" lon="5.73776">
        <ele>209</ele>
        <time>2019-08-17T16:16:03Z</time>
      </trkpt>
      <trkpt lat="47.15167" lon="5.73769">
        <ele>209</ele>
        <time>2019-08-17T16:16:04Z</time>
      </trkpt>
      <trkpt lat="47.15167" lon="5.73759">
        <ele>208.9</ele>
        <time>2019-08-17T16:16:05Z</time>
      </trkpt>
      <trkpt lat="47.15167" lon="5.73752">
        <ele>208.9</ele>
        <time>2019-08-17T16:16:06Z</time>
      </trkpt>
      <trkpt lat="47.15166" lon="5.73744">
        <ele>208.9</ele>
        <time>2019-08-17T16:16:07Z</time>
      </trkpt>
      <trkpt lat="47.15165" lon="5.73738">
        <ele>208.8</ele>
        <time>2019-08-17T16:16:08Z</time>
      </trkpt>
      <trkpt lat="47.15165" lon="5.73731">
        <ele>208.8</ele>
        <time>2019-08-17T16:16:09Z</time>
      </trkpt>
      <trkpt lat="47.15163" lon="5.73723">
        <ele>208.8</ele>
        <time>2019-08-17T16:16:10Z</time>
      </trkpt>
      <trkpt lat="47.15162" lon="5.73713">
        <ele>208.8</ele>
        <time>2019-08-17T16:16:11Z</time>
      </trkpt>
      <trkpt lat="47.1516" lon="5.73705">
        <ele>208.8</ele>
        <time>2019-08-17T16:16:12Z</time>
      </trkpt>
      <trkpt lat="47.15158" lon="5.73698">
        <ele>208.8</ele>
        <time>2019-08-17T16:16:13Z</time>
      </trkpt>
      <trkpt lat="47.15156" lon="5.73689">
        <ele>208.8</ele>
        <time>2019-08-17T16:16:14Z</time>
      </trkpt>
      <trkpt lat="47.15154" lon="5.73681">
        <ele>208.8</ele>
        <time>2019-08-17T16:16:15Z</time>
      </trkpt>
      <trkpt lat="47.15152" lon="5.73673">
        <ele>208.8</ele>
        <time>2019-08-17T16:16:16Z</time>
      </trkpt>
      <trkpt lat="47.15151" lon="5.73666">
        <ele>208.8</ele>
        <time>2019-08-17T16:16:17Z</time>
      </trkpt>
      <trkpt lat="47.1515" lon="5.73659">
        <ele>208.7</ele>
        <time>2019-08-17T16:16:18Z</time>
      </trkpt>
      <trkpt lat="47.15148" lon="5.73651">
        <ele>208.7</ele>
        <time>2019-08-17T16:16:19Z</time>
      </trkpt>
      <trkpt lat="47.15146" lon="5.73644">
        <ele>208.7</ele>
        <time>2019-08-17T16:16:20Z</time>
      </trkpt>
      <trkpt lat="47.15144" lon="5.73636">
        <ele>208.7</ele>
        <time>2019-08-17T16:16:21Z</time>
      </trkpt>
      <trkpt lat="47.15141" lon="5.73628">
        <ele>208.7</ele>
        <time>2019-08-17T16:16:22Z</time>
      </trkpt>
      <trkpt lat="47.1514" lon="5.7362">
        <ele>208.7</ele>
        <time>2019-08-17T16:16:23Z</time>
      </trkpt>
      <trkpt lat="47.15137" lon="5.73612">
        <ele>208.7</ele>
        <time>2019-08-17T16:16:24Z</time>
      </trkpt>
      <trkpt lat="47.15136" lon="5.73604">
        <ele>208.7</ele>
        <time>2019-08-17T16:16:25Z</time>
      </trkpt>
      <trkpt lat="47.15133" lon="5.73597">
        <ele>208.7</ele>
        <time>2019-08-17T16:16:26Z</time>
      </trkpt>
      <trkpt lat="47.15131" lon="5.7359">
        <ele>208.7</ele>
        <time>2019-08-17T16:16:27Z</time>
      </trkpt>
      <trkpt lat="47.15129" lon="5.73582">
        <ele>208.7</ele>
        <time>2019-08-17T16:16:28Z</time>
      </trkpt>
      <trkpt lat="47.15126" lon="5.73575">
        <ele>208.6</ele>
        <time>2019-08-17T16:16:29Z</time>
      </trkpt>
      <trkpt lat="47.15124" lon="5.73567">
        <ele>208.6</ele>
        <time>2019-08-17T16:16:30Z</time>
      </trkpt>
      <trkpt lat="47.1512" lon="5.73559">
        <ele>208.6</ele>
        <time>2019-08-17T16:16:31Z</time>
      </trkpt>
      <trkpt lat="47.15117" lon="5.73551">
        <ele>208.6</ele>
        <time>2019-08-17T16:16:32Z</time>
      </trkpt>
      <trkpt lat="47.15114" lon="5.73544">
        <ele>208.6</ele>
        <time>2019-08-17T16:16:33Z</time>
      </trkpt>
      <trkpt lat="47.15112" lon="5.73536">
        <ele>208.6</ele>
        <time>2019-08-17T16:16:34Z</time>
      </trkpt>
      <trkpt lat="47.1511" lon="5.73528">
        <ele>208.6</ele>
        <time>2019-08-17T16:16:35Z</time>
      </trkpt>
      <trkpt lat="47.15107" lon="5.73521">
        <ele>208.6</ele>
        <time>2019-08-17T16:16:36Z</time>
      </trkpt>
      <trkpt lat="47.15106" lon="5.73513">
        <ele>208.6</ele>
        <time>2019-08-17T16:16:37Z</time>
      </trkpt>
      <trkpt lat="47.15104" lon="5.73506">
        <ele>208.6</ele>
        <time>2019-08-17T16:16:38Z</time>
      </trkpt>
      <trkpt lat="47.15102" lon="5.735">
        <ele>208.6</ele>
        <time>2019-08-17T16:16:39Z</time>
      </trkpt>
      <trkpt lat="47.15101" lon="5.73493">
        <ele>208.5</ele>
        <time>2019-08-17T16:16:40Z</time>
      </trkpt>
      <trkpt lat="47.15099" lon="5.73486">
        <ele>208.5</ele>
        <time>2019-08-17T16:16:41Z</time>
      </trkpt>
      <trkpt lat="47.15097" lon="5.73479">
        <ele>208.5</ele>
        <time>2019-08-17T16:16:42Z</time>
      </trkpt>
      <trkpt lat="47.15095" lon="5.7347">
        <ele>208.5</ele>
        <time>2019-08-17T16:16:43Z</time>
      </trkpt>
      <trkpt lat="47.15093" lon="5.73463">
        <ele>208.5</ele>
        <time>2019-08-17T16:16:44Z</time>
      </trkpt>
      <trkpt lat="47.15091" lon="5.73454">
        <ele>208.5</ele>
        <time>2019-08-17T16:16:45Z</time>
      </trkpt>
      <trkpt lat="47.15089" lon="5.73446">
        <ele>208.5</ele>
        <time>2019-08-17T16:16:46Z</time>
      </trkpt>
      <trkpt lat="47.15087" lon="5.7344">
        <ele>208.5</ele>
        <time>2019-08-17T16:16:47Z</time>
      </trkpt>
      <trkpt lat="47.15083" lon="5.73431">
        <ele>208.5</ele>
        <time>2019-08-17T16:16:48Z</time>
      </trkpt>
      <trkpt lat="47.1508" lon="5.73423">
        <ele>208.5</ele>
        <time>2019-08-17T16:16:49Z</time>
      </trkpt>
      <trkpt lat="47.15077" lon="5.73416">
        <ele>208.4</ele>
        <time>2019-08-17T16:16:50Z</time>
      </trkpt>
      <trkpt lat="47.15076" lon="5.73408">
        <ele>208.4</ele>
        <time>2019-08-17T16:16:51Z</time>
      </trkpt>
      <trkpt lat="47.15074" lon="5.73403">
        <ele>208.4</ele>
        <time>2019-08-17T16:16:52Z</time>
      </trkpt>
      <trkpt lat="47.15072" lon="5.73397">
        <ele>208.4</ele>
        <time>2019-08-17T16:16:53Z</time>
      </trkpt>
      <trkpt lat="47.1507" lon="5.7339">
        <ele>208.4</ele>
        <time>2019-08-17T16:16:54Z</time>
      </trkpt>
      <trkpt lat="47.15068" lon="5.73383">
        <ele>208.4</ele>
        <time>2019-08-17T16:16:55Z</time>
      </trkpt>
      <trkpt lat="47.15065" lon="5.73376">
        <ele>208.4</ele>
        <time>2019-08-17T16:16:56Z</time>
      </trkpt>
      <trkpt lat="47.15063" lon="5.73368">
        <ele>208.4</ele>
        <time>2019-08-17T16:16:57Z</time>
      </trkpt>
      <trkpt lat="47.15061" lon="5.73361">
        <ele>208.4</ele>
        <time>2019-08-17T16:16:58Z</time>
      </trkpt>
      <trkpt lat="47.15059" lon="5.73353">
        <ele>208.4</ele>
        <time>2019-08-17T16:16:59Z</time>
      </trkpt>
      <trkpt lat="47.15057" lon="5.73346">
        <ele>208.4</ele>
        <time>2019-08-17T16:17:00Z</time>
      </trkpt>
      <trkpt lat="47.15054" lon="5.73336">
        <ele>208.4</ele>
        <time>2019-08-17T16:17:01Z</time>
      </trkpt>
      <trkpt lat="47.15051" lon="5.73328">
        <ele>208.3</ele>
        <time>2019-08-17T16:17:02Z</time>
      </trkpt>
      <trkpt lat="47.15048" lon="5.73321">
        <ele>208.3</ele>
        <time>2019-08-17T16:17:03Z</time>
      </trkpt>
      <trkpt lat="47.15045" lon="5.73314">
        <ele>208.3</ele>
        <time>2019-08-17T16:17:04Z</time>
      </trkpt>
      <trkpt lat="47.15043" lon="5.73307">
        <ele>208.3</ele>
        <time>2019-08-17T16:17:05Z</time>
      </trkpt>
      <trkpt lat="47.1504" lon="5.73299">
        <ele>208.3</ele>
        <time>2019-08-17T16:17:06Z</time>
      </trkpt>
      <trkpt lat="47.15038" lon="5.73293">
        <ele>208.3</ele>
        <time>2019-08-17T16:17:07Z</time>
      </trkpt>
      <trkpt lat="47.15034" lon="5.73285">
        <ele>208.3</ele>
        <time>2019-08-17T16:17:08Z</time>
      </trkpt>
      <trkpt lat="47.15031" lon="5.73276">
        <ele>208.2</ele>
        <time>2019-08-17T16:17:09Z</time>
      </trkpt>
      <trkpt lat="47.15028" lon="5.73267">
        <ele>208.2</ele>
        <time>2019-08-17T16:17:10Z</time>
      </trkpt>
      <trkpt lat="47.15025" lon="5.7326">
        <ele>208.1</ele>
        <time>2019-08-17T16:17:11Z</time>
      </trkpt>
      <trkpt lat="47.15022" lon="5.73252">
        <ele>208</ele>
        <time>2019-08-17T16:17:12Z</time>
      </trkpt>
      <trkpt lat="47.1502" lon="5.73244">
        <ele>207.8</ele>
        <time>2019-08-17T16:17:13Z</time>
      </trkpt>
      <trkpt lat="47.15017" lon="5.73237">
        <ele>207.7</ele>
        <time>2019-08-17T16:17:14Z</time>
      </trkpt>
      <trkpt lat="47.15015" lon="5.7323">
        <ele>207.6</ele>
        <time>2019-08-17T16:17:15Z</time>
      </trkpt>
      <trkpt lat="47.15012" lon="5.73224">
        <ele>207.5</ele>
        <time>2019-08-17T16:17:16Z</time>
      </trkpt>
      <trkpt lat="47.15009" lon="5.73217">
        <ele>207.3</ele>
        <time>2019-08-17T16:17:17Z</time>
      </trkpt>
      <trkpt lat="47.15006" lon="5.73209">
        <ele>207.2</ele>
        <time>2019-08-17T16:17:18Z</time>
      </trkpt>
      <trkpt lat="47.15003" lon="5.73202">
        <ele>207.1</ele>
        <time>2019-08-17T16:17:19Z</time>
      </trkpt>
      <trkpt lat="47.15" lon="5.73194">
        <ele>207</ele>
        <time>2019-08-17T16:17:20Z</time>
      </trkpt>
      <trkpt lat="47.14997" lon="5.73186">
        <ele>206.9</ele>
        <time>2019-08-17T16:17:21Z</time>
      </trkpt>
      <trkpt lat="47.14994" lon="5.73179">
        <ele>206.8</ele>
        <time>2019-08-17T16:17:22Z</time>
      </trkpt>
      <trkpt lat="47.14991" lon="5.73172">
        <ele>206.7</ele>
        <time>2019-08-17T16:17:23Z</time>
      </trkpt>
      <trkpt lat="47.14987" lon="5.73165">
        <ele>206.6</ele>
        <time>2019-08-17T16:17:24Z</time>
      </trkpt>
      <trkpt lat="47.14984" lon="5.73158">
        <ele>206.5</ele>
        <time>2019-08-17T16:17:25Z</time>
      </trkpt>
      <trkpt lat="47.14981" lon="5.7315">
        <ele>206.4</ele>
        <time>2019-08-17T16:17:26Z</time>
      </trkpt>
      <trkpt lat="47.14979" lon="5.73143">
        <ele>206.4</ele>
        <time>2019-08-17T16:17:27Z</time>
      </trkpt>
      <trkpt lat="47.14976" lon="5.73135">
        <ele>206.4</ele>
        <time>2019-08-17T16:17:28Z</time>
      </trkpt>
      <trkpt lat="47.14973" lon="5.73128">
        <ele>206.5</ele>
        <time>2019-08-17T16:17:29Z</time>
      </trkpt>
      <trkpt lat="47.14969" lon="5.73121">
        <ele>206.5</ele>
        <time>2019-08-17T16:17:30Z</time>
      </trkpt>
      <trkpt lat="47.14966" lon="5.73116">
        <ele>206.6</ele>
        <time>2019-08-17T16:17:31Z</time>
      </trkpt>
      <trkpt lat="47.14963" lon="5.7311">
        <ele>206.7</ele>
        <time>2019-08-17T16:17:32Z</time>
      </trkpt>
      <trkpt lat="47.14959" lon="5.73103">
        <ele>206.8</ele>
        <time>2019-08-17T16:17:33Z</time>
      </trkpt>
      <trkpt lat="47.14954" lon="5.73097">
        <ele>206.8</ele>
        <time>2019-08-17T16:17:34Z</time>
      </trkpt>
      <trkpt lat="47.14951" lon="5.73092">
        <ele>206.9</ele>
        <time>2019-08-17T16:17:35Z</time>
      </trkpt>
      <trkpt lat="47.14947" lon="5.73086">
        <ele>206.9</ele>
        <time>2019-08-17T16:17:36Z</time>
      </trkpt>
      <trkpt lat="47.14943" lon="5.7308">
        <ele>206.9</ele>
        <time>2019-08-17T16:17:37Z</time>
      </trkpt>
      <trkpt lat="47.1494" lon="5.73075">
        <ele>206.9</ele>
        <time>2019-08-17T16:17:38Z</time>
      </trkpt>
      <trkpt lat="47.14936" lon="5.73069">
        <ele>206.9</ele>
        <time>2019-08-17T16:17:39Z</time>
      </trkpt>
      <trkpt lat="47.14933" lon="5.73064">
        <ele>206.9</ele>
        <time>2019-08-17T16:17:40Z</time>
      </trkpt>
      <trkpt lat="47.1493" lon="5.73058">
        <ele>206.9</ele>
        <time>2019-08-17T16:17:41Z</time>
      </trkpt>
      <trkpt lat="47.14926" lon="5.73051">
        <ele>206.9</ele>
        <time>2019-08-17T16:17:42Z</time>
      </trkpt>
      <trkpt lat="47.14922" lon="5.73045">
        <ele>206.9</ele>
        <time>2019-08-17T16:17:43Z</time>
      </trkpt>
      <trkpt lat="47.14917" lon="5.73038">
        <ele>206.8</ele>
        <time>2019-08-17T16:17:44Z</time>
      </trkpt>
      <trkpt lat="47.14913" lon="5.73032">
        <ele>206.8</ele>
        <time>2019-08-17T16:17:45Z</time>
      </trkpt>
      <trkpt lat="47.1491" lon="5.73026">
        <ele>206.8</ele>
        <time>2019-08-17T16:17:46Z</time>
      </trkpt>
      <trkpt lat="47.14906" lon="5.73019">
        <ele>206.8</ele>
        <time>2019-08-17T16:17:47Z</time>
      </trkpt>
      <trkpt lat="47.14901" lon="5.73012">
        <ele>206.8</ele>
        <time>2019-08-17T16:17:48Z</time>
      </trkpt>
      <trkpt lat="47.14896" lon="5.73003">
        <ele>206.8</ele>
        <time>2019-08-17T16:17:49Z</time>
      </trkpt>
      <trkpt lat="47.14891" lon="5.72997">
        <ele>206.8</ele>
        <time>2019-08-17T16:17:50Z</time>
      </trkpt>
      <trkpt lat="47.14887" lon="5.72991">
        <ele>206.8</ele>
        <time>2019-08-17T16:17:51Z</time>
      </trkpt>
      <trkpt lat="47.14883" lon="5.72984">
        <ele>206.8</ele>
        <time>2019-08-17T16:17:52Z</time>
      </trkpt>
      <trkpt lat="47.1488" lon="5.72977">
        <ele>206.8</ele>
        <time>2019-08-17T16:17:53Z</time>
      </trkpt>
      <trkpt lat="47.14876" lon="5.72969">
        <ele>206.7</ele>
        <time>2019-08-17T16:17:54Z</time>
      </trkpt>
      <trkpt lat="47.14872" lon="5.72962">
        <ele>206.7</ele>
        <time>2019-08-17T16:17:55Z</time>
      </trkpt>
      <trkpt lat="47.14868" lon="5.72954">
        <ele>206.7</ele>
        <time>2019-08-17T16:17:56Z</time>
      </trkpt>
      <trkpt lat="47.14865" lon="5.72947">
        <ele>206.7</ele>
        <time>2019-08-17T16:17:57Z</time>
      </trkpt>
      <trkpt lat="47.14862" lon="5.72939">
        <ele>206.7</ele>
        <time>2019-08-17T16:17:58Z</time>
      </trkpt>
      <trkpt lat="47.1486" lon="5.72933">
        <ele>206.7</ele>
        <time>2019-08-17T16:17:59Z</time>
      </trkpt>
      <trkpt lat="47.14857" lon="5.72926">
        <ele>206.7</ele>
        <time>2019-08-17T16:18:00Z</time>
      </trkpt>
      <trkpt lat="47.14854" lon="5.72918">
        <ele>206.7</ele>
        <time>2019-08-17T16:18:01Z</time>
      </trkpt>
      <trkpt lat="47.14851" lon="5.72912">
        <ele>206.7</ele>
        <time>2019-08-17T16:18:02Z</time>
      </trkpt>
      <trkpt lat="47.14848" lon="5.72903">
        <ele>206.7</ele>
        <time>2019-08-17T16:18:03Z</time>
      </trkpt>
      <trkpt lat="47.14846" lon="5.72896">
        <ele>206.6</ele>
        <time>2019-08-17T16:18:04Z</time>
      </trkpt>
      <trkpt lat="47.14843" lon="5.72887">
        <ele>206.6</ele>
        <time>2019-08-17T16:18:05Z</time>
      </trkpt>
      <trkpt lat="47.14841" lon="5.72879">
        <ele>206.6</ele>
        <time>2019-08-17T16:18:06Z</time>
      </trkpt>
      <trkpt lat="47.14839" lon="5.72871">
        <ele>206.6</ele>
        <time>2019-08-17T16:18:07Z</time>
      </trkpt>
      <trkpt lat="47.14836" lon="5.72863">
        <ele>206.6</ele>
        <time>2019-08-17T16:18:08Z</time>
      </trkpt>
      <trkpt lat="47.14834" lon="5.72855">
        <ele>206.6</ele>
        <time>2019-08-17T16:18:09Z</time>
      </trkpt>
      <trkpt lat="47.14832" lon="5.72847">
        <ele>206.6</ele>
        <time>2019-08-17T16:18:10Z</time>
      </trkpt>
      <trkpt lat="47.14831" lon="5.72839">
        <ele>206.6</ele>
        <time>2019-08-17T16:18:11Z</time>
      </trkpt>
      <trkpt lat="47.14829" lon="5.72831">
        <ele>206.7</ele>
        <time>2019-08-17T16:18:12Z</time>
      </trkpt>
      <trkpt lat="47.14828" lon="5.72823">
        <ele>206.9</ele>
        <time>2019-08-17T16:18:13Z</time>
      </trkpt>
      <trkpt lat="47.14827" lon="5.72816">
        <ele>207.2</ele>
        <time>2019-08-17T16:18:14Z</time>
      </trkpt>
      <trkpt lat="47.14827" lon="5.72808">
        <ele>207.4</ele>
        <time>2019-08-17T16:18:15Z</time>
      </trkpt>
      <trkpt lat="47.14826" lon="5.72799">
        <ele>207.7</ele>
        <time>2019-08-17T16:18:16Z</time>
      </trkpt>
      <trkpt lat="47.14826" lon="5.72791">
        <ele>208</ele>
        <time>2019-08-17T16:18:17Z</time>
      </trkpt>
      <trkpt lat="47.14825" lon="5.72783">
        <ele>208.3</ele>
        <time>2019-08-17T16:18:18Z</time>
      </trkpt>
      <trkpt lat="47.14825" lon="5.72775">
        <ele>208.7</ele>
        <time>2019-08-17T16:18:19Z</time>
      </trkpt>
      <trkpt lat="47.14824" lon="5.72767">
        <ele>209.1</ele>
        <time>2019-08-17T16:18:20Z</time>
      </trkpt>
      <trkpt lat="47.14825" lon="5.72759">
        <ele>209.4</ele>
        <time>2019-08-17T16:18:21Z</time>
      </trkpt>
      <trkpt lat="47.14825" lon="5.72751">
        <ele>209.8</ele>
        <time>2019-08-17T16:18:22Z</time>
      </trkpt>
      <trkpt lat="47.14825" lon="5.72742">
        <ele>210.1</ele>
        <time>2019-08-17T16:18:23Z</time>
      </trkpt>
      <trkpt lat="47.14825" lon="5.72735">
        <ele>210.5</ele>
        <time>2019-08-17T16:18:24Z</time>
      </trkpt>
      <trkpt lat="47.14825" lon="5.72726">
        <ele>210.8</ele>
        <time>2019-08-17T16:18:25Z</time>
      </trkpt>
      <trkpt lat="47.14825" lon="5.72717">
        <ele>211.2</ele>
        <time>2019-08-17T16:18:26Z</time>
      </trkpt>
      <trkpt lat="47.14826" lon="5.72709">
        <ele>211.5</ele>
        <time>2019-08-17T16:18:27Z</time>
      </trkpt>
      <trkpt lat="47.14826" lon="5.727">
        <ele>211.9</ele>
        <time>2019-08-17T16:18:28Z</time>
      </trkpt>
      <trkpt lat="47.14827" lon="5.72693">
        <ele>212.2</ele>
        <time>2019-08-17T16:18:29Z</time>
      </trkpt>
      <trkpt lat="47.14827" lon="5.72685">
        <ele>212.6</ele>
        <time>2019-08-17T16:18:30Z</time>
      </trkpt>
      <trkpt lat="47.14827" lon="5.72677">
        <ele>213</ele>
        <time>2019-08-17T16:18:31Z</time>
      </trkpt>
      <trkpt lat="47.14827" lon="5.72669">
        <ele>213.3</ele>
        <time>2019-08-17T16:18:32Z</time>
      </trkpt>
      <trkpt lat="47.14827" lon="5.72661">
        <ele>213.8</ele>
        <time>2019-08-17T16:18:33Z</time>
      </trkpt>
      <trkpt lat="47.14828" lon="5.72654">
        <ele>214.1</ele>
        <time>2019-08-17T16:18:34Z</time>
      </trkpt>
      <trkpt lat="47.14829" lon="5.72647">
        <ele>214.4</ele>
        <time>2019-08-17T16:18:35Z</time>
      </trkpt>
      <trkpt lat="47.1483" lon="5.7264">
        <ele>214.7</ele>
        <time>2019-08-17T16:18:36Z</time>
      </trkpt>
      <trkpt lat="47.14832" lon="5.72633">
        <ele>215</ele>
        <time>2019-08-17T16:18:37Z</time>
      </trkpt>
      <trkpt lat="47.14833" lon="5.72626">
        <ele>215.3</ele>
        <time>2019-08-17T16:18:38Z</time>
      </trkpt>
      <trkpt lat="47.14835" lon="5.7262">
        <ele>215.5</ele>
        <time>2019-08-17T16:18:39Z</time>
      </trkpt>
      <trkpt lat="47.14836" lon="5.72614">
        <ele>215.8</ele>
        <time>2019-08-17T16:18:40Z</time>
      </trkpt>
      <trkpt lat="47.14837" lon="5.72608">
        <ele>216.1</ele>
        <time>2019-08-17T16:18:41Z</time>
      </trkpt>
      <trkpt lat="47.14837" lon="5.72602">
        <ele>216.4</ele>
        <time>2019-08-17T16:18:42Z</time>
      </trkpt>
      <trkpt lat="47.14838" lon="5.72597">
        <ele>216.7</ele>
        <time>2019-08-17T16:18:43Z</time>
      </trkpt>
      <trkpt lat="47.14839" lon="5.7259">
        <ele>217.1</ele>
        <time>2019-08-17T16:18:44Z</time>
      </trkpt>
      <trkpt lat="47.14839" lon="5.72583">
        <ele>217.6</ele>
        <time>2019-08-17T16:18:45Z</time>
      </trkpt>
      <trkpt lat="47.1484" lon="5.72575">
        <ele>217.3</ele>
        <time>2019-08-17T16:18:46Z</time>
      </trkpt>
      <trkpt lat="47.1484" lon="5.72568">
        <ele>217.2</ele>
        <time>2019-08-17T16:18:47Z</time>
      </trkpt>
      <trkpt lat="47.1484" lon="5.72561">
        <ele>217.1</ele>
        <time>2019-08-17T16:18:48Z</time>
      </trkpt>
      <trkpt lat="47.1484" lon="5.72553">
        <ele>216.9</ele>
        <time>2019-08-17T16:18:49Z</time>
      </trkpt>
      <trkpt lat="47.14839" lon="5.72545">
        <ele>216.7</ele>
        <time>2019-08-17T16:18:50Z</time>
      </trkpt>
      <trkpt lat="47.14838" lon="5.72538">
        <ele>216.6</ele>
        <time>2019-08-17T16:18:51Z</time>
      </trkpt>
      <trkpt lat="47.14837" lon="5.7253">
        <ele>216.4</ele>
        <time>2019-08-17T16:18:52Z</time>
      </trkpt>
      <trkpt lat="47.14836" lon="5.72523">
        <ele>216.3</ele>
        <time>2019-08-17T16:18:53Z</time>
      </trkpt>
      <trkpt lat="47.14835" lon="5.72517">
        <ele>216.2</ele>
        <time>2019-08-17T16:18:54Z</time>
      </trkpt>
      <trkpt lat="47.14835" lon="5.7251">
        <ele>216.1</ele>
        <time>2019-08-17T16:18:55Z</time>
      </trkpt>
      <trkpt lat="47.14835" lon="5.72504">
        <ele>216</ele>
        <time>2019-08-17T16:18:56Z</time>
      </trkpt>
      <trkpt lat="47.14836" lon="5.72498">
        <ele>215.8</ele>
        <time>2019-08-17T16:18:57Z</time>
      </trkpt>
      <trkpt lat="47.14836" lon="5.72493">
        <ele>215.7</ele>
        <time>2019-08-17T16:18:58Z</time>
      </trkpt>
      <trkpt lat="47.14836" lon="5.72486">
        <ele>215.6</ele>
        <time>2019-08-17T16:18:59Z</time>
      </trkpt>
      <trkpt lat="47.14836" lon="5.72479">
        <ele>215.5</ele>
        <time>2019-08-17T16:19:00Z</time>
      </trkpt>
      <trkpt lat="47.14836" lon="5.72474">
        <ele>215.4</ele>
        <time>2019-08-17T16:19:01Z</time>
      </trkpt>
      <trkpt lat="47.14836" lon="5.72468">
        <ele>215.2</ele>
        <time>2019-08-17T16:19:02Z</time>
      </trkpt>
      <trkpt lat="47.14836" lon="5.72462">
        <ele>215.1</ele>
        <time>2019-08-17T16:19:03Z</time>
      </trkpt>
      <trkpt lat="47.14837" lon="5.72457">
        <ele>215</ele>
        <time>2019-08-17T16:19:04Z</time>
      </trkpt>
      <trkpt lat="47.14836" lon="5.7245">
        <ele>214.9</ele>
        <time>2019-08-17T16:19:05Z</time>
      </trkpt>
      <trkpt lat="47.14836" lon="5.72445">
        <ele>214.7</ele>
        <time>2019-08-17T16:19:06Z</time>
      </trkpt>
      <trkpt lat="47.14837" lon="5.72438">
        <ele>214.6</ele>
        <time>2019-08-17T16:19:08Z</time>
      </trkpt>
      <trkpt lat="47.14838" lon="5.72429">
        <ele>214.4</ele>
        <time>2019-08-17T16:19:12Z</time>
      </trkpt>
      <trkpt lat="47.14837" lon="5.72426">
        <ele>214.4</ele>
        <time>2019-08-17T16:19:13Z</time>
      </trkpt>
      <trkpt lat="47.14834" lon="5.72424">
        <ele>214.3</ele>
        <time>2019-08-17T16:19:15Z</time>
      </trkpt>
      <trkpt lat="47.14831" lon="5.72424">
        <ele>214.2</ele>
        <time>2019-08-17T16:19:16Z</time>
      </trkpt>
      <trkpt lat="47.14827" lon="5.72424">
        <ele>214.1</ele>
        <time>2019-08-17T16:19:18Z</time>
      </trkpt>
      <trkpt lat="47.14822" lon="5.72421">
        <ele>214.1</ele>
        <time>2019-08-17T16:19:20Z</time>
      </trkpt>
      <trkpt lat="47.14818" lon="5.72421">
        <ele>214</ele>
        <time>2019-08-17T16:19:21Z</time>
      </trkpt>
      <trkpt lat="47.14815" lon="5.72419">
        <ele>214</ele>
        <time>2019-08-17T16:19:22Z</time>
      </trkpt>
      <trkpt lat="47.14811" lon="5.7242">
        <ele>214</ele>
        <time>2019-08-17T16:19:23Z</time>
      </trkpt>
      <trkpt lat="47.14808" lon="5.72423">
        <ele>214</ele>
        <time>2019-08-17T16:19:24Z</time>
      </trkpt>
      <trkpt lat="47.14805" lon="5.72429">
        <ele>213.9</ele>
        <time>2019-08-17T16:19:25Z</time>
      </trkpt>
      <trkpt lat="47.14802" lon="5.72435">
        <ele>213.9</ele>
        <time>2019-08-17T16:19:26Z</time>
      </trkpt>
      <trkpt lat="47.14801" lon="5.72439">
        <ele>213.8</ele>
        <time>2019-08-17T16:19:27Z</time>
      </trkpt>
      <trkpt lat="47.14801" lon="5.72446">
        <ele>213.8</ele>
        <time>2019-08-17T16:19:29Z</time>
      </trkpt>
      <trkpt lat="47.14801" lon="5.72451">
        <ele>213.8</ele>
        <time>2019-08-17T16:19:30Z</time>
      </trkpt>
      <trkpt lat="47.14799" lon="5.72456">
        <ele>213.8</ele>
        <time>2019-08-17T16:19:31Z</time>
      </trkpt>
      <trkpt lat="47.14797" lon="5.72463">
        <ele>213.7</ele>
        <time>2019-08-17T16:19:32Z</time>
      </trkpt>
      <trkpt lat="47.14795" lon="5.72469">
        <ele>213.7</ele>
        <time>2019-08-17T16:19:33Z</time>
      </trkpt>
      <trkpt lat="47.14794" lon="5.72474">
        <ele>213.7</ele>
        <time>2019-08-17T16:19:34Z</time>
      </trkpt>
      <trkpt lat="47.14793" lon="5.7248">
        <ele>213.7</ele>
        <time>2019-08-17T16:19:35Z</time>
      </trkpt>
      <trkpt lat="47.14792" lon="5.72485">
        <ele>213.7</ele>
        <time>2019-08-17T16:19:36Z</time>
      </trkpt>
      <trkpt lat="47.14791" lon="5.72491">
        <ele>213.7</ele>
        <time>2019-08-17T16:19:37Z</time>
      </trkpt>
      <trkpt lat="47.1479" lon="5.72496">
        <ele>213.7</ele>
        <time>2019-08-17T16:19:38Z</time>
      </trkpt>
      <trkpt lat="47.1479" lon="5.72501">
        <ele>213.8</ele>
        <time>2019-08-17T16:19:39Z</time>
      </trkpt>
      <trkpt lat="47.14789" lon="5.72505">
        <ele>213.8</ele>
        <time>2019-08-17T16:19:40Z</time>
      </trkpt>
      <trkpt lat="47.14789" lon="5.72509">
        <ele>213.9</ele>
        <time>2019-08-17T16:19:41Z</time>
      </trkpt>
      <trkpt lat="47.14789" lon="5.72516">
        <ele>214</ele>
        <time>2019-08-17T16:19:43Z</time>
      </trkpt>
      <trkpt lat="47.14789" lon="5.72522">
        <ele>214.1</ele>
        <time>2019-08-17T16:19:45Z</time>
      </trkpt>
      <trkpt lat="47.14788" lon="5.72529">
        <ele>214.2</ele>
        <time>2019-08-17T16:19:47Z</time>
      </trkpt>
      <trkpt lat="47.14787" lon="5.72533">
        <ele>214.3</ele>
        <time>2019-08-17T16:19:48Z</time>
      </trkpt>
      <trkpt lat="47.14785" lon="5.72537">
        <ele>214.3</ele>
        <time>2019-08-17T16:19:49Z</time>
      </trkpt>
      <trkpt lat="47.14782" lon="5.72544">
        <ele>214.5</ele>
        <time>2019-08-17T16:19:51Z</time>
      </trkpt>
      <trkpt lat="47.14779" lon="5.72548">
        <ele>214.8</ele>
        <time>2019-08-17T16:19:53Z</time>
      </trkpt>
      <trkpt lat="47.14777" lon="5.72551">
        <ele>215.1</ele>
        <time>2019-08-17T16:19:55Z</time>
      </trkpt>
      <trkpt lat="47.14775" lon="5.72556">
        <ele>215.3</ele>
        <time>2019-08-17T16:19:57Z</time>
      </trkpt>
      <trkpt lat="47.14772" lon="5.72561">
        <ele>215.5</ele>
        <time>2019-08-17T16:19:59Z</time>
      </trkpt>
      <trkpt lat="47.1477" lon="5.72565">
        <ele>215.6</ele>
        <time>2019-08-17T16:20:01Z</time>
      </trkpt>
      <trkpt lat="47.14769" lon="5.7257">
        <ele>215.6</ele>
        <time>2019-08-17T16:20:03Z</time>
      </trkpt>
      <trkpt lat="47.14767" lon="5.72575">
        <ele>215.7</ele>
        <time>2019-08-17T16:20:05Z</time>
      </trkpt>
      <trkpt lat="47.14766" lon="5.7258">
        <ele>215.6</ele>
        <time>2019-08-17T16:20:07Z</time>
      </trkpt>
      <trkpt lat="47.14764" lon="5.72583">
        <ele>215.3</ele>
        <time>2019-08-17T16:20:10Z</time>
      </trkpt>
      <trkpt lat="47.14763" lon="5.72587">
        <ele>214.9</ele>
        <time>2019-08-17T16:20:12Z</time>
      </trkpt>
      <trkpt lat="47.1476" lon="5.72589">
        <ele>214.2</ele>
        <time>2019-08-17T16:20:14Z</time>
      </trkpt>
      <trkpt lat="47.14766" lon="5.726">
        <ele>215.3</ele>
        <time>2019-08-17T16:25:49Z</time>
      </trkpt>
      <trkpt lat="47.1477" lon="5.72597">
        <ele>215.8</ele>
        <time>2019-08-17T16:25:51Z</time>
      </trkpt>
      <trkpt lat="47.14772" lon="5.72593">
        <ele>215.7</ele>
        <time>2019-08-17T16:25:52Z</time>
      </trkpt>
      <trkpt lat="47.14773" lon="5.7259">
        <ele>215.6</ele>
        <time>2019-08-17T16:25:53Z</time>
      </trkpt>
      <trkpt lat="47.14775" lon="5.72586">
        <ele>215.6</ele>
        <time>2019-08-17T16:25:54Z</time>
      </trkpt>
      <trkpt lat="47.14776" lon="5.72582">
        <ele>215.6</ele>
        <time>2019-08-17T16:25:55Z</time>
      </trkpt>
      <trkpt lat="47.14777" lon="5.72578">
        <ele>215.5</ele>
        <time>2019-08-17T16:25:56Z</time>
      </trkpt>
      <trkpt lat="47.1478" lon="5.72572">
        <ele>215.3</ele>
        <time>2019-08-17T16:25:58Z</time>
      </trkpt>
      <trkpt lat="47.14781" lon="5.72567">
        <ele>215.1</ele>
        <time>2019-08-17T16:25:59Z</time>
      </trkpt>
      <trkpt lat="47.14782" lon="5.72562">
        <ele>214.9</ele>
        <time>2019-08-17T16:26:00Z</time>
      </trkpt>
      <trkpt lat="47.14783" lon="5.72558">
        <ele>214.6</ele>
        <time>2019-08-17T16:26:01Z</time>
      </trkpt>
      <trkpt lat="47.14784" lon="5.72553">
        <ele>214.5</ele>
        <time>2019-08-17T16:26:02Z</time>
      </trkpt>
      <trkpt lat="47.14786" lon="5.72549">
        <ele>214.4</ele>
        <time>2019-08-17T16:26:03Z</time>
      </trkpt>
      <trkpt lat="47.14787" lon="5.72545">
        <ele>214.3</ele>
        <time>2019-08-17T16:26:04Z</time>
      </trkpt>
      <trkpt lat="47.1479" lon="5.72542">
        <ele>214.2</ele>
        <time>2019-08-17T16:26:05Z</time>
      </trkpt>
      <trkpt lat="47.14791" lon="5.72538">
        <ele>214.2</ele>
        <time>2019-08-17T16:26:06Z</time>
      </trkpt>
      <trkpt lat="47.14792" lon="5.72533">
        <ele>214.2</ele>
        <time>2019-08-17T16:26:07Z</time>
      </trkpt>
      <trkpt lat="47.14793" lon="5.72528">
        <ele>214.1</ele>
        <time>2019-08-17T16:26:08Z</time>
      </trkpt>
      <trkpt lat="47.14792" lon="5.72519">
        <ele>213.9</ele>
        <time>2019-08-17T16:26:10Z</time>
      </trkpt>
      <trkpt lat="47.14792" lon="5.72514">
        <ele>213.8</ele>
        <time>2019-08-17T16:26:11Z</time>
      </trkpt>
      <trkpt lat="47.14792" lon="5.7251">
        <ele>213.8</ele>
        <time>2019-08-17T16:26:12Z</time>
      </trkpt>
      <trkpt lat="47.14792" lon="5.72504">
        <ele>213.7</ele>
        <time>2019-08-17T16:26:13Z</time>
      </trkpt>
      <trkpt lat="47.14793" lon="5.72499">
        <ele>213.7</ele>
        <time>2019-08-17T16:26:14Z</time>
      </trkpt>
      <trkpt lat="47.14794" lon="5.72493">
        <ele>213.7</ele>
        <time>2019-08-17T16:26:15Z</time>
      </trkpt>
      <trkpt lat="47.14794" lon="5.72488">
        <ele>213.7</ele>
        <time>2019-08-17T16:26:16Z</time>
      </trkpt>
      <trkpt lat="47.14794" lon="5.72482">
        <ele>213.7</ele>
        <time>2019-08-17T16:26:17Z</time>
      </trkpt>
      <trkpt lat="47.14795" lon="5.72477">
        <ele>213.7</ele>
        <time>2019-08-17T16:26:18Z</time>
      </trkpt>
      <trkpt lat="47.14796" lon="5.72472">
        <ele>213.7</ele>
        <time>2019-08-17T16:26:19Z</time>
      </trkpt>
      <trkpt lat="47.14798" lon="5.72466">
        <ele>213.7</ele>
        <time>2019-08-17T16:26:20Z</time>
      </trkpt>
      <trkpt lat="47.14798" lon="5.72459">
        <ele>213.7</ele>
        <time>2019-08-17T16:26:21Z</time>
      </trkpt>
      <trkpt lat="47.148" lon="5.72454">
        <ele>213.8</ele>
        <time>2019-08-17T16:26:22Z</time>
      </trkpt>
      <trkpt lat="47.14801" lon="5.72449">
        <ele>213.8</ele>
        <time>2019-08-17T16:26:23Z</time>
      </trkpt>
      <trkpt lat="47.14803" lon="5.72444">
        <ele>213.8</ele>
        <time>2019-08-17T16:26:25Z</time>
      </trkpt>
      <trkpt lat="47.14804" lon="5.7244">
        <ele>213.8</ele>
        <time>2019-08-17T16:26:27Z</time>
      </trkpt>
      <trkpt lat="47.14804" lon="5.72433">
        <ele>213.9</ele>
        <time>2019-08-17T16:26:29Z</time>
      </trkpt>
      <trkpt lat="47.14806" lon="5.72429">
        <ele>213.9</ele>
        <time>2019-08-17T16:26:31Z</time>
      </trkpt>
      <trkpt lat="47.14811" lon="5.72427">
        <ele>214</ele>
        <time>2019-08-17T16:26:33Z</time>
      </trkpt>
      <trkpt lat="47.14814" lon="5.72426">
        <ele>214</ele>
        <time>2019-08-17T16:26:34Z</time>
      </trkpt>
      <trkpt lat="47.14819" lon="5.72428">
        <ele>214</ele>
        <time>2019-08-17T16:26:36Z</time>
      </trkpt>
      <trkpt lat="47.14822" lon="5.72429">
        <ele>214.1</ele>
        <time>2019-08-17T16:26:37Z</time>
      </trkpt>
      <trkpt lat="47.14827" lon="5.72432">
        <ele>214.1</ele>
        <time>2019-08-17T16:26:39Z</time>
      </trkpt>
      <trkpt lat="47.1483" lon="5.72433">
        <ele>214.1</ele>
        <time>2019-08-17T16:26:40Z</time>
      </trkpt>
      <trkpt lat="47.14832" lon="5.72434">
        <ele>214.1</ele>
        <time>2019-08-17T16:26:41Z</time>
      </trkpt>
      <trkpt lat="47.14835" lon="5.72433">
        <ele>214.2</ele>
        <time>2019-08-17T16:26:42Z</time>
      </trkpt>
      <trkpt lat="47.14838" lon="5.72431">
        <ele>214</ele>
        <time>2019-08-17T16:26:43Z</time>
      </trkpt>
      <trkpt lat="47.14839" lon="5.72424">
        <ele>213.3</ele>
        <time>2019-08-17T16:26:44Z</time>
      </trkpt>
      <trkpt lat="47.1484" lon="5.72418">
        <ele>212.8</ele>
        <time>2019-08-17T16:26:45Z</time>
      </trkpt>
      <trkpt lat="47.14841" lon="5.72411">
        <ele>212.2</ele>
        <time>2019-08-17T16:26:46Z</time>
      </trkpt>
      <trkpt lat="47.14841" lon="5.72404">
        <ele>211.7</ele>
        <time>2019-08-17T16:26:47Z</time>
      </trkpt>
      <trkpt lat="47.14843" lon="5.72396">
        <ele>211.2</ele>
        <time>2019-08-17T16:26:48Z</time>
      </trkpt>
      <trkpt lat="47.14844" lon="5.7239">
        <ele>210.9</ele>
        <time>2019-08-17T16:26:49Z</time>
      </trkpt>
      <trkpt lat="47.14845" lon="5.72382">
        <ele>210.7</ele>
        <time>2019-08-17T16:26:50Z</time>
      </trkpt>
      <trkpt lat="47.14847" lon="5.72375">
        <ele>210.5</ele>
        <time>2019-08-17T16:26:51Z</time>
      </trkpt>
      <trkpt lat="47.14848" lon="5.72368">
        <ele>210.3</ele>
        <time>2019-08-17T16:26:52Z</time>
      </trkpt>
      <trkpt lat="47.14849" lon="5.7236">
        <ele>210.2</ele>
        <time>2019-08-17T16:26:53Z</time>
      </trkpt>
      <trkpt lat="47.1485" lon="5.72353">
        <ele>210</ele>
        <time>2019-08-17T16:26:54Z</time>
      </trkpt>
      <trkpt lat="47.14851" lon="5.72346">
        <ele>209.9</ele>
        <time>2019-08-17T16:26:55Z</time>
      </trkpt>
      <trkpt lat="47.14852" lon="5.72339">
        <ele>209.8</ele>
        <time>2019-08-17T16:26:56Z</time>
      </trkpt>
      <trkpt lat="47.14853" lon="5.72332">
        <ele>209.7</ele>
        <time>2019-08-17T16:26:57Z</time>
      </trkpt>
      <trkpt lat="47.14854" lon="5.72325">
        <ele>209.7</ele>
        <time>2019-08-17T16:26:58Z</time>
      </trkpt>
      <trkpt lat="47.14854" lon="5.72317">
        <ele>209.6</ele>
        <time>2019-08-17T16:26:59Z</time>
      </trkpt>
      <trkpt lat="47.14854" lon="5.7231">
        <ele>209.6</ele>
        <time>2019-08-17T16:27:00Z</time>
      </trkpt>
      <trkpt lat="47.14853" lon="5.72302">
        <ele>209.5</ele>
        <time>2019-08-17T16:27:01Z</time>
      </trkpt>
      <trkpt lat="47.14853" lon="5.72295">
        <ele>209.5</ele>
        <time>2019-08-17T16:27:02Z</time>
      </trkpt>
      <trkpt lat="47.14852" lon="5.72288">
        <ele>209.5</ele>
        <time>2019-08-17T16:27:03Z</time>
      </trkpt>
      <trkpt lat="47.14852" lon="5.72281">
        <ele>209.5</ele>
        <time>2019-08-17T16:27:04Z</time>
      </trkpt>
      <trkpt lat="47.14853" lon="5.72274">
        <ele>209.5</ele>
        <time>2019-08-17T16:27:05Z</time>
      </trkpt>
      <trkpt lat="47.14853" lon="5.72267">
        <ele>209.5</ele>
        <time>2019-08-17T16:27:06Z</time>
      </trkpt>
      <trkpt lat="47.14854" lon="5.72261">
        <ele>209.6</ele>
        <time>2019-08-17T16:27:07Z</time>
      </trkpt>
      <trkpt lat="47.14856" lon="5.72256">
        <ele>209.6</ele>
        <time>2019-08-17T16:27:08Z</time>
      </trkpt>
      <trkpt lat="47.14857" lon="5.7225">
        <ele>209.7</ele>
        <time>2019-08-17T16:27:09Z</time>
      </trkpt>
      <trkpt lat="47.14858" lon="5.72243">
        <ele>209.8</ele>
        <time>2019-08-17T16:27:10Z</time>
      </trkpt>
      <trkpt lat="47.1486" lon="5.72236">
        <ele>209.9</ele>
        <time>2019-08-17T16:27:11Z</time>
      </trkpt>
      <trkpt lat="47.14861" lon="5.7223">
        <ele>210</ele>
        <time>2019-08-17T16:27:12Z</time>
      </trkpt>
      <trkpt lat="47.14863" lon="5.72225">
        <ele>210.1</ele>
        <time>2019-08-17T16:27:13Z</time>
      </trkpt>
      <trkpt lat="47.14864" lon="5.7222">
        <ele>210.1</ele>
        <time>2019-08-17T16:27:14Z</time>
      </trkpt>
      <trkpt lat="47.14866" lon="5.72215">
        <ele>210.2</ele>
        <time>2019-08-17T16:27:15Z</time>
      </trkpt>
      <trkpt lat="47.14867" lon="5.72211">
        <ele>210.3</ele>
        <time>2019-08-17T16:27:16Z</time>
      </trkpt>
      <trkpt lat="47.14868" lon="5.72206">
        <ele>210.3</ele>
        <time>2019-08-17T16:27:17Z</time>
      </trkpt>
      <trkpt lat="47.14869" lon="5.722">
        <ele>210.3</ele>
        <time>2019-08-17T16:27:18Z</time>
      </trkpt>
      <trkpt lat="47.1487" lon="5.72194">
        <ele>210.3</ele>
        <time>2019-08-17T16:27:19Z</time>
      </trkpt>
      <trkpt lat="47.14871" lon="5.72187">
        <ele>210.3</ele>
        <time>2019-08-17T16:27:20Z</time>
      </trkpt>
      <trkpt lat="47.14872" lon="5.7218">
        <ele>210.3</ele>
        <time>2019-08-17T16:27:21Z</time>
      </trkpt>
      <trkpt lat="47.14873" lon="5.72173">
        <ele>210.3</ele>
        <time>2019-08-17T16:27:22Z</time>
      </trkpt>
      <trkpt lat="47.14874" lon="5.72166">
        <ele>210.3</ele>
        <time>2019-08-17T16:27:23Z</time>
      </trkpt>
      <trkpt lat="47.14875" lon="5.7216">
        <ele>210.4</ele>
        <time>2019-08-17T16:27:24Z</time>
      </trkpt>
      <trkpt lat="47.14876" lon="5.72153">
        <ele>210.4</ele>
        <time>2019-08-17T16:27:25Z</time>
      </trkpt>
      <trkpt lat="47.14877" lon="5.72147">
        <ele>210.4</ele>
        <time>2019-08-17T16:27:26Z</time>
      </trkpt>
      <trkpt lat="47.14878" lon="5.72141">
        <ele>210.4</ele>
        <time>2019-08-17T16:27:27Z</time>
      </trkpt>
      <trkpt lat="47.14879" lon="5.72134">
        <ele>210.4</ele>
        <time>2019-08-17T16:27:28Z</time>
      </trkpt>
      <trkpt lat="47.14879" lon="5.72128">
        <ele>210.4</ele>
        <time>2019-08-17T16:27:29Z</time>
      </trkpt>
      <trkpt lat="47.1488" lon="5.72121">
        <ele>210.4</ele>
        <time>2019-08-17T16:27:30Z</time>
      </trkpt>
      <trkpt lat="47.14881" lon="5.72115">
        <ele>210.4</ele>
        <time>2019-08-17T16:27:31Z</time>
      </trkpt>
      <trkpt lat="47.14882" lon="5.72108">
        <ele>210.4</ele>
        <time>2019-08-17T16:27:32Z</time>
      </trkpt>
      <trkpt lat="47.14883" lon="5.72101">
        <ele>210.4</ele>
        <time>2019-08-17T16:27:33Z</time>
      </trkpt>
      <trkpt lat="47.14883" lon="5.72094">
        <ele>210.4</ele>
        <time>2019-08-17T16:27:34Z</time>
      </trkpt>
      <trkpt lat="47.14885" lon="5.72088">
        <ele>210.4</ele>
        <time>2019-08-17T16:27:35Z</time>
      </trkpt>
      <trkpt lat="47.14885" lon="5.7208">
        <ele>210.5</ele>
        <time>2019-08-17T16:27:36Z</time>
      </trkpt>
      <trkpt lat="47.14886" lon="5.72072">
        <ele>210.5</ele>
        <time>2019-08-17T16:27:37Z</time>
      </trkpt>
      <trkpt lat="47.14887" lon="5.72065">
        <ele>210.5</ele>
        <time>2019-08-17T16:27:38Z</time>
      </trkpt>
      <trkpt lat="47.14888" lon="5.72058">
        <ele>210.4</ele>
        <time>2019-08-17T16:27:39Z</time>
      </trkpt>
      <trkpt lat="47.14889" lon="5.72052">
        <ele>210.4</ele>
        <time>2019-08-17T16:27:40Z</time>
      </trkpt>
      <trkpt lat="47.1489" lon="5.72046">
        <ele>210.4</ele>
        <time>2019-08-17T16:27:41Z</time>
      </trkpt>
      <trkpt lat="47.14891" lon="5.7204">
        <ele>210.3</ele>
        <time>2019-08-17T16:27:42Z</time>
      </trkpt>
      <trkpt lat="47.14892" lon="5.72033">
        <ele>210.3</ele>
        <time>2019-08-17T16:27:43Z</time>
      </trkpt>
      <trkpt lat="47.14893" lon="5.72025">
        <ele>210.2</ele>
        <time>2019-08-17T16:27:44Z</time>
      </trkpt>
      <trkpt lat="47.14894" lon="5.72019">
        <ele>210.2</ele>
        <time>2019-08-17T16:27:45Z</time>
      </trkpt>
      <trkpt lat="47.14895" lon="5.72012">
        <ele>210.2</ele>
        <time>2019-08-17T16:27:46Z</time>
      </trkpt>
      <trkpt lat="47.14896" lon="5.72006">
        <ele>210.2</ele>
        <time>2019-08-17T16:27:47Z</time>
      </trkpt>
      <trkpt lat="47.14897" lon="5.71999">
        <ele>210.2</ele>
        <time>2019-08-17T16:27:48Z</time>
      </trkpt>
      <trkpt lat="47.14898" lon="5.71993">
        <ele>210.1</ele>
        <time>2019-08-17T16:27:49Z</time>
      </trkpt>
      <trkpt lat="47.14899" lon="5.71986">
        <ele>210.1</ele>
        <time>2019-08-17T16:27:50Z</time>
      </trkpt>
      <trkpt lat="47.149" lon="5.71979">
        <ele>210.1</ele>
        <time>2019-08-17T16:27:51Z</time>
      </trkpt>
      <trkpt lat="47.14902" lon="5.71972">
        <ele>210.1</ele>
        <time>2019-08-17T16:27:52Z</time>
      </trkpt>
      <trkpt lat="47.14903" lon="5.71966">
        <ele>210.1</ele>
        <time>2019-08-17T16:27:53Z</time>
      </trkpt>
      <trkpt lat="47.14905" lon="5.7196">
        <ele>210.1</ele>
        <time>2019-08-17T16:27:54Z</time>
      </trkpt>
      <trkpt lat="47.14906" lon="5.71953">
        <ele>210.1</ele>
        <time>2019-08-17T16:27:55Z</time>
      </trkpt>
      <trkpt lat="47.14907" lon="5.71946">
        <ele>210.1</ele>
        <time>2019-08-17T16:27:56Z</time>
      </trkpt>
      <trkpt lat="47.14908" lon="5.71938">
        <ele>210</ele>
        <time>2019-08-17T16:27:57Z</time>
      </trkpt>
      <trkpt lat="47.14909" lon="5.71931">
        <ele>209.9</ele>
        <time>2019-08-17T16:27:58Z</time>
      </trkpt>
      <trkpt lat="47.1491" lon="5.71923">
        <ele>209.9</ele>
        <time>2019-08-17T16:27:59Z</time>
      </trkpt>
      <trkpt lat="47.1491" lon="5.71917">
        <ele>209.8</ele>
        <time>2019-08-17T16:28:00Z</time>
      </trkpt>
      <trkpt lat="47.1491" lon="5.71909">
        <ele>209.8</ele>
        <time>2019-08-17T16:28:01Z</time>
      </trkpt>
      <trkpt lat="47.14911" lon="5.71901">
        <ele>209.7</ele>
        <time>2019-08-17T16:28:02Z</time>
      </trkpt>
      <trkpt lat="47.14912" lon="5.71894">
        <ele>209.7</ele>
        <time>2019-08-17T16:28:03Z</time>
      </trkpt>
      <trkpt lat="47.14913" lon="5.71888">
        <ele>209.6</ele>
        <time>2019-08-17T16:28:04Z</time>
      </trkpt>
      <trkpt lat="47.14914" lon="5.71881">
        <ele>209.4</ele>
        <time>2019-08-17T16:28:05Z</time>
      </trkpt>
      <trkpt lat="47.14915" lon="5.71874">
        <ele>209.3</ele>
        <time>2019-08-17T16:28:06Z</time>
      </trkpt>
      <trkpt lat="47.14916" lon="5.71867">
        <ele>209.1</ele>
        <time>2019-08-17T16:28:07Z</time>
      </trkpt>
      <trkpt lat="47.14917" lon="5.7186">
        <ele>209.1</ele>
        <time>2019-08-17T16:28:08Z</time>
      </trkpt>
      <trkpt lat="47.14918" lon="5.71853">
        <ele>209.1</ele>
        <time>2019-08-17T16:28:09Z</time>
      </trkpt>
      <trkpt lat="47.14919" lon="5.71847">
        <ele>209.1</ele>
        <time>2019-08-17T16:28:10Z</time>
      </trkpt>
      <trkpt lat="47.1492" lon="5.7184">
        <ele>209.3</ele>
        <time>2019-08-17T16:28:11Z</time>
      </trkpt>
      <trkpt lat="47.14921" lon="5.71832">
        <ele>209.4</ele>
        <time>2019-08-17T16:28:12Z</time>
      </trkpt>
      <trkpt lat="47.14923" lon="5.71825">
        <ele>209.5</ele>
        <time>2019-08-17T16:28:13Z</time>
      </trkpt>
      <trkpt lat="47.14923" lon="5.71818">
        <ele>209.6</ele>
        <time>2019-08-17T16:28:14Z</time>
      </trkpt>
      <trkpt lat="47.14924" lon="5.7181">
        <ele>209.5</ele>
        <time>2019-08-17T16:28:15Z</time>
      </trkpt>
      <trkpt lat="47.14925" lon="5.71804">
        <ele>209.5</ele>
        <time>2019-08-17T16:28:16Z</time>
      </trkpt>
      <trkpt lat="47.14926" lon="5.71798">
        <ele>209.4</ele>
        <time>2019-08-17T16:28:17Z</time>
      </trkpt>
      <trkpt lat="47.14927" lon="5.71792">
        <ele>209.3</ele>
        <time>2019-08-17T16:28:18Z</time>
      </trkpt>
      <trkpt lat="47.14928" lon="5.71785">
        <ele>209.2</ele>
        <time>2019-08-17T16:28:19Z</time>
      </trkpt>
      <trkpt lat="47.14929" lon="5.71779">
        <ele>209.2</ele>
        <time>2019-08-17T16:28:20Z</time>
      </trkpt>
      <trkpt lat="47.14931" lon="5.71772">
        <ele>209.2</ele>
        <time>2019-08-17T16:28:21Z</time>
      </trkpt>
      <trkpt lat="47.14932" lon="5.71764">
        <ele>209.2</ele>
        <time>2019-08-17T16:28:22Z</time>
      </trkpt>
      <trkpt lat="47.14933" lon="5.71757">
        <ele>209.3</ele>
        <time>2019-08-17T16:28:23Z</time>
      </trkpt>
      <trkpt lat="47.14933" lon="5.7175">
        <ele>209.3</ele>
        <time>2019-08-17T16:28:24Z</time>
      </trkpt>
      <trkpt lat="47.14933" lon="5.71743">
        <ele>209.3</ele>
        <time>2019-08-17T16:28:25Z</time>
      </trkpt>
      <trkpt lat="47.14933" lon="5.71735">
        <ele>209.3</ele>
        <time>2019-08-17T16:28:26Z</time>
      </trkpt>
      <trkpt lat="47.14935" lon="5.71726">
        <ele>209.3</ele>
        <time>2019-08-17T16:28:27Z</time>
      </trkpt>
      <trkpt lat="47.14936" lon="5.71718">
        <ele>209.3</ele>
        <time>2019-08-17T16:28:28Z</time>
      </trkpt>
      <trkpt lat="47.14937" lon="5.71711">
        <ele>209.2</ele>
        <time>2019-08-17T16:28:29Z</time>
      </trkpt>
      <trkpt lat="47.14938" lon="5.71704">
        <ele>209.1</ele>
        <time>2019-08-17T16:28:30Z</time>
      </trkpt>
      <trkpt lat="47.1494" lon="5.71696">
        <ele>209</ele>
        <time>2019-08-17T16:28:31Z</time>
      </trkpt>
      <trkpt lat="47.14941" lon="5.71688">
        <ele>209</ele>
        <time>2019-08-17T16:28:32Z</time>
      </trkpt>
      <trkpt lat="47.14943" lon="5.71681">
        <ele>208.9</ele>
        <time>2019-08-17T16:28:33Z</time>
      </trkpt>
      <trkpt lat="47.14943" lon="5.71673">
        <ele>209</ele>
        <time>2019-08-17T16:28:34Z</time>
      </trkpt>
      <trkpt lat="47.14945" lon="5.71666">
        <ele>209</ele>
        <time>2019-08-17T16:28:35Z</time>
      </trkpt>
      <trkpt lat="47.14946" lon="5.71659">
        <ele>209</ele>
        <time>2019-08-17T16:28:36Z</time>
      </trkpt>
      <trkpt lat="47.14947" lon="5.71653">
        <ele>209</ele>
        <time>2019-08-17T16:28:37Z</time>
      </trkpt>
      <trkpt lat="47.14948" lon="5.71645">
        <ele>209</ele>
        <time>2019-08-17T16:28:38Z</time>
      </trkpt>
      <trkpt lat="47.14949" lon="5.71637">
        <ele>208.9</ele>
        <time>2019-08-17T16:28:39Z</time>
      </trkpt>
      <trkpt lat="47.1495" lon="5.7163">
        <ele>208.9</ele>
        <time>2019-08-17T16:28:40Z</time>
      </trkpt>
      <trkpt lat="47.14951" lon="5.71623">
        <ele>208.9</ele>
        <time>2019-08-17T16:28:41Z</time>
      </trkpt>
      <trkpt lat="47.14952" lon="5.71617">
        <ele>208.8</ele>
        <time>2019-08-17T16:28:42Z</time>
      </trkpt>
      <trkpt lat="47.14953" lon="5.7161">
        <ele>208.8</ele>
        <time>2019-08-17T16:28:43Z</time>
      </trkpt>
      <trkpt lat="47.14954" lon="5.71603">
        <ele>208.7</ele>
        <time>2019-08-17T16:28:44Z</time>
      </trkpt>
      <trkpt lat="47.14955" lon="5.71597">
        <ele>208.7</ele>
        <time>2019-08-17T16:28:45Z</time>
      </trkpt>
      <trkpt lat="47.14956" lon="5.71589">
        <ele>208.6</ele>
        <time>2019-08-17T16:28:46Z</time>
      </trkpt>
      <trkpt lat="47.14957" lon="5.71581">
        <ele>208.5</ele>
        <time>2019-08-17T16:28:47Z</time>
      </trkpt>
      <trkpt lat="47.14959" lon="5.71574">
        <ele>208.5</ele>
        <time>2019-08-17T16:28:48Z</time>
      </trkpt>
      <trkpt lat="47.14959" lon="5.71566">
        <ele>208.5</ele>
        <time>2019-08-17T16:28:49Z</time>
      </trkpt>
      <trkpt lat="47.1496" lon="5.71558">
        <ele>208.5</ele>
        <time>2019-08-17T16:28:50Z</time>
      </trkpt>
      <trkpt lat="47.1496" lon="5.71549">
        <ele>208.6</ele>
        <time>2019-08-17T16:28:51Z</time>
      </trkpt>
      <trkpt lat="47.14961" lon="5.71541">
        <ele>208.7</ele>
        <time>2019-08-17T16:28:52Z</time>
      </trkpt>
      <trkpt lat="47.14961" lon="5.71533">
        <ele>208.8</ele>
        <time>2019-08-17T16:28:53Z</time>
      </trkpt>
      <trkpt lat="47.14961" lon="5.71524">
        <ele>208.8</ele>
        <time>2019-08-17T16:28:54Z</time>
      </trkpt>
      <trkpt lat="47.14962" lon="5.71516">
        <ele>208.9</ele>
        <time>2019-08-17T16:28:55Z</time>
      </trkpt>
      <trkpt lat="47.14962" lon="5.71508">
        <ele>208.9</ele>
        <time>2019-08-17T16:28:56Z</time>
      </trkpt>
      <trkpt lat="47.14963" lon="5.71501">
        <ele>208.9</ele>
        <time>2019-08-17T16:28:57Z</time>
      </trkpt>
      <trkpt lat="47.14963" lon="5.71493">
        <ele>208.9</ele>
        <time>2019-08-17T16:28:58Z</time>
      </trkpt>
      <trkpt lat="47.14964" lon="5.71486">
        <ele>209</ele>
        <time>2019-08-17T16:28:59Z</time>
      </trkpt>
      <trkpt lat="47.14965" lon="5.7148">
        <ele>209</ele>
        <time>2019-08-17T16:29:00Z</time>
      </trkpt>
      <trkpt lat="47.14966" lon="5.71473">
        <ele>209</ele>
        <time>2019-08-17T16:29:01Z</time>
      </trkpt>
      <trkpt lat="47.14967" lon="5.71465">
        <ele>209</ele>
        <time>2019-08-17T16:29:02Z</time>
      </trkpt>
      <trkpt lat="47.1497" lon="5.71459">
        <ele>209</ele>
        <time>2019-08-17T16:29:03Z</time>
      </trkpt>
      <trkpt lat="47.14971" lon="5.71453">
        <ele>208.9</ele>
        <time>2019-08-17T16:29:04Z</time>
      </trkpt>
      <trkpt lat="47.14972" lon="5.71446">
        <ele>208.9</ele>
        <time>2019-08-17T16:29:05Z</time>
      </trkpt>
      <trkpt lat="47.14974" lon="5.7144">
        <ele>208.9</ele>
        <time>2019-08-17T16:29:06Z</time>
      </trkpt>
      <trkpt lat="47.14976" lon="5.71433">
        <ele>208.9</ele>
        <time>2019-08-17T16:29:07Z</time>
      </trkpt>
      <trkpt lat="47.14978" lon="5.71426">
        <ele>208.9</ele>
        <time>2019-08-17T16:29:08Z</time>
      </trkpt>
      <trkpt lat="47.14981" lon="5.7142">
        <ele>208.9</ele>
        <time>2019-08-17T16:29:09Z</time>
      </trkpt>
      <trkpt lat="47.14984" lon="5.71413">
        <ele>208.8</ele>
        <time>2019-08-17T16:29:10Z</time>
      </trkpt>
      <trkpt lat="47.14988" lon="5.71407">
        <ele>208.8</ele>
        <time>2019-08-17T16:29:11Z</time>
      </trkpt>
      <trkpt lat="47.14992" lon="5.71402">
        <ele>208.8</ele>
        <time>2019-08-17T16:29:12Z</time>
      </trkpt>
      <trkpt lat="47.14995" lon="5.71396">
        <ele>208.8</ele>
        <time>2019-08-17T16:29:13Z</time>
      </trkpt>
      <trkpt lat="47.14998" lon="5.71391">
        <ele>208.8</ele>
        <time>2019-08-17T16:29:14Z</time>
      </trkpt>
      <trkpt lat="47.15003" lon="5.71387">
        <ele>208.8</ele>
        <time>2019-08-17T16:29:15Z</time>
      </trkpt>
      <trkpt lat="47.15007" lon="5.71383">
        <ele>208.8</ele>
        <time>2019-08-17T16:29:16Z</time>
      </trkpt>
      <trkpt lat="47.15011" lon="5.71378">
        <ele>208.8</ele>
        <time>2019-08-17T16:29:17Z</time>
      </trkpt>
      <trkpt lat="47.15015" lon="5.71373">
        <ele>208.8</ele>
        <time>2019-08-17T16:29:18Z</time>
      </trkpt>
      <trkpt lat="47.15018" lon="5.71368">
        <ele>208.8</ele>
        <time>2019-08-17T16:29:19Z</time>
      </trkpt>
      <trkpt lat="47.15022" lon="5.71364">
        <ele>208.8</ele>
        <time>2019-08-17T16:29:20Z</time>
      </trkpt>
      <trkpt lat="47.15025" lon="5.71359">
        <ele>208.8</ele>
        <time>2019-08-17T16:29:21Z</time>
      </trkpt>
      <trkpt lat="47.15028" lon="5.71355">
        <ele>208.8</ele>
        <time>2019-08-17T16:29:22Z</time>
      </trkpt>
      <trkpt lat="47.15031" lon="5.71349">
        <ele>208.8</ele>
        <time>2019-08-17T16:29:23Z</time>
      </trkpt>
      <trkpt lat="47.15033" lon="5.71344">
        <ele>208.8</ele>
        <time>2019-08-17T16:29:24Z</time>
      </trkpt>
      <trkpt lat="47.15036" lon="5.71339">
        <ele>208.8</ele>
        <time>2019-08-17T16:29:25Z</time>
      </trkpt>
      <trkpt lat="47.15038" lon="5.71332">
        <ele>208.5</ele>
        <time>2019-08-17T16:29:26Z</time>
      </trkpt>
      <trkpt lat="47.15041" lon="5.71325">
        <ele>208.3</ele>
        <time>2019-08-17T16:29:27Z</time>
      </trkpt>
      <trkpt lat="47.15043" lon="5.71318">
        <ele>208.1</ele>
        <time>2019-08-17T16:29:28Z</time>
      </trkpt>
      <trkpt lat="47.15045" lon="5.71311">
        <ele>208</ele>
        <time>2019-08-17T16:29:29Z</time>
      </trkpt>
      <trkpt lat="47.15048" lon="5.71306">
        <ele>208</ele>
        <time>2019-08-17T16:29:30Z</time>
      </trkpt>
      <trkpt lat="47.15051" lon="5.713">
        <ele>207.9</ele>
        <time>2019-08-17T16:29:31Z</time>
      </trkpt>
      <trkpt lat="47.15054" lon="5.71294">
        <ele>207.8</ele>
        <time>2019-08-17T16:29:32Z</time>
      </trkpt>
      <trkpt lat="47.15055" lon="5.71287">
        <ele>207.8</ele>
        <time>2019-08-17T16:29:33Z</time>
      </trkpt>
      <trkpt lat="47.15057" lon="5.71281">
        <ele>207.8</ele>
        <time>2019-08-17T16:29:34Z</time>
      </trkpt>
      <trkpt lat="47.15058" lon="5.71274">
        <ele>207.7</ele>
        <time>2019-08-17T16:29:35Z</time>
      </trkpt>
      <trkpt lat="47.15059" lon="5.71267">
        <ele>207.7</ele>
        <time>2019-08-17T16:29:36Z</time>
      </trkpt>
      <trkpt lat="47.15061" lon="5.71259">
        <ele>207.6</ele>
        <time>2019-08-17T16:29:37Z</time>
      </trkpt>
      <trkpt lat="47.15062" lon="5.71252">
        <ele>207.5</ele>
        <time>2019-08-17T16:29:38Z</time>
      </trkpt>
      <trkpt lat="47.15064" lon="5.71244">
        <ele>207.4</ele>
        <time>2019-08-17T16:29:39Z</time>
      </trkpt>
      <trkpt lat="47.15065" lon="5.71237">
        <ele>207.3</ele>
        <time>2019-08-17T16:29:40Z</time>
      </trkpt>
      <trkpt lat="47.15066" lon="5.7123">
        <ele>207.2</ele>
        <time>2019-08-17T16:29:41Z</time>
      </trkpt>
      <trkpt lat="47.15067" lon="5.71223">
        <ele>207.2</ele>
        <time>2019-08-17T16:29:42Z</time>
      </trkpt>
      <trkpt lat="47.15068" lon="5.71216">
        <ele>207.1</ele>
        <time>2019-08-17T16:29:43Z</time>
      </trkpt>
      <trkpt lat="47.15069" lon="5.71209">
        <ele>207.1</ele>
        <time>2019-08-17T16:29:44Z</time>
      </trkpt>
      <trkpt lat="47.1507" lon="5.71202">
        <ele>207</ele>
        <time>2019-08-17T16:29:45Z</time>
      </trkpt>
      <trkpt lat="47.15071" lon="5.71195">
        <ele>207</ele>
        <time>2019-08-17T16:29:46Z</time>
      </trkpt>
      <trkpt lat="47.15072" lon="5.71188">
        <ele>206.9</ele>
        <time>2019-08-17T16:29:47Z</time>
      </trkpt>
      <trkpt lat="47.15072" lon="5.71181">
        <ele>206.9</ele>
        <time>2019-08-17T16:29:48Z</time>
      </trkpt>
      <trkpt lat="47.15073" lon="5.71175">
        <ele>206.9</ele>
        <time>2019-08-17T16:29:49Z</time>
      </trkpt>
      <trkpt lat="47.15073" lon="5.7117">
        <ele>206.9</ele>
        <time>2019-08-17T16:29:50Z</time>
      </trkpt>
      <trkpt lat="47.15074" lon="5.71165">
        <ele>206.9</ele>
        <time>2019-08-17T16:29:51Z</time>
      </trkpt>
      <trkpt lat="47.15075" lon="5.71159">
        <ele>206.9</ele>
        <time>2019-08-17T16:29:52Z</time>
      </trkpt>
      <trkpt lat="47.15076" lon="5.71154">
        <ele>206.9</ele>
        <time>2019-08-17T16:29:53Z</time>
      </trkpt>
      <trkpt lat="47.15076" lon="5.71148">
        <ele>206.9</ele>
        <time>2019-08-17T16:29:54Z</time>
      </trkpt>
      <trkpt lat="47.15076" lon="5.71142">
        <ele>206.9</ele>
        <time>2019-08-17T16:29:55Z</time>
      </trkpt>
      <trkpt lat="47.15077" lon="5.71135">
        <ele>206.9</ele>
        <time>2019-08-17T16:29:56Z</time>
      </trkpt>
      <trkpt lat="47.15079" lon="5.71128">
        <ele>207</ele>
        <time>2019-08-17T16:29:57Z</time>
      </trkpt>
      <trkpt lat="47.15079" lon="5.71121">
        <ele>207</ele>
        <time>2019-08-17T16:29:58Z</time>
      </trkpt>
      <trkpt lat="47.1508" lon="5.71114">
        <ele>207</ele>
        <time>2019-08-17T16:29:59Z</time>
      </trkpt>
      <trkpt lat="47.15081" lon="5.71108">
        <ele>207</ele>
        <time>2019-08-17T16:30:00Z</time>
      </trkpt>
      <trkpt lat="47.15082" lon="5.711">
        <ele>207</ele>
        <time>2019-08-17T16:30:01Z</time>
      </trkpt>
      <trkpt lat="47.15082" lon="5.71093">
        <ele>207</ele>
        <time>2019-08-17T16:30:02Z</time>
      </trkpt>
      <trkpt lat="47.15083" lon="5.71085">
        <ele>207</ele>
        <time>2019-08-17T16:30:03Z</time>
      </trkpt>
      <trkpt lat="47.15083" lon="5.71077">
        <ele>207</ele>
        <time>2019-08-17T16:30:04Z</time>
      </trkpt>
      <trkpt lat="47.15084" lon="5.71071">
        <ele>207</ele>
        <time>2019-08-17T16:30:05Z</time>
      </trkpt>
      <trkpt lat="47.15084" lon="5.71064">
        <ele>207</ele>
        <time>2019-08-17T16:30:06Z</time>
      </trkpt>
      <trkpt lat="47.15085" lon="5.71057">
        <ele>207</ele>
        <time>2019-08-17T16:30:07Z</time>
      </trkpt>
      <trkpt lat="47.15085" lon="5.7105">
        <ele>207</ele>
        <time>2019-08-17T16:30:08Z</time>
      </trkpt>
      <trkpt lat="47.15086" lon="5.71042">
        <ele>207</ele>
        <time>2019-08-17T16:30:09Z</time>
      </trkpt>
      <trkpt lat="47.15088" lon="5.71034">
        <ele>207</ele>
        <time>2019-08-17T16:30:10Z</time>
      </trkpt>
      <trkpt lat="47.1509" lon="5.71026">
        <ele>207</ele>
        <time>2019-08-17T16:30:11Z</time>
      </trkpt>
      <trkpt lat="47.15093" lon="5.7102">
        <ele>207</ele>
        <time>2019-08-17T16:30:12Z</time>
      </trkpt>
      <trkpt lat="47.15095" lon="5.71013">
        <ele>207</ele>
        <time>2019-08-17T16:30:13Z</time>
      </trkpt>
      <trkpt lat="47.15096" lon="5.71005">
        <ele>207</ele>
        <time>2019-08-17T16:30:14Z</time>
      </trkpt>
      <trkpt lat="47.15097" lon="5.70997">
        <ele>207</ele>
        <time>2019-08-17T16:30:15Z</time>
      </trkpt>
      <trkpt lat="47.15097" lon="5.70988">
        <ele>207</ele>
        <time>2019-08-17T16:30:16Z</time>
      </trkpt>
      <trkpt lat="47.15098" lon="5.7098">
        <ele>207.1</ele>
        <time>2019-08-17T16:30:17Z</time>
      </trkpt>
      <trkpt lat="47.15098" lon="5.70972">
        <ele>207.2</ele>
        <time>2019-08-17T16:30:18Z</time>
      </trkpt>
      <trkpt lat="47.15099" lon="5.70965">
        <ele>207.4</ele>
        <time>2019-08-17T16:30:19Z</time>
      </trkpt>
      <trkpt lat="47.151" lon="5.70959">
        <ele>207.7</ele>
        <time>2019-08-17T16:30:20Z</time>
      </trkpt>
      <trkpt lat="47.15101" lon="5.70951">
        <ele>207.9</ele>
        <time>2019-08-17T16:30:21Z</time>
      </trkpt>
      <trkpt lat="47.15102" lon="5.70945">
        <ele>207.6</ele>
        <time>2019-08-17T16:30:22Z</time>
      </trkpt>
      <trkpt lat="47.15103" lon="5.70938">
        <ele>207.8</ele>
        <time>2019-08-17T16:30:23Z</time>
      </trkpt>
      <trkpt lat="47.15104" lon="5.70931">
        <ele>207.9</ele>
        <time>2019-08-17T16:30:24Z</time>
      </trkpt>
      <trkpt lat="47.15105" lon="5.70924">
        <ele>208</ele>
        <time>2019-08-17T16:30:25Z</time>
      </trkpt>
      <trkpt lat="47.15106" lon="5.70917">
        <ele>208.2</ele>
        <time>2019-08-17T16:30:26Z</time>
      </trkpt>
      <trkpt lat="47.15107" lon="5.70909">
        <ele>208.3</ele>
        <time>2019-08-17T16:30:27Z</time>
      </trkpt>
      <trkpt lat="47.15108" lon="5.70902">
        <ele>208.5</ele>
        <time>2019-08-17T16:30:28Z</time>
      </trkpt>
      <trkpt lat="47.15108" lon="5.70895">
        <ele>208.6</ele>
        <time>2019-08-17T16:30:29Z</time>
      </trkpt>
      <trkpt lat="47.15109" lon="5.70887">
        <ele>208.8</ele>
        <time>2019-08-17T16:30:30Z</time>
      </trkpt>
      <trkpt lat="47.15109" lon="5.7088">
        <ele>208.9</ele>
        <time>2019-08-17T16:30:31Z</time>
      </trkpt>
      <trkpt lat="47.15108" lon="5.70873">
        <ele>209</ele>
        <time>2019-08-17T16:30:32Z</time>
      </trkpt>
      <trkpt lat="47.15108" lon="5.70864">
        <ele>209.2</ele>
        <time>2019-08-17T16:30:33Z</time>
      </trkpt>
      <trkpt lat="47.15108" lon="5.70856">
        <ele>209.3</ele>
        <time>2019-08-17T16:30:34Z</time>
      </trkpt>
      <trkpt lat="47.15108" lon="5.70849">
        <ele>209.4</ele>
        <time>2019-08-17T16:30:35Z</time>
      </trkpt>
      <trkpt lat="47.15107" lon="5.70842">
        <ele>209.5</ele>
        <time>2019-08-17T16:30:36Z</time>
      </trkpt>
      <trkpt lat="47.15106" lon="5.70835">
        <ele>209.6</ele>
        <time>2019-08-17T16:30:37Z</time>
      </trkpt>
      <trkpt lat="47.15106" lon="5.70828">
        <ele>209.6</ele>
        <time>2019-08-17T16:30:38Z</time>
      </trkpt>
      <trkpt lat="47.15104" lon="5.70822">
        <ele>209.7</ele>
        <time>2019-08-17T16:30:39Z</time>
      </trkpt>
      <trkpt lat="47.15103" lon="5.70815">
        <ele>209.8</ele>
        <time>2019-08-17T16:30:40Z</time>
      </trkpt>
      <trkpt lat="47.15102" lon="5.70808">
        <ele>209.8</ele>
        <time>2019-08-17T16:30:41Z</time>
      </trkpt>
      <trkpt lat="47.15101" lon="5.70801">
        <ele>209.9</ele>
        <time>2019-08-17T16:30:42Z</time>
      </trkpt>
      <trkpt lat="47.151" lon="5.70793">
        <ele>210</ele>
        <time>2019-08-17T16:30:43Z</time>
      </trkpt>
      <trkpt lat="47.15099" lon="5.70786">
        <ele>210.1</ele>
        <time>2019-08-17T16:30:44Z</time>
      </trkpt>
      <trkpt lat="47.15097" lon="5.7078">
        <ele>210.1</ele>
        <time>2019-08-17T16:30:45Z</time>
      </trkpt>
      <trkpt lat="47.15095" lon="5.70773">
        <ele>210.2</ele>
        <time>2019-08-17T16:30:46Z</time>
      </trkpt>
      <trkpt lat="47.15094" lon="5.70766">
        <ele>210.3</ele>
        <time>2019-08-17T16:30:47Z</time>
      </trkpt>
      <trkpt lat="47.15093" lon="5.70758">
        <ele>210.4</ele>
        <time>2019-08-17T16:30:48Z</time>
      </trkpt>
      <trkpt lat="47.15091" lon="5.70751">
        <ele>210.5</ele>
        <time>2019-08-17T16:30:49Z</time>
      </trkpt>
      <trkpt lat="47.1509" lon="5.70744">
        <ele>210.6</ele>
        <time>2019-08-17T16:30:50Z</time>
      </trkpt>
      <trkpt lat="47.15088" lon="5.70737">
        <ele>210.7</ele>
        <time>2019-08-17T16:30:51Z</time>
      </trkpt>
      <trkpt lat="47.15087" lon="5.7073">
        <ele>210.8</ele>
        <time>2019-08-17T16:30:52Z</time>
      </trkpt>
      <trkpt lat="47.15086" lon="5.70722">
        <ele>210.9</ele>
        <time>2019-08-17T16:30:53Z</time>
      </trkpt>
      <trkpt lat="47.15084" lon="5.70714">
        <ele>211</ele>
        <time>2019-08-17T16:30:54Z</time>
      </trkpt>
      <trkpt lat="47.15083" lon="5.70707">
        <ele>211.1</ele>
        <time>2019-08-17T16:30:55Z</time>
      </trkpt>
      <trkpt lat="47.15081" lon="5.707">
        <ele>211.2</ele>
        <time>2019-08-17T16:30:56Z</time>
      </trkpt>
      <trkpt lat="47.1508" lon="5.70694">
        <ele>211.3</ele>
        <time>2019-08-17T16:30:57Z</time>
      </trkpt>
      <trkpt lat="47.15078" lon="5.70688">
        <ele>211.4</ele>
        <time>2019-08-17T16:30:58Z</time>
      </trkpt>
      <trkpt lat="47.15077" lon="5.70681">
        <ele>211.5</ele>
        <time>2019-08-17T16:30:59Z</time>
      </trkpt>
      <trkpt lat="47.15076" lon="5.70675">
        <ele>211.6</ele>
        <time>2019-08-17T16:31:00Z</time>
      </trkpt>
      <trkpt lat="47.15075" lon="5.70669">
        <ele>211.7</ele>
        <time>2019-08-17T16:31:01Z</time>
      </trkpt>
      <trkpt lat="47.15073" lon="5.70662">
        <ele>211.9</ele>
        <time>2019-08-17T16:31:02Z</time>
      </trkpt>
      <trkpt lat="47.15072" lon="5.70656">
        <ele>212</ele>
        <time>2019-08-17T16:31:03Z</time>
      </trkpt>
      <trkpt lat="47.15072" lon="5.7065">
        <ele>212.1</ele>
        <time>2019-08-17T16:31:04Z</time>
      </trkpt>
      <trkpt lat="47.15071" lon="5.70644">
        <ele>212.1</ele>
        <time>2019-08-17T16:31:05Z</time>
      </trkpt>
      <trkpt lat="47.15071" lon="5.70638">
        <ele>212.2</ele>
        <time>2019-08-17T16:31:06Z</time>
      </trkpt>
      <trkpt lat="47.15071" lon="5.70632">
        <ele>212.3</ele>
        <time>2019-08-17T16:31:07Z</time>
      </trkpt>
      <trkpt lat="47.15071" lon="5.70626">
        <ele>212.4</ele>
        <time>2019-08-17T16:31:08Z</time>
      </trkpt>
      <trkpt lat="47.1507" lon="5.7062">
        <ele>212.5</ele>
        <time>2019-08-17T16:31:09Z</time>
      </trkpt>
      <trkpt lat="47.1507" lon="5.70614">
        <ele>212.6</ele>
        <time>2019-08-17T16:31:10Z</time>
      </trkpt>
      <trkpt lat="47.1507" lon="5.70607">
        <ele>212.7</ele>
        <time>2019-08-17T16:31:11Z</time>
      </trkpt>
      <trkpt lat="47.1507" lon="5.706">
        <ele>212.7</ele>
        <time>2019-08-17T16:31:12Z</time>
      </trkpt>
      <trkpt lat="47.1507" lon="5.70593">
        <ele>212.8</ele>
        <time>2019-08-17T16:31:13Z</time>
      </trkpt>
      <trkpt lat="47.15069" lon="5.70586">
        <ele>212.9</ele>
        <time>2019-08-17T16:31:14Z</time>
      </trkpt>
      <trkpt lat="47.15069" lon="5.7058">
        <ele>213</ele>
        <time>2019-08-17T16:31:15Z</time>
      </trkpt>
      <trkpt lat="47.15069" lon="5.70574">
        <ele>213.1</ele>
        <time>2019-08-17T16:31:16Z</time>
      </trkpt>
      <trkpt lat="47.1507" lon="5.70567">
        <ele>213.1</ele>
        <time>2019-08-17T16:31:17Z</time>
      </trkpt>
      <trkpt lat="47.1507" lon="5.7056">
        <ele>213.2</ele>
        <time>2019-08-17T16:31:18Z</time>
      </trkpt>
      <trkpt lat="47.1507" lon="5.70554">
        <ele>213.3</ele>
        <time>2019-08-17T16:31:19Z</time>
      </trkpt>
      <trkpt lat="47.1507" lon="5.70547">
        <ele>213.4</ele>
        <time>2019-08-17T16:31:20Z</time>
      </trkpt>
      <trkpt lat="47.15069" lon="5.7054">
        <ele>213.4</ele>
        <time>2019-08-17T16:31:21Z</time>
      </trkpt>
      <trkpt lat="47.15068" lon="5.70532">
        <ele>213.5</ele>
        <time>2019-08-17T16:31:22Z</time>
      </trkpt>
      <trkpt lat="47.15067" lon="5.70525">
        <ele>213.5</ele>
        <time>2019-08-17T16:31:23Z</time>
      </trkpt>
      <trkpt lat="47.15067" lon="5.70517">
        <ele>213.6</ele>
        <time>2019-08-17T16:31:24Z</time>
      </trkpt>
      <trkpt lat="47.15066" lon="5.70509">
        <ele>213.7</ele>
        <time>2019-08-17T16:31:25Z</time>
      </trkpt>
      <trkpt lat="47.15066" lon="5.70501">
        <ele>213.8</ele>
        <time>2019-08-17T16:31:26Z</time>
      </trkpt>
      <trkpt lat="47.15066" lon="5.70494">
        <ele>213.9</ele>
        <time>2019-08-17T16:31:27Z</time>
      </trkpt>
      <trkpt lat="47.15065" lon="5.70486">
        <ele>214.1</ele>
        <time>2019-08-17T16:31:28Z</time>
      </trkpt>
      <trkpt lat="47.15065" lon="5.70478">
        <ele>214.2</ele>
        <time>2019-08-17T16:31:29Z</time>
      </trkpt>
      <trkpt lat="47.15065" lon="5.70471">
        <ele>214.3</ele>
        <time>2019-08-17T16:31:30Z</time>
      </trkpt>
      <trkpt lat="47.15064" lon="5.70463">
        <ele>214.4</ele>
        <time>2019-08-17T16:31:31Z</time>
      </trkpt>
      <trkpt lat="47.15064" lon="5.70455">
        <ele>214.6</ele>
        <time>2019-08-17T16:31:32Z</time>
      </trkpt>
      <trkpt lat="47.15064" lon="5.70448">
        <ele>214.7</ele>
        <time>2019-08-17T16:31:33Z</time>
      </trkpt>
      <trkpt lat="47.15063" lon="5.70441">
        <ele>214.8</ele>
        <time>2019-08-17T16:31:34Z</time>
      </trkpt>
      <trkpt lat="47.15062" lon="5.70434">
        <ele>214.9</ele>
        <time>2019-08-17T16:31:35Z</time>
      </trkpt>
      <trkpt lat="47.15062" lon="5.70427">
        <ele>215.1</ele>
        <time>2019-08-17T16:31:36Z</time>
      </trkpt>
      <trkpt lat="47.15061" lon="5.7042">
        <ele>215.2</ele>
        <time>2019-08-17T16:31:37Z</time>
      </trkpt>
      <trkpt lat="47.1506" lon="5.70413">
        <ele>215.3</ele>
        <time>2019-08-17T16:31:38Z</time>
      </trkpt>
      <trkpt lat="47.1506" lon="5.70406">
        <ele>215.4</ele>
        <time>2019-08-17T16:31:39Z</time>
      </trkpt>
      <trkpt lat="47.1506" lon="5.70399">
        <ele>215.5</ele>
        <time>2019-08-17T16:31:40Z</time>
      </trkpt>
      <trkpt lat="47.15061" lon="5.70393">
        <ele>215.6</ele>
        <time>2019-08-17T16:31:41Z</time>
      </trkpt>
      <trkpt lat="47.1506" lon="5.70386">
        <ele>215.7</ele>
        <time>2019-08-17T16:31:42Z</time>
      </trkpt>
      <trkpt lat="47.1506" lon="5.7038">
        <ele>215.8</ele>
        <time>2019-08-17T16:31:43Z</time>
      </trkpt>
      <trkpt lat="47.15059" lon="5.70374">
        <ele>215.8</ele>
        <time>2019-08-17T16:31:44Z</time>
      </trkpt>
      <trkpt lat="47.15059" lon="5.70367">
        <ele>215.9</ele>
        <time>2019-08-17T16:31:45Z</time>
      </trkpt>
      <trkpt lat="47.15058" lon="5.7036">
        <ele>216</ele>
        <time>2019-08-17T16:31:46Z</time>
      </trkpt>
      <trkpt lat="47.15059" lon="5.70353">
        <ele>216.1</ele>
        <time>2019-08-17T16:31:47Z</time>
      </trkpt>
      <trkpt lat="47.15058" lon="5.70345">
        <ele>216.2</ele>
        <time>2019-08-17T16:31:48Z</time>
      </trkpt>
      <trkpt lat="47.15058" lon="5.70339">
        <ele>216.3</ele>
        <time>2019-08-17T16:31:49Z</time>
      </trkpt>
      <trkpt lat="47.15058" lon="5.70332">
        <ele>216.5</ele>
        <time>2019-08-17T16:31:50Z</time>
      </trkpt>
      <trkpt lat="47.15058" lon="5.70325">
        <ele>216.6</ele>
        <time>2019-08-17T16:31:51Z</time>
      </trkpt>
      <trkpt lat="47.15057" lon="5.70317">
        <ele>216.7</ele>
        <time>2019-08-17T16:31:52Z</time>
      </trkpt>
      <trkpt lat="47.15056" lon="5.7031">
        <ele>216.9</ele>
        <time>2019-08-17T16:31:53Z</time>
      </trkpt>
      <trkpt lat="47.15056" lon="5.70303">
        <ele>217</ele>
        <time>2019-08-17T16:31:54Z</time>
      </trkpt>
      <trkpt lat="47.15056" lon="5.70296">
        <ele>217.1</ele>
        <time>2019-08-17T16:31:55Z</time>
      </trkpt>
      <trkpt lat="47.15055" lon="5.7029">
        <ele>217.2</ele>
        <time>2019-08-17T16:31:56Z</time>
      </trkpt>
      <trkpt lat="47.15055" lon="5.70284">
        <ele>217.4</ele>
        <time>2019-08-17T16:31:57Z</time>
      </trkpt>
      <trkpt lat="47.15054" lon="5.70278">
        <ele>217.8</ele>
        <time>2019-08-17T16:31:58Z</time>
      </trkpt>
      <trkpt lat="47.15053" lon="5.70272">
        <ele>217.7</ele>
        <time>2019-08-17T16:31:59Z</time>
      </trkpt>
      <trkpt lat="47.15052" lon="5.70268">
        <ele>217.5</ele>
        <time>2019-08-17T16:32:00Z</time>
      </trkpt>
      <trkpt lat="47.15051" lon="5.70263">
        <ele>217.4</ele>
        <time>2019-08-17T16:32:02Z</time>
      </trkpt>
      <trkpt lat="47.15055" lon="5.70262">
        <ele>217.2</ele>
        <time>2019-08-17T16:32:04Z</time>
      </trkpt>
      <trkpt lat="47.15059" lon="5.7026">
        <ele>217</ele>
        <time>2019-08-17T16:32:06Z</time>
      </trkpt>
      <trkpt lat="47.15061" lon="5.70254">
        <ele>216.8</ele>
        <time>2019-08-17T16:32:07Z</time>
      </trkpt>
      <trkpt lat="47.15061" lon="5.70249">
        <ele>216.7</ele>
        <time>2019-08-17T16:32:08Z</time>
      </trkpt>
      <trkpt lat="47.15061" lon="5.70243">
        <ele>216.5</ele>
        <time>2019-08-17T16:32:09Z</time>
      </trkpt>
      <trkpt lat="47.15062" lon="5.70237">
        <ele>216.3</ele>
        <time>2019-08-17T16:32:10Z</time>
      </trkpt>
      <trkpt lat="47.15064" lon="5.70231">
        <ele>215.9</ele>
        <time>2019-08-17T16:32:11Z</time>
      </trkpt>
      <trkpt lat="47.15066" lon="5.70226">
        <ele>215.8</ele>
        <time>2019-08-17T16:32:12Z</time>
      </trkpt>
      <trkpt lat="47.15068" lon="5.70221">
        <ele>215.8</ele>
        <time>2019-08-17T16:32:13Z</time>
      </trkpt>
      <trkpt lat="47.15069" lon="5.70217">
        <ele>215.7</ele>
        <time>2019-08-17T16:32:14Z</time>
      </trkpt>
      <trkpt lat="47.1507" lon="5.70212">
        <ele>215.7</ele>
        <time>2019-08-17T16:32:15Z</time>
      </trkpt>
      <trkpt lat="47.15072" lon="5.70208">
        <ele>215.7</ele>
        <time>2019-08-17T16:32:16Z</time>
      </trkpt>
      <trkpt lat="47.15074" lon="5.70203">
        <ele>215.6</ele>
        <time>2019-08-17T16:32:17Z</time>
      </trkpt>
      <trkpt lat="47.15076" lon="5.70199">
        <ele>215.6</ele>
        <time>2019-08-17T16:32:18Z</time>
      </trkpt>
      <trkpt lat="47.15078" lon="5.70194">
        <ele>215.6</ele>
        <time>2019-08-17T16:32:19Z</time>
      </trkpt>
      <trkpt lat="47.15081" lon="5.70188">
        <ele>215.6</ele>
        <time>2019-08-17T16:32:20Z</time>
      </trkpt>
      <trkpt lat="47.15084" lon="5.70183">
        <ele>215.6</ele>
        <time>2019-08-17T16:32:21Z</time>
      </trkpt>
      <trkpt lat="47.15086" lon="5.70178">
        <ele>215.6</ele>
        <time>2019-08-17T16:32:22Z</time>
      </trkpt>
      <trkpt lat="47.1509" lon="5.70172">
        <ele>215.6</ele>
        <time>2019-08-17T16:32:23Z</time>
      </trkpt>
      <trkpt lat="47.15092" lon="5.70166">
        <ele>215.6</ele>
        <time>2019-08-17T16:32:24Z</time>
      </trkpt>
      <trkpt lat="47.15096" lon="5.70162">
        <ele>215.6</ele>
        <time>2019-08-17T16:32:25Z</time>
      </trkpt>
      <trkpt lat="47.15099" lon="5.70158">
        <ele>215.6</ele>
        <time>2019-08-17T16:32:26Z</time>
      </trkpt>
      <trkpt lat="47.15102" lon="5.70154">
        <ele>215.6</ele>
        <time>2019-08-17T16:32:27Z</time>
      </trkpt>
      <trkpt lat="47.15106" lon="5.70149">
        <ele>215.6</ele>
        <time>2019-08-17T16:32:28Z</time>
      </trkpt>
      <trkpt lat="47.15109" lon="5.70144">
        <ele>215.7</ele>
        <time>2019-08-17T16:32:29Z</time>
      </trkpt>
      <trkpt lat="47.15113" lon="5.7014">
        <ele>215.7</ele>
        <time>2019-08-17T16:32:30Z</time>
      </trkpt>
      <trkpt lat="47.15117" lon="5.70134">
        <ele>215.7</ele>
        <time>2019-08-17T16:32:31Z</time>
      </trkpt>
      <trkpt lat="47.15119" lon="5.70129">
        <ele>215.7</ele>
        <time>2019-08-17T16:32:32Z</time>
      </trkpt>
      <trkpt lat="47.15122" lon="5.70124">
        <ele>215.8</ele>
        <time>2019-08-17T16:32:33Z</time>
      </trkpt>
      <trkpt lat="47.15125" lon="5.70119">
        <ele>215.8</ele>
        <time>2019-08-17T16:32:34Z</time>
      </trkpt>
      <trkpt lat="47.15127" lon="5.70113">
        <ele>215.8</ele>
        <time>2019-08-17T16:32:35Z</time>
      </trkpt>
      <trkpt lat="47.15129" lon="5.70106">
        <ele>215.8</ele>
        <time>2019-08-17T16:32:36Z</time>
      </trkpt>
      <trkpt lat="47.1513" lon="5.70099">
        <ele>215.9</ele>
        <time>2019-08-17T16:32:37Z</time>
      </trkpt>
      <trkpt lat="47.15132" lon="5.70091">
        <ele>215.9</ele>
        <time>2019-08-17T16:32:38Z</time>
      </trkpt>
      <trkpt lat="47.15133" lon="5.70085">
        <ele>215.9</ele>
        <time>2019-08-17T16:32:39Z</time>
      </trkpt>
      <trkpt lat="47.15135" lon="5.70077">
        <ele>216</ele>
        <time>2019-08-17T16:32:40Z</time>
      </trkpt>
      <trkpt lat="47.15136" lon="5.7007">
        <ele>216</ele>
        <time>2019-08-17T16:32:41Z</time>
      </trkpt>
      <trkpt lat="47.15137" lon="5.70061">
        <ele>216</ele>
        <time>2019-08-17T16:32:42Z</time>
      </trkpt>
      <trkpt lat="47.15138" lon="5.70054">
        <ele>216</ele>
        <time>2019-08-17T16:32:43Z</time>
      </trkpt>
      <trkpt lat="47.1514" lon="5.70046">
        <ele>216</ele>
        <time>2019-08-17T16:32:44Z</time>
      </trkpt>
      <trkpt lat="47.1514" lon="5.70039">
        <ele>216</ele>
        <time>2019-08-17T16:32:45Z</time>
      </trkpt>
      <trkpt lat="47.1514" lon="5.70032">
        <ele>215.9</ele>
        <time>2019-08-17T16:32:46Z</time>
      </trkpt>
      <trkpt lat="47.15141" lon="5.70026">
        <ele>215.8</ele>
        <time>2019-08-17T16:32:47Z</time>
      </trkpt>
      <trkpt lat="47.15142" lon="5.70019">
        <ele>215.8</ele>
        <time>2019-08-17T16:32:48Z</time>
      </trkpt>
      <trkpt lat="47.15143" lon="5.70011">
        <ele>215.7</ele>
        <time>2019-08-17T16:32:49Z</time>
      </trkpt>
      <trkpt lat="47.15145" lon="5.70004">
        <ele>215.6</ele>
        <time>2019-08-17T16:32:50Z</time>
      </trkpt>
      <trkpt lat="47.15146" lon="5.69997">
        <ele>215.5</ele>
        <time>2019-08-17T16:32:51Z</time>
      </trkpt>
      <trkpt lat="47.15147" lon="5.69989">
        <ele>215.7</ele>
        <time>2019-08-17T16:32:52Z</time>
      </trkpt>
      <trkpt lat="47.15148" lon="5.69981">
        <ele>216.1</ele>
        <time>2019-08-17T16:32:53Z</time>
      </trkpt>
      <trkpt lat="47.15149" lon="5.69974">
        <ele>216.1</ele>
        <time>2019-08-17T16:32:54Z</time>
      </trkpt>
      <trkpt lat="47.15148" lon="5.69967">
        <ele>216.1</ele>
        <time>2019-08-17T16:32:55Z</time>
      </trkpt>
      <trkpt lat="47.15147" lon="5.6996">
        <ele>216.1</ele>
        <time>2019-08-17T16:32:56Z</time>
      </trkpt>
      <trkpt lat="47.15146" lon="5.69953">
        <ele>216.2</ele>
        <time>2019-08-17T16:32:57Z</time>
      </trkpt>
      <trkpt lat="47.15145" lon="5.69946">
        <ele>216.2</ele>
        <time>2019-08-17T16:32:58Z</time>
      </trkpt>
      <trkpt lat="47.15144" lon="5.69939">
        <ele>216.3</ele>
        <time>2019-08-17T16:32:59Z</time>
      </trkpt>
      <trkpt lat="47.15143" lon="5.69932">
        <ele>216.4</ele>
        <time>2019-08-17T16:33:00Z</time>
      </trkpt>
      <trkpt lat="47.15142" lon="5.69925">
        <ele>216.5</ele>
        <time>2019-08-17T16:33:01Z</time>
      </trkpt>
      <trkpt lat="47.15141" lon="5.69918">
        <ele>216.6</ele>
        <time>2019-08-17T16:33:02Z</time>
      </trkpt>
      <trkpt lat="47.1514" lon="5.69912">
        <ele>216.6</ele>
        <time>2019-08-17T16:33:03Z</time>
      </trkpt>
      <trkpt lat="47.15138" lon="5.69906">
        <ele>216.7</ele>
        <time>2019-08-17T16:33:04Z</time>
      </trkpt>
      <trkpt lat="47.15136" lon="5.699">
        <ele>216.8</ele>
        <time>2019-08-17T16:33:05Z</time>
      </trkpt>
      <trkpt lat="47.15135" lon="5.69894">
        <ele>216.9</ele>
        <time>2019-08-17T16:33:06Z</time>
      </trkpt>
      <trkpt lat="47.15134" lon="5.69889">
        <ele>216.9</ele>
        <time>2019-08-17T16:33:07Z</time>
      </trkpt>
      <trkpt lat="47.15133" lon="5.69884">
        <ele>217</ele>
        <time>2019-08-17T16:33:08Z</time>
      </trkpt>
      <trkpt lat="47.15131" lon="5.69878">
        <ele>217.1</ele>
        <time>2019-08-17T16:33:09Z</time>
      </trkpt>
      <trkpt lat="47.1513" lon="5.69871">
        <ele>217.2</ele>
        <time>2019-08-17T16:33:10Z</time>
      </trkpt>
      <trkpt lat="47.15129" lon="5.69866">
        <ele>217.2</ele>
        <time>2019-08-17T16:33:11Z</time>
      </trkpt>
      <trkpt lat="47.15127" lon="5.69861">
        <ele>217.3</ele>
        <time>2019-08-17T16:33:12Z</time>
      </trkpt>
      <trkpt lat="47.15126" lon="5.69856">
        <ele>217.4</ele>
        <time>2019-08-17T16:33:13Z</time>
      </trkpt>
      <trkpt lat="47.15125" lon="5.69851">
        <ele>217.5</ele>
        <time>2019-08-17T16:33:14Z</time>
      </trkpt>
      <trkpt lat="47.15123" lon="5.69845">
        <ele>217.5</ele>
        <time>2019-08-17T16:33:15Z</time>
      </trkpt>
      <trkpt lat="47.15122" lon="5.6984">
        <ele>217.6</ele>
        <time>2019-08-17T16:33:16Z</time>
      </trkpt>
      <trkpt lat="47.15122" lon="5.69835">
        <ele>217.7</ele>
        <time>2019-08-17T16:33:17Z</time>
      </trkpt>
      <trkpt lat="47.15122" lon="5.69829">
        <ele>217.8</ele>
        <time>2019-08-17T16:33:18Z</time>
      </trkpt>
      <trkpt lat="47.15121" lon="5.69823">
        <ele>217.9</ele>
        <time>2019-08-17T16:33:19Z</time>
      </trkpt>
      <trkpt lat="47.1512" lon="5.69818">
        <ele>218</ele>
        <time>2019-08-17T16:33:20Z</time>
      </trkpt>
      <trkpt lat="47.15119" lon="5.69813">
        <ele>218.2</ele>
        <time>2019-08-17T16:33:21Z</time>
      </trkpt>
      <trkpt lat="47.15119" lon="5.69808">
        <ele>218.3</ele>
        <time>2019-08-17T16:33:22Z</time>
      </trkpt>
      <trkpt lat="47.15119" lon="5.69802">
        <ele>218.5</ele>
        <time>2019-08-17T16:33:23Z</time>
      </trkpt>
      <trkpt lat="47.15119" lon="5.69797">
        <ele>218.7</ele>
        <time>2019-08-17T16:33:24Z</time>
      </trkpt>
      <trkpt lat="47.15119" lon="5.69792">
        <ele>218.8</ele>
        <time>2019-08-17T16:33:25Z</time>
      </trkpt>
      <trkpt lat="47.15119" lon="5.69786">
        <ele>219</ele>
        <time>2019-08-17T16:33:26Z</time>
      </trkpt>
      <trkpt lat="47.15119" lon="5.69781">
        <ele>219.2</ele>
        <time>2019-08-17T16:33:27Z</time>
      </trkpt>
      <trkpt lat="47.15119" lon="5.69774">
        <ele>219.4</ele>
        <time>2019-08-17T16:33:28Z</time>
      </trkpt>
      <trkpt lat="47.15119" lon="5.69767">
        <ele>219.7</ele>
        <time>2019-08-17T16:33:29Z</time>
      </trkpt>
      <trkpt lat="47.1512" lon="5.69762">
        <ele>219.8</ele>
        <time>2019-08-17T16:33:30Z</time>
      </trkpt>
      <trkpt lat="47.1512" lon="5.69756">
        <ele>220</ele>
        <time>2019-08-17T16:33:31Z</time>
      </trkpt>
      <trkpt lat="47.1512" lon="5.69751">
        <ele>220.1</ele>
        <time>2019-08-17T16:33:32Z</time>
      </trkpt>
      <trkpt lat="47.15119" lon="5.69746">
        <ele>220.2</ele>
        <time>2019-08-17T16:33:33Z</time>
      </trkpt>
      <trkpt lat="47.15118" lon="5.69741">
        <ele>220.3</ele>
        <time>2019-08-17T16:33:34Z</time>
      </trkpt>
      <trkpt lat="47.15119" lon="5.69736">
        <ele>220.4</ele>
        <time>2019-08-17T16:33:35Z</time>
      </trkpt>
      <trkpt lat="47.1512" lon="5.69732">
        <ele>220.5</ele>
        <time>2019-08-17T16:33:36Z</time>
      </trkpt>
      <trkpt lat="47.1512" lon="5.69726">
        <ele>220.6</ele>
        <time>2019-08-17T16:33:37Z</time>
      </trkpt>
      <trkpt lat="47.15121" lon="5.6972">
        <ele>220.7</ele>
        <time>2019-08-17T16:33:38Z</time>
      </trkpt>
      <trkpt lat="47.15122" lon="5.69714">
        <ele>220.8</ele>
        <time>2019-08-17T16:33:39Z</time>
      </trkpt>
      <trkpt lat="47.15122" lon="5.69709">
        <ele>220.9</ele>
        <time>2019-08-17T16:33:40Z</time>
      </trkpt>
      <trkpt lat="47.15123" lon="5.69703">
        <ele>221</ele>
        <time>2019-08-17T16:33:41Z</time>
      </trkpt>
      <trkpt lat="47.15124" lon="5.69697">
        <ele>221.2</ele>
        <time>2019-08-17T16:33:42Z</time>
      </trkpt>
      <trkpt lat="47.15124" lon="5.69692">
        <ele>221.3</ele>
        <time>2019-08-17T16:33:43Z</time>
      </trkpt>
      <trkpt lat="47.15123" lon="5.69687">
        <ele>221.4</ele>
        <time>2019-08-17T16:33:44Z</time>
      </trkpt>
      <trkpt lat="47.15123" lon="5.69681">
        <ele>221.5</ele>
        <time>2019-08-17T16:33:45Z</time>
      </trkpt>
      <trkpt lat="47.15123" lon="5.69676">
        <ele>221.6</ele>
        <time>2019-08-17T16:33:46Z</time>
      </trkpt>
      <trkpt lat="47.15124" lon="5.69671">
        <ele>221.7</ele>
        <time>2019-08-17T16:33:47Z</time>
      </trkpt>
      <trkpt lat="47.15124" lon="5.69666">
        <ele>221.8</ele>
        <time>2019-08-17T16:33:48Z</time>
      </trkpt>
      <trkpt lat="47.15124" lon="5.69661">
        <ele>221.9</ele>
        <time>2019-08-17T16:33:49Z</time>
      </trkpt>
      <trkpt lat="47.15125" lon="5.69655">
        <ele>222</ele>
        <time>2019-08-17T16:33:50Z</time>
      </trkpt>
      <trkpt lat="47.15125" lon="5.6965">
        <ele>222.1</ele>
        <time>2019-08-17T16:33:51Z</time>
      </trkpt>
      <trkpt lat="47.15127" lon="5.69643">
        <ele>222.2</ele>
        <time>2019-08-17T16:33:52Z</time>
      </trkpt>
      <trkpt lat="47.15127" lon="5.69639">
        <ele>222.3</ele>
        <time>2019-08-17T16:33:53Z</time>
      </trkpt>
      <trkpt lat="47.15128" lon="5.69634">
        <ele>222.4</ele>
        <time>2019-08-17T16:33:54Z</time>
      </trkpt>
      <trkpt lat="47.15128" lon="5.6963">
        <ele>222.6</ele>
        <time>2019-08-17T16:33:55Z</time>
      </trkpt>
      <trkpt lat="47.15129" lon="5.69624">
        <ele>222.7</ele>
        <time>2019-08-17T16:33:56Z</time>
      </trkpt>
      <trkpt lat="47.1513" lon="5.69618">
        <ele>222.9</ele>
        <time>2019-08-17T16:33:57Z</time>
      </trkpt>
      <trkpt lat="47.15132" lon="5.69614">
        <ele>223.1</ele>
        <time>2019-08-17T16:33:58Z</time>
      </trkpt>
      <trkpt lat="47.15133" lon="5.69609">
        <ele>223.3</ele>
        <time>2019-08-17T16:33:59Z</time>
      </trkpt>
      <trkpt lat="47.15134" lon="5.69605">
        <ele>223.4</ele>
        <time>2019-08-17T16:34:00Z</time>
      </trkpt>
      <trkpt lat="47.15135" lon="5.696">
        <ele>223.6</ele>
        <time>2019-08-17T16:34:01Z</time>
      </trkpt>
      <trkpt lat="47.15136" lon="5.69595">
        <ele>223.8</ele>
        <time>2019-08-17T16:34:02Z</time>
      </trkpt>
      <trkpt lat="47.15136" lon="5.69591">
        <ele>224</ele>
        <time>2019-08-17T16:34:03Z</time>
      </trkpt>
      <trkpt lat="47.15137" lon="5.69586">
        <ele>224.2</ele>
        <time>2019-08-17T16:34:04Z</time>
      </trkpt>
      <trkpt lat="47.15137" lon="5.69581">
        <ele>224.4</ele>
        <time>2019-08-17T16:34:05Z</time>
      </trkpt>
      <trkpt lat="47.15139" lon="5.69574">
        <ele>224.8</ele>
        <time>2019-08-17T16:34:07Z</time>
      </trkpt>
      <trkpt lat="47.15138" lon="5.69567">
        <ele>225.1</ele>
        <time>2019-08-17T16:34:09Z</time>
      </trkpt>
      <trkpt lat="47.15138" lon="5.69562">
        <ele>225.4</ele>
        <time>2019-08-17T16:34:11Z</time>
      </trkpt>
      <trkpt lat="47.15139" lon="5.69555">
        <ele>225.7</ele>
        <time>2019-08-17T16:34:13Z</time>
      </trkpt>
      <trkpt lat="47.1514" lon="5.69548">
        <ele>226.1</ele>
        <time>2019-08-17T16:34:15Z</time>
      </trkpt>
      <trkpt lat="47.15142" lon="5.69543">
        <ele>226.4</ele>
        <time>2019-08-17T16:34:16Z</time>
      </trkpt>
      <trkpt lat="47.15142" lon="5.69535">
        <ele>226.7</ele>
        <time>2019-08-17T16:34:18Z</time>
      </trkpt>
      <trkpt lat="47.15143" lon="5.69531">
        <ele>226.9</ele>
        <time>2019-08-17T16:34:20Z</time>
      </trkpt>
      <trkpt lat="47.15144" lon="5.69527">
        <ele>227.1</ele>
        <time>2019-08-17T16:34:21Z</time>
      </trkpt>
      <trkpt lat="47.15144" lon="5.69518">
        <ele>227.5</ele>
        <time>2019-08-17T16:34:23Z</time>
      </trkpt>
      <trkpt lat="47.15145" lon="5.69514">
        <ele>227.7</ele>
        <time>2019-08-17T16:34:24Z</time>
      </trkpt>
      <trkpt lat="47.15146" lon="5.69507">
        <ele>228.1</ele>
        <time>2019-08-17T16:34:26Z</time>
      </trkpt>
      <trkpt lat="47.15147" lon="5.69502">
        <ele>228.3</ele>
        <time>2019-08-17T16:34:27Z</time>
      </trkpt>
      <trkpt lat="47.15149" lon="5.69495">
        <ele>228.7</ele>
        <time>2019-08-17T16:34:29Z</time>
      </trkpt>
      <trkpt lat="47.15151" lon="5.69488">
        <ele>229.1</ele>
        <time>2019-08-17T16:34:31Z</time>
      </trkpt>
      <trkpt lat="47.15153" lon="5.69483">
        <ele>229.4</ele>
        <time>2019-08-17T16:34:33Z</time>
      </trkpt>
      <trkpt lat="47.15154" lon="5.69479">
        <ele>229.6</ele>
        <time>2019-08-17T16:34:35Z</time>
      </trkpt>
      <trkpt lat="47.15156" lon="5.69475">
        <ele>229.8</ele>
        <time>2019-08-17T16:34:37Z</time>
      </trkpt>
      <trkpt lat="47.15158" lon="5.69469">
        <ele>230.1</ele>
        <time>2019-08-17T16:34:39Z</time>
      </trkpt>
      <trkpt lat="47.15159" lon="5.69466">
        <ele>230.4</ele>
        <time>2019-08-17T16:34:41Z</time>
      </trkpt>
      <trkpt lat="47.15161" lon="5.69462">
        <ele>230.6</ele>
        <time>2019-08-17T16:34:44Z</time>
      </trkpt>
      <trkpt lat="47.15163" lon="5.69457">
        <ele>230.9</ele>
        <time>2019-08-17T16:34:46Z</time>
      </trkpt>
      <trkpt lat="47.15165" lon="5.69452">
        <ele>231.2</ele>
        <time>2019-08-17T16:34:48Z</time>
      </trkpt>
      <trkpt lat="47.15168" lon="5.69448">
        <ele>231.4</ele>
        <time>2019-08-17T16:34:50Z</time>
      </trkpt>
      <trkpt lat="47.15171" lon="5.69445">
        <ele>231.7</ele>
        <time>2019-08-17T16:34:52Z</time>
      </trkpt>
      <trkpt lat="47.15175" lon="5.6944">
        <ele>232</ele>
        <time>2019-08-17T16:34:54Z</time>
      </trkpt>
      <trkpt lat="47.15177" lon="5.69436">
        <ele>232.1</ele>
        <time>2019-08-17T16:34:55Z</time>
      </trkpt>
      <trkpt lat="47.1518" lon="5.69432">
        <ele>232.3</ele>
        <time>2019-08-17T16:34:57Z</time>
      </trkpt>
      <trkpt lat="47.15184" lon="5.69427">
        <ele>232.5</ele>
        <time>2019-08-17T16:34:59Z</time>
      </trkpt>
      <trkpt lat="47.15186" lon="5.69424">
        <ele>232.6</ele>
        <time>2019-08-17T16:35:00Z</time>
      </trkpt>
      <trkpt lat="47.15188" lon="5.69421">
        <ele>232.8</ele>
        <time>2019-08-17T16:35:01Z</time>
      </trkpt>
      <trkpt lat="47.1519" lon="5.69417">
        <ele>232.9</ele>
        <time>2019-08-17T16:35:02Z</time>
      </trkpt>
      <trkpt lat="47.15193" lon="5.69413">
        <ele>233.2</ele>
        <time>2019-08-17T16:35:04Z</time>
      </trkpt>
      <trkpt lat="47.15197" lon="5.69409">
        <ele>233.6</ele>
        <time>2019-08-17T16:35:06Z</time>
      </trkpt>
      <trkpt lat="47.15201" lon="5.69404">
        <ele>234</ele>
        <time>2019-08-17T16:35:08Z</time>
      </trkpt>
      <trkpt lat="47.15204" lon="5.694">
        <ele>234.4</ele>
        <time>2019-08-17T16:35:10Z</time>
      </trkpt>
      <trkpt lat="47.15208" lon="5.69395">
        <ele>234.9</ele>
        <time>2019-08-17T16:35:12Z</time>
      </trkpt>
      <trkpt lat="47.1521" lon="5.69392">
        <ele>235.2</ele>
        <time>2019-08-17T16:35:13Z</time>
      </trkpt>
      <trkpt lat="47.15215" lon="5.69388">
        <ele>235.7</ele>
        <time>2019-08-17T16:35:15Z</time>
      </trkpt>
      <trkpt lat="47.1522" lon="5.69384">
        <ele>236.1</ele>
        <time>2019-08-17T16:35:17Z</time>
      </trkpt>
      <trkpt lat="47.15221" lon="5.69381">
        <ele>236.3</ele>
        <time>2019-08-17T16:35:18Z</time>
      </trkpt>
      <trkpt lat="47.15225" lon="5.69375">
        <ele>236.6</ele>
        <time>2019-08-17T16:35:20Z</time>
      </trkpt>
      <trkpt lat="47.15229" lon="5.69371">
        <ele>236.8</ele>
        <time>2019-08-17T16:35:22Z</time>
      </trkpt>
      <trkpt lat="47.15231" lon="5.69367">
        <ele>237</ele>
        <time>2019-08-17T16:35:24Z</time>
      </trkpt>
      <trkpt lat="47.15234" lon="5.69362">
        <ele>237.1</ele>
        <time>2019-08-17T16:35:26Z</time>
      </trkpt>
      <trkpt lat="47.15238" lon="5.69358">
        <ele>237.2</ele>
        <time>2019-08-17T16:35:28Z</time>
      </trkpt>
      <trkpt lat="47.15241" lon="5.69352">
        <ele>237.4</ele>
        <time>2019-08-17T16:35:30Z</time>
      </trkpt>
      <trkpt lat="47.15242" lon="5.69349">
        <ele>237.4</ele>
        <time>2019-08-17T16:35:31Z</time>
      </trkpt>
      <trkpt lat="47.15245" lon="5.69344">
        <ele>237.5</ele>
        <time>2019-08-17T16:35:33Z</time>
      </trkpt>
      <trkpt lat="47.15246" lon="5.6934">
        <ele>237.6</ele>
        <time>2019-08-17T16:35:34Z</time>
      </trkpt>
      <trkpt lat="47.15247" lon="5.69335">
        <ele>237.8</ele>
        <time>2019-08-17T16:35:35Z</time>
      </trkpt>
      <trkpt lat="47.15249" lon="5.69327">
        <ele>238</ele>
        <time>2019-08-17T16:35:37Z</time>
      </trkpt>
      <trkpt lat="47.15251" lon="5.6932">
        <ele>238.2</ele>
        <time>2019-08-17T16:35:39Z</time>
      </trkpt>
      <trkpt lat="47.15252" lon="5.69316">
        <ele>238.4</ele>
        <time>2019-08-17T16:35:40Z</time>
      </trkpt>
      <trkpt lat="47.15253" lon="5.69311">
        <ele>238.5</ele>
        <time>2019-08-17T16:35:41Z</time>
      </trkpt>
      <trkpt lat="47.15252" lon="5.69307">
        <ele>238.6</ele>
        <time>2019-08-17T16:35:42Z</time>
      </trkpt>
      <trkpt lat="47.15253" lon="5.69297">
        <ele>238.9</ele>
        <time>2019-08-17T16:35:44Z</time>
      </trkpt>
      <trkpt lat="47.15252" lon="5.69294">
        <ele>239</ele>
        <time>2019-08-17T16:35:45Z</time>
      </trkpt>
      <trkpt lat="47.15252" lon="5.69289">
        <ele>239.2</ele>
        <time>2019-08-17T16:35:46Z</time>
      </trkpt>
      <trkpt lat="47.15251" lon="5.69286">
        <ele>239.3</ele>
        <time>2019-08-17T16:35:47Z</time>
      </trkpt>
      <trkpt lat="47.1525" lon="5.69282">
        <ele>239.4</ele>
        <time>2019-08-17T16:35:48Z</time>
      </trkpt>
      <trkpt lat="47.15247" lon="5.69275">
        <ele>239.6</ele>
        <time>2019-08-17T16:35:50Z</time>
      </trkpt>
      <trkpt lat="47.15247" lon="5.69271">
        <ele>239.7</ele>
        <time>2019-08-17T16:35:51Z</time>
      </trkpt>
      <trkpt lat="47.15246" lon="5.69266">
        <ele>239.8</ele>
        <time>2019-08-17T16:35:52Z</time>
      </trkpt>
      <trkpt lat="47.15245" lon="5.69262">
        <ele>239.8</ele>
        <time>2019-08-17T16:35:53Z</time>
      </trkpt>
      <trkpt lat="47.15244" lon="5.69258">
        <ele>239.9</ele>
        <time>2019-08-17T16:35:54Z</time>
      </trkpt>
      <trkpt lat="47.15243" lon="5.69254">
        <ele>240</ele>
        <time>2019-08-17T16:35:55Z</time>
      </trkpt>
      <trkpt lat="47.15242" lon="5.6925">
        <ele>240.1</ele>
        <time>2019-08-17T16:35:56Z</time>
      </trkpt>
      <trkpt lat="47.15241" lon="5.69245">
        <ele>240.2</ele>
        <time>2019-08-17T16:35:57Z</time>
      </trkpt>
      <trkpt lat="47.15239" lon="5.69238">
        <ele>240.4</ele>
        <time>2019-08-17T16:35:59Z</time>
      </trkpt>
      <trkpt lat="47.15238" lon="5.69229">
        <ele>240.6</ele>
        <time>2019-08-17T16:36:01Z</time>
      </trkpt>
      <trkpt lat="47.15237" lon="5.69225">
        <ele>240.7</ele>
        <time>2019-08-17T16:36:02Z</time>
      </trkpt>
      <trkpt lat="47.15236" lon="5.69222">
        <ele>240.8</ele>
        <time>2019-08-17T16:36:03Z</time>
      </trkpt>
      <trkpt lat="47.15236" lon="5.69217">
        <ele>240.9</ele>
        <time>2019-08-17T16:36:04Z</time>
      </trkpt>
      <trkpt lat="47.15235" lon="5.69213">
        <ele>241</ele>
        <time>2019-08-17T16:36:05Z</time>
      </trkpt>
      <trkpt lat="47.15235" lon="5.69209">
        <ele>241.1</ele>
        <time>2019-08-17T16:36:06Z</time>
      </trkpt>
      <trkpt lat="47.15235" lon="5.69204">
        <ele>241.2</ele>
        <time>2019-08-17T16:36:07Z</time>
      </trkpt>
      <trkpt lat="47.15234" lon="5.692">
        <ele>241.3</ele>
        <time>2019-08-17T16:36:08Z</time>
      </trkpt>
      <trkpt lat="47.15234" lon="5.69196">
        <ele>241.3</ele>
        <time>2019-08-17T16:36:09Z</time>
      </trkpt>
      <trkpt lat="47.15234" lon="5.69188">
        <ele>241.5</ele>
        <time>2019-08-17T16:36:11Z</time>
      </trkpt>
      <trkpt lat="47.15233" lon="5.69183">
        <ele>241.5</ele>
        <time>2019-08-17T16:36:12Z</time>
      </trkpt>
      <trkpt lat="47.15233" lon="5.69179">
        <ele>241.6</ele>
        <time>2019-08-17T16:36:13Z</time>
      </trkpt>
      <trkpt lat="47.15232" lon="5.69175">
        <ele>241.6</ele>
        <time>2019-08-17T16:36:14Z</time>
      </trkpt>
      <trkpt lat="47.15232" lon="5.69167">
        <ele>241.7</ele>
        <time>2019-08-17T16:36:16Z</time>
      </trkpt>
      <trkpt lat="47.15231" lon="5.69161">
        <ele>241.7</ele>
        <time>2019-08-17T16:36:18Z</time>
      </trkpt>
      <trkpt lat="47.15231" lon="5.69156">
        <ele>241.8</ele>
        <time>2019-08-17T16:36:19Z</time>
      </trkpt>
      <trkpt lat="47.15231" lon="5.69152">
        <ele>241.8</ele>
        <time>2019-08-17T16:36:20Z</time>
      </trkpt>
      <trkpt lat="47.1523" lon="5.69148">
        <ele>241.9</ele>
        <time>2019-08-17T16:36:21Z</time>
      </trkpt>
      <trkpt lat="47.1523" lon="5.69144">
        <ele>242</ele>
        <time>2019-08-17T16:36:22Z</time>
      </trkpt>
      <trkpt lat="47.1523" lon="5.69139">
        <ele>242</ele>
        <time>2019-08-17T16:36:23Z</time>
      </trkpt>
      <trkpt lat="47.1523" lon="5.69135">
        <ele>242.1</ele>
        <time>2019-08-17T16:36:24Z</time>
      </trkpt>
      <trkpt lat="47.1523" lon="5.6913">
        <ele>242.2</ele>
        <time>2019-08-17T16:36:25Z</time>
      </trkpt>
      <trkpt lat="47.1523" lon="5.69126">
        <ele>242.3</ele>
        <time>2019-08-17T16:36:26Z</time>
      </trkpt>
      <trkpt lat="47.1523" lon="5.69118">
        <ele>242.5</ele>
        <time>2019-08-17T16:36:28Z</time>
      </trkpt>
      <trkpt lat="47.1523" lon="5.69113">
        <ele>242.6</ele>
        <time>2019-08-17T16:36:29Z</time>
      </trkpt>
      <trkpt lat="47.1523" lon="5.69108">
        <ele>242.8</ele>
        <time>2019-08-17T16:36:30Z</time>
      </trkpt>
      <trkpt lat="47.1523" lon="5.69103">
        <ele>242.9</ele>
        <time>2019-08-17T16:36:31Z</time>
      </trkpt>
      <trkpt lat="47.15229" lon="5.69094">
        <ele>243.1</ele>
        <time>2019-08-17T16:36:33Z</time>
      </trkpt>
      <trkpt lat="47.15229" lon="5.69087">
        <ele>243.2</ele>
        <time>2019-08-17T16:36:35Z</time>
      </trkpt>
      <trkpt lat="47.15228" lon="5.6908">
        <ele>243.3</ele>
        <time>2019-08-17T16:36:37Z</time>
      </trkpt>
      <trkpt lat="47.15227" lon="5.69076">
        <ele>243.3</ele>
        <time>2019-08-17T16:36:38Z</time>
      </trkpt>
      <trkpt lat="47.15226" lon="5.69072">
        <ele>243.4</ele>
        <time>2019-08-17T16:36:39Z</time>
      </trkpt>
      <trkpt lat="47.15226" lon="5.69063">
        <ele>243.5</ele>
        <time>2019-08-17T16:36:41Z</time>
      </trkpt>
      <trkpt lat="47.15224" lon="5.69058">
        <ele>243.5</ele>
        <time>2019-08-17T16:36:42Z</time>
      </trkpt>
      <trkpt lat="47.15223" lon="5.69053">
        <ele>243.6</ele>
        <time>2019-08-17T16:36:43Z</time>
      </trkpt>
      <trkpt lat="47.15221" lon="5.69048">
        <ele>243.7</ele>
        <time>2019-08-17T16:36:44Z</time>
      </trkpt>
      <trkpt lat="47.1522" lon="5.69042">
        <ele>243.7</ele>
        <time>2019-08-17T16:36:45Z</time>
      </trkpt>
      <trkpt lat="47.15217" lon="5.6904">
        <ele>243.8</ele>
        <time>2019-08-17T16:36:46Z</time>
      </trkpt>
      <trkpt lat="47.15215" lon="5.69035">
        <ele>243.9</ele>
        <time>2019-08-17T16:36:47Z</time>
      </trkpt>
      <trkpt lat="47.15213" lon="5.69031">
        <ele>243.9</ele>
        <time>2019-08-17T16:36:48Z</time>
      </trkpt>
      <trkpt lat="47.15213" lon="5.69025">
        <ele>244</ele>
        <time>2019-08-17T16:36:49Z</time>
      </trkpt>
      <trkpt lat="47.15212" lon="5.69021">
        <ele>244</ele>
        <time>2019-08-17T16:36:50Z</time>
      </trkpt>
      <trkpt lat="47.15211" lon="5.69017">
        <ele>244</ele>
        <time>2019-08-17T16:36:51Z</time>
      </trkpt>
      <trkpt lat="47.1521" lon="5.69012">
        <ele>244.1</ele>
        <time>2019-08-17T16:36:52Z</time>
      </trkpt>
      <trkpt lat="47.15209" lon="5.69008">
        <ele>244.1</ele>
        <time>2019-08-17T16:36:53Z</time>
      </trkpt>
      <trkpt lat="47.15207" lon="5.69003">
        <ele>244.1</ele>
        <time>2019-08-17T16:36:54Z</time>
      </trkpt>
      <trkpt lat="47.15206" lon="5.68998">
        <ele>244.1</ele>
        <time>2019-08-17T16:36:55Z</time>
      </trkpt>
      <trkpt lat="47.15204" lon="5.68993">
        <ele>244.1</ele>
        <time>2019-08-17T16:36:56Z</time>
      </trkpt>
      <trkpt lat="47.15203" lon="5.68989">
        <ele>244.1</ele>
        <time>2019-08-17T16:36:57Z</time>
      </trkpt>
      <trkpt lat="47.15201" lon="5.68986">
        <ele>244</ele>
        <time>2019-08-17T16:36:58Z</time>
      </trkpt>
      <trkpt lat="47.15198" lon="5.68981">
        <ele>244</ele>
        <time>2019-08-17T16:36:59Z</time>
      </trkpt>
      <trkpt lat="47.15196" lon="5.68977">
        <ele>244</ele>
        <time>2019-08-17T16:37:00Z</time>
      </trkpt>
      <trkpt lat="47.15194" lon="5.68972">
        <ele>243.9</ele>
        <time>2019-08-17T16:37:01Z</time>
      </trkpt>
      <trkpt lat="47.15192" lon="5.68968">
        <ele>243.9</ele>
        <time>2019-08-17T16:37:02Z</time>
      </trkpt>
      <trkpt lat="47.15191" lon="5.68963">
        <ele>243.8</ele>
        <time>2019-08-17T16:37:03Z</time>
      </trkpt>
      <trkpt lat="47.15188" lon="5.6896">
        <ele>243.8</ele>
        <time>2019-08-17T16:37:04Z</time>
      </trkpt>
      <trkpt lat="47.15186" lon="5.68956">
        <ele>243.7</ele>
        <time>2019-08-17T16:37:05Z</time>
      </trkpt>
      <trkpt lat="47.15185" lon="5.68951">
        <ele>243.6</ele>
        <time>2019-08-17T16:37:06Z</time>
      </trkpt>
      <trkpt lat="47.15184" lon="5.68948">
        <ele>243.5</ele>
        <time>2019-08-17T16:37:07Z</time>
      </trkpt>
      <trkpt lat="47.15182" lon="5.68944">
        <ele>243.5</ele>
        <time>2019-08-17T16:37:08Z</time>
      </trkpt>
      <trkpt lat="47.1518" lon="5.68941">
        <ele>243.4</ele>
        <time>2019-08-17T16:37:09Z</time>
      </trkpt>
      <trkpt lat="47.15177" lon="5.68938">
        <ele>243.3</ele>
        <time>2019-08-17T16:37:10Z</time>
      </trkpt>
      <trkpt lat="47.15176" lon="5.68934">
        <ele>243.2</ele>
        <time>2019-08-17T16:37:11Z</time>
      </trkpt>
      <trkpt lat="47.15174" lon="5.68931">
        <ele>243.2</ele>
        <time>2019-08-17T16:37:12Z</time>
      </trkpt>
      <trkpt lat="47.15172" lon="5.68927">
        <ele>243.1</ele>
        <time>2019-08-17T16:37:13Z</time>
      </trkpt>
      <trkpt lat="47.15167" lon="5.68923">
        <ele>243</ele>
        <time>2019-08-17T16:37:15Z</time>
      </trkpt>
      <trkpt lat="47.15163" lon="5.68919">
        <ele>242.9</ele>
        <time>2019-08-17T16:37:17Z</time>
      </trkpt>
      <trkpt lat="47.1516" lon="5.68913">
        <ele>242.7</ele>
        <time>2019-08-17T16:37:19Z</time>
      </trkpt>
      <trkpt lat="47.15157" lon="5.68911">
        <ele>242.5</ele>
        <time>2019-08-17T16:37:20Z</time>
      </trkpt>
      <trkpt lat="47.15154" lon="5.68909">
        <ele>242.4</ele>
        <time>2019-08-17T16:37:21Z</time>
      </trkpt>
      <trkpt lat="47.15151" lon="5.68907">
        <ele>242.3</ele>
        <time>2019-08-17T16:37:22Z</time>
      </trkpt>
      <trkpt lat="47.15147" lon="5.68901">
        <ele>242</ele>
        <time>2019-08-17T16:37:24Z</time>
      </trkpt>
      <trkpt lat="47.15145" lon="5.68898">
        <ele>241.8</ele>
        <time>2019-08-17T16:37:25Z</time>
      </trkpt>
      <trkpt lat="47.15144" lon="5.68895">
        <ele>241.7</ele>
        <time>2019-08-17T16:37:26Z</time>
      </trkpt>
      <trkpt lat="47.15141" lon="5.68892">
        <ele>241.6</ele>
        <time>2019-08-17T16:37:27Z</time>
      </trkpt>
      <trkpt lat="47.15139" lon="5.68888">
        <ele>241.5</ele>
        <time>2019-08-17T16:37:28Z</time>
      </trkpt>
      <trkpt lat="47.15137" lon="5.68885">
        <ele>241.3</ele>
        <time>2019-08-17T16:37:29Z</time>
      </trkpt>
      <trkpt lat="47.15135" lon="5.68881">
        <ele>241.2</ele>
        <time>2019-08-17T16:37:30Z</time>
      </trkpt>
      <trkpt lat="47.15133" lon="5.68878">
        <ele>241.2</ele>
        <time>2019-08-17T16:37:31Z</time>
      </trkpt>
      <trkpt lat="47.1513" lon="5.68874">
        <ele>241.1</ele>
        <time>2019-08-17T16:37:32Z</time>
      </trkpt>
      <trkpt lat="47.15128" lon="5.6887">
        <ele>241</ele>
        <time>2019-08-17T16:37:33Z</time>
      </trkpt>
      <trkpt lat="47.15126" lon="5.68867">
        <ele>241</ele>
        <time>2019-08-17T16:37:34Z</time>
      </trkpt>
      <trkpt lat="47.15122" lon="5.68862">
        <ele>241</ele>
        <time>2019-08-17T16:37:36Z</time>
      </trkpt>
      <trkpt lat="47.15119" lon="5.6886">
        <ele>240.9</ele>
        <time>2019-08-17T16:37:37Z</time>
      </trkpt>
      <trkpt lat="47.15117" lon="5.68855">
        <ele>240.9</ele>
        <time>2019-08-17T16:37:38Z</time>
      </trkpt>
      <trkpt lat="47.15115" lon="5.68851">
        <ele>240.9</ele>
        <time>2019-08-17T16:37:39Z</time>
      </trkpt>
      <trkpt lat="47.15114" lon="5.68847">
        <ele>240.9</ele>
        <time>2019-08-17T16:37:40Z</time>
      </trkpt>
      <trkpt lat="47.15111" lon="5.68842">
        <ele>240.9</ele>
        <time>2019-08-17T16:37:41Z</time>
      </trkpt>
      <trkpt lat="47.15109" lon="5.68839">
        <ele>240.9</ele>
        <time>2019-08-17T16:37:42Z</time>
      </trkpt>
      <trkpt lat="47.15106" lon="5.68835">
        <ele>240.9</ele>
        <time>2019-08-17T16:37:43Z</time>
      </trkpt>
      <trkpt lat="47.15103" lon="5.68831">
        <ele>240.9</ele>
        <time>2019-08-17T16:37:44Z</time>
      </trkpt>
      <trkpt lat="47.151" lon="5.68827">
        <ele>240.9</ele>
        <time>2019-08-17T16:37:45Z</time>
      </trkpt>
      <trkpt lat="47.15097" lon="5.68823">
        <ele>240.9</ele>
        <time>2019-08-17T16:37:46Z</time>
      </trkpt>
      <trkpt lat="47.15094" lon="5.68819">
        <ele>240.9</ele>
        <time>2019-08-17T16:37:47Z</time>
      </trkpt>
      <trkpt lat="47.15091" lon="5.68814">
        <ele>240.9</ele>
        <time>2019-08-17T16:37:48Z</time>
      </trkpt>
      <trkpt lat="47.15088" lon="5.6881">
        <ele>240.9</ele>
        <time>2019-08-17T16:37:49Z</time>
      </trkpt>
      <trkpt lat="47.15085" lon="5.68806">
        <ele>240.9</ele>
        <time>2019-08-17T16:37:50Z</time>
      </trkpt>
      <trkpt lat="47.15082" lon="5.68802">
        <ele>240.9</ele>
        <time>2019-08-17T16:37:51Z</time>
      </trkpt>
      <trkpt lat="47.15079" lon="5.68799">
        <ele>240.9</ele>
        <time>2019-08-17T16:37:52Z</time>
      </trkpt>
      <trkpt lat="47.15075" lon="5.68794">
        <ele>240.9</ele>
        <time>2019-08-17T16:37:53Z</time>
      </trkpt>
      <trkpt lat="47.15072" lon="5.6879">
        <ele>240.9</ele>
        <time>2019-08-17T16:37:54Z</time>
      </trkpt>
      <trkpt lat="47.15069" lon="5.68785">
        <ele>240.9</ele>
        <time>2019-08-17T16:37:55Z</time>
      </trkpt>
      <trkpt lat="47.15066" lon="5.6878">
        <ele>240.9</ele>
        <time>2019-08-17T16:37:56Z</time>
      </trkpt>
      <trkpt lat="47.15064" lon="5.68774">
        <ele>240.9</ele>
        <time>2019-08-17T16:37:57Z</time>
      </trkpt>
      <trkpt lat="47.15062" lon="5.68769">
        <ele>240.9</ele>
        <time>2019-08-17T16:37:58Z</time>
      </trkpt>
      <trkpt lat="47.15059" lon="5.68764">
        <ele>240.9</ele>
        <time>2019-08-17T16:37:59Z</time>
      </trkpt>
      <trkpt lat="47.15056" lon="5.68758">
        <ele>240.9</ele>
        <time>2019-08-17T16:38:00Z</time>
      </trkpt>
      <trkpt lat="47.15053" lon="5.68753">
        <ele>240.9</ele>
        <time>2019-08-17T16:38:01Z</time>
      </trkpt>
      <trkpt lat="47.15049" lon="5.68747">
        <ele>240.9</ele>
        <time>2019-08-17T16:38:02Z</time>
      </trkpt>
      <trkpt lat="47.15047" lon="5.68742">
        <ele>240.9</ele>
        <time>2019-08-17T16:38:03Z</time>
      </trkpt>
      <trkpt lat="47.15043" lon="5.68736">
        <ele>240.9</ele>
        <time>2019-08-17T16:38:04Z</time>
      </trkpt>
      <trkpt lat="47.1504" lon="5.68731">
        <ele>240.9</ele>
        <time>2019-08-17T16:38:05Z</time>
      </trkpt>
      <trkpt lat="47.15037" lon="5.68726">
        <ele>240.9</ele>
        <time>2019-08-17T16:38:06Z</time>
      </trkpt>
      <trkpt lat="47.15035" lon="5.68722">
        <ele>240.9</ele>
        <time>2019-08-17T16:38:07Z</time>
      </trkpt>
      <trkpt lat="47.15032" lon="5.68717">
        <ele>240.9</ele>
        <time>2019-08-17T16:38:08Z</time>
      </trkpt>
      <trkpt lat="47.1503" lon="5.68714">
        <ele>240.9</ele>
        <time>2019-08-17T16:38:09Z</time>
      </trkpt>
      <trkpt lat="47.15029" lon="5.6871">
        <ele>240.9</ele>
        <time>2019-08-17T16:38:10Z</time>
      </trkpt>
      <trkpt lat="47.15026" lon="5.68706">
        <ele>240.9</ele>
        <time>2019-08-17T16:38:11Z</time>
      </trkpt>
      <trkpt lat="47.15023" lon="5.68703">
        <ele>240.9</ele>
        <time>2019-08-17T16:38:12Z</time>
      </trkpt>
      <trkpt lat="47.15021" lon="5.687">
        <ele>240.9</ele>
        <time>2019-08-17T16:38:13Z</time>
      </trkpt>
      <trkpt lat="47.15019" lon="5.68696">
        <ele>241</ele>
        <time>2019-08-17T16:38:14Z</time>
      </trkpt>
      <trkpt lat="47.15017" lon="5.68691">
        <ele>241</ele>
        <time>2019-08-17T16:38:15Z</time>
      </trkpt>
      <trkpt lat="47.15015" lon="5.68688">
        <ele>241</ele>
        <time>2019-08-17T16:38:16Z</time>
      </trkpt>
      <trkpt lat="47.15012" lon="5.68683">
        <ele>241</ele>
        <time>2019-08-17T16:38:18Z</time>
      </trkpt>
      <trkpt lat="47.15011" lon="5.68677">
        <ele>241.1</ele>
        <time>2019-08-17T16:38:20Z</time>
      </trkpt>
      <trkpt lat="47.15008" lon="5.68674">
        <ele>241.1</ele>
        <time>2019-08-17T16:38:22Z</time>
      </trkpt>
      <trkpt lat="47.15005" lon="5.68668">
        <ele>241.2</ele>
        <time>2019-08-17T16:38:24Z</time>
      </trkpt>
      <trkpt lat="47.15003" lon="5.68662">
        <ele>241.3</ele>
        <time>2019-08-17T16:38:26Z</time>
      </trkpt>
      <trkpt lat="47.15002" lon="5.68659">
        <ele>241.3</ele>
        <time>2019-08-17T16:38:28Z</time>
      </trkpt>
      <trkpt lat="47.14999" lon="5.68654">
        <ele>241.4</ele>
        <time>2019-08-17T16:38:30Z</time>
      </trkpt>
      <trkpt lat="47.14997" lon="5.68648">
        <ele>241.5</ele>
        <time>2019-08-17T16:38:32Z</time>
      </trkpt>
      <trkpt lat="47.14995" lon="5.68643">
        <ele>241.6</ele>
        <time>2019-08-17T16:38:34Z</time>
      </trkpt>
      <trkpt lat="47.14993" lon="5.68637">
        <ele>241.8</ele>
        <time>2019-08-17T16:38:36Z</time>
      </trkpt>
      <trkpt lat="47.14991" lon="5.6863">
        <ele>241.9</ele>
        <time>2019-08-17T16:38:38Z</time>
      </trkpt>
      <trkpt lat="47.1499" lon="5.68627">
        <ele>242.1</ele>
        <time>2019-08-17T16:38:39Z</time>
      </trkpt>
      <trkpt lat="47.14988" lon="5.68623">
        <ele>242.2</ele>
        <time>2019-08-17T16:38:40Z</time>
      </trkpt>
      <trkpt lat="47.14987" lon="5.68619">
        <ele>242.3</ele>
        <time>2019-08-17T16:38:41Z</time>
      </trkpt>
      <trkpt lat="47.14985" lon="5.68613">
        <ele>242.5</ele>
        <time>2019-08-17T16:38:43Z</time>
      </trkpt>
      <trkpt lat="47.14982" lon="5.68607">
        <ele>242.8</ele>
        <time>2019-08-17T16:38:45Z</time>
      </trkpt>
      <trkpt lat="47.1498" lon="5.68603">
        <ele>242.9</ele>
        <time>2019-08-17T16:38:46Z</time>
      </trkpt>
      <trkpt lat="47.14978" lon="5.68598">
        <ele>243.2</ele>
        <time>2019-08-17T16:38:48Z</time>
      </trkpt>
      <trkpt lat="47.14977" lon="5.68592">
        <ele>243.5</ele>
        <time>2019-08-17T16:38:50Z</time>
      </trkpt>
      <trkpt lat="47.14976" lon="5.68587">
        <ele>243.8</ele>
        <time>2019-08-17T16:38:52Z</time>
      </trkpt>
      <trkpt lat="47.14973" lon="5.68581">
        <ele>244.2</ele>
        <time>2019-08-17T16:38:54Z</time>
      </trkpt>
      <trkpt lat="47.14971" lon="5.68574">
        <ele>244.5</ele>
        <time>2019-08-17T16:38:56Z</time>
      </trkpt>
      <trkpt lat="47.14968" lon="5.6857">
        <ele>244.9</ele>
        <time>2019-08-17T16:38:58Z</time>
      </trkpt>
      <trkpt lat="47.14965" lon="5.68565">
        <ele>245.2</ele>
        <time>2019-08-17T16:39:00Z</time>
      </trkpt>
      <trkpt lat="47.14962" lon="5.68558">
        <ele>245.4</ele>
        <time>2019-08-17T16:39:02Z</time>
      </trkpt>
      <trkpt lat="47.14961" lon="5.68553">
        <ele>245.6</ele>
        <time>2019-08-17T16:39:04Z</time>
      </trkpt>
      <trkpt lat="47.14958" lon="5.68549">
        <ele>245.9</ele>
        <time>2019-08-17T16:39:06Z</time>
      </trkpt>
      <trkpt lat="47.14955" lon="5.68543">
        <ele>246</ele>
        <time>2019-08-17T16:39:08Z</time>
      </trkpt>
      <trkpt lat="47.14953" lon="5.68538">
        <ele>246.1</ele>
        <time>2019-08-17T16:39:10Z</time>
      </trkpt>
      <trkpt lat="47.14951" lon="5.68533">
        <ele>246.2</ele>
        <time>2019-08-17T16:39:12Z</time>
      </trkpt>
      <trkpt lat="47.14948" lon="5.68526">
        <ele>246.4</ele>
        <time>2019-08-17T16:39:14Z</time>
      </trkpt>
      <trkpt lat="47.14945" lon="5.68522">
        <ele>246.5</ele>
        <time>2019-08-17T16:39:16Z</time>
      </trkpt>
      <trkpt lat="47.14943" lon="5.68519">
        <ele>246.6</ele>
        <time>2019-08-17T16:39:17Z</time>
      </trkpt>
      <trkpt lat="47.14941" lon="5.68515">
        <ele>246.7</ele>
        <time>2019-08-17T16:39:18Z</time>
      </trkpt>
      <trkpt lat="47.14939" lon="5.6851">
        <ele>246.9</ele>
        <time>2019-08-17T16:39:20Z</time>
      </trkpt>
      <trkpt lat="47.14937" lon="5.68506">
        <ele>246.9</ele>
        <time>2019-08-17T16:39:21Z</time>
      </trkpt>
      <trkpt lat="47.14936" lon="5.68503">
        <ele>247</ele>
        <time>2019-08-17T16:39:22Z</time>
      </trkpt>
      <trkpt lat="47.14933" lon="5.68502">
        <ele>247.1</ele>
        <time>2019-08-17T16:39:23Z</time>
      </trkpt>
      <trkpt lat="47.14929" lon="5.68498">
        <ele>247.2</ele>
        <time>2019-08-17T16:39:25Z</time>
      </trkpt>
      <trkpt lat="47.14925" lon="5.68494">
        <ele>247.4</ele>
        <time>2019-08-17T16:39:27Z</time>
      </trkpt>
      <trkpt lat="47.14922" lon="5.68488">
        <ele>247.5</ele>
        <time>2019-08-17T16:39:29Z</time>
      </trkpt>
      <trkpt lat="47.14918" lon="5.68485">
        <ele>247.6</ele>
        <time>2019-08-17T16:39:31Z</time>
      </trkpt>
      <trkpt lat="47.14915" lon="5.6848">
        <ele>247.8</ele>
        <time>2019-08-17T16:39:33Z</time>
      </trkpt>
      <trkpt lat="47.14912" lon="5.68475">
        <ele>247.8</ele>
        <time>2019-08-17T16:39:35Z</time>
      </trkpt>
      <trkpt lat="47.1491" lon="5.68472">
        <ele>247.7</ele>
        <time>2019-08-17T16:39:36Z</time>
      </trkpt>
      <trkpt lat="47.14906" lon="5.68468">
        <ele>247.7</ele>
        <time>2019-08-17T16:39:38Z</time>
      </trkpt>
      <trkpt lat="47.14902" lon="5.68464">
        <ele>247.6</ele>
        <time>2019-08-17T16:39:40Z</time>
      </trkpt>
      <trkpt lat="47.14898" lon="5.68458">
        <ele>247.5</ele>
        <time>2019-08-17T16:39:42Z</time>
      </trkpt>
      <trkpt lat="47.14895" lon="5.68456">
        <ele>247.4</ele>
        <time>2019-08-17T16:39:43Z</time>
      </trkpt>
      <trkpt lat="47.14893" lon="5.68452">
        <ele>247.3</ele>
        <time>2019-08-17T16:39:44Z</time>
      </trkpt>
      <trkpt lat="47.1489" lon="5.6845">
        <ele>247.2</ele>
        <time>2019-08-17T16:39:45Z</time>
      </trkpt>
      <trkpt lat="47.14888" lon="5.68447">
        <ele>247.1</ele>
        <time>2019-08-17T16:39:46Z</time>
      </trkpt>
      <trkpt lat="47.14885" lon="5.68443">
        <ele>247</ele>
        <time>2019-08-17T16:39:47Z</time>
      </trkpt>
      <trkpt lat="47.14883" lon="5.6844">
        <ele>247</ele>
        <time>2019-08-17T16:39:48Z</time>
      </trkpt>
      <trkpt lat="47.14881" lon="5.68438">
        <ele>247</ele>
        <time>2019-08-17T16:39:49Z</time>
      </trkpt>
      <trkpt lat="47.14878" lon="5.68436">
        <ele>246.9</ele>
        <time>2019-08-17T16:39:50Z</time>
      </trkpt>
      <trkpt lat="47.14876" lon="5.68434">
        <ele>246.9</ele>
        <time>2019-08-17T16:39:51Z</time>
      </trkpt>
      <trkpt lat="47.14871" lon="5.68431">
        <ele>246.8</ele>
        <time>2019-08-17T16:39:53Z</time>
      </trkpt>
      <trkpt lat="47.14867" lon="5.68428">
        <ele>246.7</ele>
        <time>2019-08-17T16:39:55Z</time>
      </trkpt>
      <trkpt lat="47.14861" lon="5.68423">
        <ele>246.7</ele>
        <time>2019-08-17T16:39:57Z</time>
      </trkpt>
      <trkpt lat="47.14857" lon="5.6842">
        <ele>246.5</ele>
        <time>2019-08-17T16:39:58Z</time>
      </trkpt>
      <trkpt lat="47.14854" lon="5.68417">
        <ele>246.5</ele>
        <time>2019-08-17T16:39:59Z</time>
      </trkpt>
      <trkpt lat="47.1485" lon="5.68415">
        <ele>246.3</ele>
        <time>2019-08-17T16:40:00Z</time>
      </trkpt>
      <trkpt lat="47.14846" lon="5.6841">
        <ele>246</ele>
        <time>2019-08-17T16:40:02Z</time>
      </trkpt>
      <trkpt lat="47.14843" lon="5.68407">
        <ele>245.8</ele>
        <time>2019-08-17T16:40:03Z</time>
      </trkpt>
      <trkpt lat="47.1484" lon="5.68405">
        <ele>245.7</ele>
        <time>2019-08-17T16:40:04Z</time>
      </trkpt>
      <trkpt lat="47.14837" lon="5.68403">
        <ele>245.5</ele>
        <time>2019-08-17T16:40:05Z</time>
      </trkpt>
      <trkpt lat="47.14834" lon="5.684">
        <ele>245.4</ele>
        <time>2019-08-17T16:40:06Z</time>
      </trkpt>
      <trkpt lat="47.14831" lon="5.68397">
        <ele>245.2</ele>
        <time>2019-08-17T16:40:07Z</time>
      </trkpt>
      <trkpt lat="47.14828" lon="5.68394">
        <ele>245.1</ele>
        <time>2019-08-17T16:40:08Z</time>
      </trkpt>
      <trkpt lat="47.14824" lon="5.68392">
        <ele>245</ele>
        <time>2019-08-17T16:40:09Z</time>
      </trkpt>
      <trkpt lat="47.14822" lon="5.68389">
        <ele>244.9</ele>
        <time>2019-08-17T16:40:10Z</time>
      </trkpt>
      <trkpt lat="47.14818" lon="5.68385">
        <ele>244.8</ele>
        <time>2019-08-17T16:40:11Z</time>
      </trkpt>
      <trkpt lat="47.14815" lon="5.68383">
        <ele>244.7</ele>
        <time>2019-08-17T16:40:12Z</time>
      </trkpt>
      <trkpt lat="47.14812" lon="5.6838">
        <ele>244.6</ele>
        <time>2019-08-17T16:40:13Z</time>
      </trkpt>
      <trkpt lat="47.1481" lon="5.68377">
        <ele>244.6</ele>
        <time>2019-08-17T16:40:14Z</time>
      </trkpt>
      <trkpt lat="47.14807" lon="5.68374">
        <ele>244.6</ele>
        <time>2019-08-17T16:40:15Z</time>
      </trkpt>
      <trkpt lat="47.14804" lon="5.68371">
        <ele>244.5</ele>
        <time>2019-08-17T16:40:16Z</time>
      </trkpt>
      <trkpt lat="47.14802" lon="5.68368">
        <ele>244.5</ele>
        <time>2019-08-17T16:40:17Z</time>
      </trkpt>
      <trkpt lat="47.14799" lon="5.68366">
        <ele>244.4</ele>
        <time>2019-08-17T16:40:18Z</time>
      </trkpt>
      <trkpt lat="47.14796" lon="5.68363">
        <ele>244.4</ele>
        <time>2019-08-17T16:40:19Z</time>
      </trkpt>
      <trkpt lat="47.14793" lon="5.6836">
        <ele>244.3</ele>
        <time>2019-08-17T16:40:20Z</time>
      </trkpt>
      <trkpt lat="47.1479" lon="5.68356">
        <ele>244.2</ele>
        <time>2019-08-17T16:40:21Z</time>
      </trkpt>
      <trkpt lat="47.14787" lon="5.68353">
        <ele>244.2</ele>
        <time>2019-08-17T16:40:22Z</time>
      </trkpt>
      <trkpt lat="47.14785" lon="5.6835">
        <ele>244.1</ele>
        <time>2019-08-17T16:40:23Z</time>
      </trkpt>
      <trkpt lat="47.14782" lon="5.68347">
        <ele>244.1</ele>
        <time>2019-08-17T16:40:24Z</time>
      </trkpt>
      <trkpt lat="47.14779" lon="5.68343">
        <ele>244</ele>
        <time>2019-08-17T16:40:25Z</time>
      </trkpt>
      <trkpt lat="47.14776" lon="5.68339">
        <ele>243.9</ele>
        <time>2019-08-17T16:40:26Z</time>
      </trkpt>
      <trkpt lat="47.14773" lon="5.68335">
        <ele>243.9</ele>
        <time>2019-08-17T16:40:27Z</time>
      </trkpt>
      <trkpt lat="47.14769" lon="5.68331">
        <ele>243.9</ele>
        <time>2019-08-17T16:40:28Z</time>
      </trkpt>
      <trkpt lat="47.14766" lon="5.68327">
        <ele>243.9</ele>
        <time>2019-08-17T16:40:29Z</time>
      </trkpt>
      <trkpt lat="47.14762" lon="5.68323">
        <ele>243.9</ele>
        <time>2019-08-17T16:40:30Z</time>
      </trkpt>
      <trkpt lat="47.14759" lon="5.68319">
        <ele>243.9</ele>
        <time>2019-08-17T16:40:31Z</time>
      </trkpt>
      <trkpt lat="47.14757" lon="5.68314">
        <ele>243.9</ele>
        <time>2019-08-17T16:40:32Z</time>
      </trkpt>
      <trkpt lat="47.14755" lon="5.6831">
        <ele>243.9</ele>
        <time>2019-08-17T16:40:33Z</time>
      </trkpt>
      <trkpt lat="47.14754" lon="5.68305">
        <ele>244</ele>
        <time>2019-08-17T16:40:34Z</time>
      </trkpt>
      <trkpt lat="47.14759" lon="5.68301">
        <ele>244.1</ele>
        <time>2019-08-17T16:40:36Z</time>
      </trkpt>
      <trkpt lat="47.14762" lon="5.68299">
        <ele>244.1</ele>
        <time>2019-08-17T16:40:37Z</time>
      </trkpt>
      <trkpt lat="47.14766" lon="5.68295">
        <ele>244.2</ele>
        <time>2019-08-17T16:40:38Z</time>
      </trkpt>
      <trkpt lat="47.14769" lon="5.68292">
        <ele>244.3</ele>
        <time>2019-08-17T16:40:39Z</time>
      </trkpt>
      <trkpt lat="47.14771" lon="5.68288">
        <ele>244.3</ele>
        <time>2019-08-17T16:40:40Z</time>
      </trkpt>
      <trkpt lat="47.14774" lon="5.68286">
        <ele>244.4</ele>
        <time>2019-08-17T16:40:41Z</time>
      </trkpt>
      <trkpt lat="47.14778" lon="5.68283">
        <ele>244.4</ele>
        <time>2019-08-17T16:40:42Z</time>
      </trkpt>
      <trkpt lat="47.14782" lon="5.68278">
        <ele>244.4</ele>
        <time>2019-08-17T16:40:43Z</time>
      </trkpt>
      <trkpt lat="47.14785" lon="5.68273">
        <ele>244.5</ele>
        <time>2019-08-17T16:40:44Z</time>
      </trkpt>
      <trkpt lat="47.14787" lon="5.68268">
        <ele>244.5</ele>
        <time>2019-08-17T16:40:45Z</time>
      </trkpt>
      <trkpt lat="47.1479" lon="5.68264">
        <ele>244.4</ele>
        <time>2019-08-17T16:40:46Z</time>
      </trkpt>
      <trkpt lat="47.14794" lon="5.6826">
        <ele>244.4</ele>
        <time>2019-08-17T16:40:47Z</time>
      </trkpt>
      <trkpt lat="47.14796" lon="5.68257">
        <ele>244.4</ele>
        <time>2019-08-17T16:40:48Z</time>
      </trkpt>
      <trkpt lat="47.14799" lon="5.68253">
        <ele>244.4</ele>
        <time>2019-08-17T16:40:49Z</time>
      </trkpt>
      <trkpt lat="47.14802" lon="5.68249">
        <ele>244.4</ele>
        <time>2019-08-17T16:40:50Z</time>
      </trkpt>
      <trkpt lat="47.14805" lon="5.68245">
        <ele>244.4</ele>
        <time>2019-08-17T16:40:51Z</time>
      </trkpt>
      <trkpt lat="47.14807" lon="5.68241">
        <ele>244.5</ele>
        <time>2019-08-17T16:40:52Z</time>
      </trkpt>
      <trkpt lat="47.14811" lon="5.68238">
        <ele>244.5</ele>
        <time>2019-08-17T16:40:53Z</time>
      </trkpt>
      <trkpt lat="47.14814" lon="5.68233">
        <ele>244.5</ele>
        <time>2019-08-17T16:40:54Z</time>
      </trkpt>
      <trkpt lat="47.14816" lon="5.68229">
        <ele>244.5</ele>
        <time>2019-08-17T16:40:55Z</time>
      </trkpt>
      <trkpt lat="47.1482" lon="5.68225">
        <ele>244.6</ele>
        <time>2019-08-17T16:40:56Z</time>
      </trkpt>
      <trkpt lat="47.14823" lon="5.68222">
        <ele>244.6</ele>
        <time>2019-08-17T16:40:57Z</time>
      </trkpt>
      <trkpt lat="47.14826" lon="5.68219">
        <ele>244.6</ele>
        <time>2019-08-17T16:40:58Z</time>
      </trkpt>
      <trkpt lat="47.14829" lon="5.68216">
        <ele>244.6</ele>
        <time>2019-08-17T16:40:59Z</time>
      </trkpt>
      <trkpt lat="47.14832" lon="5.68212">
        <ele>244.7</ele>
        <time>2019-08-17T16:41:00Z</time>
      </trkpt>
      <trkpt lat="47.14836" lon="5.68209">
        <ele>244.7</ele>
        <time>2019-08-17T16:41:01Z</time>
      </trkpt>
      <trkpt lat="47.14838" lon="5.68205">
        <ele>244.7</ele>
        <time>2019-08-17T16:41:02Z</time>
      </trkpt>
      <trkpt lat="47.14841" lon="5.68201">
        <ele>244.8</ele>
        <time>2019-08-17T16:41:03Z</time>
      </trkpt>
      <trkpt lat="47.14844" lon="5.68197">
        <ele>244.8</ele>
        <time>2019-08-17T16:41:04Z</time>
      </trkpt>
      <trkpt lat="47.14846" lon="5.68193">
        <ele>244.8</ele>
        <time>2019-08-17T16:41:05Z</time>
      </trkpt>
      <trkpt lat="47.14848" lon="5.68189">
        <ele>244.8</ele>
        <time>2019-08-17T16:41:06Z</time>
      </trkpt>
      <trkpt lat="47.14851" lon="5.68182">
        <ele>244.9</ele>
        <time>2019-08-17T16:41:08Z</time>
      </trkpt>
      <trkpt lat="47.14853" lon="5.68178">
        <ele>244.9</ele>
        <time>2019-08-17T16:41:09Z</time>
      </trkpt>
      <trkpt lat="47.14854" lon="5.68174">
        <ele>245</ele>
        <time>2019-08-17T16:41:10Z</time>
      </trkpt>
      <trkpt lat="47.14856" lon="5.68168">
        <ele>245</ele>
        <time>2019-08-17T16:41:11Z</time>
      </trkpt>
      <trkpt lat="47.14858" lon="5.68162">
        <ele>245</ele>
        <time>2019-08-17T16:41:12Z</time>
      </trkpt>
      <trkpt lat="47.1486" lon="5.68157">
        <ele>245.1</ele>
        <time>2019-08-17T16:41:13Z</time>
      </trkpt>
      <trkpt lat="47.14862" lon="5.68151">
        <ele>245.1</ele>
        <time>2019-08-17T16:41:14Z</time>
      </trkpt>
      <trkpt lat="47.14864" lon="5.68146">
        <ele>245.1</ele>
        <time>2019-08-17T16:41:15Z</time>
      </trkpt>
      <trkpt lat="47.14865" lon="5.68139">
        <ele>245.1</ele>
        <time>2019-08-17T16:41:16Z</time>
      </trkpt>
      <trkpt lat="47.14866" lon="5.68133">
        <ele>245.2</ele>
        <time>2019-08-17T16:41:17Z</time>
      </trkpt>
      <trkpt lat="47.14866" lon="5.68128">
        <ele>245.2</ele>
        <time>2019-08-17T16:41:18Z</time>
      </trkpt>
      <trkpt lat="47.14867" lon="5.68122">
        <ele>245.2</ele>
        <time>2019-08-17T16:41:19Z</time>
      </trkpt>
      <trkpt lat="47.14868" lon="5.68117">
        <ele>245.3</ele>
        <time>2019-08-17T16:41:20Z</time>
      </trkpt>
      <trkpt lat="47.14869" lon="5.68112">
        <ele>245.3</ele>
        <time>2019-08-17T16:41:21Z</time>
      </trkpt>
      <trkpt lat="47.14869" lon="5.68106">
        <ele>245.3</ele>
        <time>2019-08-17T16:41:22Z</time>
      </trkpt>
      <trkpt lat="47.1487" lon="5.68101">
        <ele>245.3</ele>
        <time>2019-08-17T16:41:23Z</time>
      </trkpt>
      <trkpt lat="47.14871" lon="5.68096">
        <ele>245.3</ele>
        <time>2019-08-17T16:41:24Z</time>
      </trkpt>
      <trkpt lat="47.14872" lon="5.6809">
        <ele>245.4</ele>
        <time>2019-08-17T16:41:25Z</time>
      </trkpt>
      <trkpt lat="47.14873" lon="5.68085">
        <ele>245.4</ele>
        <time>2019-08-17T16:41:26Z</time>
      </trkpt>
      <trkpt lat="47.14874" lon="5.68077">
        <ele>245.4</ele>
        <time>2019-08-17T16:41:27Z</time>
      </trkpt>
      <trkpt lat="47.14875" lon="5.6807">
        <ele>245.4</ele>
        <time>2019-08-17T16:41:28Z</time>
      </trkpt>
      <trkpt lat="47.14876" lon="5.68064">
        <ele>245.5</ele>
        <time>2019-08-17T16:41:29Z</time>
      </trkpt>
      <trkpt lat="47.14877" lon="5.68058">
        <ele>245.5</ele>
        <time>2019-08-17T16:41:30Z</time>
      </trkpt>
      <trkpt lat="47.14878" lon="5.68051">
        <ele>245.5</ele>
        <time>2019-08-17T16:41:31Z</time>
      </trkpt>
      <trkpt lat="47.14878" lon="5.68044">
        <ele>245.5</ele>
        <time>2019-08-17T16:41:32Z</time>
      </trkpt>
      <trkpt lat="47.14879" lon="5.68039">
        <ele>245.5</ele>
        <time>2019-08-17T16:41:33Z</time>
      </trkpt>
      <trkpt lat="47.1488" lon="5.68034">
        <ele>245.5</ele>
        <time>2019-08-17T16:41:34Z</time>
      </trkpt>
      <trkpt lat="47.14881" lon="5.6803">
        <ele>245.5</ele>
        <time>2019-08-17T16:41:35Z</time>
      </trkpt>
      <trkpt lat="47.14881" lon="5.68025">
        <ele>245.5</ele>
        <time>2019-08-17T16:41:36Z</time>
      </trkpt>
      <trkpt lat="47.14882" lon="5.6802">
        <ele>245.6</ele>
        <time>2019-08-17T16:41:37Z</time>
      </trkpt>
      <trkpt lat="47.14883" lon="5.68016">
        <ele>245.6</ele>
        <time>2019-08-17T16:41:38Z</time>
      </trkpt>
      <trkpt lat="47.14883" lon="5.68008">
        <ele>245.6</ele>
        <time>2019-08-17T16:41:39Z</time>
      </trkpt>
      <trkpt lat="47.14884" lon="5.68003">
        <ele>245.6</ele>
        <time>2019-08-17T16:41:40Z</time>
      </trkpt>
      <trkpt lat="47.14885" lon="5.67998">
        <ele>245.6</ele>
        <time>2019-08-17T16:41:41Z</time>
      </trkpt>
      <trkpt lat="47.14885" lon="5.67993">
        <ele>245.6</ele>
        <time>2019-08-17T16:41:42Z</time>
      </trkpt>
      <trkpt lat="47.14886" lon="5.67987">
        <ele>245.6</ele>
        <time>2019-08-17T16:41:43Z</time>
      </trkpt>
      <trkpt lat="47.14887" lon="5.67982">
        <ele>245.6</ele>
        <time>2019-08-17T16:41:44Z</time>
      </trkpt>
      <trkpt lat="47.14888" lon="5.67976">
        <ele>245.6</ele>
        <time>2019-08-17T16:41:45Z</time>
      </trkpt>
      <trkpt lat="47.14889" lon="5.6797">
        <ele>245.7</ele>
        <time>2019-08-17T16:41:46Z</time>
      </trkpt>
      <trkpt lat="47.1489" lon="5.67964">
        <ele>245.7</ele>
        <time>2019-08-17T16:41:47Z</time>
      </trkpt>
      <trkpt lat="47.14891" lon="5.67959">
        <ele>245.7</ele>
        <time>2019-08-17T16:41:48Z</time>
      </trkpt>
      <trkpt lat="47.14891" lon="5.67952">
        <ele>245.7</ele>
        <time>2019-08-17T16:41:49Z</time>
      </trkpt>
      <trkpt lat="47.14892" lon="5.67946">
        <ele>245.7</ele>
        <time>2019-08-17T16:41:50Z</time>
      </trkpt>
      <trkpt lat="47.14894" lon="5.67941">
        <ele>245.7</ele>
        <time>2019-08-17T16:41:51Z</time>
      </trkpt>
      <trkpt lat="47.14896" lon="5.67937">
        <ele>245.7</ele>
        <time>2019-08-17T16:41:52Z</time>
      </trkpt>
      <trkpt lat="47.149" lon="5.67933">
        <ele>245.7</ele>
        <time>2019-08-17T16:41:53Z</time>
      </trkpt>
      <trkpt lat="47.14904" lon="5.67932">
        <ele>245.7</ele>
        <time>2019-08-17T16:41:54Z</time>
      </trkpt>
      <trkpt lat="47.14908" lon="5.67931">
        <ele>245.7</ele>
        <time>2019-08-17T16:41:55Z</time>
      </trkpt>
      <trkpt lat="47.14912" lon="5.67931">
        <ele>245.7</ele>
        <time>2019-08-17T16:41:56Z</time>
      </trkpt>
      <trkpt lat="47.14916" lon="5.67931">
        <ele>245.7</ele>
        <time>2019-08-17T16:41:57Z</time>
      </trkpt>
      <trkpt lat="47.1492" lon="5.67931">
        <ele>245.7</ele>
        <time>2019-08-17T16:41:58Z</time>
      </trkpt>
      <trkpt lat="47.14923" lon="5.67933">
        <ele>245.7</ele>
        <time>2019-08-17T16:41:59Z</time>
      </trkpt>
      <trkpt lat="47.14927" lon="5.67933">
        <ele>245.7</ele>
        <time>2019-08-17T16:42:00Z</time>
      </trkpt>
      <trkpt lat="47.14931" lon="5.67933">
        <ele>245.7</ele>
        <time>2019-08-17T16:42:01Z</time>
      </trkpt>
      <trkpt lat="47.14934" lon="5.67934">
        <ele>245.7</ele>
        <time>2019-08-17T16:42:02Z</time>
      </trkpt>
      <trkpt lat="47.14939" lon="5.67933">
        <ele>245.7</ele>
        <time>2019-08-17T16:42:03Z</time>
      </trkpt>
      <trkpt lat="47.14942" lon="5.67933">
        <ele>245.7</ele>
        <time>2019-08-17T16:42:04Z</time>
      </trkpt>
      <trkpt lat="47.14946" lon="5.67934">
        <ele>245.7</ele>
        <time>2019-08-17T16:42:05Z</time>
      </trkpt>
      <trkpt lat="47.14949" lon="5.67935">
        <ele>245.7</ele>
        <time>2019-08-17T16:42:06Z</time>
      </trkpt>
      <trkpt lat="47.14953" lon="5.67934">
        <ele>245.7</ele>
        <time>2019-08-17T16:42:07Z</time>
      </trkpt>
      <trkpt lat="47.14956" lon="5.67935">
        <ele>245.7</ele>
        <time>2019-08-17T16:42:08Z</time>
      </trkpt>
      <trkpt lat="47.1496" lon="5.67934">
        <ele>245.7</ele>
        <time>2019-08-17T16:42:09Z</time>
      </trkpt>
      <trkpt lat="47.14964" lon="5.67934">
        <ele>245.7</ele>
        <time>2019-08-17T16:42:10Z</time>
      </trkpt>
      <trkpt lat="47.14968" lon="5.67935">
        <ele>245.9</ele>
        <time>2019-08-17T16:42:11Z</time>
      </trkpt>
      <trkpt lat="47.14972" lon="5.67929">
        <ele>246.1</ele>
        <time>2019-08-17T16:42:13Z</time>
      </trkpt>
      <trkpt lat="47.14973" lon="5.67924">
        <ele>246.2</ele>
        <time>2019-08-17T16:42:14Z</time>
      </trkpt>
      <trkpt lat="47.14972" lon="5.6792">
        <ele>246.3</ele>
        <time>2019-08-17T16:42:15Z</time>
      </trkpt>
      <trkpt lat="47.14972" lon="5.67916">
        <ele>246.3</ele>
        <time>2019-08-17T16:42:16Z</time>
      </trkpt>
      <trkpt lat="47.14971" lon="5.67911">
        <ele>246.4</ele>
        <time>2019-08-17T16:42:17Z</time>
      </trkpt>
      <trkpt lat="47.1497" lon="5.67906">
        <ele>246.5</ele>
        <time>2019-08-17T16:42:18Z</time>
      </trkpt>
      <trkpt lat="47.1497" lon="5.67901">
        <ele>246.5</ele>
        <time>2019-08-17T16:42:19Z</time>
      </trkpt>
      <trkpt lat="47.14969" lon="5.67895">
        <ele>246.6</ele>
        <time>2019-08-17T16:42:20Z</time>
      </trkpt>
      <trkpt lat="47.14969" lon="5.67889">
        <ele>246.6</ele>
        <time>2019-08-17T16:42:21Z</time>
      </trkpt>
      <trkpt lat="47.14968" lon="5.67884">
        <ele>246.6</ele>
        <time>2019-08-17T16:42:22Z</time>
      </trkpt>
      <trkpt lat="47.14968" lon="5.67879">
        <ele>246.6</ele>
        <time>2019-08-17T16:42:23Z</time>
      </trkpt>
      <trkpt lat="47.14967" lon="5.67874">
        <ele>246.6</ele>
        <time>2019-08-17T16:42:24Z</time>
      </trkpt>
      <trkpt lat="47.14966" lon="5.67869">
        <ele>246.6</ele>
        <time>2019-08-17T16:42:25Z</time>
      </trkpt>
      <trkpt lat="47.14965" lon="5.67863">
        <ele>246.5</ele>
        <time>2019-08-17T16:42:26Z</time>
      </trkpt>
      <trkpt lat="47.14965" lon="5.67857">
        <ele>246.5</ele>
        <time>2019-08-17T16:42:27Z</time>
      </trkpt>
      <trkpt lat="47.14964" lon="5.67851">
        <ele>246.4</ele>
        <time>2019-08-17T16:42:28Z</time>
      </trkpt>
      <trkpt lat="47.14963" lon="5.67844">
        <ele>246.3</ele>
        <time>2019-08-17T16:42:29Z</time>
      </trkpt>
      <trkpt lat="47.14962" lon="5.67837">
        <ele>246.3</ele>
        <time>2019-08-17T16:42:30Z</time>
      </trkpt>
      <trkpt lat="47.14961" lon="5.67831">
        <ele>246.2</ele>
        <time>2019-08-17T16:42:31Z</time>
      </trkpt>
      <trkpt lat="47.14961" lon="5.67825">
        <ele>246.2</ele>
        <time>2019-08-17T16:42:32Z</time>
      </trkpt>
      <trkpt lat="47.14961" lon="5.67819">
        <ele>246.1</ele>
        <time>2019-08-17T16:42:33Z</time>
      </trkpt>
      <trkpt lat="47.14961" lon="5.67814">
        <ele>246.1</ele>
        <time>2019-08-17T16:42:34Z</time>
      </trkpt>
      <trkpt lat="47.14961" lon="5.6781">
        <ele>246</ele>
        <time>2019-08-17T16:42:35Z</time>
      </trkpt>
      <trkpt lat="47.1496" lon="5.67803">
        <ele>246</ele>
        <time>2019-08-17T16:42:36Z</time>
      </trkpt>
      <trkpt lat="47.14959" lon="5.67798">
        <ele>245.9</ele>
        <time>2019-08-17T16:42:37Z</time>
      </trkpt>
      <trkpt lat="47.14959" lon="5.67792">
        <ele>245.9</ele>
        <time>2019-08-17T16:42:38Z</time>
      </trkpt>
      <trkpt lat="47.14958" lon="5.67787">
        <ele>245.8</ele>
        <time>2019-08-17T16:42:39Z</time>
      </trkpt>
      <trkpt lat="47.14957" lon="5.67781">
        <ele>245.8</ele>
        <time>2019-08-17T16:42:40Z</time>
      </trkpt>
      <trkpt lat="47.14956" lon="5.67775">
        <ele>245.7</ele>
        <time>2019-08-17T16:42:41Z</time>
      </trkpt>
      <trkpt lat="47.14955" lon="5.6777">
        <ele>245.7</ele>
        <time>2019-08-17T16:42:42Z</time>
      </trkpt>
      <trkpt lat="47.14955" lon="5.67764">
        <ele>245.7</ele>
        <time>2019-08-17T16:42:43Z</time>
      </trkpt>
      <trkpt lat="47.14956" lon="5.67759">
        <ele>245.6</ele>
        <time>2019-08-17T16:42:44Z</time>
      </trkpt>
      <trkpt lat="47.14956" lon="5.67753">
        <ele>245.6</ele>
        <time>2019-08-17T16:42:45Z</time>
      </trkpt>
      <trkpt lat="47.14955" lon="5.67746">
        <ele>245.5</ele>
        <time>2019-08-17T16:42:46Z</time>
      </trkpt>
      <trkpt lat="47.14955" lon="5.6774">
        <ele>245.5</ele>
        <time>2019-08-17T16:42:47Z</time>
      </trkpt>
      <trkpt lat="47.14954" lon="5.67734">
        <ele>245.5</ele>
        <time>2019-08-17T16:42:48Z</time>
      </trkpt>
      <trkpt lat="47.14954" lon="5.67728">
        <ele>245.4</ele>
        <time>2019-08-17T16:42:49Z</time>
      </trkpt>
      <trkpt lat="47.14953" lon="5.67722">
        <ele>245.4</ele>
        <time>2019-08-17T16:42:50Z</time>
      </trkpt>
      <trkpt lat="47.14952" lon="5.67717">
        <ele>245.3</ele>
        <time>2019-08-17T16:42:51Z</time>
      </trkpt>
      <trkpt lat="47.14951" lon="5.67712">
        <ele>245.3</ele>
        <time>2019-08-17T16:42:52Z</time>
      </trkpt>
      <trkpt lat="47.1495" lon="5.67706">
        <ele>245.2</ele>
        <time>2019-08-17T16:42:53Z</time>
      </trkpt>
      <trkpt lat="47.1495" lon="5.67699">
        <ele>245.2</ele>
        <time>2019-08-17T16:42:54Z</time>
      </trkpt>
      <trkpt lat="47.1495" lon="5.67693">
        <ele>245.2</ele>
        <time>2019-08-17T16:42:55Z</time>
      </trkpt>
      <trkpt lat="47.14949" lon="5.67686">
        <ele>245.1</ele>
        <time>2019-08-17T16:42:56Z</time>
      </trkpt>
      <trkpt lat="47.14948" lon="5.67678">
        <ele>245.1</ele>
        <time>2019-08-17T16:42:57Z</time>
      </trkpt>
      <trkpt lat="47.14948" lon="5.67671">
        <ele>245.1</ele>
        <time>2019-08-17T16:42:58Z</time>
      </trkpt>
      <trkpt lat="47.14948" lon="5.67663">
        <ele>245.1</ele>
        <time>2019-08-17T16:42:59Z</time>
      </trkpt>
      <trkpt lat="47.14947" lon="5.67656">
        <ele>245.1</ele>
        <time>2019-08-17T16:43:00Z</time>
      </trkpt>
      <trkpt lat="47.14946" lon="5.67648">
        <ele>245.1</ele>
        <time>2019-08-17T16:43:01Z</time>
      </trkpt>
      <trkpt lat="47.14946" lon="5.67641">
        <ele>245.1</ele>
        <time>2019-08-17T16:43:02Z</time>
      </trkpt>
      <trkpt lat="47.14944" lon="5.67635">
        <ele>245.1</ele>
        <time>2019-08-17T16:43:03Z</time>
      </trkpt>
      <trkpt lat="47.14944" lon="5.67629">
        <ele>245.2</ele>
        <time>2019-08-17T16:43:04Z</time>
      </trkpt>
      <trkpt lat="47.14944" lon="5.67623">
        <ele>245.2</ele>
        <time>2019-08-17T16:43:05Z</time>
      </trkpt>
      <trkpt lat="47.14944" lon="5.67617">
        <ele>245.2</ele>
        <time>2019-08-17T16:43:06Z</time>
      </trkpt>
      <trkpt lat="47.14944" lon="5.67611">
        <ele>245.2</ele>
        <time>2019-08-17T16:43:07Z</time>
      </trkpt>
      <trkpt lat="47.14944" lon="5.67604">
        <ele>245.3</ele>
        <time>2019-08-17T16:43:08Z</time>
      </trkpt>
      <trkpt lat="47.14943" lon="5.67597">
        <ele>245.3</ele>
        <time>2019-08-17T16:43:09Z</time>
      </trkpt>
      <trkpt lat="47.14943" lon="5.67589">
        <ele>245.3</ele>
        <time>2019-08-17T16:43:10Z</time>
      </trkpt>
      <trkpt lat="47.14942" lon="5.67582">
        <ele>245.3</ele>
        <time>2019-08-17T16:43:11Z</time>
      </trkpt>
      <trkpt lat="47.14941" lon="5.67576">
        <ele>245.3</ele>
        <time>2019-08-17T16:43:12Z</time>
      </trkpt>
      <trkpt lat="47.14941" lon="5.67569">
        <ele>245.3</ele>
        <time>2019-08-17T16:43:13Z</time>
      </trkpt>
      <trkpt lat="47.1494" lon="5.67563">
        <ele>245.3</ele>
        <time>2019-08-17T16:43:14Z</time>
      </trkpt>
      <trkpt lat="47.1494" lon="5.67555">
        <ele>245.3</ele>
        <time>2019-08-17T16:43:15Z</time>
      </trkpt>
      <trkpt lat="47.14939" lon="5.67548">
        <ele>245.3</ele>
        <time>2019-08-17T16:43:16Z</time>
      </trkpt>
      <trkpt lat="47.14939" lon="5.67542">
        <ele>245.3</ele>
        <time>2019-08-17T16:43:17Z</time>
      </trkpt>
      <trkpt lat="47.14939" lon="5.67536">
        <ele>245.3</ele>
        <time>2019-08-17T16:43:18Z</time>
      </trkpt>
      <trkpt lat="47.14938" lon="5.67529">
        <ele>245.3</ele>
        <time>2019-08-17T16:43:19Z</time>
      </trkpt>
      <trkpt lat="47.14937" lon="5.67523">
        <ele>245.3</ele>
        <time>2019-08-17T16:43:20Z</time>
      </trkpt>
      <trkpt lat="47.14936" lon="5.67517">
        <ele>245.3</ele>
        <time>2019-08-17T16:43:21Z</time>
      </trkpt>
      <trkpt lat="47.14935" lon="5.67509">
        <ele>245.3</ele>
        <time>2019-08-17T16:43:22Z</time>
      </trkpt>
      <trkpt lat="47.14935" lon="5.67502">
        <ele>245.3</ele>
        <time>2019-08-17T16:43:23Z</time>
      </trkpt>
      <trkpt lat="47.14934" lon="5.67495">
        <ele>245.3</ele>
        <time>2019-08-17T16:43:24Z</time>
      </trkpt>
      <trkpt lat="47.14933" lon="5.67488">
        <ele>245.3</ele>
        <time>2019-08-17T16:43:25Z</time>
      </trkpt>
      <trkpt lat="47.14932" lon="5.67481">
        <ele>245.3</ele>
        <time>2019-08-17T16:43:26Z</time>
      </trkpt>
      <trkpt lat="47.14931" lon="5.67474">
        <ele>245.3</ele>
        <time>2019-08-17T16:43:27Z</time>
      </trkpt>
      <trkpt lat="47.1493" lon="5.67467">
        <ele>245.3</ele>
        <time>2019-08-17T16:43:28Z</time>
      </trkpt>
      <trkpt lat="47.1493" lon="5.67461">
        <ele>245.3</ele>
        <time>2019-08-17T16:43:29Z</time>
      </trkpt>
      <trkpt lat="47.14929" lon="5.67453">
        <ele>245.3</ele>
        <time>2019-08-17T16:43:30Z</time>
      </trkpt>
      <trkpt lat="47.14928" lon="5.67446">
        <ele>245.3</ele>
        <time>2019-08-17T16:43:31Z</time>
      </trkpt>
      <trkpt lat="47.14928" lon="5.6744">
        <ele>245.3</ele>
        <time>2019-08-17T16:43:32Z</time>
      </trkpt>
      <trkpt lat="47.14928" lon="5.67434">
        <ele>245.3</ele>
        <time>2019-08-17T16:43:33Z</time>
      </trkpt>
      <trkpt lat="47.14928" lon="5.67426">
        <ele>245.3</ele>
        <time>2019-08-17T16:43:34Z</time>
      </trkpt>
      <trkpt lat="47.14927" lon="5.6742">
        <ele>245.3</ele>
        <time>2019-08-17T16:43:35Z</time>
      </trkpt>
      <trkpt lat="47.14927" lon="5.67413">
        <ele>245.3</ele>
        <time>2019-08-17T16:43:36Z</time>
      </trkpt>
      <trkpt lat="47.14926" lon="5.67406">
        <ele>245.3</ele>
        <time>2019-08-17T16:43:37Z</time>
      </trkpt>
      <trkpt lat="47.14926" lon="5.67401">
        <ele>245.3</ele>
        <time>2019-08-17T16:43:38Z</time>
      </trkpt>
      <trkpt lat="47.14924" lon="5.67396">
        <ele>245.3</ele>
        <time>2019-08-17T16:43:39Z</time>
      </trkpt>
      <trkpt lat="47.14924" lon="5.6739">
        <ele>245.2</ele>
        <time>2019-08-17T16:43:40Z</time>
      </trkpt>
      <trkpt lat="47.14923" lon="5.67385">
        <ele>245.2</ele>
        <time>2019-08-17T16:43:41Z</time>
      </trkpt>
      <trkpt lat="47.14923" lon="5.67379">
        <ele>245.2</ele>
        <time>2019-08-17T16:43:42Z</time>
      </trkpt>
      <trkpt lat="47.14923" lon="5.67374">
        <ele>245.2</ele>
        <time>2019-08-17T16:43:43Z</time>
      </trkpt>
      <trkpt lat="47.14923" lon="5.67369">
        <ele>245.2</ele>
        <time>2019-08-17T16:43:44Z</time>
      </trkpt>
      <trkpt lat="47.14923" lon="5.67361">
        <ele>245.2</ele>
        <time>2019-08-17T16:43:46Z</time>
      </trkpt>
      <trkpt lat="47.14922" lon="5.67356">
        <ele>245.2</ele>
        <time>2019-08-17T16:43:47Z</time>
      </trkpt>
      <trkpt lat="47.14922" lon="5.6735">
        <ele>245.2</ele>
        <time>2019-08-17T16:43:48Z</time>
      </trkpt>
      <trkpt lat="47.14921" lon="5.67344">
        <ele>245.3</ele>
        <time>2019-08-17T16:43:49Z</time>
      </trkpt>
      <trkpt lat="47.1492" lon="5.67338">
        <ele>245.3</ele>
        <time>2019-08-17T16:43:50Z</time>
      </trkpt>
      <trkpt lat="47.14918" lon="5.67331">
        <ele>245.3</ele>
        <time>2019-08-17T16:43:51Z</time>
      </trkpt>
      <trkpt lat="47.14918" lon="5.67324">
        <ele>245.3</ele>
        <time>2019-08-17T16:43:52Z</time>
      </trkpt>
      <trkpt lat="47.14917" lon="5.67317">
        <ele>245.3</ele>
        <time>2019-08-17T16:43:53Z</time>
      </trkpt>
      <trkpt lat="47.14916" lon="5.6731">
        <ele>245.3</ele>
        <time>2019-08-17T16:43:54Z</time>
      </trkpt>
      <trkpt lat="47.14915" lon="5.67303">
        <ele>245.3</ele>
        <time>2019-08-17T16:43:55Z</time>
      </trkpt>
      <trkpt lat="47.14915" lon="5.67295">
        <ele>245.3</ele>
        <time>2019-08-17T16:43:56Z</time>
      </trkpt>
      <trkpt lat="47.14914" lon="5.67289">
        <ele>245.3</ele>
        <time>2019-08-17T16:43:57Z</time>
      </trkpt>
      <trkpt lat="47.14912" lon="5.67282">
        <ele>245.3</ele>
        <time>2019-08-17T16:43:58Z</time>
      </trkpt>
      <trkpt lat="47.14912" lon="5.67275">
        <ele>245.3</ele>
        <time>2019-08-17T16:43:59Z</time>
      </trkpt>
      <trkpt lat="47.14911" lon="5.67268">
        <ele>245.3</ele>
        <time>2019-08-17T16:44:00Z</time>
      </trkpt>
      <trkpt lat="47.1491" lon="5.67261">
        <ele>245.3</ele>
        <time>2019-08-17T16:44:01Z</time>
      </trkpt>
      <trkpt lat="47.1491" lon="5.67253">
        <ele>245.2</ele>
        <time>2019-08-17T16:44:02Z</time>
      </trkpt>
      <trkpt lat="47.14909" lon="5.67246">
        <ele>245.2</ele>
        <time>2019-08-17T16:44:03Z</time>
      </trkpt>
      <trkpt lat="47.14908" lon="5.67239">
        <ele>245.2</ele>
        <time>2019-08-17T16:44:04Z</time>
      </trkpt>
      <trkpt lat="47.14908" lon="5.67231">
        <ele>245.2</ele>
        <time>2019-08-17T16:44:05Z</time>
      </trkpt>
      <trkpt lat="47.14906" lon="5.67226">
        <ele>245.2</ele>
        <time>2019-08-17T16:44:06Z</time>
      </trkpt>
      <trkpt lat="47.14906" lon="5.67218">
        <ele>245.1</ele>
        <time>2019-08-17T16:44:07Z</time>
      </trkpt>
      <trkpt lat="47.14905" lon="5.67211">
        <ele>245.1</ele>
        <time>2019-08-17T16:44:08Z</time>
      </trkpt>
      <trkpt lat="47.14905" lon="5.67204">
        <ele>245.1</ele>
        <time>2019-08-17T16:44:09Z</time>
      </trkpt>
      <trkpt lat="47.14904" lon="5.67197">
        <ele>245.1</ele>
        <time>2019-08-17T16:44:10Z</time>
      </trkpt>
      <trkpt lat="47.14903" lon="5.6719">
        <ele>245.2</ele>
        <time>2019-08-17T16:44:11Z</time>
      </trkpt>
      <trkpt lat="47.14902" lon="5.67183">
        <ele>245.2</ele>
        <time>2019-08-17T16:44:12Z</time>
      </trkpt>
      <trkpt lat="47.14902" lon="5.67176">
        <ele>245.2</ele>
        <time>2019-08-17T16:44:13Z</time>
      </trkpt>
      <trkpt lat="47.14901" lon="5.67168">
        <ele>245.2</ele>
        <time>2019-08-17T16:44:14Z</time>
      </trkpt>
      <trkpt lat="47.14901" lon="5.67161">
        <ele>245.3</ele>
        <time>2019-08-17T16:44:15Z</time>
      </trkpt>
      <trkpt lat="47.149" lon="5.67153">
        <ele>245.3</ele>
        <time>2019-08-17T16:44:16Z</time>
      </trkpt>
      <trkpt lat="47.149" lon="5.67145">
        <ele>245.3</ele>
        <time>2019-08-17T16:44:17Z</time>
      </trkpt>
      <trkpt lat="47.14899" lon="5.67137">
        <ele>245.3</ele>
        <time>2019-08-17T16:44:18Z</time>
      </trkpt>
      <trkpt lat="47.14898" lon="5.67129">
        <ele>245.4</ele>
        <time>2019-08-17T16:44:19Z</time>
      </trkpt>
      <trkpt lat="47.14898" lon="5.67122">
        <ele>245.4</ele>
        <time>2019-08-17T16:44:20Z</time>
      </trkpt>
      <trkpt lat="47.14897" lon="5.67115">
        <ele>245.4</ele>
        <time>2019-08-17T16:44:21Z</time>
      </trkpt>
      <trkpt lat="47.14896" lon="5.67108">
        <ele>245.4</ele>
        <time>2019-08-17T16:44:22Z</time>
      </trkpt>
      <trkpt lat="47.14895" lon="5.67101">
        <ele>245.4</ele>
        <time>2019-08-17T16:44:23Z</time>
      </trkpt>
      <trkpt lat="47.14895" lon="5.67092">
        <ele>245.3</ele>
        <time>2019-08-17T16:44:24Z</time>
      </trkpt>
      <trkpt lat="47.14894" lon="5.67085">
        <ele>245.3</ele>
        <time>2019-08-17T16:44:25Z</time>
      </trkpt>
      <trkpt lat="47.14894" lon="5.67077">
        <ele>245.2</ele>
        <time>2019-08-17T16:44:26Z</time>
      </trkpt>
      <trkpt lat="47.14893" lon="5.6707">
        <ele>245.2</ele>
        <time>2019-08-17T16:44:27Z</time>
      </trkpt>
      <trkpt lat="47.14892" lon="5.67063">
        <ele>245.1</ele>
        <time>2019-08-17T16:44:28Z</time>
      </trkpt>
      <trkpt lat="47.14891" lon="5.67056">
        <ele>245.1</ele>
        <time>2019-08-17T16:44:29Z</time>
      </trkpt>
      <trkpt lat="47.1489" lon="5.6705">
        <ele>245</ele>
        <time>2019-08-17T16:44:30Z</time>
      </trkpt>
      <trkpt lat="47.1489" lon="5.67043">
        <ele>245</ele>
        <time>2019-08-17T16:44:31Z</time>
      </trkpt>
      <trkpt lat="47.14888" lon="5.67039">
        <ele>244.9</ele>
        <time>2019-08-17T16:44:32Z</time>
      </trkpt>
      <trkpt lat="47.14887" lon="5.67032">
        <ele>244.9</ele>
        <time>2019-08-17T16:44:33Z</time>
      </trkpt>
      <trkpt lat="47.14886" lon="5.67024">
        <ele>244.8</ele>
        <time>2019-08-17T16:44:34Z</time>
      </trkpt>
      <trkpt lat="47.14885" lon="5.67017">
        <ele>244.7</ele>
        <time>2019-08-17T16:44:35Z</time>
      </trkpt>
      <trkpt lat="47.14884" lon="5.6701">
        <ele>244.7</ele>
        <time>2019-08-17T16:44:36Z</time>
      </trkpt>
      <trkpt lat="47.14884" lon="5.67002">
        <ele>244.6</ele>
        <time>2019-08-17T16:44:37Z</time>
      </trkpt>
      <trkpt lat="47.14884" lon="5.66995">
        <ele>244.5</ele>
        <time>2019-08-17T16:44:38Z</time>
      </trkpt>
      <trkpt lat="47.14883" lon="5.66989">
        <ele>244.5</ele>
        <time>2019-08-17T16:44:39Z</time>
      </trkpt>
      <trkpt lat="47.14882" lon="5.66982">
        <ele>244.4</ele>
        <time>2019-08-17T16:44:40Z</time>
      </trkpt>
      <trkpt lat="47.14881" lon="5.66976">
        <ele>244.4</ele>
        <time>2019-08-17T16:44:41Z</time>
      </trkpt>
      <trkpt lat="47.1488" lon="5.66969">
        <ele>244.4</ele>
        <time>2019-08-17T16:44:42Z</time>
      </trkpt>
      <trkpt lat="47.1488" lon="5.66962">
        <ele>244.3</ele>
        <time>2019-08-17T16:44:43Z</time>
      </trkpt>
      <trkpt lat="47.14878" lon="5.66954">
        <ele>244.3</ele>
        <time>2019-08-17T16:44:44Z</time>
      </trkpt>
      <trkpt lat="47.14878" lon="5.66946">
        <ele>244.2</ele>
        <time>2019-08-17T16:44:45Z</time>
      </trkpt>
      <trkpt lat="47.14877" lon="5.66938">
        <ele>244.2</ele>
        <time>2019-08-17T16:44:46Z</time>
      </trkpt>
      <trkpt lat="47.14875" lon="5.66932">
        <ele>244.1</ele>
        <time>2019-08-17T16:44:47Z</time>
      </trkpt>
      <trkpt lat="47.14874" lon="5.66925">
        <ele>244.1</ele>
        <time>2019-08-17T16:44:48Z</time>
      </trkpt>
      <trkpt lat="47.14872" lon="5.66919">
        <ele>244.1</ele>
        <time>2019-08-17T16:44:49Z</time>
      </trkpt>
      <trkpt lat="47.14871" lon="5.66911">
        <ele>244.1</ele>
        <time>2019-08-17T16:44:50Z</time>
      </trkpt>
      <trkpt lat="47.1487" lon="5.66904">
        <ele>244</ele>
        <time>2019-08-17T16:44:51Z</time>
      </trkpt>
      <trkpt lat="47.1487" lon="5.66896">
        <ele>244</ele>
        <time>2019-08-17T16:44:52Z</time>
      </trkpt>
      <trkpt lat="47.1487" lon="5.66888">
        <ele>244</ele>
        <time>2019-08-17T16:44:53Z</time>
      </trkpt>
      <trkpt lat="47.1487" lon="5.66881">
        <ele>244</ele>
        <time>2019-08-17T16:44:54Z</time>
      </trkpt>
      <trkpt lat="47.1487" lon="5.66873">
        <ele>243.9</ele>
        <time>2019-08-17T16:44:55Z</time>
      </trkpt>
      <trkpt lat="47.1487" lon="5.66867">
        <ele>243.9</ele>
        <time>2019-08-17T16:44:56Z</time>
      </trkpt>
      <trkpt lat="47.1487" lon="5.6686">
        <ele>243.9</ele>
        <time>2019-08-17T16:44:57Z</time>
      </trkpt>
      <trkpt lat="47.14869" lon="5.66853">
        <ele>243.9</ele>
        <time>2019-08-17T16:44:58Z</time>
      </trkpt>
      <trkpt lat="47.1487" lon="5.66846">
        <ele>243.9</ele>
        <time>2019-08-17T16:44:59Z</time>
      </trkpt>
      <trkpt lat="47.14869" lon="5.66839">
        <ele>243.8</ele>
        <time>2019-08-17T16:45:00Z</time>
      </trkpt>
      <trkpt lat="47.14868" lon="5.66832">
        <ele>243.8</ele>
        <time>2019-08-17T16:45:01Z</time>
      </trkpt>
      <trkpt lat="47.14867" lon="5.66824">
        <ele>243.8</ele>
        <time>2019-08-17T16:45:02Z</time>
      </trkpt>
      <trkpt lat="47.14866" lon="5.66815">
        <ele>243.8</ele>
        <time>2019-08-17T16:45:03Z</time>
      </trkpt>
      <trkpt lat="47.14865" lon="5.66806">
        <ele>243.8</ele>
        <time>2019-08-17T16:45:04Z</time>
      </trkpt>
      <trkpt lat="47.14864" lon="5.66798">
        <ele>243.7</ele>
        <time>2019-08-17T16:45:05Z</time>
      </trkpt>
      <trkpt lat="47.14863" lon="5.66791">
        <ele>243.7</ele>
        <time>2019-08-17T16:45:06Z</time>
      </trkpt>
      <trkpt lat="47.14862" lon="5.66784">
        <ele>243.7</ele>
        <time>2019-08-17T16:45:07Z</time>
      </trkpt>
      <trkpt lat="47.14861" lon="5.66776">
        <ele>243.7</ele>
        <time>2019-08-17T16:45:08Z</time>
      </trkpt>
      <trkpt lat="47.1486" lon="5.66769">
        <ele>243.6</ele>
        <time>2019-08-17T16:45:09Z</time>
      </trkpt>
      <trkpt lat="47.1486" lon="5.66761">
        <ele>243.6</ele>
        <time>2019-08-17T16:45:10Z</time>
      </trkpt>
      <trkpt lat="47.14859" lon="5.66753">
        <ele>243.6</ele>
        <time>2019-08-17T16:45:11Z</time>
      </trkpt>
      <trkpt lat="47.14858" lon="5.66746">
        <ele>243.6</ele>
        <time>2019-08-17T16:45:12Z</time>
      </trkpt>
      <trkpt lat="47.14858" lon="5.66737">
        <ele>243.5</ele>
        <time>2019-08-17T16:45:13Z</time>
      </trkpt>
      <trkpt lat="47.14857" lon="5.66729">
        <ele>243.5</ele>
        <time>2019-08-17T16:45:14Z</time>
      </trkpt>
      <trkpt lat="47.14856" lon="5.66722">
        <ele>243.5</ele>
        <time>2019-08-17T16:45:15Z</time>
      </trkpt>
      <trkpt lat="47.14855" lon="5.66714">
        <ele>243.4</ele>
        <time>2019-08-17T16:45:16Z</time>
      </trkpt>
      <trkpt lat="47.14855" lon="5.66705">
        <ele>243.4</ele>
        <time>2019-08-17T16:45:17Z</time>
      </trkpt>
      <trkpt lat="47.14854" lon="5.66696">
        <ele>243.3</ele>
        <time>2019-08-17T16:45:18Z</time>
      </trkpt>
      <trkpt lat="47.14854" lon="5.66687">
        <ele>243.3</ele>
        <time>2019-08-17T16:45:19Z</time>
      </trkpt>
      <trkpt lat="47.14853" lon="5.66679">
        <ele>243.3</ele>
        <time>2019-08-17T16:45:20Z</time>
      </trkpt>
      <trkpt lat="47.14852" lon="5.6667">
        <ele>243.2</ele>
        <time>2019-08-17T16:45:21Z</time>
      </trkpt>
      <trkpt lat="47.14852" lon="5.6666">
        <ele>243.2</ele>
        <time>2019-08-17T16:45:22Z</time>
      </trkpt>
      <trkpt lat="47.14851" lon="5.66653">
        <ele>243.1</ele>
        <time>2019-08-17T16:45:23Z</time>
      </trkpt>
      <trkpt lat="47.1485" lon="5.66646">
        <ele>243.1</ele>
        <time>2019-08-17T16:45:24Z</time>
      </trkpt>
      <trkpt lat="47.14849" lon="5.66639">
        <ele>243.1</ele>
        <time>2019-08-17T16:45:25Z</time>
      </trkpt>
      <trkpt lat="47.14848" lon="5.6663">
        <ele>243</ele>
        <time>2019-08-17T16:45:26Z</time>
      </trkpt>
      <trkpt lat="47.14848" lon="5.66622">
        <ele>243</ele>
        <time>2019-08-17T16:45:27Z</time>
      </trkpt>
      <trkpt lat="47.14847" lon="5.66614">
        <ele>243</ele>
        <time>2019-08-17T16:45:28Z</time>
      </trkpt>
      <trkpt lat="47.14846" lon="5.66606">
        <ele>242.9</ele>
        <time>2019-08-17T16:45:29Z</time>
      </trkpt>
      <trkpt lat="47.14845" lon="5.66599">
        <ele>242.9</ele>
        <time>2019-08-17T16:45:30Z</time>
      </trkpt>
      <trkpt lat="47.14844" lon="5.66591">
        <ele>242.8</ele>
        <time>2019-08-17T16:45:31Z</time>
      </trkpt>
      <trkpt lat="47.14844" lon="5.66583">
        <ele>242.8</ele>
        <time>2019-08-17T16:45:32Z</time>
      </trkpt>
      <trkpt lat="47.14843" lon="5.66575">
        <ele>242.7</ele>
        <time>2019-08-17T16:45:33Z</time>
      </trkpt>
      <trkpt lat="47.14843" lon="5.66565">
        <ele>242.7</ele>
        <time>2019-08-17T16:45:34Z</time>
      </trkpt>
      <trkpt lat="47.14842" lon="5.66556">
        <ele>242.6</ele>
        <time>2019-08-17T16:45:35Z</time>
      </trkpt>
      <trkpt lat="47.14841" lon="5.66547">
        <ele>242.5</ele>
        <time>2019-08-17T16:45:36Z</time>
      </trkpt>
      <trkpt lat="47.1484" lon="5.66539">
        <ele>242.4</ele>
        <time>2019-08-17T16:45:37Z</time>
      </trkpt>
      <trkpt lat="47.14839" lon="5.66531">
        <ele>242.3</ele>
        <time>2019-08-17T16:45:38Z</time>
      </trkpt>
      <trkpt lat="47.14837" lon="5.66522">
        <ele>242.1</ele>
        <time>2019-08-17T16:45:39Z</time>
      </trkpt>
      <trkpt lat="47.14835" lon="5.66513">
        <ele>241.8</ele>
        <time>2019-08-17T16:45:40Z</time>
      </trkpt>
      <trkpt lat="47.14831" lon="5.66506">
        <ele>241.5</ele>
        <time>2019-08-17T16:45:41Z</time>
      </trkpt>
      <trkpt lat="47.14827" lon="5.66499">
        <ele>241.3</ele>
        <time>2019-08-17T16:45:42Z</time>
      </trkpt>
      <trkpt lat="47.14825" lon="5.6649">
        <ele>241</ele>
        <time>2019-08-17T16:45:43Z</time>
      </trkpt>
      <trkpt lat="47.14822" lon="5.66482">
        <ele>240.8</ele>
        <time>2019-08-17T16:45:44Z</time>
      </trkpt>
      <trkpt lat="47.14819" lon="5.66474">
        <ele>240.7</ele>
        <time>2019-08-17T16:45:45Z</time>
      </trkpt>
      <trkpt lat="47.14817" lon="5.66466">
        <ele>240.5</ele>
        <time>2019-08-17T16:45:46Z</time>
      </trkpt>
      <trkpt lat="47.14815" lon="5.66457">
        <ele>240.3</ele>
        <time>2019-08-17T16:45:47Z</time>
      </trkpt>
      <trkpt lat="47.14812" lon="5.66448">
        <ele>240.1</ele>
        <time>2019-08-17T16:45:48Z</time>
      </trkpt>
      <trkpt lat="47.1481" lon="5.66439">
        <ele>239.9</ele>
        <time>2019-08-17T16:45:49Z</time>
      </trkpt>
      <trkpt lat="47.14806" lon="5.66432">
        <ele>239.7</ele>
        <time>2019-08-17T16:45:50Z</time>
      </trkpt>
      <trkpt lat="47.14803" lon="5.66423">
        <ele>239.6</ele>
        <time>2019-08-17T16:45:51Z</time>
      </trkpt>
      <trkpt lat="47.148" lon="5.66413">
        <ele>239.4</ele>
        <time>2019-08-17T16:45:52Z</time>
      </trkpt>
      <trkpt lat="47.14797" lon="5.66403">
        <ele>239.1</ele>
        <time>2019-08-17T16:45:53Z</time>
      </trkpt>
      <trkpt lat="47.14794" lon="5.66393">
        <ele>238.9</ele>
        <time>2019-08-17T16:45:54Z</time>
      </trkpt>
      <trkpt lat="47.14791" lon="5.66382">
        <ele>238.7</ele>
        <time>2019-08-17T16:45:55Z</time>
      </trkpt>
      <trkpt lat="47.14788" lon="5.66368">
        <ele>238.5</ele>
        <time>2019-08-17T16:45:56Z</time>
      </trkpt>
      <trkpt lat="47.14784" lon="5.66355">
        <ele>238.1</ele>
        <time>2019-08-17T16:45:57Z</time>
      </trkpt>
      <trkpt lat="47.14781" lon="5.66342">
        <ele>237.6</ele>
        <time>2019-08-17T16:45:58Z</time>
      </trkpt>
      <trkpt lat="47.14777" lon="5.66329">
        <ele>237.2</ele>
        <time>2019-08-17T16:45:59Z</time>
      </trkpt>
      <trkpt lat="47.14774" lon="5.66316">
        <ele>236.8</ele>
        <time>2019-08-17T16:46:00Z</time>
      </trkpt>
      <trkpt lat="47.14771" lon="5.66304">
        <ele>236.4</ele>
        <time>2019-08-17T16:46:01Z</time>
      </trkpt>
      <trkpt lat="47.14768" lon="5.66292">
        <ele>236</ele>
        <time>2019-08-17T16:46:02Z</time>
      </trkpt>
      <trkpt lat="47.14765" lon="5.6628">
        <ele>235.6</ele>
        <time>2019-08-17T16:46:03Z</time>
      </trkpt>
      <trkpt lat="47.14763" lon="5.66269">
        <ele>235.1</ele>
        <time>2019-08-17T16:46:04Z</time>
      </trkpt>
      <trkpt lat="47.1476" lon="5.66258">
        <ele>234.6</ele>
        <time>2019-08-17T16:46:05Z</time>
      </trkpt>
      <trkpt lat="47.14758" lon="5.66248">
        <ele>234.2</ele>
        <time>2019-08-17T16:46:06Z</time>
      </trkpt>
      <trkpt lat="47.14756" lon="5.66238">
        <ele>233.8</ele>
        <time>2019-08-17T16:46:07Z</time>
      </trkpt>
      <trkpt lat="47.14754" lon="5.6623">
        <ele>233.3</ele>
        <time>2019-08-17T16:46:08Z</time>
      </trkpt>
      <trkpt lat="47.14753" lon="5.66223">
        <ele>233</ele>
        <time>2019-08-17T16:46:09Z</time>
      </trkpt>
      <trkpt lat="47.14753" lon="5.66216">
        <ele>232.7</ele>
        <time>2019-08-17T16:46:10Z</time>
      </trkpt>
      <trkpt lat="47.14752" lon="5.6621">
        <ele>232.3</ele>
        <time>2019-08-17T16:46:11Z</time>
      </trkpt>
      <trkpt lat="47.14752" lon="5.66205">
        <ele>232</ele>
        <time>2019-08-17T16:46:12Z</time>
      </trkpt>
      <trkpt lat="47.14753" lon="5.66199">
        <ele>231.7</ele>
        <time>2019-08-17T16:46:14Z</time>
      </trkpt>
      <trkpt lat="47.14753" lon="5.66194">
        <ele>231.5</ele>
        <time>2019-08-17T16:46:16Z</time>
      </trkpt>
      <trkpt lat="47.14755" lon="5.66187">
        <ele>231.5</ele>
        <time>2019-08-17T16:46:18Z</time>
      </trkpt>
      <trkpt lat="47.14755" lon="5.66179">
        <ele>231.5</ele>
        <time>2019-08-17T16:46:20Z</time>
      </trkpt>
      <trkpt lat="47.14756" lon="5.66175">
        <ele>231.4</ele>
        <time>2019-08-17T16:46:21Z</time>
      </trkpt>
      <trkpt lat="47.14759" lon="5.66171">
        <ele>231.4</ele>
        <time>2019-08-17T16:46:23Z</time>
      </trkpt>
      <trkpt lat="47.14762" lon="5.66172">
        <ele>231.4</ele>
        <time>2019-08-17T16:46:27Z</time>
      </trkpt>
      <trkpt lat="47.14762" lon="5.66177">
        <ele>231.4</ele>
        <time>2019-08-17T16:46:39Z</time>
      </trkpt>
      <trkpt lat="47.14759" lon="5.66184">
        <ele>231.4</ele>
        <time>2019-08-17T16:46:41Z</time>
      </trkpt>
      <trkpt lat="47.14755" lon="5.66189">
        <ele>231.5</ele>
        <time>2019-08-17T16:46:43Z</time>
      </trkpt>
      <trkpt lat="47.14753" lon="5.66191">
        <ele>231.5</ele>
        <time>2019-08-17T16:46:44Z</time>
      </trkpt>
      <trkpt lat="47.14751" lon="5.66194">
        <ele>231.5</ele>
        <time>2019-08-17T16:46:45Z</time>
      </trkpt>
      <trkpt lat="47.14748" lon="5.66198">
        <ele>231.6</ele>
        <time>2019-08-17T16:46:46Z</time>
      </trkpt>
      <trkpt lat="47.14745" lon="5.66202">
        <ele>231.6</ele>
        <time>2019-08-17T16:46:47Z</time>
      </trkpt>
      <trkpt lat="47.14743" lon="5.66205">
        <ele>231.6</ele>
        <time>2019-08-17T16:46:48Z</time>
      </trkpt>
      <trkpt lat="47.1474" lon="5.66208">
        <ele>231.6</ele>
        <time>2019-08-17T16:46:49Z</time>
      </trkpt>
      <trkpt lat="47.14738" lon="5.66211">
        <ele>231.6</ele>
        <time>2019-08-17T16:46:50Z</time>
      </trkpt>
      <trkpt lat="47.14734" lon="5.66216">
        <ele>231.5</ele>
        <time>2019-08-17T16:46:52Z</time>
      </trkpt>
      <trkpt lat="47.14731" lon="5.66221">
        <ele>231.4</ele>
        <time>2019-08-17T16:46:54Z</time>
      </trkpt>
      <trkpt lat="47.14728" lon="5.66224">
        <ele>231.3</ele>
        <time>2019-08-17T16:46:56Z</time>
      </trkpt>
      <trkpt lat="47.14726" lon="5.66226">
        <ele>231.2</ele>
        <time>2019-08-17T16:46:59Z</time>
      </trkpt>
      <trkpt lat="47.14725" lon="5.66222">
        <ele>231</ele>
        <time>2019-08-17T16:47:02Z</time>
      </trkpt>
      <trkpt lat="47.14722" lon="5.6622">
        <ele>230.8</ele>
        <time>2019-08-17T16:47:04Z</time>
      </trkpt>
      <trkpt lat="47.14716" lon="5.66219">
        <ele>230.2</ele>
        <time>2019-08-17T16:47:06Z</time>
      </trkpt>
      <trkpt lat="47.14711" lon="5.66217">
        <ele>229.4</ele>
        <time>2019-08-17T16:47:07Z</time>
      </trkpt>
      <trkpt lat="47.14706" lon="5.66214">
        <ele>228.9</ele>
        <time>2019-08-17T16:47:08Z</time>
      </trkpt>
      <trkpt lat="47.14702" lon="5.66212">
        <ele>228.5</ele>
        <time>2019-08-17T16:47:10Z</time>
      </trkpt>
      <trkpt lat="47.14694" lon="5.66213">
        <ele>227.8</ele>
        <time>2019-08-17T16:49:28Z</time>
      </trkpt>
      <trkpt lat="47.14697" lon="5.66215">
        <ele>227.5</ele>
        <time>2019-08-17T16:49:31Z</time>
      </trkpt>
      <trkpt lat="47.147" lon="5.66217">
        <ele>227.3</ele>
        <time>2019-08-17T16:49:35Z</time>
      </trkpt>
      <trkpt lat="47.14699" lon="5.6621">
        <ele>226.9</ele>
        <time>2019-08-17T16:51:25Z</time>
      </trkpt>
      <trkpt lat="47.14693" lon="5.66208">
        <ele>226.5</ele>
        <time>2019-08-17T16:51:27Z</time>
      </trkpt>
      <trkpt lat="47.14689" lon="5.66204">
        <ele>226.3</ele>
        <time>2019-08-17T16:51:28Z</time>
      </trkpt>
      <trkpt lat="47.14685" lon="5.66202">
        <ele>226.1</ele>
        <time>2019-08-17T16:51:29Z</time>
      </trkpt>
      <trkpt lat="47.1468" lon="5.662">
        <ele>225.9</ele>
        <time>2019-08-17T16:51:30Z</time>
      </trkpt>
      <trkpt lat="47.14674" lon="5.66198">
        <ele>225.6</ele>
        <time>2019-08-17T16:51:31Z</time>
      </trkpt>
      <trkpt lat="47.14667" lon="5.66196">
        <ele>225.3</ele>
        <time>2019-08-17T16:51:32Z</time>
      </trkpt>
      <trkpt lat="47.1466" lon="5.66194">
        <ele>225</ele>
        <time>2019-08-17T16:51:33Z</time>
      </trkpt>
      <trkpt lat="47.14653" lon="5.66193">
        <ele>224.8</ele>
        <time>2019-08-17T16:51:34Z</time>
      </trkpt>
      <trkpt lat="47.14648" lon="5.66193">
        <ele>224.6</ele>
        <time>2019-08-17T16:51:35Z</time>
      </trkpt>
      <trkpt lat="47.14644" lon="5.66191">
        <ele>224.5</ele>
        <time>2019-08-17T16:51:36Z</time>
      </trkpt>
      <trkpt lat="47.14641" lon="5.6619">
        <ele>223.9</ele>
        <time>2019-08-17T16:51:37Z</time>
      </trkpt>
      <trkpt lat="47.14638" lon="5.66188">
        <ele>223.8</ele>
        <time>2019-08-17T16:51:38Z</time>
      </trkpt>
      <trkpt lat="47.14635" lon="5.66184">
        <ele>223.6</ele>
        <time>2019-08-17T16:51:39Z</time>
      </trkpt>
      <trkpt lat="47.14634" lon="5.66178">
        <ele>223.5</ele>
        <time>2019-08-17T16:51:40Z</time>
      </trkpt>
      <trkpt lat="47.14634" lon="5.66171">
        <ele>223.3</ele>
        <time>2019-08-17T16:51:41Z</time>
      </trkpt>
      <trkpt lat="47.14635" lon="5.66163">
        <ele>223.2</ele>
        <time>2019-08-17T16:51:42Z</time>
      </trkpt>
      <trkpt lat="47.14636" lon="5.66156">
        <ele>223.2</ele>
        <time>2019-08-17T16:51:43Z</time>
      </trkpt>
      <trkpt lat="47.14638" lon="5.66148">
        <ele>223.1</ele>
        <time>2019-08-17T16:51:44Z</time>
      </trkpt>
      <trkpt lat="47.14639" lon="5.66141">
        <ele>223</ele>
        <time>2019-08-17T16:51:45Z</time>
      </trkpt>
      <trkpt lat="47.14641" lon="5.66134">
        <ele>222.9</ele>
        <time>2019-08-17T16:51:46Z</time>
      </trkpt>
      <trkpt lat="47.14642" lon="5.66128">
        <ele>222.9</ele>
        <time>2019-08-17T16:51:47Z</time>
      </trkpt>
      <trkpt lat="47.14643" lon="5.66121">
        <ele>222.8</ele>
        <time>2019-08-17T16:51:48Z</time>
      </trkpt>
      <trkpt lat="47.14645" lon="5.66115">
        <ele>222.7</ele>
        <time>2019-08-17T16:51:49Z</time>
      </trkpt>
      <trkpt lat="47.14646" lon="5.66109">
        <ele>222.6</ele>
        <time>2019-08-17T16:51:50Z</time>
      </trkpt>
      <trkpt lat="47.14647" lon="5.66103">
        <ele>222.5</ele>
        <time>2019-08-17T16:51:51Z</time>
      </trkpt>
      <trkpt lat="47.14648" lon="5.66097">
        <ele>222.4</ele>
        <time>2019-08-17T16:51:52Z</time>
      </trkpt>
      <trkpt lat="47.14649" lon="5.66089">
        <ele>222.3</ele>
        <time>2019-08-17T16:51:53Z</time>
      </trkpt>
      <trkpt lat="47.1465" lon="5.66082">
        <ele>222.2</ele>
        <time>2019-08-17T16:51:54Z</time>
      </trkpt>
      <trkpt lat="47.14651" lon="5.66076">
        <ele>222.1</ele>
        <time>2019-08-17T16:51:55Z</time>
      </trkpt>
      <trkpt lat="47.14652" lon="5.66067">
        <ele>222</ele>
        <time>2019-08-17T16:51:56Z</time>
      </trkpt>
      <trkpt lat="47.14652" lon="5.6606">
        <ele>221.9</ele>
        <time>2019-08-17T16:51:57Z</time>
      </trkpt>
      <trkpt lat="47.14653" lon="5.66054">
        <ele>221.9</ele>
        <time>2019-08-17T16:51:58Z</time>
      </trkpt>
      <trkpt lat="47.14653" lon="5.66048">
        <ele>221.8</ele>
        <time>2019-08-17T16:51:59Z</time>
      </trkpt>
      <trkpt lat="47.14653" lon="5.66042">
        <ele>221.8</ele>
        <time>2019-08-17T16:52:00Z</time>
      </trkpt>
      <trkpt lat="47.14654" lon="5.66037">
        <ele>221.8</ele>
        <time>2019-08-17T16:52:01Z</time>
      </trkpt>
      <trkpt lat="47.14655" lon="5.66032">
        <ele>221.8</ele>
        <time>2019-08-17T16:52:02Z</time>
      </trkpt>
      <trkpt lat="47.14656" lon="5.66025">
        <ele>221.8</ele>
        <time>2019-08-17T16:52:03Z</time>
      </trkpt>
      <trkpt lat="47.14656" lon="5.66019">
        <ele>221.8</ele>
        <time>2019-08-17T16:52:04Z</time>
      </trkpt>
      <trkpt lat="47.14656" lon="5.66013">
        <ele>221.8</ele>
        <time>2019-08-17T16:52:05Z</time>
      </trkpt>
      <trkpt lat="47.14655" lon="5.66007">
        <ele>221.8</ele>
        <time>2019-08-17T16:52:06Z</time>
      </trkpt>
      <trkpt lat="47.14656" lon="5.66">
        <ele>221.8</ele>
        <time>2019-08-17T16:52:07Z</time>
      </trkpt>
      <trkpt lat="47.14656" lon="5.65994">
        <ele>221.8</ele>
        <time>2019-08-17T16:52:08Z</time>
      </trkpt>
      <trkpt lat="47.14657" lon="5.65987">
        <ele>221.7</ele>
        <time>2019-08-17T16:52:09Z</time>
      </trkpt>
      <trkpt lat="47.14658" lon="5.65981">
        <ele>221.7</ele>
        <time>2019-08-17T16:52:10Z</time>
      </trkpt>
      <trkpt lat="47.14659" lon="5.65974">
        <ele>221.6</ele>
        <time>2019-08-17T16:52:11Z</time>
      </trkpt>
      <trkpt lat="47.1466" lon="5.65966">
        <ele>221.5</ele>
        <time>2019-08-17T16:52:12Z</time>
      </trkpt>
      <trkpt lat="47.1466" lon="5.6596">
        <ele>221.5</ele>
        <time>2019-08-17T16:52:13Z</time>
      </trkpt>
      <trkpt lat="47.14662" lon="5.65952">
        <ele>221.4</ele>
        <time>2019-08-17T16:52:14Z</time>
      </trkpt>
      <trkpt lat="47.14663" lon="5.65945">
        <ele>221.3</ele>
        <time>2019-08-17T16:52:15Z</time>
      </trkpt>
      <trkpt lat="47.14664" lon="5.65937">
        <ele>221.2</ele>
        <time>2019-08-17T16:52:16Z</time>
      </trkpt>
      <trkpt lat="47.14664" lon="5.6593">
        <ele>221.1</ele>
        <time>2019-08-17T16:52:17Z</time>
      </trkpt>
      <trkpt lat="47.14665" lon="5.65924">
        <ele>221</ele>
        <time>2019-08-17T16:52:18Z</time>
      </trkpt>
      <trkpt lat="47.14665" lon="5.65918">
        <ele>220.9</ele>
        <time>2019-08-17T16:52:19Z</time>
      </trkpt>
      <trkpt lat="47.14666" lon="5.65912">
        <ele>220.8</ele>
        <time>2019-08-17T16:52:21Z</time>
      </trkpt>
      <trkpt lat="47.14661" lon="5.65909">
        <ele>220.7</ele>
        <time>2019-08-17T16:52:24Z</time>
      </trkpt>
      <trkpt lat="47.14657" lon="5.65911">
        <ele>219.3</ele>
        <time>2019-08-17T16:52:26Z</time>
      </trkpt>
      <trkpt lat="47.14654" lon="5.65912">
        <ele>218.9</ele>
        <time>2019-08-17T16:52:27Z</time>
      </trkpt>
      <trkpt lat="47.14651" lon="5.65913">
        <ele>218.4</ele>
        <time>2019-08-17T16:52:28Z</time>
      </trkpt>
      <trkpt lat="47.14648" lon="5.65913">
        <ele>217.9</ele>
        <time>2019-08-17T16:52:29Z</time>
      </trkpt>
      <trkpt lat="47.14644" lon="5.65913">
        <ele>217.4</ele>
        <time>2019-08-17T16:52:30Z</time>
      </trkpt>
      <trkpt lat="47.14641" lon="5.65912">
        <ele>216.9</ele>
        <time>2019-08-17T16:52:31Z</time>
      </trkpt>
      <trkpt lat="47.14638" lon="5.65911">
        <ele>216.3</ele>
        <time>2019-08-17T16:52:32Z</time>
      </trkpt>
      <trkpt lat="47.14633" lon="5.6591">
        <ele>215.7</ele>
        <time>2019-08-17T16:52:33Z</time>
      </trkpt>
      <trkpt lat="47.14628" lon="5.65912">
        <ele>215</ele>
        <time>2019-08-17T16:52:34Z</time>
      </trkpt>
      <trkpt lat="47.14622" lon="5.65912">
        <ele>214.3</ele>
        <time>2019-08-17T16:52:35Z</time>
      </trkpt>
      <trkpt lat="47.14618" lon="5.65911">
        <ele>213.7</ele>
        <time>2019-08-17T16:52:36Z</time>
      </trkpt>
      <trkpt lat="47.14615" lon="5.65909">
        <ele>213.2</ele>
        <time>2019-08-17T16:52:37Z</time>
      </trkpt>
      <trkpt lat="47.14609" lon="5.65909">
        <ele>212.4</ele>
        <time>2019-08-17T16:52:38Z</time>
      </trkpt>
      <trkpt lat="47.14604" lon="5.65909">
        <ele>211.7</ele>
        <time>2019-08-17T16:52:39Z</time>
      </trkpt>
      <trkpt lat="47.146" lon="5.6591">
        <ele>211.1</ele>
        <time>2019-08-17T16:52:40Z</time>
      </trkpt>
      <trkpt lat="47.14595" lon="5.6591">
        <ele>210.3</ele>
        <time>2019-08-17T16:52:41Z</time>
      </trkpt>
      <trkpt lat="47.14591" lon="5.6591">
        <ele>209.6</ele>
        <time>2019-08-17T16:52:42Z</time>
      </trkpt>
      <trkpt lat="47.14585" lon="5.65907">
        <ele>208.5</ele>
        <time>2019-08-17T16:52:43Z</time>
      </trkpt>
      <trkpt lat="47.14581" lon="5.65907">
        <ele>207.5</ele>
        <time>2019-08-17T16:52:44Z</time>
      </trkpt>
      <trkpt lat="47.14576" lon="5.65907">
        <ele>206.4</ele>
        <time>2019-08-17T16:52:45Z</time>
      </trkpt>
      <trkpt lat="47.14573" lon="5.65906">
        <ele>204.3</ele>
        <time>2019-08-17T16:52:46Z</time>
      </trkpt>
      <trkpt lat="47.14569" lon="5.65906">
        <ele>204.2</ele>
        <time>2019-08-17T16:52:47Z</time>
      </trkpt>
      <trkpt lat="47.14566" lon="5.65904">
        <ele>204.1</ele>
        <time>2019-08-17T16:52:48Z</time>
      </trkpt>
      <trkpt lat="47.14563" lon="5.65901">
        <ele>203.8</ele>
        <time>2019-08-17T16:52:49Z</time>
      </trkpt>
      <trkpt lat="47.14562" lon="5.65897">
        <ele>203.8</ele>
        <time>2019-08-17T16:52:50Z</time>
      </trkpt>
      <trkpt lat="47.14562" lon="5.65891">
        <ele>203.8</ele>
        <time>2019-08-17T16:52:51Z</time>
      </trkpt>
      <trkpt lat="47.14563" lon="5.65885">
        <ele>203.8</ele>
        <time>2019-08-17T16:52:52Z</time>
      </trkpt>
      <trkpt lat="47.14563" lon="5.65879">
        <ele>203.7</ele>
        <time>2019-08-17T16:52:53Z</time>
      </trkpt>
      <trkpt lat="47.14564" lon="5.65872">
        <ele>203.7</ele>
        <time>2019-08-17T16:52:54Z</time>
      </trkpt>
      <trkpt lat="47.14563" lon="5.65866">
        <ele>203.7</ele>
        <time>2019-08-17T16:52:55Z</time>
      </trkpt>
      <trkpt lat="47.14564" lon="5.65859">
        <ele>203.7</ele>
        <time>2019-08-17T16:52:56Z</time>
      </trkpt>
      <trkpt lat="47.14565" lon="5.65854">
        <ele>203.7</ele>
        <time>2019-08-17T16:52:57Z</time>
      </trkpt>
      <trkpt lat="47.14565" lon="5.65848">
        <ele>203.6</ele>
        <time>2019-08-17T16:52:58Z</time>
      </trkpt>
      <trkpt lat="47.14567" lon="5.65843">
        <ele>203.6</ele>
        <time>2019-08-17T16:52:59Z</time>
      </trkpt>
      <trkpt lat="47.14568" lon="5.65838">
        <ele>203.6</ele>
        <time>2019-08-17T16:53:00Z</time>
      </trkpt>
      <trkpt lat="47.14569" lon="5.65833">
        <ele>203.6</ele>
        <time>2019-08-17T16:53:01Z</time>
      </trkpt>
      <trkpt lat="47.14569" lon="5.65829">
        <ele>203.6</ele>
        <time>2019-08-17T16:53:02Z</time>
      </trkpt>
      <trkpt lat="47.1457" lon="5.65823">
        <ele>203.6</ele>
        <time>2019-08-17T16:53:03Z</time>
      </trkpt>
      <trkpt lat="47.1457" lon="5.65818">
        <ele>203.6</ele>
        <time>2019-08-17T16:53:04Z</time>
      </trkpt>
      <trkpt lat="47.1457" lon="5.65812">
        <ele>203.6</ele>
        <time>2019-08-17T16:53:05Z</time>
      </trkpt>
      <trkpt lat="47.1457" lon="5.65806">
        <ele>203.6</ele>
        <time>2019-08-17T16:53:06Z</time>
      </trkpt>
      <trkpt lat="47.14571" lon="5.658">
        <ele>203.6</ele>
        <time>2019-08-17T16:53:07Z</time>
      </trkpt>
      <trkpt lat="47.14572" lon="5.65793">
        <ele>203.6</ele>
        <time>2019-08-17T16:53:08Z</time>
      </trkpt>
      <trkpt lat="47.14573" lon="5.65786">
        <ele>203.6</ele>
        <time>2019-08-17T16:53:09Z</time>
      </trkpt>
      <trkpt lat="47.14574" lon="5.65779">
        <ele>203.6</ele>
        <time>2019-08-17T16:53:10Z</time>
      </trkpt>
      <trkpt lat="47.14575" lon="5.65772">
        <ele>203.6</ele>
        <time>2019-08-17T16:53:11Z</time>
      </trkpt>
      <trkpt lat="47.14575" lon="5.65765">
        <ele>203.6</ele>
        <time>2019-08-17T16:53:12Z</time>
      </trkpt>
      <trkpt lat="47.14577" lon="5.65759">
        <ele>203.6</ele>
        <time>2019-08-17T16:53:13Z</time>
      </trkpt>
      <trkpt lat="47.14579" lon="5.65754">
        <ele>203.6</ele>
        <time>2019-08-17T16:53:14Z</time>
      </trkpt>
      <trkpt lat="47.14581" lon="5.65749">
        <ele>203.6</ele>
        <time>2019-08-17T16:53:15Z</time>
      </trkpt>
      <trkpt lat="47.14583" lon="5.65742">
        <ele>203.6</ele>
        <time>2019-08-17T16:53:16Z</time>
      </trkpt>
      <trkpt lat="47.14584" lon="5.65736">
        <ele>203.6</ele>
        <time>2019-08-17T16:53:17Z</time>
      </trkpt>
      <trkpt lat="47.14585" lon="5.6573">
        <ele>203.6</ele>
        <time>2019-08-17T16:53:18Z</time>
      </trkpt>
      <trkpt lat="47.14587" lon="5.65723">
        <ele>203.6</ele>
        <time>2019-08-17T16:53:19Z</time>
      </trkpt>
      <trkpt lat="47.14588" lon="5.65716">
        <ele>203.7</ele>
        <time>2019-08-17T16:53:20Z</time>
      </trkpt>
      <trkpt lat="47.14589" lon="5.6571">
        <ele>203.7</ele>
        <time>2019-08-17T16:53:21Z</time>
      </trkpt>
      <trkpt lat="47.1459" lon="5.65703">
        <ele>203.7</ele>
        <time>2019-08-17T16:53:22Z</time>
      </trkpt>
      <trkpt lat="47.1459" lon="5.65696">
        <ele>203.7</ele>
        <time>2019-08-17T16:53:23Z</time>
      </trkpt>
      <trkpt lat="47.14591" lon="5.65689">
        <ele>203.8</ele>
        <time>2019-08-17T16:53:24Z</time>
      </trkpt>
      <trkpt lat="47.14592" lon="5.65684">
        <ele>203.8</ele>
        <time>2019-08-17T16:53:25Z</time>
      </trkpt>
      <trkpt lat="47.14592" lon="5.65678">
        <ele>203.8</ele>
        <time>2019-08-17T16:53:26Z</time>
      </trkpt>
      <trkpt lat="47.14591" lon="5.65672">
        <ele>203.9</ele>
        <time>2019-08-17T16:53:27Z</time>
      </trkpt>
      <trkpt lat="47.14592" lon="5.65668">
        <ele>204</ele>
        <time>2019-08-17T16:53:28Z</time>
      </trkpt>
      <trkpt lat="47.14592" lon="5.65663">
        <ele>204</ele>
        <time>2019-08-17T16:53:29Z</time>
      </trkpt>
      <trkpt lat="47.14593" lon="5.65657">
        <ele>204.1</ele>
        <time>2019-08-17T16:53:30Z</time>
      </trkpt>
      <trkpt lat="47.14595" lon="5.65652">
        <ele>204.2</ele>
        <time>2019-08-17T16:53:31Z</time>
      </trkpt>
      <trkpt lat="47.14595" lon="5.65647">
        <ele>204.3</ele>
        <time>2019-08-17T16:53:32Z</time>
      </trkpt>
      <trkpt lat="47.14596" lon="5.65642">
        <ele>204.3</ele>
        <time>2019-08-17T16:53:33Z</time>
      </trkpt>
      <trkpt lat="47.14597" lon="5.65635">
        <ele>204.5</ele>
        <time>2019-08-17T16:53:34Z</time>
      </trkpt>
      <trkpt lat="47.14598" lon="5.65631">
        <ele>204.6</ele>
        <time>2019-08-17T16:53:35Z</time>
      </trkpt>
      <trkpt lat="47.14601" lon="5.65626">
        <ele>204.7</ele>
        <time>2019-08-17T16:53:37Z</time>
      </trkpt>
      <trkpt lat="47.14603" lon="5.6562">
        <ele>204.8</ele>
        <time>2019-08-17T16:53:40Z</time>
      </trkpt>
      <trkpt lat="47.14604" lon="5.65614">
        <ele>204.6</ele>
        <time>2019-08-17T16:53:42Z</time>
      </trkpt>
      <trkpt lat="47.14606" lon="5.65606">
        <ele>204.2</ele>
        <time>2019-08-17T16:53:44Z</time>
      </trkpt>
      <trkpt lat="47.14607" lon="5.65601">
        <ele>204.1</ele>
        <time>2019-08-17T16:53:45Z</time>
      </trkpt>
      <trkpt lat="47.14608" lon="5.65596">
        <ele>203.9</ele>
        <time>2019-08-17T16:53:46Z</time>
      </trkpt>
      <trkpt lat="47.1461" lon="5.65589">
        <ele>203.8</ele>
        <time>2019-08-17T16:53:47Z</time>
      </trkpt>
      <trkpt lat="47.14611" lon="5.65582">
        <ele>203.6</ele>
        <time>2019-08-17T16:53:48Z</time>
      </trkpt>
      <trkpt lat="47.14612" lon="5.65573">
        <ele>203.4</ele>
        <time>2019-08-17T16:53:49Z</time>
      </trkpt>
      <trkpt lat="47.14613" lon="5.65563">
        <ele>203.3</ele>
        <time>2019-08-17T16:53:50Z</time>
      </trkpt>
      <trkpt lat="47.14615" lon="5.65555">
        <ele>203.2</ele>
        <time>2019-08-17T16:53:51Z</time>
      </trkpt>
      <trkpt lat="47.14616" lon="5.65547">
        <ele>203.1</ele>
        <time>2019-08-17T16:53:52Z</time>
      </trkpt>
      <trkpt lat="47.14616" lon="5.6554">
        <ele>203</ele>
        <time>2019-08-17T16:53:53Z</time>
      </trkpt>
      <trkpt lat="47.14615" lon="5.65532">
        <ele>202.9</ele>
        <time>2019-08-17T16:53:54Z</time>
      </trkpt>
      <trkpt lat="47.14613" lon="5.65524">
        <ele>202.8</ele>
        <time>2019-08-17T16:53:55Z</time>
      </trkpt>
      <trkpt lat="47.14613" lon="5.65515">
        <ele>202.8</ele>
        <time>2019-08-17T16:53:56Z</time>
      </trkpt>
      <trkpt lat="47.14613" lon="5.65505">
        <ele>202.7</ele>
        <time>2019-08-17T16:53:57Z</time>
      </trkpt>
      <trkpt lat="47.14613" lon="5.65496">
        <ele>202.6</ele>
        <time>2019-08-17T16:53:58Z</time>
      </trkpt>
      <trkpt lat="47.14614" lon="5.65487">
        <ele>202.6</ele>
        <time>2019-08-17T16:53:59Z</time>
      </trkpt>
      <trkpt lat="47.14615" lon="5.65478">
        <ele>202.6</ele>
        <time>2019-08-17T16:54:00Z</time>
      </trkpt>
      <trkpt lat="47.14616" lon="5.65469">
        <ele>202.5</ele>
        <time>2019-08-17T16:54:01Z</time>
      </trkpt>
      <trkpt lat="47.14616" lon="5.6546">
        <ele>202.5</ele>
        <time>2019-08-17T16:54:02Z</time>
      </trkpt>
      <trkpt lat="47.14617" lon="5.65452">
        <ele>202.5</ele>
        <time>2019-08-17T16:54:03Z</time>
      </trkpt>
      <trkpt lat="47.14617" lon="5.65445">
        <ele>202.4</ele>
        <time>2019-08-17T16:54:04Z</time>
      </trkpt>
      <trkpt lat="47.14617" lon="5.65436">
        <ele>202.4</ele>
        <time>2019-08-17T16:54:05Z</time>
      </trkpt>
      <trkpt lat="47.14618" lon="5.65427">
        <ele>202.4</ele>
        <time>2019-08-17T16:54:06Z</time>
      </trkpt>
      <trkpt lat="47.14618" lon="5.65419">
        <ele>202.4</ele>
        <time>2019-08-17T16:54:07Z</time>
      </trkpt>
      <trkpt lat="47.14619" lon="5.6541">
        <ele>202.4</ele>
        <time>2019-08-17T16:54:08Z</time>
      </trkpt>
      <trkpt lat="47.14619" lon="5.65401">
        <ele>202.4</ele>
        <time>2019-08-17T16:54:09Z</time>
      </trkpt>
      <trkpt lat="47.1462" lon="5.65393">
        <ele>202.4</ele>
        <time>2019-08-17T16:54:10Z</time>
      </trkpt>
      <trkpt lat="47.1462" lon="5.65384">
        <ele>202.3</ele>
        <time>2019-08-17T16:54:11Z</time>
      </trkpt>
      <trkpt lat="47.1462" lon="5.65375">
        <ele>202.3</ele>
        <time>2019-08-17T16:54:12Z</time>
      </trkpt>
      <trkpt lat="47.14622" lon="5.65367">
        <ele>202.3</ele>
        <time>2019-08-17T16:54:13Z</time>
      </trkpt>
      <trkpt lat="47.14623" lon="5.65359">
        <ele>202.3</ele>
        <time>2019-08-17T16:54:14Z</time>
      </trkpt>
      <trkpt lat="47.14625" lon="5.65351">
        <ele>202.3</ele>
        <time>2019-08-17T16:54:15Z</time>
      </trkpt>
      <trkpt lat="47.14626" lon="5.65343">
        <ele>202.3</ele>
        <time>2019-08-17T16:54:16Z</time>
      </trkpt>
      <trkpt lat="47.14627" lon="5.65335">
        <ele>202.3</ele>
        <time>2019-08-17T16:54:17Z</time>
      </trkpt>
      <trkpt lat="47.14628" lon="5.65328">
        <ele>202.3</ele>
        <time>2019-08-17T16:54:18Z</time>
      </trkpt>
      <trkpt lat="47.14631" lon="5.65319">
        <ele>202.3</ele>
        <time>2019-08-17T16:54:19Z</time>
      </trkpt>
      <trkpt lat="47.14633" lon="5.65313">
        <ele>202.3</ele>
        <time>2019-08-17T16:54:20Z</time>
      </trkpt>
      <trkpt lat="47.14635" lon="5.65306">
        <ele>202.3</ele>
        <time>2019-08-17T16:54:21Z</time>
      </trkpt>
      <trkpt lat="47.14637" lon="5.65298">
        <ele>202.3</ele>
        <time>2019-08-17T16:54:22Z</time>
      </trkpt>
      <trkpt lat="47.1464" lon="5.65291">
        <ele>202.3</ele>
        <time>2019-08-17T16:54:23Z</time>
      </trkpt>
      <trkpt lat="47.14644" lon="5.65284">
        <ele>202.3</ele>
        <time>2019-08-17T16:54:24Z</time>
      </trkpt>
      <trkpt lat="47.14648" lon="5.65279">
        <ele>202.3</ele>
        <time>2019-08-17T16:54:25Z</time>
      </trkpt>
      <trkpt lat="47.14651" lon="5.65275">
        <ele>202.3</ele>
        <time>2019-08-17T16:54:26Z</time>
      </trkpt>
      <trkpt lat="47.14655" lon="5.6527">
        <ele>202.3</ele>
        <time>2019-08-17T16:54:27Z</time>
      </trkpt>
      <trkpt lat="47.14659" lon="5.65264">
        <ele>202.3</ele>
        <time>2019-08-17T16:54:28Z</time>
      </trkpt>
      <trkpt lat="47.14663" lon="5.65257">
        <ele>202.3</ele>
        <time>2019-08-17T16:54:29Z</time>
      </trkpt>
      <trkpt lat="47.14667" lon="5.6525">
        <ele>202.3</ele>
        <time>2019-08-17T16:54:30Z</time>
      </trkpt>
      <trkpt lat="47.14671" lon="5.65242">
        <ele>202.3</ele>
        <time>2019-08-17T16:54:31Z</time>
      </trkpt>
      <trkpt lat="47.14675" lon="5.65234">
        <ele>202.3</ele>
        <time>2019-08-17T16:54:32Z</time>
      </trkpt>
      <trkpt lat="47.14678" lon="5.65227">
        <ele>202.3</ele>
        <time>2019-08-17T16:54:33Z</time>
      </trkpt>
      <trkpt lat="47.14682" lon="5.6522">
        <ele>202.3</ele>
        <time>2019-08-17T16:54:34Z</time>
      </trkpt>
      <trkpt lat="47.14685" lon="5.65214">
        <ele>202.3</ele>
        <time>2019-08-17T16:54:35Z</time>
      </trkpt>
      <trkpt lat="47.14688" lon="5.65208">
        <ele>202.3</ele>
        <time>2019-08-17T16:54:36Z</time>
      </trkpt>
      <trkpt lat="47.1469" lon="5.65201">
        <ele>202.4</ele>
        <time>2019-08-17T16:54:37Z</time>
      </trkpt>
      <trkpt lat="47.14692" lon="5.65195">
        <ele>202.4</ele>
        <time>2019-08-17T16:54:38Z</time>
      </trkpt>
      <trkpt lat="47.14694" lon="5.65189">
        <ele>202.4</ele>
        <time>2019-08-17T16:54:39Z</time>
      </trkpt>
      <trkpt lat="47.14695" lon="5.65181">
        <ele>202.4</ele>
        <time>2019-08-17T16:54:40Z</time>
      </trkpt>
      <trkpt lat="47.14695" lon="5.65174">
        <ele>202.4</ele>
        <time>2019-08-17T16:54:41Z</time>
      </trkpt>
      <trkpt lat="47.14696" lon="5.65167">
        <ele>202.4</ele>
        <time>2019-08-17T16:54:42Z</time>
      </trkpt>
      <trkpt lat="47.14696" lon="5.6516">
        <ele>202.5</ele>
        <time>2019-08-17T16:54:43Z</time>
      </trkpt>
      <trkpt lat="47.14696" lon="5.65152">
        <ele>202.5</ele>
        <time>2019-08-17T16:54:44Z</time>
      </trkpt>
      <trkpt lat="47.14695" lon="5.65145">
        <ele>202.5</ele>
        <time>2019-08-17T16:54:45Z</time>
      </trkpt>
      <trkpt lat="47.14695" lon="5.65138">
        <ele>202.5</ele>
        <time>2019-08-17T16:54:46Z</time>
      </trkpt>
      <trkpt lat="47.14695" lon="5.65131">
        <ele>202.5</ele>
        <time>2019-08-17T16:54:47Z</time>
      </trkpt>
      <trkpt lat="47.14695" lon="5.65125">
        <ele>202.5</ele>
        <time>2019-08-17T16:54:48Z</time>
      </trkpt>
      <trkpt lat="47.14694" lon="5.65119">
        <ele>202.6</ele>
        <time>2019-08-17T16:54:49Z</time>
      </trkpt>
      <trkpt lat="47.14694" lon="5.65113">
        <ele>202.6</ele>
        <time>2019-08-17T16:54:50Z</time>
      </trkpt>
      <trkpt lat="47.14693" lon="5.65105">
        <ele>202.6</ele>
        <time>2019-08-17T16:54:51Z</time>
      </trkpt>
      <trkpt lat="47.14693" lon="5.65098">
        <ele>202.6</ele>
        <time>2019-08-17T16:54:52Z</time>
      </trkpt>
      <trkpt lat="47.14693" lon="5.65091">
        <ele>202.6</ele>
        <time>2019-08-17T16:54:53Z</time>
      </trkpt>
      <trkpt lat="47.14693" lon="5.65084">
        <ele>202.6</ele>
        <time>2019-08-17T16:54:54Z</time>
      </trkpt>
      <trkpt lat="47.14693" lon="5.65076">
        <ele>202.7</ele>
        <time>2019-08-17T16:54:55Z</time>
      </trkpt>
      <trkpt lat="47.14693" lon="5.65071">
        <ele>202.7</ele>
        <time>2019-08-17T16:54:56Z</time>
      </trkpt>
      <trkpt lat="47.14693" lon="5.65063">
        <ele>202.7</ele>
        <time>2019-08-17T16:54:57Z</time>
      </trkpt>
      <trkpt lat="47.14693" lon="5.65057">
        <ele>202.7</ele>
        <time>2019-08-17T16:54:58Z</time>
      </trkpt>
      <trkpt lat="47.14693" lon="5.6505">
        <ele>202.7</ele>
        <time>2019-08-17T16:54:59Z</time>
      </trkpt>
      <trkpt lat="47.14693" lon="5.65043">
        <ele>202.7</ele>
        <time>2019-08-17T16:55:00Z</time>
      </trkpt>
      <trkpt lat="47.14692" lon="5.65036">
        <ele>202.7</ele>
        <time>2019-08-17T16:55:01Z</time>
      </trkpt>
      <trkpt lat="47.14692" lon="5.65027">
        <ele>202.7</ele>
        <time>2019-08-17T16:55:02Z</time>
      </trkpt>
      <trkpt lat="47.14692" lon="5.65019">
        <ele>202.7</ele>
        <time>2019-08-17T16:55:03Z</time>
      </trkpt>
      <trkpt lat="47.14692" lon="5.65012">
        <ele>202.7</ele>
        <time>2019-08-17T16:55:04Z</time>
      </trkpt>
      <trkpt lat="47.14693" lon="5.65005">
        <ele>202.7</ele>
        <time>2019-08-17T16:55:05Z</time>
      </trkpt>
      <trkpt lat="47.14693" lon="5.64996">
        <ele>202.7</ele>
        <time>2019-08-17T16:55:06Z</time>
      </trkpt>
      <trkpt lat="47.14694" lon="5.6499">
        <ele>202.7</ele>
        <time>2019-08-17T16:55:07Z</time>
      </trkpt>
      <trkpt lat="47.14694" lon="5.64983">
        <ele>202.7</ele>
        <time>2019-08-17T16:55:08Z</time>
      </trkpt>
      <trkpt lat="47.14693" lon="5.64977">
        <ele>202.6</ele>
        <time>2019-08-17T16:55:09Z</time>
      </trkpt>
      <trkpt lat="47.14693" lon="5.64971">
        <ele>202.6</ele>
        <time>2019-08-17T16:55:10Z</time>
      </trkpt>
      <trkpt lat="47.14693" lon="5.64964">
        <ele>202.6</ele>
        <time>2019-08-17T16:55:11Z</time>
      </trkpt>
      <trkpt lat="47.14693" lon="5.64956">
        <ele>202.6</ele>
        <time>2019-08-17T16:55:12Z</time>
      </trkpt>
      <trkpt lat="47.14693" lon="5.6495">
        <ele>202.6</ele>
        <time>2019-08-17T16:55:13Z</time>
      </trkpt>
      <trkpt lat="47.14693" lon="5.64943">
        <ele>202.5</ele>
        <time>2019-08-17T16:55:14Z</time>
      </trkpt>
      <trkpt lat="47.14694" lon="5.64935">
        <ele>202.5</ele>
        <time>2019-08-17T16:55:15Z</time>
      </trkpt>
      <trkpt lat="47.14693" lon="5.64928">
        <ele>202.5</ele>
        <time>2019-08-17T16:55:16Z</time>
      </trkpt>
      <trkpt lat="47.14692" lon="5.6492">
        <ele>202.5</ele>
        <time>2019-08-17T16:55:17Z</time>
      </trkpt>
      <trkpt lat="47.14692" lon="5.64913">
        <ele>202.5</ele>
        <time>2019-08-17T16:55:18Z</time>
      </trkpt>
      <trkpt lat="47.14691" lon="5.64905">
        <ele>202.5</ele>
        <time>2019-08-17T16:55:19Z</time>
      </trkpt>
      <trkpt lat="47.1469" lon="5.64898">
        <ele>202.4</ele>
        <time>2019-08-17T16:55:20Z</time>
      </trkpt>
      <trkpt lat="47.1469" lon="5.64892">
        <ele>202.4</ele>
        <time>2019-08-17T16:55:21Z</time>
      </trkpt>
      <trkpt lat="47.14691" lon="5.64886">
        <ele>202.4</ele>
        <time>2019-08-17T16:55:23Z</time>
      </trkpt>
      <trkpt lat="47.14691" lon="5.6489">
        <ele>202.4</ele>
        <time>2019-08-17T16:55:24Z</time>
      </trkpt>
      <trkpt lat="47.14693" lon="5.64894">
        <ele>202.4</ele>
        <time>2019-08-17T16:55:26Z</time>
      </trkpt>
      <trkpt lat="47.14692" lon="5.64889">
        <ele>202.4</ele>
        <time>2019-08-17T16:55:28Z</time>
      </trkpt>
      <trkpt lat="47.14689" lon="5.64891">
        <ele>202.4</ele>
        <time>2019-08-17T16:55:42Z</time>
      </trkpt>
      <trkpt lat="47.14689" lon="5.649">
        <ele>202.5</ele>
        <time>2019-08-17T16:56:22Z</time>
      </trkpt>
      <trkpt lat="47.14691" lon="5.64891">
        <ele>202.5</ele>
        <time>2019-08-17T16:56:24Z</time>
      </trkpt>
      <trkpt lat="47.14691" lon="5.64884">
        <ele>202.5</ele>
        <time>2019-08-17T16:56:25Z</time>
      </trkpt>
      <trkpt lat="47.14691" lon="5.64878">
        <ele>202.5</ele>
        <time>2019-08-17T16:56:26Z</time>
      </trkpt>
      <trkpt lat="47.1469" lon="5.64872">
        <ele>202.5</ele>
        <time>2019-08-17T16:56:27Z</time>
      </trkpt>
      <trkpt lat="47.1469" lon="5.64867">
        <ele>202.5</ele>
        <time>2019-08-17T16:56:28Z</time>
      </trkpt>
      <trkpt lat="47.1469" lon="5.64862">
        <ele>202.5</ele>
        <time>2019-08-17T16:56:29Z</time>
      </trkpt>
      <trkpt lat="47.14689" lon="5.64858">
        <ele>202.6</ele>
        <time>2019-08-17T16:56:30Z</time>
      </trkpt>
      <trkpt lat="47.14689" lon="5.64854">
        <ele>202.6</ele>
        <time>2019-08-17T16:56:31Z</time>
      </trkpt>
      <trkpt lat="47.14689" lon="5.64847">
        <ele>202.6</ele>
        <time>2019-08-17T16:56:33Z</time>
      </trkpt>
      <trkpt lat="47.14689" lon="5.64839">
        <ele>202.6</ele>
        <time>2019-08-17T16:56:35Z</time>
      </trkpt>
      <trkpt lat="47.14689" lon="5.64832">
        <ele>202.6</ele>
        <time>2019-08-17T16:56:37Z</time>
      </trkpt>
      <trkpt lat="47.14689" lon="5.64825">
        <ele>202.6</ele>
        <time>2019-08-17T16:56:39Z</time>
      </trkpt>
      <trkpt lat="47.14689" lon="5.6482">
        <ele>202.7</ele>
        <time>2019-08-17T16:56:40Z</time>
      </trkpt>
      <trkpt lat="47.14689" lon="5.64815">
        <ele>202.7</ele>
        <time>2019-08-17T16:56:41Z</time>
      </trkpt>
      <trkpt lat="47.14689" lon="5.6481">
        <ele>202.7</ele>
        <time>2019-08-17T16:56:42Z</time>
      </trkpt>
      <trkpt lat="47.14689" lon="5.64805">
        <ele>202.7</ele>
        <time>2019-08-17T16:56:43Z</time>
      </trkpt>
      <trkpt lat="47.14687" lon="5.648">
        <ele>202.7</ele>
        <time>2019-08-17T16:56:44Z</time>
      </trkpt>
      <trkpt lat="47.14687" lon="5.64796">
        <ele>202.7</ele>
        <time>2019-08-17T16:56:45Z</time>
      </trkpt>
      <trkpt lat="47.14686" lon="5.64792">
        <ele>202.7</ele>
        <time>2019-08-17T16:56:46Z</time>
      </trkpt>
      <trkpt lat="47.14685" lon="5.64784">
        <ele>202.8</ele>
        <time>2019-08-17T16:56:48Z</time>
      </trkpt>
      <trkpt lat="47.14685" lon="5.64779">
        <ele>202.8</ele>
        <time>2019-08-17T16:56:49Z</time>
      </trkpt>
      <trkpt lat="47.14685" lon="5.64775">
        <ele>202.8</ele>
        <time>2019-08-17T16:56:50Z</time>
      </trkpt>
      <trkpt lat="47.14684" lon="5.64769">
        <ele>202.8</ele>
        <time>2019-08-17T16:56:51Z</time>
      </trkpt>
      <trkpt lat="47.14683" lon="5.64762">
        <ele>202.8</ele>
        <time>2019-08-17T16:56:53Z</time>
      </trkpt>
      <trkpt lat="47.14683" lon="5.64755">
        <ele>202.8</ele>
        <time>2019-08-17T16:56:55Z</time>
      </trkpt>
      <trkpt lat="47.14682" lon="5.64747">
        <ele>202.8</ele>
        <time>2019-08-17T16:56:57Z</time>
      </trkpt>
      <trkpt lat="47.14682" lon="5.64743">
        <ele>202.8</ele>
        <time>2019-08-17T16:56:58Z</time>
      </trkpt>
      <trkpt lat="47.14682" lon="5.64738">
        <ele>202.8</ele>
        <time>2019-08-17T16:56:59Z</time>
      </trkpt>
      <trkpt lat="47.14681" lon="5.64734">
        <ele>202.8</ele>
        <time>2019-08-17T16:57:00Z</time>
      </trkpt>
      <trkpt lat="47.1468" lon="5.64729">
        <ele>202.8</ele>
        <time>2019-08-17T16:57:01Z</time>
      </trkpt>
      <trkpt lat="47.1468" lon="5.64725">
        <ele>202.8</ele>
        <time>2019-08-17T16:57:02Z</time>
      </trkpt>
      <trkpt lat="47.1468" lon="5.6472">
        <ele>202.8</ele>
        <time>2019-08-17T16:57:03Z</time>
      </trkpt>
      <trkpt lat="47.1468" lon="5.64716">
        <ele>202.8</ele>
        <time>2019-08-17T16:57:04Z</time>
      </trkpt>
      <trkpt lat="47.1468" lon="5.64712">
        <ele>202.8</ele>
        <time>2019-08-17T16:57:05Z</time>
      </trkpt>
      <trkpt lat="47.1468" lon="5.64704">
        <ele>202.8</ele>
        <time>2019-08-17T16:57:07Z</time>
      </trkpt>
      <trkpt lat="47.14679" lon="5.64699">
        <ele>202.8</ele>
        <time>2019-08-17T16:57:09Z</time>
      </trkpt>
      <trkpt lat="47.14679" lon="5.64695">
        <ele>202.8</ele>
        <time>2019-08-17T16:57:11Z</time>
      </trkpt>
      <trkpt lat="47.14679" lon="5.6469">
        <ele>202.8</ele>
        <time>2019-08-17T16:57:13Z</time>
      </trkpt>
      <trkpt lat="47.14678" lon="5.64686">
        <ele>202.7</ele>
        <time>2019-08-17T16:57:16Z</time>
      </trkpt>
      <trkpt lat="47.14676" lon="5.64689">
        <ele>202.7</ele>
        <time>2019-08-17T16:58:36Z</time>
      </trkpt>
      <trkpt lat="47.14677" lon="5.64695">
        <ele>202.7</ele>
        <time>2019-08-17T16:58:38Z</time>
      </trkpt>
      <trkpt lat="47.14676" lon="5.64703">
        <ele>202.7</ele>
        <time>2019-08-17T16:58:40Z</time>
      </trkpt>
      <trkpt lat="47.14676" lon="5.64707">
        <ele>202.7</ele>
        <time>2019-08-17T16:58:41Z</time>
      </trkpt>
      <trkpt lat="47.14676" lon="5.64711">
        <ele>202.8</ele>
        <time>2019-08-17T16:58:42Z</time>
      </trkpt>
      <trkpt lat="47.14676" lon="5.64715">
        <ele>202.8</ele>
        <time>2019-08-17T16:58:43Z</time>
      </trkpt>
      <trkpt lat="47.14678" lon="5.64723">
        <ele>202.8</ele>
        <time>2019-08-17T16:58:45Z</time>
      </trkpt>
      <trkpt lat="47.14679" lon="5.64727">
        <ele>202.8</ele>
        <time>2019-08-17T16:58:46Z</time>
      </trkpt>
      <trkpt lat="47.14679" lon="5.64731">
        <ele>202.8</ele>
        <time>2019-08-17T16:58:47Z</time>
      </trkpt>
      <trkpt lat="47.14679" lon="5.64736">
        <ele>202.8</ele>
        <time>2019-08-17T16:58:48Z</time>
      </trkpt>
      <trkpt lat="47.1468" lon="5.64744">
        <ele>202.8</ele>
        <time>2019-08-17T16:58:50Z</time>
      </trkpt>
      <trkpt lat="47.14681" lon="5.64748">
        <ele>202.8</ele>
        <time>2019-08-17T16:58:51Z</time>
      </trkpt>
      <trkpt lat="47.14682" lon="5.64752">
        <ele>202.8</ele>
        <time>2019-08-17T16:58:52Z</time>
      </trkpt>
      <trkpt lat="47.14682" lon="5.64759">
        <ele>202.8</ele>
        <time>2019-08-17T16:58:54Z</time>
      </trkpt>
      <trkpt lat="47.14681" lon="5.64765">
        <ele>202.8</ele>
        <time>2019-08-17T16:58:56Z</time>
      </trkpt>
      <trkpt lat="47.14681" lon="5.64769">
        <ele>202.8</ele>
        <time>2019-08-17T16:58:58Z</time>
      </trkpt>
      <trkpt lat="47.1468" lon="5.64774">
        <ele>202.8</ele>
        <time>2019-08-17T16:59:00Z</time>
      </trkpt>
      <trkpt lat="47.14677" lon="5.64778">
        <ele>202.8</ele>
        <time>2019-08-17T16:59:03Z</time>
      </trkpt>
      <trkpt lat="47.14674" lon="5.64777">
        <ele>202.8</ele>
        <time>2019-08-17T16:59:06Z</time>
      </trkpt>
      <trkpt lat="47.14671" lon="5.64778">
        <ele>202.8</ele>
        <time>2019-08-17T16:59:20Z</time>
      </trkpt>
      <trkpt lat="47.14669" lon="5.64781">
        <ele>202.8</ele>
        <time>2019-08-17T16:59:25Z</time>
      </trkpt>
      <trkpt lat="47.1467" lon="5.64785">
        <ele>202.8</ele>
        <time>2019-08-17T16:59:34Z</time>
      </trkpt>
      <trkpt lat="47.14672" lon="5.64779">
        <ele>202.8</ele>
        <time>2019-08-17T17:00:03Z</time>
      </trkpt>
      <trkpt lat="47.14673" lon="5.64775">
        <ele>202.8</ele>
        <time>2019-08-17T17:00:17Z</time>
      </trkpt>
      <trkpt lat="47.14673" lon="5.64771">
        <ele>202.8</ele>
        <time>2019-08-17T17:00:26Z</time>
      </trkpt>
      <trkpt lat="47.14678" lon="5.64789">
        <ele>202.8</ele>
        <time>2019-08-17T17:01:47Z</time>
      </trkpt>
    </trkseg>
  </trk>
</gpx>